<?xml version="1.0" encoding="UTF-8" standalone="no" ?>
<gpx xmlns="http://www.topografix.com/GPX/1/1" xmlns:xsi="http://www.w3.org/2001/XMLSchema-instance" xsi:schemaLocation="http://www.topografix.com/GPX/1/1 http://www.topografix.com/GPX/1/1/gpx.xsd" version="1.1" creator="VisuGPX - https://www.visugpx.com">
  <metadata>
    <name>Namps-au-Mont </name>
    <desc><![CDATA[Cœur et santé 31 pax. Beau tracé. ]]></desc>
  </metadata>
  <trk>
    <name><![CDATA[Namps-au-Mont _1]]></name>
    <trkseg>
      <trkpt lat="49.8144" lon="2.11374">
        <ele>131.6</ele>
        <time>2023-02-22T12:59:58Z</time>
      </trkpt>
      <trkpt lat="49.8145" lon="2.1137">
        <ele>131.7</ele>
        <time>2023-02-22T13:00:03Z</time>
      </trkpt>
      <trkpt lat="49.81443" lon="2.11367">
        <ele>131.7</ele>
        <time>2023-02-22T13:00:04Z</time>
      </trkpt>
      <trkpt lat="49.81441" lon="2.11366">
        <ele>131.7</ele>
        <time>2023-02-22T13:00:05Z</time>
      </trkpt>
      <trkpt lat="49.81437" lon="2.11364">
        <ele>131.7</ele>
        <time>2023-02-22T13:00:06Z</time>
      </trkpt>
      <trkpt lat="49.81434" lon="2.11363">
        <ele>131.7</ele>
        <time>2023-02-22T13:00:07Z</time>
      </trkpt>
      <trkpt lat="49.81439" lon="2.11365">
        <ele>131.7</ele>
        <time>2023-02-22T13:00:08Z</time>
      </trkpt>
      <trkpt lat="49.81444" lon="2.11366">
        <ele>131.7</ele>
        <time>2023-02-22T13:00:09Z</time>
      </trkpt>
      <trkpt lat="49.81449" lon="2.11368">
        <ele>131.7</ele>
        <time>2023-02-22T13:00:10Z</time>
      </trkpt>
      <trkpt lat="49.81453" lon="2.11369">
        <ele>131.7</ele>
        <time>2023-02-22T13:00:11Z</time>
      </trkpt>
      <trkpt lat="49.81454" lon="2.1137">
        <ele>131.7</ele>
        <time>2023-02-22T13:00:12Z</time>
      </trkpt>
      <trkpt lat="49.81454" lon="2.1137">
        <ele>131.7</ele>
        <time>2023-02-22T13:00:13Z</time>
      </trkpt>
      <trkpt lat="49.81454" lon="2.1137">
        <ele>131.7</ele>
        <time>2023-02-22T13:00:14Z</time>
      </trkpt>
      <trkpt lat="49.81454" lon="2.1137">
        <ele>131.7</ele>
        <time>2023-02-22T13:00:15Z</time>
      </trkpt>
      <trkpt lat="49.81454" lon="2.1137">
        <ele>131.7</ele>
        <time>2023-02-22T13:00:16Z</time>
      </trkpt>
      <trkpt lat="49.81454" lon="2.1137">
        <ele>131.7</ele>
        <time>2023-02-22T13:00:17Z</time>
      </trkpt>
      <trkpt lat="49.81454" lon="2.1137">
        <ele>131.7</ele>
        <time>2023-02-22T13:00:18Z</time>
      </trkpt>
      <trkpt lat="49.81454" lon="2.1137">
        <ele>131.7</ele>
        <time>2023-02-22T13:00:19Z</time>
      </trkpt>
      <trkpt lat="49.81454" lon="2.1137">
        <ele>131.7</ele>
        <time>2023-02-22T13:00:20Z</time>
      </trkpt>
      <trkpt lat="49.81454" lon="2.1137">
        <ele>131.7</ele>
        <time>2023-02-22T13:00:21Z</time>
      </trkpt>
      <trkpt lat="49.81454" lon="2.1137">
        <ele>131.7</ele>
        <time>2023-02-22T13:00:22Z</time>
      </trkpt>
      <trkpt lat="49.81454" lon="2.1137">
        <ele>131.7</ele>
        <time>2023-02-22T13:00:23Z</time>
      </trkpt>
      <trkpt lat="49.81454" lon="2.1137">
        <ele>131.7</ele>
        <time>2023-02-22T13:00:24Z</time>
      </trkpt>
      <trkpt lat="49.81454" lon="2.1137">
        <ele>131.7</ele>
        <time>2023-02-22T13:00:25Z</time>
      </trkpt>
      <trkpt lat="49.81454" lon="2.1137">
        <ele>131.7</ele>
        <time>2023-02-22T13:00:26Z</time>
      </trkpt>
      <trkpt lat="49.81454" lon="2.1137">
        <ele>131.7</ele>
        <time>2023-02-22T13:00:27Z</time>
      </trkpt>
      <trkpt lat="49.81454" lon="2.1137">
        <ele>131.7</ele>
        <time>2023-02-22T13:00:28Z</time>
      </trkpt>
      <trkpt lat="49.81454" lon="2.1137">
        <ele>131.7</ele>
        <time>2023-02-22T13:00:29Z</time>
      </trkpt>
      <trkpt lat="49.81454" lon="2.1137">
        <ele>131.7</ele>
        <time>2023-02-22T13:00:30Z</time>
      </trkpt>
      <trkpt lat="49.81454" lon="2.1137">
        <ele>131.7</ele>
        <time>2023-02-22T13:00:31Z</time>
      </trkpt>
      <trkpt lat="49.81454" lon="2.1137">
        <ele>131.7</ele>
        <time>2023-02-22T13:00:32Z</time>
      </trkpt>
      <trkpt lat="49.81454" lon="2.1137">
        <ele>131.7</ele>
        <time>2023-02-22T13:00:33Z</time>
      </trkpt>
      <trkpt lat="49.81454" lon="2.1137">
        <ele>131.7</ele>
        <time>2023-02-22T13:00:34Z</time>
      </trkpt>
      <trkpt lat="49.81454" lon="2.1137">
        <ele>131.7</ele>
        <time>2023-02-22T13:00:35Z</time>
      </trkpt>
      <trkpt lat="49.81454" lon="2.1137">
        <ele>131.7</ele>
        <time>2023-02-22T13:00:36Z</time>
      </trkpt>
      <trkpt lat="49.81454" lon="2.1137">
        <ele>131.7</ele>
        <time>2023-02-22T13:00:37Z</time>
      </trkpt>
      <trkpt lat="49.81454" lon="2.1137">
        <ele>131.7</ele>
        <time>2023-02-22T13:00:38Z</time>
      </trkpt>
      <trkpt lat="49.81454" lon="2.1137">
        <ele>131.7</ele>
        <time>2023-02-22T13:00:39Z</time>
      </trkpt>
      <trkpt lat="49.81454" lon="2.1137">
        <ele>131.7</ele>
        <time>2023-02-22T13:00:40Z</time>
      </trkpt>
      <trkpt lat="49.81454" lon="2.1137">
        <ele>131.7</ele>
        <time>2023-02-22T13:00:41Z</time>
      </trkpt>
      <trkpt lat="49.81454" lon="2.1137">
        <ele>131.7</ele>
        <time>2023-02-22T13:00:42Z</time>
      </trkpt>
      <trkpt lat="49.81454" lon="2.1137">
        <ele>131.7</ele>
        <time>2023-02-22T13:00:43Z</time>
      </trkpt>
      <trkpt lat="49.81454" lon="2.1137">
        <ele>131.7</ele>
        <time>2023-02-22T13:00:44Z</time>
      </trkpt>
      <trkpt lat="49.81454" lon="2.1137">
        <ele>131.7</ele>
        <time>2023-02-22T13:00:45Z</time>
      </trkpt>
      <trkpt lat="49.81454" lon="2.1137">
        <ele>131.7</ele>
        <time>2023-02-22T13:00:46Z</time>
      </trkpt>
      <trkpt lat="49.81454" lon="2.1137">
        <ele>131.7</ele>
        <time>2023-02-22T13:00:47Z</time>
      </trkpt>
      <trkpt lat="49.81454" lon="2.1137">
        <ele>131.7</ele>
        <time>2023-02-22T13:00:48Z</time>
      </trkpt>
      <trkpt lat="49.81454" lon="2.1137">
        <ele>131.7</ele>
        <time>2023-02-22T13:00:49Z</time>
      </trkpt>
      <trkpt lat="49.81454" lon="2.1137">
        <ele>131.7</ele>
        <time>2023-02-22T13:00:50Z</time>
      </trkpt>
      <trkpt lat="49.81454" lon="2.1137">
        <ele>131.7</ele>
        <time>2023-02-22T13:00:51Z</time>
      </trkpt>
      <trkpt lat="49.81454" lon="2.1137">
        <ele>131.7</ele>
        <time>2023-02-22T13:00:52Z</time>
      </trkpt>
      <trkpt lat="49.81454" lon="2.1137">
        <ele>131.7</ele>
        <time>2023-02-22T13:00:53Z</time>
      </trkpt>
      <trkpt lat="49.81454" lon="2.1137">
        <ele>131.7</ele>
        <time>2023-02-22T13:00:54Z</time>
      </trkpt>
      <trkpt lat="49.81454" lon="2.1137">
        <ele>131.7</ele>
        <time>2023-02-22T13:00:55Z</time>
      </trkpt>
      <trkpt lat="49.81454" lon="2.1137">
        <ele>131.7</ele>
        <time>2023-02-22T13:00:56Z</time>
      </trkpt>
      <trkpt lat="49.81454" lon="2.1137">
        <ele>131.7</ele>
        <time>2023-02-22T13:00:57Z</time>
      </trkpt>
      <trkpt lat="49.81454" lon="2.1137">
        <ele>131.7</ele>
        <time>2023-02-22T13:00:58Z</time>
      </trkpt>
      <trkpt lat="49.81454" lon="2.1137">
        <ele>131.7</ele>
        <time>2023-02-22T13:00:59Z</time>
      </trkpt>
      <trkpt lat="49.81454" lon="2.1137">
        <ele>131.7</ele>
        <time>2023-02-22T13:01:00Z</time>
      </trkpt>
      <trkpt lat="49.81454" lon="2.1137">
        <ele>131.7</ele>
        <time>2023-02-22T13:01:01Z</time>
      </trkpt>
      <trkpt lat="49.81454" lon="2.1137">
        <ele>131.7</ele>
        <time>2023-02-22T13:01:02Z</time>
      </trkpt>
      <trkpt lat="49.81454" lon="2.1137">
        <ele>131.7</ele>
        <time>2023-02-22T13:01:03Z</time>
      </trkpt>
      <trkpt lat="49.81454" lon="2.1137">
        <ele>131.7</ele>
        <time>2023-02-22T13:01:04Z</time>
      </trkpt>
      <trkpt lat="49.81454" lon="2.1137">
        <ele>131.7</ele>
        <time>2023-02-22T13:01:05Z</time>
      </trkpt>
      <trkpt lat="49.81454" lon="2.1137">
        <ele>131.7</ele>
        <time>2023-02-22T13:01:06Z</time>
      </trkpt>
      <trkpt lat="49.81454" lon="2.1137">
        <ele>131.7</ele>
        <time>2023-02-22T13:01:07Z</time>
      </trkpt>
      <trkpt lat="49.81454" lon="2.1137">
        <ele>131.7</ele>
        <time>2023-02-22T13:01:08Z</time>
      </trkpt>
      <trkpt lat="49.81454" lon="2.1137">
        <ele>131.7</ele>
        <time>2023-02-22T13:01:09Z</time>
      </trkpt>
      <trkpt lat="49.81454" lon="2.1137">
        <ele>131.7</ele>
        <time>2023-02-22T13:01:10Z</time>
      </trkpt>
      <trkpt lat="49.81454" lon="2.1137">
        <ele>131.7</ele>
        <time>2023-02-22T13:01:11Z</time>
      </trkpt>
      <trkpt lat="49.81454" lon="2.1137">
        <ele>131.7</ele>
        <time>2023-02-22T13:01:12Z</time>
      </trkpt>
      <trkpt lat="49.81454" lon="2.1137">
        <ele>131.7</ele>
        <time>2023-02-22T13:01:13Z</time>
      </trkpt>
      <trkpt lat="49.81454" lon="2.1137">
        <ele>131.7</ele>
        <time>2023-02-22T13:01:14Z</time>
      </trkpt>
      <trkpt lat="49.81454" lon="2.1137">
        <ele>131.7</ele>
        <time>2023-02-22T13:01:15Z</time>
      </trkpt>
      <trkpt lat="49.81454" lon="2.1137">
        <ele>131.7</ele>
        <time>2023-02-22T13:01:16Z</time>
      </trkpt>
      <trkpt lat="49.81454" lon="2.1137">
        <ele>131.7</ele>
        <time>2023-02-22T13:01:17Z</time>
      </trkpt>
      <trkpt lat="49.81454" lon="2.1137">
        <ele>131.7</ele>
        <time>2023-02-22T13:01:19Z</time>
      </trkpt>
      <trkpt lat="49.81454" lon="2.1137">
        <ele>131.7</ele>
        <time>2023-02-22T13:01:20Z</time>
      </trkpt>
      <trkpt lat="49.81454" lon="2.1137">
        <ele>131.7</ele>
        <time>2023-02-22T13:01:21Z</time>
      </trkpt>
      <trkpt lat="49.81454" lon="2.1137">
        <ele>131.7</ele>
        <time>2023-02-22T13:01:22Z</time>
      </trkpt>
      <trkpt lat="49.81454" lon="2.1137">
        <ele>131.7</ele>
        <time>2023-02-22T13:01:23Z</time>
      </trkpt>
      <trkpt lat="49.81454" lon="2.1137">
        <ele>131.7</ele>
        <time>2023-02-22T13:01:24Z</time>
      </trkpt>
      <trkpt lat="49.81454" lon="2.1137">
        <ele>131.7</ele>
        <time>2023-02-22T13:01:25Z</time>
      </trkpt>
      <trkpt lat="49.81454" lon="2.1137">
        <ele>131.7</ele>
        <time>2023-02-22T13:01:26Z</time>
      </trkpt>
      <trkpt lat="49.81454" lon="2.1137">
        <ele>131.7</ele>
        <time>2023-02-22T13:01:27Z</time>
      </trkpt>
      <trkpt lat="49.81454" lon="2.1137">
        <ele>131.7</ele>
        <time>2023-02-22T13:01:28Z</time>
      </trkpt>
      <trkpt lat="49.81454" lon="2.1137">
        <ele>131.7</ele>
        <time>2023-02-22T13:01:29Z</time>
      </trkpt>
      <trkpt lat="49.81454" lon="2.1137">
        <ele>131.7</ele>
        <time>2023-02-22T13:01:30Z</time>
      </trkpt>
      <trkpt lat="49.81454" lon="2.1137">
        <ele>131.7</ele>
        <time>2023-02-22T13:01:31Z</time>
      </trkpt>
      <trkpt lat="49.81454" lon="2.1137">
        <ele>131.7</ele>
        <time>2023-02-22T13:01:32Z</time>
      </trkpt>
      <trkpt lat="49.81454" lon="2.1137">
        <ele>131.7</ele>
        <time>2023-02-22T13:01:33Z</time>
      </trkpt>
      <trkpt lat="49.81454" lon="2.1137">
        <ele>131.7</ele>
        <time>2023-02-22T13:01:34Z</time>
      </trkpt>
      <trkpt lat="49.81454" lon="2.1137">
        <ele>131.7</ele>
        <time>2023-02-22T13:01:35Z</time>
      </trkpt>
      <trkpt lat="49.81454" lon="2.1137">
        <ele>131.7</ele>
        <time>2023-02-22T13:01:36Z</time>
      </trkpt>
      <trkpt lat="49.81454" lon="2.1137">
        <ele>131.7</ele>
        <time>2023-02-22T13:01:37Z</time>
      </trkpt>
      <trkpt lat="49.81454" lon="2.1137">
        <ele>131.7</ele>
        <time>2023-02-22T13:01:38Z</time>
      </trkpt>
      <trkpt lat="49.81454" lon="2.1137">
        <ele>131.7</ele>
        <time>2023-02-22T13:01:39Z</time>
      </trkpt>
      <trkpt lat="49.81454" lon="2.1137">
        <ele>131.7</ele>
        <time>2023-02-22T13:01:40Z</time>
      </trkpt>
      <trkpt lat="49.81454" lon="2.1137">
        <ele>131.7</ele>
        <time>2023-02-22T13:01:41Z</time>
      </trkpt>
      <trkpt lat="49.81454" lon="2.1137">
        <ele>131.7</ele>
        <time>2023-02-22T13:01:42Z</time>
      </trkpt>
      <trkpt lat="49.81454" lon="2.1137">
        <ele>131.7</ele>
        <time>2023-02-22T13:01:43Z</time>
      </trkpt>
      <trkpt lat="49.81454" lon="2.1137">
        <ele>131.7</ele>
        <time>2023-02-22T13:01:44Z</time>
      </trkpt>
      <trkpt lat="49.81454" lon="2.1137">
        <ele>131.7</ele>
        <time>2023-02-22T13:01:45Z</time>
      </trkpt>
      <trkpt lat="49.81454" lon="2.1137">
        <ele>131.7</ele>
        <time>2023-02-22T13:01:46Z</time>
      </trkpt>
      <trkpt lat="49.81454" lon="2.1137">
        <ele>131.7</ele>
        <time>2023-02-22T13:01:47Z</time>
      </trkpt>
      <trkpt lat="49.81454" lon="2.1137">
        <ele>131.7</ele>
        <time>2023-02-22T13:01:48Z</time>
      </trkpt>
      <trkpt lat="49.81454" lon="2.1137">
        <ele>131.7</ele>
        <time>2023-02-22T13:01:49Z</time>
      </trkpt>
      <trkpt lat="49.81454" lon="2.1137">
        <ele>131.7</ele>
        <time>2023-02-22T13:01:50Z</time>
      </trkpt>
      <trkpt lat="49.81454" lon="2.1137">
        <ele>131.7</ele>
        <time>2023-02-22T13:01:51Z</time>
      </trkpt>
      <trkpt lat="49.81454" lon="2.1137">
        <ele>131.7</ele>
        <time>2023-02-22T13:01:52Z</time>
      </trkpt>
      <trkpt lat="49.81454" lon="2.1137">
        <ele>131.7</ele>
        <time>2023-02-22T13:01:53Z</time>
      </trkpt>
      <trkpt lat="49.81454" lon="2.1137">
        <ele>131.7</ele>
        <time>2023-02-22T13:01:54Z</time>
      </trkpt>
      <trkpt lat="49.81454" lon="2.1137">
        <ele>131.7</ele>
        <time>2023-02-22T13:01:55Z</time>
      </trkpt>
      <trkpt lat="49.81454" lon="2.1137">
        <ele>131.7</ele>
        <time>2023-02-22T13:01:56Z</time>
      </trkpt>
      <trkpt lat="49.81454" lon="2.1137">
        <ele>131.7</ele>
        <time>2023-02-22T13:01:57Z</time>
      </trkpt>
      <trkpt lat="49.81454" lon="2.1137">
        <ele>131.7</ele>
        <time>2023-02-22T13:01:58Z</time>
      </trkpt>
      <trkpt lat="49.81454" lon="2.1137">
        <ele>131.7</ele>
        <time>2023-02-22T13:01:59Z</time>
      </trkpt>
      <trkpt lat="49.81454" lon="2.1137">
        <ele>131.7</ele>
        <time>2023-02-22T13:02:00Z</time>
      </trkpt>
      <trkpt lat="49.81454" lon="2.1137">
        <ele>131.7</ele>
        <time>2023-02-22T13:02:01Z</time>
      </trkpt>
      <trkpt lat="49.81454" lon="2.1137">
        <ele>131.7</ele>
        <time>2023-02-22T13:02:02Z</time>
      </trkpt>
      <trkpt lat="49.81454" lon="2.1137">
        <ele>131.7</ele>
        <time>2023-02-22T13:02:03Z</time>
      </trkpt>
      <trkpt lat="49.81454" lon="2.1137">
        <ele>131.7</ele>
        <time>2023-02-22T13:02:04Z</time>
      </trkpt>
      <trkpt lat="49.81454" lon="2.1137">
        <ele>131.7</ele>
        <time>2023-02-22T13:02:05Z</time>
      </trkpt>
      <trkpt lat="49.81454" lon="2.1137">
        <ele>131.7</ele>
        <time>2023-02-22T13:02:06Z</time>
      </trkpt>
      <trkpt lat="49.81454" lon="2.1137">
        <ele>131.7</ele>
        <time>2023-02-22T13:02:07Z</time>
      </trkpt>
      <trkpt lat="49.81454" lon="2.1137">
        <ele>131.7</ele>
        <time>2023-02-22T13:02:08Z</time>
      </trkpt>
      <trkpt lat="49.81454" lon="2.1137">
        <ele>131.7</ele>
        <time>2023-02-22T13:02:09Z</time>
      </trkpt>
      <trkpt lat="49.81454" lon="2.1137">
        <ele>131.7</ele>
        <time>2023-02-22T13:02:10Z</time>
      </trkpt>
      <trkpt lat="49.81454" lon="2.1137">
        <ele>131.7</ele>
        <time>2023-02-22T13:02:11Z</time>
      </trkpt>
      <trkpt lat="49.81454" lon="2.1137">
        <ele>131.7</ele>
        <time>2023-02-22T13:02:12Z</time>
      </trkpt>
      <trkpt lat="49.81454" lon="2.1137">
        <ele>131.7</ele>
        <time>2023-02-22T13:02:13Z</time>
      </trkpt>
      <trkpt lat="49.81454" lon="2.1137">
        <ele>131.7</ele>
        <time>2023-02-22T13:02:14Z</time>
      </trkpt>
      <trkpt lat="49.81454" lon="2.1137">
        <ele>131.7</ele>
        <time>2023-02-22T13:02:15Z</time>
      </trkpt>
      <trkpt lat="49.81454" lon="2.1137">
        <ele>131.7</ele>
        <time>2023-02-22T13:02:16Z</time>
      </trkpt>
      <trkpt lat="49.81454" lon="2.1137">
        <ele>131.7</ele>
        <time>2023-02-22T13:02:17Z</time>
      </trkpt>
      <trkpt lat="49.81454" lon="2.1137">
        <ele>131.7</ele>
        <time>2023-02-22T13:02:18Z</time>
      </trkpt>
      <trkpt lat="49.81454" lon="2.1137">
        <ele>131.7</ele>
        <time>2023-02-22T13:02:19Z</time>
      </trkpt>
      <trkpt lat="49.81454" lon="2.1137">
        <ele>131.7</ele>
        <time>2023-02-22T13:02:20Z</time>
      </trkpt>
      <trkpt lat="49.81454" lon="2.1137">
        <ele>131.7</ele>
        <time>2023-02-22T13:02:21Z</time>
      </trkpt>
      <trkpt lat="49.81454" lon="2.1137">
        <ele>131.7</ele>
        <time>2023-02-22T13:02:22Z</time>
      </trkpt>
      <trkpt lat="49.81454" lon="2.1137">
        <ele>131.7</ele>
        <time>2023-02-22T13:02:23Z</time>
      </trkpt>
      <trkpt lat="49.81454" lon="2.1137">
        <ele>131.7</ele>
        <time>2023-02-22T13:02:24Z</time>
      </trkpt>
      <trkpt lat="49.81454" lon="2.1137">
        <ele>131.7</ele>
        <time>2023-02-22T13:02:25Z</time>
      </trkpt>
      <trkpt lat="49.81454" lon="2.1137">
        <ele>131.7</ele>
        <time>2023-02-22T13:02:26Z</time>
      </trkpt>
      <trkpt lat="49.81454" lon="2.1137">
        <ele>131.7</ele>
        <time>2023-02-22T13:02:27Z</time>
      </trkpt>
      <trkpt lat="49.81454" lon="2.1137">
        <ele>131.7</ele>
        <time>2023-02-22T13:02:28Z</time>
      </trkpt>
      <trkpt lat="49.81454" lon="2.1137">
        <ele>131.7</ele>
        <time>2023-02-22T13:02:29Z</time>
      </trkpt>
      <trkpt lat="49.81454" lon="2.1137">
        <ele>131.7</ele>
        <time>2023-02-22T13:02:30Z</time>
      </trkpt>
      <trkpt lat="49.81454" lon="2.1137">
        <ele>131.7</ele>
        <time>2023-02-22T13:02:31Z</time>
      </trkpt>
      <trkpt lat="49.81454" lon="2.1137">
        <ele>131.7</ele>
        <time>2023-02-22T13:02:32Z</time>
      </trkpt>
      <trkpt lat="49.81454" lon="2.1137">
        <ele>131.7</ele>
        <time>2023-02-22T13:02:33Z</time>
      </trkpt>
      <trkpt lat="49.81454" lon="2.1137">
        <ele>131.7</ele>
        <time>2023-02-22T13:02:34Z</time>
      </trkpt>
      <trkpt lat="49.81454" lon="2.1137">
        <ele>131.7</ele>
        <time>2023-02-22T13:02:35Z</time>
      </trkpt>
      <trkpt lat="49.81454" lon="2.1137">
        <ele>131.7</ele>
        <time>2023-02-22T13:02:36Z</time>
      </trkpt>
      <trkpt lat="49.81454" lon="2.1137">
        <ele>131.7</ele>
        <time>2023-02-22T13:02:37Z</time>
      </trkpt>
      <trkpt lat="49.81454" lon="2.1137">
        <ele>131.7</ele>
        <time>2023-02-22T13:02:38Z</time>
      </trkpt>
      <trkpt lat="49.81454" lon="2.1137">
        <ele>131.7</ele>
        <time>2023-02-22T13:02:39Z</time>
      </trkpt>
      <trkpt lat="49.81454" lon="2.1137">
        <ele>131.7</ele>
        <time>2023-02-22T13:02:40Z</time>
      </trkpt>
      <trkpt lat="49.81454" lon="2.1137">
        <ele>131.7</ele>
        <time>2023-02-22T13:02:41Z</time>
      </trkpt>
      <trkpt lat="49.81454" lon="2.1137">
        <ele>131.7</ele>
        <time>2023-02-22T13:02:42Z</time>
      </trkpt>
      <trkpt lat="49.81454" lon="2.1137">
        <ele>131.7</ele>
        <time>2023-02-22T13:02:43Z</time>
      </trkpt>
      <trkpt lat="49.81454" lon="2.1137">
        <ele>131.7</ele>
        <time>2023-02-22T13:02:44Z</time>
      </trkpt>
      <trkpt lat="49.81454" lon="2.1137">
        <ele>131.7</ele>
        <time>2023-02-22T13:02:45Z</time>
      </trkpt>
      <trkpt lat="49.81454" lon="2.1137">
        <ele>131.7</ele>
        <time>2023-02-22T13:02:46Z</time>
      </trkpt>
      <trkpt lat="49.81454" lon="2.1137">
        <ele>131.7</ele>
        <time>2023-02-22T13:02:47Z</time>
      </trkpt>
      <trkpt lat="49.81454" lon="2.1137">
        <ele>131.7</ele>
        <time>2023-02-22T13:02:48Z</time>
      </trkpt>
      <trkpt lat="49.81454" lon="2.1137">
        <ele>131.7</ele>
        <time>2023-02-22T13:02:49Z</time>
      </trkpt>
      <trkpt lat="49.81454" lon="2.1137">
        <ele>131.7</ele>
        <time>2023-02-22T13:02:50Z</time>
      </trkpt>
      <trkpt lat="49.81454" lon="2.1137">
        <ele>131.7</ele>
        <time>2023-02-22T13:02:51Z</time>
      </trkpt>
      <trkpt lat="49.81454" lon="2.1137">
        <ele>131.7</ele>
        <time>2023-02-22T13:02:52Z</time>
      </trkpt>
      <trkpt lat="49.81454" lon="2.1137">
        <ele>131.7</ele>
        <time>2023-02-22T13:02:53Z</time>
      </trkpt>
      <trkpt lat="49.81454" lon="2.1137">
        <ele>131.7</ele>
        <time>2023-02-22T13:02:54Z</time>
      </trkpt>
      <trkpt lat="49.81454" lon="2.1137">
        <ele>131.7</ele>
        <time>2023-02-22T13:02:55Z</time>
      </trkpt>
      <trkpt lat="49.81454" lon="2.1137">
        <ele>131.7</ele>
        <time>2023-02-22T13:02:56Z</time>
      </trkpt>
      <trkpt lat="49.81454" lon="2.1137">
        <ele>131.7</ele>
        <time>2023-02-22T13:02:57Z</time>
      </trkpt>
      <trkpt lat="49.81454" lon="2.1137">
        <ele>131.7</ele>
        <time>2023-02-22T13:02:58Z</time>
      </trkpt>
      <trkpt lat="49.81454" lon="2.1137">
        <ele>131.7</ele>
        <time>2023-02-22T13:02:59Z</time>
      </trkpt>
      <trkpt lat="49.81454" lon="2.1137">
        <ele>131.7</ele>
        <time>2023-02-22T13:03:00Z</time>
      </trkpt>
      <trkpt lat="49.81454" lon="2.1137">
        <ele>131.7</ele>
        <time>2023-02-22T13:03:01Z</time>
      </trkpt>
      <trkpt lat="49.81454" lon="2.1137">
        <ele>131.7</ele>
        <time>2023-02-22T13:03:02Z</time>
      </trkpt>
      <trkpt lat="49.81454" lon="2.1137">
        <ele>131.7</ele>
        <time>2023-02-22T13:03:03Z</time>
      </trkpt>
      <trkpt lat="49.81454" lon="2.1137">
        <ele>131.7</ele>
        <time>2023-02-22T13:03:04Z</time>
      </trkpt>
      <trkpt lat="49.81454" lon="2.1137">
        <ele>131.7</ele>
        <time>2023-02-22T13:03:05Z</time>
      </trkpt>
      <trkpt lat="49.81454" lon="2.1137">
        <ele>131.7</ele>
        <time>2023-02-22T13:03:06Z</time>
      </trkpt>
      <trkpt lat="49.81454" lon="2.1137">
        <ele>131.7</ele>
        <time>2023-02-22T13:03:07Z</time>
      </trkpt>
      <trkpt lat="49.81454" lon="2.1137">
        <ele>131.7</ele>
        <time>2023-02-22T13:03:08Z</time>
      </trkpt>
      <trkpt lat="49.81454" lon="2.1137">
        <ele>131.7</ele>
        <time>2023-02-22T13:03:09Z</time>
      </trkpt>
      <trkpt lat="49.81454" lon="2.1137">
        <ele>131.7</ele>
        <time>2023-02-22T13:03:10Z</time>
      </trkpt>
      <trkpt lat="49.81454" lon="2.1137">
        <ele>131.7</ele>
        <time>2023-02-22T13:03:11Z</time>
      </trkpt>
      <trkpt lat="49.81454" lon="2.1137">
        <ele>131.7</ele>
        <time>2023-02-22T13:03:12Z</time>
      </trkpt>
      <trkpt lat="49.81454" lon="2.1137">
        <ele>131.7</ele>
        <time>2023-02-22T13:03:13Z</time>
      </trkpt>
      <trkpt lat="49.81454" lon="2.1137">
        <ele>131.7</ele>
        <time>2023-02-22T13:03:14Z</time>
      </trkpt>
      <trkpt lat="49.81454" lon="2.1137">
        <ele>131.7</ele>
        <time>2023-02-22T13:03:15Z</time>
      </trkpt>
      <trkpt lat="49.81454" lon="2.1137">
        <ele>131.7</ele>
        <time>2023-02-22T13:03:16Z</time>
      </trkpt>
      <trkpt lat="49.81454" lon="2.1137">
        <ele>131.7</ele>
        <time>2023-02-22T13:03:17Z</time>
      </trkpt>
      <trkpt lat="49.81454" lon="2.1137">
        <ele>131.7</ele>
        <time>2023-02-22T13:03:18Z</time>
      </trkpt>
      <trkpt lat="49.81454" lon="2.1137">
        <ele>131.7</ele>
        <time>2023-02-22T13:03:19Z</time>
      </trkpt>
      <trkpt lat="49.81453" lon="2.1137">
        <ele>131.7</ele>
        <time>2023-02-22T13:03:20Z</time>
      </trkpt>
      <trkpt lat="49.81453" lon="2.1137">
        <ele>131.7</ele>
        <time>2023-02-22T13:03:21Z</time>
      </trkpt>
      <trkpt lat="49.81452" lon="2.1137">
        <ele>131.7</ele>
        <time>2023-02-22T13:03:22Z</time>
      </trkpt>
      <trkpt lat="49.81452" lon="2.1137">
        <ele>131.7</ele>
        <time>2023-02-22T13:03:23Z</time>
      </trkpt>
      <trkpt lat="49.81452" lon="2.1137">
        <ele>131.7</ele>
        <time>2023-02-22T13:03:24Z</time>
      </trkpt>
      <trkpt lat="49.81452" lon="2.1137">
        <ele>131.7</ele>
        <time>2023-02-22T13:03:25Z</time>
      </trkpt>
      <trkpt lat="49.81452" lon="2.1137">
        <ele>131.7</ele>
        <time>2023-02-22T13:03:26Z</time>
      </trkpt>
      <trkpt lat="49.81452" lon="2.1137">
        <ele>131.7</ele>
        <time>2023-02-22T13:03:27Z</time>
      </trkpt>
      <trkpt lat="49.81452" lon="2.1137">
        <ele>131.7</ele>
        <time>2023-02-22T13:03:28Z</time>
      </trkpt>
      <trkpt lat="49.81452" lon="2.1137">
        <ele>131.7</ele>
        <time>2023-02-22T13:03:29Z</time>
      </trkpt>
      <trkpt lat="49.81452" lon="2.1137">
        <ele>131.7</ele>
        <time>2023-02-22T13:03:30Z</time>
      </trkpt>
      <trkpt lat="49.81452" lon="2.1137">
        <ele>131.7</ele>
        <time>2023-02-22T13:03:31Z</time>
      </trkpt>
      <trkpt lat="49.81452" lon="2.1137">
        <ele>131.7</ele>
        <time>2023-02-22T13:03:32Z</time>
      </trkpt>
      <trkpt lat="49.81452" lon="2.1137">
        <ele>131.7</ele>
        <time>2023-02-22T13:03:33Z</time>
      </trkpt>
      <trkpt lat="49.81452" lon="2.1137">
        <ele>131.7</ele>
        <time>2023-02-22T13:03:34Z</time>
      </trkpt>
      <trkpt lat="49.81452" lon="2.1137">
        <ele>131.7</ele>
        <time>2023-02-22T13:03:35Z</time>
      </trkpt>
      <trkpt lat="49.81452" lon="2.1137">
        <ele>131.7</ele>
        <time>2023-02-22T13:03:36Z</time>
      </trkpt>
      <trkpt lat="49.81452" lon="2.1137">
        <ele>131.7</ele>
        <time>2023-02-22T13:03:37Z</time>
      </trkpt>
      <trkpt lat="49.81452" lon="2.1137">
        <ele>131.7</ele>
        <time>2023-02-22T13:03:38Z</time>
      </trkpt>
      <trkpt lat="49.81452" lon="2.1137">
        <ele>131.7</ele>
        <time>2023-02-22T13:03:39Z</time>
      </trkpt>
      <trkpt lat="49.81452" lon="2.1137">
        <ele>131.7</ele>
        <time>2023-02-22T13:03:40Z</time>
      </trkpt>
      <trkpt lat="49.81452" lon="2.1137">
        <ele>131.7</ele>
        <time>2023-02-22T13:03:41Z</time>
      </trkpt>
      <trkpt lat="49.81452" lon="2.1137">
        <ele>131.7</ele>
        <time>2023-02-22T13:03:42Z</time>
      </trkpt>
      <trkpt lat="49.81452" lon="2.1137">
        <ele>131.7</ele>
        <time>2023-02-22T13:03:43Z</time>
      </trkpt>
      <trkpt lat="49.81452" lon="2.1137">
        <ele>131.7</ele>
        <time>2023-02-22T13:03:44Z</time>
      </trkpt>
      <trkpt lat="49.81452" lon="2.1137">
        <ele>131.7</ele>
        <time>2023-02-22T13:03:45Z</time>
      </trkpt>
      <trkpt lat="49.81452" lon="2.1137">
        <ele>131.7</ele>
        <time>2023-02-22T13:03:46Z</time>
      </trkpt>
      <trkpt lat="49.81452" lon="2.1137">
        <ele>131.7</ele>
        <time>2023-02-22T13:03:47Z</time>
      </trkpt>
      <trkpt lat="49.81452" lon="2.1137">
        <ele>131.7</ele>
        <time>2023-02-22T13:03:48Z</time>
      </trkpt>
      <trkpt lat="49.81452" lon="2.1137">
        <ele>131.7</ele>
        <time>2023-02-22T13:03:49Z</time>
      </trkpt>
      <trkpt lat="49.81452" lon="2.1137">
        <ele>131.7</ele>
        <time>2023-02-22T13:03:50Z</time>
      </trkpt>
      <trkpt lat="49.81452" lon="2.1137">
        <ele>131.7</ele>
        <time>2023-02-22T13:03:51Z</time>
      </trkpt>
      <trkpt lat="49.81452" lon="2.1137">
        <ele>131.7</ele>
        <time>2023-02-22T13:03:52Z</time>
      </trkpt>
      <trkpt lat="49.81452" lon="2.1137">
        <ele>131.7</ele>
        <time>2023-02-22T13:03:53Z</time>
      </trkpt>
      <trkpt lat="49.81452" lon="2.1137">
        <ele>131.7</ele>
        <time>2023-02-22T13:03:54Z</time>
      </trkpt>
      <trkpt lat="49.81452" lon="2.1137">
        <ele>131.7</ele>
        <time>2023-02-22T13:03:55Z</time>
      </trkpt>
      <trkpt lat="49.81452" lon="2.1137">
        <ele>131.7</ele>
        <time>2023-02-22T13:03:56Z</time>
      </trkpt>
      <trkpt lat="49.81452" lon="2.1137">
        <ele>131.7</ele>
        <time>2023-02-22T13:03:57Z</time>
      </trkpt>
      <trkpt lat="49.81452" lon="2.1137">
        <ele>131.7</ele>
        <time>2023-02-22T13:03:58Z</time>
      </trkpt>
      <trkpt lat="49.81452" lon="2.1137">
        <ele>131.7</ele>
        <time>2023-02-22T13:03:59Z</time>
      </trkpt>
      <trkpt lat="49.81452" lon="2.1137">
        <ele>131.7</ele>
        <time>2023-02-22T13:04:00Z</time>
      </trkpt>
      <trkpt lat="49.81452" lon="2.1137">
        <ele>131.7</ele>
        <time>2023-02-22T13:04:01Z</time>
      </trkpt>
      <trkpt lat="49.81452" lon="2.1137">
        <ele>131.7</ele>
        <time>2023-02-22T13:04:02Z</time>
      </trkpt>
      <trkpt lat="49.81452" lon="2.1137">
        <ele>131.7</ele>
        <time>2023-02-22T13:04:03Z</time>
      </trkpt>
      <trkpt lat="49.81452" lon="2.1137">
        <ele>131.7</ele>
        <time>2023-02-22T13:04:04Z</time>
      </trkpt>
      <trkpt lat="49.81452" lon="2.1137">
        <ele>131.7</ele>
        <time>2023-02-22T13:04:05Z</time>
      </trkpt>
      <trkpt lat="49.81452" lon="2.1137">
        <ele>131.7</ele>
        <time>2023-02-22T13:04:06Z</time>
      </trkpt>
      <trkpt lat="49.81452" lon="2.1137">
        <ele>131.7</ele>
        <time>2023-02-22T13:04:07Z</time>
      </trkpt>
      <trkpt lat="49.81452" lon="2.1137">
        <ele>131.7</ele>
        <time>2023-02-22T13:04:08Z</time>
      </trkpt>
      <trkpt lat="49.81452" lon="2.1137">
        <ele>131.7</ele>
        <time>2023-02-22T13:04:09Z</time>
      </trkpt>
      <trkpt lat="49.81452" lon="2.1137">
        <ele>131.7</ele>
        <time>2023-02-22T13:04:10Z</time>
      </trkpt>
      <trkpt lat="49.81452" lon="2.1137">
        <ele>131.7</ele>
        <time>2023-02-22T13:04:11Z</time>
      </trkpt>
      <trkpt lat="49.81452" lon="2.1137">
        <ele>131.7</ele>
        <time>2023-02-22T13:04:12Z</time>
      </trkpt>
      <trkpt lat="49.81452" lon="2.1137">
        <ele>131.7</ele>
        <time>2023-02-22T13:04:13Z</time>
      </trkpt>
      <trkpt lat="49.81452" lon="2.1137">
        <ele>131.7</ele>
        <time>2023-02-22T13:04:14Z</time>
      </trkpt>
      <trkpt lat="49.81452" lon="2.1137">
        <ele>131.7</ele>
        <time>2023-02-22T13:04:15Z</time>
      </trkpt>
      <trkpt lat="49.81452" lon="2.1137">
        <ele>131.7</ele>
        <time>2023-02-22T13:04:16Z</time>
      </trkpt>
      <trkpt lat="49.81452" lon="2.1137">
        <ele>131.7</ele>
        <time>2023-02-22T13:04:17Z</time>
      </trkpt>
      <trkpt lat="49.81452" lon="2.1137">
        <ele>131.7</ele>
        <time>2023-02-22T13:04:18Z</time>
      </trkpt>
      <trkpt lat="49.81452" lon="2.1137">
        <ele>131.7</ele>
        <time>2023-02-22T13:04:19Z</time>
      </trkpt>
      <trkpt lat="49.81452" lon="2.1137">
        <ele>131.7</ele>
        <time>2023-02-22T13:04:20Z</time>
      </trkpt>
      <trkpt lat="49.81452" lon="2.1137">
        <ele>131.7</ele>
        <time>2023-02-22T13:04:21Z</time>
      </trkpt>
      <trkpt lat="49.81452" lon="2.1137">
        <ele>131.7</ele>
        <time>2023-02-22T13:04:22Z</time>
      </trkpt>
      <trkpt lat="49.81452" lon="2.1137">
        <ele>131.7</ele>
        <time>2023-02-22T13:04:23Z</time>
      </trkpt>
      <trkpt lat="49.81452" lon="2.1137">
        <ele>131.7</ele>
        <time>2023-02-22T13:04:24Z</time>
      </trkpt>
      <trkpt lat="49.81452" lon="2.1137">
        <ele>131.7</ele>
        <time>2023-02-22T13:04:25Z</time>
      </trkpt>
      <trkpt lat="49.81452" lon="2.1137">
        <ele>131.7</ele>
        <time>2023-02-22T13:04:26Z</time>
      </trkpt>
      <trkpt lat="49.81452" lon="2.1137">
        <ele>131.7</ele>
        <time>2023-02-22T13:04:27Z</time>
      </trkpt>
      <trkpt lat="49.81452" lon="2.1137">
        <ele>131.7</ele>
        <time>2023-02-22T13:04:28Z</time>
      </trkpt>
      <trkpt lat="49.81452" lon="2.1137">
        <ele>131.7</ele>
        <time>2023-02-22T13:04:29Z</time>
      </trkpt>
      <trkpt lat="49.81452" lon="2.1137">
        <ele>131.7</ele>
        <time>2023-02-22T13:04:30Z</time>
      </trkpt>
      <trkpt lat="49.81452" lon="2.1137">
        <ele>131.7</ele>
        <time>2023-02-22T13:04:31Z</time>
      </trkpt>
      <trkpt lat="49.81452" lon="2.1137">
        <ele>131.7</ele>
        <time>2023-02-22T13:04:32Z</time>
      </trkpt>
      <trkpt lat="49.81452" lon="2.1137">
        <ele>131.7</ele>
        <time>2023-02-22T13:04:33Z</time>
      </trkpt>
      <trkpt lat="49.81452" lon="2.1137">
        <ele>131.7</ele>
        <time>2023-02-22T13:04:34Z</time>
      </trkpt>
      <trkpt lat="49.81452" lon="2.1137">
        <ele>131.7</ele>
        <time>2023-02-22T13:04:35Z</time>
      </trkpt>
      <trkpt lat="49.81452" lon="2.1137">
        <ele>131.7</ele>
        <time>2023-02-22T13:04:36Z</time>
      </trkpt>
      <trkpt lat="49.81452" lon="2.1137">
        <ele>131.7</ele>
        <time>2023-02-22T13:04:37Z</time>
      </trkpt>
      <trkpt lat="49.81452" lon="2.1137">
        <ele>131.7</ele>
        <time>2023-02-22T13:04:38Z</time>
      </trkpt>
      <trkpt lat="49.81452" lon="2.1137">
        <ele>131.7</ele>
        <time>2023-02-22T13:04:39Z</time>
      </trkpt>
      <trkpt lat="49.81452" lon="2.1137">
        <ele>131.7</ele>
        <time>2023-02-22T13:04:40Z</time>
      </trkpt>
      <trkpt lat="49.81452" lon="2.1137">
        <ele>131.7</ele>
        <time>2023-02-22T13:04:41Z</time>
      </trkpt>
      <trkpt lat="49.81452" lon="2.1137">
        <ele>131.7</ele>
        <time>2023-02-22T13:04:42Z</time>
      </trkpt>
      <trkpt lat="49.81452" lon="2.1137">
        <ele>131.7</ele>
        <time>2023-02-22T13:04:43Z</time>
      </trkpt>
      <trkpt lat="49.81452" lon="2.1137">
        <ele>131.7</ele>
        <time>2023-02-22T13:04:44Z</time>
      </trkpt>
      <trkpt lat="49.81452" lon="2.1137">
        <ele>131.7</ele>
        <time>2023-02-22T13:04:45Z</time>
      </trkpt>
      <trkpt lat="49.81452" lon="2.1137">
        <ele>131.7</ele>
        <time>2023-02-22T13:04:46Z</time>
      </trkpt>
      <trkpt lat="49.81452" lon="2.1137">
        <ele>131.7</ele>
        <time>2023-02-22T13:04:47Z</time>
      </trkpt>
      <trkpt lat="49.81452" lon="2.1137">
        <ele>131.7</ele>
        <time>2023-02-22T13:04:48Z</time>
      </trkpt>
      <trkpt lat="49.81452" lon="2.1137">
        <ele>131.7</ele>
        <time>2023-02-22T13:04:49Z</time>
      </trkpt>
      <trkpt lat="49.81452" lon="2.1137">
        <ele>131.7</ele>
        <time>2023-02-22T13:04:50Z</time>
      </trkpt>
      <trkpt lat="49.81452" lon="2.1137">
        <ele>131.7</ele>
        <time>2023-02-22T13:04:51Z</time>
      </trkpt>
      <trkpt lat="49.81452" lon="2.1137">
        <ele>131.7</ele>
        <time>2023-02-22T13:04:52Z</time>
      </trkpt>
      <trkpt lat="49.81452" lon="2.1137">
        <ele>131.7</ele>
        <time>2023-02-22T13:04:53Z</time>
      </trkpt>
      <trkpt lat="49.81452" lon="2.1137">
        <ele>131.7</ele>
        <time>2023-02-22T13:04:54Z</time>
      </trkpt>
      <trkpt lat="49.81452" lon="2.1137">
        <ele>131.7</ele>
        <time>2023-02-22T13:04:55Z</time>
      </trkpt>
      <trkpt lat="49.81452" lon="2.1137">
        <ele>131.7</ele>
        <time>2023-02-22T13:04:56Z</time>
      </trkpt>
      <trkpt lat="49.81452" lon="2.1137">
        <ele>131.7</ele>
        <time>2023-02-22T13:04:57Z</time>
      </trkpt>
      <trkpt lat="49.81452" lon="2.1137">
        <ele>131.7</ele>
        <time>2023-02-22T13:04:58Z</time>
      </trkpt>
      <trkpt lat="49.81452" lon="2.1137">
        <ele>131.7</ele>
        <time>2023-02-22T13:04:59Z</time>
      </trkpt>
      <trkpt lat="49.81452" lon="2.1137">
        <ele>131.7</ele>
        <time>2023-02-22T13:05:00Z</time>
      </trkpt>
      <trkpt lat="49.81452" lon="2.1137">
        <ele>131.7</ele>
        <time>2023-02-22T13:05:01Z</time>
      </trkpt>
      <trkpt lat="49.81452" lon="2.1137">
        <ele>131.7</ele>
        <time>2023-02-22T13:05:02Z</time>
      </trkpt>
      <trkpt lat="49.81452" lon="2.1137">
        <ele>131.7</ele>
        <time>2023-02-22T13:05:03Z</time>
      </trkpt>
      <trkpt lat="49.81452" lon="2.1137">
        <ele>131.7</ele>
        <time>2023-02-22T13:05:04Z</time>
      </trkpt>
      <trkpt lat="49.81452" lon="2.1137">
        <ele>131.7</ele>
        <time>2023-02-22T13:05:05Z</time>
      </trkpt>
      <trkpt lat="49.81452" lon="2.1137">
        <ele>131.7</ele>
        <time>2023-02-22T13:05:06Z</time>
      </trkpt>
      <trkpt lat="49.81452" lon="2.1137">
        <ele>131.7</ele>
        <time>2023-02-22T13:05:07Z</time>
      </trkpt>
      <trkpt lat="49.81452" lon="2.1137">
        <ele>131.7</ele>
        <time>2023-02-22T13:05:08Z</time>
      </trkpt>
      <trkpt lat="49.81452" lon="2.1137">
        <ele>131.7</ele>
        <time>2023-02-22T13:05:09Z</time>
      </trkpt>
      <trkpt lat="49.81452" lon="2.1137">
        <ele>131.7</ele>
        <time>2023-02-22T13:05:10Z</time>
      </trkpt>
      <trkpt lat="49.81452" lon="2.1137">
        <ele>131.7</ele>
        <time>2023-02-22T13:05:11Z</time>
      </trkpt>
      <trkpt lat="49.81452" lon="2.1137">
        <ele>131.7</ele>
        <time>2023-02-22T13:05:12Z</time>
      </trkpt>
      <trkpt lat="49.81452" lon="2.1137">
        <ele>131.7</ele>
        <time>2023-02-22T13:05:13Z</time>
      </trkpt>
      <trkpt lat="49.81452" lon="2.1137">
        <ele>131.7</ele>
        <time>2023-02-22T13:05:14Z</time>
      </trkpt>
      <trkpt lat="49.81452" lon="2.1137">
        <ele>131.7</ele>
        <time>2023-02-22T13:05:15Z</time>
      </trkpt>
      <trkpt lat="49.81452" lon="2.1137">
        <ele>131.7</ele>
        <time>2023-02-22T13:05:16Z</time>
      </trkpt>
      <trkpt lat="49.81452" lon="2.1137">
        <ele>131.7</ele>
        <time>2023-02-22T13:05:17Z</time>
      </trkpt>
      <trkpt lat="49.81452" lon="2.1137">
        <ele>131.7</ele>
        <time>2023-02-22T13:05:18Z</time>
      </trkpt>
      <trkpt lat="49.81452" lon="2.1137">
        <ele>131.7</ele>
        <time>2023-02-22T13:05:19Z</time>
      </trkpt>
      <trkpt lat="49.81452" lon="2.1137">
        <ele>131.7</ele>
        <time>2023-02-22T13:05:20Z</time>
      </trkpt>
      <trkpt lat="49.81452" lon="2.1137">
        <ele>131.7</ele>
        <time>2023-02-22T13:05:21Z</time>
      </trkpt>
      <trkpt lat="49.81452" lon="2.1137">
        <ele>131.7</ele>
        <time>2023-02-22T13:05:22Z</time>
      </trkpt>
      <trkpt lat="49.81452" lon="2.1137">
        <ele>131.7</ele>
        <time>2023-02-22T13:05:23Z</time>
      </trkpt>
      <trkpt lat="49.81452" lon="2.1137">
        <ele>131.7</ele>
        <time>2023-02-22T13:05:24Z</time>
      </trkpt>
      <trkpt lat="49.81452" lon="2.1137">
        <ele>131.7</ele>
        <time>2023-02-22T13:05:25Z</time>
      </trkpt>
      <trkpt lat="49.81452" lon="2.1137">
        <ele>131.7</ele>
        <time>2023-02-22T13:05:26Z</time>
      </trkpt>
      <trkpt lat="49.81452" lon="2.1137">
        <ele>131.7</ele>
        <time>2023-02-22T13:05:27Z</time>
      </trkpt>
      <trkpt lat="49.81452" lon="2.1137">
        <ele>131.7</ele>
        <time>2023-02-22T13:05:28Z</time>
      </trkpt>
      <trkpt lat="49.81452" lon="2.1137">
        <ele>131.7</ele>
        <time>2023-02-22T13:05:29Z</time>
      </trkpt>
      <trkpt lat="49.81452" lon="2.1137">
        <ele>131.7</ele>
        <time>2023-02-22T13:05:30Z</time>
      </trkpt>
      <trkpt lat="49.81452" lon="2.1137">
        <ele>131.7</ele>
        <time>2023-02-22T13:05:31Z</time>
      </trkpt>
      <trkpt lat="49.81452" lon="2.1137">
        <ele>131.7</ele>
        <time>2023-02-22T13:05:32Z</time>
      </trkpt>
      <trkpt lat="49.81452" lon="2.1137">
        <ele>131.7</ele>
        <time>2023-02-22T13:05:33Z</time>
      </trkpt>
      <trkpt lat="49.81452" lon="2.1137">
        <ele>131.7</ele>
        <time>2023-02-22T13:05:34Z</time>
      </trkpt>
      <trkpt lat="49.81452" lon="2.1137">
        <ele>131.7</ele>
        <time>2023-02-22T13:05:35Z</time>
      </trkpt>
      <trkpt lat="49.81452" lon="2.1137">
        <ele>131.7</ele>
        <time>2023-02-22T13:05:36Z</time>
      </trkpt>
      <trkpt lat="49.81452" lon="2.1137">
        <ele>131.7</ele>
        <time>2023-02-22T13:05:37Z</time>
      </trkpt>
      <trkpt lat="49.81452" lon="2.1137">
        <ele>131.7</ele>
        <time>2023-02-22T13:05:38Z</time>
      </trkpt>
      <trkpt lat="49.81452" lon="2.1137">
        <ele>131.7</ele>
        <time>2023-02-22T13:05:39Z</time>
      </trkpt>
      <trkpt lat="49.81452" lon="2.1137">
        <ele>131.7</ele>
        <time>2023-02-22T13:05:40Z</time>
      </trkpt>
      <trkpt lat="49.81452" lon="2.1137">
        <ele>131.7</ele>
        <time>2023-02-22T13:05:41Z</time>
      </trkpt>
      <trkpt lat="49.81452" lon="2.1137">
        <ele>131.7</ele>
        <time>2023-02-22T13:05:42Z</time>
      </trkpt>
      <trkpt lat="49.81452" lon="2.1137">
        <ele>131.7</ele>
        <time>2023-02-22T13:05:43Z</time>
      </trkpt>
      <trkpt lat="49.81452" lon="2.1137">
        <ele>131.7</ele>
        <time>2023-02-22T13:05:44Z</time>
      </trkpt>
      <trkpt lat="49.81452" lon="2.1137">
        <ele>131.7</ele>
        <time>2023-02-22T13:05:45Z</time>
      </trkpt>
      <trkpt lat="49.81452" lon="2.1137">
        <ele>131.7</ele>
        <time>2023-02-22T13:05:46Z</time>
      </trkpt>
      <trkpt lat="49.81452" lon="2.1137">
        <ele>131.7</ele>
        <time>2023-02-22T13:05:47Z</time>
      </trkpt>
      <trkpt lat="49.81452" lon="2.1137">
        <ele>131.7</ele>
        <time>2023-02-22T13:05:48Z</time>
      </trkpt>
      <trkpt lat="49.81452" lon="2.1137">
        <ele>131.7</ele>
        <time>2023-02-22T13:05:49Z</time>
      </trkpt>
      <trkpt lat="49.81452" lon="2.1137">
        <ele>131.7</ele>
        <time>2023-02-22T13:05:50Z</time>
      </trkpt>
      <trkpt lat="49.81452" lon="2.1137">
        <ele>131.7</ele>
        <time>2023-02-22T13:05:51Z</time>
      </trkpt>
      <trkpt lat="49.81452" lon="2.1137">
        <ele>131.7</ele>
        <time>2023-02-22T13:05:52Z</time>
      </trkpt>
      <trkpt lat="49.81452" lon="2.1137">
        <ele>131.7</ele>
        <time>2023-02-22T13:05:53Z</time>
      </trkpt>
      <trkpt lat="49.81452" lon="2.1137">
        <ele>131.7</ele>
        <time>2023-02-22T13:05:54Z</time>
      </trkpt>
      <trkpt lat="49.81452" lon="2.1137">
        <ele>131.7</ele>
        <time>2023-02-22T13:05:55Z</time>
      </trkpt>
      <trkpt lat="49.81452" lon="2.1137">
        <ele>131.7</ele>
        <time>2023-02-22T13:05:56Z</time>
      </trkpt>
      <trkpt lat="49.81452" lon="2.1137">
        <ele>131.7</ele>
        <time>2023-02-22T13:05:57Z</time>
      </trkpt>
      <trkpt lat="49.81452" lon="2.1137">
        <ele>131.7</ele>
        <time>2023-02-22T13:05:58Z</time>
      </trkpt>
      <trkpt lat="49.81452" lon="2.1137">
        <ele>131.7</ele>
        <time>2023-02-22T13:05:59Z</time>
      </trkpt>
      <trkpt lat="49.81452" lon="2.1137">
        <ele>131.7</ele>
        <time>2023-02-22T13:06:00Z</time>
      </trkpt>
      <trkpt lat="49.81452" lon="2.1137">
        <ele>131.7</ele>
        <time>2023-02-22T13:06:01Z</time>
      </trkpt>
      <trkpt lat="49.81452" lon="2.1137">
        <ele>131.7</ele>
        <time>2023-02-22T13:06:02Z</time>
      </trkpt>
      <trkpt lat="49.81452" lon="2.1137">
        <ele>131.7</ele>
        <time>2023-02-22T13:06:03Z</time>
      </trkpt>
      <trkpt lat="49.81452" lon="2.1137">
        <ele>131.7</ele>
        <time>2023-02-22T13:06:04Z</time>
      </trkpt>
      <trkpt lat="49.81452" lon="2.1137">
        <ele>131.7</ele>
        <time>2023-02-22T13:06:05Z</time>
      </trkpt>
      <trkpt lat="49.81452" lon="2.1137">
        <ele>131.7</ele>
        <time>2023-02-22T13:06:06Z</time>
      </trkpt>
      <trkpt lat="49.81452" lon="2.1137">
        <ele>131.7</ele>
        <time>2023-02-22T13:06:07Z</time>
      </trkpt>
      <trkpt lat="49.81452" lon="2.1137">
        <ele>131.7</ele>
        <time>2023-02-22T13:06:08Z</time>
      </trkpt>
      <trkpt lat="49.81452" lon="2.1137">
        <ele>131.7</ele>
        <time>2023-02-22T13:06:09Z</time>
      </trkpt>
      <trkpt lat="49.81452" lon="2.1137">
        <ele>131.7</ele>
        <time>2023-02-22T13:06:10Z</time>
      </trkpt>
      <trkpt lat="49.81452" lon="2.1137">
        <ele>131.7</ele>
        <time>2023-02-22T13:06:11Z</time>
      </trkpt>
      <trkpt lat="49.81452" lon="2.1137">
        <ele>131.7</ele>
        <time>2023-02-22T13:06:12Z</time>
      </trkpt>
      <trkpt lat="49.81452" lon="2.1137">
        <ele>131.7</ele>
        <time>2023-02-22T13:06:13Z</time>
      </trkpt>
      <trkpt lat="49.81452" lon="2.1137">
        <ele>131.7</ele>
        <time>2023-02-22T13:06:14Z</time>
      </trkpt>
      <trkpt lat="49.81452" lon="2.1137">
        <ele>131.7</ele>
        <time>2023-02-22T13:06:15Z</time>
      </trkpt>
      <trkpt lat="49.81452" lon="2.1137">
        <ele>131.7</ele>
        <time>2023-02-22T13:06:16Z</time>
      </trkpt>
      <trkpt lat="49.81452" lon="2.1137">
        <ele>131.7</ele>
        <time>2023-02-22T13:06:17Z</time>
      </trkpt>
      <trkpt lat="49.81452" lon="2.1137">
        <ele>131.7</ele>
        <time>2023-02-22T13:06:18Z</time>
      </trkpt>
      <trkpt lat="49.81452" lon="2.1137">
        <ele>131.7</ele>
        <time>2023-02-22T13:06:19Z</time>
      </trkpt>
      <trkpt lat="49.81452" lon="2.1137">
        <ele>131.7</ele>
        <time>2023-02-22T13:06:20Z</time>
      </trkpt>
      <trkpt lat="49.81452" lon="2.1137">
        <ele>131.7</ele>
        <time>2023-02-22T13:06:21Z</time>
      </trkpt>
      <trkpt lat="49.81452" lon="2.1137">
        <ele>131.7</ele>
        <time>2023-02-22T13:06:22Z</time>
      </trkpt>
      <trkpt lat="49.81452" lon="2.1137">
        <ele>131.7</ele>
        <time>2023-02-22T13:06:23Z</time>
      </trkpt>
      <trkpt lat="49.81452" lon="2.1137">
        <ele>131.7</ele>
        <time>2023-02-22T13:06:24Z</time>
      </trkpt>
      <trkpt lat="49.81452" lon="2.1137">
        <ele>131.7</ele>
        <time>2023-02-22T13:06:25Z</time>
      </trkpt>
      <trkpt lat="49.81452" lon="2.1137">
        <ele>131.7</ele>
        <time>2023-02-22T13:06:26Z</time>
      </trkpt>
      <trkpt lat="49.81452" lon="2.1137">
        <ele>131.7</ele>
        <time>2023-02-22T13:06:27Z</time>
      </trkpt>
      <trkpt lat="49.81452" lon="2.1137">
        <ele>131.7</ele>
        <time>2023-02-22T13:06:28Z</time>
      </trkpt>
      <trkpt lat="49.81452" lon="2.1137">
        <ele>131.7</ele>
        <time>2023-02-22T13:06:29Z</time>
      </trkpt>
      <trkpt lat="49.81452" lon="2.1137">
        <ele>131.7</ele>
        <time>2023-02-22T13:06:30Z</time>
      </trkpt>
      <trkpt lat="49.81452" lon="2.1137">
        <ele>131.7</ele>
        <time>2023-02-22T13:06:31Z</time>
      </trkpt>
      <trkpt lat="49.81452" lon="2.1137">
        <ele>131.7</ele>
        <time>2023-02-22T13:06:32Z</time>
      </trkpt>
      <trkpt lat="49.81452" lon="2.1137">
        <ele>131.7</ele>
        <time>2023-02-22T13:06:33Z</time>
      </trkpt>
      <trkpt lat="49.81452" lon="2.1137">
        <ele>131.7</ele>
        <time>2023-02-22T13:06:34Z</time>
      </trkpt>
      <trkpt lat="49.81452" lon="2.1137">
        <ele>131.7</ele>
        <time>2023-02-22T13:06:35Z</time>
      </trkpt>
      <trkpt lat="49.81452" lon="2.1137">
        <ele>131.7</ele>
        <time>2023-02-22T13:06:36Z</time>
      </trkpt>
      <trkpt lat="49.81452" lon="2.1137">
        <ele>131.7</ele>
        <time>2023-02-22T13:06:37Z</time>
      </trkpt>
      <trkpt lat="49.81452" lon="2.1137">
        <ele>131.7</ele>
        <time>2023-02-22T13:06:38Z</time>
      </trkpt>
      <trkpt lat="49.81452" lon="2.1137">
        <ele>131.7</ele>
        <time>2023-02-22T13:06:39Z</time>
      </trkpt>
      <trkpt lat="49.81452" lon="2.1137">
        <ele>131.7</ele>
        <time>2023-02-22T13:06:40Z</time>
      </trkpt>
      <trkpt lat="49.81452" lon="2.1137">
        <ele>131.7</ele>
        <time>2023-02-22T13:06:41Z</time>
      </trkpt>
      <trkpt lat="49.81452" lon="2.1137">
        <ele>131.7</ele>
        <time>2023-02-22T13:06:42Z</time>
      </trkpt>
      <trkpt lat="49.81452" lon="2.1137">
        <ele>131.7</ele>
        <time>2023-02-22T13:06:43Z</time>
      </trkpt>
      <trkpt lat="49.81452" lon="2.1137">
        <ele>131.7</ele>
        <time>2023-02-22T13:06:44Z</time>
      </trkpt>
      <trkpt lat="49.81452" lon="2.1137">
        <ele>131.7</ele>
        <time>2023-02-22T13:06:45Z</time>
      </trkpt>
      <trkpt lat="49.81452" lon="2.1137">
        <ele>131.7</ele>
        <time>2023-02-22T13:06:46Z</time>
      </trkpt>
      <trkpt lat="49.81452" lon="2.1137">
        <ele>131.7</ele>
        <time>2023-02-22T13:06:47Z</time>
      </trkpt>
      <trkpt lat="49.81452" lon="2.1137">
        <ele>131.7</ele>
        <time>2023-02-22T13:06:48Z</time>
      </trkpt>
      <trkpt lat="49.81452" lon="2.1137">
        <ele>131.7</ele>
        <time>2023-02-22T13:06:49Z</time>
      </trkpt>
      <trkpt lat="49.81452" lon="2.1137">
        <ele>131.7</ele>
        <time>2023-02-22T13:06:50Z</time>
      </trkpt>
      <trkpt lat="49.81452" lon="2.1137">
        <ele>131.7</ele>
        <time>2023-02-22T13:06:51Z</time>
      </trkpt>
      <trkpt lat="49.81452" lon="2.1137">
        <ele>131.7</ele>
        <time>2023-02-22T13:06:52Z</time>
      </trkpt>
      <trkpt lat="49.81452" lon="2.1137">
        <ele>131.7</ele>
        <time>2023-02-22T13:06:53Z</time>
      </trkpt>
      <trkpt lat="49.81452" lon="2.1137">
        <ele>131.7</ele>
        <time>2023-02-22T13:06:54Z</time>
      </trkpt>
      <trkpt lat="49.81452" lon="2.1137">
        <ele>131.7</ele>
        <time>2023-02-22T13:06:55Z</time>
      </trkpt>
      <trkpt lat="49.81452" lon="2.1137">
        <ele>131.7</ele>
        <time>2023-02-22T13:06:56Z</time>
      </trkpt>
      <trkpt lat="49.81452" lon="2.1137">
        <ele>131.7</ele>
        <time>2023-02-22T13:06:57Z</time>
      </trkpt>
      <trkpt lat="49.81452" lon="2.1137">
        <ele>131.7</ele>
        <time>2023-02-22T13:06:58Z</time>
      </trkpt>
      <trkpt lat="49.81452" lon="2.1137">
        <ele>131.7</ele>
        <time>2023-02-22T13:06:59Z</time>
      </trkpt>
      <trkpt lat="49.81452" lon="2.1137">
        <ele>131.7</ele>
        <time>2023-02-22T13:07:00Z</time>
      </trkpt>
      <trkpt lat="49.81452" lon="2.1137">
        <ele>131.7</ele>
        <time>2023-02-22T13:07:01Z</time>
      </trkpt>
      <trkpt lat="49.81452" lon="2.1137">
        <ele>131.7</ele>
        <time>2023-02-22T13:07:02Z</time>
      </trkpt>
      <trkpt lat="49.81452" lon="2.1137">
        <ele>131.7</ele>
        <time>2023-02-22T13:07:03Z</time>
      </trkpt>
      <trkpt lat="49.81452" lon="2.1137">
        <ele>131.7</ele>
        <time>2023-02-22T13:07:04Z</time>
      </trkpt>
      <trkpt lat="49.81452" lon="2.1137">
        <ele>131.7</ele>
        <time>2023-02-22T13:07:05Z</time>
      </trkpt>
      <trkpt lat="49.81452" lon="2.1137">
        <ele>131.7</ele>
        <time>2023-02-22T13:07:06Z</time>
      </trkpt>
      <trkpt lat="49.81452" lon="2.1137">
        <ele>131.7</ele>
        <time>2023-02-22T13:07:07Z</time>
      </trkpt>
      <trkpt lat="49.81452" lon="2.1137">
        <ele>131.7</ele>
        <time>2023-02-22T13:07:08Z</time>
      </trkpt>
      <trkpt lat="49.81452" lon="2.1137">
        <ele>131.7</ele>
        <time>2023-02-22T13:07:09Z</time>
      </trkpt>
      <trkpt lat="49.81452" lon="2.1137">
        <ele>131.7</ele>
        <time>2023-02-22T13:07:10Z</time>
      </trkpt>
      <trkpt lat="49.81452" lon="2.1137">
        <ele>131.7</ele>
        <time>2023-02-22T13:07:11Z</time>
      </trkpt>
      <trkpt lat="49.81452" lon="2.1137">
        <ele>131.7</ele>
        <time>2023-02-22T13:07:12Z</time>
      </trkpt>
      <trkpt lat="49.81452" lon="2.1137">
        <ele>131.7</ele>
        <time>2023-02-22T13:07:13Z</time>
      </trkpt>
      <trkpt lat="49.81452" lon="2.1137">
        <ele>131.7</ele>
        <time>2023-02-22T13:07:14Z</time>
      </trkpt>
      <trkpt lat="49.81452" lon="2.1137">
        <ele>131.7</ele>
        <time>2023-02-22T13:07:15Z</time>
      </trkpt>
      <trkpt lat="49.81452" lon="2.1137">
        <ele>131.7</ele>
        <time>2023-02-22T13:07:16Z</time>
      </trkpt>
      <trkpt lat="49.81452" lon="2.1137">
        <ele>131.7</ele>
        <time>2023-02-22T13:07:17Z</time>
      </trkpt>
      <trkpt lat="49.81452" lon="2.1137">
        <ele>131.7</ele>
        <time>2023-02-22T13:07:18Z</time>
      </trkpt>
      <trkpt lat="49.81452" lon="2.1137">
        <ele>131.7</ele>
        <time>2023-02-22T13:07:19Z</time>
      </trkpt>
      <trkpt lat="49.81452" lon="2.1137">
        <ele>131.7</ele>
        <time>2023-02-22T13:07:20Z</time>
      </trkpt>
      <trkpt lat="49.81452" lon="2.1137">
        <ele>131.7</ele>
        <time>2023-02-22T13:07:21Z</time>
      </trkpt>
      <trkpt lat="49.81452" lon="2.1137">
        <ele>131.7</ele>
        <time>2023-02-22T13:07:22Z</time>
      </trkpt>
      <trkpt lat="49.81452" lon="2.1137">
        <ele>131.7</ele>
        <time>2023-02-22T13:07:23Z</time>
      </trkpt>
      <trkpt lat="49.81452" lon="2.1137">
        <ele>131.7</ele>
        <time>2023-02-22T13:07:24Z</time>
      </trkpt>
      <trkpt lat="49.81452" lon="2.1137">
        <ele>131.7</ele>
        <time>2023-02-22T13:07:25Z</time>
      </trkpt>
      <trkpt lat="49.81452" lon="2.1137">
        <ele>131.7</ele>
        <time>2023-02-22T13:07:26Z</time>
      </trkpt>
      <trkpt lat="49.81452" lon="2.1137">
        <ele>131.7</ele>
        <time>2023-02-22T13:07:27Z</time>
      </trkpt>
      <trkpt lat="49.81452" lon="2.1137">
        <ele>131.7</ele>
        <time>2023-02-22T13:07:28Z</time>
      </trkpt>
      <trkpt lat="49.81452" lon="2.1137">
        <ele>131.7</ele>
        <time>2023-02-22T13:07:29Z</time>
      </trkpt>
      <trkpt lat="49.81452" lon="2.1137">
        <ele>131.7</ele>
        <time>2023-02-22T13:07:30Z</time>
      </trkpt>
      <trkpt lat="49.81452" lon="2.1137">
        <ele>131.7</ele>
        <time>2023-02-22T13:07:31Z</time>
      </trkpt>
      <trkpt lat="49.81452" lon="2.1137">
        <ele>131.7</ele>
        <time>2023-02-22T13:07:32Z</time>
      </trkpt>
      <trkpt lat="49.81452" lon="2.1137">
        <ele>131.7</ele>
        <time>2023-02-22T13:07:33Z</time>
      </trkpt>
      <trkpt lat="49.81452" lon="2.1137">
        <ele>131.7</ele>
        <time>2023-02-22T13:07:34Z</time>
      </trkpt>
      <trkpt lat="49.81452" lon="2.1137">
        <ele>131.7</ele>
        <time>2023-02-22T13:07:35Z</time>
      </trkpt>
      <trkpt lat="49.81452" lon="2.1137">
        <ele>131.7</ele>
        <time>2023-02-22T13:07:36Z</time>
      </trkpt>
      <trkpt lat="49.81452" lon="2.1137">
        <ele>131.7</ele>
        <time>2023-02-22T13:07:37Z</time>
      </trkpt>
      <trkpt lat="49.81452" lon="2.1137">
        <ele>131.7</ele>
        <time>2023-02-22T13:07:38Z</time>
      </trkpt>
      <trkpt lat="49.81452" lon="2.1137">
        <ele>131.7</ele>
        <time>2023-02-22T13:07:39Z</time>
      </trkpt>
      <trkpt lat="49.81452" lon="2.1137">
        <ele>131.7</ele>
        <time>2023-02-22T13:07:40Z</time>
      </trkpt>
      <trkpt lat="49.81452" lon="2.1137">
        <ele>131.7</ele>
        <time>2023-02-22T13:07:41Z</time>
      </trkpt>
      <trkpt lat="49.81452" lon="2.1137">
        <ele>131.7</ele>
        <time>2023-02-22T13:07:42Z</time>
      </trkpt>
      <trkpt lat="49.81452" lon="2.1137">
        <ele>131.7</ele>
        <time>2023-02-22T13:07:43Z</time>
      </trkpt>
      <trkpt lat="49.81452" lon="2.1137">
        <ele>131.7</ele>
        <time>2023-02-22T13:07:44Z</time>
      </trkpt>
      <trkpt lat="49.81452" lon="2.1137">
        <ele>131.7</ele>
        <time>2023-02-22T13:07:45Z</time>
      </trkpt>
      <trkpt lat="49.81452" lon="2.1137">
        <ele>131.7</ele>
        <time>2023-02-22T13:07:46Z</time>
      </trkpt>
      <trkpt lat="49.81452" lon="2.1137">
        <ele>131.7</ele>
        <time>2023-02-22T13:07:47Z</time>
      </trkpt>
      <trkpt lat="49.81452" lon="2.1137">
        <ele>131.7</ele>
        <time>2023-02-22T13:07:48Z</time>
      </trkpt>
      <trkpt lat="49.81452" lon="2.1137">
        <ele>131.7</ele>
        <time>2023-02-22T13:07:49Z</time>
      </trkpt>
      <trkpt lat="49.81452" lon="2.1137">
        <ele>131.7</ele>
        <time>2023-02-22T13:07:50Z</time>
      </trkpt>
      <trkpt lat="49.81452" lon="2.1137">
        <ele>131.7</ele>
        <time>2023-02-22T13:07:51Z</time>
      </trkpt>
      <trkpt lat="49.81452" lon="2.1137">
        <ele>131.7</ele>
        <time>2023-02-22T13:07:52Z</time>
      </trkpt>
      <trkpt lat="49.81452" lon="2.1137">
        <ele>131.7</ele>
        <time>2023-02-22T13:07:53Z</time>
      </trkpt>
      <trkpt lat="49.81452" lon="2.1137">
        <ele>131.7</ele>
        <time>2023-02-22T13:07:54Z</time>
      </trkpt>
      <trkpt lat="49.81452" lon="2.1137">
        <ele>131.7</ele>
        <time>2023-02-22T13:07:55Z</time>
      </trkpt>
      <trkpt lat="49.81452" lon="2.1137">
        <ele>131.7</ele>
        <time>2023-02-22T13:07:56Z</time>
      </trkpt>
      <trkpt lat="49.81452" lon="2.1137">
        <ele>131.7</ele>
        <time>2023-02-22T13:07:57Z</time>
      </trkpt>
      <trkpt lat="49.81452" lon="2.1137">
        <ele>131.7</ele>
        <time>2023-02-22T13:07:58Z</time>
      </trkpt>
      <trkpt lat="49.81452" lon="2.1137">
        <ele>131.7</ele>
        <time>2023-02-22T13:07:59Z</time>
      </trkpt>
      <trkpt lat="49.81452" lon="2.1137">
        <ele>131.7</ele>
        <time>2023-02-22T13:08:00Z</time>
      </trkpt>
      <trkpt lat="49.81452" lon="2.1137">
        <ele>131.7</ele>
        <time>2023-02-22T13:08:01Z</time>
      </trkpt>
      <trkpt lat="49.81452" lon="2.1137">
        <ele>131.7</ele>
        <time>2023-02-22T13:08:02Z</time>
      </trkpt>
      <trkpt lat="49.81452" lon="2.1137">
        <ele>131.7</ele>
        <time>2023-02-22T13:08:03Z</time>
      </trkpt>
      <trkpt lat="49.81452" lon="2.1137">
        <ele>131.7</ele>
        <time>2023-02-22T13:08:04Z</time>
      </trkpt>
      <trkpt lat="49.81452" lon="2.1137">
        <ele>131.7</ele>
        <time>2023-02-22T13:08:05Z</time>
      </trkpt>
      <trkpt lat="49.81452" lon="2.1137">
        <ele>131.7</ele>
        <time>2023-02-22T13:08:06Z</time>
      </trkpt>
      <trkpt lat="49.81452" lon="2.1137">
        <ele>131.7</ele>
        <time>2023-02-22T13:08:07Z</time>
      </trkpt>
      <trkpt lat="49.81452" lon="2.1137">
        <ele>131.7</ele>
        <time>2023-02-22T13:08:08Z</time>
      </trkpt>
      <trkpt lat="49.81452" lon="2.1137">
        <ele>131.7</ele>
        <time>2023-02-22T13:08:09Z</time>
      </trkpt>
      <trkpt lat="49.81452" lon="2.1137">
        <ele>131.7</ele>
        <time>2023-02-22T13:08:10Z</time>
      </trkpt>
      <trkpt lat="49.81452" lon="2.1137">
        <ele>131.7</ele>
        <time>2023-02-22T13:08:11Z</time>
      </trkpt>
      <trkpt lat="49.81452" lon="2.1137">
        <ele>131.7</ele>
        <time>2023-02-22T13:08:12Z</time>
      </trkpt>
      <trkpt lat="49.81452" lon="2.1137">
        <ele>131.7</ele>
        <time>2023-02-22T13:08:13Z</time>
      </trkpt>
      <trkpt lat="49.81452" lon="2.1137">
        <ele>131.7</ele>
        <time>2023-02-22T13:08:14Z</time>
      </trkpt>
      <trkpt lat="49.81452" lon="2.1137">
        <ele>131.7</ele>
        <time>2023-02-22T13:08:15Z</time>
      </trkpt>
      <trkpt lat="49.81452" lon="2.1137">
        <ele>131.7</ele>
        <time>2023-02-22T13:08:16Z</time>
      </trkpt>
      <trkpt lat="49.81452" lon="2.1137">
        <ele>131.7</ele>
        <time>2023-02-22T13:08:17Z</time>
      </trkpt>
      <trkpt lat="49.81452" lon="2.1137">
        <ele>131.7</ele>
        <time>2023-02-22T13:08:18Z</time>
      </trkpt>
      <trkpt lat="49.81452" lon="2.1137">
        <ele>131.7</ele>
        <time>2023-02-22T13:08:19Z</time>
      </trkpt>
      <trkpt lat="49.81452" lon="2.1137">
        <ele>131.7</ele>
        <time>2023-02-22T13:08:20Z</time>
      </trkpt>
      <trkpt lat="49.81452" lon="2.1137">
        <ele>131.7</ele>
        <time>2023-02-22T13:08:21Z</time>
      </trkpt>
      <trkpt lat="49.81452" lon="2.1137">
        <ele>131.7</ele>
        <time>2023-02-22T13:08:22Z</time>
      </trkpt>
      <trkpt lat="49.81452" lon="2.1137">
        <ele>131.7</ele>
        <time>2023-02-22T13:08:23Z</time>
      </trkpt>
      <trkpt lat="49.81452" lon="2.1137">
        <ele>131.7</ele>
        <time>2023-02-22T13:08:24Z</time>
      </trkpt>
      <trkpt lat="49.81452" lon="2.1137">
        <ele>131.7</ele>
        <time>2023-02-22T13:08:25Z</time>
      </trkpt>
      <trkpt lat="49.81452" lon="2.1137">
        <ele>131.7</ele>
        <time>2023-02-22T13:08:26Z</time>
      </trkpt>
      <trkpt lat="49.81452" lon="2.1137">
        <ele>131.7</ele>
        <time>2023-02-22T13:08:27Z</time>
      </trkpt>
      <trkpt lat="49.81452" lon="2.1137">
        <ele>131.7</ele>
        <time>2023-02-22T13:08:28Z</time>
      </trkpt>
      <trkpt lat="49.81452" lon="2.1137">
        <ele>131.7</ele>
        <time>2023-02-22T13:08:29Z</time>
      </trkpt>
      <trkpt lat="49.81452" lon="2.1137">
        <ele>131.7</ele>
        <time>2023-02-22T13:08:30Z</time>
      </trkpt>
      <trkpt lat="49.81452" lon="2.1137">
        <ele>131.7</ele>
        <time>2023-02-22T13:08:31Z</time>
      </trkpt>
      <trkpt lat="49.81452" lon="2.1137">
        <ele>131.7</ele>
        <time>2023-02-22T13:08:32Z</time>
      </trkpt>
      <trkpt lat="49.81452" lon="2.1137">
        <ele>131.7</ele>
        <time>2023-02-22T13:08:33Z</time>
      </trkpt>
      <trkpt lat="49.81452" lon="2.1137">
        <ele>131.7</ele>
        <time>2023-02-22T13:08:34Z</time>
      </trkpt>
      <trkpt lat="49.81452" lon="2.1137">
        <ele>131.7</ele>
        <time>2023-02-22T13:08:35Z</time>
      </trkpt>
      <trkpt lat="49.81452" lon="2.1137">
        <ele>131.7</ele>
        <time>2023-02-22T13:08:36Z</time>
      </trkpt>
      <trkpt lat="49.81452" lon="2.1137">
        <ele>131.7</ele>
        <time>2023-02-22T13:08:37Z</time>
      </trkpt>
      <trkpt lat="49.81452" lon="2.1137">
        <ele>131.7</ele>
        <time>2023-02-22T13:08:38Z</time>
      </trkpt>
      <trkpt lat="49.81452" lon="2.1137">
        <ele>131.7</ele>
        <time>2023-02-22T13:08:39Z</time>
      </trkpt>
      <trkpt lat="49.81452" lon="2.1137">
        <ele>131.7</ele>
        <time>2023-02-22T13:08:40Z</time>
      </trkpt>
      <trkpt lat="49.81452" lon="2.1137">
        <ele>131.7</ele>
        <time>2023-02-22T13:08:41Z</time>
      </trkpt>
      <trkpt lat="49.81452" lon="2.1137">
        <ele>131.7</ele>
        <time>2023-02-22T13:08:42Z</time>
      </trkpt>
      <trkpt lat="49.81452" lon="2.1137">
        <ele>131.7</ele>
        <time>2023-02-22T13:08:43Z</time>
      </trkpt>
      <trkpt lat="49.81452" lon="2.1137">
        <ele>131.7</ele>
        <time>2023-02-22T13:08:44Z</time>
      </trkpt>
      <trkpt lat="49.81452" lon="2.1137">
        <ele>131.7</ele>
        <time>2023-02-22T13:08:45Z</time>
      </trkpt>
      <trkpt lat="49.81452" lon="2.1137">
        <ele>131.7</ele>
        <time>2023-02-22T13:08:46Z</time>
      </trkpt>
      <trkpt lat="49.81452" lon="2.1137">
        <ele>131.7</ele>
        <time>2023-02-22T13:08:47Z</time>
      </trkpt>
      <trkpt lat="49.81452" lon="2.1137">
        <ele>131.7</ele>
        <time>2023-02-22T13:08:48Z</time>
      </trkpt>
      <trkpt lat="49.81452" lon="2.1137">
        <ele>131.7</ele>
        <time>2023-02-22T13:08:49Z</time>
      </trkpt>
      <trkpt lat="49.81452" lon="2.1137">
        <ele>131.7</ele>
        <time>2023-02-22T13:08:50Z</time>
      </trkpt>
      <trkpt lat="49.81452" lon="2.1137">
        <ele>131.7</ele>
        <time>2023-02-22T13:08:51Z</time>
      </trkpt>
      <trkpt lat="49.81452" lon="2.1137">
        <ele>131.7</ele>
        <time>2023-02-22T13:08:52Z</time>
      </trkpt>
      <trkpt lat="49.81452" lon="2.1137">
        <ele>131.7</ele>
        <time>2023-02-22T13:08:53Z</time>
      </trkpt>
      <trkpt lat="49.81452" lon="2.1137">
        <ele>131.7</ele>
        <time>2023-02-22T13:08:54Z</time>
      </trkpt>
      <trkpt lat="49.81452" lon="2.1137">
        <ele>131.7</ele>
        <time>2023-02-22T13:08:55Z</time>
      </trkpt>
      <trkpt lat="49.81452" lon="2.1137">
        <ele>131.7</ele>
        <time>2023-02-22T13:08:56Z</time>
      </trkpt>
      <trkpt lat="49.81452" lon="2.1137">
        <ele>131.7</ele>
        <time>2023-02-22T13:08:57Z</time>
      </trkpt>
      <trkpt lat="49.81452" lon="2.1137">
        <ele>131.7</ele>
        <time>2023-02-22T13:08:58Z</time>
      </trkpt>
      <trkpt lat="49.81452" lon="2.1137">
        <ele>131.7</ele>
        <time>2023-02-22T13:08:59Z</time>
      </trkpt>
      <trkpt lat="49.81452" lon="2.1137">
        <ele>131.7</ele>
        <time>2023-02-22T13:09:00Z</time>
      </trkpt>
      <trkpt lat="49.81452" lon="2.1137">
        <ele>131.7</ele>
        <time>2023-02-22T13:09:01Z</time>
      </trkpt>
      <trkpt lat="49.81452" lon="2.1137">
        <ele>131.7</ele>
        <time>2023-02-22T13:09:02Z</time>
      </trkpt>
      <trkpt lat="49.81452" lon="2.1137">
        <ele>131.7</ele>
        <time>2023-02-22T13:09:03Z</time>
      </trkpt>
      <trkpt lat="49.81452" lon="2.1137">
        <ele>131.7</ele>
        <time>2023-02-22T13:09:04Z</time>
      </trkpt>
      <trkpt lat="49.81452" lon="2.1137">
        <ele>131.7</ele>
        <time>2023-02-22T13:09:05Z</time>
      </trkpt>
      <trkpt lat="49.81452" lon="2.1137">
        <ele>131.7</ele>
        <time>2023-02-22T13:09:06Z</time>
      </trkpt>
      <trkpt lat="49.81452" lon="2.1137">
        <ele>131.7</ele>
        <time>2023-02-22T13:09:07Z</time>
      </trkpt>
      <trkpt lat="49.81452" lon="2.1137">
        <ele>131.7</ele>
        <time>2023-02-22T13:09:08Z</time>
      </trkpt>
      <trkpt lat="49.81452" lon="2.1137">
        <ele>131.7</ele>
        <time>2023-02-22T13:09:09Z</time>
      </trkpt>
      <trkpt lat="49.81452" lon="2.1137">
        <ele>131.7</ele>
        <time>2023-02-22T13:09:10Z</time>
      </trkpt>
      <trkpt lat="49.81452" lon="2.1137">
        <ele>131.7</ele>
        <time>2023-02-22T13:09:11Z</time>
      </trkpt>
      <trkpt lat="49.81452" lon="2.1137">
        <ele>131.7</ele>
        <time>2023-02-22T13:09:12Z</time>
      </trkpt>
      <trkpt lat="49.81452" lon="2.1137">
        <ele>131.7</ele>
        <time>2023-02-22T13:09:13Z</time>
      </trkpt>
      <trkpt lat="49.81452" lon="2.1137">
        <ele>131.7</ele>
        <time>2023-02-22T13:09:14Z</time>
      </trkpt>
      <trkpt lat="49.81452" lon="2.1137">
        <ele>131.7</ele>
        <time>2023-02-22T13:09:15Z</time>
      </trkpt>
      <trkpt lat="49.81452" lon="2.1137">
        <ele>131.7</ele>
        <time>2023-02-22T13:09:16Z</time>
      </trkpt>
      <trkpt lat="49.81452" lon="2.1137">
        <ele>131.7</ele>
        <time>2023-02-22T13:09:17Z</time>
      </trkpt>
      <trkpt lat="49.81452" lon="2.1137">
        <ele>131.7</ele>
        <time>2023-02-22T13:09:18Z</time>
      </trkpt>
      <trkpt lat="49.81452" lon="2.1137">
        <ele>131.7</ele>
        <time>2023-02-22T13:09:19Z</time>
      </trkpt>
      <trkpt lat="49.81452" lon="2.1137">
        <ele>131.7</ele>
        <time>2023-02-22T13:09:20Z</time>
      </trkpt>
      <trkpt lat="49.81452" lon="2.1137">
        <ele>131.7</ele>
        <time>2023-02-22T13:09:21Z</time>
      </trkpt>
      <trkpt lat="49.81452" lon="2.1137">
        <ele>131.7</ele>
        <time>2023-02-22T13:09:22Z</time>
      </trkpt>
      <trkpt lat="49.81452" lon="2.1137">
        <ele>131.7</ele>
        <time>2023-02-22T13:09:23Z</time>
      </trkpt>
      <trkpt lat="49.81452" lon="2.1137">
        <ele>131.7</ele>
        <time>2023-02-22T13:09:24Z</time>
      </trkpt>
      <trkpt lat="49.81452" lon="2.1137">
        <ele>131.7</ele>
        <time>2023-02-22T13:09:25Z</time>
      </trkpt>
      <trkpt lat="49.81452" lon="2.1137">
        <ele>131.7</ele>
        <time>2023-02-22T13:09:26Z</time>
      </trkpt>
      <trkpt lat="49.81452" lon="2.1137">
        <ele>131.7</ele>
        <time>2023-02-22T13:09:27Z</time>
      </trkpt>
      <trkpt lat="49.81452" lon="2.1137">
        <ele>131.7</ele>
        <time>2023-02-22T13:09:28Z</time>
      </trkpt>
      <trkpt lat="49.81452" lon="2.1137">
        <ele>131.7</ele>
        <time>2023-02-22T13:09:29Z</time>
      </trkpt>
      <trkpt lat="49.81452" lon="2.1137">
        <ele>131.7</ele>
        <time>2023-02-22T13:09:30Z</time>
      </trkpt>
      <trkpt lat="49.81452" lon="2.1137">
        <ele>131.7</ele>
        <time>2023-02-22T13:09:31Z</time>
      </trkpt>
      <trkpt lat="49.81452" lon="2.1137">
        <ele>131.7</ele>
        <time>2023-02-22T13:09:32Z</time>
      </trkpt>
      <trkpt lat="49.81452" lon="2.1137">
        <ele>131.7</ele>
        <time>2023-02-22T13:09:33Z</time>
      </trkpt>
      <trkpt lat="49.81452" lon="2.1137">
        <ele>131.7</ele>
        <time>2023-02-22T13:09:34Z</time>
      </trkpt>
      <trkpt lat="49.81452" lon="2.1137">
        <ele>131.7</ele>
        <time>2023-02-22T13:09:35Z</time>
      </trkpt>
      <trkpt lat="49.81452" lon="2.1137">
        <ele>131.7</ele>
        <time>2023-02-22T13:09:36Z</time>
      </trkpt>
      <trkpt lat="49.81452" lon="2.1137">
        <ele>131.7</ele>
        <time>2023-02-22T13:09:37Z</time>
      </trkpt>
      <trkpt lat="49.81452" lon="2.1137">
        <ele>131.7</ele>
        <time>2023-02-22T13:09:38Z</time>
      </trkpt>
      <trkpt lat="49.81452" lon="2.1137">
        <ele>131.7</ele>
        <time>2023-02-22T13:09:39Z</time>
      </trkpt>
      <trkpt lat="49.81452" lon="2.1137">
        <ele>131.7</ele>
        <time>2023-02-22T13:09:40Z</time>
      </trkpt>
      <trkpt lat="49.81452" lon="2.1137">
        <ele>131.7</ele>
        <time>2023-02-22T13:09:41Z</time>
      </trkpt>
      <trkpt lat="49.81452" lon="2.1137">
        <ele>131.7</ele>
        <time>2023-02-22T13:09:42Z</time>
      </trkpt>
      <trkpt lat="49.81452" lon="2.1137">
        <ele>131.7</ele>
        <time>2023-02-22T13:09:43Z</time>
      </trkpt>
      <trkpt lat="49.81452" lon="2.1137">
        <ele>131.7</ele>
        <time>2023-02-22T13:09:44Z</time>
      </trkpt>
      <trkpt lat="49.81452" lon="2.1137">
        <ele>131.7</ele>
        <time>2023-02-22T13:09:45Z</time>
      </trkpt>
      <trkpt lat="49.81452" lon="2.1137">
        <ele>131.7</ele>
        <time>2023-02-22T13:09:46Z</time>
      </trkpt>
      <trkpt lat="49.81452" lon="2.1137">
        <ele>131.7</ele>
        <time>2023-02-22T13:09:47Z</time>
      </trkpt>
      <trkpt lat="49.81452" lon="2.1137">
        <ele>131.7</ele>
        <time>2023-02-22T13:09:48Z</time>
      </trkpt>
      <trkpt lat="49.81452" lon="2.1137">
        <ele>131.7</ele>
        <time>2023-02-22T13:09:49Z</time>
      </trkpt>
      <trkpt lat="49.81452" lon="2.1137">
        <ele>131.7</ele>
        <time>2023-02-22T13:09:50Z</time>
      </trkpt>
      <trkpt lat="49.81452" lon="2.1137">
        <ele>131.7</ele>
        <time>2023-02-22T13:09:51Z</time>
      </trkpt>
      <trkpt lat="49.81452" lon="2.1137">
        <ele>131.7</ele>
        <time>2023-02-22T13:09:52Z</time>
      </trkpt>
      <trkpt lat="49.81452" lon="2.1137">
        <ele>131.7</ele>
        <time>2023-02-22T13:09:53Z</time>
      </trkpt>
      <trkpt lat="49.81452" lon="2.1137">
        <ele>131.7</ele>
        <time>2023-02-22T13:09:54Z</time>
      </trkpt>
      <trkpt lat="49.81452" lon="2.1137">
        <ele>131.7</ele>
        <time>2023-02-22T13:09:55Z</time>
      </trkpt>
      <trkpt lat="49.81452" lon="2.1137">
        <ele>131.7</ele>
        <time>2023-02-22T13:09:56Z</time>
      </trkpt>
      <trkpt lat="49.81452" lon="2.1137">
        <ele>131.7</ele>
        <time>2023-02-22T13:09:57Z</time>
      </trkpt>
      <trkpt lat="49.81451" lon="2.11368">
        <ele>131.7</ele>
        <time>2023-02-22T13:09:58Z</time>
      </trkpt>
      <trkpt lat="49.81451" lon="2.11367">
        <ele>131.7</ele>
        <time>2023-02-22T13:09:59Z</time>
      </trkpt>
      <trkpt lat="49.8145" lon="2.11366">
        <ele>131.7</ele>
        <time>2023-02-22T13:10:00Z</time>
      </trkpt>
      <trkpt lat="49.8145" lon="2.11367">
        <ele>131.7</ele>
        <time>2023-02-22T13:10:01Z</time>
      </trkpt>
      <trkpt lat="49.8145" lon="2.11367">
        <ele>131.7</ele>
        <time>2023-02-22T13:10:02Z</time>
      </trkpt>
      <trkpt lat="49.8145" lon="2.11368">
        <ele>131.7</ele>
        <time>2023-02-22T13:10:03Z</time>
      </trkpt>
      <trkpt lat="49.81451" lon="2.11369">
        <ele>131.7</ele>
        <time>2023-02-22T13:10:04Z</time>
      </trkpt>
      <trkpt lat="49.81451" lon="2.1137">
        <ele>131.7</ele>
        <time>2023-02-22T13:10:05Z</time>
      </trkpt>
      <trkpt lat="49.81451" lon="2.11371">
        <ele>131.7</ele>
        <time>2023-02-22T13:10:06Z</time>
      </trkpt>
      <trkpt lat="49.81452" lon="2.11371">
        <ele>131.7</ele>
        <time>2023-02-22T13:10:07Z</time>
      </trkpt>
      <trkpt lat="49.81453" lon="2.11374">
        <ele>131.7</ele>
        <time>2023-02-22T13:10:08Z</time>
      </trkpt>
      <trkpt lat="49.81453" lon="2.11375">
        <ele>131.7</ele>
        <time>2023-02-22T13:10:09Z</time>
      </trkpt>
      <trkpt lat="49.81454" lon="2.11376">
        <ele>131.7</ele>
        <time>2023-02-22T13:10:10Z</time>
      </trkpt>
      <trkpt lat="49.81454" lon="2.11379">
        <ele>131.7</ele>
        <time>2023-02-22T13:10:11Z</time>
      </trkpt>
      <trkpt lat="49.81455" lon="2.1138">
        <ele>131.7</ele>
        <time>2023-02-22T13:10:12Z</time>
      </trkpt>
      <trkpt lat="49.81455" lon="2.11382">
        <ele>131.7</ele>
        <time>2023-02-22T13:10:13Z</time>
      </trkpt>
      <trkpt lat="49.81456" lon="2.11385">
        <ele>131.7</ele>
        <time>2023-02-22T13:10:14Z</time>
      </trkpt>
      <trkpt lat="49.81456" lon="2.11389">
        <ele>131.7</ele>
        <time>2023-02-22T13:10:15Z</time>
      </trkpt>
      <trkpt lat="49.81457" lon="2.11391">
        <ele>131.7</ele>
        <time>2023-02-22T13:10:16Z</time>
      </trkpt>
      <trkpt lat="49.81457" lon="2.11393">
        <ele>131.7</ele>
        <time>2023-02-22T13:10:17Z</time>
      </trkpt>
      <trkpt lat="49.81457" lon="2.11394">
        <ele>131.7</ele>
        <time>2023-02-22T13:10:18Z</time>
      </trkpt>
      <trkpt lat="49.81458" lon="2.11395">
        <ele>131.7</ele>
        <time>2023-02-22T13:10:19Z</time>
      </trkpt>
      <trkpt lat="49.81458" lon="2.11396">
        <ele>131.7</ele>
        <time>2023-02-22T13:10:20Z</time>
      </trkpt>
      <trkpt lat="49.81458" lon="2.11398">
        <ele>131.7</ele>
        <time>2023-02-22T13:10:21Z</time>
      </trkpt>
      <trkpt lat="49.81459" lon="2.114">
        <ele>131.7</ele>
        <time>2023-02-22T13:10:22Z</time>
      </trkpt>
      <trkpt lat="49.81459" lon="2.11401">
        <ele>131.7</ele>
        <time>2023-02-22T13:10:23Z</time>
      </trkpt>
      <trkpt lat="49.8146" lon="2.11404">
        <ele>131.7</ele>
        <time>2023-02-22T13:10:24Z</time>
      </trkpt>
      <trkpt lat="49.8146" lon="2.11405">
        <ele>131.7</ele>
        <time>2023-02-22T13:10:25Z</time>
      </trkpt>
      <trkpt lat="49.81461" lon="2.11406">
        <ele>131.7</ele>
        <time>2023-02-22T13:10:26Z</time>
      </trkpt>
      <trkpt lat="49.81461" lon="2.11407">
        <ele>131.7</ele>
        <time>2023-02-22T13:10:27Z</time>
      </trkpt>
      <trkpt lat="49.81462" lon="2.11409">
        <ele>131.7</ele>
        <time>2023-02-22T13:10:28Z</time>
      </trkpt>
      <trkpt lat="49.81463" lon="2.1141">
        <ele>131.7</ele>
        <time>2023-02-22T13:10:29Z</time>
      </trkpt>
      <trkpt lat="49.81464" lon="2.11413">
        <ele>131.7</ele>
        <time>2023-02-22T13:10:30Z</time>
      </trkpt>
      <trkpt lat="49.81464" lon="2.11415">
        <ele>131.7</ele>
        <time>2023-02-22T13:10:31Z</time>
      </trkpt>
      <trkpt lat="49.81464" lon="2.11416">
        <ele>131.7</ele>
        <time>2023-02-22T13:10:32Z</time>
      </trkpt>
      <trkpt lat="49.81466" lon="2.1142">
        <ele>131.7</ele>
        <time>2023-02-22T13:10:34Z</time>
      </trkpt>
      <trkpt lat="49.81467" lon="2.11422">
        <ele>131.7</ele>
        <time>2023-02-22T13:10:35Z</time>
      </trkpt>
      <trkpt lat="49.81468" lon="2.11426">
        <ele>131.7</ele>
        <time>2023-02-22T13:10:36Z</time>
      </trkpt>
      <trkpt lat="49.81468" lon="2.11427">
        <ele>131.7</ele>
        <time>2023-02-22T13:10:37Z</time>
      </trkpt>
      <trkpt lat="49.81469" lon="2.11429">
        <ele>131.7</ele>
        <time>2023-02-22T13:10:39Z</time>
      </trkpt>
      <trkpt lat="49.8147" lon="2.11431">
        <ele>131.7</ele>
        <time>2023-02-22T13:10:40Z</time>
      </trkpt>
      <trkpt lat="49.8147" lon="2.11433">
        <ele>131.7</ele>
        <time>2023-02-22T13:10:41Z</time>
      </trkpt>
      <trkpt lat="49.81471" lon="2.11435">
        <ele>131.7</ele>
        <time>2023-02-22T13:10:42Z</time>
      </trkpt>
      <trkpt lat="49.81472" lon="2.11437">
        <ele>131.7</ele>
        <time>2023-02-22T13:10:43Z</time>
      </trkpt>
      <trkpt lat="49.81473" lon="2.11439">
        <ele>131.7</ele>
        <time>2023-02-22T13:10:44Z</time>
      </trkpt>
      <trkpt lat="49.81473" lon="2.11442">
        <ele>131.7</ele>
        <time>2023-02-22T13:10:45Z</time>
      </trkpt>
      <trkpt lat="49.81474" lon="2.11444">
        <ele>131.7</ele>
        <time>2023-02-22T13:10:46Z</time>
      </trkpt>
      <trkpt lat="49.81474" lon="2.11446">
        <ele>131.7</ele>
        <time>2023-02-22T13:10:47Z</time>
      </trkpt>
      <trkpt lat="49.81475" lon="2.11448">
        <ele>131.6</ele>
        <time>2023-02-22T13:10:48Z</time>
      </trkpt>
      <trkpt lat="49.81475" lon="2.11451">
        <ele>131.6</ele>
        <time>2023-02-22T13:10:50Z</time>
      </trkpt>
      <trkpt lat="49.81475" lon="2.11452">
        <ele>131.6</ele>
        <time>2023-02-22T13:10:51Z</time>
      </trkpt>
      <trkpt lat="49.81475" lon="2.11454">
        <ele>131.6</ele>
        <time>2023-02-22T13:10:52Z</time>
      </trkpt>
      <trkpt lat="49.81476" lon="2.11456">
        <ele>131.6</ele>
        <time>2023-02-22T13:10:53Z</time>
      </trkpt>
      <trkpt lat="49.81476" lon="2.11459">
        <ele>131.6</ele>
        <time>2023-02-22T13:10:54Z</time>
      </trkpt>
      <trkpt lat="49.81476" lon="2.11462">
        <ele>131.6</ele>
        <time>2023-02-22T13:10:56Z</time>
      </trkpt>
      <trkpt lat="49.81476" lon="2.11463">
        <ele>131.6</ele>
        <time>2023-02-22T13:10:57Z</time>
      </trkpt>
      <trkpt lat="49.81476" lon="2.11464">
        <ele>131.6</ele>
        <time>2023-02-22T13:10:58Z</time>
      </trkpt>
      <trkpt lat="49.81476" lon="2.11466">
        <ele>131.6</ele>
        <time>2023-02-22T13:10:59Z</time>
      </trkpt>
      <trkpt lat="49.81476" lon="2.11469">
        <ele>131.6</ele>
        <time>2023-02-22T13:11:00Z</time>
      </trkpt>
      <trkpt lat="49.81476" lon="2.11471">
        <ele>131.6</ele>
        <time>2023-02-22T13:11:02Z</time>
      </trkpt>
      <trkpt lat="49.81476" lon="2.11472">
        <ele>131.6</ele>
        <time>2023-02-22T13:11:03Z</time>
      </trkpt>
      <trkpt lat="49.81476" lon="2.11473">
        <ele>131.6</ele>
        <time>2023-02-22T13:11:04Z</time>
      </trkpt>
      <trkpt lat="49.81477" lon="2.11475">
        <ele>131.6</ele>
        <time>2023-02-22T13:11:05Z</time>
      </trkpt>
      <trkpt lat="49.81477" lon="2.11477">
        <ele>131.6</ele>
        <time>2023-02-22T13:11:06Z</time>
      </trkpt>
      <trkpt lat="49.81477" lon="2.11478">
        <ele>131.6</ele>
        <time>2023-02-22T13:11:07Z</time>
      </trkpt>
      <trkpt lat="49.81477" lon="2.1148">
        <ele>131.6</ele>
        <time>2023-02-22T13:11:08Z</time>
      </trkpt>
      <trkpt lat="49.81477" lon="2.11482">
        <ele>131.6</ele>
        <time>2023-02-22T13:11:09Z</time>
      </trkpt>
      <trkpt lat="49.81477" lon="2.11484">
        <ele>131.6</ele>
        <time>2023-02-22T13:11:11Z</time>
      </trkpt>
      <trkpt lat="49.81477" lon="2.11486">
        <ele>131.6</ele>
        <time>2023-02-22T13:11:12Z</time>
      </trkpt>
      <trkpt lat="49.81477" lon="2.11487">
        <ele>131.5</ele>
        <time>2023-02-22T13:11:13Z</time>
      </trkpt>
      <trkpt lat="49.81477" lon="2.11489">
        <ele>131.5</ele>
        <time>2023-02-22T13:11:14Z</time>
      </trkpt>
      <trkpt lat="49.81477" lon="2.11491">
        <ele>131.5</ele>
        <time>2023-02-22T13:11:15Z</time>
      </trkpt>
      <trkpt lat="49.81477" lon="2.11494">
        <ele>131.5</ele>
        <time>2023-02-22T13:11:16Z</time>
      </trkpt>
      <trkpt lat="49.81477" lon="2.11495">
        <ele>131.5</ele>
        <time>2023-02-22T13:11:17Z</time>
      </trkpt>
      <trkpt lat="49.81477" lon="2.11496">
        <ele>131.5</ele>
        <time>2023-02-22T13:11:18Z</time>
      </trkpt>
      <trkpt lat="49.81477" lon="2.11497">
        <ele>131.5</ele>
        <time>2023-02-22T13:11:19Z</time>
      </trkpt>
      <trkpt lat="49.81477" lon="2.11499">
        <ele>131.5</ele>
        <time>2023-02-22T13:11:21Z</time>
      </trkpt>
      <trkpt lat="49.81477" lon="2.115">
        <ele>131.5</ele>
        <time>2023-02-22T13:11:22Z</time>
      </trkpt>
      <trkpt lat="49.81477" lon="2.11502">
        <ele>131.5</ele>
        <time>2023-02-22T13:11:23Z</time>
      </trkpt>
      <trkpt lat="49.81477" lon="2.11503">
        <ele>131.5</ele>
        <time>2023-02-22T13:11:24Z</time>
      </trkpt>
      <trkpt lat="49.81477" lon="2.11506">
        <ele>131.5</ele>
        <time>2023-02-22T13:11:25Z</time>
      </trkpt>
      <trkpt lat="49.81477" lon="2.11509">
        <ele>131.5</ele>
        <time>2023-02-22T13:11:26Z</time>
      </trkpt>
      <trkpt lat="49.81477" lon="2.11511">
        <ele>131.5</ele>
        <time>2023-02-22T13:11:27Z</time>
      </trkpt>
      <trkpt lat="49.81477" lon="2.11513">
        <ele>131.5</ele>
        <time>2023-02-22T13:11:28Z</time>
      </trkpt>
      <trkpt lat="49.81477" lon="2.11515">
        <ele>131.5</ele>
        <time>2023-02-22T13:11:29Z</time>
      </trkpt>
      <trkpt lat="49.81477" lon="2.11518">
        <ele>131.5</ele>
        <time>2023-02-22T13:11:30Z</time>
      </trkpt>
      <trkpt lat="49.81477" lon="2.11521">
        <ele>131.5</ele>
        <time>2023-02-22T13:11:32Z</time>
      </trkpt>
      <trkpt lat="49.81477" lon="2.11523">
        <ele>131.4</ele>
        <time>2023-02-22T13:11:33Z</time>
      </trkpt>
      <trkpt lat="49.81477" lon="2.11524">
        <ele>131.4</ele>
        <time>2023-02-22T13:11:34Z</time>
      </trkpt>
      <trkpt lat="49.81477" lon="2.11526">
        <ele>131.4</ele>
        <time>2023-02-22T13:11:35Z</time>
      </trkpt>
      <trkpt lat="49.81477" lon="2.11529">
        <ele>131.4</ele>
        <time>2023-02-22T13:11:36Z</time>
      </trkpt>
      <trkpt lat="49.81477" lon="2.11532">
        <ele>131.4</ele>
        <time>2023-02-22T13:11:37Z</time>
      </trkpt>
      <trkpt lat="49.81477" lon="2.11533">
        <ele>131.4</ele>
        <time>2023-02-22T13:11:38Z</time>
      </trkpt>
      <trkpt lat="49.81477" lon="2.11535">
        <ele>131.4</ele>
        <time>2023-02-22T13:11:39Z</time>
      </trkpt>
      <trkpt lat="49.81477" lon="2.11538">
        <ele>131.4</ele>
        <time>2023-02-22T13:11:40Z</time>
      </trkpt>
      <trkpt lat="49.81478" lon="2.11539">
        <ele>131.4</ele>
        <time>2023-02-22T13:11:41Z</time>
      </trkpt>
      <trkpt lat="49.81478" lon="2.11541">
        <ele>131.3</ele>
        <time>2023-02-22T13:11:42Z</time>
      </trkpt>
      <trkpt lat="49.81478" lon="2.11543">
        <ele>131.3</ele>
        <time>2023-02-22T13:11:43Z</time>
      </trkpt>
      <trkpt lat="49.81478" lon="2.11545">
        <ele>131.3</ele>
        <time>2023-02-22T13:11:45Z</time>
      </trkpt>
      <trkpt lat="49.81478" lon="2.11548">
        <ele>131.3</ele>
        <time>2023-02-22T13:11:46Z</time>
      </trkpt>
      <trkpt lat="49.81478" lon="2.1155">
        <ele>131.3</ele>
        <time>2023-02-22T13:11:47Z</time>
      </trkpt>
      <trkpt lat="49.81478" lon="2.11551">
        <ele>131.3</ele>
        <time>2023-02-22T13:11:48Z</time>
      </trkpt>
      <trkpt lat="49.81478" lon="2.11553">
        <ele>131.3</ele>
        <time>2023-02-22T13:11:49Z</time>
      </trkpt>
      <trkpt lat="49.81478" lon="2.11556">
        <ele>131.2</ele>
        <time>2023-02-22T13:11:50Z</time>
      </trkpt>
      <trkpt lat="49.81478" lon="2.11558">
        <ele>131.2</ele>
        <time>2023-02-22T13:11:51Z</time>
      </trkpt>
      <trkpt lat="49.81478" lon="2.1156">
        <ele>131.2</ele>
        <time>2023-02-22T13:11:53Z</time>
      </trkpt>
      <trkpt lat="49.81478" lon="2.11562">
        <ele>131.2</ele>
        <time>2023-02-22T13:11:54Z</time>
      </trkpt>
      <trkpt lat="49.81478" lon="2.11565">
        <ele>131.2</ele>
        <time>2023-02-22T13:11:55Z</time>
      </trkpt>
      <trkpt lat="49.81478" lon="2.11568">
        <ele>131.2</ele>
        <time>2023-02-22T13:11:56Z</time>
      </trkpt>
      <trkpt lat="49.81478" lon="2.11569">
        <ele>131.2</ele>
        <time>2023-02-22T13:11:57Z</time>
      </trkpt>
      <trkpt lat="49.81478" lon="2.11571">
        <ele>131.1</ele>
        <time>2023-02-22T13:11:58Z</time>
      </trkpt>
      <trkpt lat="49.81478" lon="2.11572">
        <ele>131.1</ele>
        <time>2023-02-22T13:11:59Z</time>
      </trkpt>
      <trkpt lat="49.81478" lon="2.11575">
        <ele>131.1</ele>
        <time>2023-02-22T13:12:01Z</time>
      </trkpt>
      <trkpt lat="49.81478" lon="2.11576">
        <ele>131.1</ele>
        <time>2023-02-22T13:12:02Z</time>
      </trkpt>
      <trkpt lat="49.81478" lon="2.11578">
        <ele>131.1</ele>
        <time>2023-02-22T13:12:03Z</time>
      </trkpt>
      <trkpt lat="49.81478" lon="2.1158">
        <ele>131.1</ele>
        <time>2023-02-22T13:12:04Z</time>
      </trkpt>
      <trkpt lat="49.81478" lon="2.11583">
        <ele>131.1</ele>
        <time>2023-02-22T13:12:05Z</time>
      </trkpt>
      <trkpt lat="49.81478" lon="2.11585">
        <ele>131.1</ele>
        <time>2023-02-22T13:12:06Z</time>
      </trkpt>
      <trkpt lat="49.81478" lon="2.11586">
        <ele>131.1</ele>
        <time>2023-02-22T13:12:07Z</time>
      </trkpt>
      <trkpt lat="49.81478" lon="2.11588">
        <ele>131</ele>
        <time>2023-02-22T13:12:08Z</time>
      </trkpt>
      <trkpt lat="49.81479" lon="2.1159">
        <ele>131</ele>
        <time>2023-02-22T13:12:09Z</time>
      </trkpt>
      <trkpt lat="49.81479" lon="2.11593">
        <ele>131</ele>
        <time>2023-02-22T13:12:10Z</time>
      </trkpt>
      <trkpt lat="49.81479" lon="2.11595">
        <ele>131</ele>
        <time>2023-02-22T13:12:11Z</time>
      </trkpt>
      <trkpt lat="49.81479" lon="2.11596">
        <ele>131</ele>
        <time>2023-02-22T13:12:13Z</time>
      </trkpt>
      <trkpt lat="49.81479" lon="2.11598">
        <ele>131</ele>
        <time>2023-02-22T13:12:14Z</time>
      </trkpt>
      <trkpt lat="49.81479" lon="2.11599">
        <ele>131</ele>
        <time>2023-02-22T13:12:15Z</time>
      </trkpt>
      <trkpt lat="49.81479" lon="2.11601">
        <ele>131</ele>
        <time>2023-02-22T13:12:16Z</time>
      </trkpt>
      <trkpt lat="49.81479" lon="2.11603">
        <ele>131</ele>
        <time>2023-02-22T13:12:17Z</time>
      </trkpt>
      <trkpt lat="49.81479" lon="2.11605">
        <ele>131</ele>
        <time>2023-02-22T13:12:18Z</time>
      </trkpt>
      <trkpt lat="49.81478" lon="2.11608">
        <ele>130.9</ele>
        <time>2023-02-22T13:12:20Z</time>
      </trkpt>
      <trkpt lat="49.81478" lon="2.11612">
        <ele>130.9</ele>
        <time>2023-02-22T13:12:22Z</time>
      </trkpt>
      <trkpt lat="49.81478" lon="2.11613">
        <ele>130.9</ele>
        <time>2023-02-22T13:12:23Z</time>
      </trkpt>
      <trkpt lat="49.81478" lon="2.11615">
        <ele>130.9</ele>
        <time>2023-02-22T13:12:24Z</time>
      </trkpt>
      <trkpt lat="49.81478" lon="2.11617">
        <ele>130.9</ele>
        <time>2023-02-22T13:12:25Z</time>
      </trkpt>
      <trkpt lat="49.81477" lon="2.1162">
        <ele>130.9</ele>
        <time>2023-02-22T13:12:26Z</time>
      </trkpt>
      <trkpt lat="49.81477" lon="2.11622">
        <ele>130.9</ele>
        <time>2023-02-22T13:12:27Z</time>
      </trkpt>
      <trkpt lat="49.81477" lon="2.11625">
        <ele>130.8</ele>
        <time>2023-02-22T13:12:28Z</time>
      </trkpt>
      <trkpt lat="49.81477" lon="2.11627">
        <ele>130.8</ele>
        <time>2023-02-22T13:12:30Z</time>
      </trkpt>
      <trkpt lat="49.81477" lon="2.11629">
        <ele>130.8</ele>
        <time>2023-02-22T13:12:31Z</time>
      </trkpt>
      <trkpt lat="49.81476" lon="2.11632">
        <ele>130.8</ele>
        <time>2023-02-22T13:12:32Z</time>
      </trkpt>
      <trkpt lat="49.81476" lon="2.11633">
        <ele>130.8</ele>
        <time>2023-02-22T13:12:33Z</time>
      </trkpt>
      <trkpt lat="49.81476" lon="2.11634">
        <ele>130.7</ele>
        <time>2023-02-22T13:12:34Z</time>
      </trkpt>
      <trkpt lat="49.81476" lon="2.11637">
        <ele>130.7</ele>
        <time>2023-02-22T13:12:36Z</time>
      </trkpt>
      <trkpt lat="49.81477" lon="2.1164">
        <ele>130.7</ele>
        <time>2023-02-22T13:12:37Z</time>
      </trkpt>
      <trkpt lat="49.81477" lon="2.11643">
        <ele>130.7</ele>
        <time>2023-02-22T13:12:38Z</time>
      </trkpt>
      <trkpt lat="49.81477" lon="2.11644">
        <ele>130.6</ele>
        <time>2023-02-22T13:12:39Z</time>
      </trkpt>
      <trkpt lat="49.81477" lon="2.11646">
        <ele>130.6</ele>
        <time>2023-02-22T13:12:40Z</time>
      </trkpt>
      <trkpt lat="49.81477" lon="2.11649">
        <ele>130.6</ele>
        <time>2023-02-22T13:12:41Z</time>
      </trkpt>
      <trkpt lat="49.81477" lon="2.1165">
        <ele>130.6</ele>
        <time>2023-02-22T13:12:42Z</time>
      </trkpt>
      <trkpt lat="49.81477" lon="2.11651">
        <ele>130.6</ele>
        <time>2023-02-22T13:12:43Z</time>
      </trkpt>
      <trkpt lat="49.81477" lon="2.11655">
        <ele>130.5</ele>
        <time>2023-02-22T13:12:44Z</time>
      </trkpt>
      <trkpt lat="49.81477" lon="2.11656">
        <ele>130.5</ele>
        <time>2023-02-22T13:12:45Z</time>
      </trkpt>
      <trkpt lat="49.81477" lon="2.11657">
        <ele>130.5</ele>
        <time>2023-02-22T13:12:46Z</time>
      </trkpt>
      <trkpt lat="49.81477" lon="2.11659">
        <ele>130.5</ele>
        <time>2023-02-22T13:12:47Z</time>
      </trkpt>
      <trkpt lat="49.81477" lon="2.11661">
        <ele>130.4</ele>
        <time>2023-02-22T13:12:49Z</time>
      </trkpt>
      <trkpt lat="49.81477" lon="2.11663">
        <ele>130.4</ele>
        <time>2023-02-22T13:12:50Z</time>
      </trkpt>
      <trkpt lat="49.81478" lon="2.11665">
        <ele>130.4</ele>
        <time>2023-02-22T13:12:51Z</time>
      </trkpt>
      <trkpt lat="49.81478" lon="2.11667">
        <ele>130.4</ele>
        <time>2023-02-22T13:12:52Z</time>
      </trkpt>
      <trkpt lat="49.81478" lon="2.1167">
        <ele>130.3</ele>
        <time>2023-02-22T13:12:53Z</time>
      </trkpt>
      <trkpt lat="49.81478" lon="2.11672">
        <ele>130.3</ele>
        <time>2023-02-22T13:12:54Z</time>
      </trkpt>
      <trkpt lat="49.81479" lon="2.11673">
        <ele>130.3</ele>
        <time>2023-02-22T13:12:55Z</time>
      </trkpt>
      <trkpt lat="49.81479" lon="2.11677">
        <ele>130.2</ele>
        <time>2023-02-22T13:12:57Z</time>
      </trkpt>
      <trkpt lat="49.81479" lon="2.11678">
        <ele>130.2</ele>
        <time>2023-02-22T13:12:58Z</time>
      </trkpt>
      <trkpt lat="49.81479" lon="2.11679">
        <ele>130.2</ele>
        <time>2023-02-22T13:12:59Z</time>
      </trkpt>
      <trkpt lat="49.81479" lon="2.11683">
        <ele>130.2</ele>
        <time>2023-02-22T13:13:00Z</time>
      </trkpt>
      <trkpt lat="49.8148" lon="2.11685">
        <ele>130.2</ele>
        <time>2023-02-22T13:13:01Z</time>
      </trkpt>
      <trkpt lat="49.8148" lon="2.11686">
        <ele>130.2</ele>
        <time>2023-02-22T13:13:02Z</time>
      </trkpt>
      <trkpt lat="49.8148" lon="2.11688">
        <ele>130.1</ele>
        <time>2023-02-22T13:13:03Z</time>
      </trkpt>
      <trkpt lat="49.8148" lon="2.1169">
        <ele>130.1</ele>
        <time>2023-02-22T13:13:04Z</time>
      </trkpt>
      <trkpt lat="49.8148" lon="2.11692">
        <ele>130.1</ele>
        <time>2023-02-22T13:13:05Z</time>
      </trkpt>
      <trkpt lat="49.81481" lon="2.11695">
        <ele>130.1</ele>
        <time>2023-02-22T13:13:06Z</time>
      </trkpt>
      <trkpt lat="49.81481" lon="2.11699">
        <ele>130.1</ele>
        <time>2023-02-22T13:13:07Z</time>
      </trkpt>
      <trkpt lat="49.81481" lon="2.117">
        <ele>130.1</ele>
        <time>2023-02-22T13:13:08Z</time>
      </trkpt>
      <trkpt lat="49.81481" lon="2.11701">
        <ele>130</ele>
        <time>2023-02-22T13:13:09Z</time>
      </trkpt>
      <trkpt lat="49.81481" lon="2.11703">
        <ele>130</ele>
        <time>2023-02-22T13:13:11Z</time>
      </trkpt>
      <trkpt lat="49.81481" lon="2.11706">
        <ele>130</ele>
        <time>2023-02-22T13:13:12Z</time>
      </trkpt>
      <trkpt lat="49.81481" lon="2.11707">
        <ele>130</ele>
        <time>2023-02-22T13:13:13Z</time>
      </trkpt>
      <trkpt lat="49.81481" lon="2.11709">
        <ele>130</ele>
        <time>2023-02-22T13:13:14Z</time>
      </trkpt>
      <trkpt lat="49.81481" lon="2.11711">
        <ele>130</ele>
        <time>2023-02-22T13:13:15Z</time>
      </trkpt>
      <trkpt lat="49.81481" lon="2.11713">
        <ele>130</ele>
        <time>2023-02-22T13:13:16Z</time>
      </trkpt>
      <trkpt lat="49.81481" lon="2.11716">
        <ele>129.9</ele>
        <time>2023-02-22T13:13:17Z</time>
      </trkpt>
      <trkpt lat="49.8148" lon="2.11719">
        <ele>129.9</ele>
        <time>2023-02-22T13:13:18Z</time>
      </trkpt>
      <trkpt lat="49.8148" lon="2.1172">
        <ele>129.9</ele>
        <time>2023-02-22T13:13:19Z</time>
      </trkpt>
      <trkpt lat="49.8148" lon="2.11721">
        <ele>129.9</ele>
        <time>2023-02-22T13:13:20Z</time>
      </trkpt>
      <trkpt lat="49.8148" lon="2.11725">
        <ele>129.9</ele>
        <time>2023-02-22T13:13:21Z</time>
      </trkpt>
      <trkpt lat="49.8148" lon="2.11726">
        <ele>129.9</ele>
        <time>2023-02-22T13:13:22Z</time>
      </trkpt>
      <trkpt lat="49.8148" lon="2.11728">
        <ele>129.9</ele>
        <time>2023-02-22T13:13:23Z</time>
      </trkpt>
      <trkpt lat="49.8148" lon="2.1173">
        <ele>129.9</ele>
        <time>2023-02-22T13:13:24Z</time>
      </trkpt>
      <trkpt lat="49.81481" lon="2.11732">
        <ele>129.9</ele>
        <time>2023-02-22T13:13:26Z</time>
      </trkpt>
      <trkpt lat="49.81481" lon="2.11734">
        <ele>129.8</ele>
        <time>2023-02-22T13:13:27Z</time>
      </trkpt>
      <trkpt lat="49.8148" lon="2.11735">
        <ele>129.8</ele>
        <time>2023-02-22T13:13:28Z</time>
      </trkpt>
      <trkpt lat="49.8148" lon="2.11736">
        <ele>129.8</ele>
        <time>2023-02-22T13:13:29Z</time>
      </trkpt>
      <trkpt lat="49.8148" lon="2.11739">
        <ele>129.8</ele>
        <time>2023-02-22T13:13:30Z</time>
      </trkpt>
      <trkpt lat="49.8148" lon="2.11741">
        <ele>129.8</ele>
        <time>2023-02-22T13:13:31Z</time>
      </trkpt>
      <trkpt lat="49.8148" lon="2.11742">
        <ele>129.8</ele>
        <time>2023-02-22T13:13:32Z</time>
      </trkpt>
      <trkpt lat="49.8148" lon="2.11745">
        <ele>129.8</ele>
        <time>2023-02-22T13:13:33Z</time>
      </trkpt>
      <trkpt lat="49.8148" lon="2.11747">
        <ele>129.8</ele>
        <time>2023-02-22T13:13:34Z</time>
      </trkpt>
      <trkpt lat="49.81479" lon="2.11748">
        <ele>129.8</ele>
        <time>2023-02-22T13:13:35Z</time>
      </trkpt>
      <trkpt lat="49.81479" lon="2.11752">
        <ele>129.7</ele>
        <time>2023-02-22T13:13:37Z</time>
      </trkpt>
      <trkpt lat="49.81479" lon="2.11754">
        <ele>129.7</ele>
        <time>2023-02-22T13:13:39Z</time>
      </trkpt>
      <trkpt lat="49.81479" lon="2.11756">
        <ele>129.7</ele>
        <time>2023-02-22T13:13:40Z</time>
      </trkpt>
      <trkpt lat="49.81479" lon="2.1176">
        <ele>129.7</ele>
        <time>2023-02-22T13:13:41Z</time>
      </trkpt>
      <trkpt lat="49.81479" lon="2.11761">
        <ele>129.7</ele>
        <time>2023-02-22T13:13:42Z</time>
      </trkpt>
      <trkpt lat="49.81479" lon="2.11764">
        <ele>129.7</ele>
        <time>2023-02-22T13:13:43Z</time>
      </trkpt>
      <trkpt lat="49.81479" lon="2.11766">
        <ele>129.7</ele>
        <time>2023-02-22T13:13:44Z</time>
      </trkpt>
      <trkpt lat="49.81479" lon="2.11767">
        <ele>129.7</ele>
        <time>2023-02-22T13:13:45Z</time>
      </trkpt>
      <trkpt lat="49.81479" lon="2.1177">
        <ele>129.7</ele>
        <time>2023-02-22T13:13:46Z</time>
      </trkpt>
      <trkpt lat="49.81479" lon="2.11772">
        <ele>129.7</ele>
        <time>2023-02-22T13:13:48Z</time>
      </trkpt>
      <trkpt lat="49.81479" lon="2.11774">
        <ele>129.7</ele>
        <time>2023-02-22T13:13:49Z</time>
      </trkpt>
      <trkpt lat="49.81479" lon="2.11777">
        <ele>129.7</ele>
        <time>2023-02-22T13:13:50Z</time>
      </trkpt>
      <trkpt lat="49.81479" lon="2.1178">
        <ele>129.6</ele>
        <time>2023-02-22T13:13:51Z</time>
      </trkpt>
      <trkpt lat="49.8148" lon="2.11781">
        <ele>129.6</ele>
        <time>2023-02-22T13:13:52Z</time>
      </trkpt>
      <trkpt lat="49.8148" lon="2.11783">
        <ele>129.6</ele>
        <time>2023-02-22T13:13:54Z</time>
      </trkpt>
      <trkpt lat="49.8148" lon="2.11785">
        <ele>129.6</ele>
        <time>2023-02-22T13:13:55Z</time>
      </trkpt>
      <trkpt lat="49.81479" lon="2.11786">
        <ele>129.6</ele>
        <time>2023-02-22T13:13:56Z</time>
      </trkpt>
      <trkpt lat="49.8148" lon="2.1179">
        <ele>129.6</ele>
        <time>2023-02-22T13:13:57Z</time>
      </trkpt>
      <trkpt lat="49.8148" lon="2.11791">
        <ele>129.6</ele>
        <time>2023-02-22T13:13:58Z</time>
      </trkpt>
      <trkpt lat="49.8148" lon="2.11795">
        <ele>129.5</ele>
        <time>2023-02-22T13:13:59Z</time>
      </trkpt>
      <trkpt lat="49.8148" lon="2.11796">
        <ele>129.5</ele>
        <time>2023-02-22T13:14:00Z</time>
      </trkpt>
      <trkpt lat="49.8148" lon="2.11797">
        <ele>129.5</ele>
        <time>2023-02-22T13:14:01Z</time>
      </trkpt>
      <trkpt lat="49.8148" lon="2.11802">
        <ele>129.5</ele>
        <time>2023-02-22T13:14:03Z</time>
      </trkpt>
      <trkpt lat="49.8148" lon="2.11803">
        <ele>129.5</ele>
        <time>2023-02-22T13:14:04Z</time>
      </trkpt>
      <trkpt lat="49.8148" lon="2.11804">
        <ele>129.5</ele>
        <time>2023-02-22T13:14:05Z</time>
      </trkpt>
      <trkpt lat="49.8148" lon="2.11805">
        <ele>129.5</ele>
        <time>2023-02-22T13:14:06Z</time>
      </trkpt>
      <trkpt lat="49.8148" lon="2.11808">
        <ele>129.4</ele>
        <time>2023-02-22T13:14:07Z</time>
      </trkpt>
      <trkpt lat="49.8148" lon="2.11811">
        <ele>129.4</ele>
        <time>2023-02-22T13:14:08Z</time>
      </trkpt>
      <trkpt lat="49.8148" lon="2.11812">
        <ele>129.4</ele>
        <time>2023-02-22T13:14:10Z</time>
      </trkpt>
      <trkpt lat="49.8148" lon="2.11814">
        <ele>129.4</ele>
        <time>2023-02-22T13:14:11Z</time>
      </trkpt>
      <trkpt lat="49.8148" lon="2.11816">
        <ele>129.4</ele>
        <time>2023-02-22T13:14:12Z</time>
      </trkpt>
      <trkpt lat="49.8148" lon="2.11817">
        <ele>129.4</ele>
        <time>2023-02-22T13:14:13Z</time>
      </trkpt>
      <trkpt lat="49.8148" lon="2.11819">
        <ele>129.4</ele>
        <time>2023-02-22T13:14:14Z</time>
      </trkpt>
      <trkpt lat="49.8148" lon="2.11823">
        <ele>129.4</ele>
        <time>2023-02-22T13:14:15Z</time>
      </trkpt>
      <trkpt lat="49.8148" lon="2.11824">
        <ele>129.4</ele>
        <time>2023-02-22T13:14:16Z</time>
      </trkpt>
      <trkpt lat="49.8148" lon="2.11826">
        <ele>129.3</ele>
        <time>2023-02-22T13:14:17Z</time>
      </trkpt>
      <trkpt lat="49.81481" lon="2.11829">
        <ele>129.3</ele>
        <time>2023-02-22T13:14:18Z</time>
      </trkpt>
      <trkpt lat="49.81481" lon="2.1183">
        <ele>129.3</ele>
        <time>2023-02-22T13:14:20Z</time>
      </trkpt>
      <trkpt lat="49.81481" lon="2.11831">
        <ele>129.3</ele>
        <time>2023-02-22T13:14:21Z</time>
      </trkpt>
      <trkpt lat="49.81481" lon="2.11834">
        <ele>129.3</ele>
        <time>2023-02-22T13:14:22Z</time>
      </trkpt>
      <trkpt lat="49.81481" lon="2.11836">
        <ele>129.3</ele>
        <time>2023-02-22T13:14:23Z</time>
      </trkpt>
      <trkpt lat="49.8148" lon="2.11839">
        <ele>129.3</ele>
        <time>2023-02-22T13:14:24Z</time>
      </trkpt>
      <trkpt lat="49.8148" lon="2.11841">
        <ele>129.3</ele>
        <time>2023-02-22T13:14:25Z</time>
      </trkpt>
      <trkpt lat="49.8148" lon="2.11842">
        <ele>129.3</ele>
        <time>2023-02-22T13:14:26Z</time>
      </trkpt>
      <trkpt lat="49.81479" lon="2.11845">
        <ele>129.3</ele>
        <time>2023-02-22T13:14:28Z</time>
      </trkpt>
      <trkpt lat="49.81479" lon="2.11846">
        <ele>129.3</ele>
        <time>2023-02-22T13:14:29Z</time>
      </trkpt>
      <trkpt lat="49.81479" lon="2.11848">
        <ele>129.3</ele>
        <time>2023-02-22T13:14:30Z</time>
      </trkpt>
      <trkpt lat="49.81479" lon="2.1185">
        <ele>129.2</ele>
        <time>2023-02-22T13:14:31Z</time>
      </trkpt>
      <trkpt lat="49.81479" lon="2.11853">
        <ele>129.2</ele>
        <time>2023-02-22T13:14:32Z</time>
      </trkpt>
      <trkpt lat="49.81479" lon="2.11854">
        <ele>129.2</ele>
        <time>2023-02-22T13:14:33Z</time>
      </trkpt>
      <trkpt lat="49.81479" lon="2.11856">
        <ele>129.2</ele>
        <time>2023-02-22T13:14:34Z</time>
      </trkpt>
      <trkpt lat="49.81479" lon="2.11858">
        <ele>129.2</ele>
        <time>2023-02-22T13:14:35Z</time>
      </trkpt>
      <trkpt lat="49.81479" lon="2.11862">
        <ele>129.2</ele>
        <time>2023-02-22T13:14:36Z</time>
      </trkpt>
      <trkpt lat="49.81478" lon="2.11863">
        <ele>129.2</ele>
        <time>2023-02-22T13:14:38Z</time>
      </trkpt>
      <trkpt lat="49.81478" lon="2.11864">
        <ele>129.1</ele>
        <time>2023-02-22T13:14:39Z</time>
      </trkpt>
      <trkpt lat="49.81478" lon="2.11866">
        <ele>129.1</ele>
        <time>2023-02-22T13:14:40Z</time>
      </trkpt>
      <trkpt lat="49.81478" lon="2.11868">
        <ele>129.1</ele>
        <time>2023-02-22T13:14:41Z</time>
      </trkpt>
      <trkpt lat="49.81477" lon="2.11872">
        <ele>129.1</ele>
        <time>2023-02-22T13:14:42Z</time>
      </trkpt>
      <trkpt lat="49.81477" lon="2.11873">
        <ele>129.1</ele>
        <time>2023-02-22T13:14:43Z</time>
      </trkpt>
      <trkpt lat="49.81476" lon="2.11875">
        <ele>129.1</ele>
        <time>2023-02-22T13:14:44Z</time>
      </trkpt>
      <trkpt lat="49.81476" lon="2.11877">
        <ele>129</ele>
        <time>2023-02-22T13:14:45Z</time>
      </trkpt>
      <trkpt lat="49.81476" lon="2.1188">
        <ele>129</ele>
        <time>2023-02-22T13:14:47Z</time>
      </trkpt>
      <trkpt lat="49.81475" lon="2.11883">
        <ele>129</ele>
        <time>2023-02-22T13:14:48Z</time>
      </trkpt>
      <trkpt lat="49.81475" lon="2.11884">
        <ele>129</ele>
        <time>2023-02-22T13:14:49Z</time>
      </trkpt>
      <trkpt lat="49.81475" lon="2.11886">
        <ele>129</ele>
        <time>2023-02-22T13:14:50Z</time>
      </trkpt>
      <trkpt lat="49.81475" lon="2.11889">
        <ele>129</ele>
        <time>2023-02-22T13:14:51Z</time>
      </trkpt>
      <trkpt lat="49.81475" lon="2.1189">
        <ele>129</ele>
        <time>2023-02-22T13:14:52Z</time>
      </trkpt>
      <trkpt lat="49.81475" lon="2.11892">
        <ele>128.9</ele>
        <time>2023-02-22T13:14:53Z</time>
      </trkpt>
      <trkpt lat="49.81475" lon="2.11894">
        <ele>128.9</ele>
        <time>2023-02-22T13:14:55Z</time>
      </trkpt>
      <trkpt lat="49.81475" lon="2.11896">
        <ele>128.9</ele>
        <time>2023-02-22T13:14:56Z</time>
      </trkpt>
      <trkpt lat="49.81474" lon="2.11897">
        <ele>128.9</ele>
        <time>2023-02-22T13:14:57Z</time>
      </trkpt>
      <trkpt lat="49.81474" lon="2.11899">
        <ele>128.9</ele>
        <time>2023-02-22T13:14:58Z</time>
      </trkpt>
      <trkpt lat="49.81474" lon="2.119">
        <ele>128.9</ele>
        <time>2023-02-22T13:14:59Z</time>
      </trkpt>
      <trkpt lat="49.81474" lon="2.11904">
        <ele>128.9</ele>
        <time>2023-02-22T13:15:00Z</time>
      </trkpt>
      <trkpt lat="49.81474" lon="2.11905">
        <ele>128.9</ele>
        <time>2023-02-22T13:15:01Z</time>
      </trkpt>
      <trkpt lat="49.81474" lon="2.11907">
        <ele>128.9</ele>
        <time>2023-02-22T13:15:02Z</time>
      </trkpt>
      <trkpt lat="49.81474" lon="2.11908">
        <ele>128.9</ele>
        <time>2023-02-22T13:15:03Z</time>
      </trkpt>
      <trkpt lat="49.81475" lon="2.1191">
        <ele>128.9</ele>
        <time>2023-02-22T13:15:04Z</time>
      </trkpt>
      <trkpt lat="49.81475" lon="2.11911">
        <ele>128.9</ele>
        <time>2023-02-22T13:15:05Z</time>
      </trkpt>
      <trkpt lat="49.81475" lon="2.11915">
        <ele>128.9</ele>
        <time>2023-02-22T13:15:06Z</time>
      </trkpt>
      <trkpt lat="49.81476" lon="2.11916">
        <ele>128.9</ele>
        <time>2023-02-22T13:15:08Z</time>
      </trkpt>
      <trkpt lat="49.81476" lon="2.11917">
        <ele>128.9</ele>
        <time>2023-02-22T13:15:09Z</time>
      </trkpt>
      <trkpt lat="49.81476" lon="2.11919">
        <ele>128.9</ele>
        <time>2023-02-22T13:15:10Z</time>
      </trkpt>
      <trkpt lat="49.81476" lon="2.11921">
        <ele>128.9</ele>
        <time>2023-02-22T13:15:11Z</time>
      </trkpt>
      <trkpt lat="49.81477" lon="2.11924">
        <ele>128.8</ele>
        <time>2023-02-22T13:15:13Z</time>
      </trkpt>
      <trkpt lat="49.81477" lon="2.11926">
        <ele>128.8</ele>
        <time>2023-02-22T13:15:14Z</time>
      </trkpt>
      <trkpt lat="49.81477" lon="2.11929">
        <ele>128.8</ele>
        <time>2023-02-22T13:15:16Z</time>
      </trkpt>
      <trkpt lat="49.81477" lon="2.11932">
        <ele>128.8</ele>
        <time>2023-02-22T13:15:17Z</time>
      </trkpt>
      <trkpt lat="49.81477" lon="2.11934">
        <ele>128.8</ele>
        <time>2023-02-22T13:15:18Z</time>
      </trkpt>
      <trkpt lat="49.81477" lon="2.11936">
        <ele>128.8</ele>
        <time>2023-02-22T13:15:19Z</time>
      </trkpt>
      <trkpt lat="49.81476" lon="2.11938">
        <ele>128.8</ele>
        <time>2023-02-22T13:15:20Z</time>
      </trkpt>
      <trkpt lat="49.81476" lon="2.11942">
        <ele>128.8</ele>
        <time>2023-02-22T13:15:21Z</time>
      </trkpt>
      <trkpt lat="49.81476" lon="2.11944">
        <ele>128.8</ele>
        <time>2023-02-22T13:15:22Z</time>
      </trkpt>
      <trkpt lat="49.81476" lon="2.11945">
        <ele>128.8</ele>
        <time>2023-02-22T13:15:23Z</time>
      </trkpt>
      <trkpt lat="49.81476" lon="2.11947">
        <ele>128.8</ele>
        <time>2023-02-22T13:15:24Z</time>
      </trkpt>
      <trkpt lat="49.81476" lon="2.11949">
        <ele>128.8</ele>
        <time>2023-02-22T13:15:26Z</time>
      </trkpt>
      <trkpt lat="49.81476" lon="2.11951">
        <ele>128.8</ele>
        <time>2023-02-22T13:15:27Z</time>
      </trkpt>
      <trkpt lat="49.81477" lon="2.11952">
        <ele>128.8</ele>
        <time>2023-02-22T13:15:29Z</time>
      </trkpt>
      <trkpt lat="49.81478" lon="2.11951">
        <ele>128.8</ele>
        <time>2023-02-22T13:15:30Z</time>
      </trkpt>
      <trkpt lat="49.81478" lon="2.11949">
        <ele>128.8</ele>
        <time>2023-02-22T13:15:31Z</time>
      </trkpt>
      <trkpt lat="49.81478" lon="2.11948">
        <ele>128.8</ele>
        <time>2023-02-22T13:15:33Z</time>
      </trkpt>
      <trkpt lat="49.81478" lon="2.11948">
        <ele>128.8</ele>
        <time>2023-02-22T13:15:34Z</time>
      </trkpt>
      <trkpt lat="49.81478" lon="2.11947">
        <ele>128.8</ele>
        <time>2023-02-22T13:15:36Z</time>
      </trkpt>
      <trkpt lat="49.81478" lon="2.11947">
        <ele>128.8</ele>
        <time>2023-02-22T13:15:39Z</time>
      </trkpt>
      <trkpt lat="49.81478" lon="2.11947">
        <ele>128.8</ele>
        <time>2023-02-22T13:15:40Z</time>
      </trkpt>
      <trkpt lat="49.81479" lon="2.11947">
        <ele>128.8</ele>
        <time>2023-02-22T13:15:41Z</time>
      </trkpt>
      <trkpt lat="49.81478" lon="2.11947">
        <ele>128.8</ele>
        <time>2023-02-22T13:15:43Z</time>
      </trkpt>
      <trkpt lat="49.81478" lon="2.11947">
        <ele>128.8</ele>
        <time>2023-02-22T13:15:44Z</time>
      </trkpt>
      <trkpt lat="49.81478" lon="2.11947">
        <ele>128.8</ele>
        <time>2023-02-22T13:15:46Z</time>
      </trkpt>
      <trkpt lat="49.81478" lon="2.11947">
        <ele>128.8</ele>
        <time>2023-02-22T13:15:47Z</time>
      </trkpt>
      <trkpt lat="49.81479" lon="2.11947">
        <ele>128.8</ele>
        <time>2023-02-22T13:15:48Z</time>
      </trkpt>
      <trkpt lat="49.81479" lon="2.11947">
        <ele>128.8</ele>
        <time>2023-02-22T13:15:49Z</time>
      </trkpt>
      <trkpt lat="49.81479" lon="2.11948">
        <ele>128.8</ele>
        <time>2023-02-22T13:15:50Z</time>
      </trkpt>
      <trkpt lat="49.81479" lon="2.11948">
        <ele>128.8</ele>
        <time>2023-02-22T13:15:51Z</time>
      </trkpt>
      <trkpt lat="49.81479" lon="2.11948">
        <ele>128.8</ele>
        <time>2023-02-22T13:15:52Z</time>
      </trkpt>
      <trkpt lat="49.81479" lon="2.11948">
        <ele>128.8</ele>
        <time>2023-02-22T13:15:53Z</time>
      </trkpt>
      <trkpt lat="49.81479" lon="2.11948">
        <ele>128.8</ele>
        <time>2023-02-22T13:15:54Z</time>
      </trkpt>
      <trkpt lat="49.81479" lon="2.11948">
        <ele>128.8</ele>
        <time>2023-02-22T13:15:55Z</time>
      </trkpt>
      <trkpt lat="49.81479" lon="2.11948">
        <ele>128.8</ele>
        <time>2023-02-22T13:15:56Z</time>
      </trkpt>
      <trkpt lat="49.81479" lon="2.11948">
        <ele>128.8</ele>
        <time>2023-02-22T13:15:57Z</time>
      </trkpt>
      <trkpt lat="49.81479" lon="2.11948">
        <ele>128.8</ele>
        <time>2023-02-22T13:15:58Z</time>
      </trkpt>
      <trkpt lat="49.81479" lon="2.11948">
        <ele>128.8</ele>
        <time>2023-02-22T13:15:59Z</time>
      </trkpt>
      <trkpt lat="49.81479" lon="2.11948">
        <ele>128.8</ele>
        <time>2023-02-22T13:16:00Z</time>
      </trkpt>
      <trkpt lat="49.81479" lon="2.11948">
        <ele>128.8</ele>
        <time>2023-02-22T13:16:01Z</time>
      </trkpt>
      <trkpt lat="49.81479" lon="2.11948">
        <ele>128.8</ele>
        <time>2023-02-22T13:16:02Z</time>
      </trkpt>
      <trkpt lat="49.81479" lon="2.11948">
        <ele>128.8</ele>
        <time>2023-02-22T13:16:03Z</time>
      </trkpt>
      <trkpt lat="49.81479" lon="2.11948">
        <ele>128.8</ele>
        <time>2023-02-22T13:16:04Z</time>
      </trkpt>
      <trkpt lat="49.81479" lon="2.11948">
        <ele>128.8</ele>
        <time>2023-02-22T13:16:05Z</time>
      </trkpt>
      <trkpt lat="49.81479" lon="2.11948">
        <ele>128.8</ele>
        <time>2023-02-22T13:16:06Z</time>
      </trkpt>
      <trkpt lat="49.81479" lon="2.11948">
        <ele>128.8</ele>
        <time>2023-02-22T13:16:07Z</time>
      </trkpt>
      <trkpt lat="49.81479" lon="2.11948">
        <ele>128.8</ele>
        <time>2023-02-22T13:16:08Z</time>
      </trkpt>
      <trkpt lat="49.81479" lon="2.11948">
        <ele>128.8</ele>
        <time>2023-02-22T13:16:09Z</time>
      </trkpt>
      <trkpt lat="49.81479" lon="2.11948">
        <ele>128.8</ele>
        <time>2023-02-22T13:16:10Z</time>
      </trkpt>
      <trkpt lat="49.81479" lon="2.11948">
        <ele>128.8</ele>
        <time>2023-02-22T13:16:11Z</time>
      </trkpt>
      <trkpt lat="49.81479" lon="2.11948">
        <ele>128.8</ele>
        <time>2023-02-22T13:16:12Z</time>
      </trkpt>
      <trkpt lat="49.81479" lon="2.11948">
        <ele>128.8</ele>
        <time>2023-02-22T13:16:13Z</time>
      </trkpt>
      <trkpt lat="49.81479" lon="2.11948">
        <ele>128.8</ele>
        <time>2023-02-22T13:16:14Z</time>
      </trkpt>
      <trkpt lat="49.81479" lon="2.11948">
        <ele>128.8</ele>
        <time>2023-02-22T13:16:15Z</time>
      </trkpt>
      <trkpt lat="49.81479" lon="2.11948">
        <ele>128.8</ele>
        <time>2023-02-22T13:16:16Z</time>
      </trkpt>
      <trkpt lat="49.81479" lon="2.11948">
        <ele>128.8</ele>
        <time>2023-02-22T13:16:17Z</time>
      </trkpt>
      <trkpt lat="49.81479" lon="2.11948">
        <ele>128.8</ele>
        <time>2023-02-22T13:16:18Z</time>
      </trkpt>
      <trkpt lat="49.81479" lon="2.1195">
        <ele>128.8</ele>
        <time>2023-02-22T13:16:19Z</time>
      </trkpt>
      <trkpt lat="49.8148" lon="2.11953">
        <ele>128.8</ele>
        <time>2023-02-22T13:16:20Z</time>
      </trkpt>
      <trkpt lat="49.81479" lon="2.11954">
        <ele>128.8</ele>
        <time>2023-02-22T13:16:21Z</time>
      </trkpt>
      <trkpt lat="49.81479" lon="2.11955">
        <ele>128.8</ele>
        <time>2023-02-22T13:16:22Z</time>
      </trkpt>
      <trkpt lat="49.81478" lon="2.11955">
        <ele>128.8</ele>
        <time>2023-02-22T13:16:23Z</time>
      </trkpt>
      <trkpt lat="49.81478" lon="2.11955">
        <ele>128.8</ele>
        <time>2023-02-22T13:16:24Z</time>
      </trkpt>
      <trkpt lat="49.81478" lon="2.11955">
        <ele>128.8</ele>
        <time>2023-02-22T13:16:25Z</time>
      </trkpt>
      <trkpt lat="49.81478" lon="2.11955">
        <ele>128.8</ele>
        <time>2023-02-22T13:16:27Z</time>
      </trkpt>
      <trkpt lat="49.81478" lon="2.11955">
        <ele>128.8</ele>
        <time>2023-02-22T13:16:28Z</time>
      </trkpt>
      <trkpt lat="49.81478" lon="2.11956">
        <ele>128.8</ele>
        <time>2023-02-22T13:16:29Z</time>
      </trkpt>
      <trkpt lat="49.81478" lon="2.11957">
        <ele>128.8</ele>
        <time>2023-02-22T13:16:30Z</time>
      </trkpt>
      <trkpt lat="49.81478" lon="2.1196">
        <ele>128.8</ele>
        <time>2023-02-22T13:16:31Z</time>
      </trkpt>
      <trkpt lat="49.81478" lon="2.11962">
        <ele>128.8</ele>
        <time>2023-02-22T13:16:33Z</time>
      </trkpt>
      <trkpt lat="49.81478" lon="2.11964">
        <ele>128.8</ele>
        <time>2023-02-22T13:16:34Z</time>
      </trkpt>
      <trkpt lat="49.81479" lon="2.11965">
        <ele>128.8</ele>
        <time>2023-02-22T13:16:35Z</time>
      </trkpt>
      <trkpt lat="49.81479" lon="2.11967">
        <ele>128.7</ele>
        <time>2023-02-22T13:16:36Z</time>
      </trkpt>
      <trkpt lat="49.81479" lon="2.11968">
        <ele>128.7</ele>
        <time>2023-02-22T13:16:37Z</time>
      </trkpt>
      <trkpt lat="49.8148" lon="2.1197">
        <ele>128.7</ele>
        <time>2023-02-22T13:16:38Z</time>
      </trkpt>
      <trkpt lat="49.8148" lon="2.11972">
        <ele>128.7</ele>
        <time>2023-02-22T13:16:39Z</time>
      </trkpt>
      <trkpt lat="49.8148" lon="2.11974">
        <ele>128.7</ele>
        <time>2023-02-22T13:16:40Z</time>
      </trkpt>
      <trkpt lat="49.8148" lon="2.11975">
        <ele>128.7</ele>
        <time>2023-02-22T13:16:42Z</time>
      </trkpt>
      <trkpt lat="49.81481" lon="2.11978">
        <ele>128.7</ele>
        <time>2023-02-22T13:16:44Z</time>
      </trkpt>
      <trkpt lat="49.81481" lon="2.11979">
        <ele>128.7</ele>
        <time>2023-02-22T13:16:45Z</time>
      </trkpt>
      <trkpt lat="49.81481" lon="2.11979">
        <ele>128.7</ele>
        <time>2023-02-22T13:16:47Z</time>
      </trkpt>
      <trkpt lat="49.81481" lon="2.11979">
        <ele>128.7</ele>
        <time>2023-02-22T13:16:48Z</time>
      </trkpt>
      <trkpt lat="49.81481" lon="2.11979">
        <ele>128.7</ele>
        <time>2023-02-22T13:16:50Z</time>
      </trkpt>
      <trkpt lat="49.81481" lon="2.1198">
        <ele>128.7</ele>
        <time>2023-02-22T13:16:51Z</time>
      </trkpt>
      <trkpt lat="49.81481" lon="2.1198">
        <ele>128.7</ele>
        <time>2023-02-22T13:16:52Z</time>
      </trkpt>
      <trkpt lat="49.81481" lon="2.1198">
        <ele>128.7</ele>
        <time>2023-02-22T13:16:54Z</time>
      </trkpt>
      <trkpt lat="49.81481" lon="2.1198">
        <ele>128.7</ele>
        <time>2023-02-22T13:16:55Z</time>
      </trkpt>
      <trkpt lat="49.81481" lon="2.1198">
        <ele>128.7</ele>
        <time>2023-02-22T13:16:57Z</time>
      </trkpt>
      <trkpt lat="49.81481" lon="2.1198">
        <ele>128.7</ele>
        <time>2023-02-22T13:16:58Z</time>
      </trkpt>
      <trkpt lat="49.81481" lon="2.1198">
        <ele>128.7</ele>
        <time>2023-02-22T13:16:59Z</time>
      </trkpt>
      <trkpt lat="49.8148" lon="2.1198">
        <ele>128.7</ele>
        <time>2023-02-22T13:17:01Z</time>
      </trkpt>
      <trkpt lat="49.8148" lon="2.1198">
        <ele>128.6</ele>
        <time>2023-02-22T13:17:02Z</time>
      </trkpt>
      <trkpt lat="49.8148" lon="2.1198">
        <ele>128.6</ele>
        <time>2023-02-22T13:17:03Z</time>
      </trkpt>
      <trkpt lat="49.8148" lon="2.1198">
        <ele>128.6</ele>
        <time>2023-02-22T13:17:04Z</time>
      </trkpt>
      <trkpt lat="49.8148" lon="2.1198">
        <ele>128.6</ele>
        <time>2023-02-22T13:17:05Z</time>
      </trkpt>
      <trkpt lat="49.8148" lon="2.1198">
        <ele>128.6</ele>
        <time>2023-02-22T13:17:06Z</time>
      </trkpt>
      <trkpt lat="49.8148" lon="2.1198">
        <ele>128.6</ele>
        <time>2023-02-22T13:17:07Z</time>
      </trkpt>
      <trkpt lat="49.8148" lon="2.11981">
        <ele>128.6</ele>
        <time>2023-02-22T13:17:08Z</time>
      </trkpt>
      <trkpt lat="49.8148" lon="2.11981">
        <ele>128.6</ele>
        <time>2023-02-22T13:17:09Z</time>
      </trkpt>
      <trkpt lat="49.8148" lon="2.11981">
        <ele>128.6</ele>
        <time>2023-02-22T13:17:10Z</time>
      </trkpt>
      <trkpt lat="49.8148" lon="2.11981">
        <ele>128.6</ele>
        <time>2023-02-22T13:17:11Z</time>
      </trkpt>
      <trkpt lat="49.8148" lon="2.11981">
        <ele>128.6</ele>
        <time>2023-02-22T13:17:12Z</time>
      </trkpt>
      <trkpt lat="49.8148" lon="2.11981">
        <ele>128.6</ele>
        <time>2023-02-22T13:17:13Z</time>
      </trkpt>
      <trkpt lat="49.8148" lon="2.11981">
        <ele>128.6</ele>
        <time>2023-02-22T13:17:14Z</time>
      </trkpt>
      <trkpt lat="49.8148" lon="2.11981">
        <ele>128.6</ele>
        <time>2023-02-22T13:17:15Z</time>
      </trkpt>
      <trkpt lat="49.8148" lon="2.11981">
        <ele>128.6</ele>
        <time>2023-02-22T13:17:16Z</time>
      </trkpt>
      <trkpt lat="49.8148" lon="2.11981">
        <ele>128.6</ele>
        <time>2023-02-22T13:17:17Z</time>
      </trkpt>
      <trkpt lat="49.8148" lon="2.11981">
        <ele>128.6</ele>
        <time>2023-02-22T13:17:18Z</time>
      </trkpt>
      <trkpt lat="49.8148" lon="2.11981">
        <ele>128.6</ele>
        <time>2023-02-22T13:17:19Z</time>
      </trkpt>
      <trkpt lat="49.8148" lon="2.11981">
        <ele>128.6</ele>
        <time>2023-02-22T13:17:20Z</time>
      </trkpt>
      <trkpt lat="49.8148" lon="2.11981">
        <ele>128.6</ele>
        <time>2023-02-22T13:17:21Z</time>
      </trkpt>
      <trkpt lat="49.8148" lon="2.11981">
        <ele>128.6</ele>
        <time>2023-02-22T13:17:22Z</time>
      </trkpt>
      <trkpt lat="49.8148" lon="2.11982">
        <ele>128.6</ele>
        <time>2023-02-22T13:17:23Z</time>
      </trkpt>
      <trkpt lat="49.8148" lon="2.11982">
        <ele>128.6</ele>
        <time>2023-02-22T13:17:24Z</time>
      </trkpt>
      <trkpt lat="49.8148" lon="2.11982">
        <ele>128.6</ele>
        <time>2023-02-22T13:17:25Z</time>
      </trkpt>
      <trkpt lat="49.8148" lon="2.11982">
        <ele>128.6</ele>
        <time>2023-02-22T13:17:26Z</time>
      </trkpt>
      <trkpt lat="49.8148" lon="2.11982">
        <ele>128.6</ele>
        <time>2023-02-22T13:17:27Z</time>
      </trkpt>
      <trkpt lat="49.8148" lon="2.11982">
        <ele>128.6</ele>
        <time>2023-02-22T13:17:28Z</time>
      </trkpt>
      <trkpt lat="49.8148" lon="2.11982">
        <ele>128.6</ele>
        <time>2023-02-22T13:17:29Z</time>
      </trkpt>
      <trkpt lat="49.8148" lon="2.11982">
        <ele>128.6</ele>
        <time>2023-02-22T13:17:30Z</time>
      </trkpt>
      <trkpt lat="49.8148" lon="2.11982">
        <ele>128.6</ele>
        <time>2023-02-22T13:17:31Z</time>
      </trkpt>
      <trkpt lat="49.8148" lon="2.11982">
        <ele>128.6</ele>
        <time>2023-02-22T13:17:32Z</time>
      </trkpt>
      <trkpt lat="49.8148" lon="2.11982">
        <ele>128.6</ele>
        <time>2023-02-22T13:17:33Z</time>
      </trkpt>
      <trkpt lat="49.8148" lon="2.11982">
        <ele>128.6</ele>
        <time>2023-02-22T13:17:34Z</time>
      </trkpt>
      <trkpt lat="49.8148" lon="2.11982">
        <ele>128.6</ele>
        <time>2023-02-22T13:17:35Z</time>
      </trkpt>
      <trkpt lat="49.81479" lon="2.11982">
        <ele>128.6</ele>
        <time>2023-02-22T13:17:36Z</time>
      </trkpt>
      <trkpt lat="49.81479" lon="2.11982">
        <ele>128.6</ele>
        <time>2023-02-22T13:17:37Z</time>
      </trkpt>
      <trkpt lat="49.81479" lon="2.11983">
        <ele>128.6</ele>
        <time>2023-02-22T13:17:38Z</time>
      </trkpt>
      <trkpt lat="49.81479" lon="2.11983">
        <ele>128.6</ele>
        <time>2023-02-22T13:17:39Z</time>
      </trkpt>
      <trkpt lat="49.81479" lon="2.11983">
        <ele>128.6</ele>
        <time>2023-02-22T13:17:40Z</time>
      </trkpt>
      <trkpt lat="49.81479" lon="2.11983">
        <ele>128.6</ele>
        <time>2023-02-22T13:17:41Z</time>
      </trkpt>
      <trkpt lat="49.81479" lon="2.11983">
        <ele>128.6</ele>
        <time>2023-02-22T13:17:42Z</time>
      </trkpt>
      <trkpt lat="49.81479" lon="2.11983">
        <ele>128.6</ele>
        <time>2023-02-22T13:17:43Z</time>
      </trkpt>
      <trkpt lat="49.81479" lon="2.11983">
        <ele>128.6</ele>
        <time>2023-02-22T13:17:44Z</time>
      </trkpt>
      <trkpt lat="49.81479" lon="2.11983">
        <ele>128.6</ele>
        <time>2023-02-22T13:17:45Z</time>
      </trkpt>
      <trkpt lat="49.81479" lon="2.11983">
        <ele>128.6</ele>
        <time>2023-02-22T13:17:46Z</time>
      </trkpt>
      <trkpt lat="49.81479" lon="2.11983">
        <ele>128.6</ele>
        <time>2023-02-22T13:17:47Z</time>
      </trkpt>
      <trkpt lat="49.81479" lon="2.11983">
        <ele>128.6</ele>
        <time>2023-02-22T13:17:48Z</time>
      </trkpt>
      <trkpt lat="49.81479" lon="2.11983">
        <ele>128.6</ele>
        <time>2023-02-22T13:17:49Z</time>
      </trkpt>
      <trkpt lat="49.81479" lon="2.11983">
        <ele>128.6</ele>
        <time>2023-02-22T13:17:50Z</time>
      </trkpt>
      <trkpt lat="49.81479" lon="2.11983">
        <ele>128.6</ele>
        <time>2023-02-22T13:17:51Z</time>
      </trkpt>
      <trkpt lat="49.81479" lon="2.11983">
        <ele>128.6</ele>
        <time>2023-02-22T13:17:52Z</time>
      </trkpt>
      <trkpt lat="49.81479" lon="2.11984">
        <ele>128.6</ele>
        <time>2023-02-22T13:17:53Z</time>
      </trkpt>
      <trkpt lat="49.81479" lon="2.11984">
        <ele>128.6</ele>
        <time>2023-02-22T13:17:54Z</time>
      </trkpt>
      <trkpt lat="49.81479" lon="2.11984">
        <ele>128.6</ele>
        <time>2023-02-22T13:17:55Z</time>
      </trkpt>
      <trkpt lat="49.81479" lon="2.11984">
        <ele>128.6</ele>
        <time>2023-02-22T13:17:56Z</time>
      </trkpt>
      <trkpt lat="49.81479" lon="2.11984">
        <ele>128.6</ele>
        <time>2023-02-22T13:17:57Z</time>
      </trkpt>
      <trkpt lat="49.81479" lon="2.11984">
        <ele>128.6</ele>
        <time>2023-02-22T13:17:58Z</time>
      </trkpt>
      <trkpt lat="49.81479" lon="2.11984">
        <ele>128.6</ele>
        <time>2023-02-22T13:17:59Z</time>
      </trkpt>
      <trkpt lat="49.81479" lon="2.11984">
        <ele>128.6</ele>
        <time>2023-02-22T13:18:01Z</time>
      </trkpt>
      <trkpt lat="49.81479" lon="2.11984">
        <ele>128.6</ele>
        <time>2023-02-22T13:18:02Z</time>
      </trkpt>
      <trkpt lat="49.81479" lon="2.11984">
        <ele>128.6</ele>
        <time>2023-02-22T13:18:03Z</time>
      </trkpt>
      <trkpt lat="49.81478" lon="2.11987">
        <ele>128.6</ele>
        <time>2023-02-22T13:18:04Z</time>
      </trkpt>
      <trkpt lat="49.81478" lon="2.11989">
        <ele>128.6</ele>
        <time>2023-02-22T13:18:05Z</time>
      </trkpt>
      <trkpt lat="49.81478" lon="2.11991">
        <ele>128.6</ele>
        <time>2023-02-22T13:18:06Z</time>
      </trkpt>
      <trkpt lat="49.81478" lon="2.11994">
        <ele>128.5</ele>
        <time>2023-02-22T13:18:07Z</time>
      </trkpt>
      <trkpt lat="49.81478" lon="2.11997">
        <ele>128.5</ele>
        <time>2023-02-22T13:18:09Z</time>
      </trkpt>
      <trkpt lat="49.81478" lon="2.11998">
        <ele>128.5</ele>
        <time>2023-02-22T13:18:10Z</time>
      </trkpt>
      <trkpt lat="49.81478" lon="2.12">
        <ele>128.5</ele>
        <time>2023-02-22T13:18:11Z</time>
      </trkpt>
      <trkpt lat="49.81478" lon="2.12002">
        <ele>128.5</ele>
        <time>2023-02-22T13:18:12Z</time>
      </trkpt>
      <trkpt lat="49.81478" lon="2.12004">
        <ele>128.5</ele>
        <time>2023-02-22T13:18:13Z</time>
      </trkpt>
      <trkpt lat="49.81478" lon="2.12006">
        <ele>128.5</ele>
        <time>2023-02-22T13:18:14Z</time>
      </trkpt>
      <trkpt lat="49.81478" lon="2.12008">
        <ele>128.4</ele>
        <time>2023-02-22T13:18:15Z</time>
      </trkpt>
      <trkpt lat="49.81478" lon="2.1201">
        <ele>128.4</ele>
        <time>2023-02-22T13:18:16Z</time>
      </trkpt>
      <trkpt lat="49.81478" lon="2.12012">
        <ele>128.4</ele>
        <time>2023-02-22T13:18:17Z</time>
      </trkpt>
      <trkpt lat="49.81478" lon="2.12013">
        <ele>128.4</ele>
        <time>2023-02-22T13:18:19Z</time>
      </trkpt>
      <trkpt lat="49.81478" lon="2.12014">
        <ele>128.4</ele>
        <time>2023-02-22T13:18:20Z</time>
      </trkpt>
      <trkpt lat="49.81478" lon="2.12016">
        <ele>128.4</ele>
        <time>2023-02-22T13:18:21Z</time>
      </trkpt>
      <trkpt lat="49.81478" lon="2.12018">
        <ele>128.4</ele>
        <time>2023-02-22T13:18:22Z</time>
      </trkpt>
      <trkpt lat="49.81478" lon="2.1202">
        <ele>128.4</ele>
        <time>2023-02-22T13:18:23Z</time>
      </trkpt>
      <trkpt lat="49.81478" lon="2.12022">
        <ele>128.4</ele>
        <time>2023-02-22T13:18:24Z</time>
      </trkpt>
      <trkpt lat="49.81478" lon="2.12023">
        <ele>128.3</ele>
        <time>2023-02-22T13:18:25Z</time>
      </trkpt>
      <trkpt lat="49.81478" lon="2.12025">
        <ele>128.3</ele>
        <time>2023-02-22T13:18:26Z</time>
      </trkpt>
      <trkpt lat="49.81478" lon="2.12028">
        <ele>128.3</ele>
        <time>2023-02-22T13:18:28Z</time>
      </trkpt>
      <trkpt lat="49.81478" lon="2.1203">
        <ele>128.3</ele>
        <time>2023-02-22T13:18:29Z</time>
      </trkpt>
      <trkpt lat="49.81478" lon="2.12033">
        <ele>128.3</ele>
        <time>2023-02-22T13:18:30Z</time>
      </trkpt>
      <trkpt lat="49.81478" lon="2.12035">
        <ele>128.3</ele>
        <time>2023-02-22T13:18:31Z</time>
      </trkpt>
      <trkpt lat="49.81478" lon="2.12038">
        <ele>128.3</ele>
        <time>2023-02-22T13:18:32Z</time>
      </trkpt>
      <trkpt lat="49.81478" lon="2.1204">
        <ele>128.3</ele>
        <time>2023-02-22T13:18:33Z</time>
      </trkpt>
      <trkpt lat="49.81478" lon="2.12041">
        <ele>128.3</ele>
        <time>2023-02-22T13:18:34Z</time>
      </trkpt>
      <trkpt lat="49.81478" lon="2.12044">
        <ele>128.3</ele>
        <time>2023-02-22T13:18:36Z</time>
      </trkpt>
      <trkpt lat="49.81478" lon="2.12046">
        <ele>128.2</ele>
        <time>2023-02-22T13:18:37Z</time>
      </trkpt>
      <trkpt lat="49.81478" lon="2.12048">
        <ele>128.2</ele>
        <time>2023-02-22T13:18:38Z</time>
      </trkpt>
      <trkpt lat="49.81477" lon="2.1205">
        <ele>128.2</ele>
        <time>2023-02-22T13:18:39Z</time>
      </trkpt>
      <trkpt lat="49.81477" lon="2.12054">
        <ele>128.2</ele>
        <time>2023-02-22T13:18:40Z</time>
      </trkpt>
      <trkpt lat="49.81477" lon="2.12055">
        <ele>128.2</ele>
        <time>2023-02-22T13:18:41Z</time>
      </trkpt>
      <trkpt lat="49.81477" lon="2.12056">
        <ele>128.2</ele>
        <time>2023-02-22T13:18:42Z</time>
      </trkpt>
      <trkpt lat="49.81476" lon="2.1206">
        <ele>128.2</ele>
        <time>2023-02-22T13:18:44Z</time>
      </trkpt>
      <trkpt lat="49.81476" lon="2.12061">
        <ele>128.2</ele>
        <time>2023-02-22T13:18:45Z</time>
      </trkpt>
      <trkpt lat="49.81476" lon="2.12063">
        <ele>128.2</ele>
        <time>2023-02-22T13:18:46Z</time>
      </trkpt>
      <trkpt lat="49.81476" lon="2.12064">
        <ele>128.2</ele>
        <time>2023-02-22T13:18:47Z</time>
      </trkpt>
      <trkpt lat="49.81477" lon="2.12066">
        <ele>128.2</ele>
        <time>2023-02-22T13:18:48Z</time>
      </trkpt>
      <trkpt lat="49.81477" lon="2.12068">
        <ele>128.3</ele>
        <time>2023-02-22T13:18:49Z</time>
      </trkpt>
      <trkpt lat="49.81477" lon="2.12072">
        <ele>128.3</ele>
        <time>2023-02-22T13:18:50Z</time>
      </trkpt>
      <trkpt lat="49.81477" lon="2.12073">
        <ele>128.3</ele>
        <time>2023-02-22T13:18:51Z</time>
      </trkpt>
      <trkpt lat="49.81478" lon="2.12074">
        <ele>128.3</ele>
        <time>2023-02-22T13:18:52Z</time>
      </trkpt>
      <trkpt lat="49.81478" lon="2.12076">
        <ele>128.2</ele>
        <time>2023-02-22T13:18:53Z</time>
      </trkpt>
      <trkpt lat="49.81478" lon="2.12077">
        <ele>128.2</ele>
        <time>2023-02-22T13:18:54Z</time>
      </trkpt>
      <trkpt lat="49.81479" lon="2.1208">
        <ele>128.2</ele>
        <time>2023-02-22T13:18:56Z</time>
      </trkpt>
      <trkpt lat="49.81479" lon="2.12081">
        <ele>128.2</ele>
        <time>2023-02-22T13:18:57Z</time>
      </trkpt>
      <trkpt lat="49.8148" lon="2.12083">
        <ele>128.2</ele>
        <time>2023-02-22T13:18:58Z</time>
      </trkpt>
      <trkpt lat="49.8148" lon="2.12085">
        <ele>128.2</ele>
        <time>2023-02-22T13:18:59Z</time>
      </trkpt>
      <trkpt lat="49.8148" lon="2.12087">
        <ele>128.2</ele>
        <time>2023-02-22T13:19:00Z</time>
      </trkpt>
      <trkpt lat="49.81481" lon="2.12088">
        <ele>128.2</ele>
        <time>2023-02-22T13:19:01Z</time>
      </trkpt>
      <trkpt lat="49.81481" lon="2.1209">
        <ele>128.2</ele>
        <time>2023-02-22T13:19:02Z</time>
      </trkpt>
      <trkpt lat="49.81481" lon="2.12093">
        <ele>128.2</ele>
        <time>2023-02-22T13:19:03Z</time>
      </trkpt>
      <trkpt lat="49.81482" lon="2.12094">
        <ele>128.2</ele>
        <time>2023-02-22T13:19:04Z</time>
      </trkpt>
      <trkpt lat="49.81482" lon="2.12096">
        <ele>128.2</ele>
        <time>2023-02-22T13:19:05Z</time>
      </trkpt>
      <trkpt lat="49.81482" lon="2.12096">
        <ele>128.2</ele>
        <time>2023-02-22T13:19:07Z</time>
      </trkpt>
      <trkpt lat="49.81483" lon="2.12098">
        <ele>128.2</ele>
        <time>2023-02-22T13:19:08Z</time>
      </trkpt>
      <trkpt lat="49.81483" lon="2.121">
        <ele>128.2</ele>
        <time>2023-02-22T13:19:09Z</time>
      </trkpt>
      <trkpt lat="49.81483" lon="2.12101">
        <ele>128.2</ele>
        <time>2023-02-22T13:19:10Z</time>
      </trkpt>
      <trkpt lat="49.81484" lon="2.12104">
        <ele>128.2</ele>
        <time>2023-02-22T13:19:11Z</time>
      </trkpt>
      <trkpt lat="49.81484" lon="2.12105">
        <ele>128.2</ele>
        <time>2023-02-22T13:19:12Z</time>
      </trkpt>
      <trkpt lat="49.81484" lon="2.12107">
        <ele>128.2</ele>
        <time>2023-02-22T13:19:13Z</time>
      </trkpt>
      <trkpt lat="49.81484" lon="2.12109">
        <ele>128.2</ele>
        <time>2023-02-22T13:19:14Z</time>
      </trkpt>
      <trkpt lat="49.81485" lon="2.12112">
        <ele>128.2</ele>
        <time>2023-02-22T13:19:16Z</time>
      </trkpt>
      <trkpt lat="49.81485" lon="2.12113">
        <ele>128.2</ele>
        <time>2023-02-22T13:19:17Z</time>
      </trkpt>
      <trkpt lat="49.81485" lon="2.12115">
        <ele>128.2</ele>
        <time>2023-02-22T13:19:18Z</time>
      </trkpt>
      <trkpt lat="49.81485" lon="2.12117">
        <ele>128.1</ele>
        <time>2023-02-22T13:19:19Z</time>
      </trkpt>
      <trkpt lat="49.81485" lon="2.12118">
        <ele>128.1</ele>
        <time>2023-02-22T13:19:20Z</time>
      </trkpt>
      <trkpt lat="49.81486" lon="2.1212">
        <ele>128.1</ele>
        <time>2023-02-22T13:19:21Z</time>
      </trkpt>
      <trkpt lat="49.81486" lon="2.12122">
        <ele>128.1</ele>
        <time>2023-02-22T13:19:22Z</time>
      </trkpt>
      <trkpt lat="49.81486" lon="2.12124">
        <ele>128.1</ele>
        <time>2023-02-22T13:19:23Z</time>
      </trkpt>
      <trkpt lat="49.81486" lon="2.12126">
        <ele>128.1</ele>
        <time>2023-02-22T13:19:24Z</time>
      </trkpt>
      <trkpt lat="49.81486" lon="2.12129">
        <ele>128.1</ele>
        <time>2023-02-22T13:19:26Z</time>
      </trkpt>
      <trkpt lat="49.81485" lon="2.1213">
        <ele>128.1</ele>
        <time>2023-02-22T13:19:27Z</time>
      </trkpt>
      <trkpt lat="49.81485" lon="2.12132">
        <ele>128.1</ele>
        <time>2023-02-22T13:19:28Z</time>
      </trkpt>
      <trkpt lat="49.81485" lon="2.12134">
        <ele>128.1</ele>
        <time>2023-02-22T13:19:29Z</time>
      </trkpt>
      <trkpt lat="49.81485" lon="2.12136">
        <ele>128.1</ele>
        <time>2023-02-22T13:19:30Z</time>
      </trkpt>
      <trkpt lat="49.81485" lon="2.12138">
        <ele>128.1</ele>
        <time>2023-02-22T13:19:31Z</time>
      </trkpt>
      <trkpt lat="49.81485" lon="2.1214">
        <ele>128.1</ele>
        <time>2023-02-22T13:19:32Z</time>
      </trkpt>
      <trkpt lat="49.81485" lon="2.12142">
        <ele>128.1</ele>
        <time>2023-02-22T13:19:34Z</time>
      </trkpt>
      <trkpt lat="49.81485" lon="2.12144">
        <ele>128.1</ele>
        <time>2023-02-22T13:19:35Z</time>
      </trkpt>
      <trkpt lat="49.81486" lon="2.12146">
        <ele>128</ele>
        <time>2023-02-22T13:19:36Z</time>
      </trkpt>
      <trkpt lat="49.81486" lon="2.12148">
        <ele>128</ele>
        <time>2023-02-22T13:19:37Z</time>
      </trkpt>
      <trkpt lat="49.81486" lon="2.12151">
        <ele>128</ele>
        <time>2023-02-22T13:19:38Z</time>
      </trkpt>
      <trkpt lat="49.81486" lon="2.12153">
        <ele>128</ele>
        <time>2023-02-22T13:19:39Z</time>
      </trkpt>
      <trkpt lat="49.81487" lon="2.12155">
        <ele>128</ele>
        <time>2023-02-22T13:19:40Z</time>
      </trkpt>
      <trkpt lat="49.81487" lon="2.12156">
        <ele>128</ele>
        <time>2023-02-22T13:19:41Z</time>
      </trkpt>
      <trkpt lat="49.81487" lon="2.12157">
        <ele>128</ele>
        <time>2023-02-22T13:19:43Z</time>
      </trkpt>
      <trkpt lat="49.81487" lon="2.12159">
        <ele>128</ele>
        <time>2023-02-22T13:19:44Z</time>
      </trkpt>
      <trkpt lat="49.81487" lon="2.12162">
        <ele>128</ele>
        <time>2023-02-22T13:19:45Z</time>
      </trkpt>
      <trkpt lat="49.81488" lon="2.12164">
        <ele>128</ele>
        <time>2023-02-22T13:19:46Z</time>
      </trkpt>
      <trkpt lat="49.81488" lon="2.12165">
        <ele>128</ele>
        <time>2023-02-22T13:19:47Z</time>
      </trkpt>
      <trkpt lat="49.81488" lon="2.12168">
        <ele>128</ele>
        <time>2023-02-22T13:19:48Z</time>
      </trkpt>
      <trkpt lat="49.81488" lon="2.12169">
        <ele>128</ele>
        <time>2023-02-22T13:19:49Z</time>
      </trkpt>
      <trkpt lat="49.81489" lon="2.1217">
        <ele>128</ele>
        <time>2023-02-22T13:19:50Z</time>
      </trkpt>
      <trkpt lat="49.81489" lon="2.12173">
        <ele>128</ele>
        <time>2023-02-22T13:19:52Z</time>
      </trkpt>
      <trkpt lat="49.8149" lon="2.12174">
        <ele>128</ele>
        <time>2023-02-22T13:19:53Z</time>
      </trkpt>
      <trkpt lat="49.8149" lon="2.12176">
        <ele>128</ele>
        <time>2023-02-22T13:19:54Z</time>
      </trkpt>
      <trkpt lat="49.8149" lon="2.12179">
        <ele>128</ele>
        <time>2023-02-22T13:19:55Z</time>
      </trkpt>
      <trkpt lat="49.81491" lon="2.1218">
        <ele>128</ele>
        <time>2023-02-22T13:19:56Z</time>
      </trkpt>
      <trkpt lat="49.81491" lon="2.12181">
        <ele>128</ele>
        <time>2023-02-22T13:19:57Z</time>
      </trkpt>
      <trkpt lat="49.81491" lon="2.12185">
        <ele>127.9</ele>
        <time>2023-02-22T13:19:59Z</time>
      </trkpt>
      <trkpt lat="49.81491" lon="2.12186">
        <ele>127.9</ele>
        <time>2023-02-22T13:20:00Z</time>
      </trkpt>
      <trkpt lat="49.81492" lon="2.12187">
        <ele>127.9</ele>
        <time>2023-02-22T13:20:01Z</time>
      </trkpt>
      <trkpt lat="49.81492" lon="2.12189">
        <ele>127.9</ele>
        <time>2023-02-22T13:20:02Z</time>
      </trkpt>
      <trkpt lat="49.81492" lon="2.12191">
        <ele>127.9</ele>
        <time>2023-02-22T13:20:03Z</time>
      </trkpt>
      <trkpt lat="49.81493" lon="2.12193">
        <ele>127.9</ele>
        <time>2023-02-22T13:20:04Z</time>
      </trkpt>
      <trkpt lat="49.81493" lon="2.12194">
        <ele>127.9</ele>
        <time>2023-02-22T13:20:05Z</time>
      </trkpt>
      <trkpt lat="49.81493" lon="2.12196">
        <ele>127.9</ele>
        <time>2023-02-22T13:20:06Z</time>
      </trkpt>
      <trkpt lat="49.81494" lon="2.12198">
        <ele>127.9</ele>
        <time>2023-02-22T13:20:07Z</time>
      </trkpt>
      <trkpt lat="49.81495" lon="2.12201">
        <ele>127.8</ele>
        <time>2023-02-22T13:20:08Z</time>
      </trkpt>
      <trkpt lat="49.81495" lon="2.12202">
        <ele>127.8</ele>
        <time>2023-02-22T13:20:10Z</time>
      </trkpt>
      <trkpt lat="49.81496" lon="2.12204">
        <ele>127.8</ele>
        <time>2023-02-22T13:20:11Z</time>
      </trkpt>
      <trkpt lat="49.81497" lon="2.12206">
        <ele>127.8</ele>
        <time>2023-02-22T13:20:12Z</time>
      </trkpt>
      <trkpt lat="49.81497" lon="2.12208">
        <ele>127.8</ele>
        <time>2023-02-22T13:20:13Z</time>
      </trkpt>
      <trkpt lat="49.81498" lon="2.1221">
        <ele>127.8</ele>
        <time>2023-02-22T13:20:14Z</time>
      </trkpt>
      <trkpt lat="49.81499" lon="2.12212">
        <ele>127.8</ele>
        <time>2023-02-22T13:20:15Z</time>
      </trkpt>
      <trkpt lat="49.815" lon="2.12213">
        <ele>127.8</ele>
        <time>2023-02-22T13:20:16Z</time>
      </trkpt>
      <trkpt lat="49.815" lon="2.12215">
        <ele>127.8</ele>
        <time>2023-02-22T13:20:17Z</time>
      </trkpt>
      <trkpt lat="49.81501" lon="2.12217">
        <ele>127.8</ele>
        <time>2023-02-22T13:20:18Z</time>
      </trkpt>
      <trkpt lat="49.81502" lon="2.12218">
        <ele>127.8</ele>
        <time>2023-02-22T13:20:19Z</time>
      </trkpt>
      <trkpt lat="49.81503" lon="2.12221">
        <ele>127.8</ele>
        <time>2023-02-22T13:20:21Z</time>
      </trkpt>
      <trkpt lat="49.81503" lon="2.12222">
        <ele>127.8</ele>
        <time>2023-02-22T13:20:22Z</time>
      </trkpt>
      <trkpt lat="49.81504" lon="2.12223">
        <ele>127.8</ele>
        <time>2023-02-22T13:20:23Z</time>
      </trkpt>
      <trkpt lat="49.81505" lon="2.12226">
        <ele>127.8</ele>
        <time>2023-02-22T13:20:24Z</time>
      </trkpt>
      <trkpt lat="49.81505" lon="2.12227">
        <ele>127.8</ele>
        <time>2023-02-22T13:20:25Z</time>
      </trkpt>
      <trkpt lat="49.81506" lon="2.12228">
        <ele>127.8</ele>
        <time>2023-02-22T13:20:26Z</time>
      </trkpt>
      <trkpt lat="49.81506" lon="2.12229">
        <ele>127.7</ele>
        <time>2023-02-22T13:20:27Z</time>
      </trkpt>
      <trkpt lat="49.81507" lon="2.12231">
        <ele>127.7</ele>
        <time>2023-02-22T13:20:28Z</time>
      </trkpt>
      <trkpt lat="49.81509" lon="2.12234">
        <ele>127.7</ele>
        <time>2023-02-22T13:20:30Z</time>
      </trkpt>
      <trkpt lat="49.81509" lon="2.12235">
        <ele>127.7</ele>
        <time>2023-02-22T13:20:31Z</time>
      </trkpt>
      <trkpt lat="49.8151" lon="2.12236">
        <ele>127.7</ele>
        <time>2023-02-22T13:20:32Z</time>
      </trkpt>
      <trkpt lat="49.81511" lon="2.12239">
        <ele>127.7</ele>
        <time>2023-02-22T13:20:33Z</time>
      </trkpt>
      <trkpt lat="49.81511" lon="2.1224">
        <ele>127.7</ele>
        <time>2023-02-22T13:20:34Z</time>
      </trkpt>
      <trkpt lat="49.81512" lon="2.12241">
        <ele>127.7</ele>
        <time>2023-02-22T13:20:35Z</time>
      </trkpt>
      <trkpt lat="49.81513" lon="2.12243">
        <ele>127.7</ele>
        <time>2023-02-22T13:20:36Z</time>
      </trkpt>
      <trkpt lat="49.81513" lon="2.12244">
        <ele>127.7</ele>
        <time>2023-02-22T13:20:38Z</time>
      </trkpt>
      <trkpt lat="49.81514" lon="2.12246">
        <ele>127.7</ele>
        <time>2023-02-22T13:20:39Z</time>
      </trkpt>
      <trkpt lat="49.81515" lon="2.12248">
        <ele>127.7</ele>
        <time>2023-02-22T13:20:40Z</time>
      </trkpt>
      <trkpt lat="49.81515" lon="2.12251">
        <ele>127.7</ele>
        <time>2023-02-22T13:20:41Z</time>
      </trkpt>
      <trkpt lat="49.81516" lon="2.12252">
        <ele>127.7</ele>
        <time>2023-02-22T13:20:43Z</time>
      </trkpt>
      <trkpt lat="49.81516" lon="2.12254">
        <ele>127.7</ele>
        <time>2023-02-22T13:20:44Z</time>
      </trkpt>
      <trkpt lat="49.81516" lon="2.12255">
        <ele>127.7</ele>
        <time>2023-02-22T13:20:45Z</time>
      </trkpt>
      <trkpt lat="49.81517" lon="2.12257">
        <ele>127.7</ele>
        <time>2023-02-22T13:20:46Z</time>
      </trkpt>
      <trkpt lat="49.81517" lon="2.12259">
        <ele>127.7</ele>
        <time>2023-02-22T13:20:47Z</time>
      </trkpt>
      <trkpt lat="49.81518" lon="2.1226">
        <ele>127.7</ele>
        <time>2023-02-22T13:20:48Z</time>
      </trkpt>
      <trkpt lat="49.81518" lon="2.12262">
        <ele>127.7</ele>
        <time>2023-02-22T13:20:49Z</time>
      </trkpt>
      <trkpt lat="49.81519" lon="2.12264">
        <ele>127.7</ele>
        <time>2023-02-22T13:20:51Z</time>
      </trkpt>
      <trkpt lat="49.8152" lon="2.12267">
        <ele>127.7</ele>
        <time>2023-02-22T13:20:52Z</time>
      </trkpt>
      <trkpt lat="49.8152" lon="2.12268">
        <ele>127.7</ele>
        <time>2023-02-22T13:20:53Z</time>
      </trkpt>
      <trkpt lat="49.81521" lon="2.12269">
        <ele>127.7</ele>
        <time>2023-02-22T13:20:54Z</time>
      </trkpt>
      <trkpt lat="49.81522" lon="2.12272">
        <ele>127.6</ele>
        <time>2023-02-22T13:20:55Z</time>
      </trkpt>
      <trkpt lat="49.81522" lon="2.12273">
        <ele>127.6</ele>
        <time>2023-02-22T13:20:56Z</time>
      </trkpt>
      <trkpt lat="49.81522" lon="2.12275">
        <ele>127.6</ele>
        <time>2023-02-22T13:20:57Z</time>
      </trkpt>
      <trkpt lat="49.81523" lon="2.12277">
        <ele>127.6</ele>
        <time>2023-02-22T13:20:58Z</time>
      </trkpt>
      <trkpt lat="49.81523" lon="2.12279">
        <ele>127.6</ele>
        <time>2023-02-22T13:20:59Z</time>
      </trkpt>
      <trkpt lat="49.81523" lon="2.12281">
        <ele>127.6</ele>
        <time>2023-02-22T13:21:00Z</time>
      </trkpt>
      <trkpt lat="49.81524" lon="2.12282">
        <ele>127.6</ele>
        <time>2023-02-22T13:21:01Z</time>
      </trkpt>
      <trkpt lat="49.81524" lon="2.12284">
        <ele>127.6</ele>
        <time>2023-02-22T13:21:03Z</time>
      </trkpt>
      <trkpt lat="49.81525" lon="2.12285">
        <ele>127.6</ele>
        <time>2023-02-22T13:21:04Z</time>
      </trkpt>
      <trkpt lat="49.81525" lon="2.12287">
        <ele>127.6</ele>
        <time>2023-02-22T13:21:05Z</time>
      </trkpt>
      <trkpt lat="49.81526" lon="2.12288">
        <ele>127.6</ele>
        <time>2023-02-22T13:21:06Z</time>
      </trkpt>
      <trkpt lat="49.81526" lon="2.1229">
        <ele>127.6</ele>
        <time>2023-02-22T13:21:07Z</time>
      </trkpt>
      <trkpt lat="49.81527" lon="2.12292">
        <ele>127.6</ele>
        <time>2023-02-22T13:21:08Z</time>
      </trkpt>
      <trkpt lat="49.81527" lon="2.12294">
        <ele>127.6</ele>
        <time>2023-02-22T13:21:10Z</time>
      </trkpt>
      <trkpt lat="49.81528" lon="2.12296">
        <ele>127.6</ele>
        <time>2023-02-22T13:21:11Z</time>
      </trkpt>
      <trkpt lat="49.81529" lon="2.12298">
        <ele>127.6</ele>
        <time>2023-02-22T13:21:12Z</time>
      </trkpt>
      <trkpt lat="49.81529" lon="2.123">
        <ele>127.6</ele>
        <time>2023-02-22T13:21:13Z</time>
      </trkpt>
      <trkpt lat="49.8153" lon="2.12302">
        <ele>127.6</ele>
        <time>2023-02-22T13:21:14Z</time>
      </trkpt>
      <trkpt lat="49.8153" lon="2.12303">
        <ele>127.6</ele>
        <time>2023-02-22T13:21:15Z</time>
      </trkpt>
      <trkpt lat="49.81531" lon="2.12305">
        <ele>127.6</ele>
        <time>2023-02-22T13:21:16Z</time>
      </trkpt>
      <trkpt lat="49.81531" lon="2.12307">
        <ele>127.6</ele>
        <time>2023-02-22T13:21:17Z</time>
      </trkpt>
      <trkpt lat="49.81531" lon="2.12308">
        <ele>127.6</ele>
        <time>2023-02-22T13:21:18Z</time>
      </trkpt>
      <trkpt lat="49.81532" lon="2.12311">
        <ele>127.7</ele>
        <time>2023-02-22T13:21:19Z</time>
      </trkpt>
      <trkpt lat="49.81532" lon="2.12313">
        <ele>127.7</ele>
        <time>2023-02-22T13:21:21Z</time>
      </trkpt>
      <trkpt lat="49.81533" lon="2.12314">
        <ele>127.7</ele>
        <time>2023-02-22T13:21:22Z</time>
      </trkpt>
      <trkpt lat="49.81533" lon="2.12316">
        <ele>127.7</ele>
        <time>2023-02-22T13:21:23Z</time>
      </trkpt>
      <trkpt lat="49.81534" lon="2.12318">
        <ele>127.7</ele>
        <time>2023-02-22T13:21:24Z</time>
      </trkpt>
      <trkpt lat="49.81535" lon="2.1232">
        <ele>127.7</ele>
        <time>2023-02-22T13:21:25Z</time>
      </trkpt>
      <trkpt lat="49.81535" lon="2.12321">
        <ele>127.7</ele>
        <time>2023-02-22T13:21:26Z</time>
      </trkpt>
      <trkpt lat="49.81536" lon="2.12323">
        <ele>127.7</ele>
        <time>2023-02-22T13:21:27Z</time>
      </trkpt>
      <trkpt lat="49.81536" lon="2.12325">
        <ele>127.7</ele>
        <time>2023-02-22T13:21:28Z</time>
      </trkpt>
      <trkpt lat="49.81538" lon="2.12327">
        <ele>127.7</ele>
        <time>2023-02-22T13:21:30Z</time>
      </trkpt>
      <trkpt lat="49.81538" lon="2.12328">
        <ele>127.7</ele>
        <time>2023-02-22T13:21:31Z</time>
      </trkpt>
      <trkpt lat="49.81539" lon="2.12329">
        <ele>127.7</ele>
        <time>2023-02-22T13:21:32Z</time>
      </trkpt>
      <trkpt lat="49.8154" lon="2.12331">
        <ele>127.7</ele>
        <time>2023-02-22T13:21:33Z</time>
      </trkpt>
      <trkpt lat="49.81541" lon="2.12333">
        <ele>127.7</ele>
        <time>2023-02-22T13:21:34Z</time>
      </trkpt>
      <trkpt lat="49.81541" lon="2.12334">
        <ele>127.7</ele>
        <time>2023-02-22T13:21:35Z</time>
      </trkpt>
      <trkpt lat="49.81542" lon="2.12336">
        <ele>127.8</ele>
        <time>2023-02-22T13:21:36Z</time>
      </trkpt>
      <trkpt lat="49.81543" lon="2.12337">
        <ele>127.8</ele>
        <time>2023-02-22T13:21:37Z</time>
      </trkpt>
      <trkpt lat="49.81543" lon="2.12339">
        <ele>127.8</ele>
        <time>2023-02-22T13:21:38Z</time>
      </trkpt>
      <trkpt lat="49.81544" lon="2.12341">
        <ele>127.8</ele>
        <time>2023-02-22T13:21:39Z</time>
      </trkpt>
      <trkpt lat="49.81545" lon="2.12344">
        <ele>127.8</ele>
        <time>2023-02-22T13:21:40Z</time>
      </trkpt>
      <trkpt lat="49.81546" lon="2.12345">
        <ele>127.8</ele>
        <time>2023-02-22T13:21:42Z</time>
      </trkpt>
      <trkpt lat="49.81547" lon="2.12346">
        <ele>127.8</ele>
        <time>2023-02-22T13:21:43Z</time>
      </trkpt>
      <trkpt lat="49.81548" lon="2.12348">
        <ele>127.8</ele>
        <time>2023-02-22T13:21:44Z</time>
      </trkpt>
      <trkpt lat="49.81549" lon="2.1235">
        <ele>127.8</ele>
        <time>2023-02-22T13:21:45Z</time>
      </trkpt>
      <trkpt lat="49.81549" lon="2.12351">
        <ele>127.8</ele>
        <time>2023-02-22T13:21:46Z</time>
      </trkpt>
      <trkpt lat="49.8155" lon="2.12352">
        <ele>127.8</ele>
        <time>2023-02-22T13:21:48Z</time>
      </trkpt>
      <trkpt lat="49.81551" lon="2.12354">
        <ele>127.8</ele>
        <time>2023-02-22T13:21:49Z</time>
      </trkpt>
      <trkpt lat="49.81552" lon="2.12356">
        <ele>127.8</ele>
        <time>2023-02-22T13:21:50Z</time>
      </trkpt>
      <trkpt lat="49.81553" lon="2.12357">
        <ele>127.8</ele>
        <time>2023-02-22T13:21:51Z</time>
      </trkpt>
      <trkpt lat="49.81554" lon="2.12358">
        <ele>127.8</ele>
        <time>2023-02-22T13:21:52Z</time>
      </trkpt>
      <trkpt lat="49.81555" lon="2.1236">
        <ele>127.8</ele>
        <time>2023-02-22T13:21:53Z</time>
      </trkpt>
      <trkpt lat="49.81556" lon="2.12362">
        <ele>127.8</ele>
        <time>2023-02-22T13:21:54Z</time>
      </trkpt>
      <trkpt lat="49.81557" lon="2.12363">
        <ele>127.8</ele>
        <time>2023-02-22T13:21:55Z</time>
      </trkpt>
      <trkpt lat="49.81557" lon="2.12364">
        <ele>127.8</ele>
        <time>2023-02-22T13:21:57Z</time>
      </trkpt>
      <trkpt lat="49.81558" lon="2.12366">
        <ele>127.8</ele>
        <time>2023-02-22T13:21:58Z</time>
      </trkpt>
      <trkpt lat="49.81559" lon="2.12368">
        <ele>127.8</ele>
        <time>2023-02-22T13:21:59Z</time>
      </trkpt>
      <trkpt lat="49.8156" lon="2.1237">
        <ele>127.8</ele>
        <time>2023-02-22T13:22:00Z</time>
      </trkpt>
      <trkpt lat="49.81561" lon="2.12371">
        <ele>127.8</ele>
        <time>2023-02-22T13:22:01Z</time>
      </trkpt>
      <trkpt lat="49.81562" lon="2.12373">
        <ele>127.8</ele>
        <time>2023-02-22T13:22:02Z</time>
      </trkpt>
      <trkpt lat="49.81564" lon="2.12377">
        <ele>127.8</ele>
        <time>2023-02-22T13:22:04Z</time>
      </trkpt>
      <trkpt lat="49.81564" lon="2.12378">
        <ele>127.8</ele>
        <time>2023-02-22T13:22:05Z</time>
      </trkpt>
      <trkpt lat="49.81565" lon="2.12379">
        <ele>127.8</ele>
        <time>2023-02-22T13:22:06Z</time>
      </trkpt>
      <trkpt lat="49.81566" lon="2.1238">
        <ele>127.8</ele>
        <time>2023-02-22T13:22:07Z</time>
      </trkpt>
      <trkpt lat="49.81567" lon="2.12381">
        <ele>127.8</ele>
        <time>2023-02-22T13:22:09Z</time>
      </trkpt>
      <trkpt lat="49.81567" lon="2.12383">
        <ele>127.8</ele>
        <time>2023-02-22T13:22:10Z</time>
      </trkpt>
      <trkpt lat="49.81568" lon="2.12384">
        <ele>127.8</ele>
        <time>2023-02-22T13:22:11Z</time>
      </trkpt>
      <trkpt lat="49.81569" lon="2.12385">
        <ele>127.8</ele>
        <time>2023-02-22T13:22:12Z</time>
      </trkpt>
      <trkpt lat="49.8157" lon="2.12387">
        <ele>127.8</ele>
        <time>2023-02-22T13:22:13Z</time>
      </trkpt>
      <trkpt lat="49.81572" lon="2.12391">
        <ele>127.8</ele>
        <time>2023-02-22T13:22:14Z</time>
      </trkpt>
      <trkpt lat="49.81572" lon="2.12392">
        <ele>127.8</ele>
        <time>2023-02-22T13:22:16Z</time>
      </trkpt>
      <trkpt lat="49.81573" lon="2.12394">
        <ele>127.8</ele>
        <time>2023-02-22T13:22:17Z</time>
      </trkpt>
      <trkpt lat="49.81573" lon="2.12395">
        <ele>127.8</ele>
        <time>2023-02-22T13:22:18Z</time>
      </trkpt>
      <trkpt lat="49.81574" lon="2.12397">
        <ele>127.8</ele>
        <time>2023-02-22T13:22:19Z</time>
      </trkpt>
      <trkpt lat="49.81574" lon="2.12398">
        <ele>127.8</ele>
        <time>2023-02-22T13:22:20Z</time>
      </trkpt>
      <trkpt lat="49.81574" lon="2.124">
        <ele>127.8</ele>
        <time>2023-02-22T13:22:21Z</time>
      </trkpt>
      <trkpt lat="49.81575" lon="2.12401">
        <ele>127.8</ele>
        <time>2023-02-22T13:22:22Z</time>
      </trkpt>
      <trkpt lat="49.81575" lon="2.12403">
        <ele>127.8</ele>
        <time>2023-02-22T13:22:23Z</time>
      </trkpt>
      <trkpt lat="49.81576" lon="2.12405">
        <ele>127.8</ele>
        <time>2023-02-22T13:22:24Z</time>
      </trkpt>
      <trkpt lat="49.81577" lon="2.12406">
        <ele>127.8</ele>
        <time>2023-02-22T13:22:25Z</time>
      </trkpt>
      <trkpt lat="49.81577" lon="2.12408">
        <ele>127.8</ele>
        <time>2023-02-22T13:22:26Z</time>
      </trkpt>
      <trkpt lat="49.81578" lon="2.1241">
        <ele>127.8</ele>
        <time>2023-02-22T13:22:27Z</time>
      </trkpt>
      <trkpt lat="49.81578" lon="2.12413">
        <ele>127.8</ele>
        <time>2023-02-22T13:22:28Z</time>
      </trkpt>
      <trkpt lat="49.81579" lon="2.12414">
        <ele>127.8</ele>
        <time>2023-02-22T13:22:30Z</time>
      </trkpt>
      <trkpt lat="49.81579" lon="2.12416">
        <ele>127.8</ele>
        <time>2023-02-22T13:22:31Z</time>
      </trkpt>
      <trkpt lat="49.81579" lon="2.12417">
        <ele>127.8</ele>
        <time>2023-02-22T13:22:32Z</time>
      </trkpt>
      <trkpt lat="49.8158" lon="2.1242">
        <ele>127.8</ele>
        <time>2023-02-22T13:22:33Z</time>
      </trkpt>
      <trkpt lat="49.8158" lon="2.12422">
        <ele>127.8</ele>
        <time>2023-02-22T13:22:34Z</time>
      </trkpt>
      <trkpt lat="49.81581" lon="2.12424">
        <ele>127.8</ele>
        <time>2023-02-22T13:22:35Z</time>
      </trkpt>
      <trkpt lat="49.81581" lon="2.12426">
        <ele>127.8</ele>
        <time>2023-02-22T13:22:37Z</time>
      </trkpt>
      <trkpt lat="49.81581" lon="2.12429">
        <ele>127.8</ele>
        <time>2023-02-22T13:22:38Z</time>
      </trkpt>
      <trkpt lat="49.81582" lon="2.1243">
        <ele>127.8</ele>
        <time>2023-02-22T13:22:39Z</time>
      </trkpt>
      <trkpt lat="49.81582" lon="2.12431">
        <ele>127.8</ele>
        <time>2023-02-22T13:22:40Z</time>
      </trkpt>
      <trkpt lat="49.81583" lon="2.12434">
        <ele>127.8</ele>
        <time>2023-02-22T13:22:41Z</time>
      </trkpt>
      <trkpt lat="49.81583" lon="2.12436">
        <ele>127.8</ele>
        <time>2023-02-22T13:22:42Z</time>
      </trkpt>
      <trkpt lat="49.81583" lon="2.12437">
        <ele>127.8</ele>
        <time>2023-02-22T13:22:43Z</time>
      </trkpt>
      <trkpt lat="49.81584" lon="2.1244">
        <ele>127.8</ele>
        <time>2023-02-22T13:22:44Z</time>
      </trkpt>
      <trkpt lat="49.81584" lon="2.12441">
        <ele>127.8</ele>
        <time>2023-02-22T13:22:45Z</time>
      </trkpt>
      <trkpt lat="49.81584" lon="2.12444">
        <ele>127.8</ele>
        <time>2023-02-22T13:22:46Z</time>
      </trkpt>
      <trkpt lat="49.81584" lon="2.12446">
        <ele>127.8</ele>
        <time>2023-02-22T13:22:47Z</time>
      </trkpt>
      <trkpt lat="49.81584" lon="2.12447">
        <ele>127.8</ele>
        <time>2023-02-22T13:22:48Z</time>
      </trkpt>
      <trkpt lat="49.81585" lon="2.1245">
        <ele>127.8</ele>
        <time>2023-02-22T13:22:49Z</time>
      </trkpt>
      <trkpt lat="49.81585" lon="2.12451">
        <ele>127.8</ele>
        <time>2023-02-22T13:22:51Z</time>
      </trkpt>
      <trkpt lat="49.81585" lon="2.12452">
        <ele>127.8</ele>
        <time>2023-02-22T13:22:52Z</time>
      </trkpt>
      <trkpt lat="49.81586" lon="2.12454">
        <ele>127.8</ele>
        <time>2023-02-22T13:22:53Z</time>
      </trkpt>
      <trkpt lat="49.81586" lon="2.12456">
        <ele>127.8</ele>
        <time>2023-02-22T13:22:54Z</time>
      </trkpt>
      <trkpt lat="49.81587" lon="2.12459">
        <ele>127.8</ele>
        <time>2023-02-22T13:22:55Z</time>
      </trkpt>
      <trkpt lat="49.81587" lon="2.12461">
        <ele>127.8</ele>
        <time>2023-02-22T13:22:56Z</time>
      </trkpt>
      <trkpt lat="49.81588" lon="2.12463">
        <ele>127.8</ele>
        <time>2023-02-22T13:22:57Z</time>
      </trkpt>
      <trkpt lat="49.81588" lon="2.12465">
        <ele>127.8</ele>
        <time>2023-02-22T13:22:58Z</time>
      </trkpt>
      <trkpt lat="49.81588" lon="2.12469">
        <ele>127.8</ele>
        <time>2023-02-22T13:22:59Z</time>
      </trkpt>
      <trkpt lat="49.81588" lon="2.1247">
        <ele>127.8</ele>
        <time>2023-02-22T13:23:00Z</time>
      </trkpt>
      <trkpt lat="49.81589" lon="2.12471">
        <ele>127.8</ele>
        <time>2023-02-22T13:23:01Z</time>
      </trkpt>
      <trkpt lat="49.81589" lon="2.12473">
        <ele>127.8</ele>
        <time>2023-02-22T13:23:03Z</time>
      </trkpt>
      <trkpt lat="49.81589" lon="2.12475">
        <ele>127.8</ele>
        <time>2023-02-22T13:23:04Z</time>
      </trkpt>
      <trkpt lat="49.81589" lon="2.12477">
        <ele>127.8</ele>
        <time>2023-02-22T13:23:05Z</time>
      </trkpt>
      <trkpt lat="49.8159" lon="2.12479">
        <ele>127.8</ele>
        <time>2023-02-22T13:23:06Z</time>
      </trkpt>
      <trkpt lat="49.8159" lon="2.12483">
        <ele>127.8</ele>
        <time>2023-02-22T13:23:07Z</time>
      </trkpt>
      <trkpt lat="49.81591" lon="2.12484">
        <ele>127.8</ele>
        <time>2023-02-22T13:23:08Z</time>
      </trkpt>
      <trkpt lat="49.81591" lon="2.12486">
        <ele>127.8</ele>
        <time>2023-02-22T13:23:09Z</time>
      </trkpt>
      <trkpt lat="49.81591" lon="2.12487">
        <ele>127.8</ele>
        <time>2023-02-22T13:23:10Z</time>
      </trkpt>
      <trkpt lat="49.81592" lon="2.12489">
        <ele>127.8</ele>
        <time>2023-02-22T13:23:12Z</time>
      </trkpt>
      <trkpt lat="49.81592" lon="2.12491">
        <ele>127.8</ele>
        <time>2023-02-22T13:23:13Z</time>
      </trkpt>
      <trkpt lat="49.81592" lon="2.12492">
        <ele>127.8</ele>
        <time>2023-02-22T13:23:14Z</time>
      </trkpt>
      <trkpt lat="49.81593" lon="2.12495">
        <ele>127.8</ele>
        <time>2023-02-22T13:23:15Z</time>
      </trkpt>
      <trkpt lat="49.81593" lon="2.12499">
        <ele>127.8</ele>
        <time>2023-02-22T13:23:17Z</time>
      </trkpt>
      <trkpt lat="49.81593" lon="2.125">
        <ele>127.8</ele>
        <time>2023-02-22T13:23:18Z</time>
      </trkpt>
      <trkpt lat="49.81593" lon="2.12501">
        <ele>127.8</ele>
        <time>2023-02-22T13:23:19Z</time>
      </trkpt>
      <trkpt lat="49.81594" lon="2.12505">
        <ele>127.7</ele>
        <time>2023-02-22T13:23:20Z</time>
      </trkpt>
      <trkpt lat="49.81594" lon="2.12506">
        <ele>127.7</ele>
        <time>2023-02-22T13:23:21Z</time>
      </trkpt>
      <trkpt lat="49.81594" lon="2.12507">
        <ele>127.7</ele>
        <time>2023-02-22T13:23:22Z</time>
      </trkpt>
      <trkpt lat="49.81595" lon="2.12508">
        <ele>127.7</ele>
        <time>2023-02-22T13:23:23Z</time>
      </trkpt>
      <trkpt lat="49.81595" lon="2.12511">
        <ele>127.7</ele>
        <time>2023-02-22T13:23:24Z</time>
      </trkpt>
      <trkpt lat="49.81595" lon="2.12512">
        <ele>127.7</ele>
        <time>2023-02-22T13:23:25Z</time>
      </trkpt>
      <trkpt lat="49.81595" lon="2.12514">
        <ele>127.7</ele>
        <time>2023-02-22T13:23:26Z</time>
      </trkpt>
      <trkpt lat="49.81595" lon="2.12516">
        <ele>127.7</ele>
        <time>2023-02-22T13:23:27Z</time>
      </trkpt>
      <trkpt lat="49.81595" lon="2.12517">
        <ele>127.6</ele>
        <time>2023-02-22T13:23:28Z</time>
      </trkpt>
      <trkpt lat="49.81595" lon="2.12521">
        <ele>127.6</ele>
        <time>2023-02-22T13:23:30Z</time>
      </trkpt>
      <trkpt lat="49.81595" lon="2.12522">
        <ele>127.6</ele>
        <time>2023-02-22T13:23:31Z</time>
      </trkpt>
      <trkpt lat="49.81595" lon="2.12523">
        <ele>127.6</ele>
        <time>2023-02-22T13:23:32Z</time>
      </trkpt>
      <trkpt lat="49.81596" lon="2.12527">
        <ele>127.6</ele>
        <time>2023-02-22T13:23:33Z</time>
      </trkpt>
      <trkpt lat="49.81596" lon="2.12529">
        <ele>127.5</ele>
        <time>2023-02-22T13:23:34Z</time>
      </trkpt>
      <trkpt lat="49.81596" lon="2.1253">
        <ele>127.5</ele>
        <time>2023-02-22T13:23:35Z</time>
      </trkpt>
      <trkpt lat="49.81596" lon="2.12533">
        <ele>127.5</ele>
        <time>2023-02-22T13:23:36Z</time>
      </trkpt>
      <trkpt lat="49.81596" lon="2.12534">
        <ele>127.5</ele>
        <time>2023-02-22T13:23:38Z</time>
      </trkpt>
      <trkpt lat="49.81596" lon="2.12536">
        <ele>127.5</ele>
        <time>2023-02-22T13:23:39Z</time>
      </trkpt>
      <trkpt lat="49.81596" lon="2.12538">
        <ele>127.5</ele>
        <time>2023-02-22T13:23:40Z</time>
      </trkpt>
      <trkpt lat="49.81596" lon="2.1254">
        <ele>127.5</ele>
        <time>2023-02-22T13:23:41Z</time>
      </trkpt>
      <trkpt lat="49.81596" lon="2.12545">
        <ele>127.5</ele>
        <time>2023-02-22T13:23:42Z</time>
      </trkpt>
      <trkpt lat="49.81597" lon="2.12546">
        <ele>127.5</ele>
        <time>2023-02-22T13:23:44Z</time>
      </trkpt>
      <trkpt lat="49.81597" lon="2.12548">
        <ele>127.5</ele>
        <time>2023-02-22T13:23:45Z</time>
      </trkpt>
      <trkpt lat="49.81597" lon="2.1255">
        <ele>127.5</ele>
        <time>2023-02-22T13:23:46Z</time>
      </trkpt>
      <trkpt lat="49.81598" lon="2.12551">
        <ele>127.5</ele>
        <time>2023-02-22T13:23:47Z</time>
      </trkpt>
      <trkpt lat="49.81598" lon="2.12553">
        <ele>127.5</ele>
        <time>2023-02-22T13:23:48Z</time>
      </trkpt>
      <trkpt lat="49.81599" lon="2.12556">
        <ele>127.5</ele>
        <time>2023-02-22T13:23:49Z</time>
      </trkpt>
      <trkpt lat="49.81599" lon="2.12557">
        <ele>127.5</ele>
        <time>2023-02-22T13:23:51Z</time>
      </trkpt>
      <trkpt lat="49.816" lon="2.12559">
        <ele>127.5</ele>
        <time>2023-02-22T13:23:52Z</time>
      </trkpt>
      <trkpt lat="49.816" lon="2.1256">
        <ele>127.5</ele>
        <time>2023-02-22T13:23:53Z</time>
      </trkpt>
      <trkpt lat="49.81601" lon="2.12563">
        <ele>127.5</ele>
        <time>2023-02-22T13:23:54Z</time>
      </trkpt>
      <trkpt lat="49.81602" lon="2.12564">
        <ele>127.5</ele>
        <time>2023-02-22T13:23:55Z</time>
      </trkpt>
      <trkpt lat="49.81602" lon="2.12565">
        <ele>127.5</ele>
        <time>2023-02-22T13:23:56Z</time>
      </trkpt>
      <trkpt lat="49.81603" lon="2.12566">
        <ele>127.6</ele>
        <time>2023-02-22T13:23:57Z</time>
      </trkpt>
      <trkpt lat="49.81603" lon="2.12568">
        <ele>127.6</ele>
        <time>2023-02-22T13:23:58Z</time>
      </trkpt>
      <trkpt lat="49.81604" lon="2.12569">
        <ele>127.6</ele>
        <time>2023-02-22T13:23:59Z</time>
      </trkpt>
      <trkpt lat="49.81605" lon="2.12571">
        <ele>127.6</ele>
        <time>2023-02-22T13:24:00Z</time>
      </trkpt>
      <trkpt lat="49.81605" lon="2.12572">
        <ele>127.5</ele>
        <time>2023-02-22T13:24:01Z</time>
      </trkpt>
      <trkpt lat="49.81606" lon="2.12574">
        <ele>127.5</ele>
        <time>2023-02-22T13:24:03Z</time>
      </trkpt>
      <trkpt lat="49.81607" lon="2.12576">
        <ele>127.5</ele>
        <time>2023-02-22T13:24:04Z</time>
      </trkpt>
      <trkpt lat="49.81607" lon="2.12578">
        <ele>127.5</ele>
        <time>2023-02-22T13:24:05Z</time>
      </trkpt>
      <trkpt lat="49.81608" lon="2.12581">
        <ele>127.5</ele>
        <time>2023-02-22T13:24:06Z</time>
      </trkpt>
      <trkpt lat="49.81609" lon="2.12582">
        <ele>127.5</ele>
        <time>2023-02-22T13:24:07Z</time>
      </trkpt>
      <trkpt lat="49.81609" lon="2.12584">
        <ele>127.5</ele>
        <time>2023-02-22T13:24:08Z</time>
      </trkpt>
      <trkpt lat="49.8161" lon="2.12586">
        <ele>127.5</ele>
        <time>2023-02-22T13:24:10Z</time>
      </trkpt>
      <trkpt lat="49.81611" lon="2.12588">
        <ele>127.5</ele>
        <time>2023-02-22T13:24:11Z</time>
      </trkpt>
      <trkpt lat="49.81611" lon="2.12589">
        <ele>127.5</ele>
        <time>2023-02-22T13:24:12Z</time>
      </trkpt>
      <trkpt lat="49.81612" lon="2.12592">
        <ele>127.5</ele>
        <time>2023-02-22T13:24:13Z</time>
      </trkpt>
      <trkpt lat="49.81613" lon="2.12594">
        <ele>127.5</ele>
        <time>2023-02-22T13:24:14Z</time>
      </trkpt>
      <trkpt lat="49.81613" lon="2.12596">
        <ele>127.5</ele>
        <time>2023-02-22T13:24:16Z</time>
      </trkpt>
      <trkpt lat="49.81614" lon="2.12597">
        <ele>127.5</ele>
        <time>2023-02-22T13:24:17Z</time>
      </trkpt>
      <trkpt lat="49.81614" lon="2.126">
        <ele>127.5</ele>
        <time>2023-02-22T13:24:18Z</time>
      </trkpt>
      <trkpt lat="49.81615" lon="2.12602">
        <ele>127.5</ele>
        <time>2023-02-22T13:24:19Z</time>
      </trkpt>
      <trkpt lat="49.81615" lon="2.12603">
        <ele>127.5</ele>
        <time>2023-02-22T13:24:20Z</time>
      </trkpt>
      <trkpt lat="49.81615" lon="2.12607">
        <ele>127.5</ele>
        <time>2023-02-22T13:24:22Z</time>
      </trkpt>
      <trkpt lat="49.81616" lon="2.12608">
        <ele>127.5</ele>
        <time>2023-02-22T13:24:23Z</time>
      </trkpt>
      <trkpt lat="49.81616" lon="2.12609">
        <ele>127.5</ele>
        <time>2023-02-22T13:24:24Z</time>
      </trkpt>
      <trkpt lat="49.81616" lon="2.12612">
        <ele>127.5</ele>
        <time>2023-02-22T13:24:25Z</time>
      </trkpt>
      <trkpt lat="49.81616" lon="2.12613">
        <ele>127.5</ele>
        <time>2023-02-22T13:24:26Z</time>
      </trkpt>
      <trkpt lat="49.81616" lon="2.12615">
        <ele>127.5</ele>
        <time>2023-02-22T13:24:27Z</time>
      </trkpt>
      <trkpt lat="49.81617" lon="2.12617">
        <ele>127.5</ele>
        <time>2023-02-22T13:24:28Z</time>
      </trkpt>
      <trkpt lat="49.81617" lon="2.12619">
        <ele>127.5</ele>
        <time>2023-02-22T13:24:30Z</time>
      </trkpt>
      <trkpt lat="49.81617" lon="2.12621">
        <ele>127.5</ele>
        <time>2023-02-22T13:24:31Z</time>
      </trkpt>
      <trkpt lat="49.81617" lon="2.12622">
        <ele>127.5</ele>
        <time>2023-02-22T13:24:32Z</time>
      </trkpt>
      <trkpt lat="49.81617" lon="2.12624">
        <ele>127.5</ele>
        <time>2023-02-22T13:24:33Z</time>
      </trkpt>
      <trkpt lat="49.81618" lon="2.12626">
        <ele>127.5</ele>
        <time>2023-02-22T13:24:34Z</time>
      </trkpt>
      <trkpt lat="49.81618" lon="2.12629">
        <ele>127.5</ele>
        <time>2023-02-22T13:24:35Z</time>
      </trkpt>
      <trkpt lat="49.81618" lon="2.12632">
        <ele>127.5</ele>
        <time>2023-02-22T13:24:37Z</time>
      </trkpt>
      <trkpt lat="49.81619" lon="2.12634">
        <ele>127.5</ele>
        <time>2023-02-22T13:24:38Z</time>
      </trkpt>
      <trkpt lat="49.81619" lon="2.12635">
        <ele>127.5</ele>
        <time>2023-02-22T13:24:39Z</time>
      </trkpt>
      <trkpt lat="49.81619" lon="2.12638">
        <ele>127.5</ele>
        <time>2023-02-22T13:24:40Z</time>
      </trkpt>
      <trkpt lat="49.81619" lon="2.1264">
        <ele>127.5</ele>
        <time>2023-02-22T13:24:41Z</time>
      </trkpt>
      <trkpt lat="49.8162" lon="2.12641">
        <ele>127.5</ele>
        <time>2023-02-22T13:24:42Z</time>
      </trkpt>
      <trkpt lat="49.8162" lon="2.12643">
        <ele>127.5</ele>
        <time>2023-02-22T13:24:43Z</time>
      </trkpt>
      <trkpt lat="49.81621" lon="2.12646">
        <ele>127.5</ele>
        <time>2023-02-22T13:24:45Z</time>
      </trkpt>
      <trkpt lat="49.81621" lon="2.12648">
        <ele>127.5</ele>
        <time>2023-02-22T13:24:46Z</time>
      </trkpt>
      <trkpt lat="49.81621" lon="2.1265">
        <ele>127.5</ele>
        <time>2023-02-22T13:24:48Z</time>
      </trkpt>
      <trkpt lat="49.81621" lon="2.12652">
        <ele>127.5</ele>
        <time>2023-02-22T13:24:49Z</time>
      </trkpt>
      <trkpt lat="49.81622" lon="2.12654">
        <ele>127.5</ele>
        <time>2023-02-22T13:24:50Z</time>
      </trkpt>
      <trkpt lat="49.81622" lon="2.12656">
        <ele>127.5</ele>
        <time>2023-02-22T13:24:51Z</time>
      </trkpt>
      <trkpt lat="49.81623" lon="2.12658">
        <ele>127.5</ele>
        <time>2023-02-22T13:24:52Z</time>
      </trkpt>
      <trkpt lat="49.81623" lon="2.1266">
        <ele>127.5</ele>
        <time>2023-02-22T13:24:53Z</time>
      </trkpt>
      <trkpt lat="49.81624" lon="2.12662">
        <ele>127.5</ele>
        <time>2023-02-22T13:24:55Z</time>
      </trkpt>
      <trkpt lat="49.81625" lon="2.12665">
        <ele>127.5</ele>
        <time>2023-02-22T13:24:56Z</time>
      </trkpt>
      <trkpt lat="49.81626" lon="2.12669">
        <ele>127.5</ele>
        <time>2023-02-22T13:24:58Z</time>
      </trkpt>
      <trkpt lat="49.81626" lon="2.1267">
        <ele>127.5</ele>
        <time>2023-02-22T13:24:59Z</time>
      </trkpt>
      <trkpt lat="49.81627" lon="2.12672">
        <ele>127.5</ele>
        <time>2023-02-22T13:25:00Z</time>
      </trkpt>
      <trkpt lat="49.81627" lon="2.12673">
        <ele>127.5</ele>
        <time>2023-02-22T13:25:01Z</time>
      </trkpt>
      <trkpt lat="49.81627" lon="2.12674">
        <ele>127.5</ele>
        <time>2023-02-22T13:25:02Z</time>
      </trkpt>
      <trkpt lat="49.81628" lon="2.12676">
        <ele>127.5</ele>
        <time>2023-02-22T13:25:03Z</time>
      </trkpt>
      <trkpt lat="49.81628" lon="2.12678">
        <ele>127.5</ele>
        <time>2023-02-22T13:25:05Z</time>
      </trkpt>
      <trkpt lat="49.81628" lon="2.1268">
        <ele>127.5</ele>
        <time>2023-02-22T13:25:06Z</time>
      </trkpt>
      <trkpt lat="49.81629" lon="2.12683">
        <ele>127.5</ele>
        <time>2023-02-22T13:25:07Z</time>
      </trkpt>
      <trkpt lat="49.81629" lon="2.12685">
        <ele>127.5</ele>
        <time>2023-02-22T13:25:08Z</time>
      </trkpt>
      <trkpt lat="49.81629" lon="2.12686">
        <ele>127.5</ele>
        <time>2023-02-22T13:25:09Z</time>
      </trkpt>
      <trkpt lat="49.8163" lon="2.12689">
        <ele>127.5</ele>
        <time>2023-02-22T13:25:10Z</time>
      </trkpt>
      <trkpt lat="49.8163" lon="2.1269">
        <ele>127.5</ele>
        <time>2023-02-22T13:25:11Z</time>
      </trkpt>
      <trkpt lat="49.81631" lon="2.12691">
        <ele>127.5</ele>
        <time>2023-02-22T13:25:12Z</time>
      </trkpt>
      <trkpt lat="49.81631" lon="2.12693">
        <ele>127.5</ele>
        <time>2023-02-22T13:25:13Z</time>
      </trkpt>
      <trkpt lat="49.81632" lon="2.12694">
        <ele>127.6</ele>
        <time>2023-02-22T13:25:14Z</time>
      </trkpt>
      <trkpt lat="49.81633" lon="2.12698">
        <ele>127.6</ele>
        <time>2023-02-22T13:25:15Z</time>
      </trkpt>
      <trkpt lat="49.81634" lon="2.127">
        <ele>127.6</ele>
        <time>2023-02-22T13:25:17Z</time>
      </trkpt>
      <trkpt lat="49.81634" lon="2.12701">
        <ele>127.6</ele>
        <time>2023-02-22T13:25:18Z</time>
      </trkpt>
      <trkpt lat="49.81635" lon="2.12703">
        <ele>127.6</ele>
        <time>2023-02-22T13:25:19Z</time>
      </trkpt>
      <trkpt lat="49.81635" lon="2.12704">
        <ele>127.6</ele>
        <time>2023-02-22T13:25:20Z</time>
      </trkpt>
      <trkpt lat="49.81636" lon="2.12705">
        <ele>127.6</ele>
        <time>2023-02-22T13:25:21Z</time>
      </trkpt>
      <trkpt lat="49.81637" lon="2.12707">
        <ele>127.6</ele>
        <time>2023-02-22T13:25:22Z</time>
      </trkpt>
      <trkpt lat="49.81637" lon="2.12708">
        <ele>127.6</ele>
        <time>2023-02-22T13:25:23Z</time>
      </trkpt>
      <trkpt lat="49.81638" lon="2.1271">
        <ele>127.7</ele>
        <time>2023-02-22T13:25:25Z</time>
      </trkpt>
      <trkpt lat="49.81639" lon="2.12712">
        <ele>127.7</ele>
        <time>2023-02-22T13:25:26Z</time>
      </trkpt>
      <trkpt lat="49.81639" lon="2.12713">
        <ele>127.7</ele>
        <time>2023-02-22T13:25:27Z</time>
      </trkpt>
      <trkpt lat="49.81641" lon="2.12715">
        <ele>127.7</ele>
        <time>2023-02-22T13:25:28Z</time>
      </trkpt>
      <trkpt lat="49.81641" lon="2.12717">
        <ele>127.7</ele>
        <time>2023-02-22T13:25:29Z</time>
      </trkpt>
      <trkpt lat="49.81642" lon="2.12718">
        <ele>127.8</ele>
        <time>2023-02-22T13:25:30Z</time>
      </trkpt>
      <trkpt lat="49.81643" lon="2.12719">
        <ele>127.8</ele>
        <time>2023-02-22T13:25:31Z</time>
      </trkpt>
      <trkpt lat="49.81643" lon="2.12721">
        <ele>127.8</ele>
        <time>2023-02-22T13:25:32Z</time>
      </trkpt>
      <trkpt lat="49.81644" lon="2.12722">
        <ele>127.8</ele>
        <time>2023-02-22T13:25:33Z</time>
      </trkpt>
      <trkpt lat="49.81645" lon="2.12723">
        <ele>127.8</ele>
        <time>2023-02-22T13:25:34Z</time>
      </trkpt>
      <trkpt lat="49.81646" lon="2.12725">
        <ele>127.9</ele>
        <time>2023-02-22T13:25:35Z</time>
      </trkpt>
      <trkpt lat="49.81646" lon="2.12726">
        <ele>127.9</ele>
        <time>2023-02-22T13:25:36Z</time>
      </trkpt>
      <trkpt lat="49.81647" lon="2.12727">
        <ele>127.9</ele>
        <time>2023-02-22T13:25:37Z</time>
      </trkpt>
      <trkpt lat="49.81648" lon="2.12728">
        <ele>127.9</ele>
        <time>2023-02-22T13:25:39Z</time>
      </trkpt>
      <trkpt lat="49.81649" lon="2.12731">
        <ele>127.9</ele>
        <time>2023-02-22T13:25:40Z</time>
      </trkpt>
      <trkpt lat="49.8165" lon="2.12732">
        <ele>128</ele>
        <time>2023-02-22T13:25:41Z</time>
      </trkpt>
      <trkpt lat="49.81652" lon="2.12734">
        <ele>128</ele>
        <time>2023-02-22T13:25:42Z</time>
      </trkpt>
      <trkpt lat="49.81652" lon="2.12735">
        <ele>128</ele>
        <time>2023-02-22T13:25:44Z</time>
      </trkpt>
      <trkpt lat="49.81653" lon="2.12736">
        <ele>128</ele>
        <time>2023-02-22T13:25:45Z</time>
      </trkpt>
      <trkpt lat="49.81654" lon="2.12739">
        <ele>128</ele>
        <time>2023-02-22T13:25:46Z</time>
      </trkpt>
      <trkpt lat="49.81654" lon="2.1274">
        <ele>128.1</ele>
        <time>2023-02-22T13:25:47Z</time>
      </trkpt>
      <trkpt lat="49.81656" lon="2.12744">
        <ele>128.1</ele>
        <time>2023-02-22T13:25:48Z</time>
      </trkpt>
      <trkpt lat="49.81656" lon="2.12745">
        <ele>128.1</ele>
        <time>2023-02-22T13:25:49Z</time>
      </trkpt>
      <trkpt lat="49.81657" lon="2.12746">
        <ele>128.1</ele>
        <time>2023-02-22T13:25:50Z</time>
      </trkpt>
      <trkpt lat="49.81658" lon="2.12749">
        <ele>128.2</ele>
        <time>2023-02-22T13:25:51Z</time>
      </trkpt>
      <trkpt lat="49.81658" lon="2.1275">
        <ele>128.2</ele>
        <time>2023-02-22T13:25:52Z</time>
      </trkpt>
      <trkpt lat="49.81659" lon="2.12751">
        <ele>128.2</ele>
        <time>2023-02-22T13:25:53Z</time>
      </trkpt>
      <trkpt lat="49.8166" lon="2.12755">
        <ele>128.2</ele>
        <time>2023-02-22T13:25:54Z</time>
      </trkpt>
      <trkpt lat="49.81661" lon="2.12756">
        <ele>128.2</ele>
        <time>2023-02-22T13:25:55Z</time>
      </trkpt>
      <trkpt lat="49.81661" lon="2.12757">
        <ele>128.2</ele>
        <time>2023-02-22T13:25:57Z</time>
      </trkpt>
      <trkpt lat="49.81662" lon="2.12759">
        <ele>128.3</ele>
        <time>2023-02-22T13:25:58Z</time>
      </trkpt>
      <trkpt lat="49.81662" lon="2.1276">
        <ele>128.3</ele>
        <time>2023-02-22T13:25:59Z</time>
      </trkpt>
      <trkpt lat="49.81663" lon="2.12762">
        <ele>128.3</ele>
        <time>2023-02-22T13:26:00Z</time>
      </trkpt>
      <trkpt lat="49.81664" lon="2.12764">
        <ele>128.3</ele>
        <time>2023-02-22T13:26:01Z</time>
      </trkpt>
      <trkpt lat="49.81665" lon="2.12767">
        <ele>128.3</ele>
        <time>2023-02-22T13:26:02Z</time>
      </trkpt>
      <trkpt lat="49.81666" lon="2.12768">
        <ele>128.4</ele>
        <time>2023-02-22T13:26:04Z</time>
      </trkpt>
      <trkpt lat="49.81666" lon="2.12769">
        <ele>128.4</ele>
        <time>2023-02-22T13:26:05Z</time>
      </trkpt>
      <trkpt lat="49.81667" lon="2.12772">
        <ele>128.4</ele>
        <time>2023-02-22T13:26:06Z</time>
      </trkpt>
      <trkpt lat="49.81667" lon="2.12774">
        <ele>128.4</ele>
        <time>2023-02-22T13:26:07Z</time>
      </trkpt>
      <trkpt lat="49.81668" lon="2.12777">
        <ele>128.4</ele>
        <time>2023-02-22T13:26:08Z</time>
      </trkpt>
      <trkpt lat="49.81669" lon="2.12778">
        <ele>128.4</ele>
        <time>2023-02-22T13:26:09Z</time>
      </trkpt>
      <trkpt lat="49.81669" lon="2.12779">
        <ele>128.4</ele>
        <time>2023-02-22T13:26:10Z</time>
      </trkpt>
      <trkpt lat="49.8167" lon="2.12781">
        <ele>128.5</ele>
        <time>2023-02-22T13:26:12Z</time>
      </trkpt>
      <trkpt lat="49.81671" lon="2.12783">
        <ele>128.5</ele>
        <time>2023-02-22T13:26:13Z</time>
      </trkpt>
      <trkpt lat="49.81673" lon="2.12786">
        <ele>128.5</ele>
        <time>2023-02-22T13:26:14Z</time>
      </trkpt>
      <trkpt lat="49.81673" lon="2.12787">
        <ele>128.5</ele>
        <time>2023-02-22T13:26:15Z</time>
      </trkpt>
      <trkpt lat="49.81674" lon="2.12788">
        <ele>128.5</ele>
        <time>2023-02-22T13:26:16Z</time>
      </trkpt>
      <trkpt lat="49.81674" lon="2.12789">
        <ele>128.5</ele>
        <time>2023-02-22T13:26:18Z</time>
      </trkpt>
      <trkpt lat="49.81675" lon="2.12791">
        <ele>128.6</ele>
        <time>2023-02-22T13:26:19Z</time>
      </trkpt>
      <trkpt lat="49.81676" lon="2.12792">
        <ele>128.6</ele>
        <time>2023-02-22T13:26:20Z</time>
      </trkpt>
      <trkpt lat="49.81676" lon="2.12794">
        <ele>128.6</ele>
        <time>2023-02-22T13:26:21Z</time>
      </trkpt>
      <trkpt lat="49.81677" lon="2.12795">
        <ele>128.6</ele>
        <time>2023-02-22T13:26:22Z</time>
      </trkpt>
      <trkpt lat="49.81678" lon="2.12797">
        <ele>128.6</ele>
        <time>2023-02-22T13:26:23Z</time>
      </trkpt>
      <trkpt lat="49.81679" lon="2.12799">
        <ele>128.6</ele>
        <time>2023-02-22T13:26:24Z</time>
      </trkpt>
      <trkpt lat="49.8168" lon="2.12799">
        <ele>128.6</ele>
        <time>2023-02-22T13:26:25Z</time>
      </trkpt>
      <trkpt lat="49.81681" lon="2.128">
        <ele>128.6</ele>
        <time>2023-02-22T13:26:26Z</time>
      </trkpt>
      <trkpt lat="49.81681" lon="2.12801">
        <ele>128.6</ele>
        <time>2023-02-22T13:26:27Z</time>
      </trkpt>
      <trkpt lat="49.81682" lon="2.12802">
        <ele>128.7</ele>
        <time>2023-02-22T13:26:28Z</time>
      </trkpt>
      <trkpt lat="49.81683" lon="2.12804">
        <ele>128.7</ele>
        <time>2023-02-22T13:26:29Z</time>
      </trkpt>
      <trkpt lat="49.81685" lon="2.12806">
        <ele>128.7</ele>
        <time>2023-02-22T13:26:30Z</time>
      </trkpt>
      <trkpt lat="49.81685" lon="2.12807">
        <ele>128.7</ele>
        <time>2023-02-22T13:26:31Z</time>
      </trkpt>
      <trkpt lat="49.81686" lon="2.12808">
        <ele>128.7</ele>
        <time>2023-02-22T13:26:33Z</time>
      </trkpt>
      <trkpt lat="49.81687" lon="2.12809">
        <ele>128.7</ele>
        <time>2023-02-22T13:26:34Z</time>
      </trkpt>
      <trkpt lat="49.81688" lon="2.1281">
        <ele>128.7</ele>
        <time>2023-02-22T13:26:35Z</time>
      </trkpt>
      <trkpt lat="49.81688" lon="2.12812">
        <ele>128.7</ele>
        <time>2023-02-22T13:26:36Z</time>
      </trkpt>
      <trkpt lat="49.81689" lon="2.12813">
        <ele>128.7</ele>
        <time>2023-02-22T13:26:37Z</time>
      </trkpt>
      <trkpt lat="49.8169" lon="2.12815">
        <ele>128.7</ele>
        <time>2023-02-22T13:26:38Z</time>
      </trkpt>
      <trkpt lat="49.81691" lon="2.12817">
        <ele>128.7</ele>
        <time>2023-02-22T13:26:39Z</time>
      </trkpt>
      <trkpt lat="49.81692" lon="2.12818">
        <ele>128.7</ele>
        <time>2023-02-22T13:26:40Z</time>
      </trkpt>
      <trkpt lat="49.81692" lon="2.12819">
        <ele>128.8</ele>
        <time>2023-02-22T13:26:41Z</time>
      </trkpt>
      <trkpt lat="49.81694" lon="2.12822">
        <ele>128.8</ele>
        <time>2023-02-22T13:26:42Z</time>
      </trkpt>
      <trkpt lat="49.81694" lon="2.12823">
        <ele>128.8</ele>
        <time>2023-02-22T13:26:43Z</time>
      </trkpt>
      <trkpt lat="49.81695" lon="2.12824">
        <ele>128.8</ele>
        <time>2023-02-22T13:26:44Z</time>
      </trkpt>
      <trkpt lat="49.81696" lon="2.12827">
        <ele>128.8</ele>
        <time>2023-02-22T13:26:45Z</time>
      </trkpt>
      <trkpt lat="49.81696" lon="2.12828">
        <ele>128.8</ele>
        <time>2023-02-22T13:26:47Z</time>
      </trkpt>
      <trkpt lat="49.81697" lon="2.1283">
        <ele>128.8</ele>
        <time>2023-02-22T13:26:48Z</time>
      </trkpt>
      <trkpt lat="49.81698" lon="2.12832">
        <ele>128.8</ele>
        <time>2023-02-22T13:26:49Z</time>
      </trkpt>
      <trkpt lat="49.81699" lon="2.12833">
        <ele>128.8</ele>
        <time>2023-02-22T13:26:50Z</time>
      </trkpt>
      <trkpt lat="49.817" lon="2.12835">
        <ele>128.8</ele>
        <time>2023-02-22T13:26:51Z</time>
      </trkpt>
      <trkpt lat="49.81701" lon="2.12838">
        <ele>128.8</ele>
        <time>2023-02-22T13:26:52Z</time>
      </trkpt>
      <trkpt lat="49.81702" lon="2.12839">
        <ele>128.8</ele>
        <time>2023-02-22T13:26:54Z</time>
      </trkpt>
      <trkpt lat="49.81703" lon="2.1284">
        <ele>128.8</ele>
        <time>2023-02-22T13:26:55Z</time>
      </trkpt>
      <trkpt lat="49.81704" lon="2.12841">
        <ele>128.7</ele>
        <time>2023-02-22T13:26:56Z</time>
      </trkpt>
      <trkpt lat="49.81705" lon="2.12842">
        <ele>128.7</ele>
        <time>2023-02-22T13:26:57Z</time>
      </trkpt>
      <trkpt lat="49.81707" lon="2.12845">
        <ele>128.7</ele>
        <time>2023-02-22T13:26:58Z</time>
      </trkpt>
      <trkpt lat="49.81708" lon="2.12846">
        <ele>128.7</ele>
        <time>2023-02-22T13:26:59Z</time>
      </trkpt>
      <trkpt lat="49.81709" lon="2.12846">
        <ele>128.7</ele>
        <time>2023-02-22T13:27:00Z</time>
      </trkpt>
      <trkpt lat="49.81709" lon="2.12847">
        <ele>128.7</ele>
        <time>2023-02-22T13:27:02Z</time>
      </trkpt>
      <trkpt lat="49.81711" lon="2.12849">
        <ele>128.7</ele>
        <time>2023-02-22T13:27:03Z</time>
      </trkpt>
      <trkpt lat="49.81712" lon="2.1285">
        <ele>128.7</ele>
        <time>2023-02-22T13:27:04Z</time>
      </trkpt>
      <trkpt lat="49.81713" lon="2.12851">
        <ele>128.7</ele>
        <time>2023-02-22T13:27:05Z</time>
      </trkpt>
      <trkpt lat="49.81714" lon="2.12853">
        <ele>128.7</ele>
        <time>2023-02-22T13:27:07Z</time>
      </trkpt>
      <trkpt lat="49.81716" lon="2.12855">
        <ele>128.7</ele>
        <time>2023-02-22T13:27:08Z</time>
      </trkpt>
      <trkpt lat="49.81717" lon="2.12855">
        <ele>128.7</ele>
        <time>2023-02-22T13:27:09Z</time>
      </trkpt>
      <trkpt lat="49.81717" lon="2.12856">
        <ele>128.7</ele>
        <time>2023-02-22T13:27:10Z</time>
      </trkpt>
      <trkpt lat="49.81719" lon="2.12858">
        <ele>128.7</ele>
        <time>2023-02-22T13:27:11Z</time>
      </trkpt>
      <trkpt lat="49.8172" lon="2.12859">
        <ele>128.7</ele>
        <time>2023-02-22T13:27:12Z</time>
      </trkpt>
      <trkpt lat="49.81721" lon="2.12861">
        <ele>128.7</ele>
        <time>2023-02-22T13:27:13Z</time>
      </trkpt>
      <trkpt lat="49.81722" lon="2.12862">
        <ele>128.7</ele>
        <time>2023-02-22T13:27:15Z</time>
      </trkpt>
      <trkpt lat="49.81723" lon="2.12863">
        <ele>128.7</ele>
        <time>2023-02-22T13:27:16Z</time>
      </trkpt>
      <trkpt lat="49.81723" lon="2.12864">
        <ele>128.7</ele>
        <time>2023-02-22T13:27:17Z</time>
      </trkpt>
      <trkpt lat="49.81724" lon="2.12865">
        <ele>128.7</ele>
        <time>2023-02-22T13:27:18Z</time>
      </trkpt>
      <trkpt lat="49.81725" lon="2.12866">
        <ele>128.7</ele>
        <time>2023-02-22T13:27:19Z</time>
      </trkpt>
      <trkpt lat="49.81726" lon="2.12868">
        <ele>128.7</ele>
        <time>2023-02-22T13:27:21Z</time>
      </trkpt>
      <trkpt lat="49.81727" lon="2.12869">
        <ele>128.7</ele>
        <time>2023-02-22T13:27:22Z</time>
      </trkpt>
      <trkpt lat="49.81729" lon="2.12871">
        <ele>128.7</ele>
        <time>2023-02-22T13:27:23Z</time>
      </trkpt>
      <trkpt lat="49.8173" lon="2.12872">
        <ele>128.7</ele>
        <time>2023-02-22T13:27:24Z</time>
      </trkpt>
      <trkpt lat="49.81731" lon="2.12873">
        <ele>128.7</ele>
        <time>2023-02-22T13:27:25Z</time>
      </trkpt>
      <trkpt lat="49.81733" lon="2.12876">
        <ele>128.7</ele>
        <time>2023-02-22T13:27:26Z</time>
      </trkpt>
      <trkpt lat="49.81734" lon="2.12877">
        <ele>128.7</ele>
        <time>2023-02-22T13:27:28Z</time>
      </trkpt>
      <trkpt lat="49.81735" lon="2.12878">
        <ele>128.7</ele>
        <time>2023-02-22T13:27:29Z</time>
      </trkpt>
      <trkpt lat="49.81736" lon="2.12879">
        <ele>128.7</ele>
        <time>2023-02-22T13:27:30Z</time>
      </trkpt>
      <trkpt lat="49.81737" lon="2.1288">
        <ele>128.7</ele>
        <time>2023-02-22T13:27:31Z</time>
      </trkpt>
      <trkpt lat="49.81738" lon="2.12882">
        <ele>128.7</ele>
        <time>2023-02-22T13:27:32Z</time>
      </trkpt>
      <trkpt lat="49.81739" lon="2.12882">
        <ele>128.7</ele>
        <time>2023-02-22T13:27:33Z</time>
      </trkpt>
      <trkpt lat="49.8174" lon="2.12883">
        <ele>128.7</ele>
        <time>2023-02-22T13:27:34Z</time>
      </trkpt>
      <trkpt lat="49.81741" lon="2.12884">
        <ele>128.7</ele>
        <time>2023-02-22T13:27:35Z</time>
      </trkpt>
      <trkpt lat="49.81742" lon="2.12886">
        <ele>128.7</ele>
        <time>2023-02-22T13:27:36Z</time>
      </trkpt>
      <trkpt lat="49.81743" lon="2.12887">
        <ele>128.7</ele>
        <time>2023-02-22T13:27:37Z</time>
      </trkpt>
      <trkpt lat="49.81744" lon="2.12888">
        <ele>128.7</ele>
        <time>2023-02-22T13:27:38Z</time>
      </trkpt>
      <trkpt lat="49.81745" lon="2.12889">
        <ele>128.8</ele>
        <time>2023-02-22T13:27:39Z</time>
      </trkpt>
      <trkpt lat="49.81745" lon="2.1289">
        <ele>128.8</ele>
        <time>2023-02-22T13:27:40Z</time>
      </trkpt>
      <trkpt lat="49.81747" lon="2.12892">
        <ele>128.8</ele>
        <time>2023-02-22T13:27:42Z</time>
      </trkpt>
      <trkpt lat="49.81747" lon="2.12893">
        <ele>128.8</ele>
        <time>2023-02-22T13:27:43Z</time>
      </trkpt>
      <trkpt lat="49.81748" lon="2.12894">
        <ele>128.8</ele>
        <time>2023-02-22T13:27:44Z</time>
      </trkpt>
      <trkpt lat="49.81749" lon="2.12895">
        <ele>128.8</ele>
        <time>2023-02-22T13:27:45Z</time>
      </trkpt>
      <trkpt lat="49.8175" lon="2.12897">
        <ele>128.8</ele>
        <time>2023-02-22T13:27:46Z</time>
      </trkpt>
      <trkpt lat="49.81751" lon="2.12898">
        <ele>128.8</ele>
        <time>2023-02-22T13:27:47Z</time>
      </trkpt>
      <trkpt lat="49.81752" lon="2.129">
        <ele>128.8</ele>
        <time>2023-02-22T13:27:49Z</time>
      </trkpt>
      <trkpt lat="49.81752" lon="2.12901">
        <ele>128.8</ele>
        <time>2023-02-22T13:27:50Z</time>
      </trkpt>
      <trkpt lat="49.81754" lon="2.12904">
        <ele>128.8</ele>
        <time>2023-02-22T13:27:51Z</time>
      </trkpt>
      <trkpt lat="49.81754" lon="2.12905">
        <ele>128.8</ele>
        <time>2023-02-22T13:27:52Z</time>
      </trkpt>
      <trkpt lat="49.81756" lon="2.12908">
        <ele>128.9</ele>
        <time>2023-02-22T13:27:53Z</time>
      </trkpt>
      <trkpt lat="49.81756" lon="2.12909">
        <ele>128.9</ele>
        <time>2023-02-22T13:27:54Z</time>
      </trkpt>
      <trkpt lat="49.81756" lon="2.1291">
        <ele>128.9</ele>
        <time>2023-02-22T13:27:55Z</time>
      </trkpt>
      <trkpt lat="49.81758" lon="2.12913">
        <ele>128.9</ele>
        <time>2023-02-22T13:27:57Z</time>
      </trkpt>
      <trkpt lat="49.81758" lon="2.12914">
        <ele>128.9</ele>
        <time>2023-02-22T13:27:58Z</time>
      </trkpt>
      <trkpt lat="49.81759" lon="2.12915">
        <ele>128.9</ele>
        <time>2023-02-22T13:27:59Z</time>
      </trkpt>
      <trkpt lat="49.81759" lon="2.12916">
        <ele>128.9</ele>
        <time>2023-02-22T13:28:00Z</time>
      </trkpt>
      <trkpt lat="49.81761" lon="2.12919">
        <ele>128.9</ele>
        <time>2023-02-22T13:28:01Z</time>
      </trkpt>
      <trkpt lat="49.81763" lon="2.12922">
        <ele>128.9</ele>
        <time>2023-02-22T13:28:02Z</time>
      </trkpt>
      <trkpt lat="49.81763" lon="2.12924">
        <ele>128.9</ele>
        <time>2023-02-22T13:28:04Z</time>
      </trkpt>
      <trkpt lat="49.81764" lon="2.12925">
        <ele>128.9</ele>
        <time>2023-02-22T13:28:05Z</time>
      </trkpt>
      <trkpt lat="49.81765" lon="2.12927">
        <ele>128.9</ele>
        <time>2023-02-22T13:28:06Z</time>
      </trkpt>
      <trkpt lat="49.81765" lon="2.12928">
        <ele>129</ele>
        <time>2023-02-22T13:28:07Z</time>
      </trkpt>
      <trkpt lat="49.81766" lon="2.12929">
        <ele>129</ele>
        <time>2023-02-22T13:28:08Z</time>
      </trkpt>
      <trkpt lat="49.81767" lon="2.12931">
        <ele>129</ele>
        <time>2023-02-22T13:28:09Z</time>
      </trkpt>
      <trkpt lat="49.81768" lon="2.12933">
        <ele>129</ele>
        <time>2023-02-22T13:28:11Z</time>
      </trkpt>
      <trkpt lat="49.81769" lon="2.12935">
        <ele>129</ele>
        <time>2023-02-22T13:28:12Z</time>
      </trkpt>
      <trkpt lat="49.81769" lon="2.12936">
        <ele>129</ele>
        <time>2023-02-22T13:28:13Z</time>
      </trkpt>
      <trkpt lat="49.8177" lon="2.12939">
        <ele>129</ele>
        <time>2023-02-22T13:28:14Z</time>
      </trkpt>
      <trkpt lat="49.81771" lon="2.1294">
        <ele>129</ele>
        <time>2023-02-22T13:28:15Z</time>
      </trkpt>
      <trkpt lat="49.81771" lon="2.12941">
        <ele>129</ele>
        <time>2023-02-22T13:28:16Z</time>
      </trkpt>
      <trkpt lat="49.81772" lon="2.12943">
        <ele>129</ele>
        <time>2023-02-22T13:28:17Z</time>
      </trkpt>
      <trkpt lat="49.81772" lon="2.12944">
        <ele>129</ele>
        <time>2023-02-22T13:28:18Z</time>
      </trkpt>
      <trkpt lat="49.81773" lon="2.12946">
        <ele>129</ele>
        <time>2023-02-22T13:28:19Z</time>
      </trkpt>
      <trkpt lat="49.81774" lon="2.12948">
        <ele>129</ele>
        <time>2023-02-22T13:28:21Z</time>
      </trkpt>
      <trkpt lat="49.81775" lon="2.1295">
        <ele>129</ele>
        <time>2023-02-22T13:28:22Z</time>
      </trkpt>
      <trkpt lat="49.81776" lon="2.12953">
        <ele>129</ele>
        <time>2023-02-22T13:28:23Z</time>
      </trkpt>
      <trkpt lat="49.81776" lon="2.12954">
        <ele>129</ele>
        <time>2023-02-22T13:28:24Z</time>
      </trkpt>
      <trkpt lat="49.81777" lon="2.12955">
        <ele>129</ele>
        <time>2023-02-22T13:28:25Z</time>
      </trkpt>
      <trkpt lat="49.81778" lon="2.12957">
        <ele>129</ele>
        <time>2023-02-22T13:28:26Z</time>
      </trkpt>
      <trkpt lat="49.81779" lon="2.12959">
        <ele>129</ele>
        <time>2023-02-22T13:28:28Z</time>
      </trkpt>
      <trkpt lat="49.81779" lon="2.1296">
        <ele>129</ele>
        <time>2023-02-22T13:28:29Z</time>
      </trkpt>
      <trkpt lat="49.8178" lon="2.12962">
        <ele>129</ele>
        <time>2023-02-22T13:28:30Z</time>
      </trkpt>
      <trkpt lat="49.8178" lon="2.12963">
        <ele>129</ele>
        <time>2023-02-22T13:28:31Z</time>
      </trkpt>
      <trkpt lat="49.81781" lon="2.12966">
        <ele>129</ele>
        <time>2023-02-22T13:28:32Z</time>
      </trkpt>
      <trkpt lat="49.81782" lon="2.12967">
        <ele>129</ele>
        <time>2023-02-22T13:28:33Z</time>
      </trkpt>
      <trkpt lat="49.81782" lon="2.12969">
        <ele>129</ele>
        <time>2023-02-22T13:28:34Z</time>
      </trkpt>
      <trkpt lat="49.81783" lon="2.12971">
        <ele>129</ele>
        <time>2023-02-22T13:28:35Z</time>
      </trkpt>
      <trkpt lat="49.81784" lon="2.12973">
        <ele>129</ele>
        <time>2023-02-22T13:28:37Z</time>
      </trkpt>
      <trkpt lat="49.81784" lon="2.12974">
        <ele>129</ele>
        <time>2023-02-22T13:28:38Z</time>
      </trkpt>
      <trkpt lat="49.81785" lon="2.12975">
        <ele>128.9</ele>
        <time>2023-02-22T13:28:39Z</time>
      </trkpt>
      <trkpt lat="49.81786" lon="2.12977">
        <ele>128.9</ele>
        <time>2023-02-22T13:28:40Z</time>
      </trkpt>
      <trkpt lat="49.81786" lon="2.12979">
        <ele>128.9</ele>
        <time>2023-02-22T13:28:41Z</time>
      </trkpt>
      <trkpt lat="49.81787" lon="2.12981">
        <ele>128.9</ele>
        <time>2023-02-22T13:28:42Z</time>
      </trkpt>
      <trkpt lat="49.81787" lon="2.12983">
        <ele>128.9</ele>
        <time>2023-02-22T13:28:43Z</time>
      </trkpt>
      <trkpt lat="49.81787" lon="2.12984">
        <ele>128.9</ele>
        <time>2023-02-22T13:28:44Z</time>
      </trkpt>
      <trkpt lat="49.81788" lon="2.12986">
        <ele>128.9</ele>
        <time>2023-02-22T13:28:45Z</time>
      </trkpt>
      <trkpt lat="49.81789" lon="2.12989">
        <ele>128.9</ele>
        <time>2023-02-22T13:28:46Z</time>
      </trkpt>
      <trkpt lat="49.81789" lon="2.1299">
        <ele>128.9</ele>
        <time>2023-02-22T13:28:47Z</time>
      </trkpt>
      <trkpt lat="49.81789" lon="2.12992">
        <ele>128.9</ele>
        <time>2023-02-22T13:28:49Z</time>
      </trkpt>
      <trkpt lat="49.8179" lon="2.12994">
        <ele>128.9</ele>
        <time>2023-02-22T13:28:50Z</time>
      </trkpt>
      <trkpt lat="49.81789" lon="2.12995">
        <ele>128.9</ele>
        <time>2023-02-22T13:28:51Z</time>
      </trkpt>
      <trkpt lat="49.81789" lon="2.12999">
        <ele>128.8</ele>
        <time>2023-02-22T13:28:52Z</time>
      </trkpt>
      <trkpt lat="49.81789" lon="2.13001">
        <ele>128.8</ele>
        <time>2023-02-22T13:28:53Z</time>
      </trkpt>
      <trkpt lat="49.81787" lon="2.13004">
        <ele>128.8</ele>
        <time>2023-02-22T13:28:54Z</time>
      </trkpt>
      <trkpt lat="49.81787" lon="2.13006">
        <ele>128.8</ele>
        <time>2023-02-22T13:28:56Z</time>
      </trkpt>
      <trkpt lat="49.81786" lon="2.13007">
        <ele>128.8</ele>
        <time>2023-02-22T13:28:57Z</time>
      </trkpt>
      <trkpt lat="49.81785" lon="2.13009">
        <ele>128.8</ele>
        <time>2023-02-22T13:28:58Z</time>
      </trkpt>
      <trkpt lat="49.81784" lon="2.1301">
        <ele>128.8</ele>
        <time>2023-02-22T13:28:59Z</time>
      </trkpt>
      <trkpt lat="49.81782" lon="2.13011">
        <ele>128.8</ele>
        <time>2023-02-22T13:29:00Z</time>
      </trkpt>
      <trkpt lat="49.8178" lon="2.13013">
        <ele>128.7</ele>
        <time>2023-02-22T13:29:01Z</time>
      </trkpt>
      <trkpt lat="49.8178" lon="2.13014">
        <ele>128.7</ele>
        <time>2023-02-22T13:29:02Z</time>
      </trkpt>
      <trkpt lat="49.81778" lon="2.13015">
        <ele>128.7</ele>
        <time>2023-02-22T13:29:04Z</time>
      </trkpt>
      <trkpt lat="49.81777" lon="2.13016">
        <ele>128.7</ele>
        <time>2023-02-22T13:29:05Z</time>
      </trkpt>
      <trkpt lat="49.81776" lon="2.13017">
        <ele>128.7</ele>
        <time>2023-02-22T13:29:06Z</time>
      </trkpt>
      <trkpt lat="49.81775" lon="2.13019">
        <ele>128.6</ele>
        <time>2023-02-22T13:29:07Z</time>
      </trkpt>
      <trkpt lat="49.81774" lon="2.13019">
        <ele>128.6</ele>
        <time>2023-02-22T13:29:08Z</time>
      </trkpt>
      <trkpt lat="49.81774" lon="2.1302">
        <ele>128.6</ele>
        <time>2023-02-22T13:29:09Z</time>
      </trkpt>
      <trkpt lat="49.81773" lon="2.13021">
        <ele>128.6</ele>
        <time>2023-02-22T13:29:10Z</time>
      </trkpt>
      <trkpt lat="49.81771" lon="2.13022">
        <ele>128.6</ele>
        <time>2023-02-22T13:29:11Z</time>
      </trkpt>
      <trkpt lat="49.81771" lon="2.13023">
        <ele>128.5</ele>
        <time>2023-02-22T13:29:12Z</time>
      </trkpt>
      <trkpt lat="49.8177" lon="2.13024">
        <ele>128.5</ele>
        <time>2023-02-22T13:29:14Z</time>
      </trkpt>
      <trkpt lat="49.81769" lon="2.13024">
        <ele>128.5</ele>
        <time>2023-02-22T13:29:15Z</time>
      </trkpt>
      <trkpt lat="49.81768" lon="2.13025">
        <ele>128.5</ele>
        <time>2023-02-22T13:29:16Z</time>
      </trkpt>
      <trkpt lat="49.81767" lon="2.13026">
        <ele>128.5</ele>
        <time>2023-02-22T13:29:17Z</time>
      </trkpt>
      <trkpt lat="49.81766" lon="2.13027">
        <ele>128.5</ele>
        <time>2023-02-22T13:29:18Z</time>
      </trkpt>
      <trkpt lat="49.81765" lon="2.13028">
        <ele>128.4</ele>
        <time>2023-02-22T13:29:19Z</time>
      </trkpt>
      <trkpt lat="49.81764" lon="2.1303">
        <ele>128.4</ele>
        <time>2023-02-22T13:29:20Z</time>
      </trkpt>
      <trkpt lat="49.81763" lon="2.13031">
        <ele>128.4</ele>
        <time>2023-02-22T13:29:21Z</time>
      </trkpt>
      <trkpt lat="49.81762" lon="2.13034">
        <ele>128.4</ele>
        <time>2023-02-22T13:29:22Z</time>
      </trkpt>
      <trkpt lat="49.81761" lon="2.13035">
        <ele>128.3</ele>
        <time>2023-02-22T13:29:23Z</time>
      </trkpt>
      <trkpt lat="49.8176" lon="2.13036">
        <ele>128.3</ele>
        <time>2023-02-22T13:29:25Z</time>
      </trkpt>
      <trkpt lat="49.81759" lon="2.13037">
        <ele>128.3</ele>
        <time>2023-02-22T13:29:26Z</time>
      </trkpt>
      <trkpt lat="49.81758" lon="2.13038">
        <ele>128.3</ele>
        <time>2023-02-22T13:29:27Z</time>
      </trkpt>
      <trkpt lat="49.81758" lon="2.13039">
        <ele>128.3</ele>
        <time>2023-02-22T13:29:28Z</time>
      </trkpt>
      <trkpt lat="49.81756" lon="2.13041">
        <ele>128.3</ele>
        <time>2023-02-22T13:29:29Z</time>
      </trkpt>
      <trkpt lat="49.81754" lon="2.13043">
        <ele>128.2</ele>
        <time>2023-02-22T13:29:31Z</time>
      </trkpt>
      <trkpt lat="49.81753" lon="2.13044">
        <ele>128.2</ele>
        <time>2023-02-22T13:29:33Z</time>
      </trkpt>
      <trkpt lat="49.81752" lon="2.13045">
        <ele>128.2</ele>
        <time>2023-02-22T13:29:34Z</time>
      </trkpt>
      <trkpt lat="49.81751" lon="2.13046">
        <ele>128.2</ele>
        <time>2023-02-22T13:29:35Z</time>
      </trkpt>
      <trkpt lat="49.8175" lon="2.13047">
        <ele>128.2</ele>
        <time>2023-02-22T13:29:36Z</time>
      </trkpt>
      <trkpt lat="49.81748" lon="2.13049">
        <ele>128.2</ele>
        <time>2023-02-22T13:29:37Z</time>
      </trkpt>
      <trkpt lat="49.81748" lon="2.1305">
        <ele>128.2</ele>
        <time>2023-02-22T13:29:38Z</time>
      </trkpt>
      <trkpt lat="49.81747" lon="2.13051">
        <ele>128.1</ele>
        <time>2023-02-22T13:29:39Z</time>
      </trkpt>
      <trkpt lat="49.81745" lon="2.13054">
        <ele>128.1</ele>
        <time>2023-02-22T13:29:41Z</time>
      </trkpt>
      <trkpt lat="49.81745" lon="2.13055">
        <ele>128.1</ele>
        <time>2023-02-22T13:29:43Z</time>
      </trkpt>
      <trkpt lat="49.81744" lon="2.13057">
        <ele>128.1</ele>
        <time>2023-02-22T13:29:44Z</time>
      </trkpt>
      <trkpt lat="49.81743" lon="2.13058">
        <ele>128.1</ele>
        <time>2023-02-22T13:29:45Z</time>
      </trkpt>
      <trkpt lat="49.81742" lon="2.13059">
        <ele>128.1</ele>
        <time>2023-02-22T13:29:46Z</time>
      </trkpt>
      <trkpt lat="49.8174" lon="2.13061">
        <ele>128</ele>
        <time>2023-02-22T13:29:47Z</time>
      </trkpt>
      <trkpt lat="49.81739" lon="2.13063">
        <ele>128</ele>
        <time>2023-02-22T13:29:49Z</time>
      </trkpt>
      <trkpt lat="49.81738" lon="2.13063">
        <ele>128</ele>
        <time>2023-02-22T13:29:50Z</time>
      </trkpt>
      <trkpt lat="49.81738" lon="2.13064">
        <ele>128</ele>
        <time>2023-02-22T13:29:51Z</time>
      </trkpt>
      <trkpt lat="49.81736" lon="2.13066">
        <ele>128</ele>
        <time>2023-02-22T13:29:52Z</time>
      </trkpt>
      <trkpt lat="49.81735" lon="2.13068">
        <ele>128</ele>
        <time>2023-02-22T13:29:53Z</time>
      </trkpt>
      <trkpt lat="49.81734" lon="2.13069">
        <ele>128</ele>
        <time>2023-02-22T13:29:54Z</time>
      </trkpt>
      <trkpt lat="49.81734" lon="2.13071">
        <ele>128</ele>
        <time>2023-02-22T13:29:55Z</time>
      </trkpt>
      <trkpt lat="49.81733" lon="2.13073">
        <ele>128</ele>
        <time>2023-02-22T13:29:56Z</time>
      </trkpt>
      <trkpt lat="49.81731" lon="2.13075">
        <ele>127.9</ele>
        <time>2023-02-22T13:29:57Z</time>
      </trkpt>
      <trkpt lat="49.8173" lon="2.13078">
        <ele>127.9</ele>
        <time>2023-02-22T13:29:58Z</time>
      </trkpt>
      <trkpt lat="49.81729" lon="2.13079">
        <ele>127.9</ele>
        <time>2023-02-22T13:30:00Z</time>
      </trkpt>
      <trkpt lat="49.81728" lon="2.1308">
        <ele>127.9</ele>
        <time>2023-02-22T13:30:01Z</time>
      </trkpt>
      <trkpt lat="49.81727" lon="2.13082">
        <ele>127.9</ele>
        <time>2023-02-22T13:30:02Z</time>
      </trkpt>
      <trkpt lat="49.81726" lon="2.13083">
        <ele>127.9</ele>
        <time>2023-02-22T13:30:03Z</time>
      </trkpt>
      <trkpt lat="49.81725" lon="2.13084">
        <ele>127.9</ele>
        <time>2023-02-22T13:30:04Z</time>
      </trkpt>
      <trkpt lat="49.81724" lon="2.13086">
        <ele>127.9</ele>
        <time>2023-02-22T13:30:05Z</time>
      </trkpt>
      <trkpt lat="49.81723" lon="2.13088">
        <ele>127.9</ele>
        <time>2023-02-22T13:30:07Z</time>
      </trkpt>
      <trkpt lat="49.81722" lon="2.13089">
        <ele>127.9</ele>
        <time>2023-02-22T13:30:08Z</time>
      </trkpt>
      <trkpt lat="49.8172" lon="2.13091">
        <ele>127.9</ele>
        <time>2023-02-22T13:30:09Z</time>
      </trkpt>
      <trkpt lat="49.8172" lon="2.13092">
        <ele>127.9</ele>
        <time>2023-02-22T13:30:10Z</time>
      </trkpt>
      <trkpt lat="49.81719" lon="2.13093">
        <ele>127.9</ele>
        <time>2023-02-22T13:30:11Z</time>
      </trkpt>
      <trkpt lat="49.81718" lon="2.13095">
        <ele>127.9</ele>
        <time>2023-02-22T13:30:12Z</time>
      </trkpt>
      <trkpt lat="49.81718" lon="2.13096">
        <ele>127.9</ele>
        <time>2023-02-22T13:30:14Z</time>
      </trkpt>
      <trkpt lat="49.81717" lon="2.13097">
        <ele>127.9</ele>
        <time>2023-02-22T13:30:15Z</time>
      </trkpt>
      <trkpt lat="49.81715" lon="2.13099">
        <ele>127.8</ele>
        <time>2023-02-22T13:30:16Z</time>
      </trkpt>
      <trkpt lat="49.81714" lon="2.13101">
        <ele>127.8</ele>
        <time>2023-02-22T13:30:17Z</time>
      </trkpt>
      <trkpt lat="49.81713" lon="2.13102">
        <ele>127.8</ele>
        <time>2023-02-22T13:30:18Z</time>
      </trkpt>
      <trkpt lat="49.81712" lon="2.13103">
        <ele>127.8</ele>
        <time>2023-02-22T13:30:19Z</time>
      </trkpt>
      <trkpt lat="49.81711" lon="2.13104">
        <ele>127.8</ele>
        <time>2023-02-22T13:30:21Z</time>
      </trkpt>
      <trkpt lat="49.81709" lon="2.13106">
        <ele>127.8</ele>
        <time>2023-02-22T13:30:22Z</time>
      </trkpt>
      <trkpt lat="49.81708" lon="2.13106">
        <ele>127.8</ele>
        <time>2023-02-22T13:30:23Z</time>
      </trkpt>
      <trkpt lat="49.81707" lon="2.13107">
        <ele>127.8</ele>
        <time>2023-02-22T13:30:24Z</time>
      </trkpt>
      <trkpt lat="49.81706" lon="2.13108">
        <ele>127.8</ele>
        <time>2023-02-22T13:30:25Z</time>
      </trkpt>
      <trkpt lat="49.81705" lon="2.13109">
        <ele>127.8</ele>
        <time>2023-02-22T13:30:26Z</time>
      </trkpt>
      <trkpt lat="49.81703" lon="2.13111">
        <ele>127.7</ele>
        <time>2023-02-22T13:30:27Z</time>
      </trkpt>
      <trkpt lat="49.81702" lon="2.13112">
        <ele>127.7</ele>
        <time>2023-02-22T13:30:29Z</time>
      </trkpt>
      <trkpt lat="49.81701" lon="2.13113">
        <ele>127.7</ele>
        <time>2023-02-22T13:30:30Z</time>
      </trkpt>
      <trkpt lat="49.81701" lon="2.13114">
        <ele>127.7</ele>
        <time>2023-02-22T13:30:31Z</time>
      </trkpt>
      <trkpt lat="49.817" lon="2.13115">
        <ele>127.7</ele>
        <time>2023-02-22T13:30:32Z</time>
      </trkpt>
      <trkpt lat="49.81698" lon="2.13117">
        <ele>127.7</ele>
        <time>2023-02-22T13:30:33Z</time>
      </trkpt>
      <trkpt lat="49.81697" lon="2.13117">
        <ele>127.6</ele>
        <time>2023-02-22T13:30:35Z</time>
      </trkpt>
      <trkpt lat="49.81697" lon="2.13118">
        <ele>127.6</ele>
        <time>2023-02-22T13:30:36Z</time>
      </trkpt>
      <trkpt lat="49.81695" lon="2.1312">
        <ele>127.6</ele>
        <time>2023-02-22T13:30:37Z</time>
      </trkpt>
      <trkpt lat="49.81694" lon="2.13121">
        <ele>127.6</ele>
        <time>2023-02-22T13:30:38Z</time>
      </trkpt>
      <trkpt lat="49.81693" lon="2.13121">
        <ele>127.6</ele>
        <time>2023-02-22T13:30:39Z</time>
      </trkpt>
      <trkpt lat="49.81692" lon="2.13122">
        <ele>127.5</ele>
        <time>2023-02-22T13:30:40Z</time>
      </trkpt>
      <trkpt lat="49.81691" lon="2.13124">
        <ele>127.5</ele>
        <time>2023-02-22T13:30:41Z</time>
      </trkpt>
      <trkpt lat="49.8169" lon="2.13125">
        <ele>127.5</ele>
        <time>2023-02-22T13:30:43Z</time>
      </trkpt>
      <trkpt lat="49.81689" lon="2.13127">
        <ele>127.5</ele>
        <time>2023-02-22T13:30:44Z</time>
      </trkpt>
      <trkpt lat="49.81689" lon="2.13128">
        <ele>127.5</ele>
        <time>2023-02-22T13:30:45Z</time>
      </trkpt>
      <trkpt lat="49.81688" lon="2.13129">
        <ele>127.5</ele>
        <time>2023-02-22T13:30:46Z</time>
      </trkpt>
      <trkpt lat="49.81687" lon="2.1313">
        <ele>127.4</ele>
        <time>2023-02-22T13:30:47Z</time>
      </trkpt>
      <trkpt lat="49.81686" lon="2.13132">
        <ele>127.4</ele>
        <time>2023-02-22T13:30:48Z</time>
      </trkpt>
      <trkpt lat="49.81685" lon="2.13133">
        <ele>127.4</ele>
        <time>2023-02-22T13:30:49Z</time>
      </trkpt>
      <trkpt lat="49.81685" lon="2.13134">
        <ele>127.4</ele>
        <time>2023-02-22T13:30:51Z</time>
      </trkpt>
      <trkpt lat="49.81684" lon="2.13135">
        <ele>127.4</ele>
        <time>2023-02-22T13:30:52Z</time>
      </trkpt>
      <trkpt lat="49.81684" lon="2.13137">
        <ele>127.4</ele>
        <time>2023-02-22T13:30:53Z</time>
      </trkpt>
      <trkpt lat="49.81685" lon="2.13138">
        <ele>127.4</ele>
        <time>2023-02-22T13:30:54Z</time>
      </trkpt>
      <trkpt lat="49.81685" lon="2.1314">
        <ele>127.4</ele>
        <time>2023-02-22T13:30:55Z</time>
      </trkpt>
      <trkpt lat="49.81685" lon="2.13142">
        <ele>127.3</ele>
        <time>2023-02-22T13:30:56Z</time>
      </trkpt>
      <trkpt lat="49.81684" lon="2.13144">
        <ele>127.3</ele>
        <time>2023-02-22T13:30:58Z</time>
      </trkpt>
      <trkpt lat="49.81683" lon="2.13145">
        <ele>127.3</ele>
        <time>2023-02-22T13:31:00Z</time>
      </trkpt>
      <trkpt lat="49.81682" lon="2.13146">
        <ele>127.3</ele>
        <time>2023-02-22T13:31:01Z</time>
      </trkpt>
      <trkpt lat="49.81682" lon="2.13147">
        <ele>127.3</ele>
        <time>2023-02-22T13:31:02Z</time>
      </trkpt>
      <trkpt lat="49.81681" lon="2.13149">
        <ele>127.3</ele>
        <time>2023-02-22T13:31:04Z</time>
      </trkpt>
      <trkpt lat="49.8168" lon="2.13151">
        <ele>127.3</ele>
        <time>2023-02-22T13:31:05Z</time>
      </trkpt>
      <trkpt lat="49.8168" lon="2.13152">
        <ele>127.3</ele>
        <time>2023-02-22T13:31:07Z</time>
      </trkpt>
      <trkpt lat="49.81679" lon="2.13153">
        <ele>127.3</ele>
        <time>2023-02-22T13:31:09Z</time>
      </trkpt>
      <trkpt lat="49.81679" lon="2.13151">
        <ele>127.3</ele>
        <time>2023-02-22T13:31:11Z</time>
      </trkpt>
      <trkpt lat="49.81679" lon="2.13151">
        <ele>127.3</ele>
        <time>2023-02-22T13:31:12Z</time>
      </trkpt>
      <trkpt lat="49.81678" lon="2.13151">
        <ele>127.3</ele>
        <time>2023-02-22T13:31:13Z</time>
      </trkpt>
      <trkpt lat="49.81678" lon="2.1315">
        <ele>127.3</ele>
        <time>2023-02-22T13:31:15Z</time>
      </trkpt>
      <trkpt lat="49.81678" lon="2.1315">
        <ele>127.3</ele>
        <time>2023-02-22T13:31:16Z</time>
      </trkpt>
      <trkpt lat="49.81678" lon="2.1315">
        <ele>127.3</ele>
        <time>2023-02-22T13:31:17Z</time>
      </trkpt>
      <trkpt lat="49.81679" lon="2.13149">
        <ele>127.3</ele>
        <time>2023-02-22T13:31:19Z</time>
      </trkpt>
      <trkpt lat="49.81679" lon="2.13149">
        <ele>127.3</ele>
        <time>2023-02-22T13:31:20Z</time>
      </trkpt>
      <trkpt lat="49.81679" lon="2.13149">
        <ele>127.3</ele>
        <time>2023-02-22T13:31:21Z</time>
      </trkpt>
      <trkpt lat="49.81679" lon="2.13149">
        <ele>127.3</ele>
        <time>2023-02-22T13:31:22Z</time>
      </trkpt>
      <trkpt lat="49.81679" lon="2.13149">
        <ele>127.3</ele>
        <time>2023-02-22T13:31:24Z</time>
      </trkpt>
      <trkpt lat="49.81679" lon="2.13148">
        <ele>127.3</ele>
        <time>2023-02-22T13:31:26Z</time>
      </trkpt>
      <trkpt lat="49.81679" lon="2.13148">
        <ele>127.3</ele>
        <time>2023-02-22T13:31:28Z</time>
      </trkpt>
      <trkpt lat="49.81679" lon="2.13148">
        <ele>127.3</ele>
        <time>2023-02-22T13:31:29Z</time>
      </trkpt>
      <trkpt lat="49.8168" lon="2.13148">
        <ele>127.3</ele>
        <time>2023-02-22T13:31:30Z</time>
      </trkpt>
      <trkpt lat="49.8168" lon="2.13148">
        <ele>127.3</ele>
        <time>2023-02-22T13:31:31Z</time>
      </trkpt>
      <trkpt lat="49.8168" lon="2.13148">
        <ele>127.3</ele>
        <time>2023-02-22T13:31:32Z</time>
      </trkpt>
      <trkpt lat="49.8168" lon="2.13148">
        <ele>127.3</ele>
        <time>2023-02-22T13:31:33Z</time>
      </trkpt>
      <trkpt lat="49.8168" lon="2.13148">
        <ele>127.3</ele>
        <time>2023-02-22T13:31:34Z</time>
      </trkpt>
      <trkpt lat="49.8168" lon="2.13148">
        <ele>127.3</ele>
        <time>2023-02-22T13:31:35Z</time>
      </trkpt>
      <trkpt lat="49.8168" lon="2.13148">
        <ele>127.3</ele>
        <time>2023-02-22T13:31:36Z</time>
      </trkpt>
      <trkpt lat="49.8168" lon="2.13148">
        <ele>127.3</ele>
        <time>2023-02-22T13:31:37Z</time>
      </trkpt>
      <trkpt lat="49.8168" lon="2.13148">
        <ele>127.3</ele>
        <time>2023-02-22T13:31:38Z</time>
      </trkpt>
      <trkpt lat="49.8168" lon="2.13148">
        <ele>127.3</ele>
        <time>2023-02-22T13:31:39Z</time>
      </trkpt>
      <trkpt lat="49.8168" lon="2.13148">
        <ele>127.3</ele>
        <time>2023-02-22T13:31:40Z</time>
      </trkpt>
      <trkpt lat="49.8168" lon="2.13148">
        <ele>127.3</ele>
        <time>2023-02-22T13:31:41Z</time>
      </trkpt>
      <trkpt lat="49.8168" lon="2.13148">
        <ele>127.3</ele>
        <time>2023-02-22T13:31:42Z</time>
      </trkpt>
      <trkpt lat="49.8168" lon="2.13148">
        <ele>127.3</ele>
        <time>2023-02-22T13:31:43Z</time>
      </trkpt>
      <trkpt lat="49.8168" lon="2.13148">
        <ele>127.3</ele>
        <time>2023-02-22T13:31:44Z</time>
      </trkpt>
      <trkpt lat="49.8168" lon="2.13148">
        <ele>127.3</ele>
        <time>2023-02-22T13:31:45Z</time>
      </trkpt>
      <trkpt lat="49.8168" lon="2.13148">
        <ele>127.3</ele>
        <time>2023-02-22T13:31:46Z</time>
      </trkpt>
      <trkpt lat="49.8168" lon="2.13148">
        <ele>127.3</ele>
        <time>2023-02-22T13:31:47Z</time>
      </trkpt>
      <trkpt lat="49.8168" lon="2.13148">
        <ele>127.3</ele>
        <time>2023-02-22T13:31:48Z</time>
      </trkpt>
      <trkpt lat="49.8168" lon="2.13148">
        <ele>127.3</ele>
        <time>2023-02-22T13:31:49Z</time>
      </trkpt>
      <trkpt lat="49.8168" lon="2.13148">
        <ele>127.3</ele>
        <time>2023-02-22T13:31:50Z</time>
      </trkpt>
      <trkpt lat="49.8168" lon="2.13148">
        <ele>127.3</ele>
        <time>2023-02-22T13:31:51Z</time>
      </trkpt>
      <trkpt lat="49.8168" lon="2.13148">
        <ele>127.3</ele>
        <time>2023-02-22T13:31:52Z</time>
      </trkpt>
      <trkpt lat="49.8168" lon="2.13148">
        <ele>127.3</ele>
        <time>2023-02-22T13:31:54Z</time>
      </trkpt>
      <trkpt lat="49.8168" lon="2.13148">
        <ele>127.3</ele>
        <time>2023-02-22T13:31:55Z</time>
      </trkpt>
      <trkpt lat="49.8168" lon="2.13148">
        <ele>127.3</ele>
        <time>2023-02-22T13:31:56Z</time>
      </trkpt>
      <trkpt lat="49.8168" lon="2.13148">
        <ele>127.3</ele>
        <time>2023-02-22T13:31:57Z</time>
      </trkpt>
      <trkpt lat="49.8168" lon="2.13148">
        <ele>127.3</ele>
        <time>2023-02-22T13:31:58Z</time>
      </trkpt>
      <trkpt lat="49.8168" lon="2.13148">
        <ele>127.3</ele>
        <time>2023-02-22T13:31:59Z</time>
      </trkpt>
      <trkpt lat="49.8168" lon="2.13148">
        <ele>127.3</ele>
        <time>2023-02-22T13:32:00Z</time>
      </trkpt>
      <trkpt lat="49.8168" lon="2.13148">
        <ele>127.3</ele>
        <time>2023-02-22T13:32:01Z</time>
      </trkpt>
      <trkpt lat="49.8168" lon="2.13148">
        <ele>127.3</ele>
        <time>2023-02-22T13:32:02Z</time>
      </trkpt>
      <trkpt lat="49.8168" lon="2.13148">
        <ele>127.3</ele>
        <time>2023-02-22T13:32:03Z</time>
      </trkpt>
      <trkpt lat="49.8168" lon="2.13148">
        <ele>127.3</ele>
        <time>2023-02-22T13:32:04Z</time>
      </trkpt>
      <trkpt lat="49.8168" lon="2.13148">
        <ele>127.3</ele>
        <time>2023-02-22T13:32:05Z</time>
      </trkpt>
      <trkpt lat="49.81681" lon="2.13149">
        <ele>127.3</ele>
        <time>2023-02-22T13:32:06Z</time>
      </trkpt>
      <trkpt lat="49.8168" lon="2.1315">
        <ele>127.3</ele>
        <time>2023-02-22T13:32:07Z</time>
      </trkpt>
      <trkpt lat="49.8168" lon="2.1315">
        <ele>127.3</ele>
        <time>2023-02-22T13:32:08Z</time>
      </trkpt>
      <trkpt lat="49.81679" lon="2.13151">
        <ele>127.3</ele>
        <time>2023-02-22T13:32:09Z</time>
      </trkpt>
      <trkpt lat="49.81679" lon="2.13152">
        <ele>127.3</ele>
        <time>2023-02-22T13:32:10Z</time>
      </trkpt>
      <trkpt lat="49.81678" lon="2.13153">
        <ele>127.3</ele>
        <time>2023-02-22T13:32:12Z</time>
      </trkpt>
      <trkpt lat="49.81677" lon="2.13155">
        <ele>127.3</ele>
        <time>2023-02-22T13:32:14Z</time>
      </trkpt>
      <trkpt lat="49.81677" lon="2.13155">
        <ele>127.3</ele>
        <time>2023-02-22T13:32:15Z</time>
      </trkpt>
      <trkpt lat="49.81677" lon="2.13156">
        <ele>127.2</ele>
        <time>2023-02-22T13:32:17Z</time>
      </trkpt>
      <trkpt lat="49.81677" lon="2.13155">
        <ele>127.2</ele>
        <time>2023-02-22T13:32:18Z</time>
      </trkpt>
      <trkpt lat="49.81677" lon="2.13155">
        <ele>127.2</ele>
        <time>2023-02-22T13:32:19Z</time>
      </trkpt>
      <trkpt lat="49.81677" lon="2.13155">
        <ele>127.2</ele>
        <time>2023-02-22T13:32:21Z</time>
      </trkpt>
      <trkpt lat="49.81677" lon="2.13155">
        <ele>127.2</ele>
        <time>2023-02-22T13:32:22Z</time>
      </trkpt>
      <trkpt lat="49.81677" lon="2.13155">
        <ele>127.2</ele>
        <time>2023-02-22T13:32:23Z</time>
      </trkpt>
      <trkpt lat="49.81677" lon="2.13155">
        <ele>127.2</ele>
        <time>2023-02-22T13:32:25Z</time>
      </trkpt>
      <trkpt lat="49.81677" lon="2.13155">
        <ele>127.2</ele>
        <time>2023-02-22T13:32:26Z</time>
      </trkpt>
      <trkpt lat="49.81677" lon="2.13155">
        <ele>127.2</ele>
        <time>2023-02-22T13:32:28Z</time>
      </trkpt>
      <trkpt lat="49.81677" lon="2.13155">
        <ele>127.2</ele>
        <time>2023-02-22T13:32:29Z</time>
      </trkpt>
      <trkpt lat="49.81677" lon="2.13155">
        <ele>127.2</ele>
        <time>2023-02-22T13:32:31Z</time>
      </trkpt>
      <trkpt lat="49.81677" lon="2.13155">
        <ele>127.2</ele>
        <time>2023-02-22T13:32:32Z</time>
      </trkpt>
      <trkpt lat="49.81677" lon="2.13155">
        <ele>127.2</ele>
        <time>2023-02-22T13:32:33Z</time>
      </trkpt>
      <trkpt lat="49.81677" lon="2.13155">
        <ele>127.2</ele>
        <time>2023-02-22T13:32:34Z</time>
      </trkpt>
      <trkpt lat="49.81677" lon="2.13155">
        <ele>127.2</ele>
        <time>2023-02-22T13:32:35Z</time>
      </trkpt>
      <trkpt lat="49.81677" lon="2.13155">
        <ele>127.2</ele>
        <time>2023-02-22T13:32:36Z</time>
      </trkpt>
      <trkpt lat="49.81677" lon="2.13155">
        <ele>127.2</ele>
        <time>2023-02-22T13:32:37Z</time>
      </trkpt>
      <trkpt lat="49.81676" lon="2.13156">
        <ele>127.2</ele>
        <time>2023-02-22T13:32:38Z</time>
      </trkpt>
      <trkpt lat="49.81675" lon="2.13157">
        <ele>127.2</ele>
        <time>2023-02-22T13:32:39Z</time>
      </trkpt>
      <trkpt lat="49.81675" lon="2.13157">
        <ele>127.2</ele>
        <time>2023-02-22T13:32:40Z</time>
      </trkpt>
      <trkpt lat="49.81674" lon="2.13157">
        <ele>127.2</ele>
        <time>2023-02-22T13:32:41Z</time>
      </trkpt>
      <trkpt lat="49.81674" lon="2.13157">
        <ele>127.1</ele>
        <time>2023-02-22T13:32:42Z</time>
      </trkpt>
      <trkpt lat="49.81674" lon="2.13157">
        <ele>127.1</ele>
        <time>2023-02-22T13:32:43Z</time>
      </trkpt>
      <trkpt lat="49.81673" lon="2.13158">
        <ele>127.1</ele>
        <time>2023-02-22T13:32:44Z</time>
      </trkpt>
      <trkpt lat="49.81673" lon="2.13158">
        <ele>127.1</ele>
        <time>2023-02-22T13:32:45Z</time>
      </trkpt>
      <trkpt lat="49.81672" lon="2.13159">
        <ele>127.1</ele>
        <time>2023-02-22T13:32:47Z</time>
      </trkpt>
      <trkpt lat="49.81672" lon="2.13159">
        <ele>127.1</ele>
        <time>2023-02-22T13:32:48Z</time>
      </trkpt>
      <trkpt lat="49.8167" lon="2.13159">
        <ele>127.1</ele>
        <time>2023-02-22T13:32:49Z</time>
      </trkpt>
      <trkpt lat="49.81669" lon="2.13159">
        <ele>127</ele>
        <time>2023-02-22T13:32:50Z</time>
      </trkpt>
      <trkpt lat="49.81668" lon="2.1316">
        <ele>127</ele>
        <time>2023-02-22T13:32:51Z</time>
      </trkpt>
      <trkpt lat="49.81667" lon="2.13159">
        <ele>127</ele>
        <time>2023-02-22T13:32:52Z</time>
      </trkpt>
      <trkpt lat="49.81666" lon="2.1316">
        <ele>127</ele>
        <time>2023-02-22T13:32:53Z</time>
      </trkpt>
      <trkpt lat="49.81665" lon="2.13161">
        <ele>127</ele>
        <time>2023-02-22T13:32:54Z</time>
      </trkpt>
      <trkpt lat="49.81664" lon="2.13161">
        <ele>126.9</ele>
        <time>2023-02-22T13:32:56Z</time>
      </trkpt>
      <trkpt lat="49.81663" lon="2.13162">
        <ele>126.9</ele>
        <time>2023-02-22T13:32:57Z</time>
      </trkpt>
      <trkpt lat="49.81662" lon="2.13162">
        <ele>126.9</ele>
        <time>2023-02-22T13:32:58Z</time>
      </trkpt>
      <trkpt lat="49.81661" lon="2.13163">
        <ele>126.9</ele>
        <time>2023-02-22T13:32:59Z</time>
      </trkpt>
      <trkpt lat="49.81661" lon="2.13163">
        <ele>126.9</ele>
        <time>2023-02-22T13:33:00Z</time>
      </trkpt>
      <trkpt lat="49.8166" lon="2.13164">
        <ele>126.8</ele>
        <time>2023-02-22T13:33:01Z</time>
      </trkpt>
      <trkpt lat="49.81659" lon="2.13165">
        <ele>126.8</ele>
        <time>2023-02-22T13:33:03Z</time>
      </trkpt>
      <trkpt lat="49.81658" lon="2.13166">
        <ele>126.8</ele>
        <time>2023-02-22T13:33:04Z</time>
      </trkpt>
      <trkpt lat="49.81657" lon="2.13169">
        <ele>126.7</ele>
        <time>2023-02-22T13:33:05Z</time>
      </trkpt>
      <trkpt lat="49.81656" lon="2.13171">
        <ele>126.7</ele>
        <time>2023-02-22T13:33:06Z</time>
      </trkpt>
      <trkpt lat="49.81655" lon="2.13173">
        <ele>126.7</ele>
        <time>2023-02-22T13:33:07Z</time>
      </trkpt>
      <trkpt lat="49.81653" lon="2.13177">
        <ele>126.6</ele>
        <time>2023-02-22T13:33:08Z</time>
      </trkpt>
      <trkpt lat="49.81653" lon="2.13178">
        <ele>126.6</ele>
        <time>2023-02-22T13:33:09Z</time>
      </trkpt>
      <trkpt lat="49.81651" lon="2.13181">
        <ele>126.5</ele>
        <time>2023-02-22T13:33:11Z</time>
      </trkpt>
      <trkpt lat="49.81651" lon="2.13182">
        <ele>126.5</ele>
        <time>2023-02-22T13:33:12Z</time>
      </trkpt>
      <trkpt lat="49.8165" lon="2.13185">
        <ele>126.4</ele>
        <time>2023-02-22T13:33:13Z</time>
      </trkpt>
      <trkpt lat="49.81648" lon="2.13186">
        <ele>126.3</ele>
        <time>2023-02-22T13:33:14Z</time>
      </trkpt>
      <trkpt lat="49.81647" lon="2.13188">
        <ele>126.3</ele>
        <time>2023-02-22T13:33:15Z</time>
      </trkpt>
      <trkpt lat="49.81646" lon="2.1319">
        <ele>126.3</ele>
        <time>2023-02-22T13:33:16Z</time>
      </trkpt>
      <trkpt lat="49.81646" lon="2.13191">
        <ele>126.2</ele>
        <time>2023-02-22T13:33:18Z</time>
      </trkpt>
      <trkpt lat="49.81645" lon="2.13193">
        <ele>126.2</ele>
        <time>2023-02-22T13:33:19Z</time>
      </trkpt>
      <trkpt lat="49.81644" lon="2.13194">
        <ele>126.1</ele>
        <time>2023-02-22T13:33:20Z</time>
      </trkpt>
      <trkpt lat="49.81643" lon="2.13195">
        <ele>126.1</ele>
        <time>2023-02-22T13:33:21Z</time>
      </trkpt>
      <trkpt lat="49.81643" lon="2.13197">
        <ele>126.1</ele>
        <time>2023-02-22T13:33:22Z</time>
      </trkpt>
      <trkpt lat="49.81642" lon="2.13198">
        <ele>126</ele>
        <time>2023-02-22T13:33:23Z</time>
      </trkpt>
      <trkpt lat="49.81641" lon="2.13199">
        <ele>126</ele>
        <time>2023-02-22T13:33:24Z</time>
      </trkpt>
      <trkpt lat="49.8164" lon="2.13201">
        <ele>125.9</ele>
        <time>2023-02-22T13:33:25Z</time>
      </trkpt>
      <trkpt lat="49.81637" lon="2.13203">
        <ele>125.8</ele>
        <time>2023-02-22T13:33:27Z</time>
      </trkpt>
      <trkpt lat="49.81637" lon="2.13204">
        <ele>125.8</ele>
        <time>2023-02-22T13:33:28Z</time>
      </trkpt>
      <trkpt lat="49.81634" lon="2.13207">
        <ele>125.6</ele>
        <time>2023-02-22T13:33:29Z</time>
      </trkpt>
      <trkpt lat="49.81634" lon="2.13208">
        <ele>125.6</ele>
        <time>2023-02-22T13:33:30Z</time>
      </trkpt>
      <trkpt lat="49.81631" lon="2.1321">
        <ele>125.5</ele>
        <time>2023-02-22T13:33:32Z</time>
      </trkpt>
      <trkpt lat="49.8163" lon="2.13211">
        <ele>125.4</ele>
        <time>2023-02-22T13:33:33Z</time>
      </trkpt>
      <trkpt lat="49.81628" lon="2.13213">
        <ele>125.3</ele>
        <time>2023-02-22T13:33:34Z</time>
      </trkpt>
      <trkpt lat="49.81627" lon="2.13213">
        <ele>125.3</ele>
        <time>2023-02-22T13:33:35Z</time>
      </trkpt>
      <trkpt lat="49.81625" lon="2.13213">
        <ele>125.2</ele>
        <time>2023-02-22T13:33:36Z</time>
      </trkpt>
      <trkpt lat="49.81624" lon="2.13213">
        <ele>125.2</ele>
        <time>2023-02-22T13:33:37Z</time>
      </trkpt>
      <trkpt lat="49.8162" lon="2.13214">
        <ele>125</ele>
        <time>2023-02-22T13:33:39Z</time>
      </trkpt>
      <trkpt lat="49.81619" lon="2.13215">
        <ele>124.9</ele>
        <time>2023-02-22T13:33:40Z</time>
      </trkpt>
      <trkpt lat="49.81618" lon="2.13215">
        <ele>124.9</ele>
        <time>2023-02-22T13:33:41Z</time>
      </trkpt>
      <trkpt lat="49.81617" lon="2.13216">
        <ele>124.9</ele>
        <time>2023-02-22T13:33:42Z</time>
      </trkpt>
      <trkpt lat="49.81614" lon="2.13218">
        <ele>124.7</ele>
        <time>2023-02-22T13:33:43Z</time>
      </trkpt>
      <trkpt lat="49.81613" lon="2.13219">
        <ele>124.7</ele>
        <time>2023-02-22T13:33:45Z</time>
      </trkpt>
      <trkpt lat="49.81612" lon="2.13219">
        <ele>124.6</ele>
        <time>2023-02-22T13:33:46Z</time>
      </trkpt>
      <trkpt lat="49.81611" lon="2.1322">
        <ele>124.6</ele>
        <time>2023-02-22T13:33:47Z</time>
      </trkpt>
      <trkpt lat="49.8161" lon="2.13221">
        <ele>124.5</ele>
        <time>2023-02-22T13:33:48Z</time>
      </trkpt>
      <trkpt lat="49.8161" lon="2.13222">
        <ele>124.5</ele>
        <time>2023-02-22T13:33:49Z</time>
      </trkpt>
      <trkpt lat="49.81609" lon="2.13222">
        <ele>124.4</ele>
        <time>2023-02-22T13:33:50Z</time>
      </trkpt>
      <trkpt lat="49.81608" lon="2.13223">
        <ele>124.4</ele>
        <time>2023-02-22T13:33:51Z</time>
      </trkpt>
      <trkpt lat="49.81607" lon="2.13225">
        <ele>124.3</ele>
        <time>2023-02-22T13:33:52Z</time>
      </trkpt>
      <trkpt lat="49.81606" lon="2.13227">
        <ele>124.2</ele>
        <time>2023-02-22T13:33:53Z</time>
      </trkpt>
      <trkpt lat="49.81606" lon="2.13228">
        <ele>124.2</ele>
        <time>2023-02-22T13:33:54Z</time>
      </trkpt>
      <trkpt lat="49.81606" lon="2.1323">
        <ele>124.1</ele>
        <time>2023-02-22T13:33:56Z</time>
      </trkpt>
      <trkpt lat="49.81606" lon="2.13232">
        <ele>124</ele>
        <time>2023-02-22T13:33:57Z</time>
      </trkpt>
      <trkpt lat="49.81605" lon="2.13234">
        <ele>124</ele>
        <time>2023-02-22T13:33:58Z</time>
      </trkpt>
      <trkpt lat="49.81604" lon="2.13236">
        <ele>123.9</ele>
        <time>2023-02-22T13:33:59Z</time>
      </trkpt>
      <trkpt lat="49.81604" lon="2.13237">
        <ele>123.8</ele>
        <time>2023-02-22T13:34:01Z</time>
      </trkpt>
      <trkpt lat="49.81603" lon="2.13238">
        <ele>123.8</ele>
        <time>2023-02-22T13:34:02Z</time>
      </trkpt>
      <trkpt lat="49.81603" lon="2.13239">
        <ele>123.7</ele>
        <time>2023-02-22T13:34:03Z</time>
      </trkpt>
      <trkpt lat="49.81602" lon="2.1324">
        <ele>123.7</ele>
        <time>2023-02-22T13:34:04Z</time>
      </trkpt>
      <trkpt lat="49.81602" lon="2.1324">
        <ele>123.7</ele>
        <time>2023-02-22T13:34:05Z</time>
      </trkpt>
      <trkpt lat="49.81601" lon="2.13241">
        <ele>123.6</ele>
        <time>2023-02-22T13:34:06Z</time>
      </trkpt>
      <trkpt lat="49.816" lon="2.13242">
        <ele>123.5</ele>
        <time>2023-02-22T13:34:07Z</time>
      </trkpt>
      <trkpt lat="49.81599" lon="2.13243">
        <ele>123.5</ele>
        <time>2023-02-22T13:34:08Z</time>
      </trkpt>
      <trkpt lat="49.81597" lon="2.13243">
        <ele>123.4</ele>
        <time>2023-02-22T13:34:09Z</time>
      </trkpt>
      <trkpt lat="49.81595" lon="2.13244">
        <ele>123.3</ele>
        <time>2023-02-22T13:34:10Z</time>
      </trkpt>
      <trkpt lat="49.81594" lon="2.13244">
        <ele>123.2</ele>
        <time>2023-02-22T13:34:12Z</time>
      </trkpt>
      <trkpt lat="49.81593" lon="2.13244">
        <ele>123.1</ele>
        <time>2023-02-22T13:34:13Z</time>
      </trkpt>
      <trkpt lat="49.81592" lon="2.13244">
        <ele>123.1</ele>
        <time>2023-02-22T13:34:14Z</time>
      </trkpt>
      <trkpt lat="49.8159" lon="2.13244">
        <ele>122.9</ele>
        <time>2023-02-22T13:34:15Z</time>
      </trkpt>
      <trkpt lat="49.81589" lon="2.13244">
        <ele>122.9</ele>
        <time>2023-02-22T13:34:16Z</time>
      </trkpt>
      <trkpt lat="49.81587" lon="2.13244">
        <ele>122.7</ele>
        <time>2023-02-22T13:34:17Z</time>
      </trkpt>
      <trkpt lat="49.81586" lon="2.13245">
        <ele>122.7</ele>
        <time>2023-02-22T13:34:18Z</time>
      </trkpt>
      <trkpt lat="49.81585" lon="2.13245">
        <ele>122.6</ele>
        <time>2023-02-22T13:34:19Z</time>
      </trkpt>
      <trkpt lat="49.81583" lon="2.13245">
        <ele>122.5</ele>
        <time>2023-02-22T13:34:20Z</time>
      </trkpt>
      <trkpt lat="49.81582" lon="2.13245">
        <ele>122.5</ele>
        <time>2023-02-22T13:34:21Z</time>
      </trkpt>
      <trkpt lat="49.8158" lon="2.13245">
        <ele>122.3</ele>
        <time>2023-02-22T13:34:22Z</time>
      </trkpt>
      <trkpt lat="49.81579" lon="2.13246">
        <ele>122.3</ele>
        <time>2023-02-22T13:34:24Z</time>
      </trkpt>
      <trkpt lat="49.81578" lon="2.13246">
        <ele>122.2</ele>
        <time>2023-02-22T13:34:25Z</time>
      </trkpt>
      <trkpt lat="49.81577" lon="2.13246">
        <ele>122.2</ele>
        <time>2023-02-22T13:34:26Z</time>
      </trkpt>
      <trkpt lat="49.81576" lon="2.13246">
        <ele>122.1</ele>
        <time>2023-02-22T13:34:27Z</time>
      </trkpt>
      <trkpt lat="49.81574" lon="2.13246">
        <ele>122</ele>
        <time>2023-02-22T13:34:29Z</time>
      </trkpt>
      <trkpt lat="49.81573" lon="2.13247">
        <ele>121.9</ele>
        <time>2023-02-22T13:34:30Z</time>
      </trkpt>
      <trkpt lat="49.81572" lon="2.13247">
        <ele>121.8</ele>
        <time>2023-02-22T13:34:31Z</time>
      </trkpt>
      <trkpt lat="49.81571" lon="2.13247">
        <ele>121.8</ele>
        <time>2023-02-22T13:34:32Z</time>
      </trkpt>
      <trkpt lat="49.81569" lon="2.13248">
        <ele>121.6</ele>
        <time>2023-02-22T13:34:33Z</time>
      </trkpt>
      <trkpt lat="49.81568" lon="2.13249">
        <ele>121.5</ele>
        <time>2023-02-22T13:34:34Z</time>
      </trkpt>
      <trkpt lat="49.81566" lon="2.13249">
        <ele>121.5</ele>
        <time>2023-02-22T13:34:35Z</time>
      </trkpt>
      <trkpt lat="49.81566" lon="2.1325">
        <ele>121.4</ele>
        <time>2023-02-22T13:34:36Z</time>
      </trkpt>
      <trkpt lat="49.81565" lon="2.1325">
        <ele>121.3</ele>
        <time>2023-02-22T13:34:37Z</time>
      </trkpt>
      <trkpt lat="49.81563" lon="2.13251">
        <ele>121.2</ele>
        <time>2023-02-22T13:34:38Z</time>
      </trkpt>
      <trkpt lat="49.81562" lon="2.13251">
        <ele>121.1</ele>
        <time>2023-02-22T13:34:39Z</time>
      </trkpt>
      <trkpt lat="49.81561" lon="2.13252">
        <ele>121</ele>
        <time>2023-02-22T13:34:40Z</time>
      </trkpt>
      <trkpt lat="49.8156" lon="2.13253">
        <ele>120.9</ele>
        <time>2023-02-22T13:34:41Z</time>
      </trkpt>
      <trkpt lat="49.81558" lon="2.13253">
        <ele>120.9</ele>
        <time>2023-02-22T13:34:43Z</time>
      </trkpt>
      <trkpt lat="49.81557" lon="2.13254">
        <ele>120.8</ele>
        <time>2023-02-22T13:34:44Z</time>
      </trkpt>
      <trkpt lat="49.81555" lon="2.13255">
        <ele>120.6</ele>
        <time>2023-02-22T13:34:45Z</time>
      </trkpt>
      <trkpt lat="49.81554" lon="2.13255">
        <ele>120.5</ele>
        <time>2023-02-22T13:34:46Z</time>
      </trkpt>
      <trkpt lat="49.81552" lon="2.13256">
        <ele>120.4</ele>
        <time>2023-02-22T13:34:47Z</time>
      </trkpt>
      <trkpt lat="49.81551" lon="2.13257">
        <ele>120.3</ele>
        <time>2023-02-22T13:34:48Z</time>
      </trkpt>
      <trkpt lat="49.81551" lon="2.13257">
        <ele>120.3</ele>
        <time>2023-02-22T13:34:49Z</time>
      </trkpt>
      <trkpt lat="49.81548" lon="2.13258">
        <ele>120</ele>
        <time>2023-02-22T13:34:50Z</time>
      </trkpt>
      <trkpt lat="49.81547" lon="2.13258">
        <ele>120</ele>
        <time>2023-02-22T13:34:52Z</time>
      </trkpt>
      <trkpt lat="49.81546" lon="2.13259">
        <ele>119.9</ele>
        <time>2023-02-22T13:34:53Z</time>
      </trkpt>
      <trkpt lat="49.81545" lon="2.13259">
        <ele>119.8</ele>
        <time>2023-02-22T13:34:54Z</time>
      </trkpt>
      <trkpt lat="49.81544" lon="2.1326">
        <ele>119.7</ele>
        <time>2023-02-22T13:34:55Z</time>
      </trkpt>
      <trkpt lat="49.81542" lon="2.13261">
        <ele>119.6</ele>
        <time>2023-02-22T13:34:56Z</time>
      </trkpt>
      <trkpt lat="49.81541" lon="2.13261">
        <ele>119.5</ele>
        <time>2023-02-22T13:34:57Z</time>
      </trkpt>
      <trkpt lat="49.81538" lon="2.13262">
        <ele>119.3</ele>
        <time>2023-02-22T13:34:58Z</time>
      </trkpt>
      <trkpt lat="49.81537" lon="2.13262">
        <ele>119.2</ele>
        <time>2023-02-22T13:34:59Z</time>
      </trkpt>
      <trkpt lat="49.81536" lon="2.13263">
        <ele>119.2</ele>
        <time>2023-02-22T13:35:00Z</time>
      </trkpt>
      <trkpt lat="49.81535" lon="2.13263">
        <ele>119.1</ele>
        <time>2023-02-22T13:35:02Z</time>
      </trkpt>
      <trkpt lat="49.81535" lon="2.13263">
        <ele>119</ele>
        <time>2023-02-22T13:35:03Z</time>
      </trkpt>
      <trkpt lat="49.81534" lon="2.13264">
        <ele>119</ele>
        <time>2023-02-22T13:35:04Z</time>
      </trkpt>
      <trkpt lat="49.81532" lon="2.13264">
        <ele>118.9</ele>
        <time>2023-02-22T13:35:05Z</time>
      </trkpt>
      <trkpt lat="49.81531" lon="2.13264">
        <ele>118.7</ele>
        <time>2023-02-22T13:35:06Z</time>
      </trkpt>
      <trkpt lat="49.8153" lon="2.13264">
        <ele>118.7</ele>
        <time>2023-02-22T13:35:07Z</time>
      </trkpt>
      <trkpt lat="49.81529" lon="2.13264">
        <ele>118.6</ele>
        <time>2023-02-22T13:35:09Z</time>
      </trkpt>
      <trkpt lat="49.81528" lon="2.13265">
        <ele>118.5</ele>
        <time>2023-02-22T13:35:10Z</time>
      </trkpt>
      <trkpt lat="49.81525" lon="2.13265">
        <ele>118.3</ele>
        <time>2023-02-22T13:35:11Z</time>
      </trkpt>
      <trkpt lat="49.81525" lon="2.13265">
        <ele>118.3</ele>
        <time>2023-02-22T13:35:12Z</time>
      </trkpt>
      <trkpt lat="49.81524" lon="2.13266">
        <ele>118.2</ele>
        <time>2023-02-22T13:35:13Z</time>
      </trkpt>
      <trkpt lat="49.81523" lon="2.13266">
        <ele>118.1</ele>
        <time>2023-02-22T13:35:14Z</time>
      </trkpt>
      <trkpt lat="49.81521" lon="2.13267">
        <ele>117.9</ele>
        <time>2023-02-22T13:35:15Z</time>
      </trkpt>
      <trkpt lat="49.8152" lon="2.13267">
        <ele>117.9</ele>
        <time>2023-02-22T13:35:17Z</time>
      </trkpt>
      <trkpt lat="49.81519" lon="2.13268">
        <ele>117.8</ele>
        <time>2023-02-22T13:35:18Z</time>
      </trkpt>
      <trkpt lat="49.81518" lon="2.13268">
        <ele>117.7</ele>
        <time>2023-02-22T13:35:19Z</time>
      </trkpt>
      <trkpt lat="49.81517" lon="2.13268">
        <ele>117.6</ele>
        <time>2023-02-22T13:35:20Z</time>
      </trkpt>
      <trkpt lat="49.81515" lon="2.13269">
        <ele>117.4</ele>
        <time>2023-02-22T13:35:21Z</time>
      </trkpt>
      <trkpt lat="49.81514" lon="2.13269">
        <ele>117.3</ele>
        <time>2023-02-22T13:35:22Z</time>
      </trkpt>
      <trkpt lat="49.81513" lon="2.13269">
        <ele>117.3</ele>
        <time>2023-02-22T13:35:23Z</time>
      </trkpt>
      <trkpt lat="49.81511" lon="2.1327">
        <ele>117.1</ele>
        <time>2023-02-22T13:35:25Z</time>
      </trkpt>
      <trkpt lat="49.8151" lon="2.1327">
        <ele>117</ele>
        <time>2023-02-22T13:35:26Z</time>
      </trkpt>
      <trkpt lat="49.81509" lon="2.1327">
        <ele>116.9</ele>
        <time>2023-02-22T13:35:27Z</time>
      </trkpt>
      <trkpt lat="49.81506" lon="2.13271">
        <ele>116.8</ele>
        <time>2023-02-22T13:35:28Z</time>
      </trkpt>
      <trkpt lat="49.81506" lon="2.13271">
        <ele>116.7</ele>
        <time>2023-02-22T13:35:30Z</time>
      </trkpt>
      <trkpt lat="49.81505" lon="2.13271">
        <ele>116.6</ele>
        <time>2023-02-22T13:35:31Z</time>
      </trkpt>
      <trkpt lat="49.81504" lon="2.13271">
        <ele>116.6</ele>
        <time>2023-02-22T13:35:32Z</time>
      </trkpt>
      <trkpt lat="49.81503" lon="2.13271">
        <ele>116.5</ele>
        <time>2023-02-22T13:35:33Z</time>
      </trkpt>
      <trkpt lat="49.81501" lon="2.13272">
        <ele>116.4</ele>
        <time>2023-02-22T13:35:34Z</time>
      </trkpt>
      <trkpt lat="49.815" lon="2.13272">
        <ele>116.3</ele>
        <time>2023-02-22T13:35:35Z</time>
      </trkpt>
      <trkpt lat="49.81499" lon="2.13272">
        <ele>116.2</ele>
        <time>2023-02-22T13:35:36Z</time>
      </trkpt>
      <trkpt lat="49.81498" lon="2.13273">
        <ele>116.1</ele>
        <time>2023-02-22T13:35:37Z</time>
      </trkpt>
      <trkpt lat="49.81496" lon="2.13273">
        <ele>116</ele>
        <time>2023-02-22T13:35:38Z</time>
      </trkpt>
      <trkpt lat="49.81495" lon="2.13273">
        <ele>115.9</ele>
        <time>2023-02-22T13:35:40Z</time>
      </trkpt>
      <trkpt lat="49.81494" lon="2.13274">
        <ele>115.7</ele>
        <time>2023-02-22T13:35:41Z</time>
      </trkpt>
      <trkpt lat="49.81493" lon="2.13274">
        <ele>115.3</ele>
        <time>2023-02-22T13:35:42Z</time>
      </trkpt>
      <trkpt lat="49.81492" lon="2.13275">
        <ele>114.9</ele>
        <time>2023-02-22T13:35:43Z</time>
      </trkpt>
      <trkpt lat="49.81491" lon="2.13275">
        <ele>114.4</ele>
        <time>2023-02-22T13:35:44Z</time>
      </trkpt>
      <trkpt lat="49.8149" lon="2.13275">
        <ele>114.3</ele>
        <time>2023-02-22T13:35:45Z</time>
      </trkpt>
      <trkpt lat="49.81489" lon="2.13276">
        <ele>113.6</ele>
        <time>2023-02-22T13:35:46Z</time>
      </trkpt>
      <trkpt lat="49.81488" lon="2.13276">
        <ele>113.2</ele>
        <time>2023-02-22T13:35:48Z</time>
      </trkpt>
      <trkpt lat="49.81487" lon="2.13276">
        <ele>112.9</ele>
        <time>2023-02-22T13:35:49Z</time>
      </trkpt>
      <trkpt lat="49.81486" lon="2.13276">
        <ele>112.4</ele>
        <time>2023-02-22T13:35:50Z</time>
      </trkpt>
      <trkpt lat="49.81483" lon="2.13277">
        <ele>111.6</ele>
        <time>2023-02-22T13:35:51Z</time>
      </trkpt>
      <trkpt lat="49.81483" lon="2.13277">
        <ele>111.2</ele>
        <time>2023-02-22T13:35:52Z</time>
      </trkpt>
      <trkpt lat="49.81482" lon="2.13278">
        <ele>110.9</ele>
        <time>2023-02-22T13:35:53Z</time>
      </trkpt>
      <trkpt lat="49.81481" lon="2.13278">
        <ele>110.5</ele>
        <time>2023-02-22T13:35:54Z</time>
      </trkpt>
      <trkpt lat="49.81479" lon="2.13278">
        <ele>109.9</ele>
        <time>2023-02-22T13:35:55Z</time>
      </trkpt>
      <trkpt lat="49.81478" lon="2.13279">
        <ele>109.4</ele>
        <time>2023-02-22T13:35:57Z</time>
      </trkpt>
      <trkpt lat="49.81477" lon="2.1328">
        <ele>109.1</ele>
        <time>2023-02-22T13:35:58Z</time>
      </trkpt>
      <trkpt lat="49.81477" lon="2.13281">
        <ele>108.8</ele>
        <time>2023-02-22T13:35:59Z</time>
      </trkpt>
      <trkpt lat="49.81476" lon="2.13282">
        <ele>108</ele>
        <time>2023-02-22T13:36:00Z</time>
      </trkpt>
      <trkpt lat="49.81475" lon="2.13284">
        <ele>107.9</ele>
        <time>2023-02-22T13:36:01Z</time>
      </trkpt>
      <trkpt lat="49.81475" lon="2.13285">
        <ele>107.9</ele>
        <time>2023-02-22T13:36:02Z</time>
      </trkpt>
      <trkpt lat="49.81475" lon="2.13288">
        <ele>107.9</ele>
        <time>2023-02-22T13:36:04Z</time>
      </trkpt>
      <trkpt lat="49.81476" lon="2.1329">
        <ele>107.8</ele>
        <time>2023-02-22T13:36:05Z</time>
      </trkpt>
      <trkpt lat="49.81476" lon="2.13293">
        <ele>107.8</ele>
        <time>2023-02-22T13:36:06Z</time>
      </trkpt>
      <trkpt lat="49.81477" lon="2.13295">
        <ele>107.8</ele>
        <time>2023-02-22T13:36:07Z</time>
      </trkpt>
      <trkpt lat="49.81478" lon="2.13296">
        <ele>107.7</ele>
        <time>2023-02-22T13:36:08Z</time>
      </trkpt>
      <trkpt lat="49.81479" lon="2.133">
        <ele>107.7</ele>
        <time>2023-02-22T13:36:09Z</time>
      </trkpt>
      <trkpt lat="49.8148" lon="2.13301">
        <ele>107.6</ele>
        <time>2023-02-22T13:36:11Z</time>
      </trkpt>
      <trkpt lat="49.8148" lon="2.13303">
        <ele>107.6</ele>
        <time>2023-02-22T13:36:12Z</time>
      </trkpt>
      <trkpt lat="49.81481" lon="2.13304">
        <ele>107.6</ele>
        <time>2023-02-22T13:36:13Z</time>
      </trkpt>
      <trkpt lat="49.81482" lon="2.13306">
        <ele>107.6</ele>
        <time>2023-02-22T13:36:14Z</time>
      </trkpt>
      <trkpt lat="49.81482" lon="2.13307">
        <ele>107.5</ele>
        <time>2023-02-22T13:36:15Z</time>
      </trkpt>
      <trkpt lat="49.81483" lon="2.13309">
        <ele>107.5</ele>
        <time>2023-02-22T13:36:16Z</time>
      </trkpt>
      <trkpt lat="49.81484" lon="2.1331">
        <ele>107.5</ele>
        <time>2023-02-22T13:36:17Z</time>
      </trkpt>
      <trkpt lat="49.81485" lon="2.13311">
        <ele>107.4</ele>
        <time>2023-02-22T13:36:18Z</time>
      </trkpt>
      <trkpt lat="49.81486" lon="2.13312">
        <ele>107.4</ele>
        <time>2023-02-22T13:36:19Z</time>
      </trkpt>
      <trkpt lat="49.81487" lon="2.13314">
        <ele>107.4</ele>
        <time>2023-02-22T13:36:21Z</time>
      </trkpt>
      <trkpt lat="49.81488" lon="2.13315">
        <ele>107.4</ele>
        <time>2023-02-22T13:36:22Z</time>
      </trkpt>
      <trkpt lat="49.81489" lon="2.13318">
        <ele>107.3</ele>
        <time>2023-02-22T13:36:23Z</time>
      </trkpt>
      <trkpt lat="49.81489" lon="2.13319">
        <ele>107.3</ele>
        <time>2023-02-22T13:36:24Z</time>
      </trkpt>
      <trkpt lat="49.8149" lon="2.13321">
        <ele>107.3</ele>
        <time>2023-02-22T13:36:25Z</time>
      </trkpt>
      <trkpt lat="49.8149" lon="2.13322">
        <ele>107.2</ele>
        <time>2023-02-22T13:36:26Z</time>
      </trkpt>
      <trkpt lat="49.81491" lon="2.13324">
        <ele>107.2</ele>
        <time>2023-02-22T13:36:27Z</time>
      </trkpt>
      <trkpt lat="49.81491" lon="2.13325">
        <ele>107.2</ele>
        <time>2023-02-22T13:36:28Z</time>
      </trkpt>
      <trkpt lat="49.81492" lon="2.13329">
        <ele>107.1</ele>
        <time>2023-02-22T13:36:29Z</time>
      </trkpt>
      <trkpt lat="49.81493" lon="2.1333">
        <ele>107.1</ele>
        <time>2023-02-22T13:36:31Z</time>
      </trkpt>
      <trkpt lat="49.81493" lon="2.13332">
        <ele>107.1</ele>
        <time>2023-02-22T13:36:32Z</time>
      </trkpt>
      <trkpt lat="49.81494" lon="2.13333">
        <ele>107</ele>
        <time>2023-02-22T13:36:33Z</time>
      </trkpt>
      <trkpt lat="49.81494" lon="2.13335">
        <ele>107</ele>
        <time>2023-02-22T13:36:34Z</time>
      </trkpt>
      <trkpt lat="49.81495" lon="2.13337">
        <ele>107</ele>
        <time>2023-02-22T13:36:35Z</time>
      </trkpt>
      <trkpt lat="49.81495" lon="2.13339">
        <ele>107</ele>
        <time>2023-02-22T13:36:36Z</time>
      </trkpt>
      <trkpt lat="49.81495" lon="2.13342">
        <ele>106.9</ele>
        <time>2023-02-22T13:36:37Z</time>
      </trkpt>
      <trkpt lat="49.81495" lon="2.13344">
        <ele>106.9</ele>
        <time>2023-02-22T13:36:38Z</time>
      </trkpt>
      <trkpt lat="49.81496" lon="2.13345">
        <ele>106.9</ele>
        <time>2023-02-22T13:36:39Z</time>
      </trkpt>
      <trkpt lat="49.81496" lon="2.13348">
        <ele>106.8</ele>
        <time>2023-02-22T13:36:41Z</time>
      </trkpt>
      <trkpt lat="49.81497" lon="2.1335">
        <ele>106.8</ele>
        <time>2023-02-22T13:36:42Z</time>
      </trkpt>
      <trkpt lat="49.81497" lon="2.13353">
        <ele>106.8</ele>
        <time>2023-02-22T13:36:43Z</time>
      </trkpt>
      <trkpt lat="49.81497" lon="2.13354">
        <ele>106.7</ele>
        <time>2023-02-22T13:36:44Z</time>
      </trkpt>
      <trkpt lat="49.81498" lon="2.13357">
        <ele>106.7</ele>
        <time>2023-02-22T13:36:45Z</time>
      </trkpt>
      <trkpt lat="49.81498" lon="2.13358">
        <ele>106.7</ele>
        <time>2023-02-22T13:36:47Z</time>
      </trkpt>
      <trkpt lat="49.81499" lon="2.13359">
        <ele>106.7</ele>
        <time>2023-02-22T13:36:48Z</time>
      </trkpt>
      <trkpt lat="49.815" lon="2.13363">
        <ele>106.6</ele>
        <time>2023-02-22T13:36:49Z</time>
      </trkpt>
      <trkpt lat="49.815" lon="2.13364">
        <ele>106.6</ele>
        <time>2023-02-22T13:36:50Z</time>
      </trkpt>
      <trkpt lat="49.815" lon="2.13365">
        <ele>106.6</ele>
        <time>2023-02-22T13:36:51Z</time>
      </trkpt>
      <trkpt lat="49.81501" lon="2.13367">
        <ele>106.6</ele>
        <time>2023-02-22T13:36:53Z</time>
      </trkpt>
      <trkpt lat="49.81501" lon="2.13369">
        <ele>106.5</ele>
        <time>2023-02-22T13:36:54Z</time>
      </trkpt>
      <trkpt lat="49.81502" lon="2.13371">
        <ele>106.5</ele>
        <time>2023-02-22T13:36:55Z</time>
      </trkpt>
      <trkpt lat="49.81502" lon="2.13373">
        <ele>106.5</ele>
        <time>2023-02-22T13:36:56Z</time>
      </trkpt>
      <trkpt lat="49.81502" lon="2.13374">
        <ele>106.5</ele>
        <time>2023-02-22T13:36:57Z</time>
      </trkpt>
      <trkpt lat="49.81503" lon="2.13376">
        <ele>106.5</ele>
        <time>2023-02-22T13:36:58Z</time>
      </trkpt>
      <trkpt lat="49.81503" lon="2.13379">
        <ele>106.4</ele>
        <time>2023-02-22T13:36:59Z</time>
      </trkpt>
      <trkpt lat="49.81504" lon="2.1338">
        <ele>106.4</ele>
        <time>2023-02-22T13:37:00Z</time>
      </trkpt>
      <trkpt lat="49.81504" lon="2.13381">
        <ele>106.4</ele>
        <time>2023-02-22T13:37:01Z</time>
      </trkpt>
      <trkpt lat="49.81504" lon="2.13383">
        <ele>106.4</ele>
        <time>2023-02-22T13:37:02Z</time>
      </trkpt>
      <trkpt lat="49.81505" lon="2.13384">
        <ele>106.3</ele>
        <time>2023-02-22T13:37:03Z</time>
      </trkpt>
      <trkpt lat="49.81506" lon="2.13387">
        <ele>106.3</ele>
        <time>2023-02-22T13:37:05Z</time>
      </trkpt>
      <trkpt lat="49.81507" lon="2.13392">
        <ele>106.2</ele>
        <time>2023-02-22T13:37:07Z</time>
      </trkpt>
      <trkpt lat="49.81507" lon="2.13393">
        <ele>106.2</ele>
        <time>2023-02-22T13:37:08Z</time>
      </trkpt>
      <trkpt lat="49.81508" lon="2.13395">
        <ele>106.2</ele>
        <time>2023-02-22T13:37:10Z</time>
      </trkpt>
      <trkpt lat="49.81508" lon="2.13396">
        <ele>106.2</ele>
        <time>2023-02-22T13:37:11Z</time>
      </trkpt>
      <trkpt lat="49.81508" lon="2.13397">
        <ele>106.2</ele>
        <time>2023-02-22T13:37:12Z</time>
      </trkpt>
      <trkpt lat="49.81509" lon="2.13399">
        <ele>106.2</ele>
        <time>2023-02-22T13:37:13Z</time>
      </trkpt>
      <trkpt lat="49.81509" lon="2.13401">
        <ele>106.1</ele>
        <time>2023-02-22T13:37:14Z</time>
      </trkpt>
      <trkpt lat="49.81509" lon="2.13403">
        <ele>106.1</ele>
        <time>2023-02-22T13:37:15Z</time>
      </trkpt>
      <trkpt lat="49.8151" lon="2.13406">
        <ele>106.1</ele>
        <time>2023-02-22T13:37:16Z</time>
      </trkpt>
      <trkpt lat="49.8151" lon="2.13407">
        <ele>106.1</ele>
        <time>2023-02-22T13:37:18Z</time>
      </trkpt>
      <trkpt lat="49.81511" lon="2.1341">
        <ele>106</ele>
        <time>2023-02-22T13:37:19Z</time>
      </trkpt>
      <trkpt lat="49.81511" lon="2.13412">
        <ele>106</ele>
        <time>2023-02-22T13:37:20Z</time>
      </trkpt>
      <trkpt lat="49.81512" lon="2.13414">
        <ele>106</ele>
        <time>2023-02-22T13:37:22Z</time>
      </trkpt>
      <trkpt lat="49.81512" lon="2.13415">
        <ele>106</ele>
        <time>2023-02-22T13:37:23Z</time>
      </trkpt>
      <trkpt lat="49.81512" lon="2.13419">
        <ele>106</ele>
        <time>2023-02-22T13:37:24Z</time>
      </trkpt>
      <trkpt lat="49.81513" lon="2.1342">
        <ele>105.9</ele>
        <time>2023-02-22T13:37:25Z</time>
      </trkpt>
      <trkpt lat="49.81513" lon="2.13422">
        <ele>105.9</ele>
        <time>2023-02-22T13:37:26Z</time>
      </trkpt>
      <trkpt lat="49.81513" lon="2.13423">
        <ele>105.9</ele>
        <time>2023-02-22T13:37:27Z</time>
      </trkpt>
      <trkpt lat="49.81514" lon="2.13425">
        <ele>105.9</ele>
        <time>2023-02-22T13:37:28Z</time>
      </trkpt>
      <trkpt lat="49.81514" lon="2.13427">
        <ele>105.9</ele>
        <time>2023-02-22T13:37:29Z</time>
      </trkpt>
      <trkpt lat="49.81515" lon="2.13429">
        <ele>105.9</ele>
        <time>2023-02-22T13:37:30Z</time>
      </trkpt>
      <trkpt lat="49.81515" lon="2.13431">
        <ele>105.8</ele>
        <time>2023-02-22T13:37:32Z</time>
      </trkpt>
      <trkpt lat="49.81516" lon="2.13432">
        <ele>105.8</ele>
        <time>2023-02-22T13:37:33Z</time>
      </trkpt>
      <trkpt lat="49.81516" lon="2.13435">
        <ele>105.8</ele>
        <time>2023-02-22T13:37:34Z</time>
      </trkpt>
      <trkpt lat="49.81517" lon="2.13437">
        <ele>105.8</ele>
        <time>2023-02-22T13:37:35Z</time>
      </trkpt>
      <trkpt lat="49.81517" lon="2.13439">
        <ele>105.8</ele>
        <time>2023-02-22T13:37:36Z</time>
      </trkpt>
      <trkpt lat="49.81518" lon="2.13441">
        <ele>105.7</ele>
        <time>2023-02-22T13:37:37Z</time>
      </trkpt>
      <trkpt lat="49.81519" lon="2.13443">
        <ele>105.7</ele>
        <time>2023-02-22T13:37:38Z</time>
      </trkpt>
      <trkpt lat="49.8152" lon="2.13446">
        <ele>105.6</ele>
        <time>2023-02-22T13:37:39Z</time>
      </trkpt>
      <trkpt lat="49.8152" lon="2.13447">
        <ele>105.6</ele>
        <time>2023-02-22T13:37:40Z</time>
      </trkpt>
      <trkpt lat="49.8152" lon="2.13449">
        <ele>105.6</ele>
        <time>2023-02-22T13:37:42Z</time>
      </trkpt>
      <trkpt lat="49.81521" lon="2.1345">
        <ele>105.5</ele>
        <time>2023-02-22T13:37:43Z</time>
      </trkpt>
      <trkpt lat="49.81521" lon="2.13452">
        <ele>105.5</ele>
        <time>2023-02-22T13:37:44Z</time>
      </trkpt>
      <trkpt lat="49.81522" lon="2.13453">
        <ele>105.4</ele>
        <time>2023-02-22T13:37:45Z</time>
      </trkpt>
      <trkpt lat="49.81522" lon="2.13455">
        <ele>105.4</ele>
        <time>2023-02-22T13:37:46Z</time>
      </trkpt>
      <trkpt lat="49.81523" lon="2.13457">
        <ele>105.3</ele>
        <time>2023-02-22T13:37:47Z</time>
      </trkpt>
      <trkpt lat="49.81524" lon="2.1346">
        <ele>105.2</ele>
        <time>2023-02-22T13:37:48Z</time>
      </trkpt>
      <trkpt lat="49.81524" lon="2.13461">
        <ele>105.1</ele>
        <time>2023-02-22T13:37:49Z</time>
      </trkpt>
      <trkpt lat="49.81525" lon="2.13464">
        <ele>105</ele>
        <time>2023-02-22T13:37:51Z</time>
      </trkpt>
      <trkpt lat="49.81525" lon="2.13466">
        <ele>104.9</ele>
        <time>2023-02-22T13:37:52Z</time>
      </trkpt>
      <trkpt lat="49.81525" lon="2.13467">
        <ele>105.2</ele>
        <time>2023-02-22T13:37:53Z</time>
      </trkpt>
      <trkpt lat="49.81526" lon="2.13468">
        <ele>105.2</ele>
        <time>2023-02-22T13:37:54Z</time>
      </trkpt>
      <trkpt lat="49.81526" lon="2.1347">
        <ele>105.1</ele>
        <time>2023-02-22T13:37:55Z</time>
      </trkpt>
      <trkpt lat="49.81527" lon="2.13472">
        <ele>105.1</ele>
        <time>2023-02-22T13:37:57Z</time>
      </trkpt>
      <trkpt lat="49.81527" lon="2.13473">
        <ele>105.1</ele>
        <time>2023-02-22T13:37:58Z</time>
      </trkpt>
      <trkpt lat="49.81527" lon="2.13474">
        <ele>105</ele>
        <time>2023-02-22T13:37:59Z</time>
      </trkpt>
      <trkpt lat="49.81528" lon="2.13477">
        <ele>105</ele>
        <time>2023-02-22T13:38:01Z</time>
      </trkpt>
      <trkpt lat="49.81528" lon="2.13477">
        <ele>105</ele>
        <time>2023-02-22T13:38:02Z</time>
      </trkpt>
      <trkpt lat="49.81528" lon="2.13479">
        <ele>105.3</ele>
        <time>2023-02-22T13:38:03Z</time>
      </trkpt>
      <trkpt lat="49.81529" lon="2.1348">
        <ele>105.3</ele>
        <time>2023-02-22T13:38:04Z</time>
      </trkpt>
      <trkpt lat="49.81529" lon="2.13481">
        <ele>105.3</ele>
        <time>2023-02-22T13:38:05Z</time>
      </trkpt>
      <trkpt lat="49.81529" lon="2.13482">
        <ele>105.3</ele>
        <time>2023-02-22T13:38:07Z</time>
      </trkpt>
      <trkpt lat="49.81529" lon="2.13483">
        <ele>105.1</ele>
        <time>2023-02-22T13:38:08Z</time>
      </trkpt>
      <trkpt lat="49.81529" lon="2.13484">
        <ele>105.1</ele>
        <time>2023-02-22T13:38:09Z</time>
      </trkpt>
      <trkpt lat="49.8153" lon="2.13484">
        <ele>105.1</ele>
        <time>2023-02-22T13:38:11Z</time>
      </trkpt>
      <trkpt lat="49.8153" lon="2.13484">
        <ele>105.2</ele>
        <time>2023-02-22T13:38:13Z</time>
      </trkpt>
      <trkpt lat="49.8153" lon="2.13483">
        <ele>105.2</ele>
        <time>2023-02-22T13:38:14Z</time>
      </trkpt>
      <trkpt lat="49.8153" lon="2.13483">
        <ele>105.2</ele>
        <time>2023-02-22T13:38:15Z</time>
      </trkpt>
      <trkpt lat="49.8153" lon="2.13482">
        <ele>105.2</ele>
        <time>2023-02-22T13:38:17Z</time>
      </trkpt>
      <trkpt lat="49.8153" lon="2.13482">
        <ele>105.3</ele>
        <time>2023-02-22T13:38:18Z</time>
      </trkpt>
      <trkpt lat="49.8153" lon="2.13481">
        <ele>105.3</ele>
        <time>2023-02-22T13:38:20Z</time>
      </trkpt>
      <trkpt lat="49.8153" lon="2.13481">
        <ele>105.3</ele>
        <time>2023-02-22T13:38:21Z</time>
      </trkpt>
      <trkpt lat="49.8153" lon="2.1348">
        <ele>105.3</ele>
        <time>2023-02-22T13:38:22Z</time>
      </trkpt>
      <trkpt lat="49.8153" lon="2.1348">
        <ele>105.3</ele>
        <time>2023-02-22T13:38:24Z</time>
      </trkpt>
      <trkpt lat="49.8153" lon="2.13479">
        <ele>105.3</ele>
        <time>2023-02-22T13:38:25Z</time>
      </trkpt>
      <trkpt lat="49.8153" lon="2.13479">
        <ele>105.3</ele>
        <time>2023-02-22T13:38:27Z</time>
      </trkpt>
      <trkpt lat="49.8153" lon="2.13477">
        <ele>105.5</ele>
        <time>2023-02-22T13:38:28Z</time>
      </trkpt>
      <trkpt lat="49.81529" lon="2.13475">
        <ele>105.5</ele>
        <time>2023-02-22T13:38:29Z</time>
      </trkpt>
      <trkpt lat="49.81529" lon="2.13475">
        <ele>105.5</ele>
        <time>2023-02-22T13:38:30Z</time>
      </trkpt>
      <trkpt lat="49.81529" lon="2.13474">
        <ele>105.5</ele>
        <time>2023-02-22T13:38:31Z</time>
      </trkpt>
      <trkpt lat="49.81529" lon="2.13474">
        <ele>105.5</ele>
        <time>2023-02-22T13:38:32Z</time>
      </trkpt>
      <trkpt lat="49.81529" lon="2.13474">
        <ele>105.5</ele>
        <time>2023-02-22T13:38:33Z</time>
      </trkpt>
      <trkpt lat="49.81529" lon="2.13474">
        <ele>105.5</ele>
        <time>2023-02-22T13:38:34Z</time>
      </trkpt>
      <trkpt lat="49.81529" lon="2.13474">
        <ele>105.5</ele>
        <time>2023-02-22T13:38:35Z</time>
      </trkpt>
      <trkpt lat="49.81529" lon="2.13474">
        <ele>105.5</ele>
        <time>2023-02-22T13:38:36Z</time>
      </trkpt>
      <trkpt lat="49.81528" lon="2.13473">
        <ele>105.6</ele>
        <time>2023-02-22T13:38:37Z</time>
      </trkpt>
      <trkpt lat="49.81528" lon="2.13473">
        <ele>105.3</ele>
        <time>2023-02-22T13:38:38Z</time>
      </trkpt>
      <trkpt lat="49.8153" lon="2.13474">
        <ele>105.7</ele>
        <time>2023-02-22T13:38:39Z</time>
      </trkpt>
      <trkpt lat="49.8153" lon="2.13474">
        <ele>105.7</ele>
        <time>2023-02-22T13:38:40Z</time>
      </trkpt>
      <trkpt lat="49.81531" lon="2.13473">
        <ele>105.7</ele>
        <time>2023-02-22T13:38:42Z</time>
      </trkpt>
      <trkpt lat="49.81531" lon="2.13473">
        <ele>105.7</ele>
        <time>2023-02-22T13:38:43Z</time>
      </trkpt>
      <trkpt lat="49.81532" lon="2.13474">
        <ele>106</ele>
        <time>2023-02-22T13:38:44Z</time>
      </trkpt>
      <trkpt lat="49.81532" lon="2.13474">
        <ele>105.9</ele>
        <time>2023-02-22T13:38:45Z</time>
      </trkpt>
      <trkpt lat="49.81532" lon="2.13475">
        <ele>105.9</ele>
        <time>2023-02-22T13:38:46Z</time>
      </trkpt>
      <trkpt lat="49.81533" lon="2.13477">
        <ele>105.9</ele>
        <time>2023-02-22T13:38:47Z</time>
      </trkpt>
      <trkpt lat="49.81533" lon="2.13478">
        <ele>105.8</ele>
        <time>2023-02-22T13:38:48Z</time>
      </trkpt>
      <trkpt lat="49.81533" lon="2.1348">
        <ele>105.8</ele>
        <time>2023-02-22T13:38:50Z</time>
      </trkpt>
      <trkpt lat="49.81533" lon="2.1348">
        <ele>105.8</ele>
        <time>2023-02-22T13:38:51Z</time>
      </trkpt>
      <trkpt lat="49.81533" lon="2.13481">
        <ele>105.8</ele>
        <time>2023-02-22T13:38:52Z</time>
      </trkpt>
      <trkpt lat="49.81533" lon="2.13482">
        <ele>105.8</ele>
        <time>2023-02-22T13:38:53Z</time>
      </trkpt>
      <trkpt lat="49.81534" lon="2.13483">
        <ele>106</ele>
        <time>2023-02-22T13:38:54Z</time>
      </trkpt>
      <trkpt lat="49.81534" lon="2.13484">
        <ele>106</ele>
        <time>2023-02-22T13:38:56Z</time>
      </trkpt>
      <trkpt lat="49.81535" lon="2.13484">
        <ele>106</ele>
        <time>2023-02-22T13:38:58Z</time>
      </trkpt>
      <trkpt lat="49.81536" lon="2.13484">
        <ele>106</ele>
        <time>2023-02-22T13:38:59Z</time>
      </trkpt>
      <trkpt lat="49.81536" lon="2.13484">
        <ele>106</ele>
        <time>2023-02-22T13:39:00Z</time>
      </trkpt>
      <trkpt lat="49.81536" lon="2.13484">
        <ele>106</ele>
        <time>2023-02-22T13:39:01Z</time>
      </trkpt>
      <trkpt lat="49.81536" lon="2.13484">
        <ele>106</ele>
        <time>2023-02-22T13:39:02Z</time>
      </trkpt>
      <trkpt lat="49.81536" lon="2.13484">
        <ele>106.4</ele>
        <time>2023-02-22T13:39:04Z</time>
      </trkpt>
      <trkpt lat="49.81537" lon="2.13484">
        <ele>106.4</ele>
        <time>2023-02-22T13:39:05Z</time>
      </trkpt>
      <trkpt lat="49.81537" lon="2.13483">
        <ele>106.4</ele>
        <time>2023-02-22T13:39:07Z</time>
      </trkpt>
      <trkpt lat="49.81538" lon="2.13482">
        <ele>106.5</ele>
        <time>2023-02-22T13:39:09Z</time>
      </trkpt>
      <trkpt lat="49.81538" lon="2.13482">
        <ele>106.5</ele>
        <time>2023-02-22T13:39:10Z</time>
      </trkpt>
      <trkpt lat="49.81538" lon="2.13483">
        <ele>106.4</ele>
        <time>2023-02-22T13:39:11Z</time>
      </trkpt>
      <trkpt lat="49.81538" lon="2.13485">
        <ele>106.4</ele>
        <time>2023-02-22T13:39:12Z</time>
      </trkpt>
      <trkpt lat="49.81538" lon="2.13487">
        <ele>106.3</ele>
        <time>2023-02-22T13:39:13Z</time>
      </trkpt>
      <trkpt lat="49.81539" lon="2.13492">
        <ele>106.1</ele>
        <time>2023-02-22T13:39:15Z</time>
      </trkpt>
      <trkpt lat="49.81539" lon="2.13493">
        <ele>106.1</ele>
        <time>2023-02-22T13:39:16Z</time>
      </trkpt>
      <trkpt lat="49.81539" lon="2.13496">
        <ele>106</ele>
        <time>2023-02-22T13:39:17Z</time>
      </trkpt>
      <trkpt lat="49.81539" lon="2.13498">
        <ele>106.3</ele>
        <time>2023-02-22T13:39:18Z</time>
      </trkpt>
      <trkpt lat="49.81539" lon="2.13499">
        <ele>106.3</ele>
        <time>2023-02-22T13:39:19Z</time>
      </trkpt>
      <trkpt lat="49.8154" lon="2.13501">
        <ele>106.2</ele>
        <time>2023-02-22T13:39:20Z</time>
      </trkpt>
      <trkpt lat="49.8154" lon="2.13503">
        <ele>106.2</ele>
        <time>2023-02-22T13:39:21Z</time>
      </trkpt>
      <trkpt lat="49.81541" lon="2.13504">
        <ele>106</ele>
        <time>2023-02-22T13:39:23Z</time>
      </trkpt>
      <trkpt lat="49.81541" lon="2.13507">
        <ele>106</ele>
        <time>2023-02-22T13:39:24Z</time>
      </trkpt>
      <trkpt lat="49.81542" lon="2.13509">
        <ele>106.2</ele>
        <time>2023-02-22T13:39:25Z</time>
      </trkpt>
      <trkpt lat="49.81543" lon="2.13511">
        <ele>106.2</ele>
        <time>2023-02-22T13:39:26Z</time>
      </trkpt>
      <trkpt lat="49.81544" lon="2.13513">
        <ele>106.1</ele>
        <time>2023-02-22T13:39:27Z</time>
      </trkpt>
      <trkpt lat="49.81545" lon="2.13515">
        <ele>106.1</ele>
        <time>2023-02-22T13:39:28Z</time>
      </trkpt>
      <trkpt lat="49.81545" lon="2.13516">
        <ele>106.4</ele>
        <time>2023-02-22T13:39:30Z</time>
      </trkpt>
      <trkpt lat="49.81546" lon="2.13517">
        <ele>106.2</ele>
        <time>2023-02-22T13:39:31Z</time>
      </trkpt>
      <trkpt lat="49.81546" lon="2.1352">
        <ele>106.2</ele>
        <time>2023-02-22T13:39:32Z</time>
      </trkpt>
      <trkpt lat="49.81547" lon="2.13522">
        <ele>106.1</ele>
        <time>2023-02-22T13:39:33Z</time>
      </trkpt>
      <trkpt lat="49.81547" lon="2.13523">
        <ele>106.1</ele>
        <time>2023-02-22T13:39:35Z</time>
      </trkpt>
      <trkpt lat="49.81547" lon="2.13525">
        <ele>106.1</ele>
        <time>2023-02-22T13:39:36Z</time>
      </trkpt>
      <trkpt lat="49.81547" lon="2.13526">
        <ele>105.9</ele>
        <time>2023-02-22T13:39:37Z</time>
      </trkpt>
      <trkpt lat="49.81548" lon="2.13531">
        <ele>106.1</ele>
        <time>2023-02-22T13:39:38Z</time>
      </trkpt>
      <trkpt lat="49.81549" lon="2.13532">
        <ele>106.1</ele>
        <time>2023-02-22T13:39:39Z</time>
      </trkpt>
      <trkpt lat="49.8155" lon="2.13536">
        <ele>105.9</ele>
        <time>2023-02-22T13:39:40Z</time>
      </trkpt>
      <trkpt lat="49.8155" lon="2.13538">
        <ele>105.7</ele>
        <time>2023-02-22T13:39:42Z</time>
      </trkpt>
      <trkpt lat="49.81551" lon="2.1354">
        <ele>106</ele>
        <time>2023-02-22T13:39:43Z</time>
      </trkpt>
      <trkpt lat="49.81551" lon="2.13542">
        <ele>106</ele>
        <time>2023-02-22T13:39:44Z</time>
      </trkpt>
      <trkpt lat="49.81552" lon="2.13546">
        <ele>105.9</ele>
        <time>2023-02-22T13:39:45Z</time>
      </trkpt>
      <trkpt lat="49.81552" lon="2.13547">
        <ele>105.7</ele>
        <time>2023-02-22T13:39:46Z</time>
      </trkpt>
      <trkpt lat="49.81552" lon="2.13548">
        <ele>105.7</ele>
        <time>2023-02-22T13:39:47Z</time>
      </trkpt>
      <trkpt lat="49.81553" lon="2.1355">
        <ele>105.7</ele>
        <time>2023-02-22T13:39:48Z</time>
      </trkpt>
      <trkpt lat="49.81553" lon="2.13553">
        <ele>105.8</ele>
        <time>2023-02-22T13:39:49Z</time>
      </trkpt>
      <trkpt lat="49.81554" lon="2.13556">
        <ele>105.7</ele>
        <time>2023-02-22T13:39:51Z</time>
      </trkpt>
      <trkpt lat="49.81554" lon="2.13557">
        <ele>105.7</ele>
        <time>2023-02-22T13:39:52Z</time>
      </trkpt>
      <trkpt lat="49.81555" lon="2.13559">
        <ele>105.7</ele>
        <time>2023-02-22T13:39:53Z</time>
      </trkpt>
      <trkpt lat="49.81555" lon="2.1356">
        <ele>105.5</ele>
        <time>2023-02-22T13:39:54Z</time>
      </trkpt>
      <trkpt lat="49.81555" lon="2.13562">
        <ele>105.5</ele>
        <time>2023-02-22T13:39:55Z</time>
      </trkpt>
      <trkpt lat="49.81556" lon="2.13564">
        <ele>105.5</ele>
        <time>2023-02-22T13:39:56Z</time>
      </trkpt>
      <trkpt lat="49.81556" lon="2.13565">
        <ele>105.7</ele>
        <time>2023-02-22T13:39:58Z</time>
      </trkpt>
      <trkpt lat="49.81556" lon="2.13567">
        <ele>105.7</ele>
        <time>2023-02-22T13:39:59Z</time>
      </trkpt>
      <trkpt lat="49.81557" lon="2.13569">
        <ele>105.5</ele>
        <time>2023-02-22T13:40:00Z</time>
      </trkpt>
      <trkpt lat="49.81557" lon="2.1357">
        <ele>105.5</ele>
        <time>2023-02-22T13:40:01Z</time>
      </trkpt>
      <trkpt lat="49.81557" lon="2.13572">
        <ele>105.5</ele>
        <time>2023-02-22T13:40:03Z</time>
      </trkpt>
      <trkpt lat="49.81557" lon="2.13573">
        <ele>105.3</ele>
        <time>2023-02-22T13:40:04Z</time>
      </trkpt>
      <trkpt lat="49.81558" lon="2.13575">
        <ele>105.3</ele>
        <time>2023-02-22T13:40:05Z</time>
      </trkpt>
      <trkpt lat="49.81558" lon="2.13576">
        <ele>105.3</ele>
        <time>2023-02-22T13:40:06Z</time>
      </trkpt>
      <trkpt lat="49.81558" lon="2.13578">
        <ele>105.1</ele>
        <time>2023-02-22T13:40:07Z</time>
      </trkpt>
      <trkpt lat="49.81559" lon="2.13579">
        <ele>105.5</ele>
        <time>2023-02-22T13:40:08Z</time>
      </trkpt>
      <trkpt lat="49.81559" lon="2.13581">
        <ele>105.5</ele>
        <time>2023-02-22T13:40:09Z</time>
      </trkpt>
      <trkpt lat="49.81561" lon="2.13583">
        <ele>105.3</ele>
        <time>2023-02-22T13:40:11Z</time>
      </trkpt>
      <trkpt lat="49.81561" lon="2.13584">
        <ele>105.3</ele>
        <time>2023-02-22T13:40:13Z</time>
      </trkpt>
      <trkpt lat="49.81562" lon="2.13585">
        <ele>105.7</ele>
        <time>2023-02-22T13:40:14Z</time>
      </trkpt>
      <trkpt lat="49.81562" lon="2.13587">
        <ele>105.5</ele>
        <time>2023-02-22T13:40:15Z</time>
      </trkpt>
      <trkpt lat="49.81563" lon="2.13588">
        <ele>105.5</ele>
        <time>2023-02-22T13:40:16Z</time>
      </trkpt>
      <trkpt lat="49.81564" lon="2.1359">
        <ele>105.5</ele>
        <time>2023-02-22T13:40:17Z</time>
      </trkpt>
      <trkpt lat="49.81565" lon="2.13593">
        <ele>105.7</ele>
        <time>2023-02-22T13:40:18Z</time>
      </trkpt>
      <trkpt lat="49.81566" lon="2.13594">
        <ele>105.7</ele>
        <time>2023-02-22T13:40:20Z</time>
      </trkpt>
      <trkpt lat="49.81566" lon="2.13595">
        <ele>105.6</ele>
        <time>2023-02-22T13:40:21Z</time>
      </trkpt>
      <trkpt lat="49.81567" lon="2.13596">
        <ele>105.6</ele>
        <time>2023-02-22T13:40:22Z</time>
      </trkpt>
      <trkpt lat="49.81567" lon="2.13598">
        <ele>105.9</ele>
        <time>2023-02-22T13:40:23Z</time>
      </trkpt>
      <trkpt lat="49.81568" lon="2.13599">
        <ele>105.8</ele>
        <time>2023-02-22T13:40:24Z</time>
      </trkpt>
      <trkpt lat="49.81568" lon="2.136">
        <ele>105.8</ele>
        <time>2023-02-22T13:40:25Z</time>
      </trkpt>
      <trkpt lat="49.81569" lon="2.13601">
        <ele>105.8</ele>
        <time>2023-02-22T13:40:26Z</time>
      </trkpt>
      <trkpt lat="49.81569" lon="2.13603">
        <ele>105.7</ele>
        <time>2023-02-22T13:40:28Z</time>
      </trkpt>
      <trkpt lat="49.81569" lon="2.13604">
        <ele>105.7</ele>
        <time>2023-02-22T13:40:29Z</time>
      </trkpt>
      <trkpt lat="49.8157" lon="2.13606">
        <ele>106</ele>
        <time>2023-02-22T13:40:30Z</time>
      </trkpt>
      <trkpt lat="49.81571" lon="2.13607">
        <ele>105.9</ele>
        <time>2023-02-22T13:40:32Z</time>
      </trkpt>
      <trkpt lat="49.81571" lon="2.13608">
        <ele>105.9</ele>
        <time>2023-02-22T13:40:33Z</time>
      </trkpt>
      <trkpt lat="49.81572" lon="2.1361">
        <ele>105.9</ele>
        <time>2023-02-22T13:40:34Z</time>
      </trkpt>
      <trkpt lat="49.81573" lon="2.13611">
        <ele>106.2</ele>
        <time>2023-02-22T13:40:35Z</time>
      </trkpt>
      <trkpt lat="49.81573" lon="2.13613">
        <ele>106.1</ele>
        <time>2023-02-22T13:40:36Z</time>
      </trkpt>
      <trkpt lat="49.81574" lon="2.13615">
        <ele>106.1</ele>
        <time>2023-02-22T13:40:38Z</time>
      </trkpt>
      <trkpt lat="49.81574" lon="2.13617">
        <ele>106</ele>
        <time>2023-02-22T13:40:39Z</time>
      </trkpt>
      <trkpt lat="49.81575" lon="2.13618">
        <ele>106</ele>
        <time>2023-02-22T13:40:40Z</time>
      </trkpt>
      <trkpt lat="49.81575" lon="2.13619">
        <ele>106</ele>
        <time>2023-02-22T13:40:41Z</time>
      </trkpt>
      <trkpt lat="49.81576" lon="2.13621">
        <ele>106.3</ele>
        <time>2023-02-22T13:40:42Z</time>
      </trkpt>
      <trkpt lat="49.81578" lon="2.13624">
        <ele>106.3</ele>
        <time>2023-02-22T13:40:44Z</time>
      </trkpt>
      <trkpt lat="49.81578" lon="2.13624">
        <ele>106.6</ele>
        <time>2023-02-22T13:40:46Z</time>
      </trkpt>
      <trkpt lat="49.81579" lon="2.13625">
        <ele>106.5</ele>
        <time>2023-02-22T13:40:47Z</time>
      </trkpt>
      <trkpt lat="49.81579" lon="2.13626">
        <ele>106.5</ele>
        <time>2023-02-22T13:40:48Z</time>
      </trkpt>
      <trkpt lat="49.8158" lon="2.13628">
        <ele>106.5</ele>
        <time>2023-02-22T13:40:49Z</time>
      </trkpt>
      <trkpt lat="49.81581" lon="2.13629">
        <ele>106.5</ele>
        <time>2023-02-22T13:40:51Z</time>
      </trkpt>
      <trkpt lat="49.81581" lon="2.1363">
        <ele>106.8</ele>
        <time>2023-02-22T13:40:52Z</time>
      </trkpt>
      <trkpt lat="49.81582" lon="2.1363">
        <ele>106.8</ele>
        <time>2023-02-22T13:40:53Z</time>
      </trkpt>
      <trkpt lat="49.81583" lon="2.13632">
        <ele>106.8</ele>
        <time>2023-02-22T13:40:54Z</time>
      </trkpt>
      <trkpt lat="49.81584" lon="2.13633">
        <ele>107.1</ele>
        <time>2023-02-22T13:40:55Z</time>
      </trkpt>
      <trkpt lat="49.81584" lon="2.13634">
        <ele>107.1</ele>
        <time>2023-02-22T13:40:56Z</time>
      </trkpt>
      <trkpt lat="49.81584" lon="2.13635">
        <ele>107.1</ele>
        <time>2023-02-22T13:40:57Z</time>
      </trkpt>
      <trkpt lat="49.81585" lon="2.13638">
        <ele>107.1</ele>
        <time>2023-02-22T13:40:58Z</time>
      </trkpt>
      <trkpt lat="49.81586" lon="2.13639">
        <ele>107.1</ele>
        <time>2023-02-22T13:41:00Z</time>
      </trkpt>
      <trkpt lat="49.81587" lon="2.1364">
        <ele>107.5</ele>
        <time>2023-02-22T13:41:02Z</time>
      </trkpt>
      <trkpt lat="49.81588" lon="2.13642">
        <ele>107.4</ele>
        <time>2023-02-22T13:41:03Z</time>
      </trkpt>
      <trkpt lat="49.81588" lon="2.13643">
        <ele>107.4</ele>
        <time>2023-02-22T13:41:04Z</time>
      </trkpt>
      <trkpt lat="49.81589" lon="2.13644">
        <ele>107.4</ele>
        <time>2023-02-22T13:41:05Z</time>
      </trkpt>
      <trkpt lat="49.8159" lon="2.13645">
        <ele>107.8</ele>
        <time>2023-02-22T13:41:06Z</time>
      </trkpt>
      <trkpt lat="49.81591" lon="2.13647">
        <ele>107.7</ele>
        <time>2023-02-22T13:41:07Z</time>
      </trkpt>
      <trkpt lat="49.81591" lon="2.13648">
        <ele>107.7</ele>
        <time>2023-02-22T13:41:09Z</time>
      </trkpt>
      <trkpt lat="49.81591" lon="2.1365">
        <ele>107.6</ele>
        <time>2023-02-22T13:41:10Z</time>
      </trkpt>
      <trkpt lat="49.81591" lon="2.13652">
        <ele>107.6</ele>
        <time>2023-02-22T13:41:11Z</time>
      </trkpt>
      <trkpt lat="49.81592" lon="2.13653">
        <ele>108</ele>
        <time>2023-02-22T13:41:12Z</time>
      </trkpt>
      <trkpt lat="49.81593" lon="2.13655">
        <ele>107.9</ele>
        <time>2023-02-22T13:41:14Z</time>
      </trkpt>
      <trkpt lat="49.81593" lon="2.13657">
        <ele>107.9</ele>
        <time>2023-02-22T13:41:15Z</time>
      </trkpt>
      <trkpt lat="49.81593" lon="2.13658">
        <ele>107.9</ele>
        <time>2023-02-22T13:41:16Z</time>
      </trkpt>
      <trkpt lat="49.81594" lon="2.13661">
        <ele>107.8</ele>
        <time>2023-02-22T13:41:17Z</time>
      </trkpt>
      <trkpt lat="49.81595" lon="2.13662">
        <ele>107.8</ele>
        <time>2023-02-22T13:41:18Z</time>
      </trkpt>
      <trkpt lat="49.81595" lon="2.13663">
        <ele>108</ele>
        <time>2023-02-22T13:41:20Z</time>
      </trkpt>
      <trkpt lat="49.81595" lon="2.13664">
        <ele>108</ele>
        <time>2023-02-22T13:41:21Z</time>
      </trkpt>
      <trkpt lat="49.81596" lon="2.13665">
        <ele>108</ele>
        <time>2023-02-22T13:41:22Z</time>
      </trkpt>
      <trkpt lat="49.81596" lon="2.13667">
        <ele>108</ele>
        <time>2023-02-22T13:41:23Z</time>
      </trkpt>
      <trkpt lat="49.81597" lon="2.13668">
        <ele>107.9</ele>
        <time>2023-02-22T13:41:24Z</time>
      </trkpt>
      <trkpt lat="49.81597" lon="2.1367">
        <ele>107.9</ele>
        <time>2023-02-22T13:41:25Z</time>
      </trkpt>
      <trkpt lat="49.81598" lon="2.13671">
        <ele>108.2</ele>
        <time>2023-02-22T13:41:26Z</time>
      </trkpt>
      <trkpt lat="49.81598" lon="2.13672">
        <ele>108</ele>
        <time>2023-02-22T13:41:28Z</time>
      </trkpt>
      <trkpt lat="49.81599" lon="2.13673">
        <ele>108</ele>
        <time>2023-02-22T13:41:29Z</time>
      </trkpt>
      <trkpt lat="49.81599" lon="2.13675">
        <ele>108</ele>
        <time>2023-02-22T13:41:30Z</time>
      </trkpt>
      <trkpt lat="49.81599" lon="2.13677">
        <ele>107.9</ele>
        <time>2023-02-22T13:41:31Z</time>
      </trkpt>
      <trkpt lat="49.816" lon="2.13678">
        <ele>107.9</ele>
        <time>2023-02-22T13:41:32Z</time>
      </trkpt>
      <trkpt lat="49.81601" lon="2.1368">
        <ele>108.2</ele>
        <time>2023-02-22T13:41:33Z</time>
      </trkpt>
      <trkpt lat="49.81601" lon="2.13681">
        <ele>108.1</ele>
        <time>2023-02-22T13:41:34Z</time>
      </trkpt>
      <trkpt lat="49.81602" lon="2.13683">
        <ele>108.1</ele>
        <time>2023-02-22T13:41:35Z</time>
      </trkpt>
      <trkpt lat="49.81602" lon="2.13685">
        <ele>107.9</ele>
        <time>2023-02-22T13:41:36Z</time>
      </trkpt>
      <trkpt lat="49.81603" lon="2.13688">
        <ele>108.2</ele>
        <time>2023-02-22T13:41:38Z</time>
      </trkpt>
      <trkpt lat="49.81603" lon="2.13689">
        <ele>108.1</ele>
        <time>2023-02-22T13:41:39Z</time>
      </trkpt>
      <trkpt lat="49.81604" lon="2.1369">
        <ele>108.1</ele>
        <time>2023-02-22T13:41:40Z</time>
      </trkpt>
      <trkpt lat="49.81604" lon="2.13692">
        <ele>108.1</ele>
        <time>2023-02-22T13:41:41Z</time>
      </trkpt>
      <trkpt lat="49.81605" lon="2.13694">
        <ele>107.9</ele>
        <time>2023-02-22T13:41:42Z</time>
      </trkpt>
      <trkpt lat="49.81605" lon="2.13695">
        <ele>107.9</ele>
        <time>2023-02-22T13:41:44Z</time>
      </trkpt>
      <trkpt lat="49.81606" lon="2.13698">
        <ele>108.1</ele>
        <time>2023-02-22T13:41:45Z</time>
      </trkpt>
      <trkpt lat="49.81606" lon="2.13699">
        <ele>108.1</ele>
        <time>2023-02-22T13:41:46Z</time>
      </trkpt>
      <trkpt lat="49.81607" lon="2.13701">
        <ele>108.1</ele>
        <time>2023-02-22T13:41:47Z</time>
      </trkpt>
      <trkpt lat="49.81608" lon="2.13703">
        <ele>107.9</ele>
        <time>2023-02-22T13:41:48Z</time>
      </trkpt>
      <trkpt lat="49.81608" lon="2.13704">
        <ele>107.9</ele>
        <time>2023-02-22T13:41:49Z</time>
      </trkpt>
      <trkpt lat="49.81609" lon="2.13706">
        <ele>108</ele>
        <time>2023-02-22T13:41:51Z</time>
      </trkpt>
      <trkpt lat="49.81609" lon="2.13707">
        <ele>108</ele>
        <time>2023-02-22T13:41:52Z</time>
      </trkpt>
      <trkpt lat="49.8161" lon="2.13709">
        <ele>108.1</ele>
        <time>2023-02-22T13:41:53Z</time>
      </trkpt>
      <trkpt lat="49.8161" lon="2.13711">
        <ele>107.8</ele>
        <time>2023-02-22T13:41:54Z</time>
      </trkpt>
      <trkpt lat="49.81611" lon="2.13713">
        <ele>107.9</ele>
        <time>2023-02-22T13:41:55Z</time>
      </trkpt>
      <trkpt lat="49.81611" lon="2.13715">
        <ele>107.6</ele>
        <time>2023-02-22T13:41:56Z</time>
      </trkpt>
      <trkpt lat="49.81611" lon="2.13717">
        <ele>107.6</ele>
        <time>2023-02-22T13:41:58Z</time>
      </trkpt>
      <trkpt lat="49.81611" lon="2.13718">
        <ele>107.7</ele>
        <time>2023-02-22T13:41:59Z</time>
      </trkpt>
      <trkpt lat="49.81612" lon="2.13721">
        <ele>107.8</ele>
        <time>2023-02-22T13:42:00Z</time>
      </trkpt>
      <trkpt lat="49.81612" lon="2.13722">
        <ele>107.8</ele>
        <time>2023-02-22T13:42:01Z</time>
      </trkpt>
      <trkpt lat="49.81613" lon="2.13725">
        <ele>107.6</ele>
        <time>2023-02-22T13:42:02Z</time>
      </trkpt>
      <trkpt lat="49.81613" lon="2.13726">
        <ele>107.5</ele>
        <time>2023-02-22T13:42:03Z</time>
      </trkpt>
      <trkpt lat="49.81613" lon="2.13728">
        <ele>107.4</ele>
        <time>2023-02-22T13:42:04Z</time>
      </trkpt>
      <trkpt lat="49.81614" lon="2.13729">
        <ele>107.4</ele>
        <time>2023-02-22T13:42:05Z</time>
      </trkpt>
      <trkpt lat="49.81614" lon="2.13731">
        <ele>107.3</ele>
        <time>2023-02-22T13:42:07Z</time>
      </trkpt>
      <trkpt lat="49.81614" lon="2.13732">
        <ele>107.2</ele>
        <time>2023-02-22T13:42:08Z</time>
      </trkpt>
      <trkpt lat="49.81615" lon="2.13734">
        <ele>107.1</ele>
        <time>2023-02-22T13:42:09Z</time>
      </trkpt>
      <trkpt lat="49.81615" lon="2.13736">
        <ele>107</ele>
        <time>2023-02-22T13:42:10Z</time>
      </trkpt>
      <trkpt lat="49.81616" lon="2.13737">
        <ele>106.9</ele>
        <time>2023-02-22T13:42:11Z</time>
      </trkpt>
      <trkpt lat="49.81617" lon="2.1374">
        <ele>106.7</ele>
        <time>2023-02-22T13:42:13Z</time>
      </trkpt>
      <trkpt lat="49.81618" lon="2.13742">
        <ele>106.6</ele>
        <time>2023-02-22T13:42:15Z</time>
      </trkpt>
      <trkpt lat="49.81619" lon="2.13743">
        <ele>106.4</ele>
        <time>2023-02-22T13:42:16Z</time>
      </trkpt>
      <trkpt lat="49.81619" lon="2.13744">
        <ele>106.3</ele>
        <time>2023-02-22T13:42:17Z</time>
      </trkpt>
      <trkpt lat="49.81619" lon="2.13746">
        <ele>106.3</ele>
        <time>2023-02-22T13:42:18Z</time>
      </trkpt>
      <trkpt lat="49.8162" lon="2.13747">
        <ele>106.2</ele>
        <time>2023-02-22T13:42:19Z</time>
      </trkpt>
      <trkpt lat="49.8162" lon="2.13749">
        <ele>106</ele>
        <time>2023-02-22T13:42:20Z</time>
      </trkpt>
      <trkpt lat="49.8162" lon="2.13751">
        <ele>105.9</ele>
        <time>2023-02-22T13:42:21Z</time>
      </trkpt>
      <trkpt lat="49.8162" lon="2.13752">
        <ele>105.8</ele>
        <time>2023-02-22T13:42:23Z</time>
      </trkpt>
      <trkpt lat="49.8162" lon="2.13754">
        <ele>105.7</ele>
        <time>2023-02-22T13:42:24Z</time>
      </trkpt>
      <trkpt lat="49.8162" lon="2.13757">
        <ele>105.6</ele>
        <time>2023-02-22T13:42:25Z</time>
      </trkpt>
      <trkpt lat="49.8162" lon="2.13758">
        <ele>105.5</ele>
        <time>2023-02-22T13:42:26Z</time>
      </trkpt>
      <trkpt lat="49.8162" lon="2.1376">
        <ele>105.4</ele>
        <time>2023-02-22T13:42:27Z</time>
      </trkpt>
      <trkpt lat="49.8162" lon="2.13762">
        <ele>105.3</ele>
        <time>2023-02-22T13:42:28Z</time>
      </trkpt>
      <trkpt lat="49.81621" lon="2.13764">
        <ele>105.1</ele>
        <time>2023-02-22T13:42:29Z</time>
      </trkpt>
      <trkpt lat="49.81621" lon="2.13765">
        <ele>105</ele>
        <time>2023-02-22T13:42:31Z</time>
      </trkpt>
      <trkpt lat="49.81621" lon="2.13767">
        <ele>105</ele>
        <time>2023-02-22T13:42:32Z</time>
      </trkpt>
      <trkpt lat="49.81622" lon="2.1377">
        <ele>104.8</ele>
        <time>2023-02-22T13:42:33Z</time>
      </trkpt>
      <trkpt lat="49.81622" lon="2.13771">
        <ele>104.7</ele>
        <time>2023-02-22T13:42:34Z</time>
      </trkpt>
      <trkpt lat="49.81622" lon="2.13773">
        <ele>104.6</ele>
        <time>2023-02-22T13:42:35Z</time>
      </trkpt>
      <trkpt lat="49.81622" lon="2.13774">
        <ele>104.5</ele>
        <time>2023-02-22T13:42:36Z</time>
      </trkpt>
      <trkpt lat="49.81622" lon="2.13775">
        <ele>104.4</ele>
        <time>2023-02-22T13:42:37Z</time>
      </trkpt>
      <trkpt lat="49.81621" lon="2.13777">
        <ele>104.3</ele>
        <time>2023-02-22T13:42:38Z</time>
      </trkpt>
      <trkpt lat="49.81621" lon="2.13779">
        <ele>104.2</ele>
        <time>2023-02-22T13:42:40Z</time>
      </trkpt>
      <trkpt lat="49.81621" lon="2.13781">
        <ele>104.1</ele>
        <time>2023-02-22T13:42:41Z</time>
      </trkpt>
      <trkpt lat="49.81621" lon="2.13782">
        <ele>104</ele>
        <time>2023-02-22T13:42:42Z</time>
      </trkpt>
      <trkpt lat="49.8162" lon="2.13785">
        <ele>103.8</ele>
        <time>2023-02-22T13:42:43Z</time>
      </trkpt>
      <trkpt lat="49.8162" lon="2.13787">
        <ele>103.7</ele>
        <time>2023-02-22T13:42:44Z</time>
      </trkpt>
      <trkpt lat="49.8162" lon="2.13788">
        <ele>103.6</ele>
        <time>2023-02-22T13:42:45Z</time>
      </trkpt>
      <trkpt lat="49.81621" lon="2.1379">
        <ele>103.5</ele>
        <time>2023-02-22T13:42:46Z</time>
      </trkpt>
      <trkpt lat="49.81621" lon="2.13792">
        <ele>103.4</ele>
        <time>2023-02-22T13:42:47Z</time>
      </trkpt>
      <trkpt lat="49.81621" lon="2.13793">
        <ele>103.3</ele>
        <time>2023-02-22T13:42:49Z</time>
      </trkpt>
      <trkpt lat="49.81621" lon="2.13796">
        <ele>103.1</ele>
        <time>2023-02-22T13:42:50Z</time>
      </trkpt>
      <trkpt lat="49.81622" lon="2.13797">
        <ele>103.1</ele>
        <time>2023-02-22T13:42:51Z</time>
      </trkpt>
      <trkpt lat="49.81622" lon="2.13798">
        <ele>103</ele>
        <time>2023-02-22T13:42:52Z</time>
      </trkpt>
      <trkpt lat="49.81622" lon="2.138">
        <ele>102.9</ele>
        <time>2023-02-22T13:42:53Z</time>
      </trkpt>
      <trkpt lat="49.81622" lon="2.13802">
        <ele>102.8</ele>
        <time>2023-02-22T13:42:54Z</time>
      </trkpt>
      <trkpt lat="49.81622" lon="2.13804">
        <ele>102.7</ele>
        <time>2023-02-22T13:42:55Z</time>
      </trkpt>
      <trkpt lat="49.81622" lon="2.13805">
        <ele>102.6</ele>
        <time>2023-02-22T13:42:56Z</time>
      </trkpt>
      <trkpt lat="49.81622" lon="2.13807">
        <ele>102.5</ele>
        <time>2023-02-22T13:42:58Z</time>
      </trkpt>
      <trkpt lat="49.81622" lon="2.13808">
        <ele>102.4</ele>
        <time>2023-02-22T13:42:59Z</time>
      </trkpt>
      <trkpt lat="49.81622" lon="2.13812">
        <ele>102.3</ele>
        <time>2023-02-22T13:43:00Z</time>
      </trkpt>
      <trkpt lat="49.81622" lon="2.13813">
        <ele>102.2</ele>
        <time>2023-02-22T13:43:01Z</time>
      </trkpt>
      <trkpt lat="49.81622" lon="2.13815">
        <ele>102.1</ele>
        <time>2023-02-22T13:43:02Z</time>
      </trkpt>
      <trkpt lat="49.81622" lon="2.13817">
        <ele>102.1</ele>
        <time>2023-02-22T13:43:03Z</time>
      </trkpt>
      <trkpt lat="49.81623" lon="2.1382">
        <ele>102</ele>
        <time>2023-02-22T13:43:04Z</time>
      </trkpt>
      <trkpt lat="49.81623" lon="2.13823">
        <ele>101.8</ele>
        <time>2023-02-22T13:43:05Z</time>
      </trkpt>
      <trkpt lat="49.81623" lon="2.13824">
        <ele>101.8</ele>
        <time>2023-02-22T13:43:07Z</time>
      </trkpt>
      <trkpt lat="49.81622" lon="2.13826">
        <ele>101.7</ele>
        <time>2023-02-22T13:43:08Z</time>
      </trkpt>
      <trkpt lat="49.81622" lon="2.13828">
        <ele>101.6</ele>
        <time>2023-02-22T13:43:09Z</time>
      </trkpt>
      <trkpt lat="49.81622" lon="2.13831">
        <ele>101.5</ele>
        <time>2023-02-22T13:43:10Z</time>
      </trkpt>
      <trkpt lat="49.81622" lon="2.13832">
        <ele>101.4</ele>
        <time>2023-02-22T13:43:11Z</time>
      </trkpt>
      <trkpt lat="49.81622" lon="2.13836">
        <ele>101.3</ele>
        <time>2023-02-22T13:43:12Z</time>
      </trkpt>
      <trkpt lat="49.81622" lon="2.13837">
        <ele>101.2</ele>
        <time>2023-02-22T13:43:13Z</time>
      </trkpt>
      <trkpt lat="49.81622" lon="2.13839">
        <ele>101.2</ele>
        <time>2023-02-22T13:43:14Z</time>
      </trkpt>
      <trkpt lat="49.81622" lon="2.13841">
        <ele>101</ele>
        <time>2023-02-22T13:43:16Z</time>
      </trkpt>
      <trkpt lat="49.81622" lon="2.13842">
        <ele>101</ele>
        <time>2023-02-22T13:43:17Z</time>
      </trkpt>
      <trkpt lat="49.81622" lon="2.13844">
        <ele>100.9</ele>
        <time>2023-02-22T13:43:18Z</time>
      </trkpt>
      <trkpt lat="49.81622" lon="2.13846">
        <ele>100.8</ele>
        <time>2023-02-22T13:43:19Z</time>
      </trkpt>
      <trkpt lat="49.81622" lon="2.13849">
        <ele>100.6</ele>
        <time>2023-02-22T13:43:20Z</time>
      </trkpt>
      <trkpt lat="49.81622" lon="2.1385">
        <ele>100.5</ele>
        <time>2023-02-22T13:43:21Z</time>
      </trkpt>
      <trkpt lat="49.81623" lon="2.13852">
        <ele>100.4</ele>
        <time>2023-02-22T13:43:22Z</time>
      </trkpt>
      <trkpt lat="49.81623" lon="2.13854">
        <ele>100.3</ele>
        <time>2023-02-22T13:43:23Z</time>
      </trkpt>
      <trkpt lat="49.81623" lon="2.13856">
        <ele>100.2</ele>
        <time>2023-02-22T13:43:25Z</time>
      </trkpt>
      <trkpt lat="49.81623" lon="2.13857">
        <ele>100.1</ele>
        <time>2023-02-22T13:43:26Z</time>
      </trkpt>
      <trkpt lat="49.81623" lon="2.13859">
        <ele>100.1</ele>
        <time>2023-02-22T13:43:27Z</time>
      </trkpt>
      <trkpt lat="49.81624" lon="2.13862">
        <ele>99.9</ele>
        <time>2023-02-22T13:43:28Z</time>
      </trkpt>
      <trkpt lat="49.81624" lon="2.13864">
        <ele>99.8</ele>
        <time>2023-02-22T13:43:29Z</time>
      </trkpt>
      <trkpt lat="49.81624" lon="2.13865">
        <ele>99.7</ele>
        <time>2023-02-22T13:43:30Z</time>
      </trkpt>
      <trkpt lat="49.81624" lon="2.13867">
        <ele>99.6</ele>
        <time>2023-02-22T13:43:31Z</time>
      </trkpt>
      <trkpt lat="49.81625" lon="2.13868">
        <ele>99.5</ele>
        <time>2023-02-22T13:43:32Z</time>
      </trkpt>
      <trkpt lat="49.81625" lon="2.1387">
        <ele>99.4</ele>
        <time>2023-02-22T13:43:34Z</time>
      </trkpt>
      <trkpt lat="49.81625" lon="2.13872">
        <ele>99.3</ele>
        <time>2023-02-22T13:43:35Z</time>
      </trkpt>
      <trkpt lat="49.81626" lon="2.13874">
        <ele>99.2</ele>
        <time>2023-02-22T13:43:36Z</time>
      </trkpt>
      <trkpt lat="49.81626" lon="2.13875">
        <ele>99.1</ele>
        <time>2023-02-22T13:43:37Z</time>
      </trkpt>
      <trkpt lat="49.81627" lon="2.13879">
        <ele>98.9</ele>
        <time>2023-02-22T13:43:38Z</time>
      </trkpt>
      <trkpt lat="49.81627" lon="2.1388">
        <ele>98.8</ele>
        <time>2023-02-22T13:43:39Z</time>
      </trkpt>
      <trkpt lat="49.81627" lon="2.13882">
        <ele>98.7</ele>
        <time>2023-02-22T13:43:40Z</time>
      </trkpt>
      <trkpt lat="49.81627" lon="2.13883">
        <ele>98.6</ele>
        <time>2023-02-22T13:43:41Z</time>
      </trkpt>
      <trkpt lat="49.81627" lon="2.13885">
        <ele>98.5</ele>
        <time>2023-02-22T13:43:42Z</time>
      </trkpt>
      <trkpt lat="49.81627" lon="2.13887">
        <ele>98.4</ele>
        <time>2023-02-22T13:43:44Z</time>
      </trkpt>
      <trkpt lat="49.81627" lon="2.13888">
        <ele>98.4</ele>
        <time>2023-02-22T13:43:45Z</time>
      </trkpt>
      <trkpt lat="49.81628" lon="2.1389">
        <ele>98.2</ele>
        <time>2023-02-22T13:43:46Z</time>
      </trkpt>
      <trkpt lat="49.81628" lon="2.13892">
        <ele>98.2</ele>
        <time>2023-02-22T13:43:47Z</time>
      </trkpt>
      <trkpt lat="49.81628" lon="2.13895">
        <ele>98</ele>
        <time>2023-02-22T13:43:48Z</time>
      </trkpt>
      <trkpt lat="49.81629" lon="2.13896">
        <ele>97.9</ele>
        <time>2023-02-22T13:43:49Z</time>
      </trkpt>
      <trkpt lat="49.81629" lon="2.13898">
        <ele>97.9</ele>
        <time>2023-02-22T13:43:50Z</time>
      </trkpt>
      <trkpt lat="49.81629" lon="2.13899">
        <ele>97.8</ele>
        <time>2023-02-22T13:43:52Z</time>
      </trkpt>
      <trkpt lat="49.81629" lon="2.139">
        <ele>97.8</ele>
        <time>2023-02-22T13:43:53Z</time>
      </trkpt>
      <trkpt lat="49.81629" lon="2.13902">
        <ele>97.7</ele>
        <time>2023-02-22T13:43:54Z</time>
      </trkpt>
      <trkpt lat="49.8163" lon="2.13904">
        <ele>97.6</ele>
        <time>2023-02-22T13:43:55Z</time>
      </trkpt>
      <trkpt lat="49.8163" lon="2.13906">
        <ele>97.5</ele>
        <time>2023-02-22T13:43:56Z</time>
      </trkpt>
      <trkpt lat="49.8163" lon="2.1391">
        <ele>97.3</ele>
        <time>2023-02-22T13:43:57Z</time>
      </trkpt>
      <trkpt lat="49.8163" lon="2.13911">
        <ele>97.2</ele>
        <time>2023-02-22T13:43:58Z</time>
      </trkpt>
      <trkpt lat="49.8163" lon="2.13913">
        <ele>97.2</ele>
        <time>2023-02-22T13:43:59Z</time>
      </trkpt>
      <trkpt lat="49.8163" lon="2.13917">
        <ele>97</ele>
        <time>2023-02-22T13:44:01Z</time>
      </trkpt>
      <trkpt lat="49.8163" lon="2.13918">
        <ele>97</ele>
        <time>2023-02-22T13:44:02Z</time>
      </trkpt>
      <trkpt lat="49.8163" lon="2.13919">
        <ele>96.9</ele>
        <time>2023-02-22T13:44:03Z</time>
      </trkpt>
      <trkpt lat="49.81631" lon="2.13921">
        <ele>96.8</ele>
        <time>2023-02-22T13:44:04Z</time>
      </trkpt>
      <trkpt lat="49.81631" lon="2.13923">
        <ele>96.7</ele>
        <time>2023-02-22T13:44:05Z</time>
      </trkpt>
      <trkpt lat="49.81631" lon="2.13925">
        <ele>96.6</ele>
        <time>2023-02-22T13:44:06Z</time>
      </trkpt>
      <trkpt lat="49.81631" lon="2.13927">
        <ele>96.6</ele>
        <time>2023-02-22T13:44:07Z</time>
      </trkpt>
      <trkpt lat="49.81631" lon="2.13929">
        <ele>96.5</ele>
        <time>2023-02-22T13:44:09Z</time>
      </trkpt>
      <trkpt lat="49.81631" lon="2.1393">
        <ele>96.4</ele>
        <time>2023-02-22T13:44:10Z</time>
      </trkpt>
      <trkpt lat="49.81631" lon="2.13932">
        <ele>96.3</ele>
        <time>2023-02-22T13:44:11Z</time>
      </trkpt>
      <trkpt lat="49.81631" lon="2.13934">
        <ele>96.3</ele>
        <time>2023-02-22T13:44:12Z</time>
      </trkpt>
      <trkpt lat="49.81632" lon="2.13936">
        <ele>96.2</ele>
        <time>2023-02-22T13:44:13Z</time>
      </trkpt>
      <trkpt lat="49.81632" lon="2.13938">
        <ele>96.1</ele>
        <time>2023-02-22T13:44:15Z</time>
      </trkpt>
      <trkpt lat="49.81632" lon="2.13939">
        <ele>95.8</ele>
        <time>2023-02-22T13:44:16Z</time>
      </trkpt>
      <trkpt lat="49.81632" lon="2.13941">
        <ele>95.8</ele>
        <time>2023-02-22T13:44:18Z</time>
      </trkpt>
      <trkpt lat="49.81632" lon="2.13942">
        <ele>95.8</ele>
        <time>2023-02-22T13:44:19Z</time>
      </trkpt>
      <trkpt lat="49.81633" lon="2.13943">
        <ele>95.8</ele>
        <time>2023-02-22T13:44:20Z</time>
      </trkpt>
      <trkpt lat="49.81633" lon="2.13946">
        <ele>95.8</ele>
        <time>2023-02-22T13:44:22Z</time>
      </trkpt>
      <trkpt lat="49.81633" lon="2.13948">
        <ele>96.8</ele>
        <time>2023-02-22T13:44:24Z</time>
      </trkpt>
      <trkpt lat="49.81633" lon="2.13949">
        <ele>96.8</ele>
        <time>2023-02-22T13:44:25Z</time>
      </trkpt>
      <trkpt lat="49.81633" lon="2.13949">
        <ele>96.8</ele>
        <time>2023-02-22T13:44:27Z</time>
      </trkpt>
      <trkpt lat="49.81633" lon="2.13948">
        <ele>96.8</ele>
        <time>2023-02-22T13:44:28Z</time>
      </trkpt>
      <trkpt lat="49.81633" lon="2.13948">
        <ele>96.8</ele>
        <time>2023-02-22T13:44:30Z</time>
      </trkpt>
      <trkpt lat="49.81632" lon="2.13948">
        <ele>96.8</ele>
        <time>2023-02-22T13:44:31Z</time>
      </trkpt>
      <trkpt lat="49.81632" lon="2.13948">
        <ele>96.8</ele>
        <time>2023-02-22T13:44:32Z</time>
      </trkpt>
      <trkpt lat="49.81632" lon="2.13948">
        <ele>96.8</ele>
        <time>2023-02-22T13:44:34Z</time>
      </trkpt>
      <trkpt lat="49.81632" lon="2.13948">
        <ele>96.8</ele>
        <time>2023-02-22T13:44:35Z</time>
      </trkpt>
      <trkpt lat="49.81632" lon="2.13948">
        <ele>96.8</ele>
        <time>2023-02-22T13:44:37Z</time>
      </trkpt>
      <trkpt lat="49.81632" lon="2.13948">
        <ele>96.8</ele>
        <time>2023-02-22T13:44:38Z</time>
      </trkpt>
      <trkpt lat="49.81632" lon="2.13948">
        <ele>96.8</ele>
        <time>2023-02-22T13:44:39Z</time>
      </trkpt>
      <trkpt lat="49.81632" lon="2.13947">
        <ele>96.8</ele>
        <time>2023-02-22T13:44:40Z</time>
      </trkpt>
      <trkpt lat="49.81632" lon="2.13947">
        <ele>96.8</ele>
        <time>2023-02-22T13:44:41Z</time>
      </trkpt>
      <trkpt lat="49.81632" lon="2.13947">
        <ele>96.8</ele>
        <time>2023-02-22T13:44:42Z</time>
      </trkpt>
      <trkpt lat="49.81632" lon="2.13947">
        <ele>96.8</ele>
        <time>2023-02-22T13:44:43Z</time>
      </trkpt>
      <trkpt lat="49.81632" lon="2.13947">
        <ele>96.8</ele>
        <time>2023-02-22T13:44:44Z</time>
      </trkpt>
      <trkpt lat="49.81632" lon="2.13947">
        <ele>96.8</ele>
        <time>2023-02-22T13:44:45Z</time>
      </trkpt>
      <trkpt lat="49.81632" lon="2.13947">
        <ele>96.8</ele>
        <time>2023-02-22T13:44:46Z</time>
      </trkpt>
      <trkpt lat="49.81632" lon="2.13947">
        <ele>96.8</ele>
        <time>2023-02-22T13:44:47Z</time>
      </trkpt>
      <trkpt lat="49.81632" lon="2.13947">
        <ele>96.8</ele>
        <time>2023-02-22T13:44:48Z</time>
      </trkpt>
      <trkpt lat="49.81632" lon="2.13947">
        <ele>96.8</ele>
        <time>2023-02-22T13:44:49Z</time>
      </trkpt>
      <trkpt lat="49.81632" lon="2.13946">
        <ele>96.8</ele>
        <time>2023-02-22T13:44:50Z</time>
      </trkpt>
      <trkpt lat="49.81632" lon="2.13946">
        <ele>96.8</ele>
        <time>2023-02-22T13:44:51Z</time>
      </trkpt>
      <trkpt lat="49.81632" lon="2.13946">
        <ele>96.8</ele>
        <time>2023-02-22T13:44:52Z</time>
      </trkpt>
      <trkpt lat="49.81632" lon="2.13946">
        <ele>96.8</ele>
        <time>2023-02-22T13:44:53Z</time>
      </trkpt>
      <trkpt lat="49.81632" lon="2.13946">
        <ele>96.8</ele>
        <time>2023-02-22T13:44:54Z</time>
      </trkpt>
      <trkpt lat="49.81632" lon="2.13946">
        <ele>96.8</ele>
        <time>2023-02-22T13:44:56Z</time>
      </trkpt>
      <trkpt lat="49.81632" lon="2.13946">
        <ele>96.8</ele>
        <time>2023-02-22T13:44:57Z</time>
      </trkpt>
      <trkpt lat="49.81632" lon="2.13946">
        <ele>96.8</ele>
        <time>2023-02-22T13:44:58Z</time>
      </trkpt>
      <trkpt lat="49.81632" lon="2.13946">
        <ele>96.8</ele>
        <time>2023-02-22T13:44:59Z</time>
      </trkpt>
      <trkpt lat="49.81632" lon="2.13945">
        <ele>96.8</ele>
        <time>2023-02-22T13:45:00Z</time>
      </trkpt>
      <trkpt lat="49.81632" lon="2.13945">
        <ele>96.9</ele>
        <time>2023-02-22T13:45:01Z</time>
      </trkpt>
      <trkpt lat="49.81632" lon="2.13945">
        <ele>96.9</ele>
        <time>2023-02-22T13:45:02Z</time>
      </trkpt>
      <trkpt lat="49.81632" lon="2.13945">
        <ele>96.9</ele>
        <time>2023-02-22T13:45:03Z</time>
      </trkpt>
      <trkpt lat="49.81632" lon="2.13945">
        <ele>96.9</ele>
        <time>2023-02-22T13:45:04Z</time>
      </trkpt>
      <trkpt lat="49.81632" lon="2.13945">
        <ele>96.9</ele>
        <time>2023-02-22T13:45:05Z</time>
      </trkpt>
      <trkpt lat="49.81632" lon="2.13945">
        <ele>96.9</ele>
        <time>2023-02-22T13:45:06Z</time>
      </trkpt>
      <trkpt lat="49.81632" lon="2.13945">
        <ele>96.9</ele>
        <time>2023-02-22T13:45:07Z</time>
      </trkpt>
      <trkpt lat="49.81632" lon="2.13945">
        <ele>96.9</ele>
        <time>2023-02-22T13:45:08Z</time>
      </trkpt>
      <trkpt lat="49.81632" lon="2.13945">
        <ele>96.9</ele>
        <time>2023-02-22T13:45:09Z</time>
      </trkpt>
      <trkpt lat="49.81632" lon="2.13944">
        <ele>96.9</ele>
        <time>2023-02-22T13:45:10Z</time>
      </trkpt>
      <trkpt lat="49.81632" lon="2.13944">
        <ele>96.9</ele>
        <time>2023-02-22T13:45:11Z</time>
      </trkpt>
      <trkpt lat="49.81632" lon="2.13944">
        <ele>96.9</ele>
        <time>2023-02-22T13:45:12Z</time>
      </trkpt>
      <trkpt lat="49.81632" lon="2.13944">
        <ele>96.9</ele>
        <time>2023-02-22T13:45:13Z</time>
      </trkpt>
      <trkpt lat="49.81632" lon="2.13944">
        <ele>96.9</ele>
        <time>2023-02-22T13:45:14Z</time>
      </trkpt>
      <trkpt lat="49.81632" lon="2.13944">
        <ele>96.9</ele>
        <time>2023-02-22T13:45:15Z</time>
      </trkpt>
      <trkpt lat="49.81632" lon="2.13944">
        <ele>96.9</ele>
        <time>2023-02-22T13:45:16Z</time>
      </trkpt>
      <trkpt lat="49.81632" lon="2.13944">
        <ele>96.9</ele>
        <time>2023-02-22T13:45:17Z</time>
      </trkpt>
      <trkpt lat="49.81632" lon="2.13944">
        <ele>96.9</ele>
        <time>2023-02-22T13:45:18Z</time>
      </trkpt>
      <trkpt lat="49.81632" lon="2.13944">
        <ele>96.9</ele>
        <time>2023-02-22T13:45:19Z</time>
      </trkpt>
      <trkpt lat="49.81632" lon="2.13943">
        <ele>96.9</ele>
        <time>2023-02-22T13:45:20Z</time>
      </trkpt>
      <trkpt lat="49.81632" lon="2.13943">
        <ele>96.9</ele>
        <time>2023-02-22T13:45:21Z</time>
      </trkpt>
      <trkpt lat="49.81632" lon="2.13943">
        <ele>96.9</ele>
        <time>2023-02-22T13:45:22Z</time>
      </trkpt>
      <trkpt lat="49.81632" lon="2.13943">
        <ele>96.9</ele>
        <time>2023-02-22T13:45:23Z</time>
      </trkpt>
      <trkpt lat="49.81632" lon="2.13943">
        <ele>96.9</ele>
        <time>2023-02-22T13:45:24Z</time>
      </trkpt>
      <trkpt lat="49.81632" lon="2.13943">
        <ele>96.9</ele>
        <time>2023-02-22T13:45:25Z</time>
      </trkpt>
      <trkpt lat="49.81632" lon="2.13943">
        <ele>96.9</ele>
        <time>2023-02-22T13:45:26Z</time>
      </trkpt>
      <trkpt lat="49.81632" lon="2.13943">
        <ele>96.9</ele>
        <time>2023-02-22T13:45:27Z</time>
      </trkpt>
      <trkpt lat="49.81632" lon="2.13943">
        <ele>96.9</ele>
        <time>2023-02-22T13:45:28Z</time>
      </trkpt>
      <trkpt lat="49.81632" lon="2.13942">
        <ele>96.9</ele>
        <time>2023-02-22T13:45:29Z</time>
      </trkpt>
      <trkpt lat="49.81632" lon="2.13942">
        <ele>96.9</ele>
        <time>2023-02-22T13:45:30Z</time>
      </trkpt>
      <trkpt lat="49.81632" lon="2.13942">
        <ele>96.9</ele>
        <time>2023-02-22T13:45:31Z</time>
      </trkpt>
      <trkpt lat="49.81632" lon="2.13942">
        <ele>96.9</ele>
        <time>2023-02-22T13:45:32Z</time>
      </trkpt>
      <trkpt lat="49.81632" lon="2.13942">
        <ele>96.9</ele>
        <time>2023-02-22T13:45:33Z</time>
      </trkpt>
      <trkpt lat="49.81632" lon="2.13942">
        <ele>96.9</ele>
        <time>2023-02-22T13:45:34Z</time>
      </trkpt>
      <trkpt lat="49.81632" lon="2.13942">
        <ele>96.9</ele>
        <time>2023-02-22T13:45:35Z</time>
      </trkpt>
      <trkpt lat="49.81632" lon="2.13942">
        <ele>96.9</ele>
        <time>2023-02-22T13:45:36Z</time>
      </trkpt>
      <trkpt lat="49.81632" lon="2.13942">
        <ele>96.9</ele>
        <time>2023-02-22T13:45:37Z</time>
      </trkpt>
      <trkpt lat="49.81632" lon="2.13942">
        <ele>96.9</ele>
        <time>2023-02-22T13:45:38Z</time>
      </trkpt>
      <trkpt lat="49.81632" lon="2.13941">
        <ele>96.9</ele>
        <time>2023-02-22T13:45:39Z</time>
      </trkpt>
      <trkpt lat="49.81632" lon="2.13941">
        <ele>96.9</ele>
        <time>2023-02-22T13:45:40Z</time>
      </trkpt>
      <trkpt lat="49.81632" lon="2.13941">
        <ele>96.9</ele>
        <time>2023-02-22T13:45:41Z</time>
      </trkpt>
      <trkpt lat="49.81632" lon="2.13941">
        <ele>96.9</ele>
        <time>2023-02-22T13:45:42Z</time>
      </trkpt>
      <trkpt lat="49.81632" lon="2.13941">
        <ele>96.9</ele>
        <time>2023-02-22T13:45:43Z</time>
      </trkpt>
      <trkpt lat="49.81632" lon="2.13941">
        <ele>96.9</ele>
        <time>2023-02-22T13:45:44Z</time>
      </trkpt>
      <trkpt lat="49.81632" lon="2.13941">
        <ele>96.9</ele>
        <time>2023-02-22T13:45:45Z</time>
      </trkpt>
      <trkpt lat="49.81632" lon="2.13941">
        <ele>96.9</ele>
        <time>2023-02-22T13:45:46Z</time>
      </trkpt>
      <trkpt lat="49.81632" lon="2.13941">
        <ele>96.9</ele>
        <time>2023-02-22T13:45:47Z</time>
      </trkpt>
      <trkpt lat="49.81632" lon="2.1394">
        <ele>97</ele>
        <time>2023-02-22T13:45:48Z</time>
      </trkpt>
      <trkpt lat="49.81631" lon="2.13941">
        <ele>97</ele>
        <time>2023-02-22T13:45:49Z</time>
      </trkpt>
      <trkpt lat="49.81631" lon="2.13942">
        <ele>97</ele>
        <time>2023-02-22T13:45:50Z</time>
      </trkpt>
      <trkpt lat="49.8163" lon="2.13943">
        <ele>97</ele>
        <time>2023-02-22T13:45:51Z</time>
      </trkpt>
      <trkpt lat="49.81629" lon="2.13944">
        <ele>97.1</ele>
        <time>2023-02-22T13:45:52Z</time>
      </trkpt>
      <trkpt lat="49.81629" lon="2.13944">
        <ele>97.1</ele>
        <time>2023-02-22T13:45:53Z</time>
      </trkpt>
      <trkpt lat="49.81628" lon="2.13946">
        <ele>97.1</ele>
        <time>2023-02-22T13:45:54Z</time>
      </trkpt>
      <trkpt lat="49.81628" lon="2.13947">
        <ele>97.2</ele>
        <time>2023-02-22T13:45:55Z</time>
      </trkpt>
      <trkpt lat="49.81627" lon="2.13951">
        <ele>97.2</ele>
        <time>2023-02-22T13:45:56Z</time>
      </trkpt>
      <trkpt lat="49.81627" lon="2.13952">
        <ele>97.3</ele>
        <time>2023-02-22T13:45:57Z</time>
      </trkpt>
      <trkpt lat="49.81628" lon="2.13954">
        <ele>97.3</ele>
        <time>2023-02-22T13:45:58Z</time>
      </trkpt>
      <trkpt lat="49.81628" lon="2.13956">
        <ele>97.3</ele>
        <time>2023-02-22T13:45:59Z</time>
      </trkpt>
      <trkpt lat="49.81628" lon="2.13956">
        <ele>97.3</ele>
        <time>2023-02-22T13:46:01Z</time>
      </trkpt>
      <trkpt lat="49.81629" lon="2.13957">
        <ele>97.4</ele>
        <time>2023-02-22T13:46:02Z</time>
      </trkpt>
      <trkpt lat="49.81629" lon="2.13958">
        <ele>97.4</ele>
        <time>2023-02-22T13:46:03Z</time>
      </trkpt>
      <trkpt lat="49.8163" lon="2.13959">
        <ele>97.4</ele>
        <time>2023-02-22T13:46:04Z</time>
      </trkpt>
      <trkpt lat="49.81631" lon="2.13961">
        <ele>97.5</ele>
        <time>2023-02-22T13:46:05Z</time>
      </trkpt>
      <trkpt lat="49.81631" lon="2.13962">
        <ele>97.5</ele>
        <time>2023-02-22T13:46:06Z</time>
      </trkpt>
      <trkpt lat="49.81632" lon="2.13963">
        <ele>97.5</ele>
        <time>2023-02-22T13:46:08Z</time>
      </trkpt>
      <trkpt lat="49.81633" lon="2.13965">
        <ele>97.6</ele>
        <time>2023-02-22T13:46:09Z</time>
      </trkpt>
      <trkpt lat="49.81634" lon="2.13966">
        <ele>97.6</ele>
        <time>2023-02-22T13:46:10Z</time>
      </trkpt>
      <trkpt lat="49.81635" lon="2.13968">
        <ele>97.7</ele>
        <time>2023-02-22T13:46:11Z</time>
      </trkpt>
      <trkpt lat="49.81636" lon="2.13971">
        <ele>97.7</ele>
        <time>2023-02-22T13:46:12Z</time>
      </trkpt>
      <trkpt lat="49.81636" lon="2.13972">
        <ele>97.8</ele>
        <time>2023-02-22T13:46:14Z</time>
      </trkpt>
      <trkpt lat="49.81636" lon="2.13973">
        <ele>97.8</ele>
        <time>2023-02-22T13:46:15Z</time>
      </trkpt>
      <trkpt lat="49.81638" lon="2.13977">
        <ele>97.9</ele>
        <time>2023-02-22T13:46:16Z</time>
      </trkpt>
      <trkpt lat="49.81639" lon="2.13978">
        <ele>97.9</ele>
        <time>2023-02-22T13:46:17Z</time>
      </trkpt>
      <trkpt lat="49.8164" lon="2.1398">
        <ele>98</ele>
        <time>2023-02-22T13:46:18Z</time>
      </trkpt>
      <trkpt lat="49.81641" lon="2.13982">
        <ele>98.1</ele>
        <time>2023-02-22T13:46:19Z</time>
      </trkpt>
      <trkpt lat="49.81642" lon="2.13983">
        <ele>98.1</ele>
        <time>2023-02-22T13:46:21Z</time>
      </trkpt>
      <trkpt lat="49.81643" lon="2.13985">
        <ele>98.2</ele>
        <time>2023-02-22T13:46:22Z</time>
      </trkpt>
      <trkpt lat="49.81644" lon="2.13988">
        <ele>98.2</ele>
        <time>2023-02-22T13:46:23Z</time>
      </trkpt>
      <trkpt lat="49.81644" lon="2.13989">
        <ele>98.3</ele>
        <time>2023-02-22T13:46:24Z</time>
      </trkpt>
      <trkpt lat="49.81645" lon="2.1399">
        <ele>98.3</ele>
        <time>2023-02-22T13:46:25Z</time>
      </trkpt>
      <trkpt lat="49.81646" lon="2.13992">
        <ele>98.4</ele>
        <time>2023-02-22T13:46:26Z</time>
      </trkpt>
      <trkpt lat="49.81647" lon="2.13993">
        <ele>98.4</ele>
        <time>2023-02-22T13:46:27Z</time>
      </trkpt>
      <trkpt lat="49.81648" lon="2.13995">
        <ele>98.5</ele>
        <time>2023-02-22T13:46:29Z</time>
      </trkpt>
      <trkpt lat="49.81648" lon="2.13996">
        <ele>98.5</ele>
        <time>2023-02-22T13:46:30Z</time>
      </trkpt>
      <trkpt lat="49.81649" lon="2.13997">
        <ele>98.5</ele>
        <time>2023-02-22T13:46:31Z</time>
      </trkpt>
      <trkpt lat="49.81651" lon="2.14">
        <ele>98.6</ele>
        <time>2023-02-22T13:46:32Z</time>
      </trkpt>
      <trkpt lat="49.81651" lon="2.14">
        <ele>98.7</ele>
        <time>2023-02-22T13:46:33Z</time>
      </trkpt>
      <trkpt lat="49.81652" lon="2.14001">
        <ele>98.7</ele>
        <time>2023-02-22T13:46:34Z</time>
      </trkpt>
      <trkpt lat="49.81653" lon="2.14002">
        <ele>98.7</ele>
        <time>2023-02-22T13:46:35Z</time>
      </trkpt>
      <trkpt lat="49.81654" lon="2.14004">
        <ele>98.8</ele>
        <time>2023-02-22T13:46:36Z</time>
      </trkpt>
      <trkpt lat="49.81655" lon="2.14004">
        <ele>98.8</ele>
        <time>2023-02-22T13:46:38Z</time>
      </trkpt>
      <trkpt lat="49.81656" lon="2.14005">
        <ele>98.9</ele>
        <time>2023-02-22T13:46:39Z</time>
      </trkpt>
      <trkpt lat="49.81657" lon="2.14006">
        <ele>98.9</ele>
        <time>2023-02-22T13:46:40Z</time>
      </trkpt>
      <trkpt lat="49.81658" lon="2.14008">
        <ele>99</ele>
        <time>2023-02-22T13:46:41Z</time>
      </trkpt>
      <trkpt lat="49.81659" lon="2.14009">
        <ele>99</ele>
        <time>2023-02-22T13:46:42Z</time>
      </trkpt>
      <trkpt lat="49.8166" lon="2.1401">
        <ele>99</ele>
        <time>2023-02-22T13:46:43Z</time>
      </trkpt>
      <trkpt lat="49.81661" lon="2.14011">
        <ele>99.1</ele>
        <time>2023-02-22T13:46:44Z</time>
      </trkpt>
      <trkpt lat="49.81661" lon="2.14012">
        <ele>99.1</ele>
        <time>2023-02-22T13:46:46Z</time>
      </trkpt>
      <trkpt lat="49.81662" lon="2.14013">
        <ele>99.2</ele>
        <time>2023-02-22T13:46:47Z</time>
      </trkpt>
      <trkpt lat="49.81663" lon="2.14015">
        <ele>99.2</ele>
        <time>2023-02-22T13:46:48Z</time>
      </trkpt>
      <trkpt lat="49.81664" lon="2.14016">
        <ele>99.3</ele>
        <time>2023-02-22T13:46:49Z</time>
      </trkpt>
      <trkpt lat="49.81665" lon="2.14017">
        <ele>99.3</ele>
        <time>2023-02-22T13:46:50Z</time>
      </trkpt>
      <trkpt lat="49.81666" lon="2.14019">
        <ele>99.4</ele>
        <time>2023-02-22T13:46:51Z</time>
      </trkpt>
      <trkpt lat="49.81667" lon="2.1402">
        <ele>99.4</ele>
        <time>2023-02-22T13:46:53Z</time>
      </trkpt>
      <trkpt lat="49.81669" lon="2.14022">
        <ele>99.5</ele>
        <time>2023-02-22T13:46:54Z</time>
      </trkpt>
      <trkpt lat="49.81669" lon="2.14023">
        <ele>99.5</ele>
        <time>2023-02-22T13:46:55Z</time>
      </trkpt>
      <trkpt lat="49.8167" lon="2.14024">
        <ele>99.5</ele>
        <time>2023-02-22T13:46:56Z</time>
      </trkpt>
      <trkpt lat="49.81671" lon="2.14025">
        <ele>99.6</ele>
        <time>2023-02-22T13:46:57Z</time>
      </trkpt>
      <trkpt lat="49.81672" lon="2.14027">
        <ele>99.6</ele>
        <time>2023-02-22T13:46:58Z</time>
      </trkpt>
      <trkpt lat="49.81674" lon="2.1403">
        <ele>99.7</ele>
        <time>2023-02-22T13:46:59Z</time>
      </trkpt>
      <trkpt lat="49.81674" lon="2.14031">
        <ele>99.8</ele>
        <time>2023-02-22T13:47:01Z</time>
      </trkpt>
      <trkpt lat="49.81675" lon="2.14032">
        <ele>99.8</ele>
        <time>2023-02-22T13:47:02Z</time>
      </trkpt>
      <trkpt lat="49.81675" lon="2.14033">
        <ele>99.9</ele>
        <time>2023-02-22T13:47:03Z</time>
      </trkpt>
      <trkpt lat="49.81676" lon="2.14035">
        <ele>99.9</ele>
        <time>2023-02-22T13:47:04Z</time>
      </trkpt>
      <trkpt lat="49.81677" lon="2.14037">
        <ele>100</ele>
        <time>2023-02-22T13:47:05Z</time>
      </trkpt>
      <trkpt lat="49.81678" lon="2.14038">
        <ele>100.1</ele>
        <time>2023-02-22T13:47:06Z</time>
      </trkpt>
      <trkpt lat="49.8168" lon="2.14041">
        <ele>100.2</ele>
        <time>2023-02-22T13:47:08Z</time>
      </trkpt>
      <trkpt lat="49.8168" lon="2.14041">
        <ele>100.2</ele>
        <time>2023-02-22T13:47:09Z</time>
      </trkpt>
      <trkpt lat="49.81681" lon="2.14042">
        <ele>100.3</ele>
        <time>2023-02-22T13:47:10Z</time>
      </trkpt>
      <trkpt lat="49.81682" lon="2.14044">
        <ele>100.3</ele>
        <time>2023-02-22T13:47:11Z</time>
      </trkpt>
      <trkpt lat="49.81683" lon="2.14046">
        <ele>100.4</ele>
        <time>2023-02-22T13:47:12Z</time>
      </trkpt>
      <trkpt lat="49.81684" lon="2.14047">
        <ele>100.5</ele>
        <time>2023-02-22T13:47:13Z</time>
      </trkpt>
      <trkpt lat="49.81685" lon="2.14049">
        <ele>100.6</ele>
        <time>2023-02-22T13:47:14Z</time>
      </trkpt>
      <trkpt lat="49.81686" lon="2.1405">
        <ele>100.6</ele>
        <time>2023-02-22T13:47:16Z</time>
      </trkpt>
      <trkpt lat="49.81687" lon="2.14052">
        <ele>100.7</ele>
        <time>2023-02-22T13:47:17Z</time>
      </trkpt>
      <trkpt lat="49.81688" lon="2.14053">
        <ele>100.8</ele>
        <time>2023-02-22T13:47:18Z</time>
      </trkpt>
      <trkpt lat="49.81688" lon="2.14054">
        <ele>100.8</ele>
        <time>2023-02-22T13:47:19Z</time>
      </trkpt>
      <trkpt lat="49.81689" lon="2.14056">
        <ele>100.9</ele>
        <time>2023-02-22T13:47:20Z</time>
      </trkpt>
      <trkpt lat="49.8169" lon="2.14058">
        <ele>101</ele>
        <time>2023-02-22T13:47:21Z</time>
      </trkpt>
      <trkpt lat="49.81691" lon="2.14059">
        <ele>101</ele>
        <time>2023-02-22T13:47:22Z</time>
      </trkpt>
      <trkpt lat="49.81692" lon="2.1406">
        <ele>101.1</ele>
        <time>2023-02-22T13:47:24Z</time>
      </trkpt>
      <trkpt lat="49.81693" lon="2.14062">
        <ele>101.1</ele>
        <time>2023-02-22T13:47:25Z</time>
      </trkpt>
      <trkpt lat="49.81693" lon="2.14063">
        <ele>101.2</ele>
        <time>2023-02-22T13:47:26Z</time>
      </trkpt>
      <trkpt lat="49.81694" lon="2.14065">
        <ele>101.3</ele>
        <time>2023-02-22T13:47:27Z</time>
      </trkpt>
      <trkpt lat="49.81695" lon="2.14067">
        <ele>101.4</ele>
        <time>2023-02-22T13:47:28Z</time>
      </trkpt>
      <trkpt lat="49.81696" lon="2.14068">
        <ele>101.4</ele>
        <time>2023-02-22T13:47:29Z</time>
      </trkpt>
      <trkpt lat="49.81697" lon="2.14069">
        <ele>101.5</ele>
        <time>2023-02-22T13:47:31Z</time>
      </trkpt>
      <trkpt lat="49.81698" lon="2.14071">
        <ele>101.6</ele>
        <time>2023-02-22T13:47:32Z</time>
      </trkpt>
      <trkpt lat="49.81699" lon="2.14072">
        <ele>101.7</ele>
        <time>2023-02-22T13:47:33Z</time>
      </trkpt>
      <trkpt lat="49.817" lon="2.14073">
        <ele>101.7</ele>
        <time>2023-02-22T13:47:34Z</time>
      </trkpt>
      <trkpt lat="49.81701" lon="2.14076">
        <ele>101.8</ele>
        <time>2023-02-22T13:47:35Z</time>
      </trkpt>
      <trkpt lat="49.81702" lon="2.14076">
        <ele>101.9</ele>
        <time>2023-02-22T13:47:36Z</time>
      </trkpt>
      <trkpt lat="49.81702" lon="2.14077">
        <ele>101.9</ele>
        <time>2023-02-22T13:47:37Z</time>
      </trkpt>
      <trkpt lat="49.81703" lon="2.14078">
        <ele>102</ele>
        <time>2023-02-22T13:47:39Z</time>
      </trkpt>
      <trkpt lat="49.81704" lon="2.14079">
        <ele>102</ele>
        <time>2023-02-22T13:47:40Z</time>
      </trkpt>
      <trkpt lat="49.81705" lon="2.14081">
        <ele>102.1</ele>
        <time>2023-02-22T13:47:41Z</time>
      </trkpt>
      <trkpt lat="49.81707" lon="2.14083">
        <ele>102.2</ele>
        <time>2023-02-22T13:47:42Z</time>
      </trkpt>
      <trkpt lat="49.81708" lon="2.14084">
        <ele>102.3</ele>
        <time>2023-02-22T13:47:43Z</time>
      </trkpt>
      <trkpt lat="49.81708" lon="2.14085">
        <ele>102.3</ele>
        <time>2023-02-22T13:47:44Z</time>
      </trkpt>
      <trkpt lat="49.81709" lon="2.14086">
        <ele>102.4</ele>
        <time>2023-02-22T13:47:45Z</time>
      </trkpt>
      <trkpt lat="49.8171" lon="2.14087">
        <ele>102.5</ele>
        <time>2023-02-22T13:47:47Z</time>
      </trkpt>
      <trkpt lat="49.81711" lon="2.14088">
        <ele>102.5</ele>
        <time>2023-02-22T13:47:48Z</time>
      </trkpt>
      <trkpt lat="49.81712" lon="2.14089">
        <ele>102.6</ele>
        <time>2023-02-22T13:47:49Z</time>
      </trkpt>
      <trkpt lat="49.81713" lon="2.1409">
        <ele>102.7</ele>
        <time>2023-02-22T13:47:50Z</time>
      </trkpt>
      <trkpt lat="49.81714" lon="2.14091">
        <ele>102.7</ele>
        <time>2023-02-22T13:47:51Z</time>
      </trkpt>
      <trkpt lat="49.81715" lon="2.14092">
        <ele>102.8</ele>
        <time>2023-02-22T13:47:52Z</time>
      </trkpt>
      <trkpt lat="49.81716" lon="2.14093">
        <ele>102.9</ele>
        <time>2023-02-22T13:47:54Z</time>
      </trkpt>
      <trkpt lat="49.81717" lon="2.14094">
        <ele>102.9</ele>
        <time>2023-02-22T13:47:55Z</time>
      </trkpt>
      <trkpt lat="49.81718" lon="2.14096">
        <ele>103</ele>
        <time>2023-02-22T13:47:56Z</time>
      </trkpt>
      <trkpt lat="49.81719" lon="2.14097">
        <ele>103.1</ele>
        <time>2023-02-22T13:47:57Z</time>
      </trkpt>
      <trkpt lat="49.8172" lon="2.14097">
        <ele>103.1</ele>
        <time>2023-02-22T13:47:58Z</time>
      </trkpt>
      <trkpt lat="49.81721" lon="2.14098">
        <ele>103.2</ele>
        <time>2023-02-22T13:47:59Z</time>
      </trkpt>
      <trkpt lat="49.81722" lon="2.14099">
        <ele>103.3</ele>
        <time>2023-02-22T13:48:00Z</time>
      </trkpt>
      <trkpt lat="49.81723" lon="2.141">
        <ele>103.3</ele>
        <time>2023-02-22T13:48:02Z</time>
      </trkpt>
      <trkpt lat="49.81724" lon="2.14101">
        <ele>103.4</ele>
        <time>2023-02-22T13:48:03Z</time>
      </trkpt>
      <trkpt lat="49.81725" lon="2.14102">
        <ele>103.4</ele>
        <time>2023-02-22T13:48:04Z</time>
      </trkpt>
      <trkpt lat="49.81726" lon="2.14103">
        <ele>103.5</ele>
        <time>2023-02-22T13:48:05Z</time>
      </trkpt>
      <trkpt lat="49.81727" lon="2.14104">
        <ele>103.6</ele>
        <time>2023-02-22T13:48:06Z</time>
      </trkpt>
      <trkpt lat="49.81728" lon="2.14105">
        <ele>103.7</ele>
        <time>2023-02-22T13:48:07Z</time>
      </trkpt>
      <trkpt lat="49.8173" lon="2.14107">
        <ele>103.8</ele>
        <time>2023-02-22T13:48:08Z</time>
      </trkpt>
      <trkpt lat="49.81731" lon="2.14108">
        <ele>103.8</ele>
        <time>2023-02-22T13:48:10Z</time>
      </trkpt>
      <trkpt lat="49.81732" lon="2.14109">
        <ele>103.8</ele>
        <time>2023-02-22T13:48:11Z</time>
      </trkpt>
      <trkpt lat="49.81733" lon="2.1411">
        <ele>103.9</ele>
        <time>2023-02-22T13:48:12Z</time>
      </trkpt>
      <trkpt lat="49.81734" lon="2.14111">
        <ele>103.9</ele>
        <time>2023-02-22T13:48:13Z</time>
      </trkpt>
      <trkpt lat="49.81735" lon="2.14113">
        <ele>104</ele>
        <time>2023-02-22T13:48:14Z</time>
      </trkpt>
      <trkpt lat="49.81736" lon="2.14114">
        <ele>104.1</ele>
        <time>2023-02-22T13:48:15Z</time>
      </trkpt>
      <trkpt lat="49.81737" lon="2.14117">
        <ele>104.2</ele>
        <time>2023-02-22T13:48:17Z</time>
      </trkpt>
      <trkpt lat="49.81738" lon="2.14117">
        <ele>104.2</ele>
        <time>2023-02-22T13:48:18Z</time>
      </trkpt>
      <trkpt lat="49.81738" lon="2.14118">
        <ele>104.2</ele>
        <time>2023-02-22T13:48:19Z</time>
      </trkpt>
      <trkpt lat="49.8174" lon="2.1412">
        <ele>104.3</ele>
        <time>2023-02-22T13:48:20Z</time>
      </trkpt>
      <trkpt lat="49.81741" lon="2.14121">
        <ele>104.4</ele>
        <time>2023-02-22T13:48:21Z</time>
      </trkpt>
      <trkpt lat="49.81741" lon="2.14122">
        <ele>104.4</ele>
        <time>2023-02-22T13:48:22Z</time>
      </trkpt>
      <trkpt lat="49.81743" lon="2.14124">
        <ele>104.5</ele>
        <time>2023-02-22T13:48:24Z</time>
      </trkpt>
      <trkpt lat="49.81743" lon="2.14125">
        <ele>104.5</ele>
        <time>2023-02-22T13:48:25Z</time>
      </trkpt>
      <trkpt lat="49.81744" lon="2.14126">
        <ele>104.5</ele>
        <time>2023-02-22T13:48:26Z</time>
      </trkpt>
      <trkpt lat="49.81745" lon="2.14128">
        <ele>104.6</ele>
        <time>2023-02-22T13:48:27Z</time>
      </trkpt>
      <trkpt lat="49.81746" lon="2.14129">
        <ele>104.7</ele>
        <time>2023-02-22T13:48:28Z</time>
      </trkpt>
      <trkpt lat="49.81747" lon="2.14131">
        <ele>104.7</ele>
        <time>2023-02-22T13:48:29Z</time>
      </trkpt>
      <trkpt lat="49.81747" lon="2.14132">
        <ele>104.7</ele>
        <time>2023-02-22T13:48:30Z</time>
      </trkpt>
      <trkpt lat="49.81748" lon="2.14134">
        <ele>104.8</ele>
        <time>2023-02-22T13:48:32Z</time>
      </trkpt>
      <trkpt lat="49.81748" lon="2.14135">
        <ele>104.8</ele>
        <time>2023-02-22T13:48:33Z</time>
      </trkpt>
      <trkpt lat="49.8175" lon="2.14137">
        <ele>104.9</ele>
        <time>2023-02-22T13:48:34Z</time>
      </trkpt>
      <trkpt lat="49.81751" lon="2.14138">
        <ele>104.9</ele>
        <time>2023-02-22T13:48:35Z</time>
      </trkpt>
      <trkpt lat="49.81751" lon="2.1414">
        <ele>105</ele>
        <time>2023-02-22T13:48:36Z</time>
      </trkpt>
      <trkpt lat="49.81752" lon="2.14141">
        <ele>105</ele>
        <time>2023-02-22T13:48:37Z</time>
      </trkpt>
      <trkpt lat="49.81752" lon="2.14142">
        <ele>105.1</ele>
        <time>2023-02-22T13:48:38Z</time>
      </trkpt>
      <trkpt lat="49.81753" lon="2.14143">
        <ele>105.1</ele>
        <time>2023-02-22T13:48:40Z</time>
      </trkpt>
      <trkpt lat="49.81754" lon="2.14145">
        <ele>105.2</ele>
        <time>2023-02-22T13:48:41Z</time>
      </trkpt>
      <trkpt lat="49.81754" lon="2.14146">
        <ele>105.2</ele>
        <time>2023-02-22T13:48:42Z</time>
      </trkpt>
      <trkpt lat="49.81755" lon="2.14148">
        <ele>105.3</ele>
        <time>2023-02-22T13:48:43Z</time>
      </trkpt>
      <trkpt lat="49.81756" lon="2.1415">
        <ele>105.4</ele>
        <time>2023-02-22T13:48:44Z</time>
      </trkpt>
      <trkpt lat="49.81757" lon="2.14151">
        <ele>105.4</ele>
        <time>2023-02-22T13:48:45Z</time>
      </trkpt>
      <trkpt lat="49.81757" lon="2.14152">
        <ele>105.4</ele>
        <time>2023-02-22T13:48:46Z</time>
      </trkpt>
      <trkpt lat="49.81758" lon="2.14154">
        <ele>105.5</ele>
        <time>2023-02-22T13:48:48Z</time>
      </trkpt>
      <trkpt lat="49.81759" lon="2.14155">
        <ele>105.5</ele>
        <time>2023-02-22T13:48:49Z</time>
      </trkpt>
      <trkpt lat="49.8176" lon="2.14156">
        <ele>105.6</ele>
        <time>2023-02-22T13:48:50Z</time>
      </trkpt>
      <trkpt lat="49.8176" lon="2.14158">
        <ele>105.7</ele>
        <time>2023-02-22T13:48:51Z</time>
      </trkpt>
      <trkpt lat="49.81761" lon="2.14159">
        <ele>105.7</ele>
        <time>2023-02-22T13:48:52Z</time>
      </trkpt>
      <trkpt lat="49.81762" lon="2.14161">
        <ele>105.8</ele>
        <time>2023-02-22T13:48:53Z</time>
      </trkpt>
      <trkpt lat="49.81763" lon="2.14163">
        <ele>105.9</ele>
        <time>2023-02-22T13:48:54Z</time>
      </trkpt>
      <trkpt lat="49.81764" lon="2.14166">
        <ele>106</ele>
        <time>2023-02-22T13:48:56Z</time>
      </trkpt>
      <trkpt lat="49.81765" lon="2.14167">
        <ele>106</ele>
        <time>2023-02-22T13:48:57Z</time>
      </trkpt>
      <trkpt lat="49.81765" lon="2.14168">
        <ele>106.1</ele>
        <time>2023-02-22T13:48:58Z</time>
      </trkpt>
      <trkpt lat="49.81767" lon="2.14171">
        <ele>106.2</ele>
        <time>2023-02-22T13:48:59Z</time>
      </trkpt>
      <trkpt lat="49.81767" lon="2.14172">
        <ele>106.2</ele>
        <time>2023-02-22T13:49:00Z</time>
      </trkpt>
      <trkpt lat="49.81768" lon="2.14173">
        <ele>106.3</ele>
        <time>2023-02-22T13:49:01Z</time>
      </trkpt>
      <trkpt lat="49.81769" lon="2.14175">
        <ele>106.3</ele>
        <time>2023-02-22T13:49:02Z</time>
      </trkpt>
      <trkpt lat="49.8177" lon="2.14176">
        <ele>106.4</ele>
        <time>2023-02-22T13:49:03Z</time>
      </trkpt>
      <trkpt lat="49.81771" lon="2.14178">
        <ele>106.4</ele>
        <time>2023-02-22T13:49:05Z</time>
      </trkpt>
      <trkpt lat="49.81772" lon="2.1418">
        <ele>106.5</ele>
        <time>2023-02-22T13:49:06Z</time>
      </trkpt>
      <trkpt lat="49.81773" lon="2.14181">
        <ele>106.6</ele>
        <time>2023-02-22T13:49:07Z</time>
      </trkpt>
      <trkpt lat="49.81773" lon="2.14182">
        <ele>106.6</ele>
        <time>2023-02-22T13:49:08Z</time>
      </trkpt>
      <trkpt lat="49.81774" lon="2.14184">
        <ele>106.7</ele>
        <time>2023-02-22T13:49:09Z</time>
      </trkpt>
      <trkpt lat="49.81775" lon="2.14185">
        <ele>106.7</ele>
        <time>2023-02-22T13:49:10Z</time>
      </trkpt>
      <trkpt lat="49.81777" lon="2.14188">
        <ele>106.9</ele>
        <time>2023-02-22T13:49:11Z</time>
      </trkpt>
      <trkpt lat="49.81778" lon="2.1419">
        <ele>106.9</ele>
        <time>2023-02-22T13:49:13Z</time>
      </trkpt>
      <trkpt lat="49.81778" lon="2.14191">
        <ele>106.9</ele>
        <time>2023-02-22T13:49:14Z</time>
      </trkpt>
      <trkpt lat="49.81779" lon="2.14192">
        <ele>107</ele>
        <time>2023-02-22T13:49:15Z</time>
      </trkpt>
      <trkpt lat="49.81779" lon="2.14194">
        <ele>107</ele>
        <time>2023-02-22T13:49:16Z</time>
      </trkpt>
      <trkpt lat="49.8178" lon="2.14196">
        <ele>107.1</ele>
        <time>2023-02-22T13:49:17Z</time>
      </trkpt>
      <trkpt lat="49.81781" lon="2.14198">
        <ele>107.2</ele>
        <time>2023-02-22T13:49:18Z</time>
      </trkpt>
      <trkpt lat="49.81782" lon="2.142">
        <ele>107.2</ele>
        <time>2023-02-22T13:49:19Z</time>
      </trkpt>
      <trkpt lat="49.81783" lon="2.14201">
        <ele>107.3</ele>
        <time>2023-02-22T13:49:21Z</time>
      </trkpt>
      <trkpt lat="49.81783" lon="2.14203">
        <ele>107.3</ele>
        <time>2023-02-22T13:49:22Z</time>
      </trkpt>
      <trkpt lat="49.81784" lon="2.14205">
        <ele>107.4</ele>
        <time>2023-02-22T13:49:23Z</time>
      </trkpt>
      <trkpt lat="49.81785" lon="2.14206">
        <ele>107.4</ele>
        <time>2023-02-22T13:49:24Z</time>
      </trkpt>
      <trkpt lat="49.81786" lon="2.14208">
        <ele>107.5</ele>
        <time>2023-02-22T13:49:25Z</time>
      </trkpt>
      <trkpt lat="49.81787" lon="2.14209">
        <ele>107.5</ele>
        <time>2023-02-22T13:49:26Z</time>
      </trkpt>
      <trkpt lat="49.81787" lon="2.14211">
        <ele>107.6</ele>
        <time>2023-02-22T13:49:27Z</time>
      </trkpt>
      <trkpt lat="49.81788" lon="2.14212">
        <ele>107.6</ele>
        <time>2023-02-22T13:49:29Z</time>
      </trkpt>
      <trkpt lat="49.81789" lon="2.14213">
        <ele>107.7</ele>
        <time>2023-02-22T13:49:30Z</time>
      </trkpt>
      <trkpt lat="49.8179" lon="2.14215">
        <ele>107.7</ele>
        <time>2023-02-22T13:49:31Z</time>
      </trkpt>
      <trkpt lat="49.8179" lon="2.14217">
        <ele>107.8</ele>
        <time>2023-02-22T13:49:32Z</time>
      </trkpt>
      <trkpt lat="49.81791" lon="2.14218">
        <ele>107.9</ele>
        <time>2023-02-22T13:49:33Z</time>
      </trkpt>
      <trkpt lat="49.81792" lon="2.1422">
        <ele>108</ele>
        <time>2023-02-22T13:49:34Z</time>
      </trkpt>
      <trkpt lat="49.81794" lon="2.14223">
        <ele>108.1</ele>
        <time>2023-02-22T13:49:35Z</time>
      </trkpt>
      <trkpt lat="49.81794" lon="2.14224">
        <ele>108.1</ele>
        <time>2023-02-22T13:49:37Z</time>
      </trkpt>
      <trkpt lat="49.81795" lon="2.14225">
        <ele>108.2</ele>
        <time>2023-02-22T13:49:38Z</time>
      </trkpt>
      <trkpt lat="49.81796" lon="2.14226">
        <ele>108.2</ele>
        <time>2023-02-22T13:49:39Z</time>
      </trkpt>
      <trkpt lat="49.81797" lon="2.14228">
        <ele>108.3</ele>
        <time>2023-02-22T13:49:40Z</time>
      </trkpt>
      <trkpt lat="49.81798" lon="2.1423">
        <ele>108.4</ele>
        <time>2023-02-22T13:49:41Z</time>
      </trkpt>
      <trkpt lat="49.81798" lon="2.14231">
        <ele>108.5</ele>
        <time>2023-02-22T13:49:42Z</time>
      </trkpt>
      <trkpt lat="49.81799" lon="2.14233">
        <ele>108.5</ele>
        <time>2023-02-22T13:49:44Z</time>
      </trkpt>
      <trkpt lat="49.818" lon="2.14235">
        <ele>108.7</ele>
        <time>2023-02-22T13:49:45Z</time>
      </trkpt>
      <trkpt lat="49.818" lon="2.14236">
        <ele>108.7</ele>
        <time>2023-02-22T13:49:46Z</time>
      </trkpt>
      <trkpt lat="49.81801" lon="2.14238">
        <ele>108.8</ele>
        <time>2023-02-22T13:49:47Z</time>
      </trkpt>
      <trkpt lat="49.81802" lon="2.14239">
        <ele>108.8</ele>
        <time>2023-02-22T13:49:48Z</time>
      </trkpt>
      <trkpt lat="49.81802" lon="2.14241">
        <ele>108.9</ele>
        <time>2023-02-22T13:49:49Z</time>
      </trkpt>
      <trkpt lat="49.81803" lon="2.14242">
        <ele>109</ele>
        <time>2023-02-22T13:49:51Z</time>
      </trkpt>
      <trkpt lat="49.81804" lon="2.14244">
        <ele>109.1</ele>
        <time>2023-02-22T13:49:52Z</time>
      </trkpt>
      <trkpt lat="49.81805" lon="2.14245">
        <ele>109.1</ele>
        <time>2023-02-22T13:49:53Z</time>
      </trkpt>
      <trkpt lat="49.81806" lon="2.14246">
        <ele>109.2</ele>
        <time>2023-02-22T13:49:54Z</time>
      </trkpt>
      <trkpt lat="49.81807" lon="2.14248">
        <ele>109.2</ele>
        <time>2023-02-22T13:49:55Z</time>
      </trkpt>
      <trkpt lat="49.81807" lon="2.14249">
        <ele>109.3</ele>
        <time>2023-02-22T13:49:57Z</time>
      </trkpt>
      <trkpt lat="49.81808" lon="2.1425">
        <ele>109.4</ele>
        <time>2023-02-22T13:49:58Z</time>
      </trkpt>
      <trkpt lat="49.81809" lon="2.14253">
        <ele>109.5</ele>
        <time>2023-02-22T13:49:59Z</time>
      </trkpt>
      <trkpt lat="49.8181" lon="2.14254">
        <ele>109.5</ele>
        <time>2023-02-22T13:50:00Z</time>
      </trkpt>
      <trkpt lat="49.8181" lon="2.14255">
        <ele>109.6</ele>
        <time>2023-02-22T13:50:01Z</time>
      </trkpt>
      <trkpt lat="49.81811" lon="2.14257">
        <ele>109.6</ele>
        <time>2023-02-22T13:50:02Z</time>
      </trkpt>
      <trkpt lat="49.81812" lon="2.14258">
        <ele>109.7</ele>
        <time>2023-02-22T13:50:04Z</time>
      </trkpt>
      <trkpt lat="49.81813" lon="2.14259">
        <ele>109.8</ele>
        <time>2023-02-22T13:50:05Z</time>
      </trkpt>
      <trkpt lat="49.81814" lon="2.14261">
        <ele>109.8</ele>
        <time>2023-02-22T13:50:06Z</time>
      </trkpt>
      <trkpt lat="49.81815" lon="2.14262">
        <ele>109.9</ele>
        <time>2023-02-22T13:50:07Z</time>
      </trkpt>
      <trkpt lat="49.81816" lon="2.14264">
        <ele>110</ele>
        <time>2023-02-22T13:50:08Z</time>
      </trkpt>
      <trkpt lat="49.81817" lon="2.14265">
        <ele>110.1</ele>
        <time>2023-02-22T13:50:10Z</time>
      </trkpt>
      <trkpt lat="49.81817" lon="2.14267">
        <ele>110.1</ele>
        <time>2023-02-22T13:50:11Z</time>
      </trkpt>
      <trkpt lat="49.81818" lon="2.14268">
        <ele>110.2</ele>
        <time>2023-02-22T13:50:12Z</time>
      </trkpt>
      <trkpt lat="49.81818" lon="2.1427">
        <ele>110.3</ele>
        <time>2023-02-22T13:50:13Z</time>
      </trkpt>
      <trkpt lat="49.81819" lon="2.14271">
        <ele>110.3</ele>
        <time>2023-02-22T13:50:14Z</time>
      </trkpt>
      <trkpt lat="49.8182" lon="2.14272">
        <ele>110.4</ele>
        <time>2023-02-22T13:50:15Z</time>
      </trkpt>
      <trkpt lat="49.81821" lon="2.14274">
        <ele>110.5</ele>
        <time>2023-02-22T13:50:17Z</time>
      </trkpt>
      <trkpt lat="49.81822" lon="2.14275">
        <ele>110.5</ele>
        <time>2023-02-22T13:50:18Z</time>
      </trkpt>
      <trkpt lat="49.81822" lon="2.14276">
        <ele>110.6</ele>
        <time>2023-02-22T13:50:19Z</time>
      </trkpt>
      <trkpt lat="49.81823" lon="2.14277">
        <ele>110.7</ele>
        <time>2023-02-22T13:50:20Z</time>
      </trkpt>
      <trkpt lat="49.81823" lon="2.14279">
        <ele>110.8</ele>
        <time>2023-02-22T13:50:21Z</time>
      </trkpt>
      <trkpt lat="49.81824" lon="2.1428">
        <ele>110.8</ele>
        <time>2023-02-22T13:50:22Z</time>
      </trkpt>
      <trkpt lat="49.81824" lon="2.14282">
        <ele>110.9</ele>
        <time>2023-02-22T13:50:24Z</time>
      </trkpt>
      <trkpt lat="49.81825" lon="2.14283">
        <ele>110.9</ele>
        <time>2023-02-22T13:50:25Z</time>
      </trkpt>
      <trkpt lat="49.81826" lon="2.14284">
        <ele>111</ele>
        <time>2023-02-22T13:50:26Z</time>
      </trkpt>
      <trkpt lat="49.81826" lon="2.14286">
        <ele>111.1</ele>
        <time>2023-02-22T13:50:27Z</time>
      </trkpt>
      <trkpt lat="49.81827" lon="2.14288">
        <ele>111.2</ele>
        <time>2023-02-22T13:50:28Z</time>
      </trkpt>
      <trkpt lat="49.81827" lon="2.14289">
        <ele>111.2</ele>
        <time>2023-02-22T13:50:30Z</time>
      </trkpt>
      <trkpt lat="49.81828" lon="2.1429">
        <ele>111.3</ele>
        <time>2023-02-22T13:50:31Z</time>
      </trkpt>
      <trkpt lat="49.81828" lon="2.14291">
        <ele>111.4</ele>
        <time>2023-02-22T13:50:32Z</time>
      </trkpt>
      <trkpt lat="49.81828" lon="2.14293">
        <ele>111.4</ele>
        <time>2023-02-22T13:50:33Z</time>
      </trkpt>
      <trkpt lat="49.81829" lon="2.14295">
        <ele>111.5</ele>
        <time>2023-02-22T13:50:34Z</time>
      </trkpt>
      <trkpt lat="49.81831" lon="2.14298">
        <ele>111.7</ele>
        <time>2023-02-22T13:50:36Z</time>
      </trkpt>
      <trkpt lat="49.81831" lon="2.14299">
        <ele>111.8</ele>
        <time>2023-02-22T13:50:37Z</time>
      </trkpt>
      <trkpt lat="49.81832" lon="2.14301">
        <ele>111.8</ele>
        <time>2023-02-22T13:50:39Z</time>
      </trkpt>
      <trkpt lat="49.81832" lon="2.14302">
        <ele>111.9</ele>
        <time>2023-02-22T13:50:40Z</time>
      </trkpt>
      <trkpt lat="49.81833" lon="2.14303">
        <ele>112</ele>
        <time>2023-02-22T13:50:41Z</time>
      </trkpt>
      <trkpt lat="49.81834" lon="2.14305">
        <ele>112.1</ele>
        <time>2023-02-22T13:50:42Z</time>
      </trkpt>
      <trkpt lat="49.81835" lon="2.14306">
        <ele>112.2</ele>
        <time>2023-02-22T13:50:43Z</time>
      </trkpt>
      <trkpt lat="49.81836" lon="2.14309">
        <ele>112.3</ele>
        <time>2023-02-22T13:50:45Z</time>
      </trkpt>
      <trkpt lat="49.81837" lon="2.1431">
        <ele>112.4</ele>
        <time>2023-02-22T13:50:46Z</time>
      </trkpt>
      <trkpt lat="49.81837" lon="2.14311">
        <ele>112.5</ele>
        <time>2023-02-22T13:50:48Z</time>
      </trkpt>
      <trkpt lat="49.81838" lon="2.14313">
        <ele>112.6</ele>
        <time>2023-02-22T13:50:49Z</time>
      </trkpt>
      <trkpt lat="49.81839" lon="2.14314">
        <ele>112.6</ele>
        <time>2023-02-22T13:50:50Z</time>
      </trkpt>
      <trkpt lat="49.81839" lon="2.14316">
        <ele>112.7</ele>
        <time>2023-02-22T13:50:51Z</time>
      </trkpt>
      <trkpt lat="49.8184" lon="2.14317">
        <ele>112.8</ele>
        <time>2023-02-22T13:50:53Z</time>
      </trkpt>
      <trkpt lat="49.8184" lon="2.14318">
        <ele>112.9</ele>
        <time>2023-02-22T13:50:54Z</time>
      </trkpt>
      <trkpt lat="49.81841" lon="2.14319">
        <ele>113</ele>
        <time>2023-02-22T13:50:55Z</time>
      </trkpt>
      <trkpt lat="49.81842" lon="2.14321">
        <ele>113.1</ele>
        <time>2023-02-22T13:50:56Z</time>
      </trkpt>
      <trkpt lat="49.81843" lon="2.14323">
        <ele>113.2</ele>
        <time>2023-02-22T13:50:57Z</time>
      </trkpt>
      <trkpt lat="49.81844" lon="2.14324">
        <ele>113.3</ele>
        <time>2023-02-22T13:50:59Z</time>
      </trkpt>
      <trkpt lat="49.81845" lon="2.14325">
        <ele>113.4</ele>
        <time>2023-02-22T13:51:00Z</time>
      </trkpt>
      <trkpt lat="49.81846" lon="2.14326">
        <ele>113.5</ele>
        <time>2023-02-22T13:51:01Z</time>
      </trkpt>
      <trkpt lat="49.81848" lon="2.14328">
        <ele>113.7</ele>
        <time>2023-02-22T13:51:02Z</time>
      </trkpt>
      <trkpt lat="49.81849" lon="2.14329">
        <ele>113.8</ele>
        <time>2023-02-22T13:51:04Z</time>
      </trkpt>
      <trkpt lat="49.8185" lon="2.1433">
        <ele>113.9</ele>
        <time>2023-02-22T13:51:05Z</time>
      </trkpt>
      <trkpt lat="49.81851" lon="2.14331">
        <ele>114</ele>
        <time>2023-02-22T13:51:07Z</time>
      </trkpt>
      <trkpt lat="49.81852" lon="2.14332">
        <ele>114.1</ele>
        <time>2023-02-22T13:51:08Z</time>
      </trkpt>
      <trkpt lat="49.81853" lon="2.14333">
        <ele>114.2</ele>
        <time>2023-02-22T13:51:09Z</time>
      </trkpt>
      <trkpt lat="49.81854" lon="2.14334">
        <ele>114.3</ele>
        <time>2023-02-22T13:51:10Z</time>
      </trkpt>
      <trkpt lat="49.81856" lon="2.14335">
        <ele>114.5</ele>
        <time>2023-02-22T13:51:12Z</time>
      </trkpt>
      <trkpt lat="49.81857" lon="2.14336">
        <ele>114.6</ele>
        <time>2023-02-22T13:51:13Z</time>
      </trkpt>
      <trkpt lat="49.81858" lon="2.14336">
        <ele>114.7</ele>
        <time>2023-02-22T13:51:15Z</time>
      </trkpt>
      <trkpt lat="49.8186" lon="2.14337">
        <ele>114.8</ele>
        <time>2023-02-22T13:51:16Z</time>
      </trkpt>
      <trkpt lat="49.81861" lon="2.14337">
        <ele>114.9</ele>
        <time>2023-02-22T13:51:17Z</time>
      </trkpt>
      <trkpt lat="49.81862" lon="2.14338">
        <ele>115.1</ele>
        <time>2023-02-22T13:51:18Z</time>
      </trkpt>
      <trkpt lat="49.81864" lon="2.14339">
        <ele>115.2</ele>
        <time>2023-02-22T13:51:20Z</time>
      </trkpt>
      <trkpt lat="49.81865" lon="2.14339">
        <ele>115.4</ele>
        <time>2023-02-22T13:51:22Z</time>
      </trkpt>
      <trkpt lat="49.81866" lon="2.14339">
        <ele>115.4</ele>
        <time>2023-02-22T13:51:23Z</time>
      </trkpt>
      <trkpt lat="49.81867" lon="2.1434">
        <ele>115.5</ele>
        <time>2023-02-22T13:51:24Z</time>
      </trkpt>
      <trkpt lat="49.81868" lon="2.1434">
        <ele>115.6</ele>
        <time>2023-02-22T13:51:26Z</time>
      </trkpt>
      <trkpt lat="49.8187" lon="2.14341">
        <ele>115.9</ele>
        <time>2023-02-22T13:51:27Z</time>
      </trkpt>
      <trkpt lat="49.81871" lon="2.14341">
        <ele>115.9</ele>
        <time>2023-02-22T13:51:29Z</time>
      </trkpt>
      <trkpt lat="49.81872" lon="2.14341">
        <ele>116</ele>
        <time>2023-02-22T13:51:30Z</time>
      </trkpt>
      <trkpt lat="49.81873" lon="2.14342">
        <ele>116.1</ele>
        <time>2023-02-22T13:51:31Z</time>
      </trkpt>
      <trkpt lat="49.81874" lon="2.14342">
        <ele>116.2</ele>
        <time>2023-02-22T13:51:32Z</time>
      </trkpt>
      <trkpt lat="49.81874" lon="2.14342">
        <ele>116.3</ele>
        <time>2023-02-22T13:51:34Z</time>
      </trkpt>
      <trkpt lat="49.81875" lon="2.14342">
        <ele>116.3</ele>
        <time>2023-02-22T13:51:35Z</time>
      </trkpt>
      <trkpt lat="49.81876" lon="2.14343">
        <ele>116.4</ele>
        <time>2023-02-22T13:51:36Z</time>
      </trkpt>
      <trkpt lat="49.81877" lon="2.14343">
        <ele>116.5</ele>
        <time>2023-02-22T13:51:37Z</time>
      </trkpt>
      <trkpt lat="49.81877" lon="2.14344">
        <ele>116.6</ele>
        <time>2023-02-22T13:51:38Z</time>
      </trkpt>
      <trkpt lat="49.81878" lon="2.14344">
        <ele>116.7</ele>
        <time>2023-02-22T13:51:39Z</time>
      </trkpt>
      <trkpt lat="49.8188" lon="2.14346">
        <ele>116.8</ele>
        <time>2023-02-22T13:51:41Z</time>
      </trkpt>
      <trkpt lat="49.8188" lon="2.14346">
        <ele>116.9</ele>
        <time>2023-02-22T13:51:43Z</time>
      </trkpt>
      <trkpt lat="49.81881" lon="2.14347">
        <ele>117</ele>
        <time>2023-02-22T13:51:44Z</time>
      </trkpt>
      <trkpt lat="49.81882" lon="2.14347">
        <ele>117</ele>
        <time>2023-02-22T13:51:45Z</time>
      </trkpt>
      <trkpt lat="49.81883" lon="2.14347">
        <ele>117.2</ele>
        <time>2023-02-22T13:51:47Z</time>
      </trkpt>
      <trkpt lat="49.81884" lon="2.14348">
        <ele>117.2</ele>
        <time>2023-02-22T13:51:48Z</time>
      </trkpt>
      <trkpt lat="49.81884" lon="2.14348">
        <ele>117.3</ele>
        <time>2023-02-22T13:51:50Z</time>
      </trkpt>
      <trkpt lat="49.81885" lon="2.14349">
        <ele>117.3</ele>
        <time>2023-02-22T13:51:51Z</time>
      </trkpt>
      <trkpt lat="49.81885" lon="2.1435">
        <ele>117.4</ele>
        <time>2023-02-22T13:51:52Z</time>
      </trkpt>
      <trkpt lat="49.81887" lon="2.14352">
        <ele>117.6</ele>
        <time>2023-02-22T13:51:53Z</time>
      </trkpt>
      <trkpt lat="49.81887" lon="2.14353">
        <ele>117.6</ele>
        <time>2023-02-22T13:51:54Z</time>
      </trkpt>
      <trkpt lat="49.81888" lon="2.14354">
        <ele>117.7</ele>
        <time>2023-02-22T13:51:56Z</time>
      </trkpt>
      <trkpt lat="49.81888" lon="2.14354">
        <ele>117.8</ele>
        <time>2023-02-22T13:51:57Z</time>
      </trkpt>
      <trkpt lat="49.81889" lon="2.14355">
        <ele>117.9</ele>
        <time>2023-02-22T13:51:58Z</time>
      </trkpt>
      <trkpt lat="49.8189" lon="2.14356">
        <ele>117.9</ele>
        <time>2023-02-22T13:51:59Z</time>
      </trkpt>
      <trkpt lat="49.8189" lon="2.14357">
        <ele>118</ele>
        <time>2023-02-22T13:52:00Z</time>
      </trkpt>
      <trkpt lat="49.81891" lon="2.14358">
        <ele>118.1</ele>
        <time>2023-02-22T13:52:01Z</time>
      </trkpt>
      <trkpt lat="49.81892" lon="2.14359">
        <ele>118.2</ele>
        <time>2023-02-22T13:52:03Z</time>
      </trkpt>
      <trkpt lat="49.81893" lon="2.1436">
        <ele>118.3</ele>
        <time>2023-02-22T13:52:04Z</time>
      </trkpt>
      <trkpt lat="49.81894" lon="2.14363">
        <ele>118.5</ele>
        <time>2023-02-22T13:52:05Z</time>
      </trkpt>
      <trkpt lat="49.81894" lon="2.14364">
        <ele>118.6</ele>
        <time>2023-02-22T13:52:06Z</time>
      </trkpt>
      <trkpt lat="49.81895" lon="2.14365">
        <ele>118.6</ele>
        <time>2023-02-22T13:52:07Z</time>
      </trkpt>
      <trkpt lat="49.81896" lon="2.14366">
        <ele>118.7</ele>
        <time>2023-02-22T13:52:08Z</time>
      </trkpt>
      <trkpt lat="49.81897" lon="2.14367">
        <ele>118.8</ele>
        <time>2023-02-22T13:52:10Z</time>
      </trkpt>
      <trkpt lat="49.81897" lon="2.14368">
        <ele>118.9</ele>
        <time>2023-02-22T13:52:11Z</time>
      </trkpt>
      <trkpt lat="49.81899" lon="2.1437">
        <ele>119.1</ele>
        <time>2023-02-22T13:52:12Z</time>
      </trkpt>
      <trkpt lat="49.819" lon="2.14371">
        <ele>119.2</ele>
        <time>2023-02-22T13:52:14Z</time>
      </trkpt>
      <trkpt lat="49.819" lon="2.14373">
        <ele>119.3</ele>
        <time>2023-02-22T13:52:15Z</time>
      </trkpt>
      <trkpt lat="49.81901" lon="2.14374">
        <ele>119.4</ele>
        <time>2023-02-22T13:52:16Z</time>
      </trkpt>
      <trkpt lat="49.81902" lon="2.14376">
        <ele>119.5</ele>
        <time>2023-02-22T13:52:17Z</time>
      </trkpt>
      <trkpt lat="49.81902" lon="2.14376">
        <ele>119.6</ele>
        <time>2023-02-22T13:52:18Z</time>
      </trkpt>
      <trkpt lat="49.81903" lon="2.14377">
        <ele>119.7</ele>
        <time>2023-02-22T13:52:19Z</time>
      </trkpt>
      <trkpt lat="49.81904" lon="2.14379">
        <ele>119.8</ele>
        <time>2023-02-22T13:52:21Z</time>
      </trkpt>
      <trkpt lat="49.81904" lon="2.1438">
        <ele>119.9</ele>
        <time>2023-02-22T13:52:22Z</time>
      </trkpt>
      <trkpt lat="49.81905" lon="2.14381">
        <ele>120</ele>
        <time>2023-02-22T13:52:23Z</time>
      </trkpt>
      <trkpt lat="49.81905" lon="2.14383">
        <ele>120.1</ele>
        <time>2023-02-22T13:52:24Z</time>
      </trkpt>
      <trkpt lat="49.81906" lon="2.14385">
        <ele>120.2</ele>
        <time>2023-02-22T13:52:25Z</time>
      </trkpt>
      <trkpt lat="49.81907" lon="2.14387">
        <ele>120.4</ele>
        <time>2023-02-22T13:52:27Z</time>
      </trkpt>
      <trkpt lat="49.81907" lon="2.14389">
        <ele>120.5</ele>
        <time>2023-02-22T13:52:29Z</time>
      </trkpt>
      <trkpt lat="49.81908" lon="2.1439">
        <ele>120.6</ele>
        <time>2023-02-22T13:52:30Z</time>
      </trkpt>
      <trkpt lat="49.81908" lon="2.14392">
        <ele>120.7</ele>
        <time>2023-02-22T13:52:31Z</time>
      </trkpt>
      <trkpt lat="49.81909" lon="2.14393">
        <ele>120.8</ele>
        <time>2023-02-22T13:52:32Z</time>
      </trkpt>
      <trkpt lat="49.8191" lon="2.14394">
        <ele>120.9</ele>
        <time>2023-02-22T13:52:33Z</time>
      </trkpt>
      <trkpt lat="49.81911" lon="2.14395">
        <ele>121</ele>
        <time>2023-02-22T13:52:34Z</time>
      </trkpt>
      <trkpt lat="49.81912" lon="2.14397">
        <ele>121.1</ele>
        <time>2023-02-22T13:52:36Z</time>
      </trkpt>
      <trkpt lat="49.81913" lon="2.14398">
        <ele>121.2</ele>
        <time>2023-02-22T13:52:37Z</time>
      </trkpt>
      <trkpt lat="49.81914" lon="2.14399">
        <ele>121.3</ele>
        <time>2023-02-22T13:52:39Z</time>
      </trkpt>
      <trkpt lat="49.81915" lon="2.144">
        <ele>121.4</ele>
        <time>2023-02-22T13:52:40Z</time>
      </trkpt>
      <trkpt lat="49.81916" lon="2.144">
        <ele>121.5</ele>
        <time>2023-02-22T13:52:41Z</time>
      </trkpt>
      <trkpt lat="49.81917" lon="2.14401">
        <ele>121.6</ele>
        <time>2023-02-22T13:52:42Z</time>
      </trkpt>
      <trkpt lat="49.81918" lon="2.14401">
        <ele>121.7</ele>
        <time>2023-02-22T13:52:43Z</time>
      </trkpt>
      <trkpt lat="49.81919" lon="2.14401">
        <ele>121.7</ele>
        <time>2023-02-22T13:52:44Z</time>
      </trkpt>
      <trkpt lat="49.8192" lon="2.14402">
        <ele>121.8</ele>
        <time>2023-02-22T13:52:46Z</time>
      </trkpt>
      <trkpt lat="49.81921" lon="2.14402">
        <ele>121.9</ele>
        <time>2023-02-22T13:52:47Z</time>
      </trkpt>
      <trkpt lat="49.81922" lon="2.14402">
        <ele>122</ele>
        <time>2023-02-22T13:52:48Z</time>
      </trkpt>
      <trkpt lat="49.81923" lon="2.14403">
        <ele>122</ele>
        <time>2023-02-22T13:52:50Z</time>
      </trkpt>
      <trkpt lat="49.81924" lon="2.14403">
        <ele>122.1</ele>
        <time>2023-02-22T13:52:51Z</time>
      </trkpt>
      <trkpt lat="49.81925" lon="2.14403">
        <ele>122.2</ele>
        <time>2023-02-22T13:52:52Z</time>
      </trkpt>
      <trkpt lat="49.81926" lon="2.14403">
        <ele>122.2</ele>
        <time>2023-02-22T13:52:53Z</time>
      </trkpt>
      <trkpt lat="49.81927" lon="2.14402">
        <ele>122.3</ele>
        <time>2023-02-22T13:52:55Z</time>
      </trkpt>
      <trkpt lat="49.81928" lon="2.14402">
        <ele>122.4</ele>
        <time>2023-02-22T13:52:57Z</time>
      </trkpt>
      <trkpt lat="49.81929" lon="2.14401">
        <ele>122.4</ele>
        <time>2023-02-22T13:52:58Z</time>
      </trkpt>
      <trkpt lat="49.8193" lon="2.14401">
        <ele>122.5</ele>
        <time>2023-02-22T13:52:59Z</time>
      </trkpt>
      <trkpt lat="49.81931" lon="2.14401">
        <ele>122.5</ele>
        <time>2023-02-22T13:53:00Z</time>
      </trkpt>
      <trkpt lat="49.81931" lon="2.144">
        <ele>122.6</ele>
        <time>2023-02-22T13:53:01Z</time>
      </trkpt>
      <trkpt lat="49.81932" lon="2.144">
        <ele>122.6</ele>
        <time>2023-02-22T13:53:02Z</time>
      </trkpt>
      <trkpt lat="49.81933" lon="2.144">
        <ele>122.7</ele>
        <time>2023-02-22T13:53:03Z</time>
      </trkpt>
      <trkpt lat="49.81934" lon="2.144">
        <ele>122.7</ele>
        <time>2023-02-22T13:53:05Z</time>
      </trkpt>
      <trkpt lat="49.81935" lon="2.144">
        <ele>122.8</ele>
        <time>2023-02-22T13:53:06Z</time>
      </trkpt>
      <trkpt lat="49.81936" lon="2.14399">
        <ele>122.8</ele>
        <time>2023-02-22T13:53:07Z</time>
      </trkpt>
      <trkpt lat="49.81938" lon="2.14399">
        <ele>122.9</ele>
        <time>2023-02-22T13:53:09Z</time>
      </trkpt>
      <trkpt lat="49.81939" lon="2.14399">
        <ele>123</ele>
        <time>2023-02-22T13:53:10Z</time>
      </trkpt>
      <trkpt lat="49.8194" lon="2.14399">
        <ele>123.1</ele>
        <time>2023-02-22T13:53:12Z</time>
      </trkpt>
      <trkpt lat="49.81941" lon="2.14399">
        <ele>123.1</ele>
        <time>2023-02-22T13:53:13Z</time>
      </trkpt>
      <trkpt lat="49.81944" lon="2.14399">
        <ele>123.3</ele>
        <time>2023-02-22T13:53:14Z</time>
      </trkpt>
      <trkpt lat="49.81945" lon="2.14399">
        <ele>123.3</ele>
        <time>2023-02-22T13:53:15Z</time>
      </trkpt>
      <trkpt lat="49.81946" lon="2.14399">
        <ele>123.4</ele>
        <time>2023-02-22T13:53:17Z</time>
      </trkpt>
      <trkpt lat="49.81947" lon="2.144">
        <ele>123.4</ele>
        <time>2023-02-22T13:53:18Z</time>
      </trkpt>
      <trkpt lat="49.81948" lon="2.144">
        <ele>123.5</ele>
        <time>2023-02-22T13:53:20Z</time>
      </trkpt>
      <trkpt lat="49.81949" lon="2.144">
        <ele>123.6</ele>
        <time>2023-02-22T13:53:21Z</time>
      </trkpt>
      <trkpt lat="49.81951" lon="2.144">
        <ele>123.6</ele>
        <time>2023-02-22T13:53:22Z</time>
      </trkpt>
      <trkpt lat="49.81952" lon="2.14401">
        <ele>123.7</ele>
        <time>2023-02-22T13:53:23Z</time>
      </trkpt>
      <trkpt lat="49.81953" lon="2.14401">
        <ele>123.7</ele>
        <time>2023-02-22T13:53:25Z</time>
      </trkpt>
      <trkpt lat="49.81954" lon="2.14401">
        <ele>123.8</ele>
        <time>2023-02-22T13:53:26Z</time>
      </trkpt>
      <trkpt lat="49.81955" lon="2.14402">
        <ele>123.8</ele>
        <time>2023-02-22T13:53:27Z</time>
      </trkpt>
      <trkpt lat="49.81957" lon="2.14402">
        <ele>123.9</ele>
        <time>2023-02-22T13:53:28Z</time>
      </trkpt>
      <trkpt lat="49.81958" lon="2.14403">
        <ele>124</ele>
        <time>2023-02-22T13:53:29Z</time>
      </trkpt>
      <trkpt lat="49.81959" lon="2.14403">
        <ele>124</ele>
        <time>2023-02-22T13:53:30Z</time>
      </trkpt>
      <trkpt lat="49.8196" lon="2.14404">
        <ele>124.1</ele>
        <time>2023-02-22T13:53:32Z</time>
      </trkpt>
      <trkpt lat="49.81961" lon="2.14405">
        <ele>124.1</ele>
        <time>2023-02-22T13:53:33Z</time>
      </trkpt>
      <trkpt lat="49.81962" lon="2.14405">
        <ele>124.2</ele>
        <time>2023-02-22T13:53:34Z</time>
      </trkpt>
      <trkpt lat="49.81964" lon="2.14407">
        <ele>124.2</ele>
        <time>2023-02-22T13:53:35Z</time>
      </trkpt>
      <trkpt lat="49.81965" lon="2.14408">
        <ele>124.3</ele>
        <time>2023-02-22T13:53:36Z</time>
      </trkpt>
      <trkpt lat="49.81967" lon="2.1441">
        <ele>124.4</ele>
        <time>2023-02-22T13:53:38Z</time>
      </trkpt>
      <trkpt lat="49.81968" lon="2.14411">
        <ele>124.5</ele>
        <time>2023-02-22T13:53:39Z</time>
      </trkpt>
      <trkpt lat="49.8197" lon="2.14413">
        <ele>124.6</ele>
        <time>2023-02-22T13:53:40Z</time>
      </trkpt>
      <trkpt lat="49.81971" lon="2.14413">
        <ele>124.6</ele>
        <time>2023-02-22T13:53:42Z</time>
      </trkpt>
      <trkpt lat="49.81972" lon="2.14414">
        <ele>124.6</ele>
        <time>2023-02-22T13:53:43Z</time>
      </trkpt>
      <trkpt lat="49.81973" lon="2.14416">
        <ele>124.7</ele>
        <time>2023-02-22T13:53:44Z</time>
      </trkpt>
      <trkpt lat="49.81974" lon="2.14417">
        <ele>124.8</ele>
        <time>2023-02-22T13:53:45Z</time>
      </trkpt>
      <trkpt lat="49.81976" lon="2.14418">
        <ele>124.8</ele>
        <time>2023-02-22T13:53:46Z</time>
      </trkpt>
      <trkpt lat="49.81977" lon="2.14419">
        <ele>124.9</ele>
        <time>2023-02-22T13:53:47Z</time>
      </trkpt>
      <trkpt lat="49.81978" lon="2.14421">
        <ele>124.9</ele>
        <time>2023-02-22T13:53:49Z</time>
      </trkpt>
      <trkpt lat="49.81979" lon="2.14422">
        <ele>125</ele>
        <time>2023-02-22T13:53:50Z</time>
      </trkpt>
      <trkpt lat="49.8198" lon="2.14424">
        <ele>125.1</ele>
        <time>2023-02-22T13:53:51Z</time>
      </trkpt>
      <trkpt lat="49.81981" lon="2.14425">
        <ele>125.1</ele>
        <time>2023-02-22T13:53:52Z</time>
      </trkpt>
      <trkpt lat="49.81982" lon="2.14426">
        <ele>125.1</ele>
        <time>2023-02-22T13:53:53Z</time>
      </trkpt>
      <trkpt lat="49.81983" lon="2.14427">
        <ele>125.2</ele>
        <time>2023-02-22T13:53:54Z</time>
      </trkpt>
      <trkpt lat="49.81984" lon="2.14428">
        <ele>125.2</ele>
        <time>2023-02-22T13:53:56Z</time>
      </trkpt>
      <trkpt lat="49.81985" lon="2.1443">
        <ele>125.3</ele>
        <time>2023-02-22T13:53:57Z</time>
      </trkpt>
      <trkpt lat="49.81986" lon="2.14431">
        <ele>125.3</ele>
        <time>2023-02-22T13:53:58Z</time>
      </trkpt>
      <trkpt lat="49.81988" lon="2.14433">
        <ele>125.4</ele>
        <time>2023-02-22T13:53:59Z</time>
      </trkpt>
      <trkpt lat="49.81989" lon="2.14433">
        <ele>125.4</ele>
        <time>2023-02-22T13:54:00Z</time>
      </trkpt>
      <trkpt lat="49.81989" lon="2.14434">
        <ele>125.4</ele>
        <time>2023-02-22T13:54:01Z</time>
      </trkpt>
      <trkpt lat="49.81991" lon="2.14436">
        <ele>125.5</ele>
        <time>2023-02-22T13:54:03Z</time>
      </trkpt>
      <trkpt lat="49.81992" lon="2.14437">
        <ele>125.5</ele>
        <time>2023-02-22T13:54:04Z</time>
      </trkpt>
      <trkpt lat="49.81993" lon="2.14437">
        <ele>125.5</ele>
        <time>2023-02-22T13:54:05Z</time>
      </trkpt>
      <trkpt lat="49.81994" lon="2.14439">
        <ele>125.6</ele>
        <time>2023-02-22T13:54:06Z</time>
      </trkpt>
      <trkpt lat="49.81995" lon="2.14439">
        <ele>125.6</ele>
        <time>2023-02-22T13:54:07Z</time>
      </trkpt>
      <trkpt lat="49.81996" lon="2.1444">
        <ele>125.6</ele>
        <time>2023-02-22T13:54:09Z</time>
      </trkpt>
      <trkpt lat="49.81997" lon="2.14441">
        <ele>125.6</ele>
        <time>2023-02-22T13:54:10Z</time>
      </trkpt>
      <trkpt lat="49.81998" lon="2.14442">
        <ele>125.7</ele>
        <time>2023-02-22T13:54:11Z</time>
      </trkpt>
      <trkpt lat="49.81998" lon="2.14443">
        <ele>125.7</ele>
        <time>2023-02-22T13:54:12Z</time>
      </trkpt>
      <trkpt lat="49.81999" lon="2.14443">
        <ele>125.7</ele>
        <time>2023-02-22T13:54:13Z</time>
      </trkpt>
      <trkpt lat="49.82" lon="2.14444">
        <ele>125.7</ele>
        <time>2023-02-22T13:54:14Z</time>
      </trkpt>
      <trkpt lat="49.82001" lon="2.14445">
        <ele>125.7</ele>
        <time>2023-02-22T13:54:16Z</time>
      </trkpt>
      <trkpt lat="49.82002" lon="2.14446">
        <ele>125.7</ele>
        <time>2023-02-22T13:54:17Z</time>
      </trkpt>
      <trkpt lat="49.82003" lon="2.14448">
        <ele>125.8</ele>
        <time>2023-02-22T13:54:18Z</time>
      </trkpt>
      <trkpt lat="49.82004" lon="2.14449">
        <ele>125.8</ele>
        <time>2023-02-22T13:54:19Z</time>
      </trkpt>
      <trkpt lat="49.82005" lon="2.1445">
        <ele>125.8</ele>
        <time>2023-02-22T13:54:20Z</time>
      </trkpt>
      <trkpt lat="49.82006" lon="2.14451">
        <ele>125.8</ele>
        <time>2023-02-22T13:54:21Z</time>
      </trkpt>
      <trkpt lat="49.82006" lon="2.14453">
        <ele>125.8</ele>
        <time>2023-02-22T13:54:22Z</time>
      </trkpt>
      <trkpt lat="49.82008" lon="2.14455">
        <ele>125.8</ele>
        <time>2023-02-22T13:54:23Z</time>
      </trkpt>
      <trkpt lat="49.82009" lon="2.14456">
        <ele>125.8</ele>
        <time>2023-02-22T13:54:25Z</time>
      </trkpt>
      <trkpt lat="49.8201" lon="2.14456">
        <ele>125.8</ele>
        <time>2023-02-22T13:54:26Z</time>
      </trkpt>
      <trkpt lat="49.82011" lon="2.14458">
        <ele>125.9</ele>
        <time>2023-02-22T13:54:27Z</time>
      </trkpt>
      <trkpt lat="49.82012" lon="2.14459">
        <ele>125.9</ele>
        <time>2023-02-22T13:54:29Z</time>
      </trkpt>
      <trkpt lat="49.82013" lon="2.1446">
        <ele>125.9</ele>
        <time>2023-02-22T13:54:30Z</time>
      </trkpt>
      <trkpt lat="49.82014" lon="2.14461">
        <ele>125.9</ele>
        <time>2023-02-22T13:54:31Z</time>
      </trkpt>
      <trkpt lat="49.82015" lon="2.14462">
        <ele>125.9</ele>
        <time>2023-02-22T13:54:32Z</time>
      </trkpt>
      <trkpt lat="49.82017" lon="2.14464">
        <ele>125.9</ele>
        <time>2023-02-22T13:54:33Z</time>
      </trkpt>
      <trkpt lat="49.82017" lon="2.14465">
        <ele>125.9</ele>
        <time>2023-02-22T13:54:34Z</time>
      </trkpt>
      <trkpt lat="49.82018" lon="2.14465">
        <ele>125.9</ele>
        <time>2023-02-22T13:54:35Z</time>
      </trkpt>
      <trkpt lat="49.82019" lon="2.14467">
        <ele>125.9</ele>
        <time>2023-02-22T13:54:36Z</time>
      </trkpt>
      <trkpt lat="49.8202" lon="2.14468">
        <ele>125.9</ele>
        <time>2023-02-22T13:54:37Z</time>
      </trkpt>
      <trkpt lat="49.82021" lon="2.14469">
        <ele>125.9</ele>
        <time>2023-02-22T13:54:39Z</time>
      </trkpt>
      <trkpt lat="49.82022" lon="2.14471">
        <ele>125.9</ele>
        <time>2023-02-22T13:54:40Z</time>
      </trkpt>
      <trkpt lat="49.82022" lon="2.14472">
        <ele>125.9</ele>
        <time>2023-02-22T13:54:41Z</time>
      </trkpt>
      <trkpt lat="49.82023" lon="2.14473">
        <ele>125.9</ele>
        <time>2023-02-22T13:54:42Z</time>
      </trkpt>
      <trkpt lat="49.82025" lon="2.14475">
        <ele>125.9</ele>
        <time>2023-02-22T13:54:43Z</time>
      </trkpt>
      <trkpt lat="49.82025" lon="2.14476">
        <ele>125.9</ele>
        <time>2023-02-22T13:54:44Z</time>
      </trkpt>
      <trkpt lat="49.82026" lon="2.14477">
        <ele>125.9</ele>
        <time>2023-02-22T13:54:45Z</time>
      </trkpt>
      <trkpt lat="49.82027" lon="2.14479">
        <ele>125.9</ele>
        <time>2023-02-22T13:54:46Z</time>
      </trkpt>
      <trkpt lat="49.82028" lon="2.1448">
        <ele>125.9</ele>
        <time>2023-02-22T13:54:47Z</time>
      </trkpt>
      <trkpt lat="49.82028" lon="2.14481">
        <ele>126</ele>
        <time>2023-02-22T13:54:49Z</time>
      </trkpt>
      <trkpt lat="49.82029" lon="2.14483">
        <ele>126</ele>
        <time>2023-02-22T13:54:50Z</time>
      </trkpt>
      <trkpt lat="49.82029" lon="2.14484">
        <ele>126</ele>
        <time>2023-02-22T13:54:51Z</time>
      </trkpt>
      <trkpt lat="49.8203" lon="2.14486">
        <ele>126</ele>
        <time>2023-02-22T13:54:52Z</time>
      </trkpt>
      <trkpt lat="49.82031" lon="2.14489">
        <ele>126</ele>
        <time>2023-02-22T13:54:53Z</time>
      </trkpt>
      <trkpt lat="49.82031" lon="2.1449">
        <ele>126</ele>
        <time>2023-02-22T13:54:54Z</time>
      </trkpt>
      <trkpt lat="49.82031" lon="2.14491">
        <ele>126</ele>
        <time>2023-02-22T13:54:55Z</time>
      </trkpt>
      <trkpt lat="49.82032" lon="2.14494">
        <ele>126</ele>
        <time>2023-02-22T13:54:56Z</time>
      </trkpt>
      <trkpt lat="49.82033" lon="2.14495">
        <ele>126</ele>
        <time>2023-02-22T13:54:57Z</time>
      </trkpt>
      <trkpt lat="49.82033" lon="2.14496">
        <ele>126</ele>
        <time>2023-02-22T13:54:58Z</time>
      </trkpt>
      <trkpt lat="49.82034" lon="2.14498">
        <ele>126</ele>
        <time>2023-02-22T13:55:00Z</time>
      </trkpt>
      <trkpt lat="49.82034" lon="2.14499">
        <ele>126</ele>
        <time>2023-02-22T13:55:01Z</time>
      </trkpt>
      <trkpt lat="49.82035" lon="2.145">
        <ele>126</ele>
        <time>2023-02-22T13:55:02Z</time>
      </trkpt>
      <trkpt lat="49.82037" lon="2.14503">
        <ele>126</ele>
        <time>2023-02-22T13:55:03Z</time>
      </trkpt>
      <trkpt lat="49.82037" lon="2.14504">
        <ele>126</ele>
        <time>2023-02-22T13:55:04Z</time>
      </trkpt>
      <trkpt lat="49.82038" lon="2.14505">
        <ele>126</ele>
        <time>2023-02-22T13:55:05Z</time>
      </trkpt>
      <trkpt lat="49.82039" lon="2.14508">
        <ele>126</ele>
        <time>2023-02-22T13:55:06Z</time>
      </trkpt>
      <trkpt lat="49.8204" lon="2.14509">
        <ele>126</ele>
        <time>2023-02-22T13:55:07Z</time>
      </trkpt>
      <trkpt lat="49.8204" lon="2.1451">
        <ele>126</ele>
        <time>2023-02-22T13:55:08Z</time>
      </trkpt>
      <trkpt lat="49.82042" lon="2.14513">
        <ele>126</ele>
        <time>2023-02-22T13:55:10Z</time>
      </trkpt>
      <trkpt lat="49.82042" lon="2.14513">
        <ele>126</ele>
        <time>2023-02-22T13:55:11Z</time>
      </trkpt>
      <trkpt lat="49.82043" lon="2.14514">
        <ele>126</ele>
        <time>2023-02-22T13:55:12Z</time>
      </trkpt>
      <trkpt lat="49.82044" lon="2.14517">
        <ele>126</ele>
        <time>2023-02-22T13:55:13Z</time>
      </trkpt>
      <trkpt lat="49.82045" lon="2.14518">
        <ele>126</ele>
        <time>2023-02-22T13:55:14Z</time>
      </trkpt>
      <trkpt lat="49.82045" lon="2.14519">
        <ele>126</ele>
        <time>2023-02-22T13:55:15Z</time>
      </trkpt>
      <trkpt lat="49.82047" lon="2.14521">
        <ele>125.9</ele>
        <time>2023-02-22T13:55:16Z</time>
      </trkpt>
      <trkpt lat="49.82048" lon="2.14522">
        <ele>125.9</ele>
        <time>2023-02-22T13:55:17Z</time>
      </trkpt>
      <trkpt lat="49.82048" lon="2.14523">
        <ele>125.9</ele>
        <time>2023-02-22T13:55:18Z</time>
      </trkpt>
      <trkpt lat="49.82049" lon="2.14524">
        <ele>125.9</ele>
        <time>2023-02-22T13:55:19Z</time>
      </trkpt>
      <trkpt lat="49.8205" lon="2.14525">
        <ele>125.9</ele>
        <time>2023-02-22T13:55:21Z</time>
      </trkpt>
      <trkpt lat="49.82051" lon="2.14526">
        <ele>125.9</ele>
        <time>2023-02-22T13:55:22Z</time>
      </trkpt>
      <trkpt lat="49.82052" lon="2.14529">
        <ele>125.9</ele>
        <time>2023-02-22T13:55:23Z</time>
      </trkpt>
      <trkpt lat="49.82053" lon="2.1453">
        <ele>125.9</ele>
        <time>2023-02-22T13:55:24Z</time>
      </trkpt>
      <trkpt lat="49.82054" lon="2.14531">
        <ele>125.9</ele>
        <time>2023-02-22T13:55:25Z</time>
      </trkpt>
      <trkpt lat="49.82055" lon="2.14532">
        <ele>125.9</ele>
        <time>2023-02-22T13:55:26Z</time>
      </trkpt>
      <trkpt lat="49.82056" lon="2.14534">
        <ele>125.9</ele>
        <time>2023-02-22T13:55:28Z</time>
      </trkpt>
      <trkpt lat="49.82057" lon="2.14536">
        <ele>125.8</ele>
        <time>2023-02-22T13:55:29Z</time>
      </trkpt>
      <trkpt lat="49.82058" lon="2.14537">
        <ele>125.8</ele>
        <time>2023-02-22T13:55:30Z</time>
      </trkpt>
      <trkpt lat="49.82059" lon="2.14539">
        <ele>125.8</ele>
        <time>2023-02-22T13:55:31Z</time>
      </trkpt>
      <trkpt lat="49.8206" lon="2.1454">
        <ele>125.8</ele>
        <time>2023-02-22T13:55:33Z</time>
      </trkpt>
      <trkpt lat="49.82061" lon="2.14541">
        <ele>125.8</ele>
        <time>2023-02-22T13:55:34Z</time>
      </trkpt>
      <trkpt lat="49.82062" lon="2.14542">
        <ele>125.8</ele>
        <time>2023-02-22T13:55:35Z</time>
      </trkpt>
      <trkpt lat="49.82063" lon="2.14544">
        <ele>125.8</ele>
        <time>2023-02-22T13:55:36Z</time>
      </trkpt>
      <trkpt lat="49.82064" lon="2.14545">
        <ele>125.8</ele>
        <time>2023-02-22T13:55:37Z</time>
      </trkpt>
      <trkpt lat="49.82065" lon="2.14547">
        <ele>125.8</ele>
        <time>2023-02-22T13:55:38Z</time>
      </trkpt>
      <trkpt lat="49.82067" lon="2.14549">
        <ele>125.8</ele>
        <time>2023-02-22T13:55:39Z</time>
      </trkpt>
      <trkpt lat="49.82067" lon="2.1455">
        <ele>125.8</ele>
        <time>2023-02-22T13:55:40Z</time>
      </trkpt>
      <trkpt lat="49.82069" lon="2.14552">
        <ele>125.8</ele>
        <time>2023-02-22T13:55:41Z</time>
      </trkpt>
      <trkpt lat="49.8207" lon="2.14553">
        <ele>125.8</ele>
        <time>2023-02-22T13:55:42Z</time>
      </trkpt>
      <trkpt lat="49.8207" lon="2.14553">
        <ele>125.8</ele>
        <time>2023-02-22T13:55:43Z</time>
      </trkpt>
      <trkpt lat="49.82071" lon="2.14555">
        <ele>125.9</ele>
        <time>2023-02-22T13:55:45Z</time>
      </trkpt>
      <trkpt lat="49.82072" lon="2.14556">
        <ele>125.9</ele>
        <time>2023-02-22T13:55:46Z</time>
      </trkpt>
      <trkpt lat="49.82073" lon="2.14557">
        <ele>125.9</ele>
        <time>2023-02-22T13:55:47Z</time>
      </trkpt>
      <trkpt lat="49.82074" lon="2.14558">
        <ele>125.9</ele>
        <time>2023-02-22T13:55:48Z</time>
      </trkpt>
      <trkpt lat="49.82075" lon="2.1456">
        <ele>125.9</ele>
        <time>2023-02-22T13:55:49Z</time>
      </trkpt>
      <trkpt lat="49.82077" lon="2.14562">
        <ele>125.9</ele>
        <time>2023-02-22T13:55:51Z</time>
      </trkpt>
      <trkpt lat="49.82078" lon="2.14562">
        <ele>125.9</ele>
        <time>2023-02-22T13:55:52Z</time>
      </trkpt>
      <trkpt lat="49.82078" lon="2.14563">
        <ele>125.9</ele>
        <time>2023-02-22T13:55:53Z</time>
      </trkpt>
      <trkpt lat="49.8208" lon="2.14565">
        <ele>125.9</ele>
        <time>2023-02-22T13:55:54Z</time>
      </trkpt>
      <trkpt lat="49.82081" lon="2.14566">
        <ele>125.9</ele>
        <time>2023-02-22T13:55:55Z</time>
      </trkpt>
      <trkpt lat="49.82081" lon="2.14567">
        <ele>125.9</ele>
        <time>2023-02-22T13:55:56Z</time>
      </trkpt>
      <trkpt lat="49.82082" lon="2.14569">
        <ele>125.9</ele>
        <time>2023-02-22T13:55:57Z</time>
      </trkpt>
      <trkpt lat="49.82083" lon="2.1457">
        <ele>125.9</ele>
        <time>2023-02-22T13:55:58Z</time>
      </trkpt>
      <trkpt lat="49.82084" lon="2.14571">
        <ele>125.9</ele>
        <time>2023-02-22T13:55:59Z</time>
      </trkpt>
      <trkpt lat="49.82085" lon="2.14574">
        <ele>125.9</ele>
        <time>2023-02-22T13:56:00Z</time>
      </trkpt>
      <trkpt lat="49.82085" lon="2.14575">
        <ele>125.9</ele>
        <time>2023-02-22T13:56:02Z</time>
      </trkpt>
      <trkpt lat="49.82086" lon="2.14576">
        <ele>125.9</ele>
        <time>2023-02-22T13:56:03Z</time>
      </trkpt>
      <trkpt lat="49.82086" lon="2.14578">
        <ele>125.9</ele>
        <time>2023-02-22T13:56:04Z</time>
      </trkpt>
      <trkpt lat="49.82087" lon="2.1458">
        <ele>125.9</ele>
        <time>2023-02-22T13:56:05Z</time>
      </trkpt>
      <trkpt lat="49.82087" lon="2.14581">
        <ele>125.9</ele>
        <time>2023-02-22T13:56:06Z</time>
      </trkpt>
      <trkpt lat="49.82088" lon="2.14583">
        <ele>125.9</ele>
        <time>2023-02-22T13:56:07Z</time>
      </trkpt>
      <trkpt lat="49.82088" lon="2.14585">
        <ele>125.9</ele>
        <time>2023-02-22T13:56:08Z</time>
      </trkpt>
      <trkpt lat="49.82089" lon="2.14586">
        <ele>125.9</ele>
        <time>2023-02-22T13:56:09Z</time>
      </trkpt>
      <trkpt lat="49.82089" lon="2.14588">
        <ele>125.9</ele>
        <time>2023-02-22T13:56:10Z</time>
      </trkpt>
      <trkpt lat="49.8209" lon="2.1459">
        <ele>125.9</ele>
        <time>2023-02-22T13:56:12Z</time>
      </trkpt>
      <trkpt lat="49.82091" lon="2.14592">
        <ele>126</ele>
        <time>2023-02-22T13:56:13Z</time>
      </trkpt>
      <trkpt lat="49.82092" lon="2.14595">
        <ele>126</ele>
        <time>2023-02-22T13:56:14Z</time>
      </trkpt>
      <trkpt lat="49.82093" lon="2.14597">
        <ele>126</ele>
        <time>2023-02-22T13:56:15Z</time>
      </trkpt>
      <trkpt lat="49.82094" lon="2.14598">
        <ele>126</ele>
        <time>2023-02-22T13:56:16Z</time>
      </trkpt>
      <trkpt lat="49.82095" lon="2.14601">
        <ele>126</ele>
        <time>2023-02-22T13:56:18Z</time>
      </trkpt>
      <trkpt lat="49.82096" lon="2.14602">
        <ele>126</ele>
        <time>2023-02-22T13:56:19Z</time>
      </trkpt>
      <trkpt lat="49.82096" lon="2.14603">
        <ele>126</ele>
        <time>2023-02-22T13:56:20Z</time>
      </trkpt>
      <trkpt lat="49.82097" lon="2.14604">
        <ele>126</ele>
        <time>2023-02-22T13:56:21Z</time>
      </trkpt>
      <trkpt lat="49.82098" lon="2.14606">
        <ele>126</ele>
        <time>2023-02-22T13:56:22Z</time>
      </trkpt>
      <trkpt lat="49.82099" lon="2.14607">
        <ele>126</ele>
        <time>2023-02-22T13:56:23Z</time>
      </trkpt>
      <trkpt lat="49.821" lon="2.14609">
        <ele>126</ele>
        <time>2023-02-22T13:56:24Z</time>
      </trkpt>
      <trkpt lat="49.82101" lon="2.1461">
        <ele>126</ele>
        <time>2023-02-22T13:56:26Z</time>
      </trkpt>
      <trkpt lat="49.82102" lon="2.14611">
        <ele>126</ele>
        <time>2023-02-22T13:56:27Z</time>
      </trkpt>
      <trkpt lat="49.82102" lon="2.14612">
        <ele>126</ele>
        <time>2023-02-22T13:56:28Z</time>
      </trkpt>
      <trkpt lat="49.82103" lon="2.14614">
        <ele>126</ele>
        <time>2023-02-22T13:56:29Z</time>
      </trkpt>
      <trkpt lat="49.82104" lon="2.14616">
        <ele>126</ele>
        <time>2023-02-22T13:56:30Z</time>
      </trkpt>
      <trkpt lat="49.82105" lon="2.14617">
        <ele>126.1</ele>
        <time>2023-02-22T13:56:31Z</time>
      </trkpt>
      <trkpt lat="49.82106" lon="2.14618">
        <ele>126.1</ele>
        <time>2023-02-22T13:56:32Z</time>
      </trkpt>
      <trkpt lat="49.82106" lon="2.14619">
        <ele>126.1</ele>
        <time>2023-02-22T13:56:33Z</time>
      </trkpt>
      <trkpt lat="49.82107" lon="2.1462">
        <ele>126.1</ele>
        <time>2023-02-22T13:56:34Z</time>
      </trkpt>
      <trkpt lat="49.82108" lon="2.14621">
        <ele>126.1</ele>
        <time>2023-02-22T13:56:36Z</time>
      </trkpt>
      <trkpt lat="49.82109" lon="2.14622">
        <ele>126.1</ele>
        <time>2023-02-22T13:56:37Z</time>
      </trkpt>
      <trkpt lat="49.82109" lon="2.14623">
        <ele>126.1</ele>
        <time>2023-02-22T13:56:38Z</time>
      </trkpt>
      <trkpt lat="49.8211" lon="2.14624">
        <ele>126.1</ele>
        <time>2023-02-22T13:56:39Z</time>
      </trkpt>
      <trkpt lat="49.82112" lon="2.14626">
        <ele>126.1</ele>
        <time>2023-02-22T13:56:40Z</time>
      </trkpt>
      <trkpt lat="49.82113" lon="2.14627">
        <ele>126.1</ele>
        <time>2023-02-22T13:56:42Z</time>
      </trkpt>
      <trkpt lat="49.82114" lon="2.14628">
        <ele>126.1</ele>
        <time>2023-02-22T13:56:43Z</time>
      </trkpt>
      <trkpt lat="49.82115" lon="2.14629">
        <ele>126.1</ele>
        <time>2023-02-22T13:56:44Z</time>
      </trkpt>
      <trkpt lat="49.82115" lon="2.14631">
        <ele>126.1</ele>
        <time>2023-02-22T13:56:45Z</time>
      </trkpt>
      <trkpt lat="49.82116" lon="2.14631">
        <ele>126.1</ele>
        <time>2023-02-22T13:56:46Z</time>
      </trkpt>
      <trkpt lat="49.82117" lon="2.14633">
        <ele>126.1</ele>
        <time>2023-02-22T13:56:47Z</time>
      </trkpt>
      <trkpt lat="49.82118" lon="2.14634">
        <ele>126.1</ele>
        <time>2023-02-22T13:56:48Z</time>
      </trkpt>
      <trkpt lat="49.8212" lon="2.14636">
        <ele>126.1</ele>
        <time>2023-02-22T13:56:50Z</time>
      </trkpt>
      <trkpt lat="49.8212" lon="2.14637">
        <ele>126.1</ele>
        <time>2023-02-22T13:56:51Z</time>
      </trkpt>
      <trkpt lat="49.82121" lon="2.14637">
        <ele>126.1</ele>
        <time>2023-02-22T13:56:52Z</time>
      </trkpt>
      <trkpt lat="49.82122" lon="2.14639">
        <ele>126.1</ele>
        <time>2023-02-22T13:56:53Z</time>
      </trkpt>
      <trkpt lat="49.82123" lon="2.1464">
        <ele>126.1</ele>
        <time>2023-02-22T13:56:55Z</time>
      </trkpt>
      <trkpt lat="49.82124" lon="2.14643">
        <ele>126.1</ele>
        <time>2023-02-22T13:56:56Z</time>
      </trkpt>
      <trkpt lat="49.82125" lon="2.14645">
        <ele>126.1</ele>
        <time>2023-02-22T13:56:57Z</time>
      </trkpt>
      <trkpt lat="49.82126" lon="2.14646">
        <ele>126.1</ele>
        <time>2023-02-22T13:56:59Z</time>
      </trkpt>
      <trkpt lat="49.82127" lon="2.14648">
        <ele>126.2</ele>
        <time>2023-02-22T13:57:00Z</time>
      </trkpt>
      <trkpt lat="49.82128" lon="2.14649">
        <ele>126.2</ele>
        <time>2023-02-22T13:57:01Z</time>
      </trkpt>
      <trkpt lat="49.8213" lon="2.14651">
        <ele>126.2</ele>
        <time>2023-02-22T13:57:02Z</time>
      </trkpt>
      <trkpt lat="49.82131" lon="2.14652">
        <ele>126.2</ele>
        <time>2023-02-22T13:57:03Z</time>
      </trkpt>
      <trkpt lat="49.82132" lon="2.14653">
        <ele>126.2</ele>
        <time>2023-02-22T13:57:04Z</time>
      </trkpt>
      <trkpt lat="49.82134" lon="2.14655">
        <ele>126.2</ele>
        <time>2023-02-22T13:57:05Z</time>
      </trkpt>
      <trkpt lat="49.82134" lon="2.14656">
        <ele>126.2</ele>
        <time>2023-02-22T13:57:06Z</time>
      </trkpt>
      <trkpt lat="49.82135" lon="2.14657">
        <ele>126.2</ele>
        <time>2023-02-22T13:57:07Z</time>
      </trkpt>
      <trkpt lat="49.82136" lon="2.14658">
        <ele>126.2</ele>
        <time>2023-02-22T13:57:08Z</time>
      </trkpt>
      <trkpt lat="49.82137" lon="2.1466">
        <ele>126.2</ele>
        <time>2023-02-22T13:57:10Z</time>
      </trkpt>
      <trkpt lat="49.82138" lon="2.14661">
        <ele>126.1</ele>
        <time>2023-02-22T13:57:11Z</time>
      </trkpt>
      <trkpt lat="49.8214" lon="2.14662">
        <ele>126.1</ele>
        <time>2023-02-22T13:57:12Z</time>
      </trkpt>
      <trkpt lat="49.8214" lon="2.14663">
        <ele>126.1</ele>
        <time>2023-02-22T13:57:14Z</time>
      </trkpt>
      <trkpt lat="49.82141" lon="2.14664">
        <ele>126.1</ele>
        <time>2023-02-22T13:57:15Z</time>
      </trkpt>
      <trkpt lat="49.82142" lon="2.14665">
        <ele>126.1</ele>
        <time>2023-02-22T13:57:16Z</time>
      </trkpt>
      <trkpt lat="49.82143" lon="2.14667">
        <ele>126.1</ele>
        <time>2023-02-22T13:57:17Z</time>
      </trkpt>
      <trkpt lat="49.82144" lon="2.14669">
        <ele>126.1</ele>
        <time>2023-02-22T13:57:19Z</time>
      </trkpt>
      <trkpt lat="49.82145" lon="2.1467">
        <ele>126.1</ele>
        <time>2023-02-22T13:57:20Z</time>
      </trkpt>
      <trkpt lat="49.82146" lon="2.14671">
        <ele>126.1</ele>
        <time>2023-02-22T13:57:21Z</time>
      </trkpt>
      <trkpt lat="49.82147" lon="2.14673">
        <ele>126.1</ele>
        <time>2023-02-22T13:57:22Z</time>
      </trkpt>
      <trkpt lat="49.82147" lon="2.14674">
        <ele>126.1</ele>
        <time>2023-02-22T13:57:23Z</time>
      </trkpt>
      <trkpt lat="49.82148" lon="2.14677">
        <ele>126</ele>
        <time>2023-02-22T13:57:24Z</time>
      </trkpt>
      <trkpt lat="49.82149" lon="2.14678">
        <ele>126</ele>
        <time>2023-02-22T13:57:25Z</time>
      </trkpt>
      <trkpt lat="49.82149" lon="2.14679">
        <ele>126</ele>
        <time>2023-02-22T13:57:26Z</time>
      </trkpt>
      <trkpt lat="49.8215" lon="2.14681">
        <ele>126</ele>
        <time>2023-02-22T13:57:27Z</time>
      </trkpt>
      <trkpt lat="49.82151" lon="2.14682">
        <ele>126</ele>
        <time>2023-02-22T13:57:28Z</time>
      </trkpt>
      <trkpt lat="49.82152" lon="2.14684">
        <ele>126</ele>
        <time>2023-02-22T13:57:30Z</time>
      </trkpt>
      <trkpt lat="49.82153" lon="2.14686">
        <ele>126</ele>
        <time>2023-02-22T13:57:31Z</time>
      </trkpt>
      <trkpt lat="49.82154" lon="2.14688">
        <ele>125.9</ele>
        <time>2023-02-22T13:57:32Z</time>
      </trkpt>
      <trkpt lat="49.82155" lon="2.14689">
        <ele>125.9</ele>
        <time>2023-02-22T13:57:33Z</time>
      </trkpt>
      <trkpt lat="49.82155" lon="2.1469">
        <ele>125.9</ele>
        <time>2023-02-22T13:57:35Z</time>
      </trkpt>
      <trkpt lat="49.82156" lon="2.14691">
        <ele>125.9</ele>
        <time>2023-02-22T13:57:36Z</time>
      </trkpt>
      <trkpt lat="49.82158" lon="2.14692">
        <ele>125.9</ele>
        <time>2023-02-22T13:57:37Z</time>
      </trkpt>
      <trkpt lat="49.82159" lon="2.14693">
        <ele>125.9</ele>
        <time>2023-02-22T13:57:38Z</time>
      </trkpt>
      <trkpt lat="49.8216" lon="2.14694">
        <ele>125.9</ele>
        <time>2023-02-22T13:57:39Z</time>
      </trkpt>
      <trkpt lat="49.82161" lon="2.14695">
        <ele>125.8</ele>
        <time>2023-02-22T13:57:40Z</time>
      </trkpt>
      <trkpt lat="49.82162" lon="2.14696">
        <ele>125.8</ele>
        <time>2023-02-22T13:57:41Z</time>
      </trkpt>
      <trkpt lat="49.82163" lon="2.14697">
        <ele>125.8</ele>
        <time>2023-02-22T13:57:42Z</time>
      </trkpt>
      <trkpt lat="49.82164" lon="2.14697">
        <ele>125.8</ele>
        <time>2023-02-22T13:57:44Z</time>
      </trkpt>
      <trkpt lat="49.82165" lon="2.14699">
        <ele>125.8</ele>
        <time>2023-02-22T13:57:45Z</time>
      </trkpt>
      <trkpt lat="49.82166" lon="2.14699">
        <ele>125.8</ele>
        <time>2023-02-22T13:57:46Z</time>
      </trkpt>
      <trkpt lat="49.82167" lon="2.14702">
        <ele>125.8</ele>
        <time>2023-02-22T13:57:47Z</time>
      </trkpt>
      <trkpt lat="49.82168" lon="2.14702">
        <ele>125.8</ele>
        <time>2023-02-22T13:57:48Z</time>
      </trkpt>
      <trkpt lat="49.82169" lon="2.14703">
        <ele>125.8</ele>
        <time>2023-02-22T13:57:49Z</time>
      </trkpt>
      <trkpt lat="49.8217" lon="2.14704">
        <ele>125.8</ele>
        <time>2023-02-22T13:57:50Z</time>
      </trkpt>
      <trkpt lat="49.82171" lon="2.14706">
        <ele>125.8</ele>
        <time>2023-02-22T13:57:52Z</time>
      </trkpt>
      <trkpt lat="49.82171" lon="2.14707">
        <ele>125.8</ele>
        <time>2023-02-22T13:57:53Z</time>
      </trkpt>
      <trkpt lat="49.82173" lon="2.14709">
        <ele>125.8</ele>
        <time>2023-02-22T13:57:54Z</time>
      </trkpt>
      <trkpt lat="49.82173" lon="2.1471">
        <ele>125.8</ele>
        <time>2023-02-22T13:57:55Z</time>
      </trkpt>
      <trkpt lat="49.82174" lon="2.14711">
        <ele>125.8</ele>
        <time>2023-02-22T13:57:56Z</time>
      </trkpt>
      <trkpt lat="49.82176" lon="2.14713">
        <ele>125.8</ele>
        <time>2023-02-22T13:57:57Z</time>
      </trkpt>
      <trkpt lat="49.82176" lon="2.14713">
        <ele>125.8</ele>
        <time>2023-02-22T13:57:58Z</time>
      </trkpt>
      <trkpt lat="49.82177" lon="2.14714">
        <ele>125.8</ele>
        <time>2023-02-22T13:57:59Z</time>
      </trkpt>
      <trkpt lat="49.82178" lon="2.14715">
        <ele>125.8</ele>
        <time>2023-02-22T13:58:01Z</time>
      </trkpt>
      <trkpt lat="49.82178" lon="2.14716">
        <ele>125.8</ele>
        <time>2023-02-22T13:58:02Z</time>
      </trkpt>
      <trkpt lat="49.82179" lon="2.14718">
        <ele>125.8</ele>
        <time>2023-02-22T13:58:03Z</time>
      </trkpt>
      <trkpt lat="49.82181" lon="2.1472">
        <ele>125.8</ele>
        <time>2023-02-22T13:58:04Z</time>
      </trkpt>
      <trkpt lat="49.82181" lon="2.14721">
        <ele>125.8</ele>
        <time>2023-02-22T13:58:05Z</time>
      </trkpt>
      <trkpt lat="49.82182" lon="2.14722">
        <ele>125.8</ele>
        <time>2023-02-22T13:58:06Z</time>
      </trkpt>
      <trkpt lat="49.82183" lon="2.14724">
        <ele>125.7</ele>
        <time>2023-02-22T13:58:07Z</time>
      </trkpt>
      <trkpt lat="49.82184" lon="2.14725">
        <ele>125.7</ele>
        <time>2023-02-22T13:58:08Z</time>
      </trkpt>
      <trkpt lat="49.82185" lon="2.14726">
        <ele>125.7</ele>
        <time>2023-02-22T13:58:09Z</time>
      </trkpt>
      <trkpt lat="49.82186" lon="2.14727">
        <ele>125.7</ele>
        <time>2023-02-22T13:58:11Z</time>
      </trkpt>
      <trkpt lat="49.82187" lon="2.14728">
        <ele>125.7</ele>
        <time>2023-02-22T13:58:12Z</time>
      </trkpt>
      <trkpt lat="49.82188" lon="2.14729">
        <ele>125.7</ele>
        <time>2023-02-22T13:58:13Z</time>
      </trkpt>
      <trkpt lat="49.82189" lon="2.1473">
        <ele>125.7</ele>
        <time>2023-02-22T13:58:14Z</time>
      </trkpt>
      <trkpt lat="49.8219" lon="2.14731">
        <ele>125.7</ele>
        <time>2023-02-22T13:58:15Z</time>
      </trkpt>
      <trkpt lat="49.82192" lon="2.14733">
        <ele>125.7</ele>
        <time>2023-02-22T13:58:16Z</time>
      </trkpt>
      <trkpt lat="49.82192" lon="2.14733">
        <ele>125.7</ele>
        <time>2023-02-22T13:58:17Z</time>
      </trkpt>
      <trkpt lat="49.82193" lon="2.14734">
        <ele>125.7</ele>
        <time>2023-02-22T13:58:18Z</time>
      </trkpt>
      <trkpt lat="49.82195" lon="2.14736">
        <ele>125.6</ele>
        <time>2023-02-22T13:58:20Z</time>
      </trkpt>
      <trkpt lat="49.82195" lon="2.14737">
        <ele>125.6</ele>
        <time>2023-02-22T13:58:21Z</time>
      </trkpt>
      <trkpt lat="49.82196" lon="2.14737">
        <ele>125.6</ele>
        <time>2023-02-22T13:58:22Z</time>
      </trkpt>
      <trkpt lat="49.82197" lon="2.14739">
        <ele>125.6</ele>
        <time>2023-02-22T13:58:24Z</time>
      </trkpt>
      <trkpt lat="49.82198" lon="2.1474">
        <ele>125.6</ele>
        <time>2023-02-22T13:58:25Z</time>
      </trkpt>
      <trkpt lat="49.82199" lon="2.14741">
        <ele>125.6</ele>
        <time>2023-02-22T13:58:26Z</time>
      </trkpt>
      <trkpt lat="49.822" lon="2.14743">
        <ele>125.6</ele>
        <time>2023-02-22T13:58:27Z</time>
      </trkpt>
      <trkpt lat="49.82201" lon="2.14744">
        <ele>125.6</ele>
        <time>2023-02-22T13:58:28Z</time>
      </trkpt>
      <trkpt lat="49.82202" lon="2.14745">
        <ele>125.6</ele>
        <time>2023-02-22T13:58:29Z</time>
      </trkpt>
      <trkpt lat="49.82203" lon="2.14747">
        <ele>125.6</ele>
        <time>2023-02-22T13:58:30Z</time>
      </trkpt>
      <trkpt lat="49.82203" lon="2.14748">
        <ele>125.6</ele>
        <time>2023-02-22T13:58:31Z</time>
      </trkpt>
      <trkpt lat="49.82204" lon="2.1475">
        <ele>125.6</ele>
        <time>2023-02-22T13:58:32Z</time>
      </trkpt>
      <trkpt lat="49.82205" lon="2.14751">
        <ele>125.6</ele>
        <time>2023-02-22T13:58:34Z</time>
      </trkpt>
      <trkpt lat="49.82206" lon="2.14753">
        <ele>125.6</ele>
        <time>2023-02-22T13:58:35Z</time>
      </trkpt>
      <trkpt lat="49.82207" lon="2.14754">
        <ele>125.6</ele>
        <time>2023-02-22T13:58:36Z</time>
      </trkpt>
      <trkpt lat="49.82208" lon="2.14755">
        <ele>125.6</ele>
        <time>2023-02-22T13:58:37Z</time>
      </trkpt>
      <trkpt lat="49.82208" lon="2.14756">
        <ele>125.6</ele>
        <time>2023-02-22T13:58:38Z</time>
      </trkpt>
      <trkpt lat="49.82209" lon="2.14756">
        <ele>125.6</ele>
        <time>2023-02-22T13:58:39Z</time>
      </trkpt>
      <trkpt lat="49.8221" lon="2.14758">
        <ele>125.6</ele>
        <time>2023-02-22T13:58:40Z</time>
      </trkpt>
      <trkpt lat="49.82211" lon="2.14758">
        <ele>125.6</ele>
        <time>2023-02-22T13:58:41Z</time>
      </trkpt>
      <trkpt lat="49.82212" lon="2.1476">
        <ele>125.6</ele>
        <time>2023-02-22T13:58:43Z</time>
      </trkpt>
      <trkpt lat="49.82213" lon="2.14761">
        <ele>125.6</ele>
        <time>2023-02-22T13:58:44Z</time>
      </trkpt>
      <trkpt lat="49.82213" lon="2.14762">
        <ele>125.7</ele>
        <time>2023-02-22T13:58:45Z</time>
      </trkpt>
      <trkpt lat="49.82214" lon="2.14764">
        <ele>125.7</ele>
        <time>2023-02-22T13:58:46Z</time>
      </trkpt>
      <trkpt lat="49.82215" lon="2.14765">
        <ele>125.7</ele>
        <time>2023-02-22T13:58:47Z</time>
      </trkpt>
      <trkpt lat="49.82217" lon="2.14767">
        <ele>125.7</ele>
        <time>2023-02-22T13:58:48Z</time>
      </trkpt>
      <trkpt lat="49.82217" lon="2.14768">
        <ele>125.7</ele>
        <time>2023-02-22T13:58:49Z</time>
      </trkpt>
      <trkpt lat="49.82218" lon="2.14769">
        <ele>125.7</ele>
        <time>2023-02-22T13:58:51Z</time>
      </trkpt>
      <trkpt lat="49.82219" lon="2.1477">
        <ele>125.7</ele>
        <time>2023-02-22T13:58:52Z</time>
      </trkpt>
      <trkpt lat="49.8222" lon="2.14771">
        <ele>125.7</ele>
        <time>2023-02-22T13:58:53Z</time>
      </trkpt>
      <trkpt lat="49.82221" lon="2.14772">
        <ele>125.7</ele>
        <time>2023-02-22T13:58:54Z</time>
      </trkpt>
      <trkpt lat="49.82222" lon="2.14775">
        <ele>125.8</ele>
        <time>2023-02-22T13:58:55Z</time>
      </trkpt>
      <trkpt lat="49.82223" lon="2.14775">
        <ele>125.8</ele>
        <time>2023-02-22T13:58:56Z</time>
      </trkpt>
      <trkpt lat="49.82223" lon="2.14776">
        <ele>125.8</ele>
        <time>2023-02-22T13:58:57Z</time>
      </trkpt>
      <trkpt lat="49.82225" lon="2.14779">
        <ele>125.8</ele>
        <time>2023-02-22T13:58:58Z</time>
      </trkpt>
      <trkpt lat="49.82225" lon="2.1478">
        <ele>125.8</ele>
        <time>2023-02-22T13:59:00Z</time>
      </trkpt>
      <trkpt lat="49.82226" lon="2.14781">
        <ele>125.8</ele>
        <time>2023-02-22T13:59:01Z</time>
      </trkpt>
      <trkpt lat="49.82228" lon="2.14783">
        <ele>125.8</ele>
        <time>2023-02-22T13:59:02Z</time>
      </trkpt>
      <trkpt lat="49.82229" lon="2.14783">
        <ele>125.8</ele>
        <time>2023-02-22T13:59:04Z</time>
      </trkpt>
      <trkpt lat="49.82229" lon="2.14784">
        <ele>125.8</ele>
        <time>2023-02-22T13:59:05Z</time>
      </trkpt>
      <trkpt lat="49.82231" lon="2.14786">
        <ele>125.8</ele>
        <time>2023-02-22T13:59:06Z</time>
      </trkpt>
      <trkpt lat="49.82231" lon="2.14787">
        <ele>125.8</ele>
        <time>2023-02-22T13:59:07Z</time>
      </trkpt>
      <trkpt lat="49.82232" lon="2.14788">
        <ele>125.8</ele>
        <time>2023-02-22T13:59:08Z</time>
      </trkpt>
      <trkpt lat="49.82233" lon="2.14789">
        <ele>125.8</ele>
        <time>2023-02-22T13:59:09Z</time>
      </trkpt>
      <trkpt lat="49.82234" lon="2.14791">
        <ele>125.8</ele>
        <time>2023-02-22T13:59:10Z</time>
      </trkpt>
      <trkpt lat="49.82236" lon="2.14792">
        <ele>125.8</ele>
        <time>2023-02-22T13:59:12Z</time>
      </trkpt>
      <trkpt lat="49.82237" lon="2.14793">
        <ele>125.8</ele>
        <time>2023-02-22T13:59:13Z</time>
      </trkpt>
      <trkpt lat="49.82237" lon="2.14794">
        <ele>125.8</ele>
        <time>2023-02-22T13:59:14Z</time>
      </trkpt>
      <trkpt lat="49.82239" lon="2.14795">
        <ele>125.8</ele>
        <time>2023-02-22T13:59:15Z</time>
      </trkpt>
      <trkpt lat="49.8224" lon="2.14796">
        <ele>125.8</ele>
        <time>2023-02-22T13:59:16Z</time>
      </trkpt>
      <trkpt lat="49.82241" lon="2.14799">
        <ele>125.8</ele>
        <time>2023-02-22T13:59:17Z</time>
      </trkpt>
      <trkpt lat="49.82242" lon="2.148">
        <ele>125.8</ele>
        <time>2023-02-22T13:59:18Z</time>
      </trkpt>
      <trkpt lat="49.82243" lon="2.14801">
        <ele>125.8</ele>
        <time>2023-02-22T13:59:19Z</time>
      </trkpt>
      <trkpt lat="49.82244" lon="2.14803">
        <ele>125.8</ele>
        <time>2023-02-22T13:59:21Z</time>
      </trkpt>
      <trkpt lat="49.82245" lon="2.14804">
        <ele>125.8</ele>
        <time>2023-02-22T13:59:22Z</time>
      </trkpt>
      <trkpt lat="49.82245" lon="2.14805">
        <ele>125.8</ele>
        <time>2023-02-22T13:59:23Z</time>
      </trkpt>
      <trkpt lat="49.82246" lon="2.14807">
        <ele>125.8</ele>
        <time>2023-02-22T13:59:24Z</time>
      </trkpt>
      <trkpt lat="49.82247" lon="2.14808">
        <ele>125.8</ele>
        <time>2023-02-22T13:59:25Z</time>
      </trkpt>
      <trkpt lat="49.82248" lon="2.1481">
        <ele>125.7</ele>
        <time>2023-02-22T13:59:26Z</time>
      </trkpt>
      <trkpt lat="49.82249" lon="2.14811">
        <ele>125.7</ele>
        <time>2023-02-22T13:59:27Z</time>
      </trkpt>
      <trkpt lat="49.82249" lon="2.14812">
        <ele>125.7</ele>
        <time>2023-02-22T13:59:29Z</time>
      </trkpt>
      <trkpt lat="49.8225" lon="2.14814">
        <ele>125.7</ele>
        <time>2023-02-22T13:59:30Z</time>
      </trkpt>
      <trkpt lat="49.82251" lon="2.14815">
        <ele>125.7</ele>
        <time>2023-02-22T13:59:31Z</time>
      </trkpt>
      <trkpt lat="49.82252" lon="2.14816">
        <ele>125.7</ele>
        <time>2023-02-22T13:59:32Z</time>
      </trkpt>
      <trkpt lat="49.82254" lon="2.14818">
        <ele>125.7</ele>
        <time>2023-02-22T13:59:33Z</time>
      </trkpt>
      <trkpt lat="49.82254" lon="2.14818">
        <ele>125.7</ele>
        <time>2023-02-22T13:59:34Z</time>
      </trkpt>
      <trkpt lat="49.82255" lon="2.14819">
        <ele>125.7</ele>
        <time>2023-02-22T13:59:35Z</time>
      </trkpt>
      <trkpt lat="49.82256" lon="2.1482">
        <ele>125.7</ele>
        <time>2023-02-22T13:59:36Z</time>
      </trkpt>
      <trkpt lat="49.82257" lon="2.14821">
        <ele>125.7</ele>
        <time>2023-02-22T13:59:38Z</time>
      </trkpt>
      <trkpt lat="49.82258" lon="2.14822">
        <ele>125.7</ele>
        <time>2023-02-22T13:59:39Z</time>
      </trkpt>
      <trkpt lat="49.8226" lon="2.14824">
        <ele>125.7</ele>
        <time>2023-02-22T13:59:40Z</time>
      </trkpt>
      <trkpt lat="49.8226" lon="2.14825">
        <ele>125.7</ele>
        <time>2023-02-22T13:59:41Z</time>
      </trkpt>
      <trkpt lat="49.82261" lon="2.14826">
        <ele>125.7</ele>
        <time>2023-02-22T13:59:42Z</time>
      </trkpt>
      <trkpt lat="49.82263" lon="2.14828">
        <ele>125.6</ele>
        <time>2023-02-22T13:59:43Z</time>
      </trkpt>
      <trkpt lat="49.82264" lon="2.14828">
        <ele>125.6</ele>
        <time>2023-02-22T13:59:44Z</time>
      </trkpt>
      <trkpt lat="49.82264" lon="2.14829">
        <ele>125.6</ele>
        <time>2023-02-22T13:59:45Z</time>
      </trkpt>
      <trkpt lat="49.82265" lon="2.1483">
        <ele>125.6</ele>
        <time>2023-02-22T13:59:47Z</time>
      </trkpt>
      <trkpt lat="49.82266" lon="2.14832">
        <ele>125.6</ele>
        <time>2023-02-22T13:59:48Z</time>
      </trkpt>
      <trkpt lat="49.82268" lon="2.14834">
        <ele>125.6</ele>
        <time>2023-02-22T13:59:49Z</time>
      </trkpt>
      <trkpt lat="49.82268" lon="2.14835">
        <ele>125.6</ele>
        <time>2023-02-22T13:59:50Z</time>
      </trkpt>
      <trkpt lat="49.82269" lon="2.14836">
        <ele>125.6</ele>
        <time>2023-02-22T13:59:51Z</time>
      </trkpt>
      <trkpt lat="49.8227" lon="2.14838">
        <ele>125.6</ele>
        <time>2023-02-22T13:59:52Z</time>
      </trkpt>
      <trkpt lat="49.82271" lon="2.1484">
        <ele>125.6</ele>
        <time>2023-02-22T13:59:53Z</time>
      </trkpt>
      <trkpt lat="49.82272" lon="2.14842">
        <ele>125.6</ele>
        <time>2023-02-22T13:59:54Z</time>
      </trkpt>
      <trkpt lat="49.82273" lon="2.14844">
        <ele>125.6</ele>
        <time>2023-02-22T13:59:55Z</time>
      </trkpt>
      <trkpt lat="49.82274" lon="2.14845">
        <ele>125.6</ele>
        <time>2023-02-22T13:59:57Z</time>
      </trkpt>
      <trkpt lat="49.82274" lon="2.14846">
        <ele>125.6</ele>
        <time>2023-02-22T13:59:58Z</time>
      </trkpt>
      <trkpt lat="49.82275" lon="2.14847">
        <ele>125.6</ele>
        <time>2023-02-22T13:59:59Z</time>
      </trkpt>
      <trkpt lat="49.82276" lon="2.14848">
        <ele>125.6</ele>
        <time>2023-02-22T14:00:00Z</time>
      </trkpt>
      <trkpt lat="49.82277" lon="2.14851">
        <ele>125.6</ele>
        <time>2023-02-22T14:00:01Z</time>
      </trkpt>
      <trkpt lat="49.82278" lon="2.14852">
        <ele>125.5</ele>
        <time>2023-02-22T14:00:02Z</time>
      </trkpt>
      <trkpt lat="49.82278" lon="2.14853">
        <ele>125.5</ele>
        <time>2023-02-22T14:00:03Z</time>
      </trkpt>
      <trkpt lat="49.82279" lon="2.14855">
        <ele>125.5</ele>
        <time>2023-02-22T14:00:05Z</time>
      </trkpt>
      <trkpt lat="49.82279" lon="2.14856">
        <ele>125.5</ele>
        <time>2023-02-22T14:00:06Z</time>
      </trkpt>
      <trkpt lat="49.8228" lon="2.14857">
        <ele>125.5</ele>
        <time>2023-02-22T14:00:07Z</time>
      </trkpt>
      <trkpt lat="49.82281" lon="2.14859">
        <ele>125.5</ele>
        <time>2023-02-22T14:00:08Z</time>
      </trkpt>
      <trkpt lat="49.82282" lon="2.14861">
        <ele>125.5</ele>
        <time>2023-02-22T14:00:09Z</time>
      </trkpt>
      <trkpt lat="49.82282" lon="2.14863">
        <ele>125.5</ele>
        <time>2023-02-22T14:00:10Z</time>
      </trkpt>
      <trkpt lat="49.82283" lon="2.14865">
        <ele>125.5</ele>
        <time>2023-02-22T14:00:11Z</time>
      </trkpt>
      <trkpt lat="49.82285" lon="2.14868">
        <ele>125.4</ele>
        <time>2023-02-22T14:00:12Z</time>
      </trkpt>
      <trkpt lat="49.82285" lon="2.14868">
        <ele>125.4</ele>
        <time>2023-02-22T14:00:14Z</time>
      </trkpt>
      <trkpt lat="49.82285" lon="2.14869">
        <ele>125.4</ele>
        <time>2023-02-22T14:00:15Z</time>
      </trkpt>
      <trkpt lat="49.82287" lon="2.14872">
        <ele>125.4</ele>
        <time>2023-02-22T14:00:16Z</time>
      </trkpt>
      <trkpt lat="49.82287" lon="2.14873">
        <ele>125.4</ele>
        <time>2023-02-22T14:00:17Z</time>
      </trkpt>
      <trkpt lat="49.82288" lon="2.14874">
        <ele>125.4</ele>
        <time>2023-02-22T14:00:18Z</time>
      </trkpt>
      <trkpt lat="49.82288" lon="2.14876">
        <ele>125.4</ele>
        <time>2023-02-22T14:00:19Z</time>
      </trkpt>
      <trkpt lat="49.82289" lon="2.14877">
        <ele>125.4</ele>
        <time>2023-02-22T14:00:20Z</time>
      </trkpt>
      <trkpt lat="49.8229" lon="2.14879">
        <ele>125.4</ele>
        <time>2023-02-22T14:00:22Z</time>
      </trkpt>
      <trkpt lat="49.82292" lon="2.14882">
        <ele>125.3</ele>
        <time>2023-02-22T14:00:23Z</time>
      </trkpt>
      <trkpt lat="49.82292" lon="2.14883">
        <ele>125.3</ele>
        <time>2023-02-22T14:00:24Z</time>
      </trkpt>
      <trkpt lat="49.82293" lon="2.14884">
        <ele>125.3</ele>
        <time>2023-02-22T14:00:25Z</time>
      </trkpt>
      <trkpt lat="49.82294" lon="2.14885">
        <ele>125.3</ele>
        <time>2023-02-22T14:00:26Z</time>
      </trkpt>
      <trkpt lat="49.82294" lon="2.14886">
        <ele>125.3</ele>
        <time>2023-02-22T14:00:27Z</time>
      </trkpt>
      <trkpt lat="49.82296" lon="2.14888">
        <ele>125.3</ele>
        <time>2023-02-22T14:00:29Z</time>
      </trkpt>
      <trkpt lat="49.82296" lon="2.14889">
        <ele>125.3</ele>
        <time>2023-02-22T14:00:30Z</time>
      </trkpt>
      <trkpt lat="49.82297" lon="2.1489">
        <ele>125.3</ele>
        <time>2023-02-22T14:00:31Z</time>
      </trkpt>
      <trkpt lat="49.82298" lon="2.14892">
        <ele>125.3</ele>
        <time>2023-02-22T14:00:32Z</time>
      </trkpt>
      <trkpt lat="49.82299" lon="2.14894">
        <ele>125.3</ele>
        <time>2023-02-22T14:00:33Z</time>
      </trkpt>
      <trkpt lat="49.823" lon="2.14895">
        <ele>125.3</ele>
        <time>2023-02-22T14:00:34Z</time>
      </trkpt>
      <trkpt lat="49.823" lon="2.14896">
        <ele>125.3</ele>
        <time>2023-02-22T14:00:35Z</time>
      </trkpt>
      <trkpt lat="49.82302" lon="2.14898">
        <ele>125.3</ele>
        <time>2023-02-22T14:00:37Z</time>
      </trkpt>
      <trkpt lat="49.82302" lon="2.14899">
        <ele>125.4</ele>
        <time>2023-02-22T14:00:38Z</time>
      </trkpt>
      <trkpt lat="49.82303" lon="2.149">
        <ele>125.4</ele>
        <time>2023-02-22T14:00:39Z</time>
      </trkpt>
      <trkpt lat="49.82305" lon="2.14903">
        <ele>125.4</ele>
        <time>2023-02-22T14:00:40Z</time>
      </trkpt>
      <trkpt lat="49.82305" lon="2.14903">
        <ele>125.4</ele>
        <time>2023-02-22T14:00:41Z</time>
      </trkpt>
      <trkpt lat="49.82306" lon="2.14904">
        <ele>125.4</ele>
        <time>2023-02-22T14:00:42Z</time>
      </trkpt>
      <trkpt lat="49.82308" lon="2.14907">
        <ele>125.4</ele>
        <time>2023-02-22T14:00:43Z</time>
      </trkpt>
      <trkpt lat="49.82308" lon="2.14909">
        <ele>125.4</ele>
        <time>2023-02-22T14:00:45Z</time>
      </trkpt>
      <trkpt lat="49.82309" lon="2.1491">
        <ele>125.4</ele>
        <time>2023-02-22T14:00:46Z</time>
      </trkpt>
      <trkpt lat="49.8231" lon="2.14911">
        <ele>125.5</ele>
        <time>2023-02-22T14:00:47Z</time>
      </trkpt>
      <trkpt lat="49.8231" lon="2.14912">
        <ele>125.5</ele>
        <time>2023-02-22T14:00:48Z</time>
      </trkpt>
      <trkpt lat="49.82312" lon="2.14914">
        <ele>125.5</ele>
        <time>2023-02-22T14:00:49Z</time>
      </trkpt>
      <trkpt lat="49.82313" lon="2.14915">
        <ele>125.5</ele>
        <time>2023-02-22T14:00:50Z</time>
      </trkpt>
      <trkpt lat="49.82313" lon="2.14916">
        <ele>125.5</ele>
        <time>2023-02-22T14:00:52Z</time>
      </trkpt>
      <trkpt lat="49.82314" lon="2.14917">
        <ele>125.5</ele>
        <time>2023-02-22T14:00:53Z</time>
      </trkpt>
      <trkpt lat="49.82315" lon="2.14918">
        <ele>125.5</ele>
        <time>2023-02-22T14:00:54Z</time>
      </trkpt>
      <trkpt lat="49.82316" lon="2.14919">
        <ele>125.6</ele>
        <time>2023-02-22T14:00:55Z</time>
      </trkpt>
      <trkpt lat="49.82317" lon="2.1492">
        <ele>125.6</ele>
        <time>2023-02-22T14:00:56Z</time>
      </trkpt>
      <trkpt lat="49.82317" lon="2.14922">
        <ele>125.6</ele>
        <time>2023-02-22T14:00:57Z</time>
      </trkpt>
      <trkpt lat="49.82319" lon="2.14925">
        <ele>125.6</ele>
        <time>2023-02-22T14:01:00Z</time>
      </trkpt>
      <trkpt lat="49.8232" lon="2.14926">
        <ele>125.6</ele>
        <time>2023-02-22T14:01:01Z</time>
      </trkpt>
      <trkpt lat="49.8232" lon="2.14927">
        <ele>125.6</ele>
        <time>2023-02-22T14:01:02Z</time>
      </trkpt>
      <trkpt lat="49.82321" lon="2.14929">
        <ele>125.7</ele>
        <time>2023-02-22T14:01:03Z</time>
      </trkpt>
      <trkpt lat="49.82322" lon="2.1493">
        <ele>125.7</ele>
        <time>2023-02-22T14:01:04Z</time>
      </trkpt>
      <trkpt lat="49.82323" lon="2.1493">
        <ele>125.7</ele>
        <time>2023-02-22T14:01:05Z</time>
      </trkpt>
      <trkpt lat="49.82324" lon="2.14931">
        <ele>125.7</ele>
        <time>2023-02-22T14:01:06Z</time>
      </trkpt>
      <trkpt lat="49.82324" lon="2.14932">
        <ele>125.7</ele>
        <time>2023-02-22T14:01:08Z</time>
      </trkpt>
      <trkpt lat="49.82325" lon="2.14933">
        <ele>125.7</ele>
        <time>2023-02-22T14:01:09Z</time>
      </trkpt>
      <trkpt lat="49.82326" lon="2.14933">
        <ele>125.7</ele>
        <time>2023-02-22T14:01:10Z</time>
      </trkpt>
      <trkpt lat="49.82327" lon="2.14934">
        <ele>125.7</ele>
        <time>2023-02-22T14:01:11Z</time>
      </trkpt>
      <trkpt lat="49.82328" lon="2.14935">
        <ele>125.8</ele>
        <time>2023-02-22T14:01:12Z</time>
      </trkpt>
      <trkpt lat="49.8233" lon="2.14936">
        <ele>125.8</ele>
        <time>2023-02-22T14:01:13Z</time>
      </trkpt>
      <trkpt lat="49.8233" lon="2.14937">
        <ele>125.8</ele>
        <time>2023-02-22T14:01:14Z</time>
      </trkpt>
      <trkpt lat="49.82331" lon="2.14937">
        <ele>125.8</ele>
        <time>2023-02-22T14:01:15Z</time>
      </trkpt>
      <trkpt lat="49.82332" lon="2.14938">
        <ele>125.8</ele>
        <time>2023-02-22T14:01:17Z</time>
      </trkpt>
      <trkpt lat="49.82333" lon="2.1494">
        <ele>125.8</ele>
        <time>2023-02-22T14:01:18Z</time>
      </trkpt>
      <trkpt lat="49.82334" lon="2.1494">
        <ele>125.8</ele>
        <time>2023-02-22T14:01:19Z</time>
      </trkpt>
      <trkpt lat="49.82336" lon="2.14942">
        <ele>125.9</ele>
        <time>2023-02-22T14:01:20Z</time>
      </trkpt>
      <trkpt lat="49.82337" lon="2.14943">
        <ele>125.9</ele>
        <time>2023-02-22T14:01:21Z</time>
      </trkpt>
      <trkpt lat="49.82338" lon="2.14943">
        <ele>125.9</ele>
        <time>2023-02-22T14:01:22Z</time>
      </trkpt>
      <trkpt lat="49.82339" lon="2.14945">
        <ele>125.9</ele>
        <time>2023-02-22T14:01:23Z</time>
      </trkpt>
      <trkpt lat="49.8234" lon="2.14946">
        <ele>125.9</ele>
        <time>2023-02-22T14:01:25Z</time>
      </trkpt>
      <trkpt lat="49.82341" lon="2.14946">
        <ele>125.9</ele>
        <time>2023-02-22T14:01:26Z</time>
      </trkpt>
      <trkpt lat="49.82342" lon="2.14947">
        <ele>125.8</ele>
        <time>2023-02-22T14:01:27Z</time>
      </trkpt>
      <trkpt lat="49.82343" lon="2.14949">
        <ele>125.8</ele>
        <time>2023-02-22T14:01:28Z</time>
      </trkpt>
      <trkpt lat="49.82344" lon="2.14951">
        <ele>125.8</ele>
        <time>2023-02-22T14:01:29Z</time>
      </trkpt>
      <trkpt lat="49.82345" lon="2.14952">
        <ele>125.8</ele>
        <time>2023-02-22T14:01:30Z</time>
      </trkpt>
      <trkpt lat="49.82346" lon="2.14953">
        <ele>125.8</ele>
        <time>2023-02-22T14:01:31Z</time>
      </trkpt>
      <trkpt lat="49.82347" lon="2.14955">
        <ele>125.8</ele>
        <time>2023-02-22T14:01:33Z</time>
      </trkpt>
      <trkpt lat="49.82348" lon="2.14956">
        <ele>125.8</ele>
        <time>2023-02-22T14:01:34Z</time>
      </trkpt>
      <trkpt lat="49.82349" lon="2.14957">
        <ele>125.8</ele>
        <time>2023-02-22T14:01:35Z</time>
      </trkpt>
      <trkpt lat="49.8235" lon="2.14958">
        <ele>125.8</ele>
        <time>2023-02-22T14:01:36Z</time>
      </trkpt>
      <trkpt lat="49.82351" lon="2.1496">
        <ele>125.8</ele>
        <time>2023-02-22T14:01:37Z</time>
      </trkpt>
      <trkpt lat="49.82352" lon="2.14962">
        <ele>125.8</ele>
        <time>2023-02-22T14:01:38Z</time>
      </trkpt>
      <trkpt lat="49.82353" lon="2.14963">
        <ele>125.8</ele>
        <time>2023-02-22T14:01:39Z</time>
      </trkpt>
      <trkpt lat="49.82354" lon="2.14966">
        <ele>125.8</ele>
        <time>2023-02-22T14:01:41Z</time>
      </trkpt>
      <trkpt lat="49.82355" lon="2.14967">
        <ele>125.8</ele>
        <time>2023-02-22T14:01:42Z</time>
      </trkpt>
      <trkpt lat="49.82355" lon="2.14968">
        <ele>125.8</ele>
        <time>2023-02-22T14:01:43Z</time>
      </trkpt>
      <trkpt lat="49.82356" lon="2.14971">
        <ele>125.8</ele>
        <time>2023-02-22T14:01:44Z</time>
      </trkpt>
      <trkpt lat="49.82357" lon="2.14972">
        <ele>125.8</ele>
        <time>2023-02-22T14:01:45Z</time>
      </trkpt>
      <trkpt lat="49.82357" lon="2.14973">
        <ele>125.8</ele>
        <time>2023-02-22T14:01:46Z</time>
      </trkpt>
      <trkpt lat="49.82358" lon="2.14975">
        <ele>125.8</ele>
        <time>2023-02-22T14:01:47Z</time>
      </trkpt>
      <trkpt lat="49.82359" lon="2.14977">
        <ele>125.8</ele>
        <time>2023-02-22T14:01:49Z</time>
      </trkpt>
      <trkpt lat="49.82359" lon="2.14979">
        <ele>125.8</ele>
        <time>2023-02-22T14:01:50Z</time>
      </trkpt>
      <trkpt lat="49.8236" lon="2.1498">
        <ele>125.8</ele>
        <time>2023-02-22T14:01:51Z</time>
      </trkpt>
      <trkpt lat="49.82361" lon="2.14981">
        <ele>125.8</ele>
        <time>2023-02-22T14:01:52Z</time>
      </trkpt>
      <trkpt lat="49.82363" lon="2.14983">
        <ele>125.8</ele>
        <time>2023-02-22T14:01:53Z</time>
      </trkpt>
      <trkpt lat="49.82363" lon="2.14984">
        <ele>125.8</ele>
        <time>2023-02-22T14:01:54Z</time>
      </trkpt>
      <trkpt lat="49.82364" lon="2.14986">
        <ele>125.8</ele>
        <time>2023-02-22T14:01:56Z</time>
      </trkpt>
      <trkpt lat="49.82365" lon="2.14987">
        <ele>125.8</ele>
        <time>2023-02-22T14:01:57Z</time>
      </trkpt>
      <trkpt lat="49.82366" lon="2.14987">
        <ele>125.8</ele>
        <time>2023-02-22T14:01:58Z</time>
      </trkpt>
      <trkpt lat="49.82367" lon="2.14989">
        <ele>125.8</ele>
        <time>2023-02-22T14:01:59Z</time>
      </trkpt>
      <trkpt lat="49.82368" lon="2.1499">
        <ele>125.8</ele>
        <time>2023-02-22T14:02:00Z</time>
      </trkpt>
      <trkpt lat="49.82369" lon="2.14992">
        <ele>125.8</ele>
        <time>2023-02-22T14:02:02Z</time>
      </trkpt>
      <trkpt lat="49.82369" lon="2.14993">
        <ele>125.8</ele>
        <time>2023-02-22T14:02:03Z</time>
      </trkpt>
      <trkpt lat="49.8237" lon="2.14994">
        <ele>125.8</ele>
        <time>2023-02-22T14:02:04Z</time>
      </trkpt>
      <trkpt lat="49.82371" lon="2.14995">
        <ele>125.8</ele>
        <time>2023-02-22T14:02:05Z</time>
      </trkpt>
      <trkpt lat="49.82372" lon="2.14996">
        <ele>125.8</ele>
        <time>2023-02-22T14:02:06Z</time>
      </trkpt>
      <trkpt lat="49.82373" lon="2.14997">
        <ele>125.8</ele>
        <time>2023-02-22T14:02:08Z</time>
      </trkpt>
      <trkpt lat="49.82374" lon="2.14998">
        <ele>125.7</ele>
        <time>2023-02-22T14:02:09Z</time>
      </trkpt>
      <trkpt lat="49.82374" lon="2.14999">
        <ele>125.7</ele>
        <time>2023-02-22T14:02:10Z</time>
      </trkpt>
      <trkpt lat="49.82375" lon="2.15">
        <ele>125.7</ele>
        <time>2023-02-22T14:02:11Z</time>
      </trkpt>
      <trkpt lat="49.82375" lon="2.15001">
        <ele>125.7</ele>
        <time>2023-02-22T14:02:12Z</time>
      </trkpt>
      <trkpt lat="49.82376" lon="2.15002">
        <ele>125.7</ele>
        <time>2023-02-22T14:02:13Z</time>
      </trkpt>
      <trkpt lat="49.82377" lon="2.15004">
        <ele>125.7</ele>
        <time>2023-02-22T14:02:14Z</time>
      </trkpt>
      <trkpt lat="49.82378" lon="2.15005">
        <ele>125.7</ele>
        <time>2023-02-22T14:02:16Z</time>
      </trkpt>
      <trkpt lat="49.82379" lon="2.15006">
        <ele>125.7</ele>
        <time>2023-02-22T14:02:17Z</time>
      </trkpt>
      <trkpt lat="49.82379" lon="2.15007">
        <ele>125.7</ele>
        <time>2023-02-22T14:02:18Z</time>
      </trkpt>
      <trkpt lat="49.8238" lon="2.15007">
        <ele>125.7</ele>
        <time>2023-02-22T14:02:19Z</time>
      </trkpt>
      <trkpt lat="49.82381" lon="2.15008">
        <ele>125.7</ele>
        <time>2023-02-22T14:02:20Z</time>
      </trkpt>
      <trkpt lat="49.82381" lon="2.1501">
        <ele>125.7</ele>
        <time>2023-02-22T14:02:21Z</time>
      </trkpt>
      <trkpt lat="49.82382" lon="2.15011">
        <ele>125.7</ele>
        <time>2023-02-22T14:02:22Z</time>
      </trkpt>
      <trkpt lat="49.82382" lon="2.15013">
        <ele>125.7</ele>
        <time>2023-02-22T14:02:24Z</time>
      </trkpt>
      <trkpt lat="49.82383" lon="2.15014">
        <ele>125.7</ele>
        <time>2023-02-22T14:02:26Z</time>
      </trkpt>
      <trkpt lat="49.82383" lon="2.15015">
        <ele>125.7</ele>
        <time>2023-02-22T14:02:27Z</time>
      </trkpt>
      <trkpt lat="49.82383" lon="2.15016">
        <ele>125.7</ele>
        <time>2023-02-22T14:02:28Z</time>
      </trkpt>
      <trkpt lat="49.82383" lon="2.15018">
        <ele>125.8</ele>
        <time>2023-02-22T14:02:30Z</time>
      </trkpt>
      <trkpt lat="49.82383" lon="2.15018">
        <ele>125.8</ele>
        <time>2023-02-22T14:02:31Z</time>
      </trkpt>
      <trkpt lat="49.82383" lon="2.15019">
        <ele>125.8</ele>
        <time>2023-02-22T14:02:33Z</time>
      </trkpt>
      <trkpt lat="49.82382" lon="2.1502">
        <ele>125.8</ele>
        <time>2023-02-22T14:02:34Z</time>
      </trkpt>
      <trkpt lat="49.82382" lon="2.1502">
        <ele>125.8</ele>
        <time>2023-02-22T14:02:36Z</time>
      </trkpt>
      <trkpt lat="49.82382" lon="2.1502">
        <ele>125.8</ele>
        <time>2023-02-22T14:02:37Z</time>
      </trkpt>
      <trkpt lat="49.82382" lon="2.1502">
        <ele>125.8</ele>
        <time>2023-02-22T14:02:38Z</time>
      </trkpt>
      <trkpt lat="49.82382" lon="2.1502">
        <ele>125.8</ele>
        <time>2023-02-22T14:02:40Z</time>
      </trkpt>
      <trkpt lat="49.82381" lon="2.1502">
        <ele>125.8</ele>
        <time>2023-02-22T14:02:41Z</time>
      </trkpt>
      <trkpt lat="49.82381" lon="2.1502">
        <ele>125.8</ele>
        <time>2023-02-22T14:02:43Z</time>
      </trkpt>
      <trkpt lat="49.82381" lon="2.1502">
        <ele>125.8</ele>
        <time>2023-02-22T14:02:44Z</time>
      </trkpt>
      <trkpt lat="49.82381" lon="2.15019">
        <ele>125.8</ele>
        <time>2023-02-22T14:02:46Z</time>
      </trkpt>
      <trkpt lat="49.82381" lon="2.15019">
        <ele>125.8</ele>
        <time>2023-02-22T14:02:47Z</time>
      </trkpt>
      <trkpt lat="49.82381" lon="2.15018">
        <ele>125.8</ele>
        <time>2023-02-22T14:02:48Z</time>
      </trkpt>
      <trkpt lat="49.8238" lon="2.15018">
        <ele>125.8</ele>
        <time>2023-02-22T14:02:49Z</time>
      </trkpt>
      <trkpt lat="49.8238" lon="2.15017">
        <ele>125.8</ele>
        <time>2023-02-22T14:02:50Z</time>
      </trkpt>
      <trkpt lat="49.8238" lon="2.15017">
        <ele>125.8</ele>
        <time>2023-02-22T14:02:51Z</time>
      </trkpt>
      <trkpt lat="49.82379" lon="2.15017">
        <ele>125.8</ele>
        <time>2023-02-22T14:02:52Z</time>
      </trkpt>
      <trkpt lat="49.82379" lon="2.15017">
        <ele>125.8</ele>
        <time>2023-02-22T14:02:53Z</time>
      </trkpt>
      <trkpt lat="49.82379" lon="2.15017">
        <ele>125.8</ele>
        <time>2023-02-22T14:02:54Z</time>
      </trkpt>
      <trkpt lat="49.82379" lon="2.15017">
        <ele>125.8</ele>
        <time>2023-02-22T14:02:55Z</time>
      </trkpt>
      <trkpt lat="49.82379" lon="2.15017">
        <ele>125.8</ele>
        <time>2023-02-22T14:02:56Z</time>
      </trkpt>
      <trkpt lat="49.82379" lon="2.15017">
        <ele>125.8</ele>
        <time>2023-02-22T14:02:57Z</time>
      </trkpt>
      <trkpt lat="49.82379" lon="2.15017">
        <ele>125.8</ele>
        <time>2023-02-22T14:02:58Z</time>
      </trkpt>
      <trkpt lat="49.82379" lon="2.15017">
        <ele>125.8</ele>
        <time>2023-02-22T14:02:59Z</time>
      </trkpt>
      <trkpt lat="49.82379" lon="2.15017">
        <ele>125.8</ele>
        <time>2023-02-22T14:03:00Z</time>
      </trkpt>
      <trkpt lat="49.82379" lon="2.15017">
        <ele>125.8</ele>
        <time>2023-02-22T14:03:01Z</time>
      </trkpt>
      <trkpt lat="49.82379" lon="2.15017">
        <ele>125.8</ele>
        <time>2023-02-22T14:03:02Z</time>
      </trkpt>
      <trkpt lat="49.82379" lon="2.15017">
        <ele>125.8</ele>
        <time>2023-02-22T14:03:03Z</time>
      </trkpt>
      <trkpt lat="49.82379" lon="2.15017">
        <ele>125.8</ele>
        <time>2023-02-22T14:03:04Z</time>
      </trkpt>
      <trkpt lat="49.82379" lon="2.15017">
        <ele>125.8</ele>
        <time>2023-02-22T14:03:05Z</time>
      </trkpt>
      <trkpt lat="49.82379" lon="2.15017">
        <ele>125.8</ele>
        <time>2023-02-22T14:03:06Z</time>
      </trkpt>
      <trkpt lat="49.82379" lon="2.15017">
        <ele>125.8</ele>
        <time>2023-02-22T14:03:07Z</time>
      </trkpt>
      <trkpt lat="49.82379" lon="2.15017">
        <ele>125.8</ele>
        <time>2023-02-22T14:03:08Z</time>
      </trkpt>
      <trkpt lat="49.82379" lon="2.15017">
        <ele>125.8</ele>
        <time>2023-02-22T14:03:09Z</time>
      </trkpt>
      <trkpt lat="49.82379" lon="2.15017">
        <ele>125.8</ele>
        <time>2023-02-22T14:03:10Z</time>
      </trkpt>
      <trkpt lat="49.82379" lon="2.15017">
        <ele>125.8</ele>
        <time>2023-02-22T14:03:11Z</time>
      </trkpt>
      <trkpt lat="49.82379" lon="2.15017">
        <ele>125.8</ele>
        <time>2023-02-22T14:03:12Z</time>
      </trkpt>
      <trkpt lat="49.82379" lon="2.15017">
        <ele>125.8</ele>
        <time>2023-02-22T14:03:13Z</time>
      </trkpt>
      <trkpt lat="49.82379" lon="2.15017">
        <ele>125.8</ele>
        <time>2023-02-22T14:03:14Z</time>
      </trkpt>
      <trkpt lat="49.82379" lon="2.15017">
        <ele>125.8</ele>
        <time>2023-02-22T14:03:15Z</time>
      </trkpt>
      <trkpt lat="49.82379" lon="2.15017">
        <ele>125.8</ele>
        <time>2023-02-22T14:03:16Z</time>
      </trkpt>
      <trkpt lat="49.82379" lon="2.15017">
        <ele>125.8</ele>
        <time>2023-02-22T14:03:17Z</time>
      </trkpt>
      <trkpt lat="49.82379" lon="2.15017">
        <ele>125.8</ele>
        <time>2023-02-22T14:03:18Z</time>
      </trkpt>
      <trkpt lat="49.82379" lon="2.15017">
        <ele>125.8</ele>
        <time>2023-02-22T14:03:19Z</time>
      </trkpt>
      <trkpt lat="49.82379" lon="2.15017">
        <ele>125.8</ele>
        <time>2023-02-22T14:03:20Z</time>
      </trkpt>
      <trkpt lat="49.82379" lon="2.15017">
        <ele>125.8</ele>
        <time>2023-02-22T14:03:21Z</time>
      </trkpt>
      <trkpt lat="49.82379" lon="2.15017">
        <ele>125.8</ele>
        <time>2023-02-22T14:03:22Z</time>
      </trkpt>
      <trkpt lat="49.82379" lon="2.15017">
        <ele>125.8</ele>
        <time>2023-02-22T14:03:23Z</time>
      </trkpt>
      <trkpt lat="49.82379" lon="2.15017">
        <ele>125.8</ele>
        <time>2023-02-22T14:03:24Z</time>
      </trkpt>
      <trkpt lat="49.82379" lon="2.15017">
        <ele>125.8</ele>
        <time>2023-02-22T14:03:25Z</time>
      </trkpt>
      <trkpt lat="49.82379" lon="2.15017">
        <ele>125.8</ele>
        <time>2023-02-22T14:03:26Z</time>
      </trkpt>
      <trkpt lat="49.82379" lon="2.15017">
        <ele>125.8</ele>
        <time>2023-02-22T14:03:27Z</time>
      </trkpt>
      <trkpt lat="49.82379" lon="2.15017">
        <ele>125.8</ele>
        <time>2023-02-22T14:03:28Z</time>
      </trkpt>
      <trkpt lat="49.82379" lon="2.15017">
        <ele>125.8</ele>
        <time>2023-02-22T14:03:29Z</time>
      </trkpt>
      <trkpt lat="49.82379" lon="2.15017">
        <ele>125.8</ele>
        <time>2023-02-22T14:03:30Z</time>
      </trkpt>
      <trkpt lat="49.82379" lon="2.15017">
        <ele>125.8</ele>
        <time>2023-02-22T14:03:31Z</time>
      </trkpt>
      <trkpt lat="49.82379" lon="2.15017">
        <ele>125.8</ele>
        <time>2023-02-22T14:03:32Z</time>
      </trkpt>
      <trkpt lat="49.82379" lon="2.15017">
        <ele>125.8</ele>
        <time>2023-02-22T14:03:33Z</time>
      </trkpt>
      <trkpt lat="49.82379" lon="2.15017">
        <ele>125.8</ele>
        <time>2023-02-22T14:03:34Z</time>
      </trkpt>
      <trkpt lat="49.82379" lon="2.15017">
        <ele>125.8</ele>
        <time>2023-02-22T14:03:35Z</time>
      </trkpt>
      <trkpt lat="49.82379" lon="2.15017">
        <ele>125.8</ele>
        <time>2023-02-22T14:03:36Z</time>
      </trkpt>
      <trkpt lat="49.82379" lon="2.15017">
        <ele>125.8</ele>
        <time>2023-02-22T14:03:37Z</time>
      </trkpt>
      <trkpt lat="49.82379" lon="2.15017">
        <ele>125.8</ele>
        <time>2023-02-22T14:03:38Z</time>
      </trkpt>
      <trkpt lat="49.82379" lon="2.15017">
        <ele>125.8</ele>
        <time>2023-02-22T14:03:39Z</time>
      </trkpt>
      <trkpt lat="49.82379" lon="2.15017">
        <ele>125.8</ele>
        <time>2023-02-22T14:03:40Z</time>
      </trkpt>
      <trkpt lat="49.82379" lon="2.15017">
        <ele>125.8</ele>
        <time>2023-02-22T14:03:41Z</time>
      </trkpt>
      <trkpt lat="49.82379" lon="2.15017">
        <ele>125.8</ele>
        <time>2023-02-22T14:03:42Z</time>
      </trkpt>
      <trkpt lat="49.82379" lon="2.15017">
        <ele>125.8</ele>
        <time>2023-02-22T14:03:43Z</time>
      </trkpt>
      <trkpt lat="49.82379" lon="2.15017">
        <ele>125.8</ele>
        <time>2023-02-22T14:03:44Z</time>
      </trkpt>
      <trkpt lat="49.82379" lon="2.15017">
        <ele>125.8</ele>
        <time>2023-02-22T14:03:45Z</time>
      </trkpt>
      <trkpt lat="49.82379" lon="2.15017">
        <ele>125.8</ele>
        <time>2023-02-22T14:03:46Z</time>
      </trkpt>
      <trkpt lat="49.82379" lon="2.15017">
        <ele>125.8</ele>
        <time>2023-02-22T14:03:47Z</time>
      </trkpt>
      <trkpt lat="49.82379" lon="2.15017">
        <ele>125.8</ele>
        <time>2023-02-22T14:03:48Z</time>
      </trkpt>
      <trkpt lat="49.82379" lon="2.15017">
        <ele>125.8</ele>
        <time>2023-02-22T14:03:49Z</time>
      </trkpt>
      <trkpt lat="49.82379" lon="2.15017">
        <ele>125.8</ele>
        <time>2023-02-22T14:03:50Z</time>
      </trkpt>
      <trkpt lat="49.82379" lon="2.15017">
        <ele>125.8</ele>
        <time>2023-02-22T14:03:51Z</time>
      </trkpt>
      <trkpt lat="49.82379" lon="2.15017">
        <ele>125.8</ele>
        <time>2023-02-22T14:03:52Z</time>
      </trkpt>
      <trkpt lat="49.82379" lon="2.15017">
        <ele>125.8</ele>
        <time>2023-02-22T14:03:53Z</time>
      </trkpt>
      <trkpt lat="49.82379" lon="2.15017">
        <ele>125.8</ele>
        <time>2023-02-22T14:03:54Z</time>
      </trkpt>
      <trkpt lat="49.82379" lon="2.15014">
        <ele>125.8</ele>
        <time>2023-02-22T14:03:55Z</time>
      </trkpt>
      <trkpt lat="49.8238" lon="2.15013">
        <ele>125.8</ele>
        <time>2023-02-22T14:03:56Z</time>
      </trkpt>
      <trkpt lat="49.8238" lon="2.15013">
        <ele>125.8</ele>
        <time>2023-02-22T14:03:57Z</time>
      </trkpt>
      <trkpt lat="49.8238" lon="2.15013">
        <ele>125.8</ele>
        <time>2023-02-22T14:03:58Z</time>
      </trkpt>
      <trkpt lat="49.8238" lon="2.15013">
        <ele>125.8</ele>
        <time>2023-02-22T14:03:59Z</time>
      </trkpt>
      <trkpt lat="49.82381" lon="2.15014">
        <ele>125.8</ele>
        <time>2023-02-22T14:04:00Z</time>
      </trkpt>
      <trkpt lat="49.82381" lon="2.15015">
        <ele>125.8</ele>
        <time>2023-02-22T14:04:01Z</time>
      </trkpt>
      <trkpt lat="49.82381" lon="2.15016">
        <ele>125.8</ele>
        <time>2023-02-22T14:04:02Z</time>
      </trkpt>
      <trkpt lat="49.82382" lon="2.15017">
        <ele>125.8</ele>
        <time>2023-02-22T14:04:03Z</time>
      </trkpt>
      <trkpt lat="49.82382" lon="2.15018">
        <ele>125.8</ele>
        <time>2023-02-22T14:04:04Z</time>
      </trkpt>
      <trkpt lat="49.82382" lon="2.15019">
        <ele>125.8</ele>
        <time>2023-02-22T14:04:05Z</time>
      </trkpt>
      <trkpt lat="49.82383" lon="2.1502">
        <ele>125.8</ele>
        <time>2023-02-22T14:04:07Z</time>
      </trkpt>
      <trkpt lat="49.82383" lon="2.15021">
        <ele>125.8</ele>
        <time>2023-02-22T14:04:08Z</time>
      </trkpt>
      <trkpt lat="49.82383" lon="2.15024">
        <ele>125.8</ele>
        <time>2023-02-22T14:04:10Z</time>
      </trkpt>
      <trkpt lat="49.82383" lon="2.15025">
        <ele>125.8</ele>
        <time>2023-02-22T14:04:11Z</time>
      </trkpt>
      <trkpt lat="49.82384" lon="2.15026">
        <ele>125.8</ele>
        <time>2023-02-22T14:04:12Z</time>
      </trkpt>
      <trkpt lat="49.82384" lon="2.15028">
        <ele>125.8</ele>
        <time>2023-02-22T14:04:13Z</time>
      </trkpt>
      <trkpt lat="49.82384" lon="2.1503">
        <ele>125.8</ele>
        <time>2023-02-22T14:04:14Z</time>
      </trkpt>
      <trkpt lat="49.82385" lon="2.15031">
        <ele>125.8</ele>
        <time>2023-02-22T14:04:16Z</time>
      </trkpt>
      <trkpt lat="49.82385" lon="2.15032">
        <ele>125.8</ele>
        <time>2023-02-22T14:04:17Z</time>
      </trkpt>
      <trkpt lat="49.82385" lon="2.15033">
        <ele>125.8</ele>
        <time>2023-02-22T14:04:18Z</time>
      </trkpt>
      <trkpt lat="49.82386" lon="2.15035">
        <ele>125.8</ele>
        <time>2023-02-22T14:04:19Z</time>
      </trkpt>
      <trkpt lat="49.82387" lon="2.15036">
        <ele>125.8</ele>
        <time>2023-02-22T14:04:21Z</time>
      </trkpt>
      <trkpt lat="49.82387" lon="2.15037">
        <ele>125.8</ele>
        <time>2023-02-22T14:04:23Z</time>
      </trkpt>
      <trkpt lat="49.82388" lon="2.15038">
        <ele>125.8</ele>
        <time>2023-02-22T14:04:24Z</time>
      </trkpt>
      <trkpt lat="49.82388" lon="2.1504">
        <ele>125.8</ele>
        <time>2023-02-22T14:04:25Z</time>
      </trkpt>
      <trkpt lat="49.82389" lon="2.15041">
        <ele>125.8</ele>
        <time>2023-02-22T14:04:26Z</time>
      </trkpt>
      <trkpt lat="49.8239" lon="2.15043">
        <ele>125.8</ele>
        <time>2023-02-22T14:04:28Z</time>
      </trkpt>
      <trkpt lat="49.8239" lon="2.15044">
        <ele>125.8</ele>
        <time>2023-02-22T14:04:29Z</time>
      </trkpt>
      <trkpt lat="49.82391" lon="2.15047">
        <ele>125.8</ele>
        <time>2023-02-22T14:04:30Z</time>
      </trkpt>
      <trkpt lat="49.82392" lon="2.15048">
        <ele>125.8</ele>
        <time>2023-02-22T14:04:31Z</time>
      </trkpt>
      <trkpt lat="49.82393" lon="2.1505">
        <ele>125.8</ele>
        <time>2023-02-22T14:04:32Z</time>
      </trkpt>
      <trkpt lat="49.82394" lon="2.15054">
        <ele>125.8</ele>
        <time>2023-02-22T14:04:34Z</time>
      </trkpt>
      <trkpt lat="49.82395" lon="2.15055">
        <ele>125.8</ele>
        <time>2023-02-22T14:04:35Z</time>
      </trkpt>
      <trkpt lat="49.82396" lon="2.15057">
        <ele>125.9</ele>
        <time>2023-02-22T14:04:37Z</time>
      </trkpt>
      <trkpt lat="49.82397" lon="2.15059">
        <ele>125.8</ele>
        <time>2023-02-22T14:04:38Z</time>
      </trkpt>
      <trkpt lat="49.82399" lon="2.15061">
        <ele>125.8</ele>
        <time>2023-02-22T14:04:39Z</time>
      </trkpt>
      <trkpt lat="49.824" lon="2.15062">
        <ele>125.8</ele>
        <time>2023-02-22T14:04:40Z</time>
      </trkpt>
      <trkpt lat="49.82401" lon="2.15065">
        <ele>125.7</ele>
        <time>2023-02-22T14:04:41Z</time>
      </trkpt>
      <trkpt lat="49.82402" lon="2.15066">
        <ele>125.7</ele>
        <time>2023-02-22T14:04:43Z</time>
      </trkpt>
      <trkpt lat="49.82403" lon="2.15067">
        <ele>125.7</ele>
        <time>2023-02-22T14:04:44Z</time>
      </trkpt>
      <trkpt lat="49.82404" lon="2.15068">
        <ele>125.7</ele>
        <time>2023-02-22T14:04:45Z</time>
      </trkpt>
      <trkpt lat="49.82405" lon="2.1507">
        <ele>125.7</ele>
        <time>2023-02-22T14:04:46Z</time>
      </trkpt>
      <trkpt lat="49.82406" lon="2.15071">
        <ele>125.6</ele>
        <time>2023-02-22T14:04:47Z</time>
      </trkpt>
      <trkpt lat="49.82407" lon="2.15072">
        <ele>125.6</ele>
        <time>2023-02-22T14:04:48Z</time>
      </trkpt>
      <trkpt lat="49.82408" lon="2.15072">
        <ele>125.6</ele>
        <time>2023-02-22T14:04:49Z</time>
      </trkpt>
      <trkpt lat="49.82408" lon="2.15073">
        <ele>125.6</ele>
        <time>2023-02-22T14:04:51Z</time>
      </trkpt>
      <trkpt lat="49.82409" lon="2.15073">
        <ele>125.6</ele>
        <time>2023-02-22T14:04:52Z</time>
      </trkpt>
      <trkpt lat="49.82411" lon="2.15073">
        <ele>125.6</ele>
        <time>2023-02-22T14:04:53Z</time>
      </trkpt>
      <trkpt lat="49.82411" lon="2.15073">
        <ele>125.5</ele>
        <time>2023-02-22T14:04:54Z</time>
      </trkpt>
      <trkpt lat="49.82413" lon="2.15074">
        <ele>125.5</ele>
        <time>2023-02-22T14:04:55Z</time>
      </trkpt>
      <trkpt lat="49.82414" lon="2.15074">
        <ele>125.5</ele>
        <time>2023-02-22T14:04:56Z</time>
      </trkpt>
      <trkpt lat="49.82415" lon="2.15074">
        <ele>125.5</ele>
        <time>2023-02-22T14:04:57Z</time>
      </trkpt>
      <trkpt lat="49.82416" lon="2.15074">
        <ele>125.5</ele>
        <time>2023-02-22T14:04:59Z</time>
      </trkpt>
      <trkpt lat="49.82417" lon="2.15075">
        <ele>125.4</ele>
        <time>2023-02-22T14:05:00Z</time>
      </trkpt>
      <trkpt lat="49.82418" lon="2.15075">
        <ele>125.4</ele>
        <time>2023-02-22T14:05:01Z</time>
      </trkpt>
      <trkpt lat="49.82419" lon="2.15076">
        <ele>125.4</ele>
        <time>2023-02-22T14:05:02Z</time>
      </trkpt>
      <trkpt lat="49.8242" lon="2.15077">
        <ele>125.4</ele>
        <time>2023-02-22T14:05:03Z</time>
      </trkpt>
      <trkpt lat="49.82422" lon="2.15079">
        <ele>125.3</ele>
        <time>2023-02-22T14:05:04Z</time>
      </trkpt>
      <trkpt lat="49.82423" lon="2.1508">
        <ele>125.3</ele>
        <time>2023-02-22T14:05:06Z</time>
      </trkpt>
      <trkpt lat="49.82423" lon="2.15081">
        <ele>125.3</ele>
        <time>2023-02-22T14:05:07Z</time>
      </trkpt>
      <trkpt lat="49.82425" lon="2.15082">
        <ele>125.3</ele>
        <time>2023-02-22T14:05:08Z</time>
      </trkpt>
      <trkpt lat="49.82426" lon="2.15083">
        <ele>125.2</ele>
        <time>2023-02-22T14:05:09Z</time>
      </trkpt>
      <trkpt lat="49.82426" lon="2.15084">
        <ele>125.2</ele>
        <time>2023-02-22T14:05:10Z</time>
      </trkpt>
      <trkpt lat="49.82427" lon="2.15085">
        <ele>125.2</ele>
        <time>2023-02-22T14:05:12Z</time>
      </trkpt>
      <trkpt lat="49.82428" lon="2.15086">
        <ele>125.2</ele>
        <time>2023-02-22T14:05:13Z</time>
      </trkpt>
      <trkpt lat="49.82429" lon="2.15087">
        <ele>125.2</ele>
        <time>2023-02-22T14:05:14Z</time>
      </trkpt>
      <trkpt lat="49.8243" lon="2.15088">
        <ele>125.1</ele>
        <time>2023-02-22T14:05:15Z</time>
      </trkpt>
      <trkpt lat="49.82431" lon="2.1509">
        <ele>125.1</ele>
        <time>2023-02-22T14:05:16Z</time>
      </trkpt>
      <trkpt lat="49.82432" lon="2.15091">
        <ele>125.1</ele>
        <time>2023-02-22T14:05:17Z</time>
      </trkpt>
      <trkpt lat="49.82433" lon="2.15093">
        <ele>125.1</ele>
        <time>2023-02-22T14:05:18Z</time>
      </trkpt>
      <trkpt lat="49.82435" lon="2.15095">
        <ele>125</ele>
        <time>2023-02-22T14:05:20Z</time>
      </trkpt>
      <trkpt lat="49.82435" lon="2.15096">
        <ele>125</ele>
        <time>2023-02-22T14:05:21Z</time>
      </trkpt>
      <trkpt lat="49.82436" lon="2.15096">
        <ele>125</ele>
        <time>2023-02-22T14:05:22Z</time>
      </trkpt>
      <trkpt lat="49.82437" lon="2.15097">
        <ele>125</ele>
        <time>2023-02-22T14:05:23Z</time>
      </trkpt>
      <trkpt lat="49.82438" lon="2.15098">
        <ele>124.9</ele>
        <time>2023-02-22T14:05:24Z</time>
      </trkpt>
      <trkpt lat="49.82439" lon="2.15099">
        <ele>124.9</ele>
        <time>2023-02-22T14:05:25Z</time>
      </trkpt>
      <trkpt lat="49.8244" lon="2.15099">
        <ele>124.9</ele>
        <time>2023-02-22T14:05:27Z</time>
      </trkpt>
      <trkpt lat="49.82442" lon="2.151">
        <ele>124.9</ele>
        <time>2023-02-22T14:05:28Z</time>
      </trkpt>
      <trkpt lat="49.82443" lon="2.151">
        <ele>124.9</ele>
        <time>2023-02-22T14:05:29Z</time>
      </trkpt>
      <trkpt lat="49.82444" lon="2.15101">
        <ele>124.8</ele>
        <time>2023-02-22T14:05:30Z</time>
      </trkpt>
      <trkpt lat="49.82445" lon="2.15102">
        <ele>124.8</ele>
        <time>2023-02-22T14:05:31Z</time>
      </trkpt>
      <trkpt lat="49.82446" lon="2.15102">
        <ele>124.8</ele>
        <time>2023-02-22T14:05:33Z</time>
      </trkpt>
      <trkpt lat="49.82448" lon="2.15103">
        <ele>124.8</ele>
        <time>2023-02-22T14:05:34Z</time>
      </trkpt>
      <trkpt lat="49.82449" lon="2.15104">
        <ele>124.8</ele>
        <time>2023-02-22T14:05:35Z</time>
      </trkpt>
      <trkpt lat="49.8245" lon="2.15105">
        <ele>124.8</ele>
        <time>2023-02-22T14:05:36Z</time>
      </trkpt>
      <trkpt lat="49.82451" lon="2.15106">
        <ele>124.8</ele>
        <time>2023-02-22T14:05:37Z</time>
      </trkpt>
      <trkpt lat="49.82454" lon="2.15108">
        <ele>124.7</ele>
        <time>2023-02-22T14:05:39Z</time>
      </trkpt>
      <trkpt lat="49.82454" lon="2.15109">
        <ele>124.7</ele>
        <time>2023-02-22T14:05:41Z</time>
      </trkpt>
      <trkpt lat="49.82455" lon="2.15109">
        <ele>124.7</ele>
        <time>2023-02-22T14:05:42Z</time>
      </trkpt>
      <trkpt lat="49.82456" lon="2.1511">
        <ele>124.7</ele>
        <time>2023-02-22T14:05:43Z</time>
      </trkpt>
      <trkpt lat="49.82457" lon="2.15111">
        <ele>124.7</ele>
        <time>2023-02-22T14:05:44Z</time>
      </trkpt>
      <trkpt lat="49.82459" lon="2.15112">
        <ele>124.7</ele>
        <time>2023-02-22T14:05:45Z</time>
      </trkpt>
      <trkpt lat="49.82461" lon="2.15114">
        <ele>124.7</ele>
        <time>2023-02-22T14:05:46Z</time>
      </trkpt>
      <trkpt lat="49.82461" lon="2.15114">
        <ele>124.6</ele>
        <time>2023-02-22T14:05:47Z</time>
      </trkpt>
      <trkpt lat="49.82462" lon="2.15115">
        <ele>124.6</ele>
        <time>2023-02-22T14:05:49Z</time>
      </trkpt>
      <trkpt lat="49.82463" lon="2.15116">
        <ele>124.6</ele>
        <time>2023-02-22T14:05:50Z</time>
      </trkpt>
      <trkpt lat="49.82464" lon="2.15117">
        <ele>124.6</ele>
        <time>2023-02-22T14:05:51Z</time>
      </trkpt>
      <trkpt lat="49.82465" lon="2.15118">
        <ele>124.6</ele>
        <time>2023-02-22T14:05:52Z</time>
      </trkpt>
      <trkpt lat="49.82467" lon="2.15119">
        <ele>124.6</ele>
        <time>2023-02-22T14:05:53Z</time>
      </trkpt>
      <trkpt lat="49.82468" lon="2.1512">
        <ele>124.6</ele>
        <time>2023-02-22T14:05:54Z</time>
      </trkpt>
      <trkpt lat="49.82468" lon="2.15121">
        <ele>124.6</ele>
        <time>2023-02-22T14:05:55Z</time>
      </trkpt>
      <trkpt lat="49.82469" lon="2.15122">
        <ele>124.5</ele>
        <time>2023-02-22T14:05:57Z</time>
      </trkpt>
      <trkpt lat="49.8247" lon="2.15123">
        <ele>124.5</ele>
        <time>2023-02-22T14:05:58Z</time>
      </trkpt>
      <trkpt lat="49.82471" lon="2.15124">
        <ele>124.5</ele>
        <time>2023-02-22T14:05:59Z</time>
      </trkpt>
      <trkpt lat="49.82473" lon="2.15126">
        <ele>124.5</ele>
        <time>2023-02-22T14:06:00Z</time>
      </trkpt>
      <trkpt lat="49.82473" lon="2.15127">
        <ele>124.5</ele>
        <time>2023-02-22T14:06:01Z</time>
      </trkpt>
      <trkpt lat="49.82474" lon="2.15128">
        <ele>124.5</ele>
        <time>2023-02-22T14:06:02Z</time>
      </trkpt>
      <trkpt lat="49.82475" lon="2.1513">
        <ele>124.4</ele>
        <time>2023-02-22T14:06:03Z</time>
      </trkpt>
      <trkpt lat="49.82476" lon="2.15131">
        <ele>124.4</ele>
        <time>2023-02-22T14:06:05Z</time>
      </trkpt>
      <trkpt lat="49.82476" lon="2.15132">
        <ele>124.4</ele>
        <time>2023-02-22T14:06:06Z</time>
      </trkpt>
      <trkpt lat="49.82478" lon="2.15134">
        <ele>124.4</ele>
        <time>2023-02-22T14:06:07Z</time>
      </trkpt>
      <trkpt lat="49.82479" lon="2.15135">
        <ele>124.3</ele>
        <time>2023-02-22T14:06:08Z</time>
      </trkpt>
      <trkpt lat="49.82479" lon="2.15136">
        <ele>124.3</ele>
        <time>2023-02-22T14:06:09Z</time>
      </trkpt>
      <trkpt lat="49.82481" lon="2.15137">
        <ele>124.3</ele>
        <time>2023-02-22T14:06:10Z</time>
      </trkpt>
      <trkpt lat="49.82481" lon="2.15138">
        <ele>124.3</ele>
        <time>2023-02-22T14:06:11Z</time>
      </trkpt>
      <trkpt lat="49.82482" lon="2.15139">
        <ele>124.3</ele>
        <time>2023-02-22T14:06:13Z</time>
      </trkpt>
      <trkpt lat="49.82484" lon="2.15141">
        <ele>124.2</ele>
        <time>2023-02-22T14:06:14Z</time>
      </trkpt>
      <trkpt lat="49.82485" lon="2.15142">
        <ele>124.2</ele>
        <time>2023-02-22T14:06:15Z</time>
      </trkpt>
      <trkpt lat="49.82485" lon="2.15143">
        <ele>124.2</ele>
        <time>2023-02-22T14:06:16Z</time>
      </trkpt>
      <trkpt lat="49.82487" lon="2.15144">
        <ele>124.2</ele>
        <time>2023-02-22T14:06:17Z</time>
      </trkpt>
      <trkpt lat="49.82488" lon="2.15145">
        <ele>124.2</ele>
        <time>2023-02-22T14:06:18Z</time>
      </trkpt>
      <trkpt lat="49.82489" lon="2.15145">
        <ele>124.1</ele>
        <time>2023-02-22T14:06:19Z</time>
      </trkpt>
      <trkpt lat="49.82491" lon="2.15147">
        <ele>124.1</ele>
        <time>2023-02-22T14:06:20Z</time>
      </trkpt>
      <trkpt lat="49.82491" lon="2.15148">
        <ele>124.1</ele>
        <time>2023-02-22T14:06:22Z</time>
      </trkpt>
      <trkpt lat="49.82492" lon="2.15148">
        <ele>124.1</ele>
        <time>2023-02-22T14:06:23Z</time>
      </trkpt>
      <trkpt lat="49.82493" lon="2.15149">
        <ele>124.1</ele>
        <time>2023-02-22T14:06:24Z</time>
      </trkpt>
      <trkpt lat="49.82494" lon="2.15151">
        <ele>124</ele>
        <time>2023-02-22T14:06:25Z</time>
      </trkpt>
      <trkpt lat="49.82495" lon="2.15154">
        <ele>124</ele>
        <time>2023-02-22T14:06:26Z</time>
      </trkpt>
      <trkpt lat="49.82496" lon="2.15155">
        <ele>124</ele>
        <time>2023-02-22T14:06:27Z</time>
      </trkpt>
      <trkpt lat="49.82496" lon="2.15156">
        <ele>124</ele>
        <time>2023-02-22T14:06:28Z</time>
      </trkpt>
      <trkpt lat="49.82497" lon="2.15158">
        <ele>124</ele>
        <time>2023-02-22T14:06:29Z</time>
      </trkpt>
      <trkpt lat="49.82498" lon="2.1516">
        <ele>123.9</ele>
        <time>2023-02-22T14:06:30Z</time>
      </trkpt>
      <trkpt lat="49.82499" lon="2.15161">
        <ele>123.9</ele>
        <time>2023-02-22T14:06:32Z</time>
      </trkpt>
      <trkpt lat="49.825" lon="2.15162">
        <ele>123.9</ele>
        <time>2023-02-22T14:06:33Z</time>
      </trkpt>
      <trkpt lat="49.82501" lon="2.15164">
        <ele>123.9</ele>
        <time>2023-02-22T14:06:34Z</time>
      </trkpt>
      <trkpt lat="49.82503" lon="2.15165">
        <ele>123.9</ele>
        <time>2023-02-22T14:06:35Z</time>
      </trkpt>
      <trkpt lat="49.82503" lon="2.15166">
        <ele>123.9</ele>
        <time>2023-02-22T14:06:36Z</time>
      </trkpt>
      <trkpt lat="49.82504" lon="2.15167">
        <ele>123.9</ele>
        <time>2023-02-22T14:06:37Z</time>
      </trkpt>
      <trkpt lat="49.82506" lon="2.15168">
        <ele>123.8</ele>
        <time>2023-02-22T14:06:38Z</time>
      </trkpt>
      <trkpt lat="49.82507" lon="2.15169">
        <ele>123.8</ele>
        <time>2023-02-22T14:06:40Z</time>
      </trkpt>
      <trkpt lat="49.82509" lon="2.15171">
        <ele>123.8</ele>
        <time>2023-02-22T14:06:41Z</time>
      </trkpt>
      <trkpt lat="49.82509" lon="2.15172">
        <ele>123.8</ele>
        <time>2023-02-22T14:06:42Z</time>
      </trkpt>
      <trkpt lat="49.8251" lon="2.15172">
        <ele>123.8</ele>
        <time>2023-02-22T14:06:43Z</time>
      </trkpt>
      <trkpt lat="49.82511" lon="2.15173">
        <ele>123.8</ele>
        <time>2023-02-22T14:06:44Z</time>
      </trkpt>
      <trkpt lat="49.82513" lon="2.15175">
        <ele>123.7</ele>
        <time>2023-02-22T14:06:45Z</time>
      </trkpt>
      <trkpt lat="49.82514" lon="2.15175">
        <ele>123.7</ele>
        <time>2023-02-22T14:06:46Z</time>
      </trkpt>
      <trkpt lat="49.82515" lon="2.15176">
        <ele>123.7</ele>
        <time>2023-02-22T14:06:48Z</time>
      </trkpt>
      <trkpt lat="49.82516" lon="2.15177">
        <ele>123.7</ele>
        <time>2023-02-22T14:06:49Z</time>
      </trkpt>
      <trkpt lat="49.82518" lon="2.15179">
        <ele>123.7</ele>
        <time>2023-02-22T14:06:50Z</time>
      </trkpt>
      <trkpt lat="49.82519" lon="2.15179">
        <ele>123.7</ele>
        <time>2023-02-22T14:06:51Z</time>
      </trkpt>
      <trkpt lat="49.8252" lon="2.1518">
        <ele>123.6</ele>
        <time>2023-02-22T14:06:52Z</time>
      </trkpt>
      <trkpt lat="49.82521" lon="2.15182">
        <ele>123.6</ele>
        <time>2023-02-22T14:06:53Z</time>
      </trkpt>
      <trkpt lat="49.82522" lon="2.15183">
        <ele>123.6</ele>
        <time>2023-02-22T14:06:55Z</time>
      </trkpt>
      <trkpt lat="49.82523" lon="2.15184">
        <ele>123.6</ele>
        <time>2023-02-22T14:06:56Z</time>
      </trkpt>
      <trkpt lat="49.82523" lon="2.15184">
        <ele>123.6</ele>
        <time>2023-02-22T14:06:57Z</time>
      </trkpt>
      <trkpt lat="49.82525" lon="2.15185">
        <ele>123.6</ele>
        <time>2023-02-22T14:06:58Z</time>
      </trkpt>
      <trkpt lat="49.82526" lon="2.15186">
        <ele>123.6</ele>
        <time>2023-02-22T14:06:59Z</time>
      </trkpt>
      <trkpt lat="49.82528" lon="2.15187">
        <ele>123.5</ele>
        <time>2023-02-22T14:07:00Z</time>
      </trkpt>
      <trkpt lat="49.82529" lon="2.15188">
        <ele>123.5</ele>
        <time>2023-02-22T14:07:01Z</time>
      </trkpt>
      <trkpt lat="49.82529" lon="2.15188">
        <ele>123.5</ele>
        <time>2023-02-22T14:07:02Z</time>
      </trkpt>
      <trkpt lat="49.82531" lon="2.1519">
        <ele>123.5</ele>
        <time>2023-02-22T14:07:04Z</time>
      </trkpt>
      <trkpt lat="49.82532" lon="2.15191">
        <ele>123.4</ele>
        <time>2023-02-22T14:07:05Z</time>
      </trkpt>
      <trkpt lat="49.82533" lon="2.15191">
        <ele>123.4</ele>
        <time>2023-02-22T14:07:06Z</time>
      </trkpt>
      <trkpt lat="49.82534" lon="2.15193">
        <ele>123.4</ele>
        <time>2023-02-22T14:07:07Z</time>
      </trkpt>
      <trkpt lat="49.82535" lon="2.15194">
        <ele>123.4</ele>
        <time>2023-02-22T14:07:08Z</time>
      </trkpt>
      <trkpt lat="49.82536" lon="2.15194">
        <ele>123.4</ele>
        <time>2023-02-22T14:07:09Z</time>
      </trkpt>
      <trkpt lat="49.82537" lon="2.15196">
        <ele>123.3</ele>
        <time>2023-02-22T14:07:10Z</time>
      </trkpt>
      <trkpt lat="49.82538" lon="2.15197">
        <ele>123.3</ele>
        <time>2023-02-22T14:07:11Z</time>
      </trkpt>
      <trkpt lat="49.8254" lon="2.15199">
        <ele>123.3</ele>
        <time>2023-02-22T14:07:13Z</time>
      </trkpt>
      <trkpt lat="49.8254" lon="2.15199">
        <ele>123.3</ele>
        <time>2023-02-22T14:07:14Z</time>
      </trkpt>
      <trkpt lat="49.82541" lon="2.152">
        <ele>123.2</ele>
        <time>2023-02-22T14:07:15Z</time>
      </trkpt>
      <trkpt lat="49.82542" lon="2.15201">
        <ele>123.2</ele>
        <time>2023-02-22T14:07:16Z</time>
      </trkpt>
      <trkpt lat="49.82543" lon="2.15202">
        <ele>123.2</ele>
        <time>2023-02-22T14:07:17Z</time>
      </trkpt>
      <trkpt lat="49.82544" lon="2.15203">
        <ele>123.2</ele>
        <time>2023-02-22T14:07:18Z</time>
      </trkpt>
      <trkpt lat="49.82545" lon="2.15204">
        <ele>123.2</ele>
        <time>2023-02-22T14:07:19Z</time>
      </trkpt>
      <trkpt lat="49.82547" lon="2.15206">
        <ele>123.1</ele>
        <time>2023-02-22T14:07:20Z</time>
      </trkpt>
      <trkpt lat="49.82548" lon="2.15208">
        <ele>123.1</ele>
        <time>2023-02-22T14:07:22Z</time>
      </trkpt>
      <trkpt lat="49.82549" lon="2.15208">
        <ele>123.1</ele>
        <time>2023-02-22T14:07:23Z</time>
      </trkpt>
      <trkpt lat="49.82549" lon="2.15209">
        <ele>123.1</ele>
        <time>2023-02-22T14:07:24Z</time>
      </trkpt>
      <trkpt lat="49.8255" lon="2.1521">
        <ele>123.1</ele>
        <time>2023-02-22T14:07:25Z</time>
      </trkpt>
      <trkpt lat="49.82552" lon="2.15212">
        <ele>123</ele>
        <time>2023-02-22T14:07:26Z</time>
      </trkpt>
      <trkpt lat="49.82552" lon="2.15213">
        <ele>123</ele>
        <time>2023-02-22T14:07:27Z</time>
      </trkpt>
      <trkpt lat="49.82553" lon="2.15214">
        <ele>123</ele>
        <time>2023-02-22T14:07:29Z</time>
      </trkpt>
      <trkpt lat="49.82554" lon="2.15216">
        <ele>123</ele>
        <time>2023-02-22T14:07:30Z</time>
      </trkpt>
      <trkpt lat="49.82554" lon="2.15217">
        <ele>123</ele>
        <time>2023-02-22T14:07:31Z</time>
      </trkpt>
      <trkpt lat="49.82555" lon="2.15218">
        <ele>123</ele>
        <time>2023-02-22T14:07:32Z</time>
      </trkpt>
      <trkpt lat="49.82556" lon="2.1522">
        <ele>123</ele>
        <time>2023-02-22T14:07:33Z</time>
      </trkpt>
      <trkpt lat="49.82557" lon="2.15222">
        <ele>123</ele>
        <time>2023-02-22T14:07:34Z</time>
      </trkpt>
      <trkpt lat="49.82558" lon="2.15223">
        <ele>123</ele>
        <time>2023-02-22T14:07:35Z</time>
      </trkpt>
      <trkpt lat="49.82558" lon="2.15224">
        <ele>123</ele>
        <time>2023-02-22T14:07:36Z</time>
      </trkpt>
      <trkpt lat="49.82559" lon="2.15225">
        <ele>122.9</ele>
        <time>2023-02-22T14:07:38Z</time>
      </trkpt>
      <trkpt lat="49.82559" lon="2.15227">
        <ele>122.9</ele>
        <time>2023-02-22T14:07:39Z</time>
      </trkpt>
      <trkpt lat="49.8256" lon="2.15228">
        <ele>122.9</ele>
        <time>2023-02-22T14:07:40Z</time>
      </trkpt>
      <trkpt lat="49.82561" lon="2.1523">
        <ele>122.9</ele>
        <time>2023-02-22T14:07:41Z</time>
      </trkpt>
      <trkpt lat="49.82562" lon="2.15231">
        <ele>122.9</ele>
        <time>2023-02-22T14:07:42Z</time>
      </trkpt>
      <trkpt lat="49.82563" lon="2.15232">
        <ele>122.9</ele>
        <time>2023-02-22T14:07:43Z</time>
      </trkpt>
      <trkpt lat="49.82564" lon="2.15233">
        <ele>122.9</ele>
        <time>2023-02-22T14:07:44Z</time>
      </trkpt>
      <trkpt lat="49.82566" lon="2.15234">
        <ele>122.9</ele>
        <time>2023-02-22T14:07:46Z</time>
      </trkpt>
      <trkpt lat="49.82566" lon="2.15235">
        <ele>122.9</ele>
        <time>2023-02-22T14:07:47Z</time>
      </trkpt>
      <trkpt lat="49.82567" lon="2.15236">
        <ele>122.9</ele>
        <time>2023-02-22T14:07:48Z</time>
      </trkpt>
      <trkpt lat="49.82569" lon="2.15237">
        <ele>122.9</ele>
        <time>2023-02-22T14:07:49Z</time>
      </trkpt>
      <trkpt lat="49.8257" lon="2.15238">
        <ele>122.9</ele>
        <time>2023-02-22T14:07:50Z</time>
      </trkpt>
      <trkpt lat="49.8257" lon="2.15239">
        <ele>122.9</ele>
        <time>2023-02-22T14:07:51Z</time>
      </trkpt>
      <trkpt lat="49.82571" lon="2.15239">
        <ele>122.9</ele>
        <time>2023-02-22T14:07:52Z</time>
      </trkpt>
      <trkpt lat="49.82572" lon="2.1524">
        <ele>122.9</ele>
        <time>2023-02-22T14:07:53Z</time>
      </trkpt>
      <trkpt lat="49.82573" lon="2.15241">
        <ele>122.9</ele>
        <time>2023-02-22T14:07:55Z</time>
      </trkpt>
      <trkpt lat="49.82575" lon="2.15242">
        <ele>122.9</ele>
        <time>2023-02-22T14:07:56Z</time>
      </trkpt>
      <trkpt lat="49.82576" lon="2.15243">
        <ele>122.8</ele>
        <time>2023-02-22T14:07:57Z</time>
      </trkpt>
      <trkpt lat="49.82578" lon="2.15244">
        <ele>122.8</ele>
        <time>2023-02-22T14:07:58Z</time>
      </trkpt>
      <trkpt lat="49.82578" lon="2.15245">
        <ele>122.8</ele>
        <time>2023-02-22T14:07:59Z</time>
      </trkpt>
      <trkpt lat="49.82579" lon="2.15245">
        <ele>122.8</ele>
        <time>2023-02-22T14:08:00Z</time>
      </trkpt>
      <trkpt lat="49.82581" lon="2.15247">
        <ele>122.8</ele>
        <time>2023-02-22T14:08:01Z</time>
      </trkpt>
      <trkpt lat="49.82582" lon="2.15247">
        <ele>122.8</ele>
        <time>2023-02-22T14:08:02Z</time>
      </trkpt>
      <trkpt lat="49.82583" lon="2.15248">
        <ele>122.8</ele>
        <time>2023-02-22T14:08:04Z</time>
      </trkpt>
      <trkpt lat="49.82584" lon="2.1525">
        <ele>122.8</ele>
        <time>2023-02-22T14:08:05Z</time>
      </trkpt>
      <trkpt lat="49.82585" lon="2.1525">
        <ele>122.8</ele>
        <time>2023-02-22T14:08:06Z</time>
      </trkpt>
      <trkpt lat="49.82586" lon="2.15251">
        <ele>122.8</ele>
        <time>2023-02-22T14:08:07Z</time>
      </trkpt>
      <trkpt lat="49.82588" lon="2.15253">
        <ele>122.8</ele>
        <time>2023-02-22T14:08:08Z</time>
      </trkpt>
      <trkpt lat="49.82588" lon="2.15254">
        <ele>122.8</ele>
        <time>2023-02-22T14:08:09Z</time>
      </trkpt>
      <trkpt lat="49.82589" lon="2.15254">
        <ele>122.8</ele>
        <time>2023-02-22T14:08:10Z</time>
      </trkpt>
      <trkpt lat="49.8259" lon="2.15256">
        <ele>122.8</ele>
        <time>2023-02-22T14:08:12Z</time>
      </trkpt>
      <trkpt lat="49.82591" lon="2.15257">
        <ele>122.8</ele>
        <time>2023-02-22T14:08:13Z</time>
      </trkpt>
      <trkpt lat="49.82591" lon="2.15257">
        <ele>122.8</ele>
        <time>2023-02-22T14:08:14Z</time>
      </trkpt>
      <trkpt lat="49.82592" lon="2.15258">
        <ele>122.8</ele>
        <time>2023-02-22T14:08:15Z</time>
      </trkpt>
      <trkpt lat="49.82593" lon="2.15259">
        <ele>122.8</ele>
        <time>2023-02-22T14:08:16Z</time>
      </trkpt>
      <trkpt lat="49.82594" lon="2.1526">
        <ele>122.8</ele>
        <time>2023-02-22T14:08:17Z</time>
      </trkpt>
      <trkpt lat="49.82595" lon="2.15261">
        <ele>122.8</ele>
        <time>2023-02-22T14:08:18Z</time>
      </trkpt>
      <trkpt lat="49.82596" lon="2.15262">
        <ele>122.8</ele>
        <time>2023-02-22T14:08:19Z</time>
      </trkpt>
      <trkpt lat="49.82597" lon="2.15264">
        <ele>122.8</ele>
        <time>2023-02-22T14:08:21Z</time>
      </trkpt>
      <trkpt lat="49.82598" lon="2.15265">
        <ele>122.8</ele>
        <time>2023-02-22T14:08:22Z</time>
      </trkpt>
      <trkpt lat="49.82598" lon="2.15265">
        <ele>122.8</ele>
        <time>2023-02-22T14:08:23Z</time>
      </trkpt>
      <trkpt lat="49.82599" lon="2.15266">
        <ele>122.8</ele>
        <time>2023-02-22T14:08:24Z</time>
      </trkpt>
      <trkpt lat="49.826" lon="2.15267">
        <ele>122.8</ele>
        <time>2023-02-22T14:08:25Z</time>
      </trkpt>
      <trkpt lat="49.82602" lon="2.15268">
        <ele>122.8</ele>
        <time>2023-02-22T14:08:26Z</time>
      </trkpt>
      <trkpt lat="49.82603" lon="2.15269">
        <ele>122.8</ele>
        <time>2023-02-22T14:08:27Z</time>
      </trkpt>
      <trkpt lat="49.82604" lon="2.1527">
        <ele>122.8</ele>
        <time>2023-02-22T14:08:28Z</time>
      </trkpt>
      <trkpt lat="49.82605" lon="2.1527">
        <ele>122.8</ele>
        <time>2023-02-22T14:08:30Z</time>
      </trkpt>
      <trkpt lat="49.82606" lon="2.15271">
        <ele>122.8</ele>
        <time>2023-02-22T14:08:31Z</time>
      </trkpt>
      <trkpt lat="49.82607" lon="2.15272">
        <ele>122.7</ele>
        <time>2023-02-22T14:08:32Z</time>
      </trkpt>
      <trkpt lat="49.82608" lon="2.15273">
        <ele>122.7</ele>
        <time>2023-02-22T14:08:33Z</time>
      </trkpt>
      <trkpt lat="49.8261" lon="2.15275">
        <ele>122.7</ele>
        <time>2023-02-22T14:08:34Z</time>
      </trkpt>
      <trkpt lat="49.82611" lon="2.15275">
        <ele>122.7</ele>
        <time>2023-02-22T14:08:35Z</time>
      </trkpt>
      <trkpt lat="49.82612" lon="2.15276">
        <ele>122.7</ele>
        <time>2023-02-22T14:08:36Z</time>
      </trkpt>
      <trkpt lat="49.82613" lon="2.15278">
        <ele>122.7</ele>
        <time>2023-02-22T14:08:38Z</time>
      </trkpt>
      <trkpt lat="49.82614" lon="2.15278">
        <ele>122.7</ele>
        <time>2023-02-22T14:08:39Z</time>
      </trkpt>
      <trkpt lat="49.82614" lon="2.15279">
        <ele>122.7</ele>
        <time>2023-02-22T14:08:40Z</time>
      </trkpt>
      <trkpt lat="49.82614" lon="2.1528">
        <ele>122.7</ele>
        <time>2023-02-22T14:08:41Z</time>
      </trkpt>
      <trkpt lat="49.82615" lon="2.15281">
        <ele>122.7</ele>
        <time>2023-02-22T14:08:42Z</time>
      </trkpt>
      <trkpt lat="49.82616" lon="2.15282">
        <ele>122.7</ele>
        <time>2023-02-22T14:08:43Z</time>
      </trkpt>
      <trkpt lat="49.82616" lon="2.15283">
        <ele>122.7</ele>
        <time>2023-02-22T14:08:44Z</time>
      </trkpt>
      <trkpt lat="49.82616" lon="2.15284">
        <ele>122.7</ele>
        <time>2023-02-22T14:08:45Z</time>
      </trkpt>
      <trkpt lat="49.82617" lon="2.15285">
        <ele>122.7</ele>
        <time>2023-02-22T14:08:47Z</time>
      </trkpt>
      <trkpt lat="49.82618" lon="2.15286">
        <ele>122.7</ele>
        <time>2023-02-22T14:08:48Z</time>
      </trkpt>
      <trkpt lat="49.82619" lon="2.15286">
        <ele>122.7</ele>
        <time>2023-02-22T14:08:49Z</time>
      </trkpt>
      <trkpt lat="49.8262" lon="2.15287">
        <ele>122.7</ele>
        <time>2023-02-22T14:08:50Z</time>
      </trkpt>
      <trkpt lat="49.82621" lon="2.15288">
        <ele>122.7</ele>
        <time>2023-02-22T14:08:52Z</time>
      </trkpt>
      <trkpt lat="49.82622" lon="2.15288">
        <ele>122.7</ele>
        <time>2023-02-22T14:08:53Z</time>
      </trkpt>
      <trkpt lat="49.82623" lon="2.15289">
        <ele>122.7</ele>
        <time>2023-02-22T14:08:54Z</time>
      </trkpt>
      <trkpt lat="49.82624" lon="2.1529">
        <ele>122.7</ele>
        <time>2023-02-22T14:08:55Z</time>
      </trkpt>
      <trkpt lat="49.82625" lon="2.15291">
        <ele>122.7</ele>
        <time>2023-02-22T14:08:56Z</time>
      </trkpt>
      <trkpt lat="49.82626" lon="2.15292">
        <ele>122.7</ele>
        <time>2023-02-22T14:08:57Z</time>
      </trkpt>
      <trkpt lat="49.82627" lon="2.15293">
        <ele>122.7</ele>
        <time>2023-02-22T14:08:59Z</time>
      </trkpt>
      <trkpt lat="49.82627" lon="2.15294">
        <ele>122.7</ele>
        <time>2023-02-22T14:09:00Z</time>
      </trkpt>
      <trkpt lat="49.82628" lon="2.15296">
        <ele>122.7</ele>
        <time>2023-02-22T14:09:01Z</time>
      </trkpt>
      <trkpt lat="49.82629" lon="2.15297">
        <ele>122.7</ele>
        <time>2023-02-22T14:09:02Z</time>
      </trkpt>
      <trkpt lat="49.8263" lon="2.15298">
        <ele>122.7</ele>
        <time>2023-02-22T14:09:04Z</time>
      </trkpt>
      <trkpt lat="49.8263" lon="2.15299">
        <ele>122.7</ele>
        <time>2023-02-22T14:09:05Z</time>
      </trkpt>
      <trkpt lat="49.82631" lon="2.15301">
        <ele>122.7</ele>
        <time>2023-02-22T14:09:06Z</time>
      </trkpt>
      <trkpt lat="49.82632" lon="2.15301">
        <ele>122.7</ele>
        <time>2023-02-22T14:09:07Z</time>
      </trkpt>
      <trkpt lat="49.82632" lon="2.15302">
        <ele>122.7</ele>
        <time>2023-02-22T14:09:08Z</time>
      </trkpt>
      <trkpt lat="49.82633" lon="2.15303">
        <ele>122.7</ele>
        <time>2023-02-22T14:09:10Z</time>
      </trkpt>
      <trkpt lat="49.82633" lon="2.15304">
        <ele>122.7</ele>
        <time>2023-02-22T14:09:11Z</time>
      </trkpt>
      <trkpt lat="49.82634" lon="2.15306">
        <ele>122.7</ele>
        <time>2023-02-22T14:09:12Z</time>
      </trkpt>
      <trkpt lat="49.82635" lon="2.15308">
        <ele>122.6</ele>
        <time>2023-02-22T14:09:13Z</time>
      </trkpt>
      <trkpt lat="49.82635" lon="2.15309">
        <ele>122.6</ele>
        <time>2023-02-22T14:09:14Z</time>
      </trkpt>
      <trkpt lat="49.82636" lon="2.1531">
        <ele>122.6</ele>
        <time>2023-02-22T14:09:16Z</time>
      </trkpt>
      <trkpt lat="49.82636" lon="2.15311">
        <ele>122.6</ele>
        <time>2023-02-22T14:09:18Z</time>
      </trkpt>
      <trkpt lat="49.82637" lon="2.15313">
        <ele>122.6</ele>
        <time>2023-02-22T14:09:19Z</time>
      </trkpt>
      <trkpt lat="49.82637" lon="2.15314">
        <ele>122.6</ele>
        <time>2023-02-22T14:09:21Z</time>
      </trkpt>
      <trkpt lat="49.82638" lon="2.15315">
        <ele>122.6</ele>
        <time>2023-02-22T14:09:22Z</time>
      </trkpt>
      <trkpt lat="49.82638" lon="2.15316">
        <ele>122.6</ele>
        <time>2023-02-22T14:09:23Z</time>
      </trkpt>
      <trkpt lat="49.82638" lon="2.15316">
        <ele>122.6</ele>
        <time>2023-02-22T14:09:25Z</time>
      </trkpt>
      <trkpt lat="49.82638" lon="2.15316">
        <ele>122.6</ele>
        <time>2023-02-22T14:09:27Z</time>
      </trkpt>
      <trkpt lat="49.82638" lon="2.15316">
        <ele>122.6</ele>
        <time>2023-02-22T14:09:28Z</time>
      </trkpt>
      <trkpt lat="49.82638" lon="2.15316">
        <ele>122.6</ele>
        <time>2023-02-22T14:09:29Z</time>
      </trkpt>
      <trkpt lat="49.82638" lon="2.15316">
        <ele>122.6</ele>
        <time>2023-02-22T14:09:31Z</time>
      </trkpt>
      <trkpt lat="49.82639" lon="2.15316">
        <ele>122.6</ele>
        <time>2023-02-22T14:09:32Z</time>
      </trkpt>
      <trkpt lat="49.82639" lon="2.15316">
        <ele>122.6</ele>
        <time>2023-02-22T14:09:34Z</time>
      </trkpt>
      <trkpt lat="49.82639" lon="2.15316">
        <ele>122.6</ele>
        <time>2023-02-22T14:09:35Z</time>
      </trkpt>
      <trkpt lat="49.82639" lon="2.15316">
        <ele>122.6</ele>
        <time>2023-02-22T14:09:36Z</time>
      </trkpt>
      <trkpt lat="49.82639" lon="2.15316">
        <ele>122.6</ele>
        <time>2023-02-22T14:09:38Z</time>
      </trkpt>
      <trkpt lat="49.82639" lon="2.15316">
        <ele>122.6</ele>
        <time>2023-02-22T14:09:39Z</time>
      </trkpt>
      <trkpt lat="49.82639" lon="2.15316">
        <ele>122.6</ele>
        <time>2023-02-22T14:09:40Z</time>
      </trkpt>
      <trkpt lat="49.82639" lon="2.15316">
        <ele>122.6</ele>
        <time>2023-02-22T14:09:41Z</time>
      </trkpt>
      <trkpt lat="49.82639" lon="2.15316">
        <ele>122.6</ele>
        <time>2023-02-22T14:09:42Z</time>
      </trkpt>
      <trkpt lat="49.8264" lon="2.15316">
        <ele>122.6</ele>
        <time>2023-02-22T14:09:43Z</time>
      </trkpt>
      <trkpt lat="49.8264" lon="2.15316">
        <ele>122.6</ele>
        <time>2023-02-22T14:09:44Z</time>
      </trkpt>
      <trkpt lat="49.8264" lon="2.15316">
        <ele>122.6</ele>
        <time>2023-02-22T14:09:45Z</time>
      </trkpt>
      <trkpt lat="49.8264" lon="2.15316">
        <ele>122.6</ele>
        <time>2023-02-22T14:09:46Z</time>
      </trkpt>
      <trkpt lat="49.8264" lon="2.15316">
        <ele>122.6</ele>
        <time>2023-02-22T14:09:47Z</time>
      </trkpt>
      <trkpt lat="49.8264" lon="2.15316">
        <ele>122.6</ele>
        <time>2023-02-22T14:09:48Z</time>
      </trkpt>
      <trkpt lat="49.8264" lon="2.15316">
        <ele>122.6</ele>
        <time>2023-02-22T14:09:49Z</time>
      </trkpt>
      <trkpt lat="49.8264" lon="2.15316">
        <ele>122.6</ele>
        <time>2023-02-22T14:09:50Z</time>
      </trkpt>
      <trkpt lat="49.8264" lon="2.15316">
        <ele>122.6</ele>
        <time>2023-02-22T14:09:51Z</time>
      </trkpt>
      <trkpt lat="49.82641" lon="2.15316">
        <ele>122.6</ele>
        <time>2023-02-22T14:09:52Z</time>
      </trkpt>
      <trkpt lat="49.82641" lon="2.15317">
        <ele>122.6</ele>
        <time>2023-02-22T14:09:53Z</time>
      </trkpt>
      <trkpt lat="49.82641" lon="2.15317">
        <ele>122.6</ele>
        <time>2023-02-22T14:09:54Z</time>
      </trkpt>
      <trkpt lat="49.82641" lon="2.15317">
        <ele>122.6</ele>
        <time>2023-02-22T14:09:55Z</time>
      </trkpt>
      <trkpt lat="49.82641" lon="2.15317">
        <ele>122.6</ele>
        <time>2023-02-22T14:09:56Z</time>
      </trkpt>
      <trkpt lat="49.82641" lon="2.15317">
        <ele>122.6</ele>
        <time>2023-02-22T14:09:57Z</time>
      </trkpt>
      <trkpt lat="49.82641" lon="2.15317">
        <ele>122.6</ele>
        <time>2023-02-22T14:09:58Z</time>
      </trkpt>
      <trkpt lat="49.82641" lon="2.15317">
        <ele>122.6</ele>
        <time>2023-02-22T14:09:59Z</time>
      </trkpt>
      <trkpt lat="49.82641" lon="2.15317">
        <ele>122.6</ele>
        <time>2023-02-22T14:10:00Z</time>
      </trkpt>
      <trkpt lat="49.82642" lon="2.15317">
        <ele>122.6</ele>
        <time>2023-02-22T14:10:01Z</time>
      </trkpt>
      <trkpt lat="49.82642" lon="2.15317">
        <ele>122.6</ele>
        <time>2023-02-22T14:10:02Z</time>
      </trkpt>
      <trkpt lat="49.82642" lon="2.15317">
        <ele>122.6</ele>
        <time>2023-02-22T14:10:03Z</time>
      </trkpt>
      <trkpt lat="49.82642" lon="2.15317">
        <ele>122.6</ele>
        <time>2023-02-22T14:10:04Z</time>
      </trkpt>
      <trkpt lat="49.82642" lon="2.15317">
        <ele>122.6</ele>
        <time>2023-02-22T14:10:05Z</time>
      </trkpt>
      <trkpt lat="49.82642" lon="2.15317">
        <ele>122.6</ele>
        <time>2023-02-22T14:10:06Z</time>
      </trkpt>
      <trkpt lat="49.82642" lon="2.15317">
        <ele>122.6</ele>
        <time>2023-02-22T14:10:07Z</time>
      </trkpt>
      <trkpt lat="49.82642" lon="2.15317">
        <ele>122.6</ele>
        <time>2023-02-22T14:10:08Z</time>
      </trkpt>
      <trkpt lat="49.82643" lon="2.15317">
        <ele>122.6</ele>
        <time>2023-02-22T14:10:09Z</time>
      </trkpt>
      <trkpt lat="49.82643" lon="2.15317">
        <ele>122.6</ele>
        <time>2023-02-22T14:10:10Z</time>
      </trkpt>
      <trkpt lat="49.82643" lon="2.15317">
        <ele>122.6</ele>
        <time>2023-02-22T14:10:11Z</time>
      </trkpt>
      <trkpt lat="49.82643" lon="2.15317">
        <ele>122.6</ele>
        <time>2023-02-22T14:10:12Z</time>
      </trkpt>
      <trkpt lat="49.82643" lon="2.15317">
        <ele>122.6</ele>
        <time>2023-02-22T14:10:13Z</time>
      </trkpt>
      <trkpt lat="49.82643" lon="2.15317">
        <ele>122.6</ele>
        <time>2023-02-22T14:10:14Z</time>
      </trkpt>
      <trkpt lat="49.82643" lon="2.15317">
        <ele>122.6</ele>
        <time>2023-02-22T14:10:16Z</time>
      </trkpt>
      <trkpt lat="49.82643" lon="2.15317">
        <ele>122.6</ele>
        <time>2023-02-22T14:10:17Z</time>
      </trkpt>
      <trkpt lat="49.82644" lon="2.15317">
        <ele>122.5</ele>
        <time>2023-02-22T14:10:19Z</time>
      </trkpt>
      <trkpt lat="49.82645" lon="2.15316">
        <ele>122.5</ele>
        <time>2023-02-22T14:10:20Z</time>
      </trkpt>
      <trkpt lat="49.82646" lon="2.15314">
        <ele>122.5</ele>
        <time>2023-02-22T14:10:21Z</time>
      </trkpt>
      <trkpt lat="49.82647" lon="2.15312">
        <ele>122.5</ele>
        <time>2023-02-22T14:10:22Z</time>
      </trkpt>
      <trkpt lat="49.82647" lon="2.1531">
        <ele>122.5</ele>
        <time>2023-02-22T14:10:23Z</time>
      </trkpt>
      <trkpt lat="49.82648" lon="2.15307">
        <ele>122.5</ele>
        <time>2023-02-22T14:10:25Z</time>
      </trkpt>
      <trkpt lat="49.82648" lon="2.15305">
        <ele>122.5</ele>
        <time>2023-02-22T14:10:26Z</time>
      </trkpt>
      <trkpt lat="49.82648" lon="2.15304">
        <ele>122.4</ele>
        <time>2023-02-22T14:10:27Z</time>
      </trkpt>
      <trkpt lat="49.82649" lon="2.15301">
        <ele>122.4</ele>
        <time>2023-02-22T14:10:28Z</time>
      </trkpt>
      <trkpt lat="49.82649" lon="2.15299">
        <ele>122.4</ele>
        <time>2023-02-22T14:10:29Z</time>
      </trkpt>
      <trkpt lat="49.82649" lon="2.15298">
        <ele>122.4</ele>
        <time>2023-02-22T14:10:30Z</time>
      </trkpt>
      <trkpt lat="49.82649" lon="2.15295">
        <ele>122.4</ele>
        <time>2023-02-22T14:10:31Z</time>
      </trkpt>
      <trkpt lat="49.82649" lon="2.15293">
        <ele>122.3</ele>
        <time>2023-02-22T14:10:32Z</time>
      </trkpt>
      <trkpt lat="49.82649" lon="2.15291">
        <ele>122.3</ele>
        <time>2023-02-22T14:10:33Z</time>
      </trkpt>
      <trkpt lat="49.8265" lon="2.15289">
        <ele>122.3</ele>
        <time>2023-02-22T14:10:35Z</time>
      </trkpt>
      <trkpt lat="49.8265" lon="2.15286">
        <ele>122.3</ele>
        <time>2023-02-22T14:10:36Z</time>
      </trkpt>
      <trkpt lat="49.8265" lon="2.15284">
        <ele>122.3</ele>
        <time>2023-02-22T14:10:37Z</time>
      </trkpt>
      <trkpt lat="49.82651" lon="2.15281">
        <ele>122.2</ele>
        <time>2023-02-22T14:10:38Z</time>
      </trkpt>
      <trkpt lat="49.82651" lon="2.15279">
        <ele>122.2</ele>
        <time>2023-02-22T14:10:39Z</time>
      </trkpt>
      <trkpt lat="49.82651" lon="2.15278">
        <ele>122.2</ele>
        <time>2023-02-22T14:10:40Z</time>
      </trkpt>
      <trkpt lat="49.82652" lon="2.15275">
        <ele>122.2</ele>
        <time>2023-02-22T14:10:41Z</time>
      </trkpt>
      <trkpt lat="49.82652" lon="2.15274">
        <ele>122.2</ele>
        <time>2023-02-22T14:10:42Z</time>
      </trkpt>
      <trkpt lat="49.82653" lon="2.15271">
        <ele>122.2</ele>
        <time>2023-02-22T14:10:43Z</time>
      </trkpt>
      <trkpt lat="49.82653" lon="2.15269">
        <ele>122.1</ele>
        <time>2023-02-22T14:10:45Z</time>
      </trkpt>
      <trkpt lat="49.82653" lon="2.15268">
        <ele>122.1</ele>
        <time>2023-02-22T14:10:46Z</time>
      </trkpt>
      <trkpt lat="49.82653" lon="2.15265">
        <ele>122.1</ele>
        <time>2023-02-22T14:10:47Z</time>
      </trkpt>
      <trkpt lat="49.82653" lon="2.15263">
        <ele>122.1</ele>
        <time>2023-02-22T14:10:48Z</time>
      </trkpt>
      <trkpt lat="49.82653" lon="2.15262">
        <ele>122.1</ele>
        <time>2023-02-22T14:10:49Z</time>
      </trkpt>
      <trkpt lat="49.82654" lon="2.15259">
        <ele>122.1</ele>
        <time>2023-02-22T14:10:50Z</time>
      </trkpt>
      <trkpt lat="49.82654" lon="2.15258">
        <ele>122.1</ele>
        <time>2023-02-22T14:10:51Z</time>
      </trkpt>
      <trkpt lat="49.82654" lon="2.15255">
        <ele>122</ele>
        <time>2023-02-22T14:10:52Z</time>
      </trkpt>
      <trkpt lat="49.82654" lon="2.15253">
        <ele>122</ele>
        <time>2023-02-22T14:10:53Z</time>
      </trkpt>
      <trkpt lat="49.82654" lon="2.15251">
        <ele>122</ele>
        <time>2023-02-22T14:10:54Z</time>
      </trkpt>
      <trkpt lat="49.82654" lon="2.15249">
        <ele>122</ele>
        <time>2023-02-22T14:10:56Z</time>
      </trkpt>
      <trkpt lat="49.82654" lon="2.15246">
        <ele>121.9</ele>
        <time>2023-02-22T14:10:57Z</time>
      </trkpt>
      <trkpt lat="49.82654" lon="2.15244">
        <ele>121.9</ele>
        <time>2023-02-22T14:10:58Z</time>
      </trkpt>
      <trkpt lat="49.82654" lon="2.15242">
        <ele>121.9</ele>
        <time>2023-02-22T14:10:59Z</time>
      </trkpt>
      <trkpt lat="49.82654" lon="2.1524">
        <ele>121.9</ele>
        <time>2023-02-22T14:11:00Z</time>
      </trkpt>
      <trkpt lat="49.82654" lon="2.15238">
        <ele>121.8</ele>
        <time>2023-02-22T14:11:01Z</time>
      </trkpt>
      <trkpt lat="49.82654" lon="2.15235">
        <ele>121.8</ele>
        <time>2023-02-22T14:11:02Z</time>
      </trkpt>
      <trkpt lat="49.82655" lon="2.15232">
        <ele>121.8</ele>
        <time>2023-02-22T14:11:03Z</time>
      </trkpt>
      <trkpt lat="49.82655" lon="2.15231">
        <ele>121.7</ele>
        <time>2023-02-22T14:11:04Z</time>
      </trkpt>
      <trkpt lat="49.82655" lon="2.1523">
        <ele>121.7</ele>
        <time>2023-02-22T14:11:05Z</time>
      </trkpt>
      <trkpt lat="49.82656" lon="2.15225">
        <ele>121.7</ele>
        <time>2023-02-22T14:11:06Z</time>
      </trkpt>
      <trkpt lat="49.82656" lon="2.15224">
        <ele>121.6</ele>
        <time>2023-02-22T14:11:08Z</time>
      </trkpt>
      <trkpt lat="49.82656" lon="2.15223">
        <ele>121.6</ele>
        <time>2023-02-22T14:11:09Z</time>
      </trkpt>
      <trkpt lat="49.82657" lon="2.15221">
        <ele>121.6</ele>
        <time>2023-02-22T14:11:10Z</time>
      </trkpt>
      <trkpt lat="49.82657" lon="2.1522">
        <ele>121.6</ele>
        <time>2023-02-22T14:11:11Z</time>
      </trkpt>
      <trkpt lat="49.82658" lon="2.15218">
        <ele>121.5</ele>
        <time>2023-02-22T14:11:12Z</time>
      </trkpt>
      <trkpt lat="49.82658" lon="2.15217">
        <ele>121.5</ele>
        <time>2023-02-22T14:11:13Z</time>
      </trkpt>
      <trkpt lat="49.82659" lon="2.15216">
        <ele>121.5</ele>
        <time>2023-02-22T14:11:14Z</time>
      </trkpt>
      <trkpt lat="49.8266" lon="2.15214">
        <ele>121.5</ele>
        <time>2023-02-22T14:11:15Z</time>
      </trkpt>
      <trkpt lat="49.8266" lon="2.15211">
        <ele>121.4</ele>
        <time>2023-02-22T14:11:16Z</time>
      </trkpt>
      <trkpt lat="49.82661" lon="2.1521">
        <ele>121.4</ele>
        <time>2023-02-22T14:11:18Z</time>
      </trkpt>
      <trkpt lat="49.82661" lon="2.15208">
        <ele>121.3</ele>
        <time>2023-02-22T14:11:19Z</time>
      </trkpt>
      <trkpt lat="49.82661" lon="2.15207">
        <ele>121.3</ele>
        <time>2023-02-22T14:11:20Z</time>
      </trkpt>
      <trkpt lat="49.82662" lon="2.15205">
        <ele>121.3</ele>
        <time>2023-02-22T14:11:21Z</time>
      </trkpt>
      <trkpt lat="49.82662" lon="2.15202">
        <ele>121.2</ele>
        <time>2023-02-22T14:11:22Z</time>
      </trkpt>
      <trkpt lat="49.82662" lon="2.15201">
        <ele>121.2</ele>
        <time>2023-02-22T14:11:23Z</time>
      </trkpt>
      <trkpt lat="49.82663" lon="2.15199">
        <ele>121.1</ele>
        <time>2023-02-22T14:11:24Z</time>
      </trkpt>
      <trkpt lat="49.82663" lon="2.15197">
        <ele>121.1</ele>
        <time>2023-02-22T14:11:25Z</time>
      </trkpt>
      <trkpt lat="49.82663" lon="2.15196">
        <ele>121.1</ele>
        <time>2023-02-22T14:11:26Z</time>
      </trkpt>
      <trkpt lat="49.82664" lon="2.15193">
        <ele>121</ele>
        <time>2023-02-22T14:11:27Z</time>
      </trkpt>
      <trkpt lat="49.82664" lon="2.15192">
        <ele>120.9</ele>
        <time>2023-02-22T14:11:28Z</time>
      </trkpt>
      <trkpt lat="49.82664" lon="2.1519">
        <ele>120.9</ele>
        <time>2023-02-22T14:11:30Z</time>
      </trkpt>
      <trkpt lat="49.82664" lon="2.15189">
        <ele>120.8</ele>
        <time>2023-02-22T14:11:31Z</time>
      </trkpt>
      <trkpt lat="49.82665" lon="2.15185">
        <ele>120.7</ele>
        <time>2023-02-22T14:11:32Z</time>
      </trkpt>
      <trkpt lat="49.82666" lon="2.15184">
        <ele>120.6</ele>
        <time>2023-02-22T14:11:33Z</time>
      </trkpt>
      <trkpt lat="49.82666" lon="2.15182">
        <ele>120.6</ele>
        <time>2023-02-22T14:11:34Z</time>
      </trkpt>
      <trkpt lat="49.82667" lon="2.15178">
        <ele>120.4</ele>
        <time>2023-02-22T14:11:36Z</time>
      </trkpt>
      <trkpt lat="49.82667" lon="2.15177">
        <ele>120.4</ele>
        <time>2023-02-22T14:11:38Z</time>
      </trkpt>
      <trkpt lat="49.82668" lon="2.15175">
        <ele>120.3</ele>
        <time>2023-02-22T14:11:39Z</time>
      </trkpt>
      <trkpt lat="49.82668" lon="2.15174">
        <ele>120.2</ele>
        <time>2023-02-22T14:11:40Z</time>
      </trkpt>
      <trkpt lat="49.82669" lon="2.15172">
        <ele>120.2</ele>
        <time>2023-02-22T14:11:41Z</time>
      </trkpt>
      <trkpt lat="49.82669" lon="2.1517">
        <ele>120.1</ele>
        <time>2023-02-22T14:11:42Z</time>
      </trkpt>
      <trkpt lat="49.8267" lon="2.15168">
        <ele>120</ele>
        <time>2023-02-22T14:11:43Z</time>
      </trkpt>
      <trkpt lat="49.82671" lon="2.15165">
        <ele>119.9</ele>
        <time>2023-02-22T14:11:44Z</time>
      </trkpt>
      <trkpt lat="49.82672" lon="2.15164">
        <ele>119.8</ele>
        <time>2023-02-22T14:11:45Z</time>
      </trkpt>
      <trkpt lat="49.82672" lon="2.15163">
        <ele>119.7</ele>
        <time>2023-02-22T14:11:46Z</time>
      </trkpt>
      <trkpt lat="49.82674" lon="2.1516">
        <ele>119.6</ele>
        <time>2023-02-22T14:11:47Z</time>
      </trkpt>
      <trkpt lat="49.82675" lon="2.15159">
        <ele>119.5</ele>
        <time>2023-02-22T14:11:49Z</time>
      </trkpt>
      <trkpt lat="49.82676" lon="2.15158">
        <ele>119.4</ele>
        <time>2023-02-22T14:11:50Z</time>
      </trkpt>
      <trkpt lat="49.82677" lon="2.15157">
        <ele>119.4</ele>
        <time>2023-02-22T14:11:51Z</time>
      </trkpt>
      <trkpt lat="49.82677" lon="2.15156">
        <ele>119.3</ele>
        <time>2023-02-22T14:11:52Z</time>
      </trkpt>
      <trkpt lat="49.82678" lon="2.15155">
        <ele>119.2</ele>
        <time>2023-02-22T14:11:53Z</time>
      </trkpt>
      <trkpt lat="49.82679" lon="2.15153">
        <ele>119.2</ele>
        <time>2023-02-22T14:11:54Z</time>
      </trkpt>
      <trkpt lat="49.8268" lon="2.15152">
        <ele>119.1</ele>
        <time>2023-02-22T14:11:55Z</time>
      </trkpt>
      <trkpt lat="49.8268" lon="2.1515">
        <ele>119</ele>
        <time>2023-02-22T14:11:56Z</time>
      </trkpt>
      <trkpt lat="49.82681" lon="2.15148">
        <ele>118.9</ele>
        <time>2023-02-22T14:11:57Z</time>
      </trkpt>
      <trkpt lat="49.82682" lon="2.15147">
        <ele>118.8</ele>
        <time>2023-02-22T14:11:58Z</time>
      </trkpt>
      <trkpt lat="49.82682" lon="2.15145">
        <ele>118.7</ele>
        <time>2023-02-22T14:12:00Z</time>
      </trkpt>
      <trkpt lat="49.82683" lon="2.15144">
        <ele>118.7</ele>
        <time>2023-02-22T14:12:01Z</time>
      </trkpt>
      <trkpt lat="49.82684" lon="2.15141">
        <ele>118.5</ele>
        <time>2023-02-22T14:12:02Z</time>
      </trkpt>
      <trkpt lat="49.82684" lon="2.1514">
        <ele>118.5</ele>
        <time>2023-02-22T14:12:03Z</time>
      </trkpt>
      <trkpt lat="49.82685" lon="2.15139">
        <ele>118.4</ele>
        <time>2023-02-22T14:12:04Z</time>
      </trkpt>
      <trkpt lat="49.82686" lon="2.15136">
        <ele>118.3</ele>
        <time>2023-02-22T14:12:05Z</time>
      </trkpt>
      <trkpt lat="49.82686" lon="2.15135">
        <ele>118.2</ele>
        <time>2023-02-22T14:12:06Z</time>
      </trkpt>
      <trkpt lat="49.82687" lon="2.15134">
        <ele>118.1</ele>
        <time>2023-02-22T14:12:07Z</time>
      </trkpt>
      <trkpt lat="49.82688" lon="2.15132">
        <ele>118</ele>
        <time>2023-02-22T14:12:08Z</time>
      </trkpt>
      <trkpt lat="49.82688" lon="2.15131">
        <ele>118</ele>
        <time>2023-02-22T14:12:09Z</time>
      </trkpt>
      <trkpt lat="49.82688" lon="2.15129">
        <ele>117.9</ele>
        <time>2023-02-22T14:12:10Z</time>
      </trkpt>
      <trkpt lat="49.82689" lon="2.15128">
        <ele>117.9</ele>
        <time>2023-02-22T14:12:11Z</time>
      </trkpt>
      <trkpt lat="49.82689" lon="2.15126">
        <ele>117.8</ele>
        <time>2023-02-22T14:12:13Z</time>
      </trkpt>
      <trkpt lat="49.8269" lon="2.15125">
        <ele>117.7</ele>
        <time>2023-02-22T14:12:14Z</time>
      </trkpt>
      <trkpt lat="49.8269" lon="2.15124">
        <ele>117.6</ele>
        <time>2023-02-22T14:12:15Z</time>
      </trkpt>
      <trkpt lat="49.82691" lon="2.15122">
        <ele>117.5</ele>
        <time>2023-02-22T14:12:16Z</time>
      </trkpt>
      <trkpt lat="49.82692" lon="2.15119">
        <ele>117.4</ele>
        <time>2023-02-22T14:12:17Z</time>
      </trkpt>
      <trkpt lat="49.82692" lon="2.15118">
        <ele>117.3</ele>
        <time>2023-02-22T14:12:18Z</time>
      </trkpt>
      <trkpt lat="49.82692" lon="2.15116">
        <ele>117.2</ele>
        <time>2023-02-22T14:12:19Z</time>
      </trkpt>
      <trkpt lat="49.82693" lon="2.15115">
        <ele>117.1</ele>
        <time>2023-02-22T14:12:20Z</time>
      </trkpt>
      <trkpt lat="49.82693" lon="2.15113">
        <ele>117</ele>
        <time>2023-02-22T14:12:21Z</time>
      </trkpt>
      <trkpt lat="49.82694" lon="2.1511">
        <ele>116.9</ele>
        <time>2023-02-22T14:12:22Z</time>
      </trkpt>
      <trkpt lat="49.82695" lon="2.15109">
        <ele>116.8</ele>
        <time>2023-02-22T14:12:23Z</time>
      </trkpt>
      <trkpt lat="49.82695" lon="2.15107">
        <ele>116.7</ele>
        <time>2023-02-22T14:12:25Z</time>
      </trkpt>
      <trkpt lat="49.82696" lon="2.15105">
        <ele>116.6</ele>
        <time>2023-02-22T14:12:26Z</time>
      </trkpt>
      <trkpt lat="49.82696" lon="2.15103">
        <ele>116.5</ele>
        <time>2023-02-22T14:12:27Z</time>
      </trkpt>
      <trkpt lat="49.82697" lon="2.15102">
        <ele>116.4</ele>
        <time>2023-02-22T14:12:28Z</time>
      </trkpt>
      <trkpt lat="49.82698" lon="2.15099">
        <ele>116.2</ele>
        <time>2023-02-22T14:12:29Z</time>
      </trkpt>
      <trkpt lat="49.82698" lon="2.15098">
        <ele>116.2</ele>
        <time>2023-02-22T14:12:30Z</time>
      </trkpt>
      <trkpt lat="49.82699" lon="2.15096">
        <ele>116.1</ele>
        <time>2023-02-22T14:12:31Z</time>
      </trkpt>
      <trkpt lat="49.827" lon="2.15094">
        <ele>115.9</ele>
        <time>2023-02-22T14:12:32Z</time>
      </trkpt>
      <trkpt lat="49.82701" lon="2.15093">
        <ele>115.8</ele>
        <time>2023-02-22T14:12:33Z</time>
      </trkpt>
      <trkpt lat="49.82702" lon="2.1509">
        <ele>115.6</ele>
        <time>2023-02-22T14:12:34Z</time>
      </trkpt>
      <trkpt lat="49.82702" lon="2.15089">
        <ele>115.6</ele>
        <time>2023-02-22T14:12:35Z</time>
      </trkpt>
      <trkpt lat="49.82703" lon="2.15088">
        <ele>115.5</ele>
        <time>2023-02-22T14:12:36Z</time>
      </trkpt>
      <trkpt lat="49.82704" lon="2.15084">
        <ele>115.3</ele>
        <time>2023-02-22T14:12:37Z</time>
      </trkpt>
      <trkpt lat="49.82704" lon="2.15083">
        <ele>115.2</ele>
        <time>2023-02-22T14:12:39Z</time>
      </trkpt>
      <trkpt lat="49.82704" lon="2.15082">
        <ele>115.1</ele>
        <time>2023-02-22T14:12:40Z</time>
      </trkpt>
      <trkpt lat="49.82705" lon="2.15081">
        <ele>115</ele>
        <time>2023-02-22T14:12:41Z</time>
      </trkpt>
      <trkpt lat="49.82705" lon="2.15078">
        <ele>114.8</ele>
        <time>2023-02-22T14:12:42Z</time>
      </trkpt>
      <trkpt lat="49.82706" lon="2.15076">
        <ele>114.7</ele>
        <time>2023-02-22T14:12:43Z</time>
      </trkpt>
      <trkpt lat="49.82706" lon="2.15074">
        <ele>114.6</ele>
        <time>2023-02-22T14:12:45Z</time>
      </trkpt>
      <trkpt lat="49.82706" lon="2.15073">
        <ele>114.5</ele>
        <time>2023-02-22T14:12:46Z</time>
      </trkpt>
      <trkpt lat="49.82707" lon="2.15071">
        <ele>114.4</ele>
        <time>2023-02-22T14:12:47Z</time>
      </trkpt>
      <trkpt lat="49.82707" lon="2.15068">
        <ele>114.2</ele>
        <time>2023-02-22T14:12:48Z</time>
      </trkpt>
      <trkpt lat="49.82707" lon="2.15067">
        <ele>114.1</ele>
        <time>2023-02-22T14:12:49Z</time>
      </trkpt>
      <trkpt lat="49.82707" lon="2.15065">
        <ele>114</ele>
        <time>2023-02-22T14:12:50Z</time>
      </trkpt>
      <trkpt lat="49.82708" lon="2.15063">
        <ele>113.9</ele>
        <time>2023-02-22T14:12:51Z</time>
      </trkpt>
      <trkpt lat="49.82708" lon="2.15061">
        <ele>113.7</ele>
        <time>2023-02-22T14:12:52Z</time>
      </trkpt>
      <trkpt lat="49.82709" lon="2.15059">
        <ele>113.6</ele>
        <time>2023-02-22T14:12:54Z</time>
      </trkpt>
      <trkpt lat="49.82709" lon="2.15058">
        <ele>113.5</ele>
        <time>2023-02-22T14:12:55Z</time>
      </trkpt>
      <trkpt lat="49.8271" lon="2.15056">
        <ele>113.4</ele>
        <time>2023-02-22T14:12:56Z</time>
      </trkpt>
      <trkpt lat="49.82711" lon="2.15053">
        <ele>113.2</ele>
        <time>2023-02-22T14:12:57Z</time>
      </trkpt>
      <trkpt lat="49.82712" lon="2.15051">
        <ele>113</ele>
        <time>2023-02-22T14:12:58Z</time>
      </trkpt>
      <trkpt lat="49.82712" lon="2.15049">
        <ele>112.9</ele>
        <time>2023-02-22T14:12:59Z</time>
      </trkpt>
      <trkpt lat="49.82712" lon="2.15048">
        <ele>112.8</ele>
        <time>2023-02-22T14:13:00Z</time>
      </trkpt>
      <trkpt lat="49.82713" lon="2.15047">
        <ele>112.7</ele>
        <time>2023-02-22T14:13:02Z</time>
      </trkpt>
      <trkpt lat="49.82714" lon="2.15044">
        <ele>112.5</ele>
        <time>2023-02-22T14:13:03Z</time>
      </trkpt>
      <trkpt lat="49.82714" lon="2.15042">
        <ele>112.4</ele>
        <time>2023-02-22T14:13:04Z</time>
      </trkpt>
      <trkpt lat="49.82715" lon="2.15041">
        <ele>112.2</ele>
        <time>2023-02-22T14:13:05Z</time>
      </trkpt>
      <trkpt lat="49.82716" lon="2.15039">
        <ele>112.1</ele>
        <time>2023-02-22T14:13:06Z</time>
      </trkpt>
      <trkpt lat="49.82717" lon="2.15036">
        <ele>111.9</ele>
        <time>2023-02-22T14:13:07Z</time>
      </trkpt>
      <trkpt lat="49.82717" lon="2.15035">
        <ele>111.8</ele>
        <time>2023-02-22T14:13:08Z</time>
      </trkpt>
      <trkpt lat="49.82718" lon="2.15033">
        <ele>111.7</ele>
        <time>2023-02-22T14:13:09Z</time>
      </trkpt>
      <trkpt lat="49.82718" lon="2.15032">
        <ele>111.6</ele>
        <time>2023-02-22T14:13:10Z</time>
      </trkpt>
      <trkpt lat="49.82719" lon="2.1503">
        <ele>111.5</ele>
        <time>2023-02-22T14:13:11Z</time>
      </trkpt>
      <trkpt lat="49.8272" lon="2.15028">
        <ele>111.3</ele>
        <time>2023-02-22T14:13:13Z</time>
      </trkpt>
      <trkpt lat="49.8272" lon="2.15026">
        <ele>111.2</ele>
        <time>2023-02-22T14:13:14Z</time>
      </trkpt>
      <trkpt lat="49.82721" lon="2.15025">
        <ele>111.1</ele>
        <time>2023-02-22T14:13:15Z</time>
      </trkpt>
      <trkpt lat="49.82721" lon="2.15023">
        <ele>110.9</ele>
        <time>2023-02-22T14:13:16Z</time>
      </trkpt>
      <trkpt lat="49.82722" lon="2.15021">
        <ele>110.8</ele>
        <time>2023-02-22T14:13:17Z</time>
      </trkpt>
      <trkpt lat="49.82722" lon="2.15019">
        <ele>110.6</ele>
        <time>2023-02-22T14:13:18Z</time>
      </trkpt>
      <trkpt lat="49.82723" lon="2.15017">
        <ele>110.5</ele>
        <time>2023-02-22T14:13:19Z</time>
      </trkpt>
      <trkpt lat="49.82724" lon="2.15016">
        <ele>110.4</ele>
        <time>2023-02-22T14:13:20Z</time>
      </trkpt>
      <trkpt lat="49.82724" lon="2.15015">
        <ele>110.3</ele>
        <time>2023-02-22T14:13:21Z</time>
      </trkpt>
      <trkpt lat="49.82725" lon="2.15013">
        <ele>110.2</ele>
        <time>2023-02-22T14:13:22Z</time>
      </trkpt>
      <trkpt lat="49.82725" lon="2.15011">
        <ele>110.1</ele>
        <time>2023-02-22T14:13:24Z</time>
      </trkpt>
      <trkpt lat="49.82726" lon="2.1501">
        <ele>110</ele>
        <time>2023-02-22T14:13:25Z</time>
      </trkpt>
      <trkpt lat="49.82727" lon="2.15007">
        <ele>109.8</ele>
        <time>2023-02-22T14:13:26Z</time>
      </trkpt>
      <trkpt lat="49.82727" lon="2.15006">
        <ele>109.7</ele>
        <time>2023-02-22T14:13:27Z</time>
      </trkpt>
      <trkpt lat="49.82728" lon="2.15005">
        <ele>109.6</ele>
        <time>2023-02-22T14:13:28Z</time>
      </trkpt>
      <trkpt lat="49.82728" lon="2.15003">
        <ele>109.5</ele>
        <time>2023-02-22T14:13:29Z</time>
      </trkpt>
      <trkpt lat="49.82729" lon="2.15002">
        <ele>109.4</ele>
        <time>2023-02-22T14:13:30Z</time>
      </trkpt>
      <trkpt lat="49.82729" lon="2.15">
        <ele>109.3</ele>
        <time>2023-02-22T14:13:31Z</time>
      </trkpt>
      <trkpt lat="49.8273" lon="2.14998">
        <ele>109.1</ele>
        <time>2023-02-22T14:13:32Z</time>
      </trkpt>
      <trkpt lat="49.8273" lon="2.14997">
        <ele>109</ele>
        <time>2023-02-22T14:13:33Z</time>
      </trkpt>
      <trkpt lat="49.8273" lon="2.14996">
        <ele>108.9</ele>
        <time>2023-02-22T14:13:35Z</time>
      </trkpt>
      <trkpt lat="49.8273" lon="2.14994">
        <ele>108.8</ele>
        <time>2023-02-22T14:13:36Z</time>
      </trkpt>
      <trkpt lat="49.8273" lon="2.14993">
        <ele>108.7</ele>
        <time>2023-02-22T14:13:37Z</time>
      </trkpt>
      <trkpt lat="49.8273" lon="2.14991">
        <ele>108.6</ele>
        <time>2023-02-22T14:13:38Z</time>
      </trkpt>
      <trkpt lat="49.8273" lon="2.14989">
        <ele>108.5</ele>
        <time>2023-02-22T14:13:39Z</time>
      </trkpt>
      <trkpt lat="49.82731" lon="2.14988">
        <ele>108.4</ele>
        <time>2023-02-22T14:13:40Z</time>
      </trkpt>
      <trkpt lat="49.82731" lon="2.14986">
        <ele>108.3</ele>
        <time>2023-02-22T14:13:41Z</time>
      </trkpt>
      <trkpt lat="49.82731" lon="2.14984">
        <ele>108.1</ele>
        <time>2023-02-22T14:13:42Z</time>
      </trkpt>
      <trkpt lat="49.82732" lon="2.14982">
        <ele>108</ele>
        <time>2023-02-22T14:13:43Z</time>
      </trkpt>
      <trkpt lat="49.82732" lon="2.14979">
        <ele>107.8</ele>
        <time>2023-02-22T14:13:44Z</time>
      </trkpt>
      <trkpt lat="49.82733" lon="2.14978">
        <ele>107.7</ele>
        <time>2023-02-22T14:13:46Z</time>
      </trkpt>
      <trkpt lat="49.82733" lon="2.14977">
        <ele>107.6</ele>
        <time>2023-02-22T14:13:47Z</time>
      </trkpt>
      <trkpt lat="49.82734" lon="2.14973">
        <ele>107.4</ele>
        <time>2023-02-22T14:13:48Z</time>
      </trkpt>
      <trkpt lat="49.82734" lon="2.14972">
        <ele>107.3</ele>
        <time>2023-02-22T14:13:49Z</time>
      </trkpt>
      <trkpt lat="49.82735" lon="2.14971">
        <ele>107.2</ele>
        <time>2023-02-22T14:13:50Z</time>
      </trkpt>
      <trkpt lat="49.82735" lon="2.14969">
        <ele>107.1</ele>
        <time>2023-02-22T14:13:51Z</time>
      </trkpt>
      <trkpt lat="49.82736" lon="2.14967">
        <ele>106.9</ele>
        <time>2023-02-22T14:13:52Z</time>
      </trkpt>
      <trkpt lat="49.82736" lon="2.14966">
        <ele>106.8</ele>
        <time>2023-02-22T14:13:53Z</time>
      </trkpt>
      <trkpt lat="49.82737" lon="2.14964">
        <ele>106.7</ele>
        <time>2023-02-22T14:13:55Z</time>
      </trkpt>
      <trkpt lat="49.82738" lon="2.14963">
        <ele>106.5</ele>
        <time>2023-02-22T14:13:56Z</time>
      </trkpt>
      <trkpt lat="49.82738" lon="2.14961">
        <ele>106.4</ele>
        <time>2023-02-22T14:13:57Z</time>
      </trkpt>
      <trkpt lat="49.8274" lon="2.14959">
        <ele>106.2</ele>
        <time>2023-02-22T14:13:58Z</time>
      </trkpt>
      <trkpt lat="49.8274" lon="2.14957">
        <ele>106.1</ele>
        <time>2023-02-22T14:13:59Z</time>
      </trkpt>
      <trkpt lat="49.82741" lon="2.14955">
        <ele>105.9</ele>
        <time>2023-02-22T14:14:00Z</time>
      </trkpt>
      <trkpt lat="49.82742" lon="2.14953">
        <ele>105.8</ele>
        <time>2023-02-22T14:14:01Z</time>
      </trkpt>
      <trkpt lat="49.82743" lon="2.1495">
        <ele>105.6</ele>
        <time>2023-02-22T14:14:02Z</time>
      </trkpt>
      <trkpt lat="49.82744" lon="2.14947">
        <ele>105.4</ele>
        <time>2023-02-22T14:14:04Z</time>
      </trkpt>
      <trkpt lat="49.82744" lon="2.14946">
        <ele>105.3</ele>
        <time>2023-02-22T14:14:05Z</time>
      </trkpt>
      <trkpt lat="49.82744" lon="2.14944">
        <ele>105.2</ele>
        <time>2023-02-22T14:14:06Z</time>
      </trkpt>
      <trkpt lat="49.82745" lon="2.14942">
        <ele>105.1</ele>
        <time>2023-02-22T14:14:07Z</time>
      </trkpt>
      <trkpt lat="49.82746" lon="2.1494">
        <ele>105</ele>
        <time>2023-02-22T14:14:08Z</time>
      </trkpt>
      <trkpt lat="49.82746" lon="2.14938">
        <ele>104.9</ele>
        <time>2023-02-22T14:14:09Z</time>
      </trkpt>
      <trkpt lat="49.82746" lon="2.14937">
        <ele>104.8</ele>
        <time>2023-02-22T14:14:10Z</time>
      </trkpt>
      <trkpt lat="49.82747" lon="2.14935">
        <ele>104.7</ele>
        <time>2023-02-22T14:14:11Z</time>
      </trkpt>
      <trkpt lat="49.82747" lon="2.14933">
        <ele>104.6</ele>
        <time>2023-02-22T14:14:13Z</time>
      </trkpt>
      <trkpt lat="49.82747" lon="2.14932">
        <ele>104.6</ele>
        <time>2023-02-22T14:14:14Z</time>
      </trkpt>
      <trkpt lat="49.82747" lon="2.14931">
        <ele>104.5</ele>
        <time>2023-02-22T14:14:15Z</time>
      </trkpt>
      <trkpt lat="49.82748" lon="2.14929">
        <ele>104.4</ele>
        <time>2023-02-22T14:14:16Z</time>
      </trkpt>
      <trkpt lat="49.82748" lon="2.14928">
        <ele>104.4</ele>
        <time>2023-02-22T14:14:17Z</time>
      </trkpt>
      <trkpt lat="49.82748" lon="2.14927">
        <ele>104.3</ele>
        <time>2023-02-22T14:14:18Z</time>
      </trkpt>
      <trkpt lat="49.82749" lon="2.14925">
        <ele>104.3</ele>
        <time>2023-02-22T14:14:19Z</time>
      </trkpt>
      <trkpt lat="49.82749" lon="2.14923">
        <ele>104.2</ele>
        <time>2023-02-22T14:14:20Z</time>
      </trkpt>
      <trkpt lat="49.8275" lon="2.14922">
        <ele>104.1</ele>
        <time>2023-02-22T14:14:22Z</time>
      </trkpt>
      <trkpt lat="49.8275" lon="2.1492">
        <ele>104.1</ele>
        <time>2023-02-22T14:14:23Z</time>
      </trkpt>
      <trkpt lat="49.82751" lon="2.14919">
        <ele>104</ele>
        <time>2023-02-22T14:14:24Z</time>
      </trkpt>
      <trkpt lat="49.82751" lon="2.14917">
        <ele>104</ele>
        <time>2023-02-22T14:14:25Z</time>
      </trkpt>
      <trkpt lat="49.82751" lon="2.14915">
        <ele>103.9</ele>
        <time>2023-02-22T14:14:26Z</time>
      </trkpt>
      <trkpt lat="49.82752" lon="2.14914">
        <ele>103.9</ele>
        <time>2023-02-22T14:14:27Z</time>
      </trkpt>
      <trkpt lat="49.82752" lon="2.14912">
        <ele>103.8</ele>
        <time>2023-02-22T14:14:28Z</time>
      </trkpt>
      <trkpt lat="49.82753" lon="2.14911">
        <ele>103.8</ele>
        <time>2023-02-22T14:14:30Z</time>
      </trkpt>
      <trkpt lat="49.82753" lon="2.14909">
        <ele>103.8</ele>
        <time>2023-02-22T14:14:31Z</time>
      </trkpt>
      <trkpt lat="49.82753" lon="2.14908">
        <ele>103.7</ele>
        <time>2023-02-22T14:14:32Z</time>
      </trkpt>
      <trkpt lat="49.82754" lon="2.14905">
        <ele>103.7</ele>
        <time>2023-02-22T14:14:33Z</time>
      </trkpt>
      <trkpt lat="49.82754" lon="2.14903">
        <ele>103.6</ele>
        <time>2023-02-22T14:14:34Z</time>
      </trkpt>
      <trkpt lat="49.82756" lon="2.149">
        <ele>103.6</ele>
        <time>2023-02-22T14:14:36Z</time>
      </trkpt>
      <trkpt lat="49.82756" lon="2.14899">
        <ele>103.6</ele>
        <time>2023-02-22T14:14:37Z</time>
      </trkpt>
      <trkpt lat="49.82757" lon="2.14897">
        <ele>103.5</ele>
        <time>2023-02-22T14:14:38Z</time>
      </trkpt>
      <trkpt lat="49.82758" lon="2.14896">
        <ele>103.5</ele>
        <time>2023-02-22T14:14:39Z</time>
      </trkpt>
      <trkpt lat="49.82758" lon="2.14894">
        <ele>103.5</ele>
        <time>2023-02-22T14:14:40Z</time>
      </trkpt>
      <trkpt lat="49.82759" lon="2.14892">
        <ele>103.5</ele>
        <time>2023-02-22T14:14:41Z</time>
      </trkpt>
      <trkpt lat="49.82759" lon="2.1489">
        <ele>103.5</ele>
        <time>2023-02-22T14:14:42Z</time>
      </trkpt>
      <trkpt lat="49.8276" lon="2.14887">
        <ele>103.5</ele>
        <time>2023-02-22T14:14:44Z</time>
      </trkpt>
      <trkpt lat="49.8276" lon="2.14885">
        <ele>103.5</ele>
        <time>2023-02-22T14:14:45Z</time>
      </trkpt>
      <trkpt lat="49.8276" lon="2.14883">
        <ele>103.5</ele>
        <time>2023-02-22T14:14:46Z</time>
      </trkpt>
      <trkpt lat="49.82761" lon="2.14881">
        <ele>103.5</ele>
        <time>2023-02-22T14:14:47Z</time>
      </trkpt>
      <trkpt lat="49.82761" lon="2.14879">
        <ele>103.5</ele>
        <time>2023-02-22T14:14:49Z</time>
      </trkpt>
      <trkpt lat="49.82762" lon="2.14876">
        <ele>103.5</ele>
        <time>2023-02-22T14:14:51Z</time>
      </trkpt>
      <trkpt lat="49.82762" lon="2.14875">
        <ele>103.5</ele>
        <time>2023-02-22T14:14:52Z</time>
      </trkpt>
      <trkpt lat="49.82762" lon="2.14874">
        <ele>103.5</ele>
        <time>2023-02-22T14:14:53Z</time>
      </trkpt>
      <trkpt lat="49.82761" lon="2.14873">
        <ele>103.5</ele>
        <time>2023-02-22T14:14:55Z</time>
      </trkpt>
      <trkpt lat="49.82761" lon="2.14873">
        <ele>103.5</ele>
        <time>2023-02-22T14:14:56Z</time>
      </trkpt>
      <trkpt lat="49.82761" lon="2.14873">
        <ele>103.5</ele>
        <time>2023-02-22T14:14:58Z</time>
      </trkpt>
      <trkpt lat="49.82761" lon="2.14873">
        <ele>103.5</ele>
        <time>2023-02-22T14:14:59Z</time>
      </trkpt>
      <trkpt lat="49.82761" lon="2.14873">
        <ele>103.5</ele>
        <time>2023-02-22T14:15:01Z</time>
      </trkpt>
      <trkpt lat="49.82761" lon="2.14873">
        <ele>103.5</ele>
        <time>2023-02-22T14:15:02Z</time>
      </trkpt>
      <trkpt lat="49.82761" lon="2.14873">
        <ele>103.5</ele>
        <time>2023-02-22T14:15:04Z</time>
      </trkpt>
      <trkpt lat="49.82761" lon="2.14873">
        <ele>103.5</ele>
        <time>2023-02-22T14:15:05Z</time>
      </trkpt>
      <trkpt lat="49.82761" lon="2.14873">
        <ele>103.5</ele>
        <time>2023-02-22T14:15:06Z</time>
      </trkpt>
      <trkpt lat="49.82761" lon="2.14873">
        <ele>103.5</ele>
        <time>2023-02-22T14:15:08Z</time>
      </trkpt>
      <trkpt lat="49.82761" lon="2.14873">
        <ele>103.5</ele>
        <time>2023-02-22T14:15:09Z</time>
      </trkpt>
      <trkpt lat="49.82761" lon="2.14874">
        <ele>103.5</ele>
        <time>2023-02-22T14:15:10Z</time>
      </trkpt>
      <trkpt lat="49.82761" lon="2.14874">
        <ele>103.5</ele>
        <time>2023-02-22T14:15:11Z</time>
      </trkpt>
      <trkpt lat="49.82761" lon="2.14874">
        <ele>103.5</ele>
        <time>2023-02-22T14:15:12Z</time>
      </trkpt>
      <trkpt lat="49.82761" lon="2.14874">
        <ele>103.5</ele>
        <time>2023-02-22T14:15:13Z</time>
      </trkpt>
      <trkpt lat="49.8276" lon="2.14874">
        <ele>103.5</ele>
        <time>2023-02-22T14:15:14Z</time>
      </trkpt>
      <trkpt lat="49.8276" lon="2.14874">
        <ele>103.5</ele>
        <time>2023-02-22T14:15:15Z</time>
      </trkpt>
      <trkpt lat="49.8276" lon="2.14874">
        <ele>103.5</ele>
        <time>2023-02-22T14:15:16Z</time>
      </trkpt>
      <trkpt lat="49.8276" lon="2.14874">
        <ele>103.5</ele>
        <time>2023-02-22T14:15:17Z</time>
      </trkpt>
      <trkpt lat="49.8276" lon="2.14874">
        <ele>103.5</ele>
        <time>2023-02-22T14:15:18Z</time>
      </trkpt>
      <trkpt lat="49.8276" lon="2.14874">
        <ele>103.5</ele>
        <time>2023-02-22T14:15:19Z</time>
      </trkpt>
      <trkpt lat="49.8276" lon="2.14874">
        <ele>103.5</ele>
        <time>2023-02-22T14:15:20Z</time>
      </trkpt>
      <trkpt lat="49.8276" lon="2.14874">
        <ele>103.5</ele>
        <time>2023-02-22T14:15:21Z</time>
      </trkpt>
      <trkpt lat="49.8276" lon="2.14874">
        <ele>103.5</ele>
        <time>2023-02-22T14:15:22Z</time>
      </trkpt>
      <trkpt lat="49.8276" lon="2.14874">
        <ele>103.5</ele>
        <time>2023-02-22T14:15:23Z</time>
      </trkpt>
      <trkpt lat="49.8276" lon="2.14875">
        <ele>103.5</ele>
        <time>2023-02-22T14:15:24Z</time>
      </trkpt>
      <trkpt lat="49.8276" lon="2.14875">
        <ele>103.5</ele>
        <time>2023-02-22T14:15:25Z</time>
      </trkpt>
      <trkpt lat="49.8276" lon="2.14875">
        <ele>103.5</ele>
        <time>2023-02-22T14:15:26Z</time>
      </trkpt>
      <trkpt lat="49.8276" lon="2.14875">
        <ele>103.5</ele>
        <time>2023-02-22T14:15:27Z</time>
      </trkpt>
      <trkpt lat="49.8276" lon="2.14875">
        <ele>103.5</ele>
        <time>2023-02-22T14:15:28Z</time>
      </trkpt>
      <trkpt lat="49.8276" lon="2.14875">
        <ele>103.5</ele>
        <time>2023-02-22T14:15:29Z</time>
      </trkpt>
      <trkpt lat="49.8276" lon="2.14875">
        <ele>103.5</ele>
        <time>2023-02-22T14:15:30Z</time>
      </trkpt>
      <trkpt lat="49.8276" lon="2.14875">
        <ele>103.5</ele>
        <time>2023-02-22T14:15:31Z</time>
      </trkpt>
      <trkpt lat="49.8276" lon="2.14875">
        <ele>103.5</ele>
        <time>2023-02-22T14:15:32Z</time>
      </trkpt>
      <trkpt lat="49.8276" lon="2.14875">
        <ele>103.5</ele>
        <time>2023-02-22T14:15:33Z</time>
      </trkpt>
      <trkpt lat="49.8276" lon="2.14875">
        <ele>103.5</ele>
        <time>2023-02-22T14:15:34Z</time>
      </trkpt>
      <trkpt lat="49.8276" lon="2.14875">
        <ele>103.5</ele>
        <time>2023-02-22T14:15:35Z</time>
      </trkpt>
      <trkpt lat="49.8276" lon="2.14875">
        <ele>103.5</ele>
        <time>2023-02-22T14:15:36Z</time>
      </trkpt>
      <trkpt lat="49.8276" lon="2.14875">
        <ele>103.5</ele>
        <time>2023-02-22T14:15:37Z</time>
      </trkpt>
      <trkpt lat="49.8276" lon="2.14876">
        <ele>103.5</ele>
        <time>2023-02-22T14:15:38Z</time>
      </trkpt>
      <trkpt lat="49.82759" lon="2.14876">
        <ele>103.5</ele>
        <time>2023-02-22T14:15:39Z</time>
      </trkpt>
      <trkpt lat="49.82759" lon="2.14876">
        <ele>103.5</ele>
        <time>2023-02-22T14:15:40Z</time>
      </trkpt>
      <trkpt lat="49.82759" lon="2.14876">
        <ele>103.5</ele>
        <time>2023-02-22T14:15:41Z</time>
      </trkpt>
      <trkpt lat="49.82759" lon="2.14876">
        <ele>103.5</ele>
        <time>2023-02-22T14:15:42Z</time>
      </trkpt>
      <trkpt lat="49.82759" lon="2.14876">
        <ele>103.5</ele>
        <time>2023-02-22T14:15:43Z</time>
      </trkpt>
      <trkpt lat="49.82759" lon="2.14876">
        <ele>103.5</ele>
        <time>2023-02-22T14:15:44Z</time>
      </trkpt>
      <trkpt lat="49.82759" lon="2.14876">
        <ele>103.5</ele>
        <time>2023-02-22T14:15:45Z</time>
      </trkpt>
      <trkpt lat="49.82759" lon="2.14876">
        <ele>103.5</ele>
        <time>2023-02-22T14:15:46Z</time>
      </trkpt>
      <trkpt lat="49.82759" lon="2.14876">
        <ele>103.5</ele>
        <time>2023-02-22T14:15:47Z</time>
      </trkpt>
      <trkpt lat="49.82759" lon="2.14876">
        <ele>103.5</ele>
        <time>2023-02-22T14:15:48Z</time>
      </trkpt>
      <trkpt lat="49.82759" lon="2.14876">
        <ele>103.5</ele>
        <time>2023-02-22T14:15:49Z</time>
      </trkpt>
      <trkpt lat="49.82759" lon="2.14876">
        <ele>103.5</ele>
        <time>2023-02-22T14:15:50Z</time>
      </trkpt>
      <trkpt lat="49.82759" lon="2.14876">
        <ele>103.5</ele>
        <time>2023-02-22T14:15:51Z</time>
      </trkpt>
      <trkpt lat="49.82759" lon="2.14876">
        <ele>103.5</ele>
        <time>2023-02-22T14:15:52Z</time>
      </trkpt>
      <trkpt lat="49.82759" lon="2.14877">
        <ele>103.5</ele>
        <time>2023-02-22T14:15:53Z</time>
      </trkpt>
      <trkpt lat="49.82759" lon="2.14877">
        <ele>103.5</ele>
        <time>2023-02-22T14:15:54Z</time>
      </trkpt>
      <trkpt lat="49.82759" lon="2.14877">
        <ele>103.5</ele>
        <time>2023-02-22T14:15:55Z</time>
      </trkpt>
      <trkpt lat="49.82759" lon="2.14877">
        <ele>103.5</ele>
        <time>2023-02-22T14:15:56Z</time>
      </trkpt>
      <trkpt lat="49.82759" lon="2.14877">
        <ele>103.5</ele>
        <time>2023-02-22T14:15:57Z</time>
      </trkpt>
      <trkpt lat="49.82759" lon="2.14877">
        <ele>103.5</ele>
        <time>2023-02-22T14:15:58Z</time>
      </trkpt>
      <trkpt lat="49.82759" lon="2.14877">
        <ele>103.5</ele>
        <time>2023-02-22T14:15:59Z</time>
      </trkpt>
      <trkpt lat="49.82759" lon="2.14877">
        <ele>103.5</ele>
        <time>2023-02-22T14:16:00Z</time>
      </trkpt>
      <trkpt lat="49.82759" lon="2.14877">
        <ele>103.5</ele>
        <time>2023-02-22T14:16:01Z</time>
      </trkpt>
      <trkpt lat="49.82759" lon="2.14877">
        <ele>103.5</ele>
        <time>2023-02-22T14:16:02Z</time>
      </trkpt>
      <trkpt lat="49.82759" lon="2.14877">
        <ele>103.5</ele>
        <time>2023-02-22T14:16:03Z</time>
      </trkpt>
      <trkpt lat="49.82758" lon="2.14877">
        <ele>103.5</ele>
        <time>2023-02-22T14:16:04Z</time>
      </trkpt>
      <trkpt lat="49.82758" lon="2.14877">
        <ele>103.5</ele>
        <time>2023-02-22T14:16:05Z</time>
      </trkpt>
      <trkpt lat="49.82758" lon="2.14877">
        <ele>103.5</ele>
        <time>2023-02-22T14:16:06Z</time>
      </trkpt>
      <trkpt lat="49.82758" lon="2.14878">
        <ele>103.5</ele>
        <time>2023-02-22T14:16:07Z</time>
      </trkpt>
      <trkpt lat="49.82758" lon="2.14878">
        <ele>103.5</ele>
        <time>2023-02-22T14:16:08Z</time>
      </trkpt>
      <trkpt lat="49.82758" lon="2.14878">
        <ele>103.5</ele>
        <time>2023-02-22T14:16:09Z</time>
      </trkpt>
      <trkpt lat="49.82758" lon="2.14878">
        <ele>103.5</ele>
        <time>2023-02-22T14:16:10Z</time>
      </trkpt>
      <trkpt lat="49.82758" lon="2.14878">
        <ele>103.5</ele>
        <time>2023-02-22T14:16:11Z</time>
      </trkpt>
      <trkpt lat="49.82758" lon="2.14878">
        <ele>103.5</ele>
        <time>2023-02-22T14:16:12Z</time>
      </trkpt>
      <trkpt lat="49.82758" lon="2.14878">
        <ele>103.5</ele>
        <time>2023-02-22T14:16:13Z</time>
      </trkpt>
      <trkpt lat="49.82758" lon="2.14878">
        <ele>103.5</ele>
        <time>2023-02-22T14:16:14Z</time>
      </trkpt>
      <trkpt lat="49.82758" lon="2.14878">
        <ele>103.5</ele>
        <time>2023-02-22T14:16:15Z</time>
      </trkpt>
      <trkpt lat="49.82758" lon="2.14878">
        <ele>103.5</ele>
        <time>2023-02-22T14:16:16Z</time>
      </trkpt>
      <trkpt lat="49.82758" lon="2.14878">
        <ele>103.5</ele>
        <time>2023-02-22T14:16:17Z</time>
      </trkpt>
      <trkpt lat="49.82758" lon="2.14878">
        <ele>103.5</ele>
        <time>2023-02-22T14:16:18Z</time>
      </trkpt>
      <trkpt lat="49.82758" lon="2.14878">
        <ele>103.5</ele>
        <time>2023-02-22T14:16:19Z</time>
      </trkpt>
      <trkpt lat="49.82758" lon="2.14878">
        <ele>103.5</ele>
        <time>2023-02-22T14:16:20Z</time>
      </trkpt>
      <trkpt lat="49.82758" lon="2.14879">
        <ele>103.5</ele>
        <time>2023-02-22T14:16:21Z</time>
      </trkpt>
      <trkpt lat="49.82758" lon="2.14879">
        <ele>103.5</ele>
        <time>2023-02-22T14:16:22Z</time>
      </trkpt>
      <trkpt lat="49.82758" lon="2.14879">
        <ele>103.5</ele>
        <time>2023-02-22T14:16:23Z</time>
      </trkpt>
      <trkpt lat="49.82758" lon="2.14879">
        <ele>103.5</ele>
        <time>2023-02-22T14:16:24Z</time>
      </trkpt>
      <trkpt lat="49.82758" lon="2.14879">
        <ele>103.5</ele>
        <time>2023-02-22T14:16:25Z</time>
      </trkpt>
      <trkpt lat="49.82758" lon="2.14879">
        <ele>103.5</ele>
        <time>2023-02-22T14:16:26Z</time>
      </trkpt>
      <trkpt lat="49.82758" lon="2.14879">
        <ele>103.5</ele>
        <time>2023-02-22T14:16:27Z</time>
      </trkpt>
      <trkpt lat="49.82758" lon="2.14879">
        <ele>103.5</ele>
        <time>2023-02-22T14:16:28Z</time>
      </trkpt>
      <trkpt lat="49.82757" lon="2.14879">
        <ele>103.5</ele>
        <time>2023-02-22T14:16:29Z</time>
      </trkpt>
      <trkpt lat="49.82757" lon="2.14879">
        <ele>103.5</ele>
        <time>2023-02-22T14:16:30Z</time>
      </trkpt>
      <trkpt lat="49.82757" lon="2.14879">
        <ele>103.5</ele>
        <time>2023-02-22T14:16:31Z</time>
      </trkpt>
      <trkpt lat="49.82757" lon="2.14879">
        <ele>103.5</ele>
        <time>2023-02-22T14:16:32Z</time>
      </trkpt>
      <trkpt lat="49.82755" lon="2.14883">
        <ele>103.5</ele>
        <time>2023-02-22T14:16:33Z</time>
      </trkpt>
      <trkpt lat="49.82754" lon="2.14885">
        <ele>103.5</ele>
        <time>2023-02-22T14:16:34Z</time>
      </trkpt>
      <trkpt lat="49.82754" lon="2.14885">
        <ele>103.5</ele>
        <time>2023-02-22T14:16:35Z</time>
      </trkpt>
      <trkpt lat="49.82753" lon="2.14886">
        <ele>103.5</ele>
        <time>2023-02-22T14:16:36Z</time>
      </trkpt>
      <trkpt lat="49.82753" lon="2.14886">
        <ele>103.5</ele>
        <time>2023-02-22T14:16:37Z</time>
      </trkpt>
      <trkpt lat="49.82753" lon="2.14886">
        <ele>103.5</ele>
        <time>2023-02-22T14:16:38Z</time>
      </trkpt>
      <trkpt lat="49.82753" lon="2.14886">
        <ele>103.4</ele>
        <time>2023-02-22T14:16:39Z</time>
      </trkpt>
      <trkpt lat="49.82753" lon="2.14886">
        <ele>103.4</ele>
        <time>2023-02-22T14:16:40Z</time>
      </trkpt>
      <trkpt lat="49.82753" lon="2.14886">
        <ele>103.4</ele>
        <time>2023-02-22T14:16:41Z</time>
      </trkpt>
      <trkpt lat="49.82753" lon="2.14886">
        <ele>103.4</ele>
        <time>2023-02-22T14:16:42Z</time>
      </trkpt>
      <trkpt lat="49.82753" lon="2.14886">
        <ele>103.4</ele>
        <time>2023-02-22T14:16:43Z</time>
      </trkpt>
      <trkpt lat="49.82753" lon="2.14886">
        <ele>103.4</ele>
        <time>2023-02-22T14:16:44Z</time>
      </trkpt>
      <trkpt lat="49.82753" lon="2.14886">
        <ele>103.4</ele>
        <time>2023-02-22T14:16:45Z</time>
      </trkpt>
      <trkpt lat="49.82753" lon="2.14886">
        <ele>103.4</ele>
        <time>2023-02-22T14:16:46Z</time>
      </trkpt>
      <trkpt lat="49.82753" lon="2.14886">
        <ele>103.4</ele>
        <time>2023-02-22T14:16:47Z</time>
      </trkpt>
      <trkpt lat="49.82753" lon="2.14886">
        <ele>103.4</ele>
        <time>2023-02-22T14:16:48Z</time>
      </trkpt>
      <trkpt lat="49.82753" lon="2.14886">
        <ele>103.4</ele>
        <time>2023-02-22T14:16:49Z</time>
      </trkpt>
      <trkpt lat="49.82753" lon="2.14886">
        <ele>103.4</ele>
        <time>2023-02-22T14:16:50Z</time>
      </trkpt>
      <trkpt lat="49.82753" lon="2.14887">
        <ele>103.4</ele>
        <time>2023-02-22T14:16:51Z</time>
      </trkpt>
      <trkpt lat="49.82753" lon="2.14887">
        <ele>103.4</ele>
        <time>2023-02-22T14:16:52Z</time>
      </trkpt>
      <trkpt lat="49.82753" lon="2.14887">
        <ele>103.4</ele>
        <time>2023-02-22T14:16:53Z</time>
      </trkpt>
      <trkpt lat="49.82753" lon="2.14886">
        <ele>103.4</ele>
        <time>2023-02-22T14:16:54Z</time>
      </trkpt>
      <trkpt lat="49.82753" lon="2.14886">
        <ele>103.4</ele>
        <time>2023-02-22T14:16:55Z</time>
      </trkpt>
      <trkpt lat="49.82753" lon="2.14886">
        <ele>103.4</ele>
        <time>2023-02-22T14:16:56Z</time>
      </trkpt>
      <trkpt lat="49.82753" lon="2.14886">
        <ele>103.4</ele>
        <time>2023-02-22T14:16:57Z</time>
      </trkpt>
      <trkpt lat="49.82754" lon="2.14886">
        <ele>103.4</ele>
        <time>2023-02-22T14:16:58Z</time>
      </trkpt>
      <trkpt lat="49.82754" lon="2.14886">
        <ele>103.4</ele>
        <time>2023-02-22T14:16:59Z</time>
      </trkpt>
      <trkpt lat="49.82754" lon="2.14886">
        <ele>103.4</ele>
        <time>2023-02-22T14:17:00Z</time>
      </trkpt>
      <trkpt lat="49.82754" lon="2.14886">
        <ele>103.4</ele>
        <time>2023-02-22T14:17:01Z</time>
      </trkpt>
      <trkpt lat="49.82754" lon="2.14886">
        <ele>103.4</ele>
        <time>2023-02-22T14:17:02Z</time>
      </trkpt>
      <trkpt lat="49.82754" lon="2.14886">
        <ele>103.4</ele>
        <time>2023-02-22T14:17:03Z</time>
      </trkpt>
      <trkpt lat="49.82754" lon="2.14885">
        <ele>103.4</ele>
        <time>2023-02-22T14:17:04Z</time>
      </trkpt>
      <trkpt lat="49.82754" lon="2.14885">
        <ele>103.4</ele>
        <time>2023-02-22T14:17:05Z</time>
      </trkpt>
      <trkpt lat="49.82755" lon="2.14885">
        <ele>103.4</ele>
        <time>2023-02-22T14:17:06Z</time>
      </trkpt>
      <trkpt lat="49.82755" lon="2.14885">
        <ele>103.4</ele>
        <time>2023-02-22T14:17:07Z</time>
      </trkpt>
      <trkpt lat="49.82755" lon="2.14885">
        <ele>103.4</ele>
        <time>2023-02-22T14:17:08Z</time>
      </trkpt>
      <trkpt lat="49.82755" lon="2.14885">
        <ele>103.4</ele>
        <time>2023-02-22T14:17:09Z</time>
      </trkpt>
      <trkpt lat="49.82755" lon="2.14885">
        <ele>103.4</ele>
        <time>2023-02-22T14:17:10Z</time>
      </trkpt>
      <trkpt lat="49.82755" lon="2.14885">
        <ele>103.4</ele>
        <time>2023-02-22T14:17:11Z</time>
      </trkpt>
      <trkpt lat="49.82755" lon="2.14885">
        <ele>103.4</ele>
        <time>2023-02-22T14:17:12Z</time>
      </trkpt>
      <trkpt lat="49.82756" lon="2.14885">
        <ele>103.4</ele>
        <time>2023-02-22T14:17:13Z</time>
      </trkpt>
      <trkpt lat="49.82756" lon="2.14884">
        <ele>103.4</ele>
        <time>2023-02-22T14:17:14Z</time>
      </trkpt>
      <trkpt lat="49.82756" lon="2.14884">
        <ele>103.4</ele>
        <time>2023-02-22T14:17:15Z</time>
      </trkpt>
      <trkpt lat="49.82756" lon="2.14884">
        <ele>103.4</ele>
        <time>2023-02-22T14:17:16Z</time>
      </trkpt>
      <trkpt lat="49.82756" lon="2.14884">
        <ele>103.4</ele>
        <time>2023-02-22T14:17:17Z</time>
      </trkpt>
      <trkpt lat="49.82756" lon="2.14884">
        <ele>103.4</ele>
        <time>2023-02-22T14:17:18Z</time>
      </trkpt>
      <trkpt lat="49.82756" lon="2.14884">
        <ele>103.4</ele>
        <time>2023-02-22T14:17:19Z</time>
      </trkpt>
      <trkpt lat="49.82757" lon="2.14884">
        <ele>103.4</ele>
        <time>2023-02-22T14:17:20Z</time>
      </trkpt>
      <trkpt lat="49.82758" lon="2.14885">
        <ele>103.3</ele>
        <time>2023-02-22T14:17:21Z</time>
      </trkpt>
      <trkpt lat="49.82759" lon="2.14885">
        <ele>103.3</ele>
        <time>2023-02-22T14:17:22Z</time>
      </trkpt>
      <trkpt lat="49.8276" lon="2.14886">
        <ele>103.3</ele>
        <time>2023-02-22T14:17:23Z</time>
      </trkpt>
      <trkpt lat="49.8276" lon="2.14887">
        <ele>103.3</ele>
        <time>2023-02-22T14:17:24Z</time>
      </trkpt>
      <trkpt lat="49.82761" lon="2.14887">
        <ele>103.3</ele>
        <time>2023-02-22T14:17:25Z</time>
      </trkpt>
      <trkpt lat="49.82763" lon="2.14888">
        <ele>103.3</ele>
        <time>2023-02-22T14:17:26Z</time>
      </trkpt>
      <trkpt lat="49.82766" lon="2.14891">
        <ele>103.2</ele>
        <time>2023-02-22T14:17:28Z</time>
      </trkpt>
      <trkpt lat="49.82767" lon="2.14892">
        <ele>103.2</ele>
        <time>2023-02-22T14:17:29Z</time>
      </trkpt>
      <trkpt lat="49.8277" lon="2.14894">
        <ele>103.1</ele>
        <time>2023-02-22T14:17:30Z</time>
      </trkpt>
      <trkpt lat="49.8277" lon="2.14895">
        <ele>103.1</ele>
        <time>2023-02-22T14:17:31Z</time>
      </trkpt>
      <trkpt lat="49.82771" lon="2.14897">
        <ele>103.1</ele>
        <time>2023-02-22T14:17:32Z</time>
      </trkpt>
      <trkpt lat="49.82773" lon="2.14898">
        <ele>103.1</ele>
        <time>2023-02-22T14:17:33Z</time>
      </trkpt>
      <trkpt lat="49.82774" lon="2.14901">
        <ele>103</ele>
        <time>2023-02-22T14:17:34Z</time>
      </trkpt>
      <trkpt lat="49.82774" lon="2.14901">
        <ele>103</ele>
        <time>2023-02-22T14:17:36Z</time>
      </trkpt>
      <trkpt lat="49.82775" lon="2.14902">
        <ele>103</ele>
        <time>2023-02-22T14:17:37Z</time>
      </trkpt>
      <trkpt lat="49.82776" lon="2.14906">
        <ele>102.9</ele>
        <time>2023-02-22T14:17:38Z</time>
      </trkpt>
      <trkpt lat="49.82777" lon="2.14907">
        <ele>102.9</ele>
        <time>2023-02-22T14:17:39Z</time>
      </trkpt>
      <trkpt lat="49.82777" lon="2.1491">
        <ele>102.9</ele>
        <time>2023-02-22T14:17:40Z</time>
      </trkpt>
      <trkpt lat="49.82778" lon="2.14912">
        <ele>102.8</ele>
        <time>2023-02-22T14:17:41Z</time>
      </trkpt>
      <trkpt lat="49.82779" lon="2.14916">
        <ele>102.8</ele>
        <time>2023-02-22T14:17:42Z</time>
      </trkpt>
      <trkpt lat="49.8278" lon="2.14919">
        <ele>102.7</ele>
        <time>2023-02-22T14:17:44Z</time>
      </trkpt>
      <trkpt lat="49.82781" lon="2.14924">
        <ele>102.7</ele>
        <time>2023-02-22T14:17:45Z</time>
      </trkpt>
      <trkpt lat="49.82782" lon="2.14925">
        <ele>102.7</ele>
        <time>2023-02-22T14:17:46Z</time>
      </trkpt>
      <trkpt lat="49.82782" lon="2.14927">
        <ele>102.6</ele>
        <time>2023-02-22T14:17:48Z</time>
      </trkpt>
      <trkpt lat="49.82783" lon="2.14929">
        <ele>102.6</ele>
        <time>2023-02-22T14:17:49Z</time>
      </trkpt>
      <trkpt lat="49.82783" lon="2.14931">
        <ele>102.6</ele>
        <time>2023-02-22T14:17:50Z</time>
      </trkpt>
      <trkpt lat="49.82784" lon="2.14933">
        <ele>102.5</ele>
        <time>2023-02-22T14:17:51Z</time>
      </trkpt>
      <trkpt lat="49.82785" lon="2.14935">
        <ele>102.5</ele>
        <time>2023-02-22T14:17:52Z</time>
      </trkpt>
      <trkpt lat="49.82786" lon="2.14937">
        <ele>102.5</ele>
        <time>2023-02-22T14:17:53Z</time>
      </trkpt>
      <trkpt lat="49.82787" lon="2.14939">
        <ele>102.4</ele>
        <time>2023-02-22T14:17:54Z</time>
      </trkpt>
      <trkpt lat="49.82788" lon="2.14941">
        <ele>102.4</ele>
        <time>2023-02-22T14:17:55Z</time>
      </trkpt>
      <trkpt lat="49.82789" lon="2.14943">
        <ele>102.4</ele>
        <time>2023-02-22T14:17:56Z</time>
      </trkpt>
      <trkpt lat="49.8279" lon="2.14945">
        <ele>102.4</ele>
        <time>2023-02-22T14:17:57Z</time>
      </trkpt>
      <trkpt lat="49.82791" lon="2.14947">
        <ele>102.3</ele>
        <time>2023-02-22T14:17:59Z</time>
      </trkpt>
      <trkpt lat="49.82792" lon="2.14949">
        <ele>102.3</ele>
        <time>2023-02-22T14:18:00Z</time>
      </trkpt>
      <trkpt lat="49.82793" lon="2.1495">
        <ele>102.3</ele>
        <time>2023-02-22T14:18:01Z</time>
      </trkpt>
      <trkpt lat="49.82794" lon="2.14952">
        <ele>102.3</ele>
        <time>2023-02-22T14:18:02Z</time>
      </trkpt>
      <trkpt lat="49.82794" lon="2.14954">
        <ele>102.2</ele>
        <time>2023-02-22T14:18:03Z</time>
      </trkpt>
      <trkpt lat="49.82795" lon="2.14956">
        <ele>102.2</ele>
        <time>2023-02-22T14:18:05Z</time>
      </trkpt>
      <trkpt lat="49.82796" lon="2.14958">
        <ele>102.2</ele>
        <time>2023-02-22T14:18:06Z</time>
      </trkpt>
      <trkpt lat="49.82796" lon="2.1496">
        <ele>102.1</ele>
        <time>2023-02-22T14:18:07Z</time>
      </trkpt>
      <trkpt lat="49.82798" lon="2.14962">
        <ele>102.1</ele>
        <time>2023-02-22T14:18:08Z</time>
      </trkpt>
      <trkpt lat="49.82798" lon="2.14963">
        <ele>102.1</ele>
        <time>2023-02-22T14:18:09Z</time>
      </trkpt>
      <trkpt lat="49.82799" lon="2.14965">
        <ele>102.1</ele>
        <time>2023-02-22T14:18:10Z</time>
      </trkpt>
      <trkpt lat="49.82799" lon="2.14966">
        <ele>102.1</ele>
        <time>2023-02-22T14:18:11Z</time>
      </trkpt>
      <trkpt lat="49.828" lon="2.14967">
        <ele>102</ele>
        <time>2023-02-22T14:18:13Z</time>
      </trkpt>
      <trkpt lat="49.82801" lon="2.14969">
        <ele>102</ele>
        <time>2023-02-22T14:18:14Z</time>
      </trkpt>
      <trkpt lat="49.82802" lon="2.14972">
        <ele>102</ele>
        <time>2023-02-22T14:18:15Z</time>
      </trkpt>
      <trkpt lat="49.82803" lon="2.14973">
        <ele>102</ele>
        <time>2023-02-22T14:18:16Z</time>
      </trkpt>
      <trkpt lat="49.82804" lon="2.14975">
        <ele>101.9</ele>
        <time>2023-02-22T14:18:17Z</time>
      </trkpt>
      <trkpt lat="49.82805" lon="2.14976">
        <ele>101.9</ele>
        <time>2023-02-22T14:18:19Z</time>
      </trkpt>
      <trkpt lat="49.82805" lon="2.14979">
        <ele>101.9</ele>
        <time>2023-02-22T14:18:20Z</time>
      </trkpt>
      <trkpt lat="49.82806" lon="2.1498">
        <ele>101.9</ele>
        <time>2023-02-22T14:18:21Z</time>
      </trkpt>
      <trkpt lat="49.82807" lon="2.14981">
        <ele>101.8</ele>
        <time>2023-02-22T14:18:22Z</time>
      </trkpt>
      <trkpt lat="49.82808" lon="2.14983">
        <ele>101.8</ele>
        <time>2023-02-22T14:18:23Z</time>
      </trkpt>
      <trkpt lat="49.82809" lon="2.14984">
        <ele>101.8</ele>
        <time>2023-02-22T14:18:25Z</time>
      </trkpt>
      <trkpt lat="49.8281" lon="2.14986">
        <ele>101.8</ele>
        <time>2023-02-22T14:18:26Z</time>
      </trkpt>
      <trkpt lat="49.82811" lon="2.14987">
        <ele>101.8</ele>
        <time>2023-02-22T14:18:27Z</time>
      </trkpt>
      <trkpt lat="49.82812" lon="2.14989">
        <ele>101.7</ele>
        <time>2023-02-22T14:18:28Z</time>
      </trkpt>
      <trkpt lat="49.82812" lon="2.14991">
        <ele>101.7</ele>
        <time>2023-02-22T14:18:29Z</time>
      </trkpt>
      <trkpt lat="49.82813" lon="2.14993">
        <ele>101.7</ele>
        <time>2023-02-22T14:18:31Z</time>
      </trkpt>
      <trkpt lat="49.82813" lon="2.14995">
        <ele>101.7</ele>
        <time>2023-02-22T14:18:32Z</time>
      </trkpt>
      <trkpt lat="49.82814" lon="2.14998">
        <ele>101.6</ele>
        <time>2023-02-22T14:18:33Z</time>
      </trkpt>
      <trkpt lat="49.82814" lon="2.15">
        <ele>101.6</ele>
        <time>2023-02-22T14:18:34Z</time>
      </trkpt>
      <trkpt lat="49.82815" lon="2.15001">
        <ele>101.6</ele>
        <time>2023-02-22T14:18:35Z</time>
      </trkpt>
      <trkpt lat="49.82815" lon="2.15003">
        <ele>101.6</ele>
        <time>2023-02-22T14:18:36Z</time>
      </trkpt>
      <trkpt lat="49.82815" lon="2.15004">
        <ele>101.5</ele>
        <time>2023-02-22T14:18:37Z</time>
      </trkpt>
      <trkpt lat="49.82815" lon="2.15006">
        <ele>101.5</ele>
        <time>2023-02-22T14:18:38Z</time>
      </trkpt>
      <trkpt lat="49.82816" lon="2.15008">
        <ele>101.5</ele>
        <time>2023-02-22T14:18:40Z</time>
      </trkpt>
      <trkpt lat="49.82817" lon="2.1501">
        <ele>101.5</ele>
        <time>2023-02-22T14:18:41Z</time>
      </trkpt>
      <trkpt lat="49.82817" lon="2.15012">
        <ele>101.4</ele>
        <time>2023-02-22T14:18:42Z</time>
      </trkpt>
      <trkpt lat="49.82818" lon="2.15013">
        <ele>101.4</ele>
        <time>2023-02-22T14:18:43Z</time>
      </trkpt>
      <trkpt lat="49.82819" lon="2.15014">
        <ele>101.4</ele>
        <time>2023-02-22T14:18:44Z</time>
      </trkpt>
      <trkpt lat="49.82821" lon="2.15016">
        <ele>101.3</ele>
        <time>2023-02-22T14:18:45Z</time>
      </trkpt>
      <trkpt lat="49.82821" lon="2.15017">
        <ele>101.3</ele>
        <time>2023-02-22T14:18:46Z</time>
      </trkpt>
      <trkpt lat="49.82823" lon="2.15019">
        <ele>101.3</ele>
        <time>2023-02-22T14:18:47Z</time>
      </trkpt>
      <trkpt lat="49.82824" lon="2.15019">
        <ele>101.3</ele>
        <time>2023-02-22T14:18:49Z</time>
      </trkpt>
      <trkpt lat="49.82825" lon="2.1502">
        <ele>101.3</ele>
        <time>2023-02-22T14:18:50Z</time>
      </trkpt>
      <trkpt lat="49.82826" lon="2.15022">
        <ele>101.2</ele>
        <time>2023-02-22T14:18:51Z</time>
      </trkpt>
      <trkpt lat="49.82827" lon="2.15023">
        <ele>101.2</ele>
        <time>2023-02-22T14:18:52Z</time>
      </trkpt>
      <trkpt lat="49.82827" lon="2.15025">
        <ele>101.2</ele>
        <time>2023-02-22T14:18:53Z</time>
      </trkpt>
      <trkpt lat="49.82828" lon="2.15025">
        <ele>101.2</ele>
        <time>2023-02-22T14:18:54Z</time>
      </trkpt>
      <trkpt lat="49.82829" lon="2.15027">
        <ele>101.2</ele>
        <time>2023-02-22T14:18:55Z</time>
      </trkpt>
      <trkpt lat="49.82831" lon="2.15028">
        <ele>101.2</ele>
        <time>2023-02-22T14:18:57Z</time>
      </trkpt>
      <trkpt lat="49.82832" lon="2.15029">
        <ele>101.2</ele>
        <time>2023-02-22T14:18:59Z</time>
      </trkpt>
      <trkpt lat="49.82833" lon="2.1503">
        <ele>101.1</ele>
        <time>2023-02-22T14:19:00Z</time>
      </trkpt>
      <trkpt lat="49.82835" lon="2.15033">
        <ele>101.1</ele>
        <time>2023-02-22T14:19:01Z</time>
      </trkpt>
      <trkpt lat="49.82835" lon="2.15034">
        <ele>101.1</ele>
        <time>2023-02-22T14:19:02Z</time>
      </trkpt>
      <trkpt lat="49.82836" lon="2.15036">
        <ele>101.1</ele>
        <time>2023-02-22T14:19:03Z</time>
      </trkpt>
      <trkpt lat="49.82836" lon="2.15038">
        <ele>101.1</ele>
        <time>2023-02-22T14:19:05Z</time>
      </trkpt>
      <trkpt lat="49.82837" lon="2.1504">
        <ele>101.1</ele>
        <time>2023-02-22T14:19:06Z</time>
      </trkpt>
      <trkpt lat="49.82838" lon="2.15042">
        <ele>101.1</ele>
        <time>2023-02-22T14:19:07Z</time>
      </trkpt>
      <trkpt lat="49.82839" lon="2.15045">
        <ele>101</ele>
        <time>2023-02-22T14:19:08Z</time>
      </trkpt>
      <trkpt lat="49.8284" lon="2.15046">
        <ele>101</ele>
        <time>2023-02-22T14:19:09Z</time>
      </trkpt>
      <trkpt lat="49.8284" lon="2.15048">
        <ele>101</ele>
        <time>2023-02-22T14:19:10Z</time>
      </trkpt>
      <trkpt lat="49.82841" lon="2.15049">
        <ele>101</ele>
        <time>2023-02-22T14:19:11Z</time>
      </trkpt>
      <trkpt lat="49.82842" lon="2.1505">
        <ele>101</ele>
        <time>2023-02-22T14:19:12Z</time>
      </trkpt>
      <trkpt lat="49.82843" lon="2.15051">
        <ele>101</ele>
        <time>2023-02-22T14:19:14Z</time>
      </trkpt>
      <trkpt lat="49.82843" lon="2.15053">
        <ele>101</ele>
        <time>2023-02-22T14:19:15Z</time>
      </trkpt>
      <trkpt lat="49.82844" lon="2.15055">
        <ele>101</ele>
        <time>2023-02-22T14:19:16Z</time>
      </trkpt>
      <trkpt lat="49.82845" lon="2.15057">
        <ele>101</ele>
        <time>2023-02-22T14:19:17Z</time>
      </trkpt>
      <trkpt lat="49.82846" lon="2.15058">
        <ele>100.9</ele>
        <time>2023-02-22T14:19:18Z</time>
      </trkpt>
      <trkpt lat="49.82847" lon="2.15059">
        <ele>100.9</ele>
        <time>2023-02-22T14:19:19Z</time>
      </trkpt>
      <trkpt lat="49.82848" lon="2.15061">
        <ele>100.9</ele>
        <time>2023-02-22T14:19:20Z</time>
      </trkpt>
      <trkpt lat="49.82849" lon="2.15062">
        <ele>100.9</ele>
        <time>2023-02-22T14:19:21Z</time>
      </trkpt>
      <trkpt lat="49.8285" lon="2.15065">
        <ele>100.9</ele>
        <time>2023-02-22T14:19:23Z</time>
      </trkpt>
      <trkpt lat="49.8285" lon="2.15066">
        <ele>100.8</ele>
        <time>2023-02-22T14:19:24Z</time>
      </trkpt>
      <trkpt lat="49.82851" lon="2.15067">
        <ele>100.8</ele>
        <time>2023-02-22T14:19:25Z</time>
      </trkpt>
      <trkpt lat="49.82852" lon="2.15069">
        <ele>100.8</ele>
        <time>2023-02-22T14:19:26Z</time>
      </trkpt>
      <trkpt lat="49.82852" lon="2.1507">
        <ele>100.8</ele>
        <time>2023-02-22T14:19:27Z</time>
      </trkpt>
      <trkpt lat="49.82853" lon="2.15071">
        <ele>100.8</ele>
        <time>2023-02-22T14:19:28Z</time>
      </trkpt>
      <trkpt lat="49.82854" lon="2.15072">
        <ele>100.8</ele>
        <time>2023-02-22T14:19:29Z</time>
      </trkpt>
      <trkpt lat="49.82855" lon="2.15074">
        <ele>100.7</ele>
        <time>2023-02-22T14:19:30Z</time>
      </trkpt>
      <trkpt lat="49.82856" lon="2.15075">
        <ele>100.7</ele>
        <time>2023-02-22T14:19:32Z</time>
      </trkpt>
      <trkpt lat="49.82857" lon="2.15077">
        <ele>100.7</ele>
        <time>2023-02-22T14:19:33Z</time>
      </trkpt>
      <trkpt lat="49.82858" lon="2.15078">
        <ele>100.7</ele>
        <time>2023-02-22T14:19:34Z</time>
      </trkpt>
      <trkpt lat="49.82859" lon="2.15079">
        <ele>100.6</ele>
        <time>2023-02-22T14:19:35Z</time>
      </trkpt>
      <trkpt lat="49.8286" lon="2.15081">
        <ele>100.6</ele>
        <time>2023-02-22T14:19:36Z</time>
      </trkpt>
      <trkpt lat="49.82861" lon="2.15082">
        <ele>100.6</ele>
        <time>2023-02-22T14:19:37Z</time>
      </trkpt>
      <trkpt lat="49.82861" lon="2.15084">
        <ele>100.6</ele>
        <time>2023-02-22T14:19:38Z</time>
      </trkpt>
      <trkpt lat="49.82862" lon="2.15085">
        <ele>100.5</ele>
        <time>2023-02-22T14:19:39Z</time>
      </trkpt>
      <trkpt lat="49.82864" lon="2.15087">
        <ele>100.5</ele>
        <time>2023-02-22T14:19:41Z</time>
      </trkpt>
      <trkpt lat="49.82864" lon="2.15087">
        <ele>100.5</ele>
        <time>2023-02-22T14:19:42Z</time>
      </trkpt>
      <trkpt lat="49.82865" lon="2.15088">
        <ele>100.5</ele>
        <time>2023-02-22T14:19:43Z</time>
      </trkpt>
      <trkpt lat="49.82866" lon="2.15089">
        <ele>100.4</ele>
        <time>2023-02-22T14:19:44Z</time>
      </trkpt>
      <trkpt lat="49.82867" lon="2.15091">
        <ele>100.4</ele>
        <time>2023-02-22T14:19:45Z</time>
      </trkpt>
      <trkpt lat="49.82867" lon="2.15093">
        <ele>100.4</ele>
        <time>2023-02-22T14:19:46Z</time>
      </trkpt>
      <trkpt lat="49.82868" lon="2.15096">
        <ele>100.4</ele>
        <time>2023-02-22T14:19:47Z</time>
      </trkpt>
      <trkpt lat="49.82869" lon="2.15097">
        <ele>100.4</ele>
        <time>2023-02-22T14:19:48Z</time>
      </trkpt>
      <trkpt lat="49.82869" lon="2.15098">
        <ele>100.3</ele>
        <time>2023-02-22T14:19:49Z</time>
      </trkpt>
      <trkpt lat="49.8287" lon="2.15101">
        <ele>100.3</ele>
        <time>2023-02-22T14:19:51Z</time>
      </trkpt>
      <trkpt lat="49.8287" lon="2.15102">
        <ele>100.3</ele>
        <time>2023-02-22T14:19:52Z</time>
      </trkpt>
      <trkpt lat="49.8287" lon="2.15103">
        <ele>100.3</ele>
        <time>2023-02-22T14:19:53Z</time>
      </trkpt>
      <trkpt lat="49.82872" lon="2.15106">
        <ele>100.2</ele>
        <time>2023-02-22T14:19:54Z</time>
      </trkpt>
      <trkpt lat="49.82872" lon="2.15108">
        <ele>100.2</ele>
        <time>2023-02-22T14:19:55Z</time>
      </trkpt>
      <trkpt lat="49.82873" lon="2.15109">
        <ele>100.2</ele>
        <time>2023-02-22T14:19:57Z</time>
      </trkpt>
      <trkpt lat="49.82873" lon="2.1511">
        <ele>100.2</ele>
        <time>2023-02-22T14:19:58Z</time>
      </trkpt>
      <trkpt lat="49.82874" lon="2.15112">
        <ele>100.2</ele>
        <time>2023-02-22T14:19:59Z</time>
      </trkpt>
      <trkpt lat="49.82875" lon="2.15115">
        <ele>100.1</ele>
        <time>2023-02-22T14:20:00Z</time>
      </trkpt>
      <trkpt lat="49.82875" lon="2.15116">
        <ele>100.1</ele>
        <time>2023-02-22T14:20:01Z</time>
      </trkpt>
      <trkpt lat="49.82875" lon="2.15117">
        <ele>100.1</ele>
        <time>2023-02-22T14:20:02Z</time>
      </trkpt>
      <trkpt lat="49.82876" lon="2.1512">
        <ele>100.1</ele>
        <time>2023-02-22T14:20:04Z</time>
      </trkpt>
      <trkpt lat="49.82877" lon="2.15121">
        <ele>100.1</ele>
        <time>2023-02-22T14:20:05Z</time>
      </trkpt>
      <trkpt lat="49.82877" lon="2.15122">
        <ele>100</ele>
        <time>2023-02-22T14:20:06Z</time>
      </trkpt>
      <trkpt lat="49.82878" lon="2.15124">
        <ele>100</ele>
        <time>2023-02-22T14:20:07Z</time>
      </trkpt>
      <trkpt lat="49.82878" lon="2.15126">
        <ele>100</ele>
        <time>2023-02-22T14:20:08Z</time>
      </trkpt>
      <trkpt lat="49.82879" lon="2.15129">
        <ele>100</ele>
        <time>2023-02-22T14:20:09Z</time>
      </trkpt>
      <trkpt lat="49.82879" lon="2.1513">
        <ele>99.9</ele>
        <time>2023-02-22T14:20:11Z</time>
      </trkpt>
      <trkpt lat="49.8288" lon="2.15131">
        <ele>99.9</ele>
        <time>2023-02-22T14:20:12Z</time>
      </trkpt>
      <trkpt lat="49.8288" lon="2.15133">
        <ele>99.9</ele>
        <time>2023-02-22T14:20:13Z</time>
      </trkpt>
      <trkpt lat="49.82881" lon="2.15135">
        <ele>99.9</ele>
        <time>2023-02-22T14:20:14Z</time>
      </trkpt>
      <trkpt lat="49.82881" lon="2.15136">
        <ele>99.9</ele>
        <time>2023-02-22T14:20:15Z</time>
      </trkpt>
      <trkpt lat="49.82882" lon="2.1514">
        <ele>99.8</ele>
        <time>2023-02-22T14:20:16Z</time>
      </trkpt>
      <trkpt lat="49.82882" lon="2.15141">
        <ele>99.8</ele>
        <time>2023-02-22T14:20:17Z</time>
      </trkpt>
      <trkpt lat="49.82882" lon="2.15142">
        <ele>99.8</ele>
        <time>2023-02-22T14:20:18Z</time>
      </trkpt>
      <trkpt lat="49.82883" lon="2.15144">
        <ele>99.8</ele>
        <time>2023-02-22T14:20:19Z</time>
      </trkpt>
      <trkpt lat="49.82883" lon="2.15145">
        <ele>99.7</ele>
        <time>2023-02-22T14:20:20Z</time>
      </trkpt>
      <trkpt lat="49.82884" lon="2.15147">
        <ele>99.7</ele>
        <time>2023-02-22T14:20:22Z</time>
      </trkpt>
      <trkpt lat="49.82884" lon="2.15148">
        <ele>99.7</ele>
        <time>2023-02-22T14:20:23Z</time>
      </trkpt>
      <trkpt lat="49.82885" lon="2.1515">
        <ele>99.7</ele>
        <time>2023-02-22T14:20:24Z</time>
      </trkpt>
      <trkpt lat="49.82885" lon="2.15151">
        <ele>99.7</ele>
        <time>2023-02-22T14:20:25Z</time>
      </trkpt>
      <trkpt lat="49.82887" lon="2.15154">
        <ele>99.6</ele>
        <time>2023-02-22T14:20:26Z</time>
      </trkpt>
      <trkpt lat="49.82887" lon="2.15155">
        <ele>99.6</ele>
        <time>2023-02-22T14:20:27Z</time>
      </trkpt>
      <trkpt lat="49.82888" lon="2.15156">
        <ele>99.6</ele>
        <time>2023-02-22T14:20:28Z</time>
      </trkpt>
      <trkpt lat="49.82889" lon="2.15159">
        <ele>99.5</ele>
        <time>2023-02-22T14:20:29Z</time>
      </trkpt>
      <trkpt lat="49.8289" lon="2.15161">
        <ele>99.5</ele>
        <time>2023-02-22T14:20:31Z</time>
      </trkpt>
      <trkpt lat="49.82891" lon="2.15162">
        <ele>99.5</ele>
        <time>2023-02-22T14:20:32Z</time>
      </trkpt>
      <trkpt lat="49.82891" lon="2.15163">
        <ele>99.5</ele>
        <time>2023-02-22T14:20:33Z</time>
      </trkpt>
      <trkpt lat="49.82892" lon="2.15165">
        <ele>99.5</ele>
        <time>2023-02-22T14:20:34Z</time>
      </trkpt>
      <trkpt lat="49.82894" lon="2.15168">
        <ele>99.4</ele>
        <time>2023-02-22T14:20:36Z</time>
      </trkpt>
      <trkpt lat="49.82894" lon="2.1517">
        <ele>99.4</ele>
        <time>2023-02-22T14:20:37Z</time>
      </trkpt>
      <trkpt lat="49.82895" lon="2.15171">
        <ele>99.4</ele>
        <time>2023-02-22T14:20:38Z</time>
      </trkpt>
      <trkpt lat="49.82895" lon="2.15173">
        <ele>99.3</ele>
        <time>2023-02-22T14:20:39Z</time>
      </trkpt>
      <trkpt lat="49.82896" lon="2.15175">
        <ele>99.3</ele>
        <time>2023-02-22T14:20:41Z</time>
      </trkpt>
      <trkpt lat="49.82897" lon="2.15177">
        <ele>99.3</ele>
        <time>2023-02-22T14:20:42Z</time>
      </trkpt>
      <trkpt lat="49.82897" lon="2.15178">
        <ele>99.3</ele>
        <time>2023-02-22T14:20:43Z</time>
      </trkpt>
      <trkpt lat="49.82898" lon="2.1518">
        <ele>99.2</ele>
        <time>2023-02-22T14:20:44Z</time>
      </trkpt>
      <trkpt lat="49.82899" lon="2.15181">
        <ele>99.2</ele>
        <time>2023-02-22T14:20:45Z</time>
      </trkpt>
      <trkpt lat="49.829" lon="2.15184">
        <ele>99.2</ele>
        <time>2023-02-22T14:20:46Z</time>
      </trkpt>
      <trkpt lat="49.82901" lon="2.15185">
        <ele>99.1</ele>
        <time>2023-02-22T14:20:47Z</time>
      </trkpt>
      <trkpt lat="49.82901" lon="2.15186">
        <ele>99.1</ele>
        <time>2023-02-22T14:20:48Z</time>
      </trkpt>
      <trkpt lat="49.82902" lon="2.15188">
        <ele>99.1</ele>
        <time>2023-02-22T14:20:49Z</time>
      </trkpt>
      <trkpt lat="49.82903" lon="2.15189">
        <ele>99.1</ele>
        <time>2023-02-22T14:20:50Z</time>
      </trkpt>
      <trkpt lat="49.82903" lon="2.15191">
        <ele>99.1</ele>
        <time>2023-02-22T14:20:52Z</time>
      </trkpt>
      <trkpt lat="49.82904" lon="2.15192">
        <ele>99.1</ele>
        <time>2023-02-22T14:20:53Z</time>
      </trkpt>
      <trkpt lat="49.82905" lon="2.15193">
        <ele>99</ele>
        <time>2023-02-22T14:20:54Z</time>
      </trkpt>
      <trkpt lat="49.82905" lon="2.15195">
        <ele>99</ele>
        <time>2023-02-22T14:20:55Z</time>
      </trkpt>
      <trkpt lat="49.82907" lon="2.15197">
        <ele>99</ele>
        <time>2023-02-22T14:20:56Z</time>
      </trkpt>
      <trkpt lat="49.82907" lon="2.15199">
        <ele>99</ele>
        <time>2023-02-22T14:20:57Z</time>
      </trkpt>
      <trkpt lat="49.82908" lon="2.152">
        <ele>99</ele>
        <time>2023-02-22T14:20:58Z</time>
      </trkpt>
      <trkpt lat="49.82909" lon="2.15202">
        <ele>98.9</ele>
        <time>2023-02-22T14:20:59Z</time>
      </trkpt>
      <trkpt lat="49.8291" lon="2.15204">
        <ele>98.9</ele>
        <time>2023-02-22T14:21:01Z</time>
      </trkpt>
      <trkpt lat="49.82911" lon="2.15207">
        <ele>98.9</ele>
        <time>2023-02-22T14:21:02Z</time>
      </trkpt>
      <trkpt lat="49.82912" lon="2.15208">
        <ele>98.9</ele>
        <time>2023-02-22T14:21:03Z</time>
      </trkpt>
      <trkpt lat="49.82912" lon="2.15208">
        <ele>98.8</ele>
        <time>2023-02-22T14:21:04Z</time>
      </trkpt>
      <trkpt lat="49.82913" lon="2.1521">
        <ele>98.8</ele>
        <time>2023-02-22T14:21:05Z</time>
      </trkpt>
      <trkpt lat="49.82914" lon="2.15213">
        <ele>98.8</ele>
        <time>2023-02-22T14:21:06Z</time>
      </trkpt>
      <trkpt lat="49.82915" lon="2.15215">
        <ele>98.8</ele>
        <time>2023-02-22T14:21:07Z</time>
      </trkpt>
      <trkpt lat="49.82916" lon="2.15216">
        <ele>98.7</ele>
        <time>2023-02-22T14:21:08Z</time>
      </trkpt>
      <trkpt lat="49.82917" lon="2.15218">
        <ele>98.7</ele>
        <time>2023-02-22T14:21:09Z</time>
      </trkpt>
      <trkpt lat="49.82919" lon="2.15223">
        <ele>98.7</ele>
        <time>2023-02-22T14:21:11Z</time>
      </trkpt>
      <trkpt lat="49.8292" lon="2.15225">
        <ele>98.6</ele>
        <time>2023-02-22T14:21:13Z</time>
      </trkpt>
      <trkpt lat="49.8292" lon="2.15226">
        <ele>98.6</ele>
        <time>2023-02-22T14:21:14Z</time>
      </trkpt>
      <trkpt lat="49.82921" lon="2.15228">
        <ele>98.6</ele>
        <time>2023-02-22T14:21:15Z</time>
      </trkpt>
      <trkpt lat="49.82922" lon="2.15232">
        <ele>98.5</ele>
        <time>2023-02-22T14:21:16Z</time>
      </trkpt>
      <trkpt lat="49.82922" lon="2.15233">
        <ele>98.5</ele>
        <time>2023-02-22T14:21:17Z</time>
      </trkpt>
      <trkpt lat="49.82923" lon="2.15235">
        <ele>98.5</ele>
        <time>2023-02-22T14:21:18Z</time>
      </trkpt>
      <trkpt lat="49.82924" lon="2.15237">
        <ele>98.5</ele>
        <time>2023-02-22T14:21:19Z</time>
      </trkpt>
      <trkpt lat="49.82925" lon="2.15241">
        <ele>98.4</ele>
        <time>2023-02-22T14:21:20Z</time>
      </trkpt>
      <trkpt lat="49.82926" lon="2.15242">
        <ele>98.4</ele>
        <time>2023-02-22T14:21:21Z</time>
      </trkpt>
      <trkpt lat="49.82927" lon="2.15245">
        <ele>98.4</ele>
        <time>2023-02-22T14:21:22Z</time>
      </trkpt>
      <trkpt lat="49.82927" lon="2.15246">
        <ele>98.3</ele>
        <time>2023-02-22T14:21:23Z</time>
      </trkpt>
      <trkpt lat="49.82928" lon="2.15247">
        <ele>98.3</ele>
        <time>2023-02-22T14:21:24Z</time>
      </trkpt>
      <trkpt lat="49.82928" lon="2.15248">
        <ele>98.3</ele>
        <time>2023-02-22T14:21:26Z</time>
      </trkpt>
      <trkpt lat="49.8293" lon="2.15251">
        <ele>98.3</ele>
        <time>2023-02-22T14:21:27Z</time>
      </trkpt>
      <trkpt lat="49.82931" lon="2.15253">
        <ele>98.2</ele>
        <time>2023-02-22T14:21:28Z</time>
      </trkpt>
      <trkpt lat="49.82932" lon="2.15254">
        <ele>98.2</ele>
        <time>2023-02-22T14:21:29Z</time>
      </trkpt>
      <trkpt lat="49.82932" lon="2.15256">
        <ele>98.2</ele>
        <time>2023-02-22T14:21:30Z</time>
      </trkpt>
      <trkpt lat="49.82934" lon="2.15258">
        <ele>98.2</ele>
        <time>2023-02-22T14:21:32Z</time>
      </trkpt>
      <trkpt lat="49.82934" lon="2.15259">
        <ele>98.2</ele>
        <time>2023-02-22T14:21:33Z</time>
      </trkpt>
      <trkpt lat="49.82935" lon="2.15262">
        <ele>98.2</ele>
        <time>2023-02-22T14:21:34Z</time>
      </trkpt>
      <trkpt lat="49.82935" lon="2.15263">
        <ele>98.2</ele>
        <time>2023-02-22T14:21:35Z</time>
      </trkpt>
      <trkpt lat="49.82936" lon="2.15264">
        <ele>97.7</ele>
        <time>2023-02-22T14:21:36Z</time>
      </trkpt>
      <trkpt lat="49.82937" lon="2.15266">
        <ele>97.6</ele>
        <time>2023-02-22T14:21:37Z</time>
      </trkpt>
      <trkpt lat="49.82938" lon="2.15267">
        <ele>97.6</ele>
        <time>2023-02-22T14:21:38Z</time>
      </trkpt>
      <trkpt lat="49.82939" lon="2.1527">
        <ele>97.5</ele>
        <time>2023-02-22T14:21:39Z</time>
      </trkpt>
      <trkpt lat="49.8294" lon="2.1527">
        <ele>97.5</ele>
        <time>2023-02-22T14:21:41Z</time>
      </trkpt>
      <trkpt lat="49.8294" lon="2.15271">
        <ele>97.5</ele>
        <time>2023-02-22T14:21:42Z</time>
      </trkpt>
      <trkpt lat="49.82942" lon="2.15273">
        <ele>97.4</ele>
        <time>2023-02-22T14:21:43Z</time>
      </trkpt>
      <trkpt lat="49.82943" lon="2.15274">
        <ele>97.4</ele>
        <time>2023-02-22T14:21:44Z</time>
      </trkpt>
      <trkpt lat="49.82943" lon="2.15274">
        <ele>97.3</ele>
        <time>2023-02-22T14:21:45Z</time>
      </trkpt>
      <trkpt lat="49.82945" lon="2.15276">
        <ele>97.3</ele>
        <time>2023-02-22T14:21:46Z</time>
      </trkpt>
      <trkpt lat="49.82946" lon="2.15276">
        <ele>97.2</ele>
        <time>2023-02-22T14:21:48Z</time>
      </trkpt>
      <trkpt lat="49.82947" lon="2.15277">
        <ele>97.2</ele>
        <time>2023-02-22T14:21:49Z</time>
      </trkpt>
      <trkpt lat="49.82949" lon="2.15277">
        <ele>97.2</ele>
        <time>2023-02-22T14:21:50Z</time>
      </trkpt>
      <trkpt lat="49.82951" lon="2.15278">
        <ele>97.1</ele>
        <time>2023-02-22T14:21:51Z</time>
      </trkpt>
      <trkpt lat="49.82952" lon="2.15278">
        <ele>97.1</ele>
        <time>2023-02-22T14:21:52Z</time>
      </trkpt>
      <trkpt lat="49.82952" lon="2.15278">
        <ele>97</ele>
        <time>2023-02-22T14:21:53Z</time>
      </trkpt>
      <trkpt lat="49.82953" lon="2.15278">
        <ele>97</ele>
        <time>2023-02-22T14:21:55Z</time>
      </trkpt>
      <trkpt lat="49.82954" lon="2.15278">
        <ele>97</ele>
        <time>2023-02-22T14:21:56Z</time>
      </trkpt>
      <trkpt lat="49.82956" lon="2.15279">
        <ele>96.9</ele>
        <time>2023-02-22T14:21:57Z</time>
      </trkpt>
      <trkpt lat="49.82958" lon="2.1528">
        <ele>96.9</ele>
        <time>2023-02-22T14:21:58Z</time>
      </trkpt>
      <trkpt lat="49.82959" lon="2.15281">
        <ele>96.8</ele>
        <time>2023-02-22T14:21:59Z</time>
      </trkpt>
      <trkpt lat="49.8296" lon="2.15282">
        <ele>96.8</ele>
        <time>2023-02-22T14:22:01Z</time>
      </trkpt>
      <trkpt lat="49.82961" lon="2.15282">
        <ele>96.8</ele>
        <time>2023-02-22T14:22:02Z</time>
      </trkpt>
      <trkpt lat="49.82962" lon="2.15283">
        <ele>96.7</ele>
        <time>2023-02-22T14:22:04Z</time>
      </trkpt>
      <trkpt lat="49.82963" lon="2.15284">
        <ele>96.7</ele>
        <time>2023-02-22T14:22:05Z</time>
      </trkpt>
      <trkpt lat="49.82964" lon="2.15285">
        <ele>96.7</ele>
        <time>2023-02-22T14:22:06Z</time>
      </trkpt>
      <trkpt lat="49.82965" lon="2.15286">
        <ele>96.6</ele>
        <time>2023-02-22T14:22:07Z</time>
      </trkpt>
      <trkpt lat="49.82966" lon="2.15287">
        <ele>96.6</ele>
        <time>2023-02-22T14:22:08Z</time>
      </trkpt>
      <trkpt lat="49.82967" lon="2.15288">
        <ele>96.6</ele>
        <time>2023-02-22T14:22:09Z</time>
      </trkpt>
      <trkpt lat="49.82969" lon="2.15289">
        <ele>96.5</ele>
        <time>2023-02-22T14:22:11Z</time>
      </trkpt>
      <trkpt lat="49.8297" lon="2.15291">
        <ele>96.5</ele>
        <time>2023-02-22T14:22:12Z</time>
      </trkpt>
      <trkpt lat="49.8297" lon="2.15291">
        <ele>96.5</ele>
        <time>2023-02-22T14:22:13Z</time>
      </trkpt>
      <trkpt lat="49.82971" lon="2.15292">
        <ele>96.5</ele>
        <time>2023-02-22T14:22:14Z</time>
      </trkpt>
      <trkpt lat="49.82972" lon="2.15293">
        <ele>96.4</ele>
        <time>2023-02-22T14:22:15Z</time>
      </trkpt>
      <trkpt lat="49.82974" lon="2.15294">
        <ele>96.4</ele>
        <time>2023-02-22T14:22:16Z</time>
      </trkpt>
      <trkpt lat="49.82976" lon="2.15295">
        <ele>96.3</ele>
        <time>2023-02-22T14:22:18Z</time>
      </trkpt>
      <trkpt lat="49.82977" lon="2.15296">
        <ele>96.3</ele>
        <time>2023-02-22T14:22:19Z</time>
      </trkpt>
      <trkpt lat="49.82977" lon="2.15296">
        <ele>96.3</ele>
        <time>2023-02-22T14:22:20Z</time>
      </trkpt>
      <trkpt lat="49.82979" lon="2.15297">
        <ele>96.3</ele>
        <time>2023-02-22T14:22:21Z</time>
      </trkpt>
      <trkpt lat="49.8298" lon="2.15297">
        <ele>96.2</ele>
        <time>2023-02-22T14:22:23Z</time>
      </trkpt>
      <trkpt lat="49.82981" lon="2.15298">
        <ele>96.2</ele>
        <time>2023-02-22T14:22:24Z</time>
      </trkpt>
      <trkpt lat="49.82982" lon="2.15298">
        <ele>96.2</ele>
        <time>2023-02-22T14:22:25Z</time>
      </trkpt>
      <trkpt lat="49.82983" lon="2.15299">
        <ele>96.2</ele>
        <time>2023-02-22T14:22:26Z</time>
      </trkpt>
      <trkpt lat="49.82984" lon="2.153">
        <ele>96.1</ele>
        <time>2023-02-22T14:22:27Z</time>
      </trkpt>
      <trkpt lat="49.82984" lon="2.153">
        <ele>96.1</ele>
        <time>2023-02-22T14:22:28Z</time>
      </trkpt>
      <trkpt lat="49.82986" lon="2.15301">
        <ele>96.1</ele>
        <time>2023-02-22T14:22:30Z</time>
      </trkpt>
      <trkpt lat="49.82987" lon="2.15301">
        <ele>96.1</ele>
        <time>2023-02-22T14:22:31Z</time>
      </trkpt>
      <trkpt lat="49.82989" lon="2.15302">
        <ele>96</ele>
        <time>2023-02-22T14:22:32Z</time>
      </trkpt>
      <trkpt lat="49.8299" lon="2.15302">
        <ele>96</ele>
        <time>2023-02-22T14:22:33Z</time>
      </trkpt>
      <trkpt lat="49.82991" lon="2.15303">
        <ele>95.9</ele>
        <time>2023-02-22T14:22:34Z</time>
      </trkpt>
      <trkpt lat="49.82993" lon="2.15303">
        <ele>95.9</ele>
        <time>2023-02-22T14:22:35Z</time>
      </trkpt>
      <trkpt lat="49.82994" lon="2.15303">
        <ele>95.9</ele>
        <time>2023-02-22T14:22:36Z</time>
      </trkpt>
      <trkpt lat="49.82995" lon="2.15304">
        <ele>95.8</ele>
        <time>2023-02-22T14:22:37Z</time>
      </trkpt>
      <trkpt lat="49.82996" lon="2.15304">
        <ele>95.8</ele>
        <time>2023-02-22T14:22:39Z</time>
      </trkpt>
      <trkpt lat="49.82997" lon="2.15305">
        <ele>95.8</ele>
        <time>2023-02-22T14:22:40Z</time>
      </trkpt>
      <trkpt lat="49.82998" lon="2.15305">
        <ele>95.8</ele>
        <time>2023-02-22T14:22:41Z</time>
      </trkpt>
      <trkpt lat="49.83" lon="2.15306">
        <ele>95.7</ele>
        <time>2023-02-22T14:22:42Z</time>
      </trkpt>
      <trkpt lat="49.83001" lon="2.15307">
        <ele>95.7</ele>
        <time>2023-02-22T14:22:43Z</time>
      </trkpt>
      <trkpt lat="49.83003" lon="2.15308">
        <ele>95.6</ele>
        <time>2023-02-22T14:22:44Z</time>
      </trkpt>
      <trkpt lat="49.83004" lon="2.15309">
        <ele>95.6</ele>
        <time>2023-02-22T14:22:45Z</time>
      </trkpt>
      <trkpt lat="49.83005" lon="2.15309">
        <ele>95.6</ele>
        <time>2023-02-22T14:22:46Z</time>
      </trkpt>
      <trkpt lat="49.83006" lon="2.15309">
        <ele>95.5</ele>
        <time>2023-02-22T14:22:47Z</time>
      </trkpt>
      <trkpt lat="49.83007" lon="2.1531">
        <ele>95.5</ele>
        <time>2023-02-22T14:22:49Z</time>
      </trkpt>
      <trkpt lat="49.83008" lon="2.1531">
        <ele>95.5</ele>
        <time>2023-02-22T14:22:50Z</time>
      </trkpt>
      <trkpt lat="49.83009" lon="2.15311">
        <ele>95.4</ele>
        <time>2023-02-22T14:22:51Z</time>
      </trkpt>
      <trkpt lat="49.83011" lon="2.15311">
        <ele>95.4</ele>
        <time>2023-02-22T14:22:52Z</time>
      </trkpt>
      <trkpt lat="49.83012" lon="2.15312">
        <ele>95.4</ele>
        <time>2023-02-22T14:22:53Z</time>
      </trkpt>
      <trkpt lat="49.83013" lon="2.15312">
        <ele>95.4</ele>
        <time>2023-02-22T14:22:54Z</time>
      </trkpt>
      <trkpt lat="49.83014" lon="2.15313">
        <ele>95.3</ele>
        <time>2023-02-22T14:22:55Z</time>
      </trkpt>
      <trkpt lat="49.83015" lon="2.15313">
        <ele>95.3</ele>
        <time>2023-02-22T14:22:56Z</time>
      </trkpt>
      <trkpt lat="49.83016" lon="2.15313">
        <ele>95.3</ele>
        <time>2023-02-22T14:22:58Z</time>
      </trkpt>
      <trkpt lat="49.83017" lon="2.15313">
        <ele>95.3</ele>
        <time>2023-02-22T14:22:59Z</time>
      </trkpt>
      <trkpt lat="49.83019" lon="2.15313">
        <ele>95.2</ele>
        <time>2023-02-22T14:23:00Z</time>
      </trkpt>
      <trkpt lat="49.8302" lon="2.15313">
        <ele>95.2</ele>
        <time>2023-02-22T14:23:01Z</time>
      </trkpt>
      <trkpt lat="49.83021" lon="2.15313">
        <ele>95.2</ele>
        <time>2023-02-22T14:23:02Z</time>
      </trkpt>
      <trkpt lat="49.83022" lon="2.15313">
        <ele>95.2</ele>
        <time>2023-02-22T14:23:03Z</time>
      </trkpt>
      <trkpt lat="49.83023" lon="2.15314">
        <ele>95.1</ele>
        <time>2023-02-22T14:23:04Z</time>
      </trkpt>
      <trkpt lat="49.83024" lon="2.15314">
        <ele>95.1</ele>
        <time>2023-02-22T14:23:05Z</time>
      </trkpt>
      <trkpt lat="49.83026" lon="2.15314">
        <ele>95.1</ele>
        <time>2023-02-22T14:23:07Z</time>
      </trkpt>
      <trkpt lat="49.83026" lon="2.15314">
        <ele>95.1</ele>
        <time>2023-02-22T14:23:08Z</time>
      </trkpt>
      <trkpt lat="49.83027" lon="2.15314">
        <ele>95.1</ele>
        <time>2023-02-22T14:23:09Z</time>
      </trkpt>
      <trkpt lat="49.83029" lon="2.15315">
        <ele>95</ele>
        <time>2023-02-22T14:23:10Z</time>
      </trkpt>
      <trkpt lat="49.8303" lon="2.15314">
        <ele>95</ele>
        <time>2023-02-22T14:23:11Z</time>
      </trkpt>
      <trkpt lat="49.83032" lon="2.15314">
        <ele>95</ele>
        <time>2023-02-22T14:23:12Z</time>
      </trkpt>
      <trkpt lat="49.83033" lon="2.15314">
        <ele>95</ele>
        <time>2023-02-22T14:23:13Z</time>
      </trkpt>
      <trkpt lat="49.83035" lon="2.15314">
        <ele>94.9</ele>
        <time>2023-02-22T14:23:14Z</time>
      </trkpt>
      <trkpt lat="49.83037" lon="2.15313">
        <ele>94.9</ele>
        <time>2023-02-22T14:23:15Z</time>
      </trkpt>
      <trkpt lat="49.83038" lon="2.15313">
        <ele>94.9</ele>
        <time>2023-02-22T14:23:17Z</time>
      </trkpt>
      <trkpt lat="49.8304" lon="2.15313">
        <ele>94.9</ele>
        <time>2023-02-22T14:23:18Z</time>
      </trkpt>
      <trkpt lat="49.83041" lon="2.15313">
        <ele>94.8</ele>
        <time>2023-02-22T14:23:19Z</time>
      </trkpt>
      <trkpt lat="49.83043" lon="2.15314">
        <ele>94.8</ele>
        <time>2023-02-22T14:23:20Z</time>
      </trkpt>
      <trkpt lat="49.83045" lon="2.15315">
        <ele>94.8</ele>
        <time>2023-02-22T14:23:21Z</time>
      </trkpt>
      <trkpt lat="49.83046" lon="2.15315">
        <ele>94.8</ele>
        <time>2023-02-22T14:23:22Z</time>
      </trkpt>
      <trkpt lat="49.83047" lon="2.15315">
        <ele>94.7</ele>
        <time>2023-02-22T14:23:23Z</time>
      </trkpt>
      <trkpt lat="49.83049" lon="2.15315">
        <ele>94.7</ele>
        <time>2023-02-22T14:23:24Z</time>
      </trkpt>
      <trkpt lat="49.83051" lon="2.15316">
        <ele>94.7</ele>
        <time>2023-02-22T14:23:25Z</time>
      </trkpt>
      <trkpt lat="49.83052" lon="2.15316">
        <ele>94.7</ele>
        <time>2023-02-22T14:23:26Z</time>
      </trkpt>
      <trkpt lat="49.83053" lon="2.15316">
        <ele>94.7</ele>
        <time>2023-02-22T14:23:27Z</time>
      </trkpt>
      <trkpt lat="49.83055" lon="2.15317">
        <ele>94.6</ele>
        <time>2023-02-22T14:23:29Z</time>
      </trkpt>
      <trkpt lat="49.83056" lon="2.15317">
        <ele>94.6</ele>
        <time>2023-02-22T14:23:30Z</time>
      </trkpt>
      <trkpt lat="49.83057" lon="2.15317">
        <ele>94.6</ele>
        <time>2023-02-22T14:23:31Z</time>
      </trkpt>
      <trkpt lat="49.83059" lon="2.15318">
        <ele>94.6</ele>
        <time>2023-02-22T14:23:32Z</time>
      </trkpt>
      <trkpt lat="49.8306" lon="2.15318">
        <ele>94.5</ele>
        <time>2023-02-22T14:23:33Z</time>
      </trkpt>
      <trkpt lat="49.83062" lon="2.15319">
        <ele>94.5</ele>
        <time>2023-02-22T14:23:34Z</time>
      </trkpt>
      <trkpt lat="49.83063" lon="2.1532">
        <ele>94.5</ele>
        <time>2023-02-22T14:23:35Z</time>
      </trkpt>
      <trkpt lat="49.83063" lon="2.1532">
        <ele>94.5</ele>
        <time>2023-02-22T14:23:36Z</time>
      </trkpt>
      <trkpt lat="49.83065" lon="2.15321">
        <ele>94.4</ele>
        <time>2023-02-22T14:23:37Z</time>
      </trkpt>
      <trkpt lat="49.83066" lon="2.15322">
        <ele>94.4</ele>
        <time>2023-02-22T14:23:39Z</time>
      </trkpt>
      <trkpt lat="49.83068" lon="2.15322">
        <ele>94.4</ele>
        <time>2023-02-22T14:23:40Z</time>
      </trkpt>
      <trkpt lat="49.83069" lon="2.15323">
        <ele>94.4</ele>
        <time>2023-02-22T14:23:41Z</time>
      </trkpt>
      <trkpt lat="49.83071" lon="2.15323">
        <ele>94.3</ele>
        <time>2023-02-22T14:23:42Z</time>
      </trkpt>
      <trkpt lat="49.83072" lon="2.15324">
        <ele>94.3</ele>
        <time>2023-02-22T14:23:43Z</time>
      </trkpt>
      <trkpt lat="49.83074" lon="2.15325">
        <ele>94.3</ele>
        <time>2023-02-22T14:23:44Z</time>
      </trkpt>
      <trkpt lat="49.83076" lon="2.15326">
        <ele>94.2</ele>
        <time>2023-02-22T14:23:46Z</time>
      </trkpt>
      <trkpt lat="49.83077" lon="2.15326">
        <ele>94.2</ele>
        <time>2023-02-22T14:23:47Z</time>
      </trkpt>
      <trkpt lat="49.83079" lon="2.15327">
        <ele>94.2</ele>
        <time>2023-02-22T14:23:48Z</time>
      </trkpt>
      <trkpt lat="49.8308" lon="2.15327">
        <ele>94.2</ele>
        <time>2023-02-22T14:23:49Z</time>
      </trkpt>
      <trkpt lat="49.83081" lon="2.15327">
        <ele>94.1</ele>
        <time>2023-02-22T14:23:50Z</time>
      </trkpt>
      <trkpt lat="49.83084" lon="2.15328">
        <ele>94.1</ele>
        <time>2023-02-22T14:23:51Z</time>
      </trkpt>
      <trkpt lat="49.83085" lon="2.15328">
        <ele>94.1</ele>
        <time>2023-02-22T14:23:52Z</time>
      </trkpt>
      <trkpt lat="49.83086" lon="2.15328">
        <ele>94.1</ele>
        <time>2023-02-22T14:23:54Z</time>
      </trkpt>
      <trkpt lat="49.83088" lon="2.15328">
        <ele>94</ele>
        <time>2023-02-22T14:23:55Z</time>
      </trkpt>
      <trkpt lat="49.83089" lon="2.15329">
        <ele>94</ele>
        <time>2023-02-22T14:23:56Z</time>
      </trkpt>
      <trkpt lat="49.83091" lon="2.15329">
        <ele>94</ele>
        <time>2023-02-22T14:23:57Z</time>
      </trkpt>
      <trkpt lat="49.83092" lon="2.15329">
        <ele>94</ele>
        <time>2023-02-22T14:23:58Z</time>
      </trkpt>
      <trkpt lat="49.83093" lon="2.15329">
        <ele>93.9</ele>
        <time>2023-02-22T14:23:59Z</time>
      </trkpt>
      <trkpt lat="49.83095" lon="2.15329">
        <ele>93.9</ele>
        <time>2023-02-22T14:24:01Z</time>
      </trkpt>
      <trkpt lat="49.83098" lon="2.15329">
        <ele>93.8</ele>
        <time>2023-02-22T14:24:02Z</time>
      </trkpt>
      <trkpt lat="49.83101" lon="2.15329">
        <ele>93.8</ele>
        <time>2023-02-22T14:24:04Z</time>
      </trkpt>
      <trkpt lat="49.83102" lon="2.15329">
        <ele>93.8</ele>
        <time>2023-02-22T14:24:05Z</time>
      </trkpt>
      <trkpt lat="49.83104" lon="2.15329">
        <ele>93.7</ele>
        <time>2023-02-22T14:24:07Z</time>
      </trkpt>
      <trkpt lat="49.83105" lon="2.1533">
        <ele>93.7</ele>
        <time>2023-02-22T14:24:08Z</time>
      </trkpt>
      <trkpt lat="49.83106" lon="2.1533">
        <ele>93.7</ele>
        <time>2023-02-22T14:24:09Z</time>
      </trkpt>
      <trkpt lat="49.83108" lon="2.15331">
        <ele>93.7</ele>
        <time>2023-02-22T14:24:10Z</time>
      </trkpt>
      <trkpt lat="49.83109" lon="2.15331">
        <ele>93.6</ele>
        <time>2023-02-22T14:24:11Z</time>
      </trkpt>
      <trkpt lat="49.83111" lon="2.15332">
        <ele>93.6</ele>
        <time>2023-02-22T14:24:12Z</time>
      </trkpt>
      <trkpt lat="49.83113" lon="2.15333">
        <ele>93.6</ele>
        <time>2023-02-22T14:24:14Z</time>
      </trkpt>
      <trkpt lat="49.83114" lon="2.15333">
        <ele>93.6</ele>
        <time>2023-02-22T14:24:15Z</time>
      </trkpt>
      <trkpt lat="49.83115" lon="2.15333">
        <ele>93.5</ele>
        <time>2023-02-22T14:24:16Z</time>
      </trkpt>
      <trkpt lat="49.83116" lon="2.15333">
        <ele>93.5</ele>
        <time>2023-02-22T14:24:17Z</time>
      </trkpt>
      <trkpt lat="49.83118" lon="2.15333">
        <ele>93.5</ele>
        <time>2023-02-22T14:24:18Z</time>
      </trkpt>
      <trkpt lat="49.83119" lon="2.15334">
        <ele>93.5</ele>
        <time>2023-02-22T14:24:19Z</time>
      </trkpt>
      <trkpt lat="49.8312" lon="2.15334">
        <ele>93.5</ele>
        <time>2023-02-22T14:24:20Z</time>
      </trkpt>
      <trkpt lat="49.83121" lon="2.15334">
        <ele>93.5</ele>
        <time>2023-02-22T14:24:21Z</time>
      </trkpt>
      <trkpt lat="49.83122" lon="2.15334">
        <ele>93.5</ele>
        <time>2023-02-22T14:24:22Z</time>
      </trkpt>
      <trkpt lat="49.83123" lon="2.15334">
        <ele>93.5</ele>
        <time>2023-02-22T14:24:23Z</time>
      </trkpt>
      <trkpt lat="49.83124" lon="2.15335">
        <ele>93.4</ele>
        <time>2023-02-22T14:24:24Z</time>
      </trkpt>
      <trkpt lat="49.83125" lon="2.15335">
        <ele>93.4</ele>
        <time>2023-02-22T14:24:25Z</time>
      </trkpt>
      <trkpt lat="49.83126" lon="2.15335">
        <ele>93.4</ele>
        <time>2023-02-22T14:24:27Z</time>
      </trkpt>
      <trkpt lat="49.83127" lon="2.15335">
        <ele>93.4</ele>
        <time>2023-02-22T14:24:28Z</time>
      </trkpt>
      <trkpt lat="49.83128" lon="2.15335">
        <ele>93.4</ele>
        <time>2023-02-22T14:24:29Z</time>
      </trkpt>
      <trkpt lat="49.83129" lon="2.15335">
        <ele>93.4</ele>
        <time>2023-02-22T14:24:30Z</time>
      </trkpt>
      <trkpt lat="49.8313" lon="2.15335">
        <ele>93.4</ele>
        <time>2023-02-22T14:24:31Z</time>
      </trkpt>
      <trkpt lat="49.8313" lon="2.15336">
        <ele>93.4</ele>
        <time>2023-02-22T14:24:32Z</time>
      </trkpt>
      <trkpt lat="49.83131" lon="2.15336">
        <ele>93.4</ele>
        <time>2023-02-22T14:24:33Z</time>
      </trkpt>
      <trkpt lat="49.83132" lon="2.15336">
        <ele>93.4</ele>
        <time>2023-02-22T14:24:35Z</time>
      </trkpt>
      <trkpt lat="49.83133" lon="2.15336">
        <ele>93.4</ele>
        <time>2023-02-22T14:24:36Z</time>
      </trkpt>
      <trkpt lat="49.83136" lon="2.15336">
        <ele>93.4</ele>
        <time>2023-02-22T14:24:37Z</time>
      </trkpt>
      <trkpt lat="49.83137" lon="2.15336">
        <ele>93.4</ele>
        <time>2023-02-22T14:24:38Z</time>
      </trkpt>
      <trkpt lat="49.83138" lon="2.15335">
        <ele>93.4</ele>
        <time>2023-02-22T14:24:40Z</time>
      </trkpt>
      <trkpt lat="49.8314" lon="2.15335">
        <ele>93.5</ele>
        <time>2023-02-22T14:24:42Z</time>
      </trkpt>
      <trkpt lat="49.83141" lon="2.15335">
        <ele>93.5</ele>
        <time>2023-02-22T14:24:43Z</time>
      </trkpt>
      <trkpt lat="49.83142" lon="2.15335">
        <ele>93.5</ele>
        <time>2023-02-22T14:24:44Z</time>
      </trkpt>
      <trkpt lat="49.83144" lon="2.15335">
        <ele>93.5</ele>
        <time>2023-02-22T14:24:45Z</time>
      </trkpt>
      <trkpt lat="49.83145" lon="2.15335">
        <ele>93.6</ele>
        <time>2023-02-22T14:24:47Z</time>
      </trkpt>
      <trkpt lat="49.83148" lon="2.15335">
        <ele>93.7</ele>
        <time>2023-02-22T14:24:48Z</time>
      </trkpt>
      <trkpt lat="49.83148" lon="2.15335">
        <ele>93.7</ele>
        <time>2023-02-22T14:24:49Z</time>
      </trkpt>
      <trkpt lat="49.83149" lon="2.15334">
        <ele>93.7</ele>
        <time>2023-02-22T14:24:50Z</time>
      </trkpt>
      <trkpt lat="49.83151" lon="2.15334">
        <ele>93.8</ele>
        <time>2023-02-22T14:24:51Z</time>
      </trkpt>
      <trkpt lat="49.83152" lon="2.15333">
        <ele>93.8</ele>
        <time>2023-02-22T14:24:52Z</time>
      </trkpt>
      <trkpt lat="49.83154" lon="2.15332">
        <ele>93.9</ele>
        <time>2023-02-22T14:24:53Z</time>
      </trkpt>
      <trkpt lat="49.83154" lon="2.15331">
        <ele>93.9</ele>
        <time>2023-02-22T14:24:54Z</time>
      </trkpt>
      <trkpt lat="49.83156" lon="2.15331">
        <ele>94</ele>
        <time>2023-02-22T14:24:55Z</time>
      </trkpt>
      <trkpt lat="49.83157" lon="2.1533">
        <ele>94</ele>
        <time>2023-02-22T14:24:56Z</time>
      </trkpt>
      <trkpt lat="49.83158" lon="2.15329">
        <ele>94.1</ele>
        <time>2023-02-22T14:24:58Z</time>
      </trkpt>
      <trkpt lat="49.83158" lon="2.15329">
        <ele>94.1</ele>
        <time>2023-02-22T14:24:59Z</time>
      </trkpt>
      <trkpt lat="49.83159" lon="2.15328">
        <ele>94.1</ele>
        <time>2023-02-22T14:25:00Z</time>
      </trkpt>
      <trkpt lat="49.8316" lon="2.15327">
        <ele>94.2</ele>
        <time>2023-02-22T14:25:01Z</time>
      </trkpt>
      <trkpt lat="49.83161" lon="2.15327">
        <ele>94.2</ele>
        <time>2023-02-22T14:25:02Z</time>
      </trkpt>
      <trkpt lat="49.83162" lon="2.15325">
        <ele>94.3</ele>
        <time>2023-02-22T14:25:03Z</time>
      </trkpt>
      <trkpt lat="49.83163" lon="2.15324">
        <ele>94.3</ele>
        <time>2023-02-22T14:25:04Z</time>
      </trkpt>
      <trkpt lat="49.83163" lon="2.15323">
        <ele>94.6</ele>
        <time>2023-02-22T14:25:05Z</time>
      </trkpt>
      <trkpt lat="49.83164" lon="2.15322">
        <ele>94.6</ele>
        <time>2023-02-22T14:25:06Z</time>
      </trkpt>
      <trkpt lat="49.83165" lon="2.15322">
        <ele>94.6</ele>
        <time>2023-02-22T14:25:07Z</time>
      </trkpt>
      <trkpt lat="49.83166" lon="2.15321">
        <ele>94.6</ele>
        <time>2023-02-22T14:25:09Z</time>
      </trkpt>
      <trkpt lat="49.83166" lon="2.15321">
        <ele>94.6</ele>
        <time>2023-02-22T14:25:10Z</time>
      </trkpt>
      <trkpt lat="49.83167" lon="2.1532">
        <ele>94.6</ele>
        <time>2023-02-22T14:25:11Z</time>
      </trkpt>
      <trkpt lat="49.83168" lon="2.15319">
        <ele>94.7</ele>
        <time>2023-02-22T14:25:12Z</time>
      </trkpt>
      <trkpt lat="49.83169" lon="2.15318">
        <ele>94.7</ele>
        <time>2023-02-22T14:25:13Z</time>
      </trkpt>
      <trkpt lat="49.8317" lon="2.15318">
        <ele>94.7</ele>
        <time>2023-02-22T14:25:14Z</time>
      </trkpt>
      <trkpt lat="49.83171" lon="2.15317">
        <ele>94.8</ele>
        <time>2023-02-22T14:25:15Z</time>
      </trkpt>
      <trkpt lat="49.83171" lon="2.15316">
        <ele>94.9</ele>
        <time>2023-02-22T14:25:16Z</time>
      </trkpt>
      <trkpt lat="49.83173" lon="2.15315">
        <ele>95</ele>
        <time>2023-02-22T14:25:18Z</time>
      </trkpt>
      <trkpt lat="49.83173" lon="2.15315">
        <ele>95</ele>
        <time>2023-02-22T14:25:19Z</time>
      </trkpt>
      <trkpt lat="49.83173" lon="2.15315">
        <ele>95</ele>
        <time>2023-02-22T14:25:20Z</time>
      </trkpt>
      <trkpt lat="49.83174" lon="2.15314">
        <ele>95.1</ele>
        <time>2023-02-22T14:25:22Z</time>
      </trkpt>
      <trkpt lat="49.83175" lon="2.15311">
        <ele>95.1</ele>
        <time>2023-02-22T14:25:24Z</time>
      </trkpt>
      <trkpt lat="49.83175" lon="2.1531">
        <ele>95.2</ele>
        <time>2023-02-22T14:25:26Z</time>
      </trkpt>
      <trkpt lat="49.83174" lon="2.15309">
        <ele>95.2</ele>
        <time>2023-02-22T14:25:27Z</time>
      </trkpt>
      <trkpt lat="49.83174" lon="2.15308">
        <ele>95.3</ele>
        <time>2023-02-22T14:25:29Z</time>
      </trkpt>
      <trkpt lat="49.83173" lon="2.15309">
        <ele>95.3</ele>
        <time>2023-02-22T14:25:31Z</time>
      </trkpt>
      <trkpt lat="49.83173" lon="2.15309">
        <ele>95.3</ele>
        <time>2023-02-22T14:25:32Z</time>
      </trkpt>
      <trkpt lat="49.83173" lon="2.15309">
        <ele>95.3</ele>
        <time>2023-02-22T14:25:34Z</time>
      </trkpt>
      <trkpt lat="49.83173" lon="2.15309">
        <ele>95.3</ele>
        <time>2023-02-22T14:25:35Z</time>
      </trkpt>
      <trkpt lat="49.83173" lon="2.15309">
        <ele>95.4</ele>
        <time>2023-02-22T14:25:36Z</time>
      </trkpt>
      <trkpt lat="49.83173" lon="2.15309">
        <ele>95.4</ele>
        <time>2023-02-22T14:25:37Z</time>
      </trkpt>
      <trkpt lat="49.83172" lon="2.1531">
        <ele>95.5</ele>
        <time>2023-02-22T14:25:39Z</time>
      </trkpt>
      <trkpt lat="49.83172" lon="2.1531">
        <ele>95.5</ele>
        <time>2023-02-22T14:25:40Z</time>
      </trkpt>
      <trkpt lat="49.83172" lon="2.1531">
        <ele>95.5</ele>
        <time>2023-02-22T14:25:41Z</time>
      </trkpt>
      <trkpt lat="49.83172" lon="2.1531">
        <ele>95.5</ele>
        <time>2023-02-22T14:25:42Z</time>
      </trkpt>
      <trkpt lat="49.83172" lon="2.15311">
        <ele>95.5</ele>
        <time>2023-02-22T14:25:43Z</time>
      </trkpt>
      <trkpt lat="49.83172" lon="2.15311">
        <ele>95.6</ele>
        <time>2023-02-22T14:25:44Z</time>
      </trkpt>
      <trkpt lat="49.83172" lon="2.15311">
        <ele>95.6</ele>
        <time>2023-02-22T14:25:45Z</time>
      </trkpt>
      <trkpt lat="49.83172" lon="2.15311">
        <ele>95.6</ele>
        <time>2023-02-22T14:25:46Z</time>
      </trkpt>
      <trkpt lat="49.83172" lon="2.15311">
        <ele>95.6</ele>
        <time>2023-02-22T14:25:47Z</time>
      </trkpt>
      <trkpt lat="49.83172" lon="2.15311">
        <ele>95.6</ele>
        <time>2023-02-22T14:25:48Z</time>
      </trkpt>
      <trkpt lat="49.83172" lon="2.15311">
        <ele>95.6</ele>
        <time>2023-02-22T14:25:49Z</time>
      </trkpt>
      <trkpt lat="49.83172" lon="2.15311">
        <ele>95.7</ele>
        <time>2023-02-22T14:25:50Z</time>
      </trkpt>
      <trkpt lat="49.83172" lon="2.15311">
        <ele>95.7</ele>
        <time>2023-02-22T14:25:51Z</time>
      </trkpt>
      <trkpt lat="49.83172" lon="2.15311">
        <ele>95.7</ele>
        <time>2023-02-22T14:25:52Z</time>
      </trkpt>
      <trkpt lat="49.83172" lon="2.15311">
        <ele>95.7</ele>
        <time>2023-02-22T14:25:53Z</time>
      </trkpt>
      <trkpt lat="49.83172" lon="2.15311">
        <ele>95.7</ele>
        <time>2023-02-22T14:25:54Z</time>
      </trkpt>
      <trkpt lat="49.83172" lon="2.15311">
        <ele>95.7</ele>
        <time>2023-02-22T14:25:55Z</time>
      </trkpt>
      <trkpt lat="49.83172" lon="2.15311">
        <ele>95.7</ele>
        <time>2023-02-22T14:25:56Z</time>
      </trkpt>
      <trkpt lat="49.83172" lon="2.15311">
        <ele>95.7</ele>
        <time>2023-02-22T14:25:57Z</time>
      </trkpt>
      <trkpt lat="49.83172" lon="2.15311">
        <ele>95.7</ele>
        <time>2023-02-22T14:25:58Z</time>
      </trkpt>
      <trkpt lat="49.83172" lon="2.15311">
        <ele>95.7</ele>
        <time>2023-02-22T14:25:59Z</time>
      </trkpt>
      <trkpt lat="49.83172" lon="2.15311">
        <ele>95.7</ele>
        <time>2023-02-22T14:26:00Z</time>
      </trkpt>
      <trkpt lat="49.83172" lon="2.15311">
        <ele>95.7</ele>
        <time>2023-02-22T14:26:01Z</time>
      </trkpt>
      <trkpt lat="49.83172" lon="2.15311">
        <ele>95.7</ele>
        <time>2023-02-22T14:26:02Z</time>
      </trkpt>
      <trkpt lat="49.83172" lon="2.15311">
        <ele>95.7</ele>
        <time>2023-02-22T14:26:03Z</time>
      </trkpt>
      <trkpt lat="49.83172" lon="2.15311">
        <ele>95.7</ele>
        <time>2023-02-22T14:26:04Z</time>
      </trkpt>
      <trkpt lat="49.83172" lon="2.15311">
        <ele>95.7</ele>
        <time>2023-02-22T14:26:05Z</time>
      </trkpt>
      <trkpt lat="49.83172" lon="2.15311">
        <ele>95.7</ele>
        <time>2023-02-22T14:26:06Z</time>
      </trkpt>
      <trkpt lat="49.83172" lon="2.15311">
        <ele>95.7</ele>
        <time>2023-02-22T14:26:07Z</time>
      </trkpt>
      <trkpt lat="49.83172" lon="2.15311">
        <ele>95.7</ele>
        <time>2023-02-22T14:26:08Z</time>
      </trkpt>
      <trkpt lat="49.83172" lon="2.15311">
        <ele>95.7</ele>
        <time>2023-02-22T14:26:09Z</time>
      </trkpt>
      <trkpt lat="49.83172" lon="2.15311">
        <ele>95.7</ele>
        <time>2023-02-22T14:26:10Z</time>
      </trkpt>
      <trkpt lat="49.83172" lon="2.15311">
        <ele>95.7</ele>
        <time>2023-02-22T14:26:11Z</time>
      </trkpt>
      <trkpt lat="49.83172" lon="2.15311">
        <ele>95.7</ele>
        <time>2023-02-22T14:26:12Z</time>
      </trkpt>
      <trkpt lat="49.83172" lon="2.15311">
        <ele>95.7</ele>
        <time>2023-02-22T14:26:13Z</time>
      </trkpt>
      <trkpt lat="49.83172" lon="2.15311">
        <ele>95.7</ele>
        <time>2023-02-22T14:26:14Z</time>
      </trkpt>
      <trkpt lat="49.83172" lon="2.15311">
        <ele>95.7</ele>
        <time>2023-02-22T14:26:15Z</time>
      </trkpt>
      <trkpt lat="49.83172" lon="2.15311">
        <ele>95.7</ele>
        <time>2023-02-22T14:26:16Z</time>
      </trkpt>
      <trkpt lat="49.83172" lon="2.15311">
        <ele>95.7</ele>
        <time>2023-02-22T14:26:17Z</time>
      </trkpt>
      <trkpt lat="49.83173" lon="2.15311">
        <ele>95.7</ele>
        <time>2023-02-22T14:26:18Z</time>
      </trkpt>
      <trkpt lat="49.83174" lon="2.1531">
        <ele>95.8</ele>
        <time>2023-02-22T14:26:19Z</time>
      </trkpt>
      <trkpt lat="49.83174" lon="2.1531">
        <ele>95.8</ele>
        <time>2023-02-22T14:26:20Z</time>
      </trkpt>
      <trkpt lat="49.83174" lon="2.15309">
        <ele>95.8</ele>
        <time>2023-02-22T14:26:21Z</time>
      </trkpt>
      <trkpt lat="49.83175" lon="2.15309">
        <ele>95.9</ele>
        <time>2023-02-22T14:26:22Z</time>
      </trkpt>
      <trkpt lat="49.83175" lon="2.15309">
        <ele>95.9</ele>
        <time>2023-02-22T14:26:23Z</time>
      </trkpt>
      <trkpt lat="49.83175" lon="2.15309">
        <ele>95.9</ele>
        <time>2023-02-22T14:26:24Z</time>
      </trkpt>
      <trkpt lat="49.83175" lon="2.15309">
        <ele>95.9</ele>
        <time>2023-02-22T14:26:25Z</time>
      </trkpt>
      <trkpt lat="49.83175" lon="2.15309">
        <ele>95.9</ele>
        <time>2023-02-22T14:26:26Z</time>
      </trkpt>
      <trkpt lat="49.83175" lon="2.15309">
        <ele>95.9</ele>
        <time>2023-02-22T14:26:27Z</time>
      </trkpt>
      <trkpt lat="49.83175" lon="2.15309">
        <ele>95.9</ele>
        <time>2023-02-22T14:26:28Z</time>
      </trkpt>
      <trkpt lat="49.83175" lon="2.15309">
        <ele>95.9</ele>
        <time>2023-02-22T14:26:29Z</time>
      </trkpt>
      <trkpt lat="49.83175" lon="2.15309">
        <ele>95.9</ele>
        <time>2023-02-22T14:26:30Z</time>
      </trkpt>
      <trkpt lat="49.83175" lon="2.15309">
        <ele>95.9</ele>
        <time>2023-02-22T14:26:31Z</time>
      </trkpt>
      <trkpt lat="49.83175" lon="2.15309">
        <ele>95.9</ele>
        <time>2023-02-22T14:26:32Z</time>
      </trkpt>
      <trkpt lat="49.83175" lon="2.15309">
        <ele>95.9</ele>
        <time>2023-02-22T14:26:33Z</time>
      </trkpt>
      <trkpt lat="49.83175" lon="2.15309">
        <ele>95.9</ele>
        <time>2023-02-22T14:26:34Z</time>
      </trkpt>
      <trkpt lat="49.83175" lon="2.15309">
        <ele>95.9</ele>
        <time>2023-02-22T14:26:35Z</time>
      </trkpt>
      <trkpt lat="49.83175" lon="2.15309">
        <ele>95.9</ele>
        <time>2023-02-22T14:26:36Z</time>
      </trkpt>
      <trkpt lat="49.83175" lon="2.15309">
        <ele>95.9</ele>
        <time>2023-02-22T14:26:37Z</time>
      </trkpt>
      <trkpt lat="49.83175" lon="2.15308">
        <ele>95.9</ele>
        <time>2023-02-22T14:26:38Z</time>
      </trkpt>
      <trkpt lat="49.83175" lon="2.15307">
        <ele>95.9</ele>
        <time>2023-02-22T14:26:39Z</time>
      </trkpt>
      <trkpt lat="49.83175" lon="2.15307">
        <ele>95.9</ele>
        <time>2023-02-22T14:26:40Z</time>
      </trkpt>
      <trkpt lat="49.83175" lon="2.15307">
        <ele>95.9</ele>
        <time>2023-02-22T14:26:41Z</time>
      </trkpt>
      <trkpt lat="49.83176" lon="2.15308">
        <ele>96</ele>
        <time>2023-02-22T14:26:42Z</time>
      </trkpt>
      <trkpt lat="49.83176" lon="2.15308">
        <ele>96</ele>
        <time>2023-02-22T14:26:43Z</time>
      </trkpt>
      <trkpt lat="49.83176" lon="2.15308">
        <ele>96</ele>
        <time>2023-02-22T14:26:44Z</time>
      </trkpt>
      <trkpt lat="49.83176" lon="2.15308">
        <ele>96</ele>
        <time>2023-02-22T14:26:45Z</time>
      </trkpt>
      <trkpt lat="49.83176" lon="2.15309">
        <ele>96</ele>
        <time>2023-02-22T14:26:46Z</time>
      </trkpt>
      <trkpt lat="49.83176" lon="2.15309">
        <ele>96</ele>
        <time>2023-02-22T14:26:47Z</time>
      </trkpt>
      <trkpt lat="49.83176" lon="2.15309">
        <ele>96</ele>
        <time>2023-02-22T14:26:48Z</time>
      </trkpt>
      <trkpt lat="49.83176" lon="2.15309">
        <ele>96</ele>
        <time>2023-02-22T14:26:49Z</time>
      </trkpt>
      <trkpt lat="49.83176" lon="2.15309">
        <ele>96</ele>
        <time>2023-02-22T14:26:50Z</time>
      </trkpt>
      <trkpt lat="49.83176" lon="2.15309">
        <ele>96</ele>
        <time>2023-02-22T14:26:51Z</time>
      </trkpt>
      <trkpt lat="49.83176" lon="2.15309">
        <ele>96</ele>
        <time>2023-02-22T14:26:52Z</time>
      </trkpt>
      <trkpt lat="49.83176" lon="2.15309">
        <ele>96</ele>
        <time>2023-02-22T14:26:53Z</time>
      </trkpt>
      <trkpt lat="49.83176" lon="2.15309">
        <ele>96</ele>
        <time>2023-02-22T14:26:54Z</time>
      </trkpt>
      <trkpt lat="49.83176" lon="2.15309">
        <ele>96</ele>
        <time>2023-02-22T14:26:55Z</time>
      </trkpt>
      <trkpt lat="49.83176" lon="2.15309">
        <ele>96</ele>
        <time>2023-02-22T14:26:56Z</time>
      </trkpt>
      <trkpt lat="49.83176" lon="2.15309">
        <ele>96</ele>
        <time>2023-02-22T14:26:57Z</time>
      </trkpt>
      <trkpt lat="49.83176" lon="2.15309">
        <ele>96</ele>
        <time>2023-02-22T14:26:58Z</time>
      </trkpt>
      <trkpt lat="49.83176" lon="2.15309">
        <ele>96</ele>
        <time>2023-02-22T14:26:59Z</time>
      </trkpt>
      <trkpt lat="49.83176" lon="2.15309">
        <ele>96</ele>
        <time>2023-02-22T14:27:00Z</time>
      </trkpt>
      <trkpt lat="49.83176" lon="2.15309">
        <ele>96</ele>
        <time>2023-02-22T14:27:01Z</time>
      </trkpt>
      <trkpt lat="49.83176" lon="2.15309">
        <ele>96</ele>
        <time>2023-02-22T14:27:02Z</time>
      </trkpt>
      <trkpt lat="49.83176" lon="2.15309">
        <ele>96</ele>
        <time>2023-02-22T14:27:03Z</time>
      </trkpt>
      <trkpt lat="49.83176" lon="2.15309">
        <ele>96</ele>
        <time>2023-02-22T14:27:04Z</time>
      </trkpt>
      <trkpt lat="49.83176" lon="2.15309">
        <ele>96</ele>
        <time>2023-02-22T14:27:05Z</time>
      </trkpt>
      <trkpt lat="49.83176" lon="2.15309">
        <ele>96</ele>
        <time>2023-02-22T14:27:06Z</time>
      </trkpt>
      <trkpt lat="49.83176" lon="2.15309">
        <ele>96</ele>
        <time>2023-02-22T14:27:07Z</time>
      </trkpt>
      <trkpt lat="49.83176" lon="2.15309">
        <ele>96</ele>
        <time>2023-02-22T14:27:08Z</time>
      </trkpt>
      <trkpt lat="49.83176" lon="2.15309">
        <ele>96</ele>
        <time>2023-02-22T14:27:09Z</time>
      </trkpt>
      <trkpt lat="49.83176" lon="2.15309">
        <ele>96</ele>
        <time>2023-02-22T14:27:10Z</time>
      </trkpt>
      <trkpt lat="49.83176" lon="2.15309">
        <ele>96</ele>
        <time>2023-02-22T14:27:11Z</time>
      </trkpt>
      <trkpt lat="49.83176" lon="2.15309">
        <ele>96</ele>
        <time>2023-02-22T14:27:12Z</time>
      </trkpt>
      <trkpt lat="49.83176" lon="2.15309">
        <ele>96</ele>
        <time>2023-02-22T14:27:13Z</time>
      </trkpt>
      <trkpt lat="49.83176" lon="2.15309">
        <ele>96</ele>
        <time>2023-02-22T14:27:14Z</time>
      </trkpt>
      <trkpt lat="49.83176" lon="2.15309">
        <ele>96</ele>
        <time>2023-02-22T14:27:15Z</time>
      </trkpt>
      <trkpt lat="49.83176" lon="2.15309">
        <ele>96</ele>
        <time>2023-02-22T14:27:16Z</time>
      </trkpt>
      <trkpt lat="49.83176" lon="2.15309">
        <ele>96</ele>
        <time>2023-02-22T14:27:17Z</time>
      </trkpt>
      <trkpt lat="49.83176" lon="2.15309">
        <ele>96</ele>
        <time>2023-02-22T14:27:18Z</time>
      </trkpt>
      <trkpt lat="49.83176" lon="2.15309">
        <ele>96</ele>
        <time>2023-02-22T14:27:19Z</time>
      </trkpt>
      <trkpt lat="49.83176" lon="2.15309">
        <ele>96</ele>
        <time>2023-02-22T14:27:20Z</time>
      </trkpt>
      <trkpt lat="49.83176" lon="2.15309">
        <ele>96</ele>
        <time>2023-02-22T14:27:21Z</time>
      </trkpt>
      <trkpt lat="49.83176" lon="2.15309">
        <ele>96</ele>
        <time>2023-02-22T14:27:22Z</time>
      </trkpt>
      <trkpt lat="49.83176" lon="2.15309">
        <ele>96</ele>
        <time>2023-02-22T14:27:23Z</time>
      </trkpt>
      <trkpt lat="49.83176" lon="2.15309">
        <ele>96</ele>
        <time>2023-02-22T14:27:24Z</time>
      </trkpt>
      <trkpt lat="49.83176" lon="2.15309">
        <ele>96</ele>
        <time>2023-02-22T14:27:25Z</time>
      </trkpt>
      <trkpt lat="49.83176" lon="2.15309">
        <ele>96</ele>
        <time>2023-02-22T14:27:26Z</time>
      </trkpt>
      <trkpt lat="49.83176" lon="2.15309">
        <ele>96</ele>
        <time>2023-02-22T14:27:27Z</time>
      </trkpt>
      <trkpt lat="49.83176" lon="2.15309">
        <ele>96</ele>
        <time>2023-02-22T14:27:28Z</time>
      </trkpt>
      <trkpt lat="49.83176" lon="2.15309">
        <ele>96</ele>
        <time>2023-02-22T14:27:29Z</time>
      </trkpt>
      <trkpt lat="49.83176" lon="2.15309">
        <ele>96</ele>
        <time>2023-02-22T14:27:30Z</time>
      </trkpt>
      <trkpt lat="49.83176" lon="2.15309">
        <ele>96</ele>
        <time>2023-02-22T14:27:31Z</time>
      </trkpt>
      <trkpt lat="49.83176" lon="2.15309">
        <ele>96</ele>
        <time>2023-02-22T14:27:32Z</time>
      </trkpt>
      <trkpt lat="49.83176" lon="2.15309">
        <ele>96</ele>
        <time>2023-02-22T14:27:33Z</time>
      </trkpt>
      <trkpt lat="49.83176" lon="2.15309">
        <ele>96</ele>
        <time>2023-02-22T14:27:34Z</time>
      </trkpt>
      <trkpt lat="49.83176" lon="2.15309">
        <ele>96</ele>
        <time>2023-02-22T14:27:35Z</time>
      </trkpt>
      <trkpt lat="49.83176" lon="2.15309">
        <ele>96</ele>
        <time>2023-02-22T14:27:36Z</time>
      </trkpt>
      <trkpt lat="49.83176" lon="2.15309">
        <ele>96</ele>
        <time>2023-02-22T14:27:37Z</time>
      </trkpt>
      <trkpt lat="49.83176" lon="2.15309">
        <ele>96</ele>
        <time>2023-02-22T14:27:38Z</time>
      </trkpt>
      <trkpt lat="49.83176" lon="2.15309">
        <ele>96</ele>
        <time>2023-02-22T14:27:39Z</time>
      </trkpt>
      <trkpt lat="49.83176" lon="2.15309">
        <ele>96</ele>
        <time>2023-02-22T14:27:40Z</time>
      </trkpt>
      <trkpt lat="49.83176" lon="2.15309">
        <ele>96</ele>
        <time>2023-02-22T14:27:41Z</time>
      </trkpt>
      <trkpt lat="49.83176" lon="2.15309">
        <ele>96</ele>
        <time>2023-02-22T14:27:42Z</time>
      </trkpt>
      <trkpt lat="49.83176" lon="2.15309">
        <ele>96</ele>
        <time>2023-02-22T14:27:43Z</time>
      </trkpt>
      <trkpt lat="49.83176" lon="2.15309">
        <ele>96</ele>
        <time>2023-02-22T14:27:44Z</time>
      </trkpt>
      <trkpt lat="49.83176" lon="2.15309">
        <ele>96</ele>
        <time>2023-02-22T14:27:45Z</time>
      </trkpt>
      <trkpt lat="49.83176" lon="2.15309">
        <ele>96</ele>
        <time>2023-02-22T14:27:46Z</time>
      </trkpt>
      <trkpt lat="49.83176" lon="2.15309">
        <ele>96</ele>
        <time>2023-02-22T14:27:47Z</time>
      </trkpt>
      <trkpt lat="49.83176" lon="2.15309">
        <ele>96</ele>
        <time>2023-02-22T14:27:48Z</time>
      </trkpt>
      <trkpt lat="49.83176" lon="2.15309">
        <ele>96</ele>
        <time>2023-02-22T14:27:49Z</time>
      </trkpt>
      <trkpt lat="49.83176" lon="2.15309">
        <ele>96</ele>
        <time>2023-02-22T14:27:50Z</time>
      </trkpt>
      <trkpt lat="49.83176" lon="2.15309">
        <ele>96</ele>
        <time>2023-02-22T14:27:51Z</time>
      </trkpt>
      <trkpt lat="49.83176" lon="2.15309">
        <ele>96</ele>
        <time>2023-02-22T14:27:52Z</time>
      </trkpt>
      <trkpt lat="49.83176" lon="2.15309">
        <ele>96</ele>
        <time>2023-02-22T14:27:53Z</time>
      </trkpt>
      <trkpt lat="49.83176" lon="2.15309">
        <ele>96</ele>
        <time>2023-02-22T14:27:54Z</time>
      </trkpt>
      <trkpt lat="49.83176" lon="2.15309">
        <ele>96</ele>
        <time>2023-02-22T14:27:55Z</time>
      </trkpt>
      <trkpt lat="49.83176" lon="2.15309">
        <ele>96</ele>
        <time>2023-02-22T14:27:56Z</time>
      </trkpt>
      <trkpt lat="49.83176" lon="2.15309">
        <ele>96</ele>
        <time>2023-02-22T14:27:57Z</time>
      </trkpt>
      <trkpt lat="49.83176" lon="2.15309">
        <ele>96</ele>
        <time>2023-02-22T14:27:58Z</time>
      </trkpt>
      <trkpt lat="49.83176" lon="2.15309">
        <ele>96</ele>
        <time>2023-02-22T14:27:59Z</time>
      </trkpt>
      <trkpt lat="49.83176" lon="2.15309">
        <ele>96</ele>
        <time>2023-02-22T14:28:00Z</time>
      </trkpt>
      <trkpt lat="49.83176" lon="2.15309">
        <ele>96</ele>
        <time>2023-02-22T14:28:01Z</time>
      </trkpt>
      <trkpt lat="49.83176" lon="2.15309">
        <ele>96</ele>
        <time>2023-02-22T14:28:02Z</time>
      </trkpt>
      <trkpt lat="49.83176" lon="2.15309">
        <ele>96</ele>
        <time>2023-02-22T14:28:03Z</time>
      </trkpt>
      <trkpt lat="49.83176" lon="2.1531">
        <ele>96</ele>
        <time>2023-02-22T14:28:04Z</time>
      </trkpt>
      <trkpt lat="49.83176" lon="2.1531">
        <ele>96.1</ele>
        <time>2023-02-22T14:28:05Z</time>
      </trkpt>
      <trkpt lat="49.83176" lon="2.1531">
        <ele>96.1</ele>
        <time>2023-02-22T14:28:06Z</time>
      </trkpt>
      <trkpt lat="49.83176" lon="2.1531">
        <ele>96.1</ele>
        <time>2023-02-22T14:28:07Z</time>
      </trkpt>
      <trkpt lat="49.83176" lon="2.15309">
        <ele>96.1</ele>
        <time>2023-02-22T14:28:08Z</time>
      </trkpt>
      <trkpt lat="49.83176" lon="2.15309">
        <ele>96.1</ele>
        <time>2023-02-22T14:28:09Z</time>
      </trkpt>
      <trkpt lat="49.83176" lon="2.15309">
        <ele>96.1</ele>
        <time>2023-02-22T14:28:10Z</time>
      </trkpt>
      <trkpt lat="49.83176" lon="2.15309">
        <ele>96.1</ele>
        <time>2023-02-22T14:28:11Z</time>
      </trkpt>
      <trkpt lat="49.83176" lon="2.15309">
        <ele>96.1</ele>
        <time>2023-02-22T14:28:12Z</time>
      </trkpt>
      <trkpt lat="49.83176" lon="2.15309">
        <ele>96.1</ele>
        <time>2023-02-22T14:28:13Z</time>
      </trkpt>
      <trkpt lat="49.83176" lon="2.15309">
        <ele>96.1</ele>
        <time>2023-02-22T14:28:14Z</time>
      </trkpt>
      <trkpt lat="49.83176" lon="2.15309">
        <ele>96.1</ele>
        <time>2023-02-22T14:28:15Z</time>
      </trkpt>
      <trkpt lat="49.83176" lon="2.15309">
        <ele>96.1</ele>
        <time>2023-02-22T14:28:16Z</time>
      </trkpt>
      <trkpt lat="49.83176" lon="2.15309">
        <ele>96.1</ele>
        <time>2023-02-22T14:28:17Z</time>
      </trkpt>
      <trkpt lat="49.83176" lon="2.15309">
        <ele>96.1</ele>
        <time>2023-02-22T14:28:18Z</time>
      </trkpt>
      <trkpt lat="49.83176" lon="2.15309">
        <ele>96.1</ele>
        <time>2023-02-22T14:28:19Z</time>
      </trkpt>
      <trkpt lat="49.83176" lon="2.15309">
        <ele>96.1</ele>
        <time>2023-02-22T14:28:20Z</time>
      </trkpt>
      <trkpt lat="49.83176" lon="2.15309">
        <ele>96.1</ele>
        <time>2023-02-22T14:28:21Z</time>
      </trkpt>
      <trkpt lat="49.83176" lon="2.15309">
        <ele>96.1</ele>
        <time>2023-02-22T14:28:22Z</time>
      </trkpt>
      <trkpt lat="49.83176" lon="2.15309">
        <ele>96.1</ele>
        <time>2023-02-22T14:28:23Z</time>
      </trkpt>
      <trkpt lat="49.83176" lon="2.15309">
        <ele>96.1</ele>
        <time>2023-02-22T14:28:24Z</time>
      </trkpt>
      <trkpt lat="49.83176" lon="2.15309">
        <ele>96.1</ele>
        <time>2023-02-22T14:28:25Z</time>
      </trkpt>
      <trkpt lat="49.83176" lon="2.15309">
        <ele>96.1</ele>
        <time>2023-02-22T14:28:26Z</time>
      </trkpt>
      <trkpt lat="49.83176" lon="2.15309">
        <ele>96.1</ele>
        <time>2023-02-22T14:28:27Z</time>
      </trkpt>
      <trkpt lat="49.83176" lon="2.15309">
        <ele>96.1</ele>
        <time>2023-02-22T14:28:28Z</time>
      </trkpt>
      <trkpt lat="49.83176" lon="2.15309">
        <ele>96.1</ele>
        <time>2023-02-22T14:28:29Z</time>
      </trkpt>
      <trkpt lat="49.83176" lon="2.15309">
        <ele>96.1</ele>
        <time>2023-02-22T14:28:30Z</time>
      </trkpt>
      <trkpt lat="49.83176" lon="2.15309">
        <ele>96.1</ele>
        <time>2023-02-22T14:28:31Z</time>
      </trkpt>
      <trkpt lat="49.83176" lon="2.15309">
        <ele>96.1</ele>
        <time>2023-02-22T14:28:32Z</time>
      </trkpt>
      <trkpt lat="49.83176" lon="2.15309">
        <ele>96.1</ele>
        <time>2023-02-22T14:28:33Z</time>
      </trkpt>
      <trkpt lat="49.83176" lon="2.15309">
        <ele>96.1</ele>
        <time>2023-02-22T14:28:34Z</time>
      </trkpt>
      <trkpt lat="49.83176" lon="2.15309">
        <ele>96.1</ele>
        <time>2023-02-22T14:28:35Z</time>
      </trkpt>
      <trkpt lat="49.83176" lon="2.15309">
        <ele>96.1</ele>
        <time>2023-02-22T14:28:36Z</time>
      </trkpt>
      <trkpt lat="49.83176" lon="2.15309">
        <ele>96.1</ele>
        <time>2023-02-22T14:28:37Z</time>
      </trkpt>
      <trkpt lat="49.83176" lon="2.15309">
        <ele>96.1</ele>
        <time>2023-02-22T14:28:38Z</time>
      </trkpt>
      <trkpt lat="49.83176" lon="2.15309">
        <ele>96.1</ele>
        <time>2023-02-22T14:28:39Z</time>
      </trkpt>
      <trkpt lat="49.83176" lon="2.15309">
        <ele>96.1</ele>
        <time>2023-02-22T14:28:40Z</time>
      </trkpt>
      <trkpt lat="49.83176" lon="2.15309">
        <ele>96.1</ele>
        <time>2023-02-22T14:28:41Z</time>
      </trkpt>
      <trkpt lat="49.83176" lon="2.15309">
        <ele>96.1</ele>
        <time>2023-02-22T14:28:42Z</time>
      </trkpt>
      <trkpt lat="49.83176" lon="2.15309">
        <ele>96.1</ele>
        <time>2023-02-22T14:28:43Z</time>
      </trkpt>
      <trkpt lat="49.83176" lon="2.15309">
        <ele>96.1</ele>
        <time>2023-02-22T14:28:44Z</time>
      </trkpt>
      <trkpt lat="49.83176" lon="2.15309">
        <ele>96.1</ele>
        <time>2023-02-22T14:28:45Z</time>
      </trkpt>
      <trkpt lat="49.83176" lon="2.15309">
        <ele>96.1</ele>
        <time>2023-02-22T14:28:46Z</time>
      </trkpt>
      <trkpt lat="49.83176" lon="2.15309">
        <ele>96.1</ele>
        <time>2023-02-22T14:28:47Z</time>
      </trkpt>
      <trkpt lat="49.83176" lon="2.15309">
        <ele>96.1</ele>
        <time>2023-02-22T14:28:48Z</time>
      </trkpt>
      <trkpt lat="49.83176" lon="2.15309">
        <ele>96.1</ele>
        <time>2023-02-22T14:28:49Z</time>
      </trkpt>
      <trkpt lat="49.83176" lon="2.15309">
        <ele>96.1</ele>
        <time>2023-02-22T14:28:50Z</time>
      </trkpt>
      <trkpt lat="49.83176" lon="2.15309">
        <ele>96.1</ele>
        <time>2023-02-22T14:28:51Z</time>
      </trkpt>
      <trkpt lat="49.83176" lon="2.15309">
        <ele>96.1</ele>
        <time>2023-02-22T14:28:52Z</time>
      </trkpt>
      <trkpt lat="49.83176" lon="2.15309">
        <ele>96.1</ele>
        <time>2023-02-22T14:28:53Z</time>
      </trkpt>
      <trkpt lat="49.83176" lon="2.15309">
        <ele>96.1</ele>
        <time>2023-02-22T14:28:54Z</time>
      </trkpt>
      <trkpt lat="49.83176" lon="2.15309">
        <ele>96.1</ele>
        <time>2023-02-22T14:28:55Z</time>
      </trkpt>
      <trkpt lat="49.83176" lon="2.15309">
        <ele>96.1</ele>
        <time>2023-02-22T14:28:56Z</time>
      </trkpt>
      <trkpt lat="49.83176" lon="2.15309">
        <ele>96.1</ele>
        <time>2023-02-22T14:28:57Z</time>
      </trkpt>
      <trkpt lat="49.83176" lon="2.15309">
        <ele>96.1</ele>
        <time>2023-02-22T14:28:58Z</time>
      </trkpt>
      <trkpt lat="49.83176" lon="2.15309">
        <ele>96.1</ele>
        <time>2023-02-22T14:28:59Z</time>
      </trkpt>
      <trkpt lat="49.83176" lon="2.15309">
        <ele>96.1</ele>
        <time>2023-02-22T14:29:00Z</time>
      </trkpt>
      <trkpt lat="49.83176" lon="2.15309">
        <ele>96.1</ele>
        <time>2023-02-22T14:29:01Z</time>
      </trkpt>
      <trkpt lat="49.83176" lon="2.15309">
        <ele>96.1</ele>
        <time>2023-02-22T14:29:02Z</time>
      </trkpt>
      <trkpt lat="49.83176" lon="2.15309">
        <ele>96.1</ele>
        <time>2023-02-22T14:29:03Z</time>
      </trkpt>
      <trkpt lat="49.83176" lon="2.15309">
        <ele>96.1</ele>
        <time>2023-02-22T14:29:04Z</time>
      </trkpt>
      <trkpt lat="49.83176" lon="2.15309">
        <ele>96.1</ele>
        <time>2023-02-22T14:29:05Z</time>
      </trkpt>
      <trkpt lat="49.83176" lon="2.15309">
        <ele>96.1</ele>
        <time>2023-02-22T14:29:06Z</time>
      </trkpt>
      <trkpt lat="49.83176" lon="2.15309">
        <ele>96.1</ele>
        <time>2023-02-22T14:29:07Z</time>
      </trkpt>
      <trkpt lat="49.83176" lon="2.15309">
        <ele>96.1</ele>
        <time>2023-02-22T14:29:08Z</time>
      </trkpt>
      <trkpt lat="49.83176" lon="2.15309">
        <ele>96.1</ele>
        <time>2023-02-22T14:29:09Z</time>
      </trkpt>
      <trkpt lat="49.83176" lon="2.15309">
        <ele>96.1</ele>
        <time>2023-02-22T14:29:10Z</time>
      </trkpt>
      <trkpt lat="49.83176" lon="2.15309">
        <ele>96.1</ele>
        <time>2023-02-22T14:29:11Z</time>
      </trkpt>
      <trkpt lat="49.83176" lon="2.15309">
        <ele>96.1</ele>
        <time>2023-02-22T14:29:12Z</time>
      </trkpt>
      <trkpt lat="49.83176" lon="2.15309">
        <ele>96.1</ele>
        <time>2023-02-22T14:29:13Z</time>
      </trkpt>
      <trkpt lat="49.83176" lon="2.15309">
        <ele>96.1</ele>
        <time>2023-02-22T14:29:14Z</time>
      </trkpt>
      <trkpt lat="49.83176" lon="2.15309">
        <ele>96.1</ele>
        <time>2023-02-22T14:29:15Z</time>
      </trkpt>
      <trkpt lat="49.83176" lon="2.15309">
        <ele>96.1</ele>
        <time>2023-02-22T14:29:16Z</time>
      </trkpt>
      <trkpt lat="49.83176" lon="2.15309">
        <ele>96.1</ele>
        <time>2023-02-22T14:29:17Z</time>
      </trkpt>
      <trkpt lat="49.83176" lon="2.15309">
        <ele>96.1</ele>
        <time>2023-02-22T14:29:18Z</time>
      </trkpt>
      <trkpt lat="49.83176" lon="2.15309">
        <ele>96.1</ele>
        <time>2023-02-22T14:29:19Z</time>
      </trkpt>
      <trkpt lat="49.83176" lon="2.15309">
        <ele>96.1</ele>
        <time>2023-02-22T14:29:20Z</time>
      </trkpt>
      <trkpt lat="49.83176" lon="2.15309">
        <ele>96.1</ele>
        <time>2023-02-22T14:29:21Z</time>
      </trkpt>
      <trkpt lat="49.83176" lon="2.15309">
        <ele>96.1</ele>
        <time>2023-02-22T14:29:22Z</time>
      </trkpt>
      <trkpt lat="49.83176" lon="2.15309">
        <ele>96.1</ele>
        <time>2023-02-22T14:29:23Z</time>
      </trkpt>
      <trkpt lat="49.83176" lon="2.15309">
        <ele>96.1</ele>
        <time>2023-02-22T14:29:24Z</time>
      </trkpt>
      <trkpt lat="49.83176" lon="2.15309">
        <ele>96.1</ele>
        <time>2023-02-22T14:29:25Z</time>
      </trkpt>
      <trkpt lat="49.83176" lon="2.15309">
        <ele>96.1</ele>
        <time>2023-02-22T14:29:26Z</time>
      </trkpt>
      <trkpt lat="49.83176" lon="2.15309">
        <ele>96.1</ele>
        <time>2023-02-22T14:29:27Z</time>
      </trkpt>
      <trkpt lat="49.83176" lon="2.15309">
        <ele>96.1</ele>
        <time>2023-02-22T14:29:28Z</time>
      </trkpt>
      <trkpt lat="49.83176" lon="2.15309">
        <ele>96.1</ele>
        <time>2023-02-22T14:29:29Z</time>
      </trkpt>
      <trkpt lat="49.83176" lon="2.15309">
        <ele>96.1</ele>
        <time>2023-02-22T14:29:30Z</time>
      </trkpt>
      <trkpt lat="49.83176" lon="2.15309">
        <ele>96.1</ele>
        <time>2023-02-22T14:29:31Z</time>
      </trkpt>
      <trkpt lat="49.83176" lon="2.15309">
        <ele>96.1</ele>
        <time>2023-02-22T14:29:32Z</time>
      </trkpt>
      <trkpt lat="49.83176" lon="2.15309">
        <ele>96.1</ele>
        <time>2023-02-22T14:29:33Z</time>
      </trkpt>
      <trkpt lat="49.83176" lon="2.15307">
        <ele>96.1</ele>
        <time>2023-02-22T14:29:34Z</time>
      </trkpt>
      <trkpt lat="49.83177" lon="2.15305">
        <ele>96.2</ele>
        <time>2023-02-22T14:29:35Z</time>
      </trkpt>
      <trkpt lat="49.83177" lon="2.15305">
        <ele>96.2</ele>
        <time>2023-02-22T14:29:36Z</time>
      </trkpt>
      <trkpt lat="49.83177" lon="2.15305">
        <ele>96.2</ele>
        <time>2023-02-22T14:29:37Z</time>
      </trkpt>
      <trkpt lat="49.83177" lon="2.15305">
        <ele>96.2</ele>
        <time>2023-02-22T14:29:38Z</time>
      </trkpt>
      <trkpt lat="49.83177" lon="2.15305">
        <ele>96.2</ele>
        <time>2023-02-22T14:29:39Z</time>
      </trkpt>
      <trkpt lat="49.83176" lon="2.15305">
        <ele>96.3</ele>
        <time>2023-02-22T14:29:40Z</time>
      </trkpt>
      <trkpt lat="49.83177" lon="2.15306">
        <ele>96.3</ele>
        <time>2023-02-22T14:29:41Z</time>
      </trkpt>
      <trkpt lat="49.83176" lon="2.15306">
        <ele>96.3</ele>
        <time>2023-02-22T14:29:42Z</time>
      </trkpt>
      <trkpt lat="49.83176" lon="2.15306">
        <ele>96.3</ele>
        <time>2023-02-22T14:29:43Z</time>
      </trkpt>
      <trkpt lat="49.83176" lon="2.15307">
        <ele>96.3</ele>
        <time>2023-02-22T14:29:44Z</time>
      </trkpt>
      <trkpt lat="49.83176" lon="2.15307">
        <ele>96.3</ele>
        <time>2023-02-22T14:29:45Z</time>
      </trkpt>
      <trkpt lat="49.83176" lon="2.15307">
        <ele>96.3</ele>
        <time>2023-02-22T14:29:46Z</time>
      </trkpt>
      <trkpt lat="49.83176" lon="2.15307">
        <ele>96.4</ele>
        <time>2023-02-22T14:29:47Z</time>
      </trkpt>
      <trkpt lat="49.83176" lon="2.15308">
        <ele>96.4</ele>
        <time>2023-02-22T14:29:48Z</time>
      </trkpt>
      <trkpt lat="49.83176" lon="2.15307">
        <ele>96.4</ele>
        <time>2023-02-22T14:29:49Z</time>
      </trkpt>
      <trkpt lat="49.83176" lon="2.15307">
        <ele>96.4</ele>
        <time>2023-02-22T14:29:50Z</time>
      </trkpt>
      <trkpt lat="49.83176" lon="2.15307">
        <ele>96.4</ele>
        <time>2023-02-22T14:29:51Z</time>
      </trkpt>
      <trkpt lat="49.83175" lon="2.15307">
        <ele>96.4</ele>
        <time>2023-02-22T14:29:52Z</time>
      </trkpt>
      <trkpt lat="49.83175" lon="2.15308">
        <ele>96.4</ele>
        <time>2023-02-22T14:29:53Z</time>
      </trkpt>
      <trkpt lat="49.83175" lon="2.15307">
        <ele>96.4</ele>
        <time>2023-02-22T14:29:54Z</time>
      </trkpt>
      <trkpt lat="49.83175" lon="2.15308">
        <ele>96.4</ele>
        <time>2023-02-22T14:29:55Z</time>
      </trkpt>
      <trkpt lat="49.83175" lon="2.15307">
        <ele>96.4</ele>
        <time>2023-02-22T14:29:56Z</time>
      </trkpt>
      <trkpt lat="49.83175" lon="2.15308">
        <ele>96.4</ele>
        <time>2023-02-22T14:29:57Z</time>
      </trkpt>
      <trkpt lat="49.83175" lon="2.15307">
        <ele>96.4</ele>
        <time>2023-02-22T14:29:58Z</time>
      </trkpt>
      <trkpt lat="49.83175" lon="2.15308">
        <ele>96.4</ele>
        <time>2023-02-22T14:29:59Z</time>
      </trkpt>
      <trkpt lat="49.83175" lon="2.15308">
        <ele>96.4</ele>
        <time>2023-02-22T14:30:00Z</time>
      </trkpt>
      <trkpt lat="49.83175" lon="2.15307">
        <ele>96.4</ele>
        <time>2023-02-22T14:30:01Z</time>
      </trkpt>
      <trkpt lat="49.83175" lon="2.15308">
        <ele>96.4</ele>
        <time>2023-02-22T14:30:02Z</time>
      </trkpt>
      <trkpt lat="49.83175" lon="2.15308">
        <ele>96.5</ele>
        <time>2023-02-22T14:30:03Z</time>
      </trkpt>
      <trkpt lat="49.83174" lon="2.15308">
        <ele>96.5</ele>
        <time>2023-02-22T14:30:04Z</time>
      </trkpt>
      <trkpt lat="49.83174" lon="2.15308">
        <ele>96.5</ele>
        <time>2023-02-22T14:30:05Z</time>
      </trkpt>
      <trkpt lat="49.83174" lon="2.15308">
        <ele>96.5</ele>
        <time>2023-02-22T14:30:06Z</time>
      </trkpt>
      <trkpt lat="49.83174" lon="2.15307">
        <ele>96.5</ele>
        <time>2023-02-22T14:30:07Z</time>
      </trkpt>
      <trkpt lat="49.83174" lon="2.15308">
        <ele>96.5</ele>
        <time>2023-02-22T14:30:08Z</time>
      </trkpt>
      <trkpt lat="49.83174" lon="2.15306">
        <ele>96.5</ele>
        <time>2023-02-22T14:30:09Z</time>
      </trkpt>
      <trkpt lat="49.83174" lon="2.15303">
        <ele>96.6</ele>
        <time>2023-02-22T14:30:10Z</time>
      </trkpt>
      <trkpt lat="49.83174" lon="2.153">
        <ele>96.7</ele>
        <time>2023-02-22T14:30:11Z</time>
      </trkpt>
      <trkpt lat="49.83174" lon="2.15299">
        <ele>96.8</ele>
        <time>2023-02-22T14:30:12Z</time>
      </trkpt>
      <trkpt lat="49.83174" lon="2.15298">
        <ele>96.8</ele>
        <time>2023-02-22T14:30:13Z</time>
      </trkpt>
      <trkpt lat="49.83174" lon="2.15297">
        <ele>96.8</ele>
        <time>2023-02-22T14:30:14Z</time>
      </trkpt>
      <trkpt lat="49.83174" lon="2.15295">
        <ele>96.9</ele>
        <time>2023-02-22T14:30:15Z</time>
      </trkpt>
      <trkpt lat="49.83174" lon="2.15294">
        <ele>96.9</ele>
        <time>2023-02-22T14:30:16Z</time>
      </trkpt>
      <trkpt lat="49.83174" lon="2.15293">
        <ele>96.9</ele>
        <time>2023-02-22T14:30:17Z</time>
      </trkpt>
      <trkpt lat="49.83175" lon="2.15291">
        <ele>97</ele>
        <time>2023-02-22T14:30:18Z</time>
      </trkpt>
      <trkpt lat="49.83176" lon="2.15288">
        <ele>97.1</ele>
        <time>2023-02-22T14:30:19Z</time>
      </trkpt>
      <trkpt lat="49.8318" lon="2.15289">
        <ele>97.2</ele>
        <time>2023-02-22T14:30:20Z</time>
      </trkpt>
      <trkpt lat="49.83181" lon="2.15287">
        <ele>97.3</ele>
        <time>2023-02-22T14:30:21Z</time>
      </trkpt>
      <trkpt lat="49.83181" lon="2.15284">
        <ele>97.3</ele>
        <time>2023-02-22T14:30:22Z</time>
      </trkpt>
      <trkpt lat="49.83181" lon="2.15283">
        <ele>97.4</ele>
        <time>2023-02-22T14:30:23Z</time>
      </trkpt>
      <trkpt lat="49.83181" lon="2.15281">
        <ele>97.4</ele>
        <time>2023-02-22T14:30:24Z</time>
      </trkpt>
      <trkpt lat="49.83182" lon="2.15279">
        <ele>97.4</ele>
        <time>2023-02-22T14:30:26Z</time>
      </trkpt>
      <trkpt lat="49.83181" lon="2.15278">
        <ele>97.5</ele>
        <time>2023-02-22T14:30:27Z</time>
      </trkpt>
      <trkpt lat="49.83181" lon="2.15278">
        <ele>97.5</ele>
        <time>2023-02-22T14:30:28Z</time>
      </trkpt>
      <trkpt lat="49.83181" lon="2.15277">
        <ele>97.5</ele>
        <time>2023-02-22T14:30:29Z</time>
      </trkpt>
      <trkpt lat="49.8318" lon="2.15275">
        <ele>97.5</ele>
        <time>2023-02-22T14:30:30Z</time>
      </trkpt>
      <trkpt lat="49.8318" lon="2.15274">
        <ele>97.6</ele>
        <time>2023-02-22T14:30:31Z</time>
      </trkpt>
      <trkpt lat="49.8318" lon="2.15273">
        <ele>97.6</ele>
        <time>2023-02-22T14:30:32Z</time>
      </trkpt>
      <trkpt lat="49.8318" lon="2.15272">
        <ele>97.6</ele>
        <time>2023-02-22T14:30:34Z</time>
      </trkpt>
      <trkpt lat="49.8318" lon="2.1527">
        <ele>97.6</ele>
        <time>2023-02-22T14:30:35Z</time>
      </trkpt>
      <trkpt lat="49.8318" lon="2.15268">
        <ele>97.7</ele>
        <time>2023-02-22T14:30:36Z</time>
      </trkpt>
      <trkpt lat="49.8318" lon="2.15266">
        <ele>97.7</ele>
        <time>2023-02-22T14:30:37Z</time>
      </trkpt>
      <trkpt lat="49.8318" lon="2.15264">
        <ele>97.7</ele>
        <time>2023-02-22T14:30:39Z</time>
      </trkpt>
      <trkpt lat="49.8318" lon="2.15261">
        <ele>97.8</ele>
        <time>2023-02-22T14:30:40Z</time>
      </trkpt>
      <trkpt lat="49.8318" lon="2.1526">
        <ele>97.8</ele>
        <time>2023-02-22T14:30:41Z</time>
      </trkpt>
      <trkpt lat="49.8318" lon="2.15258">
        <ele>97.8</ele>
        <time>2023-02-22T14:30:42Z</time>
      </trkpt>
      <trkpt lat="49.8318" lon="2.15255">
        <ele>97.9</ele>
        <time>2023-02-22T14:30:43Z</time>
      </trkpt>
      <trkpt lat="49.8318" lon="2.15254">
        <ele>97.9</ele>
        <time>2023-02-22T14:30:44Z</time>
      </trkpt>
      <trkpt lat="49.8318" lon="2.15252">
        <ele>97.9</ele>
        <time>2023-02-22T14:30:45Z</time>
      </trkpt>
      <trkpt lat="49.8318" lon="2.1525">
        <ele>98</ele>
        <time>2023-02-22T14:30:46Z</time>
      </trkpt>
      <trkpt lat="49.8318" lon="2.15249">
        <ele>98</ele>
        <time>2023-02-22T14:30:48Z</time>
      </trkpt>
      <trkpt lat="49.8318" lon="2.15248">
        <ele>98</ele>
        <time>2023-02-22T14:30:49Z</time>
      </trkpt>
      <trkpt lat="49.8318" lon="2.15247">
        <ele>98</ele>
        <time>2023-02-22T14:30:50Z</time>
      </trkpt>
      <trkpt lat="49.83179" lon="2.15245">
        <ele>98</ele>
        <time>2023-02-22T14:30:51Z</time>
      </trkpt>
      <trkpt lat="49.83179" lon="2.15242">
        <ele>98.1</ele>
        <time>2023-02-22T14:30:52Z</time>
      </trkpt>
      <trkpt lat="49.83179" lon="2.1524">
        <ele>98.1</ele>
        <time>2023-02-22T14:30:53Z</time>
      </trkpt>
      <trkpt lat="49.83178" lon="2.15237">
        <ele>98.1</ele>
        <time>2023-02-22T14:30:54Z</time>
      </trkpt>
      <trkpt lat="49.83178" lon="2.15235">
        <ele>98.1</ele>
        <time>2023-02-22T14:30:56Z</time>
      </trkpt>
      <trkpt lat="49.83177" lon="2.15233">
        <ele>98.2</ele>
        <time>2023-02-22T14:30:57Z</time>
      </trkpt>
      <trkpt lat="49.83177" lon="2.15231">
        <ele>98.2</ele>
        <time>2023-02-22T14:30:58Z</time>
      </trkpt>
      <trkpt lat="49.83176" lon="2.15229">
        <ele>98.2</ele>
        <time>2023-02-22T14:30:59Z</time>
      </trkpt>
      <trkpt lat="49.83176" lon="2.15228">
        <ele>98.2</ele>
        <time>2023-02-22T14:31:00Z</time>
      </trkpt>
      <trkpt lat="49.83176" lon="2.15226">
        <ele>98.3</ele>
        <time>2023-02-22T14:31:01Z</time>
      </trkpt>
      <trkpt lat="49.83175" lon="2.15225">
        <ele>98.3</ele>
        <time>2023-02-22T14:31:03Z</time>
      </trkpt>
      <trkpt lat="49.83175" lon="2.15223">
        <ele>98.3</ele>
        <time>2023-02-22T14:31:04Z</time>
      </trkpt>
      <trkpt lat="49.83174" lon="2.15221">
        <ele>98.3</ele>
        <time>2023-02-22T14:31:05Z</time>
      </trkpt>
      <trkpt lat="49.83174" lon="2.1522">
        <ele>98.3</ele>
        <time>2023-02-22T14:31:06Z</time>
      </trkpt>
      <trkpt lat="49.83174" lon="2.15218">
        <ele>98.3</ele>
        <time>2023-02-22T14:31:07Z</time>
      </trkpt>
      <trkpt lat="49.83174" lon="2.15217">
        <ele>98.3</ele>
        <time>2023-02-22T14:31:09Z</time>
      </trkpt>
      <trkpt lat="49.83174" lon="2.15215">
        <ele>98.3</ele>
        <time>2023-02-22T14:31:10Z</time>
      </trkpt>
      <trkpt lat="49.83174" lon="2.15214">
        <ele>98.4</ele>
        <time>2023-02-22T14:31:11Z</time>
      </trkpt>
      <trkpt lat="49.83173" lon="2.15212">
        <ele>98.4</ele>
        <time>2023-02-22T14:31:12Z</time>
      </trkpt>
      <trkpt lat="49.83173" lon="2.1521">
        <ele>98.4</ele>
        <time>2023-02-22T14:31:13Z</time>
      </trkpt>
      <trkpt lat="49.83173" lon="2.15208">
        <ele>98.4</ele>
        <time>2023-02-22T14:31:14Z</time>
      </trkpt>
      <trkpt lat="49.83174" lon="2.15205">
        <ele>98.4</ele>
        <time>2023-02-22T14:31:15Z</time>
      </trkpt>
      <trkpt lat="49.83174" lon="2.152">
        <ele>98.5</ele>
        <time>2023-02-22T14:31:17Z</time>
      </trkpt>
      <trkpt lat="49.83175" lon="2.15198">
        <ele>98.5</ele>
        <time>2023-02-22T14:31:18Z</time>
      </trkpt>
      <trkpt lat="49.83175" lon="2.15194">
        <ele>98.5</ele>
        <time>2023-02-22T14:31:20Z</time>
      </trkpt>
      <trkpt lat="49.83176" lon="2.15188">
        <ele>98.5</ele>
        <time>2023-02-22T14:31:21Z</time>
      </trkpt>
      <trkpt lat="49.83176" lon="2.15185">
        <ele>98.5</ele>
        <time>2023-02-22T14:31:22Z</time>
      </trkpt>
      <trkpt lat="49.83177" lon="2.1518">
        <ele>98.6</ele>
        <time>2023-02-22T14:31:23Z</time>
      </trkpt>
      <trkpt lat="49.83177" lon="2.15178">
        <ele>98.6</ele>
        <time>2023-02-22T14:31:24Z</time>
      </trkpt>
      <trkpt lat="49.83177" lon="2.15175">
        <ele>98.6</ele>
        <time>2023-02-22T14:31:26Z</time>
      </trkpt>
      <trkpt lat="49.83177" lon="2.15173">
        <ele>98.6</ele>
        <time>2023-02-22T14:31:27Z</time>
      </trkpt>
      <trkpt lat="49.83177" lon="2.15172">
        <ele>98.6</ele>
        <time>2023-02-22T14:31:28Z</time>
      </trkpt>
      <trkpt lat="49.83177" lon="2.1517">
        <ele>98.6</ele>
        <time>2023-02-22T14:31:29Z</time>
      </trkpt>
      <trkpt lat="49.83177" lon="2.15168">
        <ele>98.6</ele>
        <time>2023-02-22T14:31:30Z</time>
      </trkpt>
      <trkpt lat="49.83177" lon="2.15168">
        <ele>98.6</ele>
        <time>2023-02-22T14:31:31Z</time>
      </trkpt>
      <trkpt lat="49.83177" lon="2.15167">
        <ele>98.6</ele>
        <time>2023-02-22T14:31:33Z</time>
      </trkpt>
      <trkpt lat="49.83177" lon="2.15166">
        <ele>98.6</ele>
        <time>2023-02-22T14:31:34Z</time>
      </trkpt>
      <trkpt lat="49.83178" lon="2.15165">
        <ele>98.5</ele>
        <time>2023-02-22T14:31:35Z</time>
      </trkpt>
      <trkpt lat="49.83178" lon="2.15165">
        <ele>98.5</ele>
        <time>2023-02-22T14:31:36Z</time>
      </trkpt>
      <trkpt lat="49.83178" lon="2.15164">
        <ele>98.5</ele>
        <time>2023-02-22T14:31:37Z</time>
      </trkpt>
      <trkpt lat="49.83178" lon="2.15163">
        <ele>98.5</ele>
        <time>2023-02-22T14:31:38Z</time>
      </trkpt>
      <trkpt lat="49.83178" lon="2.15162">
        <ele>98.5</ele>
        <time>2023-02-22T14:31:39Z</time>
      </trkpt>
      <trkpt lat="49.83178" lon="2.1516">
        <ele>98.5</ele>
        <time>2023-02-22T14:31:41Z</time>
      </trkpt>
      <trkpt lat="49.83178" lon="2.15159">
        <ele>98.4</ele>
        <time>2023-02-22T14:31:42Z</time>
      </trkpt>
      <trkpt lat="49.83178" lon="2.15157">
        <ele>98.4</ele>
        <time>2023-02-22T14:31:43Z</time>
      </trkpt>
      <trkpt lat="49.83178" lon="2.15155">
        <ele>98.4</ele>
        <time>2023-02-22T14:31:44Z</time>
      </trkpt>
      <trkpt lat="49.83176" lon="2.15153">
        <ele>98.4</ele>
        <time>2023-02-22T14:31:45Z</time>
      </trkpt>
      <trkpt lat="49.83176" lon="2.15152">
        <ele>98.4</ele>
        <time>2023-02-22T14:31:47Z</time>
      </trkpt>
      <trkpt lat="49.83176" lon="2.15151">
        <ele>98.4</ele>
        <time>2023-02-22T14:31:48Z</time>
      </trkpt>
      <trkpt lat="49.83176" lon="2.15149">
        <ele>98.5</ele>
        <time>2023-02-22T14:31:49Z</time>
      </trkpt>
      <trkpt lat="49.83176" lon="2.15146">
        <ele>98.5</ele>
        <time>2023-02-22T14:31:50Z</time>
      </trkpt>
      <trkpt lat="49.83176" lon="2.15144">
        <ele>98.5</ele>
        <time>2023-02-22T14:31:51Z</time>
      </trkpt>
      <trkpt lat="49.83176" lon="2.15142">
        <ele>98.6</ele>
        <time>2023-02-22T14:31:52Z</time>
      </trkpt>
      <trkpt lat="49.83177" lon="2.15139">
        <ele>98.6</ele>
        <time>2023-02-22T14:31:53Z</time>
      </trkpt>
      <trkpt lat="49.83177" lon="2.15137">
        <ele>98.7</ele>
        <time>2023-02-22T14:31:54Z</time>
      </trkpt>
      <trkpt lat="49.83177" lon="2.15134">
        <ele>98.7</ele>
        <time>2023-02-22T14:31:56Z</time>
      </trkpt>
      <trkpt lat="49.83178" lon="2.15131">
        <ele>98.8</ele>
        <time>2023-02-22T14:31:57Z</time>
      </trkpt>
      <trkpt lat="49.83178" lon="2.15129">
        <ele>98.8</ele>
        <time>2023-02-22T14:31:58Z</time>
      </trkpt>
      <trkpt lat="49.83178" lon="2.15127">
        <ele>98.9</ele>
        <time>2023-02-22T14:31:59Z</time>
      </trkpt>
      <trkpt lat="49.83178" lon="2.15125">
        <ele>98.9</ele>
        <time>2023-02-22T14:32:00Z</time>
      </trkpt>
      <trkpt lat="49.83178" lon="2.15123">
        <ele>98.9</ele>
        <time>2023-02-22T14:32:01Z</time>
      </trkpt>
      <trkpt lat="49.83179" lon="2.15121">
        <ele>99</ele>
        <time>2023-02-22T14:32:03Z</time>
      </trkpt>
      <trkpt lat="49.83179" lon="2.15118">
        <ele>99.1</ele>
        <time>2023-02-22T14:32:04Z</time>
      </trkpt>
      <trkpt lat="49.83179" lon="2.15116">
        <ele>99.1</ele>
        <time>2023-02-22T14:32:05Z</time>
      </trkpt>
      <trkpt lat="49.8318" lon="2.15115">
        <ele>99.1</ele>
        <time>2023-02-22T14:32:06Z</time>
      </trkpt>
      <trkpt lat="49.8318" lon="2.15112">
        <ele>99.2</ele>
        <time>2023-02-22T14:32:07Z</time>
      </trkpt>
      <trkpt lat="49.83181" lon="2.15111">
        <ele>99.2</ele>
        <time>2023-02-22T14:32:08Z</time>
      </trkpt>
      <trkpt lat="49.83181" lon="2.1511">
        <ele>99.3</ele>
        <time>2023-02-22T14:32:09Z</time>
      </trkpt>
      <trkpt lat="49.83182" lon="2.15108">
        <ele>99.3</ele>
        <time>2023-02-22T14:32:11Z</time>
      </trkpt>
      <trkpt lat="49.83181" lon="2.15108">
        <ele>99.3</ele>
        <time>2023-02-22T14:32:12Z</time>
      </trkpt>
      <trkpt lat="49.83181" lon="2.15106">
        <ele>99.4</ele>
        <time>2023-02-22T14:32:13Z</time>
      </trkpt>
      <trkpt lat="49.83181" lon="2.15105">
        <ele>99.4</ele>
        <time>2023-02-22T14:32:14Z</time>
      </trkpt>
      <trkpt lat="49.83182" lon="2.15102">
        <ele>99.5</ele>
        <time>2023-02-22T14:32:15Z</time>
      </trkpt>
      <trkpt lat="49.83182" lon="2.15101">
        <ele>99.5</ele>
        <time>2023-02-22T14:32:16Z</time>
      </trkpt>
      <trkpt lat="49.83182" lon="2.15099">
        <ele>99.5</ele>
        <time>2023-02-22T14:32:17Z</time>
      </trkpt>
      <trkpt lat="49.83182" lon="2.15094">
        <ele>99.7</ele>
        <time>2023-02-22T14:32:19Z</time>
      </trkpt>
      <trkpt lat="49.83182" lon="2.15092">
        <ele>99.8</ele>
        <time>2023-02-22T14:32:20Z</time>
      </trkpt>
      <trkpt lat="49.83182" lon="2.1509">
        <ele>99.8</ele>
        <time>2023-02-22T14:32:21Z</time>
      </trkpt>
      <trkpt lat="49.83182" lon="2.15088">
        <ele>99.9</ele>
        <time>2023-02-22T14:32:22Z</time>
      </trkpt>
      <trkpt lat="49.83182" lon="2.15087">
        <ele>99.9</ele>
        <time>2023-02-22T14:32:23Z</time>
      </trkpt>
      <trkpt lat="49.83182" lon="2.15085">
        <ele>100</ele>
        <time>2023-02-22T14:32:24Z</time>
      </trkpt>
      <trkpt lat="49.83182" lon="2.15084">
        <ele>100</ele>
        <time>2023-02-22T14:32:25Z</time>
      </trkpt>
      <trkpt lat="49.83182" lon="2.15083">
        <ele>100</ele>
        <time>2023-02-22T14:32:27Z</time>
      </trkpt>
      <trkpt lat="49.83181" lon="2.15082">
        <ele>100.1</ele>
        <time>2023-02-22T14:32:28Z</time>
      </trkpt>
      <trkpt lat="49.83181" lon="2.1508">
        <ele>100.1</ele>
        <time>2023-02-22T14:32:29Z</time>
      </trkpt>
      <trkpt lat="49.83181" lon="2.15078">
        <ele>100.2</ele>
        <time>2023-02-22T14:32:30Z</time>
      </trkpt>
      <trkpt lat="49.83181" lon="2.15077">
        <ele>100.3</ele>
        <time>2023-02-22T14:32:31Z</time>
      </trkpt>
      <trkpt lat="49.83181" lon="2.15074">
        <ele>100.3</ele>
        <time>2023-02-22T14:32:33Z</time>
      </trkpt>
      <trkpt lat="49.83181" lon="2.15073">
        <ele>100.4</ele>
        <time>2023-02-22T14:32:34Z</time>
      </trkpt>
      <trkpt lat="49.83181" lon="2.15072">
        <ele>100.4</ele>
        <time>2023-02-22T14:32:35Z</time>
      </trkpt>
      <trkpt lat="49.83181" lon="2.15071">
        <ele>100.5</ele>
        <time>2023-02-22T14:32:36Z</time>
      </trkpt>
      <trkpt lat="49.83182" lon="2.15068">
        <ele>100.6</ele>
        <time>2023-02-22T14:32:37Z</time>
      </trkpt>
      <trkpt lat="49.83182" lon="2.15067">
        <ele>100.6</ele>
        <time>2023-02-22T14:32:38Z</time>
      </trkpt>
      <trkpt lat="49.83182" lon="2.15065">
        <ele>100.6</ele>
        <time>2023-02-22T14:32:40Z</time>
      </trkpt>
      <trkpt lat="49.83182" lon="2.15064">
        <ele>100.6</ele>
        <time>2023-02-22T14:32:41Z</time>
      </trkpt>
      <trkpt lat="49.83182" lon="2.15062">
        <ele>100.6</ele>
        <time>2023-02-22T14:32:42Z</time>
      </trkpt>
      <trkpt lat="49.83182" lon="2.1506">
        <ele>100.6</ele>
        <time>2023-02-22T14:32:43Z</time>
      </trkpt>
      <trkpt lat="49.83182" lon="2.15059">
        <ele>100.6</ele>
        <time>2023-02-22T14:32:44Z</time>
      </trkpt>
      <trkpt lat="49.83182" lon="2.15058">
        <ele>100.6</ele>
        <time>2023-02-22T14:32:45Z</time>
      </trkpt>
      <trkpt lat="49.83182" lon="2.15057">
        <ele>100.6</ele>
        <time>2023-02-22T14:32:47Z</time>
      </trkpt>
      <trkpt lat="49.83183" lon="2.15056">
        <ele>100.6</ele>
        <time>2023-02-22T14:32:48Z</time>
      </trkpt>
      <trkpt lat="49.83183" lon="2.15054">
        <ele>100.6</ele>
        <time>2023-02-22T14:32:49Z</time>
      </trkpt>
      <trkpt lat="49.83183" lon="2.15053">
        <ele>100.6</ele>
        <time>2023-02-22T14:32:50Z</time>
      </trkpt>
      <trkpt lat="49.83183" lon="2.15052">
        <ele>100.6</ele>
        <time>2023-02-22T14:32:51Z</time>
      </trkpt>
      <trkpt lat="49.83183" lon="2.1505">
        <ele>100.6</ele>
        <time>2023-02-22T14:32:52Z</time>
      </trkpt>
      <trkpt lat="49.83183" lon="2.1505">
        <ele>100.7</ele>
        <time>2023-02-22T14:32:54Z</time>
      </trkpt>
      <trkpt lat="49.83183" lon="2.15049">
        <ele>100.7</ele>
        <time>2023-02-22T14:32:55Z</time>
      </trkpt>
      <trkpt lat="49.83183" lon="2.15048">
        <ele>100.7</ele>
        <time>2023-02-22T14:32:56Z</time>
      </trkpt>
      <trkpt lat="49.83183" lon="2.15047">
        <ele>100.7</ele>
        <time>2023-02-22T14:32:57Z</time>
      </trkpt>
      <trkpt lat="49.83183" lon="2.15046">
        <ele>100.7</ele>
        <time>2023-02-22T14:32:58Z</time>
      </trkpt>
      <trkpt lat="49.83183" lon="2.15045">
        <ele>100.7</ele>
        <time>2023-02-22T14:32:59Z</time>
      </trkpt>
      <trkpt lat="49.83183" lon="2.15044">
        <ele>100.7</ele>
        <time>2023-02-22T14:33:00Z</time>
      </trkpt>
      <trkpt lat="49.83183" lon="2.15043">
        <ele>100.7</ele>
        <time>2023-02-22T14:33:01Z</time>
      </trkpt>
      <trkpt lat="49.83183" lon="2.15042">
        <ele>100.7</ele>
        <time>2023-02-22T14:33:03Z</time>
      </trkpt>
      <trkpt lat="49.83183" lon="2.15042">
        <ele>100.7</ele>
        <time>2023-02-22T14:33:04Z</time>
      </trkpt>
      <trkpt lat="49.83183" lon="2.15041">
        <ele>100.7</ele>
        <time>2023-02-22T14:33:05Z</time>
      </trkpt>
      <trkpt lat="49.83183" lon="2.1504">
        <ele>100.7</ele>
        <time>2023-02-22T14:33:06Z</time>
      </trkpt>
      <trkpt lat="49.83183" lon="2.15038">
        <ele>100.8</ele>
        <time>2023-02-22T14:33:07Z</time>
      </trkpt>
      <trkpt lat="49.83183" lon="2.15037">
        <ele>100.8</ele>
        <time>2023-02-22T14:33:08Z</time>
      </trkpt>
      <trkpt lat="49.83182" lon="2.15036">
        <ele>100.8</ele>
        <time>2023-02-22T14:33:10Z</time>
      </trkpt>
      <trkpt lat="49.83182" lon="2.15034">
        <ele>100.8</ele>
        <time>2023-02-22T14:33:11Z</time>
      </trkpt>
      <trkpt lat="49.83181" lon="2.15032">
        <ele>100.8</ele>
        <time>2023-02-22T14:33:12Z</time>
      </trkpt>
      <trkpt lat="49.8318" lon="2.15027">
        <ele>100.9</ele>
        <time>2023-02-22T14:33:14Z</time>
      </trkpt>
      <trkpt lat="49.83179" lon="2.15025">
        <ele>101</ele>
        <time>2023-02-22T14:33:15Z</time>
      </trkpt>
      <trkpt lat="49.83179" lon="2.15022">
        <ele>101</ele>
        <time>2023-02-22T14:33:16Z</time>
      </trkpt>
      <trkpt lat="49.83178" lon="2.15018">
        <ele>101.1</ele>
        <time>2023-02-22T14:33:18Z</time>
      </trkpt>
      <trkpt lat="49.83177" lon="2.15017">
        <ele>101.2</ele>
        <time>2023-02-22T14:33:19Z</time>
      </trkpt>
      <trkpt lat="49.83177" lon="2.15014">
        <ele>101.3</ele>
        <time>2023-02-22T14:33:20Z</time>
      </trkpt>
      <trkpt lat="49.83176" lon="2.15012">
        <ele>101.3</ele>
        <time>2023-02-22T14:33:21Z</time>
      </trkpt>
      <trkpt lat="49.83176" lon="2.1501">
        <ele>101.4</ele>
        <time>2023-02-22T14:33:22Z</time>
      </trkpt>
      <trkpt lat="49.83176" lon="2.15009">
        <ele>101.4</ele>
        <time>2023-02-22T14:33:24Z</time>
      </trkpt>
      <trkpt lat="49.83176" lon="2.15007">
        <ele>101.5</ele>
        <time>2023-02-22T14:33:25Z</time>
      </trkpt>
      <trkpt lat="49.83176" lon="2.15006">
        <ele>101.5</ele>
        <time>2023-02-22T14:33:26Z</time>
      </trkpt>
      <trkpt lat="49.83176" lon="2.15004">
        <ele>101.6</ele>
        <time>2023-02-22T14:33:27Z</time>
      </trkpt>
      <trkpt lat="49.83176" lon="2.15002">
        <ele>101.7</ele>
        <time>2023-02-22T14:33:28Z</time>
      </trkpt>
      <trkpt lat="49.83176" lon="2.15">
        <ele>101.8</ele>
        <time>2023-02-22T14:33:29Z</time>
      </trkpt>
      <trkpt lat="49.83176" lon="2.14999">
        <ele>101.8</ele>
        <time>2023-02-22T14:33:31Z</time>
      </trkpt>
      <trkpt lat="49.83176" lon="2.14998">
        <ele>101.8</ele>
        <time>2023-02-22T14:33:32Z</time>
      </trkpt>
      <trkpt lat="49.83176" lon="2.14997">
        <ele>101.9</ele>
        <time>2023-02-22T14:33:33Z</time>
      </trkpt>
      <trkpt lat="49.83176" lon="2.14995">
        <ele>101.9</ele>
        <time>2023-02-22T14:33:34Z</time>
      </trkpt>
      <trkpt lat="49.83177" lon="2.14993">
        <ele>102</ele>
        <time>2023-02-22T14:33:36Z</time>
      </trkpt>
      <trkpt lat="49.83177" lon="2.14992">
        <ele>102</ele>
        <time>2023-02-22T14:33:37Z</time>
      </trkpt>
      <trkpt lat="49.83177" lon="2.14988">
        <ele>102.2</ele>
        <time>2023-02-22T14:33:38Z</time>
      </trkpt>
      <trkpt lat="49.83177" lon="2.14986">
        <ele>102.2</ele>
        <time>2023-02-22T14:33:39Z</time>
      </trkpt>
      <trkpt lat="49.83177" lon="2.1498">
        <ele>102.4</ele>
        <time>2023-02-22T14:33:40Z</time>
      </trkpt>
      <trkpt lat="49.83176" lon="2.14978">
        <ele>102.5</ele>
        <time>2023-02-22T14:33:41Z</time>
      </trkpt>
      <trkpt lat="49.83176" lon="2.14975">
        <ele>102.6</ele>
        <time>2023-02-22T14:33:43Z</time>
      </trkpt>
      <trkpt lat="49.83176" lon="2.14973">
        <ele>102.6</ele>
        <time>2023-02-22T14:33:44Z</time>
      </trkpt>
      <trkpt lat="49.83176" lon="2.1497">
        <ele>102.7</ele>
        <time>2023-02-22T14:33:45Z</time>
      </trkpt>
      <trkpt lat="49.83176" lon="2.14968">
        <ele>102.8</ele>
        <time>2023-02-22T14:33:46Z</time>
      </trkpt>
      <trkpt lat="49.83176" lon="2.14966">
        <ele>102.8</ele>
        <time>2023-02-22T14:33:47Z</time>
      </trkpt>
      <trkpt lat="49.83176" lon="2.14964">
        <ele>102.9</ele>
        <time>2023-02-22T14:33:49Z</time>
      </trkpt>
      <trkpt lat="49.83175" lon="2.14961">
        <ele>103</ele>
        <time>2023-02-22T14:33:50Z</time>
      </trkpt>
      <trkpt lat="49.83175" lon="2.1496">
        <ele>103</ele>
        <time>2023-02-22T14:33:52Z</time>
      </trkpt>
      <trkpt lat="49.83175" lon="2.14958">
        <ele>103</ele>
        <time>2023-02-22T14:33:53Z</time>
      </trkpt>
      <trkpt lat="49.83175" lon="2.14957">
        <ele>103.1</ele>
        <time>2023-02-22T14:33:54Z</time>
      </trkpt>
      <trkpt lat="49.83175" lon="2.14955">
        <ele>103.1</ele>
        <time>2023-02-22T14:33:55Z</time>
      </trkpt>
      <trkpt lat="49.83174" lon="2.14953">
        <ele>103.2</ele>
        <time>2023-02-22T14:33:57Z</time>
      </trkpt>
      <trkpt lat="49.83174" lon="2.14949">
        <ele>103.3</ele>
        <time>2023-02-22T14:33:58Z</time>
      </trkpt>
      <trkpt lat="49.83173" lon="2.14947">
        <ele>103.3</ele>
        <time>2023-02-22T14:34:00Z</time>
      </trkpt>
      <trkpt lat="49.83172" lon="2.14944">
        <ele>103.4</ele>
        <time>2023-02-22T14:34:01Z</time>
      </trkpt>
      <trkpt lat="49.83172" lon="2.14942">
        <ele>103.5</ele>
        <time>2023-02-22T14:34:02Z</time>
      </trkpt>
      <trkpt lat="49.83172" lon="2.14939">
        <ele>103.6</ele>
        <time>2023-02-22T14:34:03Z</time>
      </trkpt>
      <trkpt lat="49.83171" lon="2.14938">
        <ele>103.6</ele>
        <time>2023-02-22T14:34:05Z</time>
      </trkpt>
      <trkpt lat="49.83171" lon="2.14937">
        <ele>103.7</ele>
        <time>2023-02-22T14:34:06Z</time>
      </trkpt>
      <trkpt lat="49.83171" lon="2.14936">
        <ele>103.7</ele>
        <time>2023-02-22T14:34:07Z</time>
      </trkpt>
      <trkpt lat="49.83171" lon="2.14934">
        <ele>103.7</ele>
        <time>2023-02-22T14:34:08Z</time>
      </trkpt>
      <trkpt lat="49.83171" lon="2.14933">
        <ele>103.8</ele>
        <time>2023-02-22T14:34:09Z</time>
      </trkpt>
      <trkpt lat="49.83171" lon="2.14932">
        <ele>103.8</ele>
        <time>2023-02-22T14:34:10Z</time>
      </trkpt>
      <trkpt lat="49.83171" lon="2.14931">
        <ele>103.8</ele>
        <time>2023-02-22T14:34:11Z</time>
      </trkpt>
      <trkpt lat="49.83171" lon="2.1493">
        <ele>103.9</ele>
        <time>2023-02-22T14:34:13Z</time>
      </trkpt>
      <trkpt lat="49.83171" lon="2.14929">
        <ele>103.9</ele>
        <time>2023-02-22T14:34:14Z</time>
      </trkpt>
      <trkpt lat="49.83171" lon="2.14927">
        <ele>104</ele>
        <time>2023-02-22T14:34:15Z</time>
      </trkpt>
      <trkpt lat="49.8317" lon="2.14924">
        <ele>104.1</ele>
        <time>2023-02-22T14:34:16Z</time>
      </trkpt>
      <trkpt lat="49.83169" lon="2.14923">
        <ele>104.1</ele>
        <time>2023-02-22T14:34:17Z</time>
      </trkpt>
      <trkpt lat="49.83169" lon="2.14921">
        <ele>104.2</ele>
        <time>2023-02-22T14:34:19Z</time>
      </trkpt>
      <trkpt lat="49.83168" lon="2.14919">
        <ele>104.3</ele>
        <time>2023-02-22T14:34:20Z</time>
      </trkpt>
      <trkpt lat="49.83167" lon="2.14918">
        <ele>104.3</ele>
        <time>2023-02-22T14:34:21Z</time>
      </trkpt>
      <trkpt lat="49.83166" lon="2.14913">
        <ele>104.5</ele>
        <time>2023-02-22T14:34:22Z</time>
      </trkpt>
      <trkpt lat="49.83166" lon="2.14911">
        <ele>104.6</ele>
        <time>2023-02-22T14:34:23Z</time>
      </trkpt>
      <trkpt lat="49.83165" lon="2.14906">
        <ele>104.7</ele>
        <time>2023-02-22T14:34:24Z</time>
      </trkpt>
      <trkpt lat="49.83164" lon="2.14904">
        <ele>104.8</ele>
        <time>2023-02-22T14:34:26Z</time>
      </trkpt>
      <trkpt lat="49.83164" lon="2.14902">
        <ele>104.9</ele>
        <time>2023-02-22T14:34:27Z</time>
      </trkpt>
      <trkpt lat="49.83164" lon="2.149">
        <ele>105</ele>
        <time>2023-02-22T14:34:28Z</time>
      </trkpt>
      <trkpt lat="49.83163" lon="2.14896">
        <ele>105.1</ele>
        <time>2023-02-22T14:34:29Z</time>
      </trkpt>
      <trkpt lat="49.83163" lon="2.14895">
        <ele>105.2</ele>
        <time>2023-02-22T14:34:30Z</time>
      </trkpt>
      <trkpt lat="49.83162" lon="2.14891">
        <ele>105.3</ele>
        <time>2023-02-22T14:34:32Z</time>
      </trkpt>
      <trkpt lat="49.83162" lon="2.1489">
        <ele>105.3</ele>
        <time>2023-02-22T14:34:33Z</time>
      </trkpt>
      <trkpt lat="49.83162" lon="2.14889">
        <ele>105.4</ele>
        <time>2023-02-22T14:34:34Z</time>
      </trkpt>
      <trkpt lat="49.83162" lon="2.14886">
        <ele>105.5</ele>
        <time>2023-02-22T14:34:35Z</time>
      </trkpt>
      <trkpt lat="49.83161" lon="2.14884">
        <ele>105.5</ele>
        <time>2023-02-22T14:34:36Z</time>
      </trkpt>
      <trkpt lat="49.83161" lon="2.14883">
        <ele>105.6</ele>
        <time>2023-02-22T14:34:37Z</time>
      </trkpt>
      <trkpt lat="49.83161" lon="2.14881">
        <ele>105.6</ele>
        <time>2023-02-22T14:34:39Z</time>
      </trkpt>
      <trkpt lat="49.8316" lon="2.1488">
        <ele>105.7</ele>
        <time>2023-02-22T14:34:40Z</time>
      </trkpt>
      <trkpt lat="49.8316" lon="2.14877">
        <ele>105.8</ele>
        <time>2023-02-22T14:34:41Z</time>
      </trkpt>
      <trkpt lat="49.83159" lon="2.14876">
        <ele>105.9</ele>
        <time>2023-02-22T14:34:42Z</time>
      </trkpt>
      <trkpt lat="49.83159" lon="2.14874">
        <ele>105.9</ele>
        <time>2023-02-22T14:34:43Z</time>
      </trkpt>
      <trkpt lat="49.83159" lon="2.14873">
        <ele>106</ele>
        <time>2023-02-22T14:34:44Z</time>
      </trkpt>
      <trkpt lat="49.83158" lon="2.14871">
        <ele>106</ele>
        <time>2023-02-22T14:34:46Z</time>
      </trkpt>
      <trkpt lat="49.83158" lon="2.1487">
        <ele>106.1</ele>
        <time>2023-02-22T14:34:47Z</time>
      </trkpt>
      <trkpt lat="49.83158" lon="2.14868">
        <ele>106.1</ele>
        <time>2023-02-22T14:34:48Z</time>
      </trkpt>
      <trkpt lat="49.83158" lon="2.14867">
        <ele>106.2</ele>
        <time>2023-02-22T14:34:49Z</time>
      </trkpt>
      <trkpt lat="49.83157" lon="2.14865">
        <ele>106.3</ele>
        <time>2023-02-22T14:34:51Z</time>
      </trkpt>
      <trkpt lat="49.83157" lon="2.14864">
        <ele>106.3</ele>
        <time>2023-02-22T14:34:52Z</time>
      </trkpt>
      <trkpt lat="49.83157" lon="2.14862">
        <ele>106.3</ele>
        <time>2023-02-22T14:34:53Z</time>
      </trkpt>
      <trkpt lat="49.83157" lon="2.1486">
        <ele>106.4</ele>
        <time>2023-02-22T14:34:54Z</time>
      </trkpt>
      <trkpt lat="49.83157" lon="2.14857">
        <ele>106.5</ele>
        <time>2023-02-22T14:34:55Z</time>
      </trkpt>
      <trkpt lat="49.83158" lon="2.14853">
        <ele>106.6</ele>
        <time>2023-02-22T14:34:57Z</time>
      </trkpt>
      <trkpt lat="49.83158" lon="2.14852">
        <ele>106.7</ele>
        <time>2023-02-22T14:34:58Z</time>
      </trkpt>
      <trkpt lat="49.83158" lon="2.14849">
        <ele>106.8</ele>
        <time>2023-02-22T14:35:00Z</time>
      </trkpt>
      <trkpt lat="49.83158" lon="2.14847">
        <ele>106.9</ele>
        <time>2023-02-22T14:35:01Z</time>
      </trkpt>
      <trkpt lat="49.83158" lon="2.14844">
        <ele>106.9</ele>
        <time>2023-02-22T14:35:02Z</time>
      </trkpt>
      <trkpt lat="49.83158" lon="2.14842">
        <ele>107</ele>
        <time>2023-02-22T14:35:03Z</time>
      </trkpt>
      <trkpt lat="49.83157" lon="2.14838">
        <ele>107.2</ele>
        <time>2023-02-22T14:35:04Z</time>
      </trkpt>
      <trkpt lat="49.83157" lon="2.14837">
        <ele>107.2</ele>
        <time>2023-02-22T14:35:05Z</time>
      </trkpt>
      <trkpt lat="49.83157" lon="2.14834">
        <ele>107.3</ele>
        <time>2023-02-22T14:35:07Z</time>
      </trkpt>
      <trkpt lat="49.83156" lon="2.14832">
        <ele>107.4</ele>
        <time>2023-02-22T14:35:08Z</time>
      </trkpt>
      <trkpt lat="49.83156" lon="2.14831">
        <ele>107.4</ele>
        <time>2023-02-22T14:35:09Z</time>
      </trkpt>
      <trkpt lat="49.83155" lon="2.14828">
        <ele>107.5</ele>
        <time>2023-02-22T14:35:10Z</time>
      </trkpt>
      <trkpt lat="49.83154" lon="2.14826">
        <ele>107.6</ele>
        <time>2023-02-22T14:35:11Z</time>
      </trkpt>
      <trkpt lat="49.83154" lon="2.14824">
        <ele>107.7</ele>
        <time>2023-02-22T14:35:13Z</time>
      </trkpt>
      <trkpt lat="49.83153" lon="2.14823">
        <ele>107.7</ele>
        <time>2023-02-22T14:35:14Z</time>
      </trkpt>
      <trkpt lat="49.83153" lon="2.14822">
        <ele>107.8</ele>
        <time>2023-02-22T14:35:15Z</time>
      </trkpt>
      <trkpt lat="49.83152" lon="2.1482">
        <ele>107.9</ele>
        <time>2023-02-22T14:35:16Z</time>
      </trkpt>
      <trkpt lat="49.83151" lon="2.14818">
        <ele>107.9</ele>
        <time>2023-02-22T14:35:17Z</time>
      </trkpt>
      <trkpt lat="49.83151" lon="2.14817">
        <ele>108</ele>
        <time>2023-02-22T14:35:18Z</time>
      </trkpt>
      <trkpt lat="49.8315" lon="2.14816">
        <ele>108</ele>
        <time>2023-02-22T14:35:20Z</time>
      </trkpt>
      <trkpt lat="49.83149" lon="2.14815">
        <ele>108.1</ele>
        <time>2023-02-22T14:35:21Z</time>
      </trkpt>
      <trkpt lat="49.83149" lon="2.14813">
        <ele>108.1</ele>
        <time>2023-02-22T14:35:22Z</time>
      </trkpt>
      <trkpt lat="49.83149" lon="2.14812">
        <ele>108.2</ele>
        <time>2023-02-22T14:35:23Z</time>
      </trkpt>
      <trkpt lat="49.83148" lon="2.14811">
        <ele>108.2</ele>
        <time>2023-02-22T14:35:24Z</time>
      </trkpt>
      <trkpt lat="49.83148" lon="2.14809">
        <ele>108.3</ele>
        <time>2023-02-22T14:35:26Z</time>
      </trkpt>
      <trkpt lat="49.83147" lon="2.14809">
        <ele>108.3</ele>
        <time>2023-02-22T14:35:27Z</time>
      </trkpt>
      <trkpt lat="49.83147" lon="2.14808">
        <ele>108.3</ele>
        <time>2023-02-22T14:35:28Z</time>
      </trkpt>
      <trkpt lat="49.83147" lon="2.14807">
        <ele>108.4</ele>
        <time>2023-02-22T14:35:29Z</time>
      </trkpt>
      <trkpt lat="49.83147" lon="2.14806">
        <ele>108.4</ele>
        <time>2023-02-22T14:35:30Z</time>
      </trkpt>
      <trkpt lat="49.83147" lon="2.14805">
        <ele>108.5</ele>
        <time>2023-02-22T14:35:31Z</time>
      </trkpt>
      <trkpt lat="49.83147" lon="2.14804">
        <ele>108.5</ele>
        <time>2023-02-22T14:35:32Z</time>
      </trkpt>
      <trkpt lat="49.83147" lon="2.14803">
        <ele>108.6</ele>
        <time>2023-02-22T14:35:33Z</time>
      </trkpt>
      <trkpt lat="49.83147" lon="2.14802">
        <ele>108.6</ele>
        <time>2023-02-22T14:35:35Z</time>
      </trkpt>
      <trkpt lat="49.83147" lon="2.14801">
        <ele>108.6</ele>
        <time>2023-02-22T14:35:36Z</time>
      </trkpt>
      <trkpt lat="49.83147" lon="2.148">
        <ele>108.7</ele>
        <time>2023-02-22T14:35:37Z</time>
      </trkpt>
      <trkpt lat="49.83146" lon="2.14799">
        <ele>108.7</ele>
        <time>2023-02-22T14:35:38Z</time>
      </trkpt>
      <trkpt lat="49.83146" lon="2.14798">
        <ele>108.8</ele>
        <time>2023-02-22T14:35:40Z</time>
      </trkpt>
      <trkpt lat="49.83146" lon="2.14797">
        <ele>108.8</ele>
        <time>2023-02-22T14:35:41Z</time>
      </trkpt>
      <trkpt lat="49.83146" lon="2.14796">
        <ele>108.9</ele>
        <time>2023-02-22T14:35:42Z</time>
      </trkpt>
      <trkpt lat="49.83145" lon="2.14794">
        <ele>109</ele>
        <time>2023-02-22T14:35:43Z</time>
      </trkpt>
      <trkpt lat="49.83145" lon="2.14793">
        <ele>109</ele>
        <time>2023-02-22T14:35:44Z</time>
      </trkpt>
      <trkpt lat="49.83145" lon="2.14791">
        <ele>109.1</ele>
        <time>2023-02-22T14:35:45Z</time>
      </trkpt>
      <trkpt lat="49.83145" lon="2.1479">
        <ele>109.1</ele>
        <time>2023-02-22T14:35:46Z</time>
      </trkpt>
      <trkpt lat="49.83145" lon="2.14789">
        <ele>109.2</ele>
        <time>2023-02-22T14:35:48Z</time>
      </trkpt>
      <trkpt lat="49.83145" lon="2.14787">
        <ele>109.2</ele>
        <time>2023-02-22T14:35:49Z</time>
      </trkpt>
      <trkpt lat="49.83145" lon="2.14785">
        <ele>109.3</ele>
        <time>2023-02-22T14:35:50Z</time>
      </trkpt>
      <trkpt lat="49.83144" lon="2.14783">
        <ele>109.4</ele>
        <time>2023-02-22T14:35:51Z</time>
      </trkpt>
      <trkpt lat="49.83144" lon="2.14782">
        <ele>109.5</ele>
        <time>2023-02-22T14:35:52Z</time>
      </trkpt>
      <trkpt lat="49.83144" lon="2.1478">
        <ele>109.5</ele>
        <time>2023-02-22T14:35:54Z</time>
      </trkpt>
      <trkpt lat="49.83144" lon="2.14779">
        <ele>109.6</ele>
        <time>2023-02-22T14:35:55Z</time>
      </trkpt>
      <trkpt lat="49.83144" lon="2.14776">
        <ele>109.7</ele>
        <time>2023-02-22T14:35:56Z</time>
      </trkpt>
      <trkpt lat="49.83144" lon="2.14775">
        <ele>109.7</ele>
        <time>2023-02-22T14:35:57Z</time>
      </trkpt>
      <trkpt lat="49.83144" lon="2.14773">
        <ele>109.8</ele>
        <time>2023-02-22T14:35:58Z</time>
      </trkpt>
      <trkpt lat="49.83144" lon="2.14772">
        <ele>109.9</ele>
        <time>2023-02-22T14:35:59Z</time>
      </trkpt>
      <trkpt lat="49.83143" lon="2.14769">
        <ele>110</ele>
        <time>2023-02-22T14:36:01Z</time>
      </trkpt>
      <trkpt lat="49.83143" lon="2.14766">
        <ele>110.1</ele>
        <time>2023-02-22T14:36:02Z</time>
      </trkpt>
      <trkpt lat="49.83143" lon="2.14765">
        <ele>110.2</ele>
        <time>2023-02-22T14:36:03Z</time>
      </trkpt>
      <trkpt lat="49.83143" lon="2.14763">
        <ele>110.2</ele>
        <time>2023-02-22T14:36:04Z</time>
      </trkpt>
      <trkpt lat="49.83143" lon="2.14761">
        <ele>110.3</ele>
        <time>2023-02-22T14:36:05Z</time>
      </trkpt>
      <trkpt lat="49.83142" lon="2.14758">
        <ele>110.4</ele>
        <time>2023-02-22T14:36:07Z</time>
      </trkpt>
      <trkpt lat="49.83142" lon="2.14756">
        <ele>110.5</ele>
        <time>2023-02-22T14:36:08Z</time>
      </trkpt>
      <trkpt lat="49.83142" lon="2.14754">
        <ele>110.6</ele>
        <time>2023-02-22T14:36:09Z</time>
      </trkpt>
      <trkpt lat="49.83141" lon="2.1475">
        <ele>110.8</ele>
        <time>2023-02-22T14:36:10Z</time>
      </trkpt>
      <trkpt lat="49.83141" lon="2.14748">
        <ele>110.9</ele>
        <time>2023-02-22T14:36:11Z</time>
      </trkpt>
      <trkpt lat="49.83141" lon="2.14746">
        <ele>111</ele>
        <time>2023-02-22T14:36:13Z</time>
      </trkpt>
      <trkpt lat="49.83141" lon="2.14744">
        <ele>111.1</ele>
        <time>2023-02-22T14:36:14Z</time>
      </trkpt>
      <trkpt lat="49.83141" lon="2.14742">
        <ele>111.2</ele>
        <time>2023-02-22T14:36:15Z</time>
      </trkpt>
      <trkpt lat="49.83141" lon="2.14739">
        <ele>111.3</ele>
        <time>2023-02-22T14:36:16Z</time>
      </trkpt>
      <trkpt lat="49.8314" lon="2.14736">
        <ele>111.5</ele>
        <time>2023-02-22T14:36:17Z</time>
      </trkpt>
      <trkpt lat="49.8314" lon="2.14735">
        <ele>111.5</ele>
        <time>2023-02-22T14:36:18Z</time>
      </trkpt>
      <trkpt lat="49.8314" lon="2.14733">
        <ele>111.6</ele>
        <time>2023-02-22T14:36:20Z</time>
      </trkpt>
      <trkpt lat="49.83139" lon="2.14732">
        <ele>111.7</ele>
        <time>2023-02-22T14:36:21Z</time>
      </trkpt>
      <trkpt lat="49.83139" lon="2.1473">
        <ele>111.8</ele>
        <time>2023-02-22T14:36:22Z</time>
      </trkpt>
      <trkpt lat="49.83139" lon="2.14728">
        <ele>111.8</ele>
        <time>2023-02-22T14:36:23Z</time>
      </trkpt>
      <trkpt lat="49.83138" lon="2.14727">
        <ele>111.9</ele>
        <time>2023-02-22T14:36:24Z</time>
      </trkpt>
      <trkpt lat="49.83138" lon="2.14726">
        <ele>112</ele>
        <time>2023-02-22T14:36:25Z</time>
      </trkpt>
      <trkpt lat="49.83138" lon="2.14724">
        <ele>112.1</ele>
        <time>2023-02-22T14:36:26Z</time>
      </trkpt>
      <trkpt lat="49.83137" lon="2.14721">
        <ele>112.2</ele>
        <time>2023-02-22T14:36:27Z</time>
      </trkpt>
      <trkpt lat="49.83137" lon="2.1472">
        <ele>112.2</ele>
        <time>2023-02-22T14:36:29Z</time>
      </trkpt>
      <trkpt lat="49.83137" lon="2.14719">
        <ele>112.3</ele>
        <time>2023-02-22T14:36:30Z</time>
      </trkpt>
      <trkpt lat="49.83137" lon="2.14719">
        <ele>112.3</ele>
        <time>2023-02-22T14:36:31Z</time>
      </trkpt>
      <trkpt lat="49.83136" lon="2.14717">
        <ele>112.4</ele>
        <time>2023-02-22T14:36:32Z</time>
      </trkpt>
      <trkpt lat="49.83136" lon="2.14716">
        <ele>112.5</ele>
        <time>2023-02-22T14:36:33Z</time>
      </trkpt>
      <trkpt lat="49.83136" lon="2.14715">
        <ele>112.5</ele>
        <time>2023-02-22T14:36:35Z</time>
      </trkpt>
      <trkpt lat="49.83136" lon="2.14713">
        <ele>112.6</ele>
        <time>2023-02-22T14:36:36Z</time>
      </trkpt>
      <trkpt lat="49.83136" lon="2.14712">
        <ele>112.7</ele>
        <time>2023-02-22T14:36:37Z</time>
      </trkpt>
      <trkpt lat="49.83136" lon="2.14711">
        <ele>112.7</ele>
        <time>2023-02-22T14:36:38Z</time>
      </trkpt>
      <trkpt lat="49.83135" lon="2.14709">
        <ele>112.8</ele>
        <time>2023-02-22T14:36:39Z</time>
      </trkpt>
      <trkpt lat="49.83135" lon="2.14708">
        <ele>112.9</ele>
        <time>2023-02-22T14:36:40Z</time>
      </trkpt>
      <trkpt lat="49.83135" lon="2.14707">
        <ele>112.9</ele>
        <time>2023-02-22T14:36:41Z</time>
      </trkpt>
      <trkpt lat="49.83135" lon="2.14705">
        <ele>113</ele>
        <time>2023-02-22T14:36:42Z</time>
      </trkpt>
      <trkpt lat="49.83135" lon="2.14704">
        <ele>113.1</ele>
        <time>2023-02-22T14:36:44Z</time>
      </trkpt>
      <trkpt lat="49.83135" lon="2.14702">
        <ele>113.1</ele>
        <time>2023-02-22T14:36:45Z</time>
      </trkpt>
      <trkpt lat="49.83134" lon="2.147">
        <ele>113.2</ele>
        <time>2023-02-22T14:36:46Z</time>
      </trkpt>
      <trkpt lat="49.83134" lon="2.14699">
        <ele>113.3</ele>
        <time>2023-02-22T14:36:47Z</time>
      </trkpt>
      <trkpt lat="49.83134" lon="2.14698">
        <ele>113.3</ele>
        <time>2023-02-22T14:36:48Z</time>
      </trkpt>
      <trkpt lat="49.83134" lon="2.14696">
        <ele>113.4</ele>
        <time>2023-02-22T14:36:50Z</time>
      </trkpt>
      <trkpt lat="49.83134" lon="2.14694">
        <ele>113.5</ele>
        <time>2023-02-22T14:36:51Z</time>
      </trkpt>
      <trkpt lat="49.83133" lon="2.14691">
        <ele>113.6</ele>
        <time>2023-02-22T14:36:52Z</time>
      </trkpt>
      <trkpt lat="49.83133" lon="2.1469">
        <ele>113.7</ele>
        <time>2023-02-22T14:36:53Z</time>
      </trkpt>
      <trkpt lat="49.83133" lon="2.14688">
        <ele>113.7</ele>
        <time>2023-02-22T14:36:54Z</time>
      </trkpt>
      <trkpt lat="49.83133" lon="2.14687">
        <ele>113.8</ele>
        <time>2023-02-22T14:36:55Z</time>
      </trkpt>
      <trkpt lat="49.83132" lon="2.14685">
        <ele>113.9</ele>
        <time>2023-02-22T14:36:57Z</time>
      </trkpt>
      <trkpt lat="49.83132" lon="2.14683">
        <ele>114</ele>
        <time>2023-02-22T14:36:58Z</time>
      </trkpt>
      <trkpt lat="49.83132" lon="2.1468">
        <ele>114.1</ele>
        <time>2023-02-22T14:36:59Z</time>
      </trkpt>
      <trkpt lat="49.83132" lon="2.14679">
        <ele>114.2</ele>
        <time>2023-02-22T14:37:00Z</time>
      </trkpt>
      <trkpt lat="49.83131" lon="2.14678">
        <ele>114.2</ele>
        <time>2023-02-22T14:37:01Z</time>
      </trkpt>
      <trkpt lat="49.83131" lon="2.14676">
        <ele>114.3</ele>
        <time>2023-02-22T14:37:02Z</time>
      </trkpt>
      <trkpt lat="49.83131" lon="2.14674">
        <ele>114.4</ele>
        <time>2023-02-22T14:37:04Z</time>
      </trkpt>
      <trkpt lat="49.83131" lon="2.14673">
        <ele>114.4</ele>
        <time>2023-02-22T14:37:05Z</time>
      </trkpt>
      <trkpt lat="49.83131" lon="2.14672">
        <ele>114.5</ele>
        <time>2023-02-22T14:37:06Z</time>
      </trkpt>
      <trkpt lat="49.83131" lon="2.14671">
        <ele>114.5</ele>
        <time>2023-02-22T14:37:07Z</time>
      </trkpt>
      <trkpt lat="49.83131" lon="2.14669">
        <ele>114.6</ele>
        <time>2023-02-22T14:37:08Z</time>
      </trkpt>
      <trkpt lat="49.8313" lon="2.14668">
        <ele>114.7</ele>
        <time>2023-02-22T14:37:09Z</time>
      </trkpt>
      <trkpt lat="49.8313" lon="2.14666">
        <ele>114.7</ele>
        <time>2023-02-22T14:37:11Z</time>
      </trkpt>
      <trkpt lat="49.8313" lon="2.14664">
        <ele>114.8</ele>
        <time>2023-02-22T14:37:12Z</time>
      </trkpt>
      <trkpt lat="49.8313" lon="2.14663">
        <ele>114.9</ele>
        <time>2023-02-22T14:37:13Z</time>
      </trkpt>
      <trkpt lat="49.83129" lon="2.14661">
        <ele>115</ele>
        <time>2023-02-22T14:37:14Z</time>
      </trkpt>
      <trkpt lat="49.83129" lon="2.1466">
        <ele>115</ele>
        <time>2023-02-22T14:37:15Z</time>
      </trkpt>
      <trkpt lat="49.83129" lon="2.14657">
        <ele>115.1</ele>
        <time>2023-02-22T14:37:17Z</time>
      </trkpt>
      <trkpt lat="49.83128" lon="2.14656">
        <ele>115.2</ele>
        <time>2023-02-22T14:37:18Z</time>
      </trkpt>
      <trkpt lat="49.83128" lon="2.14653">
        <ele>115.3</ele>
        <time>2023-02-22T14:37:19Z</time>
      </trkpt>
      <trkpt lat="49.83127" lon="2.14652">
        <ele>115.3</ele>
        <time>2023-02-22T14:37:20Z</time>
      </trkpt>
      <trkpt lat="49.83127" lon="2.14651">
        <ele>115.4</ele>
        <time>2023-02-22T14:37:21Z</time>
      </trkpt>
      <trkpt lat="49.83126" lon="2.14648">
        <ele>115.5</ele>
        <time>2023-02-22T14:37:22Z</time>
      </trkpt>
      <trkpt lat="49.83126" lon="2.14647">
        <ele>115.5</ele>
        <time>2023-02-22T14:37:23Z</time>
      </trkpt>
      <trkpt lat="49.83126" lon="2.14646">
        <ele>115.6</ele>
        <time>2023-02-22T14:37:25Z</time>
      </trkpt>
      <trkpt lat="49.83126" lon="2.14644">
        <ele>115.7</ele>
        <time>2023-02-22T14:37:26Z</time>
      </trkpt>
      <trkpt lat="49.83125" lon="2.14643">
        <ele>115.7</ele>
        <time>2023-02-22T14:37:27Z</time>
      </trkpt>
      <trkpt lat="49.83125" lon="2.14641">
        <ele>115.8</ele>
        <time>2023-02-22T14:37:28Z</time>
      </trkpt>
      <trkpt lat="49.83125" lon="2.14638">
        <ele>115.8</ele>
        <time>2023-02-22T14:37:29Z</time>
      </trkpt>
      <trkpt lat="49.83125" lon="2.14637">
        <ele>115.9</ele>
        <time>2023-02-22T14:37:30Z</time>
      </trkpt>
      <trkpt lat="49.83125" lon="2.14635">
        <ele>115.9</ele>
        <time>2023-02-22T14:37:31Z</time>
      </trkpt>
      <trkpt lat="49.83125" lon="2.14633">
        <ele>115.9</ele>
        <time>2023-02-22T14:37:33Z</time>
      </trkpt>
      <trkpt lat="49.83124" lon="2.14631">
        <ele>116</ele>
        <time>2023-02-22T14:37:34Z</time>
      </trkpt>
      <trkpt lat="49.83123" lon="2.14627">
        <ele>116.1</ele>
        <time>2023-02-22T14:37:35Z</time>
      </trkpt>
      <trkpt lat="49.83123" lon="2.14625">
        <ele>116.1</ele>
        <time>2023-02-22T14:37:36Z</time>
      </trkpt>
      <trkpt lat="49.83123" lon="2.14624">
        <ele>116.1</ele>
        <time>2023-02-22T14:37:37Z</time>
      </trkpt>
      <trkpt lat="49.83122" lon="2.14622">
        <ele>116.2</ele>
        <time>2023-02-22T14:37:38Z</time>
      </trkpt>
      <trkpt lat="49.83122" lon="2.1462">
        <ele>116.2</ele>
        <time>2023-02-22T14:37:40Z</time>
      </trkpt>
      <trkpt lat="49.83122" lon="2.14618">
        <ele>116.3</ele>
        <time>2023-02-22T14:37:41Z</time>
      </trkpt>
      <trkpt lat="49.83121" lon="2.14615">
        <ele>116.4</ele>
        <time>2023-02-22T14:37:42Z</time>
      </trkpt>
      <trkpt lat="49.83121" lon="2.14614">
        <ele>116.4</ele>
        <time>2023-02-22T14:37:43Z</time>
      </trkpt>
      <trkpt lat="49.8312" lon="2.14612">
        <ele>116.4</ele>
        <time>2023-02-22T14:37:44Z</time>
      </trkpt>
      <trkpt lat="49.8312" lon="2.14611">
        <ele>116.5</ele>
        <time>2023-02-22T14:37:45Z</time>
      </trkpt>
      <trkpt lat="49.8312" lon="2.14609">
        <ele>116.5</ele>
        <time>2023-02-22T14:37:47Z</time>
      </trkpt>
      <trkpt lat="49.83119" lon="2.14608">
        <ele>116.6</ele>
        <time>2023-02-22T14:37:48Z</time>
      </trkpt>
      <trkpt lat="49.83119" lon="2.14606">
        <ele>116.6</ele>
        <time>2023-02-22T14:37:49Z</time>
      </trkpt>
      <trkpt lat="49.83119" lon="2.14604">
        <ele>116.7</ele>
        <time>2023-02-22T14:37:50Z</time>
      </trkpt>
      <trkpt lat="49.83118" lon="2.14602">
        <ele>116.7</ele>
        <time>2023-02-22T14:37:51Z</time>
      </trkpt>
      <trkpt lat="49.83118" lon="2.14601">
        <ele>116.8</ele>
        <time>2023-02-22T14:37:52Z</time>
      </trkpt>
      <trkpt lat="49.83118" lon="2.146">
        <ele>116.8</ele>
        <time>2023-02-22T14:37:54Z</time>
      </trkpt>
      <trkpt lat="49.83117" lon="2.14598">
        <ele>116.9</ele>
        <time>2023-02-22T14:37:55Z</time>
      </trkpt>
      <trkpt lat="49.83117" lon="2.14596">
        <ele>116.9</ele>
        <time>2023-02-22T14:37:56Z</time>
      </trkpt>
      <trkpt lat="49.83116" lon="2.14592">
        <ele>117</ele>
        <time>2023-02-22T14:37:57Z</time>
      </trkpt>
      <trkpt lat="49.83116" lon="2.14591">
        <ele>117.1</ele>
        <time>2023-02-22T14:37:58Z</time>
      </trkpt>
      <trkpt lat="49.83116" lon="2.1459">
        <ele>117.1</ele>
        <time>2023-02-22T14:37:59Z</time>
      </trkpt>
      <trkpt lat="49.83116" lon="2.14587">
        <ele>117.2</ele>
        <time>2023-02-22T14:38:01Z</time>
      </trkpt>
      <trkpt lat="49.83115" lon="2.14586">
        <ele>117.2</ele>
        <time>2023-02-22T14:38:02Z</time>
      </trkpt>
      <trkpt lat="49.83115" lon="2.14585">
        <ele>117.3</ele>
        <time>2023-02-22T14:38:03Z</time>
      </trkpt>
      <trkpt lat="49.83115" lon="2.14581">
        <ele>117.4</ele>
        <time>2023-02-22T14:38:04Z</time>
      </trkpt>
      <trkpt lat="49.83114" lon="2.1458">
        <ele>117.4</ele>
        <time>2023-02-22T14:38:05Z</time>
      </trkpt>
      <trkpt lat="49.83114" lon="2.14579">
        <ele>117.4</ele>
        <time>2023-02-22T14:38:06Z</time>
      </trkpt>
      <trkpt lat="49.83114" lon="2.14577">
        <ele>117.5</ele>
        <time>2023-02-22T14:38:08Z</time>
      </trkpt>
      <trkpt lat="49.83114" lon="2.14576">
        <ele>117.5</ele>
        <time>2023-02-22T14:38:09Z</time>
      </trkpt>
      <trkpt lat="49.83113" lon="2.14574">
        <ele>117.6</ele>
        <time>2023-02-22T14:38:10Z</time>
      </trkpt>
      <trkpt lat="49.83113" lon="2.14572">
        <ele>117.6</ele>
        <time>2023-02-22T14:38:11Z</time>
      </trkpt>
      <trkpt lat="49.83112" lon="2.1457">
        <ele>117.6</ele>
        <time>2023-02-22T14:38:12Z</time>
      </trkpt>
      <trkpt lat="49.83112" lon="2.14569">
        <ele>117.7</ele>
        <time>2023-02-22T14:38:13Z</time>
      </trkpt>
      <trkpt lat="49.83112" lon="2.14567">
        <ele>117.7</ele>
        <time>2023-02-22T14:38:15Z</time>
      </trkpt>
      <trkpt lat="49.83112" lon="2.14566">
        <ele>117.7</ele>
        <time>2023-02-22T14:38:16Z</time>
      </trkpt>
      <trkpt lat="49.83111" lon="2.14564">
        <ele>117.8</ele>
        <time>2023-02-22T14:38:17Z</time>
      </trkpt>
      <trkpt lat="49.83111" lon="2.14563">
        <ele>117.8</ele>
        <time>2023-02-22T14:38:18Z</time>
      </trkpt>
      <trkpt lat="49.83111" lon="2.14562">
        <ele>117.8</ele>
        <time>2023-02-22T14:38:19Z</time>
      </trkpt>
      <trkpt lat="49.83111" lon="2.1456">
        <ele>117.9</ele>
        <time>2023-02-22T14:38:20Z</time>
      </trkpt>
      <trkpt lat="49.83111" lon="2.14558">
        <ele>117.9</ele>
        <time>2023-02-22T14:38:21Z</time>
      </trkpt>
      <trkpt lat="49.83111" lon="2.14557">
        <ele>117.9</ele>
        <time>2023-02-22T14:38:22Z</time>
      </trkpt>
      <trkpt lat="49.83111" lon="2.14556">
        <ele>117.9</ele>
        <time>2023-02-22T14:38:24Z</time>
      </trkpt>
      <trkpt lat="49.8311" lon="2.14554">
        <ele>118</ele>
        <time>2023-02-22T14:38:25Z</time>
      </trkpt>
      <trkpt lat="49.8311" lon="2.14553">
        <ele>118</ele>
        <time>2023-02-22T14:38:26Z</time>
      </trkpt>
      <trkpt lat="49.8311" lon="2.14551">
        <ele>118</ele>
        <time>2023-02-22T14:38:27Z</time>
      </trkpt>
      <trkpt lat="49.8311" lon="2.1455">
        <ele>118.1</ele>
        <time>2023-02-22T14:38:28Z</time>
      </trkpt>
      <trkpt lat="49.83109" lon="2.14548">
        <ele>118.1</ele>
        <time>2023-02-22T14:38:30Z</time>
      </trkpt>
      <trkpt lat="49.83109" lon="2.14547">
        <ele>118.1</ele>
        <time>2023-02-22T14:38:31Z</time>
      </trkpt>
      <trkpt lat="49.83109" lon="2.14545">
        <ele>118.1</ele>
        <time>2023-02-22T14:38:32Z</time>
      </trkpt>
      <trkpt lat="49.83108" lon="2.14545">
        <ele>118.1</ele>
        <time>2023-02-22T14:38:33Z</time>
      </trkpt>
      <trkpt lat="49.83108" lon="2.14543">
        <ele>118.2</ele>
        <time>2023-02-22T14:38:34Z</time>
      </trkpt>
      <trkpt lat="49.83107" lon="2.14539">
        <ele>118.2</ele>
        <time>2023-02-22T14:38:35Z</time>
      </trkpt>
      <trkpt lat="49.83107" lon="2.14538">
        <ele>118.2</ele>
        <time>2023-02-22T14:38:36Z</time>
      </trkpt>
      <trkpt lat="49.83107" lon="2.14537">
        <ele>118.2</ele>
        <time>2023-02-22T14:38:37Z</time>
      </trkpt>
      <trkpt lat="49.83106" lon="2.14535">
        <ele>118.3</ele>
        <time>2023-02-22T14:38:38Z</time>
      </trkpt>
      <trkpt lat="49.83106" lon="2.14533">
        <ele>118.3</ele>
        <time>2023-02-22T14:38:39Z</time>
      </trkpt>
      <trkpt lat="49.83106" lon="2.14531">
        <ele>118.3</ele>
        <time>2023-02-22T14:38:41Z</time>
      </trkpt>
      <trkpt lat="49.83105" lon="2.14527">
        <ele>118.4</ele>
        <time>2023-02-22T14:38:42Z</time>
      </trkpt>
      <trkpt lat="49.83104" lon="2.14525">
        <ele>118.4</ele>
        <time>2023-02-22T14:38:44Z</time>
      </trkpt>
      <trkpt lat="49.83104" lon="2.14522">
        <ele>118.4</ele>
        <time>2023-02-22T14:38:45Z</time>
      </trkpt>
      <trkpt lat="49.83103" lon="2.1452">
        <ele>118.5</ele>
        <time>2023-02-22T14:38:46Z</time>
      </trkpt>
      <trkpt lat="49.83103" lon="2.14517">
        <ele>118.5</ele>
        <time>2023-02-22T14:38:47Z</time>
      </trkpt>
      <trkpt lat="49.83103" lon="2.14515">
        <ele>118.5</ele>
        <time>2023-02-22T14:38:48Z</time>
      </trkpt>
      <trkpt lat="49.83102" lon="2.14512">
        <ele>118.5</ele>
        <time>2023-02-22T14:38:49Z</time>
      </trkpt>
      <trkpt lat="49.83102" lon="2.1451">
        <ele>118.6</ele>
        <time>2023-02-22T14:38:51Z</time>
      </trkpt>
      <trkpt lat="49.83101" lon="2.14508">
        <ele>118.6</ele>
        <time>2023-02-22T14:38:52Z</time>
      </trkpt>
      <trkpt lat="49.83101" lon="2.14506">
        <ele>118.6</ele>
        <time>2023-02-22T14:38:53Z</time>
      </trkpt>
      <trkpt lat="49.83101" lon="2.14504">
        <ele>118.6</ele>
        <time>2023-02-22T14:38:54Z</time>
      </trkpt>
      <trkpt lat="49.83101" lon="2.14502">
        <ele>118.7</ele>
        <time>2023-02-22T14:38:55Z</time>
      </trkpt>
      <trkpt lat="49.831" lon="2.14499">
        <ele>118.7</ele>
        <time>2023-02-22T14:38:56Z</time>
      </trkpt>
      <trkpt lat="49.831" lon="2.14497">
        <ele>118.7</ele>
        <time>2023-02-22T14:38:57Z</time>
      </trkpt>
      <trkpt lat="49.831" lon="2.14493">
        <ele>118.7</ele>
        <time>2023-02-22T14:38:58Z</time>
      </trkpt>
      <trkpt lat="49.831" lon="2.14492">
        <ele>118.8</ele>
        <time>2023-02-22T14:38:59Z</time>
      </trkpt>
      <trkpt lat="49.83099" lon="2.14491">
        <ele>118.8</ele>
        <time>2023-02-22T14:39:00Z</time>
      </trkpt>
      <trkpt lat="49.83099" lon="2.14488">
        <ele>118.8</ele>
        <time>2023-02-22T14:39:02Z</time>
      </trkpt>
      <trkpt lat="49.83098" lon="2.14486">
        <ele>118.8</ele>
        <time>2023-02-22T14:39:03Z</time>
      </trkpt>
      <trkpt lat="49.83098" lon="2.14484">
        <ele>118.8</ele>
        <time>2023-02-22T14:39:04Z</time>
      </trkpt>
      <trkpt lat="49.83097" lon="2.14482">
        <ele>118.9</ele>
        <time>2023-02-22T14:39:05Z</time>
      </trkpt>
      <trkpt lat="49.83097" lon="2.1448">
        <ele>118.9</ele>
        <time>2023-02-22T14:39:06Z</time>
      </trkpt>
      <trkpt lat="49.83096" lon="2.14477">
        <ele>118.9</ele>
        <time>2023-02-22T14:39:07Z</time>
      </trkpt>
      <trkpt lat="49.83095" lon="2.14475">
        <ele>118.9</ele>
        <time>2023-02-22T14:39:09Z</time>
      </trkpt>
      <trkpt lat="49.83095" lon="2.14473">
        <ele>119</ele>
        <time>2023-02-22T14:39:10Z</time>
      </trkpt>
      <trkpt lat="49.83094" lon="2.14471">
        <ele>119</ele>
        <time>2023-02-22T14:39:11Z</time>
      </trkpt>
      <trkpt lat="49.83094" lon="2.14468">
        <ele>119</ele>
        <time>2023-02-22T14:39:12Z</time>
      </trkpt>
      <trkpt lat="49.83094" lon="2.14466">
        <ele>119</ele>
        <time>2023-02-22T14:39:13Z</time>
      </trkpt>
      <trkpt lat="49.83093" lon="2.14465">
        <ele>119.1</ele>
        <time>2023-02-22T14:39:14Z</time>
      </trkpt>
      <trkpt lat="49.83093" lon="2.14463">
        <ele>119.1</ele>
        <time>2023-02-22T14:39:15Z</time>
      </trkpt>
      <trkpt lat="49.83093" lon="2.14462">
        <ele>119.1</ele>
        <time>2023-02-22T14:39:16Z</time>
      </trkpt>
      <trkpt lat="49.83093" lon="2.1446">
        <ele>119.1</ele>
        <time>2023-02-22T14:39:18Z</time>
      </trkpt>
      <trkpt lat="49.83093" lon="2.14458">
        <ele>119.1</ele>
        <time>2023-02-22T14:39:19Z</time>
      </trkpt>
      <trkpt lat="49.83092" lon="2.14457">
        <ele>119.1</ele>
        <time>2023-02-22T14:39:20Z</time>
      </trkpt>
      <trkpt lat="49.83092" lon="2.14455">
        <ele>119.2</ele>
        <time>2023-02-22T14:39:21Z</time>
      </trkpt>
      <trkpt lat="49.83092" lon="2.14453">
        <ele>119.2</ele>
        <time>2023-02-22T14:39:22Z</time>
      </trkpt>
      <trkpt lat="49.83092" lon="2.14452">
        <ele>119.2</ele>
        <time>2023-02-22T14:39:23Z</time>
      </trkpt>
      <trkpt lat="49.83092" lon="2.1445">
        <ele>119.2</ele>
        <time>2023-02-22T14:39:24Z</time>
      </trkpt>
      <trkpt lat="49.83092" lon="2.14449">
        <ele>119.2</ele>
        <time>2023-02-22T14:39:25Z</time>
      </trkpt>
      <trkpt lat="49.83092" lon="2.14446">
        <ele>119.3</ele>
        <time>2023-02-22T14:39:27Z</time>
      </trkpt>
      <trkpt lat="49.83092" lon="2.14445">
        <ele>119.3</ele>
        <time>2023-02-22T14:39:28Z</time>
      </trkpt>
      <trkpt lat="49.83092" lon="2.14443">
        <ele>119.3</ele>
        <time>2023-02-22T14:39:29Z</time>
      </trkpt>
      <trkpt lat="49.83092" lon="2.1444">
        <ele>119.3</ele>
        <time>2023-02-22T14:39:30Z</time>
      </trkpt>
      <trkpt lat="49.83092" lon="2.14439">
        <ele>119.3</ele>
        <time>2023-02-22T14:39:31Z</time>
      </trkpt>
      <trkpt lat="49.83092" lon="2.14437">
        <ele>119.4</ele>
        <time>2023-02-22T14:39:32Z</time>
      </trkpt>
      <trkpt lat="49.83092" lon="2.14434">
        <ele>119.4</ele>
        <time>2023-02-22T14:39:33Z</time>
      </trkpt>
      <trkpt lat="49.83092" lon="2.14433">
        <ele>119.4</ele>
        <time>2023-02-22T14:39:34Z</time>
      </trkpt>
      <trkpt lat="49.83092" lon="2.14432">
        <ele>119.4</ele>
        <time>2023-02-22T14:39:35Z</time>
      </trkpt>
      <trkpt lat="49.83092" lon="2.14429">
        <ele>119.5</ele>
        <time>2023-02-22T14:39:37Z</time>
      </trkpt>
      <trkpt lat="49.83092" lon="2.14427">
        <ele>119.5</ele>
        <time>2023-02-22T14:39:38Z</time>
      </trkpt>
      <trkpt lat="49.83091" lon="2.14425">
        <ele>119.5</ele>
        <time>2023-02-22T14:39:39Z</time>
      </trkpt>
      <trkpt lat="49.83091" lon="2.14423">
        <ele>119.5</ele>
        <time>2023-02-22T14:39:40Z</time>
      </trkpt>
      <trkpt lat="49.83091" lon="2.14422">
        <ele>119.6</ele>
        <time>2023-02-22T14:39:41Z</time>
      </trkpt>
      <trkpt lat="49.8309" lon="2.14419">
        <ele>119.6</ele>
        <time>2023-02-22T14:39:42Z</time>
      </trkpt>
      <trkpt lat="49.8309" lon="2.14418">
        <ele>119.6</ele>
        <time>2023-02-22T14:39:44Z</time>
      </trkpt>
      <trkpt lat="49.8309" lon="2.14417">
        <ele>119.6</ele>
        <time>2023-02-22T14:39:45Z</time>
      </trkpt>
      <trkpt lat="49.8309" lon="2.14415">
        <ele>119.6</ele>
        <time>2023-02-22T14:39:46Z</time>
      </trkpt>
      <trkpt lat="49.8309" lon="2.14413">
        <ele>119.7</ele>
        <time>2023-02-22T14:39:48Z</time>
      </trkpt>
      <trkpt lat="49.83089" lon="2.14412">
        <ele>119.7</ele>
        <time>2023-02-22T14:39:49Z</time>
      </trkpt>
      <trkpt lat="49.83089" lon="2.14411">
        <ele>119.7</ele>
        <time>2023-02-22T14:39:50Z</time>
      </trkpt>
      <trkpt lat="49.83089" lon="2.1441">
        <ele>119.7</ele>
        <time>2023-02-22T14:39:51Z</time>
      </trkpt>
      <trkpt lat="49.83089" lon="2.14408">
        <ele>119.7</ele>
        <time>2023-02-22T14:39:52Z</time>
      </trkpt>
      <trkpt lat="49.83088" lon="2.14407">
        <ele>119.7</ele>
        <time>2023-02-22T14:39:54Z</time>
      </trkpt>
      <trkpt lat="49.83087" lon="2.14407">
        <ele>119.7</ele>
        <time>2023-02-22T14:39:55Z</time>
      </trkpt>
      <trkpt lat="49.83086" lon="2.14407">
        <ele>119.7</ele>
        <time>2023-02-22T14:39:56Z</time>
      </trkpt>
      <trkpt lat="49.83085" lon="2.14408">
        <ele>119.7</ele>
        <time>2023-02-22T14:39:57Z</time>
      </trkpt>
      <trkpt lat="49.83085" lon="2.14409">
        <ele>119.7</ele>
        <time>2023-02-22T14:39:58Z</time>
      </trkpt>
      <trkpt lat="49.83084" lon="2.1441">
        <ele>119.7</ele>
        <time>2023-02-22T14:40:00Z</time>
      </trkpt>
      <trkpt lat="49.83083" lon="2.1441">
        <ele>119.7</ele>
        <time>2023-02-22T14:40:02Z</time>
      </trkpt>
      <trkpt lat="49.83082" lon="2.1441">
        <ele>119.7</ele>
        <time>2023-02-22T14:40:03Z</time>
      </trkpt>
      <trkpt lat="49.83082" lon="2.14411">
        <ele>119.7</ele>
        <time>2023-02-22T14:40:05Z</time>
      </trkpt>
      <trkpt lat="49.83081" lon="2.14412">
        <ele>119.7</ele>
        <time>2023-02-22T14:40:06Z</time>
      </trkpt>
      <trkpt lat="49.83081" lon="2.14412">
        <ele>119.8</ele>
        <time>2023-02-22T14:40:08Z</time>
      </trkpt>
      <trkpt lat="49.83081" lon="2.14413">
        <ele>119.8</ele>
        <time>2023-02-22T14:40:09Z</time>
      </trkpt>
      <trkpt lat="49.83082" lon="2.14413">
        <ele>119.8</ele>
        <time>2023-02-22T14:40:10Z</time>
      </trkpt>
      <trkpt lat="49.83082" lon="2.14414">
        <ele>119.8</ele>
        <time>2023-02-22T14:40:12Z</time>
      </trkpt>
      <trkpt lat="49.83082" lon="2.14414">
        <ele>119.8</ele>
        <time>2023-02-22T14:40:13Z</time>
      </trkpt>
      <trkpt lat="49.83084" lon="2.14413">
        <ele>119.8</ele>
        <time>2023-02-22T14:40:14Z</time>
      </trkpt>
      <trkpt lat="49.83084" lon="2.14413">
        <ele>119.8</ele>
        <time>2023-02-22T14:40:15Z</time>
      </trkpt>
      <trkpt lat="49.83085" lon="2.14413">
        <ele>119.8</ele>
        <time>2023-02-22T14:40:16Z</time>
      </trkpt>
      <trkpt lat="49.83085" lon="2.14413">
        <ele>119.8</ele>
        <time>2023-02-22T14:40:17Z</time>
      </trkpt>
      <trkpt lat="49.83085" lon="2.14413">
        <ele>119.8</ele>
        <time>2023-02-22T14:40:18Z</time>
      </trkpt>
      <trkpt lat="49.83085" lon="2.14413">
        <ele>119.8</ele>
        <time>2023-02-22T14:40:19Z</time>
      </trkpt>
      <trkpt lat="49.83085" lon="2.14413">
        <ele>119.8</ele>
        <time>2023-02-22T14:40:20Z</time>
      </trkpt>
      <trkpt lat="49.83085" lon="2.14413">
        <ele>119.8</ele>
        <time>2023-02-22T14:40:21Z</time>
      </trkpt>
      <trkpt lat="49.83085" lon="2.14413">
        <ele>119.8</ele>
        <time>2023-02-22T14:40:22Z</time>
      </trkpt>
      <trkpt lat="49.83085" lon="2.14413">
        <ele>119.8</ele>
        <time>2023-02-22T14:40:23Z</time>
      </trkpt>
      <trkpt lat="49.83085" lon="2.14413">
        <ele>119.8</ele>
        <time>2023-02-22T14:40:24Z</time>
      </trkpt>
      <trkpt lat="49.83085" lon="2.14413">
        <ele>119.8</ele>
        <time>2023-02-22T14:40:25Z</time>
      </trkpt>
      <trkpt lat="49.83085" lon="2.14413">
        <ele>119.8</ele>
        <time>2023-02-22T14:40:26Z</time>
      </trkpt>
      <trkpt lat="49.83085" lon="2.14413">
        <ele>119.8</ele>
        <time>2023-02-22T14:40:27Z</time>
      </trkpt>
      <trkpt lat="49.83085" lon="2.14413">
        <ele>119.8</ele>
        <time>2023-02-22T14:40:28Z</time>
      </trkpt>
      <trkpt lat="49.83085" lon="2.14413">
        <ele>119.8</ele>
        <time>2023-02-22T14:40:29Z</time>
      </trkpt>
      <trkpt lat="49.83085" lon="2.14413">
        <ele>119.8</ele>
        <time>2023-02-22T14:40:30Z</time>
      </trkpt>
      <trkpt lat="49.83085" lon="2.14413">
        <ele>119.8</ele>
        <time>2023-02-22T14:40:31Z</time>
      </trkpt>
      <trkpt lat="49.83085" lon="2.14413">
        <ele>119.8</ele>
        <time>2023-02-22T14:40:32Z</time>
      </trkpt>
      <trkpt lat="49.83085" lon="2.14413">
        <ele>119.8</ele>
        <time>2023-02-22T14:40:33Z</time>
      </trkpt>
      <trkpt lat="49.83085" lon="2.14413">
        <ele>119.8</ele>
        <time>2023-02-22T14:40:34Z</time>
      </trkpt>
      <trkpt lat="49.83085" lon="2.14413">
        <ele>119.8</ele>
        <time>2023-02-22T14:40:35Z</time>
      </trkpt>
      <trkpt lat="49.83085" lon="2.14413">
        <ele>119.8</ele>
        <time>2023-02-22T14:40:36Z</time>
      </trkpt>
      <trkpt lat="49.83085" lon="2.14413">
        <ele>119.8</ele>
        <time>2023-02-22T14:40:37Z</time>
      </trkpt>
      <trkpt lat="49.83085" lon="2.14413">
        <ele>119.8</ele>
        <time>2023-02-22T14:40:38Z</time>
      </trkpt>
      <trkpt lat="49.83085" lon="2.14413">
        <ele>119.8</ele>
        <time>2023-02-22T14:40:39Z</time>
      </trkpt>
      <trkpt lat="49.83085" lon="2.14413">
        <ele>119.8</ele>
        <time>2023-02-22T14:40:40Z</time>
      </trkpt>
      <trkpt lat="49.83085" lon="2.14413">
        <ele>119.8</ele>
        <time>2023-02-22T14:40:41Z</time>
      </trkpt>
      <trkpt lat="49.83085" lon="2.14413">
        <ele>119.8</ele>
        <time>2023-02-22T14:40:42Z</time>
      </trkpt>
      <trkpt lat="49.83085" lon="2.14413">
        <ele>119.8</ele>
        <time>2023-02-22T14:40:43Z</time>
      </trkpt>
      <trkpt lat="49.83085" lon="2.14413">
        <ele>119.8</ele>
        <time>2023-02-22T14:40:44Z</time>
      </trkpt>
      <trkpt lat="49.83085" lon="2.14413">
        <ele>119.8</ele>
        <time>2023-02-22T14:40:45Z</time>
      </trkpt>
      <trkpt lat="49.83085" lon="2.14413">
        <ele>119.8</ele>
        <time>2023-02-22T14:40:46Z</time>
      </trkpt>
      <trkpt lat="49.83085" lon="2.14413">
        <ele>119.8</ele>
        <time>2023-02-22T14:40:47Z</time>
      </trkpt>
      <trkpt lat="49.83085" lon="2.14413">
        <ele>119.8</ele>
        <time>2023-02-22T14:40:48Z</time>
      </trkpt>
      <trkpt lat="49.83085" lon="2.14413">
        <ele>119.8</ele>
        <time>2023-02-22T14:40:49Z</time>
      </trkpt>
      <trkpt lat="49.83085" lon="2.14413">
        <ele>119.8</ele>
        <time>2023-02-22T14:40:50Z</time>
      </trkpt>
      <trkpt lat="49.83085" lon="2.14413">
        <ele>119.8</ele>
        <time>2023-02-22T14:40:51Z</time>
      </trkpt>
      <trkpt lat="49.83085" lon="2.14413">
        <ele>119.8</ele>
        <time>2023-02-22T14:40:52Z</time>
      </trkpt>
      <trkpt lat="49.83086" lon="2.14411">
        <ele>119.8</ele>
        <time>2023-02-22T14:40:53Z</time>
      </trkpt>
      <trkpt lat="49.83086" lon="2.1441">
        <ele>119.8</ele>
        <time>2023-02-22T14:40:54Z</time>
      </trkpt>
      <trkpt lat="49.83086" lon="2.14408">
        <ele>119.8</ele>
        <time>2023-02-22T14:40:56Z</time>
      </trkpt>
      <trkpt lat="49.83087" lon="2.14407">
        <ele>119.8</ele>
        <time>2023-02-22T14:40:57Z</time>
      </trkpt>
      <trkpt lat="49.83088" lon="2.14406">
        <ele>119.8</ele>
        <time>2023-02-22T14:40:58Z</time>
      </trkpt>
      <trkpt lat="49.83089" lon="2.14405">
        <ele>119.8</ele>
        <time>2023-02-22T14:40:59Z</time>
      </trkpt>
      <trkpt lat="49.83089" lon="2.14405">
        <ele>119.8</ele>
        <time>2023-02-22T14:41:00Z</time>
      </trkpt>
      <trkpt lat="49.83089" lon="2.14404">
        <ele>119.8</ele>
        <time>2023-02-22T14:41:01Z</time>
      </trkpt>
      <trkpt lat="49.83089" lon="2.14402">
        <ele>119.8</ele>
        <time>2023-02-22T14:41:03Z</time>
      </trkpt>
      <trkpt lat="49.8309" lon="2.14401">
        <ele>119.9</ele>
        <time>2023-02-22T14:41:04Z</time>
      </trkpt>
      <trkpt lat="49.83089" lon="2.14401">
        <ele>119.9</ele>
        <time>2023-02-22T14:41:05Z</time>
      </trkpt>
      <trkpt lat="49.83089" lon="2.144">
        <ele>119.9</ele>
        <time>2023-02-22T14:41:06Z</time>
      </trkpt>
      <trkpt lat="49.8309" lon="2.14399">
        <ele>119.9</ele>
        <time>2023-02-22T14:41:07Z</time>
      </trkpt>
      <trkpt lat="49.8309" lon="2.14398">
        <ele>119.9</ele>
        <time>2023-02-22T14:41:08Z</time>
      </trkpt>
      <trkpt lat="49.83091" lon="2.14399">
        <ele>119.9</ele>
        <time>2023-02-22T14:41:10Z</time>
      </trkpt>
      <trkpt lat="49.83091" lon="2.144">
        <ele>119.9</ele>
        <time>2023-02-22T14:41:11Z</time>
      </trkpt>
      <trkpt lat="49.83091" lon="2.14401">
        <ele>119.9</ele>
        <time>2023-02-22T14:41:12Z</time>
      </trkpt>
      <trkpt lat="49.8309" lon="2.144">
        <ele>119.9</ele>
        <time>2023-02-22T14:41:14Z</time>
      </trkpt>
      <trkpt lat="49.8309" lon="2.14399">
        <ele>119.9</ele>
        <time>2023-02-22T14:41:15Z</time>
      </trkpt>
      <trkpt lat="49.83089" lon="2.14399">
        <ele>119.9</ele>
        <time>2023-02-22T14:41:16Z</time>
      </trkpt>
      <trkpt lat="49.83089" lon="2.14397">
        <ele>119.9</ele>
        <time>2023-02-22T14:41:17Z</time>
      </trkpt>
      <trkpt lat="49.83089" lon="2.14396">
        <ele>119.9</ele>
        <time>2023-02-22T14:41:18Z</time>
      </trkpt>
      <trkpt lat="49.83089" lon="2.14394">
        <ele>120</ele>
        <time>2023-02-22T14:41:20Z</time>
      </trkpt>
      <trkpt lat="49.83089" lon="2.14392">
        <ele>120</ele>
        <time>2023-02-22T14:41:21Z</time>
      </trkpt>
      <trkpt lat="49.83089" lon="2.1439">
        <ele>120</ele>
        <time>2023-02-22T14:41:22Z</time>
      </trkpt>
      <trkpt lat="49.83089" lon="2.14387">
        <ele>120</ele>
        <time>2023-02-22T14:41:23Z</time>
      </trkpt>
      <trkpt lat="49.8309" lon="2.14385">
        <ele>120</ele>
        <time>2023-02-22T14:41:24Z</time>
      </trkpt>
      <trkpt lat="49.83091" lon="2.14383">
        <ele>120</ele>
        <time>2023-02-22T14:41:25Z</time>
      </trkpt>
      <trkpt lat="49.83091" lon="2.1438">
        <ele>120.1</ele>
        <time>2023-02-22T14:41:26Z</time>
      </trkpt>
      <trkpt lat="49.83092" lon="2.14378">
        <ele>120.1</ele>
        <time>2023-02-22T14:41:28Z</time>
      </trkpt>
      <trkpt lat="49.83092" lon="2.14376">
        <ele>120.1</ele>
        <time>2023-02-22T14:41:29Z</time>
      </trkpt>
      <trkpt lat="49.83092" lon="2.14374">
        <ele>120.1</ele>
        <time>2023-02-22T14:41:30Z</time>
      </trkpt>
      <trkpt lat="49.83092" lon="2.14372">
        <ele>120.1</ele>
        <time>2023-02-22T14:41:31Z</time>
      </trkpt>
      <trkpt lat="49.83092" lon="2.1437">
        <ele>120.1</ele>
        <time>2023-02-22T14:41:32Z</time>
      </trkpt>
      <trkpt lat="49.83091" lon="2.14368">
        <ele>120.2</ele>
        <time>2023-02-22T14:41:33Z</time>
      </trkpt>
      <trkpt lat="49.8309" lon="2.14365">
        <ele>120.2</ele>
        <time>2023-02-22T14:41:35Z</time>
      </trkpt>
      <trkpt lat="49.83089" lon="2.14364">
        <ele>120.2</ele>
        <time>2023-02-22T14:41:36Z</time>
      </trkpt>
      <trkpt lat="49.83089" lon="2.14363">
        <ele>120.2</ele>
        <time>2023-02-22T14:41:37Z</time>
      </trkpt>
      <trkpt lat="49.83089" lon="2.14361">
        <ele>120.2</ele>
        <time>2023-02-22T14:41:38Z</time>
      </trkpt>
      <trkpt lat="49.83089" lon="2.14359">
        <ele>120.2</ele>
        <time>2023-02-22T14:41:39Z</time>
      </trkpt>
      <trkpt lat="49.83089" lon="2.14357">
        <ele>120.2</ele>
        <time>2023-02-22T14:41:40Z</time>
      </trkpt>
      <trkpt lat="49.83088" lon="2.14354">
        <ele>120.3</ele>
        <time>2023-02-22T14:41:42Z</time>
      </trkpt>
      <trkpt lat="49.83088" lon="2.14353">
        <ele>120.3</ele>
        <time>2023-02-22T14:41:43Z</time>
      </trkpt>
      <trkpt lat="49.83087" lon="2.14352">
        <ele>120.3</ele>
        <time>2023-02-22T14:41:44Z</time>
      </trkpt>
      <trkpt lat="49.83086" lon="2.1435">
        <ele>120.3</ele>
        <time>2023-02-22T14:41:45Z</time>
      </trkpt>
      <trkpt lat="49.83085" lon="2.14348">
        <ele>120.3</ele>
        <time>2023-02-22T14:41:46Z</time>
      </trkpt>
      <trkpt lat="49.83083" lon="2.14345">
        <ele>120.4</ele>
        <time>2023-02-22T14:41:47Z</time>
      </trkpt>
      <trkpt lat="49.83082" lon="2.14344">
        <ele>120.4</ele>
        <time>2023-02-22T14:41:49Z</time>
      </trkpt>
      <trkpt lat="49.83082" lon="2.14343">
        <ele>120.4</ele>
        <time>2023-02-22T14:41:50Z</time>
      </trkpt>
      <trkpt lat="49.83081" lon="2.14342">
        <ele>120.4</ele>
        <time>2023-02-22T14:41:51Z</time>
      </trkpt>
      <trkpt lat="49.8308" lon="2.14341">
        <ele>120.4</ele>
        <time>2023-02-22T14:41:52Z</time>
      </trkpt>
      <trkpt lat="49.8308" lon="2.14338">
        <ele>120.4</ele>
        <time>2023-02-22T14:41:53Z</time>
      </trkpt>
      <trkpt lat="49.8308" lon="2.14337">
        <ele>120.4</ele>
        <time>2023-02-22T14:41:55Z</time>
      </trkpt>
      <trkpt lat="49.8308" lon="2.14336">
        <ele>120.4</ele>
        <time>2023-02-22T14:41:56Z</time>
      </trkpt>
      <trkpt lat="49.83079" lon="2.14334">
        <ele>120.4</ele>
        <time>2023-02-22T14:41:57Z</time>
      </trkpt>
      <trkpt lat="49.83079" lon="2.14333">
        <ele>120.4</ele>
        <time>2023-02-22T14:41:58Z</time>
      </trkpt>
      <trkpt lat="49.83079" lon="2.14332">
        <ele>120.5</ele>
        <time>2023-02-22T14:41:59Z</time>
      </trkpt>
      <trkpt lat="49.83079" lon="2.1433">
        <ele>120.5</ele>
        <time>2023-02-22T14:42:00Z</time>
      </trkpt>
      <trkpt lat="49.83079" lon="2.14329">
        <ele>120.5</ele>
        <time>2023-02-22T14:42:02Z</time>
      </trkpt>
      <trkpt lat="49.83079" lon="2.14328">
        <ele>120.5</ele>
        <time>2023-02-22T14:42:03Z</time>
      </trkpt>
      <trkpt lat="49.83079" lon="2.14326">
        <ele>120.5</ele>
        <time>2023-02-22T14:42:04Z</time>
      </trkpt>
      <trkpt lat="49.83079" lon="2.14325">
        <ele>120.5</ele>
        <time>2023-02-22T14:42:05Z</time>
      </trkpt>
      <trkpt lat="49.83079" lon="2.14323">
        <ele>120.5</ele>
        <time>2023-02-22T14:42:06Z</time>
      </trkpt>
      <trkpt lat="49.83078" lon="2.14321">
        <ele>120.5</ele>
        <time>2023-02-22T14:42:08Z</time>
      </trkpt>
      <trkpt lat="49.83079" lon="2.14321">
        <ele>120.5</ele>
        <time>2023-02-22T14:42:09Z</time>
      </trkpt>
      <trkpt lat="49.83079" lon="2.14319">
        <ele>120.5</ele>
        <time>2023-02-22T14:42:10Z</time>
      </trkpt>
      <trkpt lat="49.83079" lon="2.14318">
        <ele>120.5</ele>
        <time>2023-02-22T14:42:11Z</time>
      </trkpt>
      <trkpt lat="49.83078" lon="2.14316">
        <ele>120.6</ele>
        <time>2023-02-22T14:42:12Z</time>
      </trkpt>
      <trkpt lat="49.83078" lon="2.14314">
        <ele>120.6</ele>
        <time>2023-02-22T14:42:14Z</time>
      </trkpt>
      <trkpt lat="49.83078" lon="2.14312">
        <ele>120.6</ele>
        <time>2023-02-22T14:42:15Z</time>
      </trkpt>
      <trkpt lat="49.83078" lon="2.14311">
        <ele>120.6</ele>
        <time>2023-02-22T14:42:16Z</time>
      </trkpt>
      <trkpt lat="49.83077" lon="2.1431">
        <ele>120.6</ele>
        <time>2023-02-22T14:42:17Z</time>
      </trkpt>
      <trkpt lat="49.83077" lon="2.14308">
        <ele>120.6</ele>
        <time>2023-02-22T14:42:18Z</time>
      </trkpt>
      <trkpt lat="49.83077" lon="2.14306">
        <ele>120.6</ele>
        <time>2023-02-22T14:42:20Z</time>
      </trkpt>
      <trkpt lat="49.83077" lon="2.14305">
        <ele>120.6</ele>
        <time>2023-02-22T14:42:21Z</time>
      </trkpt>
      <trkpt lat="49.83077" lon="2.14304">
        <ele>120.6</ele>
        <time>2023-02-22T14:42:22Z</time>
      </trkpt>
      <trkpt lat="49.83077" lon="2.14301">
        <ele>120.6</ele>
        <time>2023-02-22T14:42:23Z</time>
      </trkpt>
      <trkpt lat="49.83077" lon="2.14299">
        <ele>120.6</ele>
        <time>2023-02-22T14:42:24Z</time>
      </trkpt>
      <trkpt lat="49.83076" lon="2.14297">
        <ele>120.6</ele>
        <time>2023-02-22T14:42:25Z</time>
      </trkpt>
      <trkpt lat="49.83076" lon="2.14296">
        <ele>120.6</ele>
        <time>2023-02-22T14:42:26Z</time>
      </trkpt>
      <trkpt lat="49.83076" lon="2.14295">
        <ele>120.7</ele>
        <time>2023-02-22T14:42:28Z</time>
      </trkpt>
      <trkpt lat="49.83076" lon="2.14295">
        <ele>120.7</ele>
        <time>2023-02-22T14:42:29Z</time>
      </trkpt>
      <trkpt lat="49.83076" lon="2.14293">
        <ele>120.7</ele>
        <time>2023-02-22T14:42:30Z</time>
      </trkpt>
      <trkpt lat="49.83075" lon="2.14292">
        <ele>120.7</ele>
        <time>2023-02-22T14:42:31Z</time>
      </trkpt>
      <trkpt lat="49.83075" lon="2.14289">
        <ele>120.7</ele>
        <time>2023-02-22T14:42:32Z</time>
      </trkpt>
      <trkpt lat="49.83075" lon="2.14287">
        <ele>120.7</ele>
        <time>2023-02-22T14:42:33Z</time>
      </trkpt>
      <trkpt lat="49.83074" lon="2.14285">
        <ele>120.7</ele>
        <time>2023-02-22T14:42:34Z</time>
      </trkpt>
      <trkpt lat="49.83074" lon="2.14283">
        <ele>120.7</ele>
        <time>2023-02-22T14:42:35Z</time>
      </trkpt>
      <trkpt lat="49.83074" lon="2.14282">
        <ele>120.7</ele>
        <time>2023-02-22T14:42:36Z</time>
      </trkpt>
      <trkpt lat="49.83074" lon="2.14281">
        <ele>120.7</ele>
        <time>2023-02-22T14:42:38Z</time>
      </trkpt>
      <trkpt lat="49.83073" lon="2.1428">
        <ele>120.7</ele>
        <time>2023-02-22T14:42:39Z</time>
      </trkpt>
      <trkpt lat="49.83073" lon="2.14277">
        <ele>120.7</ele>
        <time>2023-02-22T14:42:40Z</time>
      </trkpt>
      <trkpt lat="49.83073" lon="2.14275">
        <ele>120.7</ele>
        <time>2023-02-22T14:42:41Z</time>
      </trkpt>
      <trkpt lat="49.83072" lon="2.14273">
        <ele>120.8</ele>
        <time>2023-02-22T14:42:42Z</time>
      </trkpt>
      <trkpt lat="49.83071" lon="2.14269">
        <ele>120.8</ele>
        <time>2023-02-22T14:42:43Z</time>
      </trkpt>
      <trkpt lat="49.83071" lon="2.14267">
        <ele>120.8</ele>
        <time>2023-02-22T14:42:44Z</time>
      </trkpt>
      <trkpt lat="49.8307" lon="2.14262">
        <ele>120.9</ele>
        <time>2023-02-22T14:42:46Z</time>
      </trkpt>
      <trkpt lat="49.8307" lon="2.14261">
        <ele>120.9</ele>
        <time>2023-02-22T14:42:47Z</time>
      </trkpt>
      <trkpt lat="49.8307" lon="2.14256">
        <ele>120.9</ele>
        <time>2023-02-22T14:42:48Z</time>
      </trkpt>
      <trkpt lat="49.83069" lon="2.14254">
        <ele>120.9</ele>
        <time>2023-02-22T14:42:49Z</time>
      </trkpt>
      <trkpt lat="49.83069" lon="2.14252">
        <ele>121</ele>
        <time>2023-02-22T14:42:50Z</time>
      </trkpt>
      <trkpt lat="49.83069" lon="2.14251">
        <ele>121</ele>
        <time>2023-02-22T14:42:51Z</time>
      </trkpt>
      <trkpt lat="49.83069" lon="2.1425">
        <ele>121</ele>
        <time>2023-02-22T14:42:52Z</time>
      </trkpt>
      <trkpt lat="49.83069" lon="2.14248">
        <ele>121</ele>
        <time>2023-02-22T14:42:53Z</time>
      </trkpt>
      <trkpt lat="49.83069" lon="2.14247">
        <ele>121</ele>
        <time>2023-02-22T14:42:55Z</time>
      </trkpt>
      <trkpt lat="49.83069" lon="2.14245">
        <ele>121</ele>
        <time>2023-02-22T14:42:56Z</time>
      </trkpt>
      <trkpt lat="49.83069" lon="2.14242">
        <ele>121.1</ele>
        <time>2023-02-22T14:42:57Z</time>
      </trkpt>
      <trkpt lat="49.83068" lon="2.14241">
        <ele>121.1</ele>
        <time>2023-02-22T14:42:58Z</time>
      </trkpt>
      <trkpt lat="49.83068" lon="2.14239">
        <ele>121.1</ele>
        <time>2023-02-22T14:42:59Z</time>
      </trkpt>
      <trkpt lat="49.83068" lon="2.14237">
        <ele>121.1</ele>
        <time>2023-02-22T14:43:00Z</time>
      </trkpt>
      <trkpt lat="49.83068" lon="2.14236">
        <ele>121.2</ele>
        <time>2023-02-22T14:43:02Z</time>
      </trkpt>
      <trkpt lat="49.83068" lon="2.14234">
        <ele>121.2</ele>
        <time>2023-02-22T14:43:03Z</time>
      </trkpt>
      <trkpt lat="49.83068" lon="2.14231">
        <ele>121.2</ele>
        <time>2023-02-22T14:43:04Z</time>
      </trkpt>
      <trkpt lat="49.83068" lon="2.1423">
        <ele>121.2</ele>
        <time>2023-02-22T14:43:05Z</time>
      </trkpt>
      <trkpt lat="49.83068" lon="2.14229">
        <ele>121.2</ele>
        <time>2023-02-22T14:43:06Z</time>
      </trkpt>
      <trkpt lat="49.83068" lon="2.14228">
        <ele>121.2</ele>
        <time>2023-02-22T14:43:07Z</time>
      </trkpt>
      <trkpt lat="49.83068" lon="2.14226">
        <ele>121.3</ele>
        <time>2023-02-22T14:43:08Z</time>
      </trkpt>
      <trkpt lat="49.83068" lon="2.14224">
        <ele>121.3</ele>
        <time>2023-02-22T14:43:09Z</time>
      </trkpt>
      <trkpt lat="49.83068" lon="2.14223">
        <ele>121.3</ele>
        <time>2023-02-22T14:43:11Z</time>
      </trkpt>
      <trkpt lat="49.83068" lon="2.14222">
        <ele>121.3</ele>
        <time>2023-02-22T14:43:12Z</time>
      </trkpt>
      <trkpt lat="49.83068" lon="2.14221">
        <ele>121.3</ele>
        <time>2023-02-22T14:43:13Z</time>
      </trkpt>
      <trkpt lat="49.83068" lon="2.14219">
        <ele>121.3</ele>
        <time>2023-02-22T14:43:14Z</time>
      </trkpt>
      <trkpt lat="49.83068" lon="2.14218">
        <ele>121.4</ele>
        <time>2023-02-22T14:43:15Z</time>
      </trkpt>
      <trkpt lat="49.83067" lon="2.14216">
        <ele>121.4</ele>
        <time>2023-02-22T14:43:16Z</time>
      </trkpt>
      <trkpt lat="49.83067" lon="2.14215">
        <ele>121.4</ele>
        <time>2023-02-22T14:43:17Z</time>
      </trkpt>
      <trkpt lat="49.83066" lon="2.14215">
        <ele>121.4</ele>
        <time>2023-02-22T14:43:19Z</time>
      </trkpt>
      <trkpt lat="49.83066" lon="2.14214">
        <ele>121.4</ele>
        <time>2023-02-22T14:43:20Z</time>
      </trkpt>
      <trkpt lat="49.83066" lon="2.14213">
        <ele>121.4</ele>
        <time>2023-02-22T14:43:21Z</time>
      </trkpt>
      <trkpt lat="49.83065" lon="2.14209">
        <ele>121.5</ele>
        <time>2023-02-22T14:43:23Z</time>
      </trkpt>
      <trkpt lat="49.83065" lon="2.14206">
        <ele>121.5</ele>
        <time>2023-02-22T14:43:25Z</time>
      </trkpt>
      <trkpt lat="49.83064" lon="2.14203">
        <ele>121.6</ele>
        <time>2023-02-22T14:43:26Z</time>
      </trkpt>
      <trkpt lat="49.83064" lon="2.14202">
        <ele>121.6</ele>
        <time>2023-02-22T14:43:27Z</time>
      </trkpt>
      <trkpt lat="49.83064" lon="2.142">
        <ele>121.6</ele>
        <time>2023-02-22T14:43:28Z</time>
      </trkpt>
      <trkpt lat="49.83063" lon="2.14198">
        <ele>121.7</ele>
        <time>2023-02-22T14:43:30Z</time>
      </trkpt>
      <trkpt lat="49.83063" lon="2.14197">
        <ele>121.7</ele>
        <time>2023-02-22T14:43:31Z</time>
      </trkpt>
      <trkpt lat="49.83062" lon="2.14195">
        <ele>121.7</ele>
        <time>2023-02-22T14:43:32Z</time>
      </trkpt>
      <trkpt lat="49.83061" lon="2.14194">
        <ele>121.8</ele>
        <time>2023-02-22T14:43:34Z</time>
      </trkpt>
      <trkpt lat="49.8306" lon="2.14193">
        <ele>121.8</ele>
        <time>2023-02-22T14:43:36Z</time>
      </trkpt>
      <trkpt lat="49.83059" lon="2.14193">
        <ele>122</ele>
        <time>2023-02-22T14:43:37Z</time>
      </trkpt>
      <trkpt lat="49.83059" lon="2.14192">
        <ele>122.1</ele>
        <time>2023-02-22T14:43:38Z</time>
      </trkpt>
      <trkpt lat="49.83058" lon="2.14191">
        <ele>122.1</ele>
        <time>2023-02-22T14:43:39Z</time>
      </trkpt>
      <trkpt lat="49.83058" lon="2.1419">
        <ele>122.1</ele>
        <time>2023-02-22T14:43:41Z</time>
      </trkpt>
      <trkpt lat="49.83058" lon="2.14189">
        <ele>122.1</ele>
        <time>2023-02-22T14:43:42Z</time>
      </trkpt>
      <trkpt lat="49.83058" lon="2.14188">
        <ele>122.1</ele>
        <time>2023-02-22T14:43:43Z</time>
      </trkpt>
      <trkpt lat="49.83058" lon="2.14188">
        <ele>122.1</ele>
        <time>2023-02-22T14:43:44Z</time>
      </trkpt>
      <trkpt lat="49.83058" lon="2.14187">
        <ele>122.1</ele>
        <time>2023-02-22T14:43:46Z</time>
      </trkpt>
      <trkpt lat="49.83058" lon="2.14187">
        <ele>122.1</ele>
        <time>2023-02-22T14:43:48Z</time>
      </trkpt>
      <trkpt lat="49.83058" lon="2.14188">
        <ele>122.1</ele>
        <time>2023-02-22T14:43:49Z</time>
      </trkpt>
      <trkpt lat="49.83059" lon="2.14188">
        <ele>122.1</ele>
        <time>2023-02-22T14:43:50Z</time>
      </trkpt>
      <trkpt lat="49.83059" lon="2.14188">
        <ele>122.1</ele>
        <time>2023-02-22T14:43:52Z</time>
      </trkpt>
      <trkpt lat="49.83059" lon="2.14188">
        <ele>122.1</ele>
        <time>2023-02-22T14:43:53Z</time>
      </trkpt>
      <trkpt lat="49.83058" lon="2.14188">
        <ele>122.1</ele>
        <time>2023-02-22T14:43:54Z</time>
      </trkpt>
      <trkpt lat="49.83058" lon="2.14188">
        <ele>122.1</ele>
        <time>2023-02-22T14:43:56Z</time>
      </trkpt>
      <trkpt lat="49.83058" lon="2.14189">
        <ele>122.1</ele>
        <time>2023-02-22T14:43:57Z</time>
      </trkpt>
      <trkpt lat="49.83058" lon="2.14189">
        <ele>122.1</ele>
        <time>2023-02-22T14:43:59Z</time>
      </trkpt>
      <trkpt lat="49.83059" lon="2.14189">
        <ele>122.1</ele>
        <time>2023-02-22T14:44:00Z</time>
      </trkpt>
      <trkpt lat="49.83059" lon="2.1419">
        <ele>122.1</ele>
        <time>2023-02-22T14:44:01Z</time>
      </trkpt>
      <trkpt lat="49.83059" lon="2.1419">
        <ele>122.1</ele>
        <time>2023-02-22T14:44:02Z</time>
      </trkpt>
      <trkpt lat="49.83059" lon="2.1419">
        <ele>122.1</ele>
        <time>2023-02-22T14:44:03Z</time>
      </trkpt>
      <trkpt lat="49.83059" lon="2.1419">
        <ele>122.1</ele>
        <time>2023-02-22T14:44:04Z</time>
      </trkpt>
      <trkpt lat="49.83059" lon="2.1419">
        <ele>122.1</ele>
        <time>2023-02-22T14:44:05Z</time>
      </trkpt>
      <trkpt lat="49.83059" lon="2.1419">
        <ele>122.1</ele>
        <time>2023-02-22T14:44:06Z</time>
      </trkpt>
      <trkpt lat="49.83059" lon="2.1419">
        <ele>122.1</ele>
        <time>2023-02-22T14:44:07Z</time>
      </trkpt>
      <trkpt lat="49.83059" lon="2.1419">
        <ele>122.1</ele>
        <time>2023-02-22T14:44:08Z</time>
      </trkpt>
      <trkpt lat="49.83059" lon="2.1419">
        <ele>122.1</ele>
        <time>2023-02-22T14:44:09Z</time>
      </trkpt>
      <trkpt lat="49.83059" lon="2.1419">
        <ele>122.1</ele>
        <time>2023-02-22T14:44:10Z</time>
      </trkpt>
      <trkpt lat="49.83059" lon="2.1419">
        <ele>122.1</ele>
        <time>2023-02-22T14:44:11Z</time>
      </trkpt>
      <trkpt lat="49.83059" lon="2.14191">
        <ele>122.1</ele>
        <time>2023-02-22T14:44:12Z</time>
      </trkpt>
      <trkpt lat="49.83058" lon="2.14192">
        <ele>122.1</ele>
        <time>2023-02-22T14:44:13Z</time>
      </trkpt>
      <trkpt lat="49.83057" lon="2.1419">
        <ele>122.1</ele>
        <time>2023-02-22T14:44:14Z</time>
      </trkpt>
      <trkpt lat="49.83056" lon="2.14189">
        <ele>122.2</ele>
        <time>2023-02-22T14:44:15Z</time>
      </trkpt>
      <trkpt lat="49.83055" lon="2.14189">
        <ele>122.2</ele>
        <time>2023-02-22T14:44:17Z</time>
      </trkpt>
      <trkpt lat="49.83054" lon="2.14189">
        <ele>122.2</ele>
        <time>2023-02-22T14:44:18Z</time>
      </trkpt>
      <trkpt lat="49.83053" lon="2.14189">
        <ele>122.2</ele>
        <time>2023-02-22T14:44:19Z</time>
      </trkpt>
      <trkpt lat="49.83051" lon="2.14189">
        <ele>122.2</ele>
        <time>2023-02-22T14:44:21Z</time>
      </trkpt>
      <trkpt lat="49.83049" lon="2.1419">
        <ele>122.2</ele>
        <time>2023-02-22T14:44:22Z</time>
      </trkpt>
      <trkpt lat="49.83048" lon="2.1419">
        <ele>122.2</ele>
        <time>2023-02-22T14:44:23Z</time>
      </trkpt>
      <trkpt lat="49.83047" lon="2.1419">
        <ele>122.2</ele>
        <time>2023-02-22T14:44:24Z</time>
      </trkpt>
      <trkpt lat="49.83046" lon="2.14191">
        <ele>122.2</ele>
        <time>2023-02-22T14:44:25Z</time>
      </trkpt>
      <trkpt lat="49.83044" lon="2.14191">
        <ele>122.2</ele>
        <time>2023-02-22T14:44:26Z</time>
      </trkpt>
      <trkpt lat="49.83042" lon="2.14192">
        <ele>122.2</ele>
        <time>2023-02-22T14:44:28Z</time>
      </trkpt>
      <trkpt lat="49.83041" lon="2.14193">
        <ele>122.2</ele>
        <time>2023-02-22T14:44:29Z</time>
      </trkpt>
      <trkpt lat="49.83041" lon="2.14194">
        <ele>122.2</ele>
        <time>2023-02-22T14:44:30Z</time>
      </trkpt>
      <trkpt lat="49.83039" lon="2.14195">
        <ele>122.2</ele>
        <time>2023-02-22T14:44:31Z</time>
      </trkpt>
      <trkpt lat="49.83038" lon="2.14195">
        <ele>122.2</ele>
        <time>2023-02-22T14:44:32Z</time>
      </trkpt>
      <trkpt lat="49.83037" lon="2.14196">
        <ele>122.2</ele>
        <time>2023-02-22T14:44:33Z</time>
      </trkpt>
      <trkpt lat="49.83035" lon="2.14197">
        <ele>122.2</ele>
        <time>2023-02-22T14:44:34Z</time>
      </trkpt>
      <trkpt lat="49.83034" lon="2.14197">
        <ele>122.2</ele>
        <time>2023-02-22T14:44:36Z</time>
      </trkpt>
      <trkpt lat="49.83033" lon="2.14198">
        <ele>122.2</ele>
        <time>2023-02-22T14:44:37Z</time>
      </trkpt>
      <trkpt lat="49.83032" lon="2.14198">
        <ele>122.2</ele>
        <time>2023-02-22T14:44:38Z</time>
      </trkpt>
      <trkpt lat="49.83031" lon="2.14198">
        <ele>122.2</ele>
        <time>2023-02-22T14:44:39Z</time>
      </trkpt>
      <trkpt lat="49.83029" lon="2.14199">
        <ele>122.2</ele>
        <time>2023-02-22T14:44:40Z</time>
      </trkpt>
      <trkpt lat="49.83028" lon="2.14199">
        <ele>122.2</ele>
        <time>2023-02-22T14:44:41Z</time>
      </trkpt>
      <trkpt lat="49.83027" lon="2.14199">
        <ele>122.2</ele>
        <time>2023-02-22T14:44:42Z</time>
      </trkpt>
      <trkpt lat="49.83026" lon="2.14199">
        <ele>122.2</ele>
        <time>2023-02-22T14:44:43Z</time>
      </trkpt>
      <trkpt lat="49.83024" lon="2.142">
        <ele>122.2</ele>
        <time>2023-02-22T14:44:45Z</time>
      </trkpt>
      <trkpt lat="49.83023" lon="2.142">
        <ele>122.2</ele>
        <time>2023-02-22T14:44:46Z</time>
      </trkpt>
      <trkpt lat="49.83022" lon="2.142">
        <ele>122.2</ele>
        <time>2023-02-22T14:44:47Z</time>
      </trkpt>
      <trkpt lat="49.83021" lon="2.14201">
        <ele>122.2</ele>
        <time>2023-02-22T14:44:48Z</time>
      </trkpt>
      <trkpt lat="49.8302" lon="2.14201">
        <ele>122.2</ele>
        <time>2023-02-22T14:44:49Z</time>
      </trkpt>
      <trkpt lat="49.83017" lon="2.14201">
        <ele>122.2</ele>
        <time>2023-02-22T14:44:50Z</time>
      </trkpt>
      <trkpt lat="49.83015" lon="2.14202">
        <ele>122.2</ele>
        <time>2023-02-22T14:44:52Z</time>
      </trkpt>
      <trkpt lat="49.83014" lon="2.14202">
        <ele>122.2</ele>
        <time>2023-02-22T14:44:53Z</time>
      </trkpt>
      <trkpt lat="49.83012" lon="2.14202">
        <ele>122.2</ele>
        <time>2023-02-22T14:44:55Z</time>
      </trkpt>
      <trkpt lat="49.8301" lon="2.14203">
        <ele>122.2</ele>
        <time>2023-02-22T14:44:56Z</time>
      </trkpt>
      <trkpt lat="49.83008" lon="2.14203">
        <ele>122.2</ele>
        <time>2023-02-22T14:44:57Z</time>
      </trkpt>
      <trkpt lat="49.83008" lon="2.14204">
        <ele>122.2</ele>
        <time>2023-02-22T14:44:58Z</time>
      </trkpt>
      <trkpt lat="49.83007" lon="2.14204">
        <ele>122.2</ele>
        <time>2023-02-22T14:44:59Z</time>
      </trkpt>
      <trkpt lat="49.83005" lon="2.14204">
        <ele>122.2</ele>
        <time>2023-02-22T14:45:01Z</time>
      </trkpt>
      <trkpt lat="49.83004" lon="2.14204">
        <ele>122.2</ele>
        <time>2023-02-22T14:45:02Z</time>
      </trkpt>
      <trkpt lat="49.83002" lon="2.14205">
        <ele>122.2</ele>
        <time>2023-02-22T14:45:03Z</time>
      </trkpt>
      <trkpt lat="49.83001" lon="2.14205">
        <ele>122.2</ele>
        <time>2023-02-22T14:45:04Z</time>
      </trkpt>
      <trkpt lat="49.82999" lon="2.14206">
        <ele>122.2</ele>
        <time>2023-02-22T14:45:05Z</time>
      </trkpt>
      <trkpt lat="49.82998" lon="2.14206">
        <ele>122.2</ele>
        <time>2023-02-22T14:45:06Z</time>
      </trkpt>
      <trkpt lat="49.82997" lon="2.14206">
        <ele>122.2</ele>
        <time>2023-02-22T14:45:07Z</time>
      </trkpt>
      <trkpt lat="49.82996" lon="2.14206">
        <ele>122.2</ele>
        <time>2023-02-22T14:45:08Z</time>
      </trkpt>
      <trkpt lat="49.82995" lon="2.14206">
        <ele>122.2</ele>
        <time>2023-02-22T14:45:09Z</time>
      </trkpt>
      <trkpt lat="49.82994" lon="2.14206">
        <ele>122.2</ele>
        <time>2023-02-22T14:45:10Z</time>
      </trkpt>
      <trkpt lat="49.82993" lon="2.14206">
        <ele>122.2</ele>
        <time>2023-02-22T14:45:11Z</time>
      </trkpt>
      <trkpt lat="49.82992" lon="2.14206">
        <ele>122.2</ele>
        <time>2023-02-22T14:45:12Z</time>
      </trkpt>
      <trkpt lat="49.82991" lon="2.14206">
        <ele>122.2</ele>
        <time>2023-02-22T14:45:14Z</time>
      </trkpt>
      <trkpt lat="49.82989" lon="2.14206">
        <ele>122.2</ele>
        <time>2023-02-22T14:45:15Z</time>
      </trkpt>
      <trkpt lat="49.82988" lon="2.14206">
        <ele>122.2</ele>
        <time>2023-02-22T14:45:16Z</time>
      </trkpt>
      <trkpt lat="49.82987" lon="2.14205">
        <ele>122.2</ele>
        <time>2023-02-22T14:45:17Z</time>
      </trkpt>
      <trkpt lat="49.82986" lon="2.14205">
        <ele>122.2</ele>
        <time>2023-02-22T14:45:18Z</time>
      </trkpt>
      <trkpt lat="49.82985" lon="2.14204">
        <ele>122.2</ele>
        <time>2023-02-22T14:45:19Z</time>
      </trkpt>
      <trkpt lat="49.82983" lon="2.14202">
        <ele>122.3</ele>
        <time>2023-02-22T14:45:20Z</time>
      </trkpt>
      <trkpt lat="49.82982" lon="2.14201">
        <ele>122.3</ele>
        <time>2023-02-22T14:45:21Z</time>
      </trkpt>
      <trkpt lat="49.8298" lon="2.142">
        <ele>122.3</ele>
        <time>2023-02-22T14:45:22Z</time>
      </trkpt>
      <trkpt lat="49.8298" lon="2.14199">
        <ele>122.3</ele>
        <time>2023-02-22T14:45:24Z</time>
      </trkpt>
      <trkpt lat="49.82979" lon="2.14198">
        <ele>122.3</ele>
        <time>2023-02-22T14:45:25Z</time>
      </trkpt>
      <trkpt lat="49.82977" lon="2.14197">
        <ele>122.3</ele>
        <time>2023-02-22T14:45:26Z</time>
      </trkpt>
      <trkpt lat="49.82976" lon="2.14196">
        <ele>122.3</ele>
        <time>2023-02-22T14:45:27Z</time>
      </trkpt>
      <trkpt lat="49.82975" lon="2.14195">
        <ele>122.3</ele>
        <time>2023-02-22T14:45:28Z</time>
      </trkpt>
      <trkpt lat="49.82973" lon="2.14194">
        <ele>122.3</ele>
        <time>2023-02-22T14:45:29Z</time>
      </trkpt>
      <trkpt lat="49.82972" lon="2.14192">
        <ele>122.3</ele>
        <time>2023-02-22T14:45:31Z</time>
      </trkpt>
      <trkpt lat="49.82971" lon="2.14191">
        <ele>122.3</ele>
        <time>2023-02-22T14:45:32Z</time>
      </trkpt>
      <trkpt lat="49.8297" lon="2.1419">
        <ele>122.3</ele>
        <time>2023-02-22T14:45:33Z</time>
      </trkpt>
      <trkpt lat="49.82969" lon="2.14188">
        <ele>122.3</ele>
        <time>2023-02-22T14:45:34Z</time>
      </trkpt>
      <trkpt lat="49.82967" lon="2.14186">
        <ele>122.3</ele>
        <time>2023-02-22T14:45:35Z</time>
      </trkpt>
      <trkpt lat="49.82966" lon="2.14185">
        <ele>122.3</ele>
        <time>2023-02-22T14:45:37Z</time>
      </trkpt>
      <trkpt lat="49.82965" lon="2.14184">
        <ele>122.3</ele>
        <time>2023-02-22T14:45:38Z</time>
      </trkpt>
      <trkpt lat="49.82963" lon="2.14183">
        <ele>122.3</ele>
        <time>2023-02-22T14:45:39Z</time>
      </trkpt>
      <trkpt lat="49.82962" lon="2.14183">
        <ele>122.4</ele>
        <time>2023-02-22T14:45:40Z</time>
      </trkpt>
      <trkpt lat="49.8296" lon="2.14182">
        <ele>122.4</ele>
        <time>2023-02-22T14:45:41Z</time>
      </trkpt>
      <trkpt lat="49.82958" lon="2.1418">
        <ele>122.4</ele>
        <time>2023-02-22T14:45:42Z</time>
      </trkpt>
      <trkpt lat="49.82957" lon="2.1418">
        <ele>122.4</ele>
        <time>2023-02-22T14:45:43Z</time>
      </trkpt>
      <trkpt lat="49.82956" lon="2.14179">
        <ele>122.4</ele>
        <time>2023-02-22T14:45:44Z</time>
      </trkpt>
      <trkpt lat="49.82954" lon="2.14178">
        <ele>122.4</ele>
        <time>2023-02-22T14:45:45Z</time>
      </trkpt>
      <trkpt lat="49.82954" lon="2.14177">
        <ele>122.4</ele>
        <time>2023-02-22T14:45:46Z</time>
      </trkpt>
      <trkpt lat="49.82953" lon="2.14177">
        <ele>122.4</ele>
        <time>2023-02-22T14:45:47Z</time>
      </trkpt>
      <trkpt lat="49.82951" lon="2.14175">
        <ele>122.4</ele>
        <time>2023-02-22T14:45:48Z</time>
      </trkpt>
      <trkpt lat="49.8295" lon="2.14174">
        <ele>122.4</ele>
        <time>2023-02-22T14:45:50Z</time>
      </trkpt>
      <trkpt lat="49.8295" lon="2.14174">
        <ele>122.4</ele>
        <time>2023-02-22T14:45:51Z</time>
      </trkpt>
      <trkpt lat="49.82949" lon="2.14173">
        <ele>122.4</ele>
        <time>2023-02-22T14:45:52Z</time>
      </trkpt>
      <trkpt lat="49.82948" lon="2.14171">
        <ele>122.4</ele>
        <time>2023-02-22T14:45:53Z</time>
      </trkpt>
      <trkpt lat="49.82947" lon="2.1417">
        <ele>122.4</ele>
        <time>2023-02-22T14:45:54Z</time>
      </trkpt>
      <trkpt lat="49.82946" lon="2.14169">
        <ele>122.4</ele>
        <time>2023-02-22T14:45:55Z</time>
      </trkpt>
      <trkpt lat="49.82945" lon="2.14167">
        <ele>122.4</ele>
        <time>2023-02-22T14:45:56Z</time>
      </trkpt>
      <trkpt lat="49.82945" lon="2.14166">
        <ele>122.4</ele>
        <time>2023-02-22T14:45:57Z</time>
      </trkpt>
      <trkpt lat="49.82944" lon="2.14164">
        <ele>122.4</ele>
        <time>2023-02-22T14:45:58Z</time>
      </trkpt>
      <trkpt lat="49.82943" lon="2.14163">
        <ele>122.5</ele>
        <time>2023-02-22T14:45:59Z</time>
      </trkpt>
      <trkpt lat="49.82941" lon="2.14161">
        <ele>122.5</ele>
        <time>2023-02-22T14:46:00Z</time>
      </trkpt>
      <trkpt lat="49.8294" lon="2.1416">
        <ele>122.5</ele>
        <time>2023-02-22T14:46:02Z</time>
      </trkpt>
      <trkpt lat="49.8294" lon="2.1416">
        <ele>122.5</ele>
        <time>2023-02-22T14:46:03Z</time>
      </trkpt>
      <trkpt lat="49.82939" lon="2.14159">
        <ele>122.5</ele>
        <time>2023-02-22T14:46:04Z</time>
      </trkpt>
      <trkpt lat="49.82938" lon="2.14158">
        <ele>122.5</ele>
        <time>2023-02-22T14:46:05Z</time>
      </trkpt>
      <trkpt lat="49.82937" lon="2.14157">
        <ele>122.5</ele>
        <time>2023-02-22T14:46:06Z</time>
      </trkpt>
      <trkpt lat="49.82937" lon="2.14156">
        <ele>122.5</ele>
        <time>2023-02-22T14:46:08Z</time>
      </trkpt>
      <trkpt lat="49.82936" lon="2.14155">
        <ele>122.5</ele>
        <time>2023-02-22T14:46:09Z</time>
      </trkpt>
      <trkpt lat="49.82935" lon="2.14154">
        <ele>122.5</ele>
        <time>2023-02-22T14:46:10Z</time>
      </trkpt>
      <trkpt lat="49.82934" lon="2.14152">
        <ele>122.5</ele>
        <time>2023-02-22T14:46:11Z</time>
      </trkpt>
      <trkpt lat="49.82933" lon="2.14151">
        <ele>122.6</ele>
        <time>2023-02-22T14:46:12Z</time>
      </trkpt>
      <trkpt lat="49.82932" lon="2.1415">
        <ele>122.6</ele>
        <time>2023-02-22T14:46:13Z</time>
      </trkpt>
      <trkpt lat="49.82931" lon="2.14149">
        <ele>122.6</ele>
        <time>2023-02-22T14:46:14Z</time>
      </trkpt>
      <trkpt lat="49.8293" lon="2.14148">
        <ele>122.6</ele>
        <time>2023-02-22T14:46:15Z</time>
      </trkpt>
      <trkpt lat="49.82928" lon="2.14145">
        <ele>122.6</ele>
        <time>2023-02-22T14:46:17Z</time>
      </trkpt>
      <trkpt lat="49.82927" lon="2.14144">
        <ele>122.6</ele>
        <time>2023-02-22T14:46:18Z</time>
      </trkpt>
      <trkpt lat="49.82926" lon="2.14143">
        <ele>122.6</ele>
        <time>2023-02-22T14:46:20Z</time>
      </trkpt>
      <trkpt lat="49.82925" lon="2.14141">
        <ele>122.6</ele>
        <time>2023-02-22T14:46:21Z</time>
      </trkpt>
      <trkpt lat="49.82925" lon="2.1414">
        <ele>122.6</ele>
        <time>2023-02-22T14:46:22Z</time>
      </trkpt>
      <trkpt lat="49.82924" lon="2.14139">
        <ele>122.6</ele>
        <time>2023-02-22T14:46:23Z</time>
      </trkpt>
      <trkpt lat="49.82923" lon="2.14138">
        <ele>122.6</ele>
        <time>2023-02-22T14:46:24Z</time>
      </trkpt>
      <trkpt lat="49.82922" lon="2.14137">
        <ele>122.6</ele>
        <time>2023-02-22T14:46:25Z</time>
      </trkpt>
      <trkpt lat="49.82921" lon="2.14136">
        <ele>122.6</ele>
        <time>2023-02-22T14:46:26Z</time>
      </trkpt>
      <trkpt lat="49.8292" lon="2.14135">
        <ele>122.6</ele>
        <time>2023-02-22T14:46:27Z</time>
      </trkpt>
      <trkpt lat="49.82919" lon="2.14133">
        <ele>122.6</ele>
        <time>2023-02-22T14:46:28Z</time>
      </trkpt>
      <trkpt lat="49.82918" lon="2.14132">
        <ele>122.6</ele>
        <time>2023-02-22T14:46:29Z</time>
      </trkpt>
      <trkpt lat="49.82917" lon="2.14131">
        <ele>122.6</ele>
        <time>2023-02-22T14:46:30Z</time>
      </trkpt>
      <trkpt lat="49.82916" lon="2.1413">
        <ele>122.6</ele>
        <time>2023-02-22T14:46:32Z</time>
      </trkpt>
      <trkpt lat="49.82916" lon="2.1413">
        <ele>122.6</ele>
        <time>2023-02-22T14:46:33Z</time>
      </trkpt>
      <trkpt lat="49.82914" lon="2.14129">
        <ele>122.6</ele>
        <time>2023-02-22T14:46:34Z</time>
      </trkpt>
      <trkpt lat="49.82913" lon="2.14128">
        <ele>122.6</ele>
        <time>2023-02-22T14:46:35Z</time>
      </trkpt>
      <trkpt lat="49.82912" lon="2.14127">
        <ele>122.6</ele>
        <time>2023-02-22T14:46:36Z</time>
      </trkpt>
      <trkpt lat="49.82911" lon="2.14126">
        <ele>122.6</ele>
        <time>2023-02-22T14:46:37Z</time>
      </trkpt>
      <trkpt lat="49.82909" lon="2.14125">
        <ele>122.6</ele>
        <time>2023-02-22T14:46:39Z</time>
      </trkpt>
      <trkpt lat="49.82908" lon="2.14125">
        <ele>122.6</ele>
        <time>2023-02-22T14:46:40Z</time>
      </trkpt>
      <trkpt lat="49.82907" lon="2.14125">
        <ele>122.6</ele>
        <time>2023-02-22T14:46:41Z</time>
      </trkpt>
      <trkpt lat="49.82906" lon="2.14124">
        <ele>122.6</ele>
        <time>2023-02-22T14:46:42Z</time>
      </trkpt>
      <trkpt lat="49.82905" lon="2.14123">
        <ele>122.6</ele>
        <time>2023-02-22T14:46:43Z</time>
      </trkpt>
      <trkpt lat="49.82904" lon="2.14122">
        <ele>122.6</ele>
        <time>2023-02-22T14:46:45Z</time>
      </trkpt>
      <trkpt lat="49.82903" lon="2.14121">
        <ele>122.6</ele>
        <time>2023-02-22T14:46:46Z</time>
      </trkpt>
      <trkpt lat="49.82902" lon="2.1412">
        <ele>122.6</ele>
        <time>2023-02-22T14:46:47Z</time>
      </trkpt>
      <trkpt lat="49.82902" lon="2.14119">
        <ele>122.6</ele>
        <time>2023-02-22T14:46:48Z</time>
      </trkpt>
      <trkpt lat="49.82901" lon="2.14118">
        <ele>122.6</ele>
        <time>2023-02-22T14:46:49Z</time>
      </trkpt>
      <trkpt lat="49.82901" lon="2.14117">
        <ele>122.7</ele>
        <time>2023-02-22T14:46:50Z</time>
      </trkpt>
      <trkpt lat="49.829" lon="2.14116">
        <ele>122.7</ele>
        <time>2023-02-22T14:46:51Z</time>
      </trkpt>
      <trkpt lat="49.82899" lon="2.14115">
        <ele>122.7</ele>
        <time>2023-02-22T14:46:52Z</time>
      </trkpt>
      <trkpt lat="49.82898" lon="2.14113">
        <ele>122.7</ele>
        <time>2023-02-22T14:46:53Z</time>
      </trkpt>
      <trkpt lat="49.82898" lon="2.14112">
        <ele>122.7</ele>
        <time>2023-02-22T14:46:54Z</time>
      </trkpt>
      <trkpt lat="49.82896" lon="2.14109">
        <ele>122.7</ele>
        <time>2023-02-22T14:46:56Z</time>
      </trkpt>
      <trkpt lat="49.82896" lon="2.14108">
        <ele>122.7</ele>
        <time>2023-02-22T14:46:57Z</time>
      </trkpt>
      <trkpt lat="49.82895" lon="2.14107">
        <ele>122.7</ele>
        <time>2023-02-22T14:46:58Z</time>
      </trkpt>
      <trkpt lat="49.82894" lon="2.14104">
        <ele>122.7</ele>
        <time>2023-02-22T14:46:59Z</time>
      </trkpt>
      <trkpt lat="49.82893" lon="2.14103">
        <ele>122.7</ele>
        <time>2023-02-22T14:47:00Z</time>
      </trkpt>
      <trkpt lat="49.82893" lon="2.14102">
        <ele>122.7</ele>
        <time>2023-02-22T14:47:01Z</time>
      </trkpt>
      <trkpt lat="49.82892" lon="2.14101">
        <ele>122.7</ele>
        <time>2023-02-22T14:47:03Z</time>
      </trkpt>
      <trkpt lat="49.8289" lon="2.141">
        <ele>122.7</ele>
        <time>2023-02-22T14:47:04Z</time>
      </trkpt>
      <trkpt lat="49.82889" lon="2.14098">
        <ele>122.7</ele>
        <time>2023-02-22T14:47:05Z</time>
      </trkpt>
      <trkpt lat="49.82888" lon="2.14097">
        <ele>122.7</ele>
        <time>2023-02-22T14:47:06Z</time>
      </trkpt>
      <trkpt lat="49.82887" lon="2.14096">
        <ele>122.7</ele>
        <time>2023-02-22T14:47:07Z</time>
      </trkpt>
      <trkpt lat="49.82886" lon="2.14095">
        <ele>122.7</ele>
        <time>2023-02-22T14:47:09Z</time>
      </trkpt>
      <trkpt lat="49.82885" lon="2.14093">
        <ele>122.7</ele>
        <time>2023-02-22T14:47:10Z</time>
      </trkpt>
      <trkpt lat="49.82884" lon="2.14091">
        <ele>122.6</ele>
        <time>2023-02-22T14:47:11Z</time>
      </trkpt>
      <trkpt lat="49.82883" lon="2.1409">
        <ele>122.6</ele>
        <time>2023-02-22T14:47:12Z</time>
      </trkpt>
      <trkpt lat="49.82882" lon="2.1409">
        <ele>122.6</ele>
        <time>2023-02-22T14:47:13Z</time>
      </trkpt>
      <trkpt lat="49.82881" lon="2.14089">
        <ele>122.6</ele>
        <time>2023-02-22T14:47:14Z</time>
      </trkpt>
      <trkpt lat="49.82881" lon="2.14087">
        <ele>122.6</ele>
        <time>2023-02-22T14:47:15Z</time>
      </trkpt>
      <trkpt lat="49.8288" lon="2.14086">
        <ele>122.6</ele>
        <time>2023-02-22T14:47:16Z</time>
      </trkpt>
      <trkpt lat="49.82879" lon="2.14085">
        <ele>122.6</ele>
        <time>2023-02-22T14:47:18Z</time>
      </trkpt>
      <trkpt lat="49.82878" lon="2.14084">
        <ele>122.6</ele>
        <time>2023-02-22T14:47:19Z</time>
      </trkpt>
      <trkpt lat="49.82877" lon="2.14083">
        <ele>122.6</ele>
        <time>2023-02-22T14:47:20Z</time>
      </trkpt>
      <trkpt lat="49.82876" lon="2.14082">
        <ele>122.6</ele>
        <time>2023-02-22T14:47:21Z</time>
      </trkpt>
      <trkpt lat="49.82875" lon="2.14081">
        <ele>122.6</ele>
        <time>2023-02-22T14:47:22Z</time>
      </trkpt>
      <trkpt lat="49.82875" lon="2.1408">
        <ele>122.6</ele>
        <time>2023-02-22T14:47:23Z</time>
      </trkpt>
      <trkpt lat="49.82873" lon="2.14078">
        <ele>122.6</ele>
        <time>2023-02-22T14:47:24Z</time>
      </trkpt>
      <trkpt lat="49.82873" lon="2.14078">
        <ele>122.6</ele>
        <time>2023-02-22T14:47:25Z</time>
      </trkpt>
      <trkpt lat="49.82872" lon="2.14076">
        <ele>122.6</ele>
        <time>2023-02-22T14:47:27Z</time>
      </trkpt>
      <trkpt lat="49.82872" lon="2.14075">
        <ele>122.6</ele>
        <time>2023-02-22T14:47:28Z</time>
      </trkpt>
      <trkpt lat="49.82871" lon="2.14074">
        <ele>122.6</ele>
        <time>2023-02-22T14:47:29Z</time>
      </trkpt>
      <trkpt lat="49.8287" lon="2.14072">
        <ele>122.5</ele>
        <time>2023-02-22T14:47:30Z</time>
      </trkpt>
      <trkpt lat="49.82869" lon="2.14071">
        <ele>122.5</ele>
        <time>2023-02-22T14:47:31Z</time>
      </trkpt>
      <trkpt lat="49.82868" lon="2.1407">
        <ele>122.5</ele>
        <time>2023-02-22T14:47:32Z</time>
      </trkpt>
      <trkpt lat="49.82868" lon="2.14069">
        <ele>122.5</ele>
        <time>2023-02-22T14:47:33Z</time>
      </trkpt>
      <trkpt lat="49.82867" lon="2.14068">
        <ele>122.5</ele>
        <time>2023-02-22T14:47:35Z</time>
      </trkpt>
      <trkpt lat="49.82866" lon="2.14067">
        <ele>122.5</ele>
        <time>2023-02-22T14:47:36Z</time>
      </trkpt>
      <trkpt lat="49.82866" lon="2.14067">
        <ele>122.5</ele>
        <time>2023-02-22T14:47:37Z</time>
      </trkpt>
      <trkpt lat="49.82865" lon="2.14065">
        <ele>122.5</ele>
        <time>2023-02-22T14:47:38Z</time>
      </trkpt>
      <trkpt lat="49.82865" lon="2.14064">
        <ele>122.5</ele>
        <time>2023-02-22T14:47:39Z</time>
      </trkpt>
      <trkpt lat="49.82864" lon="2.14063">
        <ele>122.5</ele>
        <time>2023-02-22T14:47:40Z</time>
      </trkpt>
      <trkpt lat="49.82863" lon="2.1406">
        <ele>122.5</ele>
        <time>2023-02-22T14:47:41Z</time>
      </trkpt>
      <trkpt lat="49.82862" lon="2.14059">
        <ele>122.5</ele>
        <time>2023-02-22T14:47:42Z</time>
      </trkpt>
      <trkpt lat="49.82862" lon="2.14058">
        <ele>122.5</ele>
        <time>2023-02-22T14:47:43Z</time>
      </trkpt>
      <trkpt lat="49.8286" lon="2.14056">
        <ele>122.5</ele>
        <time>2023-02-22T14:47:44Z</time>
      </trkpt>
      <trkpt lat="49.82859" lon="2.14056">
        <ele>122.5</ele>
        <time>2023-02-22T14:47:46Z</time>
      </trkpt>
      <trkpt lat="49.82859" lon="2.14055">
        <ele>122.5</ele>
        <time>2023-02-22T14:47:47Z</time>
      </trkpt>
      <trkpt lat="49.82858" lon="2.14054">
        <ele>122.5</ele>
        <time>2023-02-22T14:47:48Z</time>
      </trkpt>
      <trkpt lat="49.82857" lon="2.14052">
        <ele>122.5</ele>
        <time>2023-02-22T14:47:49Z</time>
      </trkpt>
      <trkpt lat="49.82856" lon="2.1405">
        <ele>122.5</ele>
        <time>2023-02-22T14:47:50Z</time>
      </trkpt>
      <trkpt lat="49.82855" lon="2.14049">
        <ele>122.5</ele>
        <time>2023-02-22T14:47:51Z</time>
      </trkpt>
      <trkpt lat="49.82854" lon="2.14047">
        <ele>122.5</ele>
        <time>2023-02-22T14:47:52Z</time>
      </trkpt>
      <trkpt lat="49.82852" lon="2.14044">
        <ele>122.5</ele>
        <time>2023-02-22T14:47:54Z</time>
      </trkpt>
      <trkpt lat="49.82851" lon="2.14043">
        <ele>122.5</ele>
        <time>2023-02-22T14:47:56Z</time>
      </trkpt>
      <trkpt lat="49.8285" lon="2.14042">
        <ele>122.5</ele>
        <time>2023-02-22T14:47:57Z</time>
      </trkpt>
      <trkpt lat="49.82849" lon="2.1404">
        <ele>122.4</ele>
        <time>2023-02-22T14:47:58Z</time>
      </trkpt>
      <trkpt lat="49.82848" lon="2.14039">
        <ele>122.4</ele>
        <time>2023-02-22T14:47:59Z</time>
      </trkpt>
      <trkpt lat="49.82848" lon="2.14038">
        <ele>122.4</ele>
        <time>2023-02-22T14:48:00Z</time>
      </trkpt>
      <trkpt lat="49.82847" lon="2.14037">
        <ele>122.4</ele>
        <time>2023-02-22T14:48:01Z</time>
      </trkpt>
      <trkpt lat="49.82846" lon="2.14036">
        <ele>122.4</ele>
        <time>2023-02-22T14:48:03Z</time>
      </trkpt>
      <trkpt lat="49.82845" lon="2.14035">
        <ele>122.4</ele>
        <time>2023-02-22T14:48:04Z</time>
      </trkpt>
      <trkpt lat="49.82844" lon="2.14033">
        <ele>122.4</ele>
        <time>2023-02-22T14:48:05Z</time>
      </trkpt>
      <trkpt lat="49.82843" lon="2.14032">
        <ele>122.4</ele>
        <time>2023-02-22T14:48:06Z</time>
      </trkpt>
      <trkpt lat="49.82842" lon="2.14029">
        <ele>122.4</ele>
        <time>2023-02-22T14:48:08Z</time>
      </trkpt>
      <trkpt lat="49.82841" lon="2.14029">
        <ele>122.3</ele>
        <time>2023-02-22T14:48:09Z</time>
      </trkpt>
      <trkpt lat="49.8284" lon="2.14028">
        <ele>122.3</ele>
        <time>2023-02-22T14:48:10Z</time>
      </trkpt>
      <trkpt lat="49.82839" lon="2.14027">
        <ele>122.3</ele>
        <time>2023-02-22T14:48:11Z</time>
      </trkpt>
      <trkpt lat="49.82838" lon="2.14026">
        <ele>122.3</ele>
        <time>2023-02-22T14:48:12Z</time>
      </trkpt>
      <trkpt lat="49.82836" lon="2.14025">
        <ele>122.3</ele>
        <time>2023-02-22T14:48:13Z</time>
      </trkpt>
      <trkpt lat="49.82835" lon="2.14024">
        <ele>122.3</ele>
        <time>2023-02-22T14:48:15Z</time>
      </trkpt>
      <trkpt lat="49.82834" lon="2.14023">
        <ele>122.3</ele>
        <time>2023-02-22T14:48:16Z</time>
      </trkpt>
      <trkpt lat="49.82833" lon="2.14021">
        <ele>122.3</ele>
        <time>2023-02-22T14:48:17Z</time>
      </trkpt>
      <trkpt lat="49.82831" lon="2.14018">
        <ele>122.2</ele>
        <time>2023-02-22T14:48:18Z</time>
      </trkpt>
      <trkpt lat="49.8283" lon="2.14017">
        <ele>122.2</ele>
        <time>2023-02-22T14:48:19Z</time>
      </trkpt>
      <trkpt lat="49.82829" lon="2.14016">
        <ele>122.2</ele>
        <time>2023-02-22T14:48:21Z</time>
      </trkpt>
      <trkpt lat="49.82829" lon="2.14015">
        <ele>122.2</ele>
        <time>2023-02-22T14:48:22Z</time>
      </trkpt>
      <trkpt lat="49.82828" lon="2.14014">
        <ele>122.2</ele>
        <time>2023-02-22T14:48:23Z</time>
      </trkpt>
      <trkpt lat="49.82827" lon="2.14013">
        <ele>122.2</ele>
        <time>2023-02-22T14:48:24Z</time>
      </trkpt>
      <trkpt lat="49.82826" lon="2.14011">
        <ele>122.2</ele>
        <time>2023-02-22T14:48:25Z</time>
      </trkpt>
      <trkpt lat="49.82825" lon="2.1401">
        <ele>122.2</ele>
        <time>2023-02-22T14:48:26Z</time>
      </trkpt>
      <trkpt lat="49.82824" lon="2.14008">
        <ele>122.2</ele>
        <time>2023-02-22T14:48:27Z</time>
      </trkpt>
      <trkpt lat="49.82823" lon="2.14007">
        <ele>122.2</ele>
        <time>2023-02-22T14:48:28Z</time>
      </trkpt>
      <trkpt lat="49.82821" lon="2.14006">
        <ele>122.2</ele>
        <time>2023-02-22T14:48:29Z</time>
      </trkpt>
      <trkpt lat="49.8282" lon="2.14004">
        <ele>122.1</ele>
        <time>2023-02-22T14:48:30Z</time>
      </trkpt>
      <trkpt lat="49.82819" lon="2.14002">
        <ele>122.1</ele>
        <time>2023-02-22T14:48:31Z</time>
      </trkpt>
      <trkpt lat="49.82818" lon="2.14001">
        <ele>122.1</ele>
        <time>2023-02-22T14:48:33Z</time>
      </trkpt>
      <trkpt lat="49.82817" lon="2.14">
        <ele>122.1</ele>
        <time>2023-02-22T14:48:34Z</time>
      </trkpt>
      <trkpt lat="49.82815" lon="2.13998">
        <ele>122</ele>
        <time>2023-02-22T14:48:35Z</time>
      </trkpt>
      <trkpt lat="49.82813" lon="2.13996">
        <ele>122</ele>
        <time>2023-02-22T14:48:36Z</time>
      </trkpt>
      <trkpt lat="49.82812" lon="2.13995">
        <ele>122</ele>
        <time>2023-02-22T14:48:37Z</time>
      </trkpt>
      <trkpt lat="49.82811" lon="2.13994">
        <ele>121.9</ele>
        <time>2023-02-22T14:48:39Z</time>
      </trkpt>
      <trkpt lat="49.8281" lon="2.13992">
        <ele>121.9</ele>
        <time>2023-02-22T14:48:40Z</time>
      </trkpt>
      <trkpt lat="49.82808" lon="2.1399">
        <ele>121.9</ele>
        <time>2023-02-22T14:48:41Z</time>
      </trkpt>
      <trkpt lat="49.82808" lon="2.13989">
        <ele>121.9</ele>
        <time>2023-02-22T14:48:42Z</time>
      </trkpt>
      <trkpt lat="49.82807" lon="2.13988">
        <ele>121.8</ele>
        <time>2023-02-22T14:48:43Z</time>
      </trkpt>
      <trkpt lat="49.82806" lon="2.13986">
        <ele>121.8</ele>
        <time>2023-02-22T14:48:45Z</time>
      </trkpt>
      <trkpt lat="49.82805" lon="2.13985">
        <ele>121.8</ele>
        <time>2023-02-22T14:48:46Z</time>
      </trkpt>
      <trkpt lat="49.82804" lon="2.13982">
        <ele>121.7</ele>
        <time>2023-02-22T14:48:47Z</time>
      </trkpt>
      <trkpt lat="49.82803" lon="2.13981">
        <ele>121.7</ele>
        <time>2023-02-22T14:48:48Z</time>
      </trkpt>
      <trkpt lat="49.82802" lon="2.1398">
        <ele>121.7</ele>
        <time>2023-02-22T14:48:49Z</time>
      </trkpt>
      <trkpt lat="49.82801" lon="2.13979">
        <ele>121.7</ele>
        <time>2023-02-22T14:48:50Z</time>
      </trkpt>
      <trkpt lat="49.828" lon="2.13977">
        <ele>121.7</ele>
        <time>2023-02-22T14:48:51Z</time>
      </trkpt>
      <trkpt lat="49.82799" lon="2.13976">
        <ele>121.7</ele>
        <time>2023-02-22T14:48:52Z</time>
      </trkpt>
      <trkpt lat="49.82798" lon="2.13974">
        <ele>121.6</ele>
        <time>2023-02-22T14:48:53Z</time>
      </trkpt>
      <trkpt lat="49.82797" lon="2.13973">
        <ele>121.6</ele>
        <time>2023-02-22T14:48:54Z</time>
      </trkpt>
      <trkpt lat="49.82796" lon="2.13971">
        <ele>121.6</ele>
        <time>2023-02-22T14:48:55Z</time>
      </trkpt>
      <trkpt lat="49.82795" lon="2.13968">
        <ele>121.6</ele>
        <time>2023-02-22T14:48:56Z</time>
      </trkpt>
      <trkpt lat="49.82794" lon="2.13966">
        <ele>121.5</ele>
        <time>2023-02-22T14:48:58Z</time>
      </trkpt>
      <trkpt lat="49.82794" lon="2.13965">
        <ele>121.5</ele>
        <time>2023-02-22T14:48:59Z</time>
      </trkpt>
      <trkpt lat="49.82793" lon="2.13964">
        <ele>121.5</ele>
        <time>2023-02-22T14:49:00Z</time>
      </trkpt>
      <trkpt lat="49.82793" lon="2.13962">
        <ele>121.5</ele>
        <time>2023-02-22T14:49:01Z</time>
      </trkpt>
      <trkpt lat="49.82791" lon="2.1396">
        <ele>121.5</ele>
        <time>2023-02-22T14:49:02Z</time>
      </trkpt>
      <trkpt lat="49.82791" lon="2.13959">
        <ele>121.5</ele>
        <time>2023-02-22T14:49:03Z</time>
      </trkpt>
      <trkpt lat="49.8279" lon="2.13957">
        <ele>121.4</ele>
        <time>2023-02-22T14:49:04Z</time>
      </trkpt>
      <trkpt lat="49.8279" lon="2.13956">
        <ele>121.4</ele>
        <time>2023-02-22T14:49:05Z</time>
      </trkpt>
      <trkpt lat="49.82789" lon="2.13955">
        <ele>121.4</ele>
        <time>2023-02-22T14:49:06Z</time>
      </trkpt>
      <trkpt lat="49.82788" lon="2.13953">
        <ele>121.4</ele>
        <time>2023-02-22T14:49:08Z</time>
      </trkpt>
      <trkpt lat="49.82788" lon="2.13952">
        <ele>121.4</ele>
        <time>2023-02-22T14:49:09Z</time>
      </trkpt>
      <trkpt lat="49.82787" lon="2.1395">
        <ele>121.4</ele>
        <time>2023-02-22T14:49:10Z</time>
      </trkpt>
      <trkpt lat="49.82786" lon="2.13948">
        <ele>121.3</ele>
        <time>2023-02-22T14:49:11Z</time>
      </trkpt>
      <trkpt lat="49.82785" lon="2.13946">
        <ele>121.3</ele>
        <time>2023-02-22T14:49:12Z</time>
      </trkpt>
      <trkpt lat="49.82784" lon="2.13945">
        <ele>121.3</ele>
        <time>2023-02-22T14:49:13Z</time>
      </trkpt>
      <trkpt lat="49.82783" lon="2.13944">
        <ele>121.3</ele>
        <time>2023-02-22T14:49:14Z</time>
      </trkpt>
      <trkpt lat="49.82782" lon="2.13943">
        <ele>121.3</ele>
        <time>2023-02-22T14:49:16Z</time>
      </trkpt>
      <trkpt lat="49.82781" lon="2.13941">
        <ele>121.2</ele>
        <time>2023-02-22T14:49:17Z</time>
      </trkpt>
      <trkpt lat="49.8278" lon="2.1394">
        <ele>121.2</ele>
        <time>2023-02-22T14:49:18Z</time>
      </trkpt>
      <trkpt lat="49.82779" lon="2.13938">
        <ele>121.2</ele>
        <time>2023-02-22T14:49:19Z</time>
      </trkpt>
      <trkpt lat="49.82777" lon="2.13937">
        <ele>121.1</ele>
        <time>2023-02-22T14:49:20Z</time>
      </trkpt>
      <trkpt lat="49.82776" lon="2.13935">
        <ele>121.1</ele>
        <time>2023-02-22T14:49:21Z</time>
      </trkpt>
      <trkpt lat="49.82775" lon="2.13934">
        <ele>121.1</ele>
        <time>2023-02-22T14:49:23Z</time>
      </trkpt>
      <trkpt lat="49.82774" lon="2.13932">
        <ele>121.1</ele>
        <time>2023-02-22T14:49:24Z</time>
      </trkpt>
      <trkpt lat="49.82773" lon="2.1393">
        <ele>121</ele>
        <time>2023-02-22T14:49:25Z</time>
      </trkpt>
      <trkpt lat="49.82772" lon="2.13929">
        <ele>121</ele>
        <time>2023-02-22T14:49:26Z</time>
      </trkpt>
      <trkpt lat="49.82772" lon="2.13928">
        <ele>121</ele>
        <time>2023-02-22T14:49:27Z</time>
      </trkpt>
      <trkpt lat="49.82771" lon="2.13927">
        <ele>120.9</ele>
        <time>2023-02-22T14:49:28Z</time>
      </trkpt>
      <trkpt lat="49.8277" lon="2.13925">
        <ele>120.9</ele>
        <time>2023-02-22T14:49:29Z</time>
      </trkpt>
      <trkpt lat="49.82769" lon="2.13924">
        <ele>120.9</ele>
        <time>2023-02-22T14:49:31Z</time>
      </trkpt>
      <trkpt lat="49.82768" lon="2.13923">
        <ele>120.8</ele>
        <time>2023-02-22T14:49:32Z</time>
      </trkpt>
      <trkpt lat="49.82767" lon="2.13921">
        <ele>120.8</ele>
        <time>2023-02-22T14:49:33Z</time>
      </trkpt>
      <trkpt lat="49.82766" lon="2.1392">
        <ele>120.8</ele>
        <time>2023-02-22T14:49:34Z</time>
      </trkpt>
      <trkpt lat="49.82765" lon="2.13918">
        <ele>120.7</ele>
        <time>2023-02-22T14:49:35Z</time>
      </trkpt>
      <trkpt lat="49.82764" lon="2.13917">
        <ele>120.7</ele>
        <time>2023-02-22T14:49:36Z</time>
      </trkpt>
      <trkpt lat="49.82763" lon="2.13915">
        <ele>120.6</ele>
        <time>2023-02-22T14:49:37Z</time>
      </trkpt>
      <trkpt lat="49.82762" lon="2.13914">
        <ele>120.6</ele>
        <time>2023-02-22T14:49:38Z</time>
      </trkpt>
      <trkpt lat="49.82762" lon="2.13913">
        <ele>120.6</ele>
        <time>2023-02-22T14:49:39Z</time>
      </trkpt>
      <trkpt lat="49.8276" lon="2.1391">
        <ele>120.5</ele>
        <time>2023-02-22T14:49:41Z</time>
      </trkpt>
      <trkpt lat="49.8276" lon="2.13909">
        <ele>120.5</ele>
        <time>2023-02-22T14:49:42Z</time>
      </trkpt>
      <trkpt lat="49.82759" lon="2.13908">
        <ele>120.5</ele>
        <time>2023-02-22T14:49:43Z</time>
      </trkpt>
      <trkpt lat="49.82758" lon="2.13907">
        <ele>120.4</ele>
        <time>2023-02-22T14:49:44Z</time>
      </trkpt>
      <trkpt lat="49.82757" lon="2.13904">
        <ele>120.3</ele>
        <time>2023-02-22T14:49:46Z</time>
      </trkpt>
      <trkpt lat="49.82756" lon="2.13903">
        <ele>120.3</ele>
        <time>2023-02-22T14:49:47Z</time>
      </trkpt>
      <trkpt lat="49.82756" lon="2.13902">
        <ele>120.3</ele>
        <time>2023-02-22T14:49:48Z</time>
      </trkpt>
      <trkpt lat="49.82755" lon="2.139">
        <ele>120.2</ele>
        <time>2023-02-22T14:49:49Z</time>
      </trkpt>
      <trkpt lat="49.82754" lon="2.13899">
        <ele>120.2</ele>
        <time>2023-02-22T14:49:50Z</time>
      </trkpt>
      <trkpt lat="49.82753" lon="2.13898">
        <ele>120.2</ele>
        <time>2023-02-22T14:49:51Z</time>
      </trkpt>
      <trkpt lat="49.82752" lon="2.13897">
        <ele>120.1</ele>
        <time>2023-02-22T14:49:53Z</time>
      </trkpt>
      <trkpt lat="49.82751" lon="2.13896">
        <ele>120.1</ele>
        <time>2023-02-22T14:49:54Z</time>
      </trkpt>
      <trkpt lat="49.8275" lon="2.13895">
        <ele>120</ele>
        <time>2023-02-22T14:49:55Z</time>
      </trkpt>
      <trkpt lat="49.8275" lon="2.13894">
        <ele>120</ele>
        <time>2023-02-22T14:49:56Z</time>
      </trkpt>
      <trkpt lat="49.82748" lon="2.13892">
        <ele>119.9</ele>
        <time>2023-02-22T14:49:57Z</time>
      </trkpt>
      <trkpt lat="49.82747" lon="2.13891">
        <ele>119.9</ele>
        <time>2023-02-22T14:49:58Z</time>
      </trkpt>
      <trkpt lat="49.82747" lon="2.1389">
        <ele>119.8</ele>
        <time>2023-02-22T14:49:59Z</time>
      </trkpt>
      <trkpt lat="49.82746" lon="2.13888">
        <ele>119.8</ele>
        <time>2023-02-22T14:50:00Z</time>
      </trkpt>
      <trkpt lat="49.82745" lon="2.13887">
        <ele>119.7</ele>
        <time>2023-02-22T14:50:01Z</time>
      </trkpt>
      <trkpt lat="49.82744" lon="2.13885">
        <ele>119.7</ele>
        <time>2023-02-22T14:50:03Z</time>
      </trkpt>
      <trkpt lat="49.82743" lon="2.13884">
        <ele>119.6</ele>
        <time>2023-02-22T14:50:04Z</time>
      </trkpt>
      <trkpt lat="49.82742" lon="2.13883">
        <ele>119.5</ele>
        <time>2023-02-22T14:50:05Z</time>
      </trkpt>
      <trkpt lat="49.82741" lon="2.13883">
        <ele>119.5</ele>
        <time>2023-02-22T14:50:06Z</time>
      </trkpt>
      <trkpt lat="49.82741" lon="2.13882">
        <ele>119.4</ele>
        <time>2023-02-22T14:50:07Z</time>
      </trkpt>
      <trkpt lat="49.8274" lon="2.13881">
        <ele>119.4</ele>
        <time>2023-02-22T14:50:08Z</time>
      </trkpt>
      <trkpt lat="49.82739" lon="2.1388">
        <ele>119.4</ele>
        <time>2023-02-22T14:50:09Z</time>
      </trkpt>
      <trkpt lat="49.82739" lon="2.13879">
        <ele>119.3</ele>
        <time>2023-02-22T14:50:10Z</time>
      </trkpt>
      <trkpt lat="49.82738" lon="2.13877">
        <ele>119.3</ele>
        <time>2023-02-22T14:50:11Z</time>
      </trkpt>
      <trkpt lat="49.82738" lon="2.13875">
        <ele>119.2</ele>
        <time>2023-02-22T14:50:12Z</time>
      </trkpt>
      <trkpt lat="49.82737" lon="2.13874">
        <ele>119.1</ele>
        <time>2023-02-22T14:50:14Z</time>
      </trkpt>
      <trkpt lat="49.82736" lon="2.13872">
        <ele>119.1</ele>
        <time>2023-02-22T14:50:15Z</time>
      </trkpt>
      <trkpt lat="49.82736" lon="2.13871">
        <ele>119</ele>
        <time>2023-02-22T14:50:16Z</time>
      </trkpt>
      <trkpt lat="49.82735" lon="2.1387">
        <ele>119</ele>
        <time>2023-02-22T14:50:17Z</time>
      </trkpt>
      <trkpt lat="49.82735" lon="2.13869">
        <ele>118.9</ele>
        <time>2023-02-22T14:50:18Z</time>
      </trkpt>
      <trkpt lat="49.82734" lon="2.13868">
        <ele>118.9</ele>
        <time>2023-02-22T14:50:19Z</time>
      </trkpt>
      <trkpt lat="49.82733" lon="2.13865">
        <ele>118.8</ele>
        <time>2023-02-22T14:50:20Z</time>
      </trkpt>
      <trkpt lat="49.82732" lon="2.13864">
        <ele>118.7</ele>
        <time>2023-02-22T14:50:22Z</time>
      </trkpt>
      <trkpt lat="49.82731" lon="2.13862">
        <ele>118.6</ele>
        <time>2023-02-22T14:50:24Z</time>
      </trkpt>
      <trkpt lat="49.8273" lon="2.13861">
        <ele>118.6</ele>
        <time>2023-02-22T14:50:25Z</time>
      </trkpt>
      <trkpt lat="49.8273" lon="2.1386">
        <ele>118.5</ele>
        <time>2023-02-22T14:50:26Z</time>
      </trkpt>
      <trkpt lat="49.82729" lon="2.13858">
        <ele>118.4</ele>
        <time>2023-02-22T14:50:27Z</time>
      </trkpt>
      <trkpt lat="49.82727" lon="2.13857">
        <ele>118.4</ele>
        <time>2023-02-22T14:50:28Z</time>
      </trkpt>
      <trkpt lat="49.82726" lon="2.13855">
        <ele>118.3</ele>
        <time>2023-02-22T14:50:29Z</time>
      </trkpt>
      <trkpt lat="49.82726" lon="2.13854">
        <ele>118.2</ele>
        <time>2023-02-22T14:50:30Z</time>
      </trkpt>
      <trkpt lat="49.82724" lon="2.13852">
        <ele>118.1</ele>
        <time>2023-02-22T14:50:31Z</time>
      </trkpt>
      <trkpt lat="49.82723" lon="2.1385">
        <ele>118</ele>
        <time>2023-02-22T14:50:33Z</time>
      </trkpt>
      <trkpt lat="49.82722" lon="2.13848">
        <ele>117.9</ele>
        <time>2023-02-22T14:50:34Z</time>
      </trkpt>
      <trkpt lat="49.82721" lon="2.13846">
        <ele>117.9</ele>
        <time>2023-02-22T14:50:35Z</time>
      </trkpt>
      <trkpt lat="49.82719" lon="2.13842">
        <ele>117.8</ele>
        <time>2023-02-22T14:50:36Z</time>
      </trkpt>
      <trkpt lat="49.82719" lon="2.13841">
        <ele>117.7</ele>
        <time>2023-02-22T14:50:37Z</time>
      </trkpt>
      <trkpt lat="49.82718" lon="2.1384">
        <ele>117.7</ele>
        <time>2023-02-22T14:50:38Z</time>
      </trkpt>
      <trkpt lat="49.82716" lon="2.13836">
        <ele>117.6</ele>
        <time>2023-02-22T14:50:40Z</time>
      </trkpt>
      <trkpt lat="49.82715" lon="2.13835">
        <ele>117.5</ele>
        <time>2023-02-22T14:50:41Z</time>
      </trkpt>
      <trkpt lat="49.82714" lon="2.13833">
        <ele>117.5</ele>
        <time>2023-02-22T14:50:42Z</time>
      </trkpt>
      <trkpt lat="49.82713" lon="2.13831">
        <ele>117.5</ele>
        <time>2023-02-22T14:50:43Z</time>
      </trkpt>
      <trkpt lat="49.82712" lon="2.13829">
        <ele>117.4</ele>
        <time>2023-02-22T14:50:45Z</time>
      </trkpt>
      <trkpt lat="49.82711" lon="2.13828">
        <ele>117.4</ele>
        <time>2023-02-22T14:50:46Z</time>
      </trkpt>
      <trkpt lat="49.82711" lon="2.13826">
        <ele>117.4</ele>
        <time>2023-02-22T14:50:47Z</time>
      </trkpt>
      <trkpt lat="49.82709" lon="2.13824">
        <ele>117.3</ele>
        <time>2023-02-22T14:50:48Z</time>
      </trkpt>
      <trkpt lat="49.82708" lon="2.13823">
        <ele>117.3</ele>
        <time>2023-02-22T14:50:49Z</time>
      </trkpt>
      <trkpt lat="49.82707" lon="2.13821">
        <ele>117.3</ele>
        <time>2023-02-22T14:50:50Z</time>
      </trkpt>
      <trkpt lat="49.82706" lon="2.1382">
        <ele>117.3</ele>
        <time>2023-02-22T14:50:51Z</time>
      </trkpt>
      <trkpt lat="49.82705" lon="2.13818">
        <ele>117.2</ele>
        <time>2023-02-22T14:50:53Z</time>
      </trkpt>
      <trkpt lat="49.82704" lon="2.13816">
        <ele>117.2</ele>
        <time>2023-02-22T14:50:54Z</time>
      </trkpt>
      <trkpt lat="49.82703" lon="2.13815">
        <ele>117.2</ele>
        <time>2023-02-22T14:50:55Z</time>
      </trkpt>
      <trkpt lat="49.82701" lon="2.13813">
        <ele>117.2</ele>
        <time>2023-02-22T14:50:56Z</time>
      </trkpt>
      <trkpt lat="49.827" lon="2.13812">
        <ele>117.1</ele>
        <time>2023-02-22T14:50:57Z</time>
      </trkpt>
      <trkpt lat="49.82699" lon="2.1381">
        <ele>117.1</ele>
        <time>2023-02-22T14:50:58Z</time>
      </trkpt>
      <trkpt lat="49.82698" lon="2.13808">
        <ele>117.1</ele>
        <time>2023-02-22T14:50:59Z</time>
      </trkpt>
      <trkpt lat="49.82697" lon="2.13807">
        <ele>117.1</ele>
        <time>2023-02-22T14:51:00Z</time>
      </trkpt>
      <trkpt lat="49.82695" lon="2.13805">
        <ele>117.1</ele>
        <time>2023-02-22T14:51:01Z</time>
      </trkpt>
      <trkpt lat="49.82695" lon="2.13804">
        <ele>117.1</ele>
        <time>2023-02-22T14:51:02Z</time>
      </trkpt>
      <trkpt lat="49.82694" lon="2.13803">
        <ele>117.1</ele>
        <time>2023-02-22T14:51:03Z</time>
      </trkpt>
      <trkpt lat="49.82693" lon="2.13802">
        <ele>117.1</ele>
        <time>2023-02-22T14:51:04Z</time>
      </trkpt>
      <trkpt lat="49.82693" lon="2.13801">
        <ele>117.1</ele>
        <time>2023-02-22T14:51:06Z</time>
      </trkpt>
      <trkpt lat="49.82692" lon="2.138">
        <ele>117.1</ele>
        <time>2023-02-22T14:51:07Z</time>
      </trkpt>
      <trkpt lat="49.82691" lon="2.13799">
        <ele>117.1</ele>
        <time>2023-02-22T14:51:08Z</time>
      </trkpt>
      <trkpt lat="49.8269" lon="2.13798">
        <ele>117.1</ele>
        <time>2023-02-22T14:51:09Z</time>
      </trkpt>
      <trkpt lat="49.82689" lon="2.13797">
        <ele>117.1</ele>
        <time>2023-02-22T14:51:10Z</time>
      </trkpt>
      <trkpt lat="49.82688" lon="2.13796">
        <ele>117.1</ele>
        <time>2023-02-22T14:51:11Z</time>
      </trkpt>
      <trkpt lat="49.82687" lon="2.13796">
        <ele>117.2</ele>
        <time>2023-02-22T14:51:12Z</time>
      </trkpt>
      <trkpt lat="49.82687" lon="2.13794">
        <ele>117.2</ele>
        <time>2023-02-22T14:51:14Z</time>
      </trkpt>
      <trkpt lat="49.82686" lon="2.13793">
        <ele>117.2</ele>
        <time>2023-02-22T14:51:15Z</time>
      </trkpt>
      <trkpt lat="49.82685" lon="2.13792">
        <ele>117.2</ele>
        <time>2023-02-22T14:51:16Z</time>
      </trkpt>
      <trkpt lat="49.82684" lon="2.13791">
        <ele>117.2</ele>
        <time>2023-02-22T14:51:17Z</time>
      </trkpt>
      <trkpt lat="49.82684" lon="2.1379">
        <ele>117.2</ele>
        <time>2023-02-22T14:51:18Z</time>
      </trkpt>
      <trkpt lat="49.82683" lon="2.13789">
        <ele>117.3</ele>
        <time>2023-02-22T14:51:19Z</time>
      </trkpt>
      <trkpt lat="49.82682" lon="2.13787">
        <ele>117.3</ele>
        <time>2023-02-22T14:51:20Z</time>
      </trkpt>
      <trkpt lat="49.82681" lon="2.13786">
        <ele>117.3</ele>
        <time>2023-02-22T14:51:21Z</time>
      </trkpt>
      <trkpt lat="49.8268" lon="2.13785">
        <ele>117.4</ele>
        <time>2023-02-22T14:51:23Z</time>
      </trkpt>
      <trkpt lat="49.82679" lon="2.13784">
        <ele>117.4</ele>
        <time>2023-02-22T14:51:24Z</time>
      </trkpt>
      <trkpt lat="49.82677" lon="2.13782">
        <ele>117.5</ele>
        <time>2023-02-22T14:51:25Z</time>
      </trkpt>
      <trkpt lat="49.82676" lon="2.1378">
        <ele>117.5</ele>
        <time>2023-02-22T14:51:26Z</time>
      </trkpt>
      <trkpt lat="49.82676" lon="2.13779">
        <ele>117.5</ele>
        <time>2023-02-22T14:51:27Z</time>
      </trkpt>
      <trkpt lat="49.82675" lon="2.13776">
        <ele>117.6</ele>
        <time>2023-02-22T14:51:28Z</time>
      </trkpt>
      <trkpt lat="49.82674" lon="2.13775">
        <ele>117.6</ele>
        <time>2023-02-22T14:51:29Z</time>
      </trkpt>
      <trkpt lat="49.82674" lon="2.13774">
        <ele>117.7</ele>
        <time>2023-02-22T14:51:31Z</time>
      </trkpt>
      <trkpt lat="49.82673" lon="2.13772">
        <ele>117.7</ele>
        <time>2023-02-22T14:51:32Z</time>
      </trkpt>
      <trkpt lat="49.82673" lon="2.13771">
        <ele>117.7</ele>
        <time>2023-02-22T14:51:33Z</time>
      </trkpt>
      <trkpt lat="49.82672" lon="2.13769">
        <ele>117.7</ele>
        <time>2023-02-22T14:51:34Z</time>
      </trkpt>
      <trkpt lat="49.82672" lon="2.13768">
        <ele>117.8</ele>
        <time>2023-02-22T14:51:35Z</time>
      </trkpt>
      <trkpt lat="49.82671" lon="2.13766">
        <ele>117.8</ele>
        <time>2023-02-22T14:51:37Z</time>
      </trkpt>
      <trkpt lat="49.82671" lon="2.13765">
        <ele>117.9</ele>
        <time>2023-02-22T14:51:38Z</time>
      </trkpt>
      <trkpt lat="49.8267" lon="2.13763">
        <ele>117.9</ele>
        <time>2023-02-22T14:51:39Z</time>
      </trkpt>
      <trkpt lat="49.8267" lon="2.13762">
        <ele>117.9</ele>
        <time>2023-02-22T14:51:40Z</time>
      </trkpt>
      <trkpt lat="49.82669" lon="2.1376">
        <ele>118</ele>
        <time>2023-02-22T14:51:41Z</time>
      </trkpt>
      <trkpt lat="49.82669" lon="2.13759">
        <ele>118</ele>
        <time>2023-02-22T14:51:43Z</time>
      </trkpt>
      <trkpt lat="49.82668" lon="2.13757">
        <ele>118</ele>
        <time>2023-02-22T14:51:44Z</time>
      </trkpt>
      <trkpt lat="49.82668" lon="2.13756">
        <ele>118.1</ele>
        <time>2023-02-22T14:51:45Z</time>
      </trkpt>
      <trkpt lat="49.82667" lon="2.13754">
        <ele>118.1</ele>
        <time>2023-02-22T14:51:46Z</time>
      </trkpt>
      <trkpt lat="49.82667" lon="2.13752">
        <ele>118.2</ele>
        <time>2023-02-22T14:51:47Z</time>
      </trkpt>
      <trkpt lat="49.82667" lon="2.1375">
        <ele>118.2</ele>
        <time>2023-02-22T14:51:48Z</time>
      </trkpt>
      <trkpt lat="49.82667" lon="2.13747">
        <ele>118.3</ele>
        <time>2023-02-22T14:51:50Z</time>
      </trkpt>
      <trkpt lat="49.82667" lon="2.13746">
        <ele>118.3</ele>
        <time>2023-02-22T14:51:51Z</time>
      </trkpt>
      <trkpt lat="49.82667" lon="2.13745">
        <ele>118.4</ele>
        <time>2023-02-22T14:51:52Z</time>
      </trkpt>
      <trkpt lat="49.82667" lon="2.13743">
        <ele>118.4</ele>
        <time>2023-02-22T14:51:53Z</time>
      </trkpt>
      <trkpt lat="49.82667" lon="2.1374">
        <ele>118.5</ele>
        <time>2023-02-22T14:51:54Z</time>
      </trkpt>
      <trkpt lat="49.82668" lon="2.13738">
        <ele>118.5</ele>
        <time>2023-02-22T14:51:56Z</time>
      </trkpt>
      <trkpt lat="49.82667" lon="2.13737">
        <ele>118.6</ele>
        <time>2023-02-22T14:51:57Z</time>
      </trkpt>
      <trkpt lat="49.82667" lon="2.13735">
        <ele>118.6</ele>
        <time>2023-02-22T14:51:58Z</time>
      </trkpt>
      <trkpt lat="49.82667" lon="2.13732">
        <ele>118.7</ele>
        <time>2023-02-22T14:51:59Z</time>
      </trkpt>
      <trkpt lat="49.82667" lon="2.13731">
        <ele>118.8</ele>
        <time>2023-02-22T14:52:00Z</time>
      </trkpt>
      <trkpt lat="49.82667" lon="2.13729">
        <ele>118.8</ele>
        <time>2023-02-22T14:52:01Z</time>
      </trkpt>
      <trkpt lat="49.82666" lon="2.13727">
        <ele>118.9</ele>
        <time>2023-02-22T14:52:02Z</time>
      </trkpt>
      <trkpt lat="49.82666" lon="2.13726">
        <ele>118.9</ele>
        <time>2023-02-22T14:52:04Z</time>
      </trkpt>
      <trkpt lat="49.82666" lon="2.13724">
        <ele>119</ele>
        <time>2023-02-22T14:52:05Z</time>
      </trkpt>
      <trkpt lat="49.82666" lon="2.13722">
        <ele>119</ele>
        <time>2023-02-22T14:52:06Z</time>
      </trkpt>
      <trkpt lat="49.82666" lon="2.13721">
        <ele>119.1</ele>
        <time>2023-02-22T14:52:07Z</time>
      </trkpt>
      <trkpt lat="49.82666" lon="2.13719">
        <ele>119.1</ele>
        <time>2023-02-22T14:52:08Z</time>
      </trkpt>
      <trkpt lat="49.82665" lon="2.13718">
        <ele>119.1</ele>
        <time>2023-02-22T14:52:09Z</time>
      </trkpt>
      <trkpt lat="49.82665" lon="2.13716">
        <ele>119.2</ele>
        <time>2023-02-22T14:52:10Z</time>
      </trkpt>
      <trkpt lat="49.82665" lon="2.13715">
        <ele>119.3</ele>
        <time>2023-02-22T14:52:11Z</time>
      </trkpt>
      <trkpt lat="49.82664" lon="2.13713">
        <ele>119.2</ele>
        <time>2023-02-22T14:52:12Z</time>
      </trkpt>
      <trkpt lat="49.82663" lon="2.13712">
        <ele>119.2</ele>
        <time>2023-02-22T14:52:13Z</time>
      </trkpt>
      <trkpt lat="49.82663" lon="2.13711">
        <ele>119.2</ele>
        <time>2023-02-22T14:52:15Z</time>
      </trkpt>
      <trkpt lat="49.82662" lon="2.1371">
        <ele>119.2</ele>
        <time>2023-02-22T14:52:16Z</time>
      </trkpt>
      <trkpt lat="49.82662" lon="2.13709">
        <ele>119.2</ele>
        <time>2023-02-22T14:52:17Z</time>
      </trkpt>
      <trkpt lat="49.82662" lon="2.13707">
        <ele>119.2</ele>
        <time>2023-02-22T14:52:18Z</time>
      </trkpt>
      <trkpt lat="49.82662" lon="2.13706">
        <ele>119.2</ele>
        <time>2023-02-22T14:52:19Z</time>
      </trkpt>
      <trkpt lat="49.82663" lon="2.13705">
        <ele>119.2</ele>
        <time>2023-02-22T14:52:20Z</time>
      </trkpt>
      <trkpt lat="49.82665" lon="2.13705">
        <ele>119.2</ele>
        <time>2023-02-22T14:52:21Z</time>
      </trkpt>
      <trkpt lat="49.82665" lon="2.13705">
        <ele>119.2</ele>
        <time>2023-02-22T14:52:23Z</time>
      </trkpt>
      <trkpt lat="49.82666" lon="2.13704">
        <ele>119.2</ele>
        <time>2023-02-22T14:52:24Z</time>
      </trkpt>
      <trkpt lat="49.82667" lon="2.13703">
        <ele>119.2</ele>
        <time>2023-02-22T14:52:25Z</time>
      </trkpt>
      <trkpt lat="49.82667" lon="2.13702">
        <ele>119.2</ele>
        <time>2023-02-22T14:52:26Z</time>
      </trkpt>
      <trkpt lat="49.82667" lon="2.137">
        <ele>119.2</ele>
        <time>2023-02-22T14:52:27Z</time>
      </trkpt>
      <trkpt lat="49.82667" lon="2.13699">
        <ele>119.2</ele>
        <time>2023-02-22T14:52:28Z</time>
      </trkpt>
      <trkpt lat="49.82667" lon="2.13696">
        <ele>119.2</ele>
        <time>2023-02-22T14:52:30Z</time>
      </trkpt>
      <trkpt lat="49.82667" lon="2.13694">
        <ele>119.2</ele>
        <time>2023-02-22T14:52:32Z</time>
      </trkpt>
      <trkpt lat="49.82667" lon="2.13693">
        <ele>119.1</ele>
        <time>2023-02-22T14:52:33Z</time>
      </trkpt>
      <trkpt lat="49.82666" lon="2.13692">
        <ele>119.1</ele>
        <time>2023-02-22T14:52:34Z</time>
      </trkpt>
      <trkpt lat="49.82666" lon="2.13692">
        <ele>119.1</ele>
        <time>2023-02-22T14:52:35Z</time>
      </trkpt>
      <trkpt lat="49.82665" lon="2.13692">
        <ele>119.1</ele>
        <time>2023-02-22T14:52:37Z</time>
      </trkpt>
      <trkpt lat="49.82664" lon="2.13693">
        <ele>119.1</ele>
        <time>2023-02-22T14:52:38Z</time>
      </trkpt>
      <trkpt lat="49.82664" lon="2.13691">
        <ele>119.1</ele>
        <time>2023-02-22T14:52:40Z</time>
      </trkpt>
      <trkpt lat="49.82664" lon="2.13691">
        <ele>119.1</ele>
        <time>2023-02-22T14:52:42Z</time>
      </trkpt>
      <trkpt lat="49.82664" lon="2.13691">
        <ele>119.1</ele>
        <time>2023-02-22T14:52:43Z</time>
      </trkpt>
      <trkpt lat="49.82664" lon="2.1369">
        <ele>119.1</ele>
        <time>2023-02-22T14:52:45Z</time>
      </trkpt>
      <trkpt lat="49.82664" lon="2.1369">
        <ele>119.1</ele>
        <time>2023-02-22T14:52:46Z</time>
      </trkpt>
      <trkpt lat="49.82664" lon="2.1369">
        <ele>119.1</ele>
        <time>2023-02-22T14:52:48Z</time>
      </trkpt>
      <trkpt lat="49.82664" lon="2.1369">
        <ele>119.1</ele>
        <time>2023-02-22T14:52:49Z</time>
      </trkpt>
      <trkpt lat="49.82664" lon="2.1369">
        <ele>119.1</ele>
        <time>2023-02-22T14:52:50Z</time>
      </trkpt>
      <trkpt lat="49.82664" lon="2.13689">
        <ele>119.1</ele>
        <time>2023-02-22T14:52:52Z</time>
      </trkpt>
      <trkpt lat="49.82664" lon="2.1369">
        <ele>119.1</ele>
        <time>2023-02-22T14:52:53Z</time>
      </trkpt>
      <trkpt lat="49.82664" lon="2.13691">
        <ele>119.1</ele>
        <time>2023-02-22T14:52:55Z</time>
      </trkpt>
      <trkpt lat="49.82664" lon="2.13691">
        <ele>119.1</ele>
        <time>2023-02-22T14:52:56Z</time>
      </trkpt>
      <trkpt lat="49.82664" lon="2.13693">
        <ele>119.1</ele>
        <time>2023-02-22T14:52:57Z</time>
      </trkpt>
      <trkpt lat="49.82664" lon="2.13694">
        <ele>119.1</ele>
        <time>2023-02-22T14:52:58Z</time>
      </trkpt>
      <trkpt lat="49.82664" lon="2.13694">
        <ele>119.1</ele>
        <time>2023-02-22T14:52:59Z</time>
      </trkpt>
      <trkpt lat="49.82664" lon="2.13695">
        <ele>119.1</ele>
        <time>2023-02-22T14:53:00Z</time>
      </trkpt>
      <trkpt lat="49.82664" lon="2.13695">
        <ele>119.1</ele>
        <time>2023-02-22T14:53:01Z</time>
      </trkpt>
      <trkpt lat="49.82664" lon="2.13695">
        <ele>119.1</ele>
        <time>2023-02-22T14:53:02Z</time>
      </trkpt>
      <trkpt lat="49.82664" lon="2.13695">
        <ele>119.1</ele>
        <time>2023-02-22T14:53:03Z</time>
      </trkpt>
      <trkpt lat="49.82664" lon="2.13695">
        <ele>119.1</ele>
        <time>2023-02-22T14:53:04Z</time>
      </trkpt>
      <trkpt lat="49.82664" lon="2.13695">
        <ele>119.1</ele>
        <time>2023-02-22T14:53:05Z</time>
      </trkpt>
      <trkpt lat="49.82664" lon="2.13695">
        <ele>119.1</ele>
        <time>2023-02-22T14:53:06Z</time>
      </trkpt>
      <trkpt lat="49.82664" lon="2.13695">
        <ele>119.1</ele>
        <time>2023-02-22T14:53:07Z</time>
      </trkpt>
      <trkpt lat="49.82664" lon="2.13695">
        <ele>119.1</ele>
        <time>2023-02-22T14:53:08Z</time>
      </trkpt>
      <trkpt lat="49.82664" lon="2.13695">
        <ele>119.1</ele>
        <time>2023-02-22T14:53:09Z</time>
      </trkpt>
      <trkpt lat="49.82664" lon="2.13695">
        <ele>119.1</ele>
        <time>2023-02-22T14:53:10Z</time>
      </trkpt>
      <trkpt lat="49.82664" lon="2.13695">
        <ele>119.1</ele>
        <time>2023-02-22T14:53:11Z</time>
      </trkpt>
      <trkpt lat="49.82664" lon="2.13695">
        <ele>119.1</ele>
        <time>2023-02-22T14:53:12Z</time>
      </trkpt>
      <trkpt lat="49.82664" lon="2.13695">
        <ele>119.1</ele>
        <time>2023-02-22T14:53:13Z</time>
      </trkpt>
      <trkpt lat="49.82664" lon="2.13695">
        <ele>119.1</ele>
        <time>2023-02-22T14:53:14Z</time>
      </trkpt>
      <trkpt lat="49.82664" lon="2.13695">
        <ele>119.1</ele>
        <time>2023-02-22T14:53:15Z</time>
      </trkpt>
      <trkpt lat="49.82664" lon="2.13695">
        <ele>119.1</ele>
        <time>2023-02-22T14:53:16Z</time>
      </trkpt>
      <trkpt lat="49.82664" lon="2.13695">
        <ele>119.1</ele>
        <time>2023-02-22T14:53:17Z</time>
      </trkpt>
      <trkpt lat="49.82664" lon="2.13695">
        <ele>119.1</ele>
        <time>2023-02-22T14:53:18Z</time>
      </trkpt>
      <trkpt lat="49.82664" lon="2.13695">
        <ele>119.1</ele>
        <time>2023-02-22T14:53:19Z</time>
      </trkpt>
      <trkpt lat="49.82664" lon="2.13695">
        <ele>119.1</ele>
        <time>2023-02-22T14:53:20Z</time>
      </trkpt>
      <trkpt lat="49.82664" lon="2.13695">
        <ele>119.1</ele>
        <time>2023-02-22T14:53:21Z</time>
      </trkpt>
      <trkpt lat="49.82664" lon="2.13695">
        <ele>119.1</ele>
        <time>2023-02-22T14:53:22Z</time>
      </trkpt>
      <trkpt lat="49.82664" lon="2.13695">
        <ele>119.1</ele>
        <time>2023-02-22T14:53:23Z</time>
      </trkpt>
      <trkpt lat="49.82664" lon="2.13695">
        <ele>119.1</ele>
        <time>2023-02-22T14:53:24Z</time>
      </trkpt>
      <trkpt lat="49.82664" lon="2.13695">
        <ele>119.1</ele>
        <time>2023-02-22T14:53:25Z</time>
      </trkpt>
      <trkpt lat="49.82664" lon="2.13695">
        <ele>119.1</ele>
        <time>2023-02-22T14:53:26Z</time>
      </trkpt>
      <trkpt lat="49.82664" lon="2.13695">
        <ele>119.1</ele>
        <time>2023-02-22T14:53:27Z</time>
      </trkpt>
      <trkpt lat="49.82664" lon="2.13695">
        <ele>119.1</ele>
        <time>2023-02-22T14:53:28Z</time>
      </trkpt>
      <trkpt lat="49.82664" lon="2.13695">
        <ele>119.1</ele>
        <time>2023-02-22T14:53:29Z</time>
      </trkpt>
      <trkpt lat="49.82664" lon="2.13695">
        <ele>119.1</ele>
        <time>2023-02-22T14:53:30Z</time>
      </trkpt>
      <trkpt lat="49.82664" lon="2.13695">
        <ele>119.1</ele>
        <time>2023-02-22T14:53:31Z</time>
      </trkpt>
      <trkpt lat="49.82664" lon="2.13695">
        <ele>119.1</ele>
        <time>2023-02-22T14:53:32Z</time>
      </trkpt>
      <trkpt lat="49.82664" lon="2.13695">
        <ele>119.1</ele>
        <time>2023-02-22T14:53:33Z</time>
      </trkpt>
      <trkpt lat="49.82664" lon="2.13695">
        <ele>119.1</ele>
        <time>2023-02-22T14:53:34Z</time>
      </trkpt>
      <trkpt lat="49.82664" lon="2.13695">
        <ele>119.1</ele>
        <time>2023-02-22T14:53:35Z</time>
      </trkpt>
      <trkpt lat="49.82664" lon="2.13695">
        <ele>119.1</ele>
        <time>2023-02-22T14:53:36Z</time>
      </trkpt>
      <trkpt lat="49.82664" lon="2.13695">
        <ele>119.1</ele>
        <time>2023-02-22T14:53:37Z</time>
      </trkpt>
      <trkpt lat="49.82664" lon="2.13695">
        <ele>119.1</ele>
        <time>2023-02-22T14:53:38Z</time>
      </trkpt>
      <trkpt lat="49.82664" lon="2.13695">
        <ele>119.1</ele>
        <time>2023-02-22T14:53:39Z</time>
      </trkpt>
      <trkpt lat="49.82664" lon="2.13695">
        <ele>119.1</ele>
        <time>2023-02-22T14:53:40Z</time>
      </trkpt>
      <trkpt lat="49.82664" lon="2.13695">
        <ele>119.1</ele>
        <time>2023-02-22T14:53:41Z</time>
      </trkpt>
      <trkpt lat="49.82664" lon="2.13695">
        <ele>119.1</ele>
        <time>2023-02-22T14:53:42Z</time>
      </trkpt>
      <trkpt lat="49.82664" lon="2.13695">
        <ele>119.1</ele>
        <time>2023-02-22T14:53:43Z</time>
      </trkpt>
      <trkpt lat="49.82664" lon="2.13695">
        <ele>119.1</ele>
        <time>2023-02-22T14:53:44Z</time>
      </trkpt>
      <trkpt lat="49.82664" lon="2.13695">
        <ele>119.1</ele>
        <time>2023-02-22T14:53:45Z</time>
      </trkpt>
      <trkpt lat="49.82664" lon="2.13695">
        <ele>119.1</ele>
        <time>2023-02-22T14:53:46Z</time>
      </trkpt>
      <trkpt lat="49.82664" lon="2.13695">
        <ele>119.1</ele>
        <time>2023-02-22T14:53:47Z</time>
      </trkpt>
      <trkpt lat="49.82664" lon="2.13695">
        <ele>119.1</ele>
        <time>2023-02-22T14:53:48Z</time>
      </trkpt>
      <trkpt lat="49.82664" lon="2.13695">
        <ele>119.1</ele>
        <time>2023-02-22T14:53:49Z</time>
      </trkpt>
      <trkpt lat="49.82664" lon="2.13695">
        <ele>119.1</ele>
        <time>2023-02-22T14:53:50Z</time>
      </trkpt>
      <trkpt lat="49.82664" lon="2.13695">
        <ele>119.1</ele>
        <time>2023-02-22T14:53:51Z</time>
      </trkpt>
      <trkpt lat="49.82664" lon="2.13695">
        <ele>119.1</ele>
        <time>2023-02-22T14:53:52Z</time>
      </trkpt>
      <trkpt lat="49.82664" lon="2.13695">
        <ele>119.1</ele>
        <time>2023-02-22T14:53:53Z</time>
      </trkpt>
      <trkpt lat="49.82664" lon="2.13695">
        <ele>119.1</ele>
        <time>2023-02-22T14:53:54Z</time>
      </trkpt>
      <trkpt lat="49.82664" lon="2.13695">
        <ele>119.1</ele>
        <time>2023-02-22T14:53:55Z</time>
      </trkpt>
      <trkpt lat="49.82664" lon="2.13695">
        <ele>119.1</ele>
        <time>2023-02-22T14:53:56Z</time>
      </trkpt>
      <trkpt lat="49.82664" lon="2.13695">
        <ele>119.1</ele>
        <time>2023-02-22T14:53:57Z</time>
      </trkpt>
      <trkpt lat="49.82664" lon="2.13695">
        <ele>119.1</ele>
        <time>2023-02-22T14:53:58Z</time>
      </trkpt>
      <trkpt lat="49.82664" lon="2.13695">
        <ele>119.1</ele>
        <time>2023-02-22T14:53:59Z</time>
      </trkpt>
      <trkpt lat="49.82664" lon="2.13695">
        <ele>119.1</ele>
        <time>2023-02-22T14:54:00Z</time>
      </trkpt>
      <trkpt lat="49.82664" lon="2.13695">
        <ele>119.1</ele>
        <time>2023-02-22T14:54:01Z</time>
      </trkpt>
      <trkpt lat="49.82664" lon="2.13695">
        <ele>119.1</ele>
        <time>2023-02-22T14:54:02Z</time>
      </trkpt>
      <trkpt lat="49.82664" lon="2.13695">
        <ele>119.1</ele>
        <time>2023-02-22T14:54:03Z</time>
      </trkpt>
      <trkpt lat="49.82664" lon="2.13695">
        <ele>119.1</ele>
        <time>2023-02-22T14:54:04Z</time>
      </trkpt>
      <trkpt lat="49.82664" lon="2.13695">
        <ele>119.1</ele>
        <time>2023-02-22T14:54:05Z</time>
      </trkpt>
      <trkpt lat="49.82664" lon="2.13695">
        <ele>119.1</ele>
        <time>2023-02-22T14:54:06Z</time>
      </trkpt>
      <trkpt lat="49.82664" lon="2.13695">
        <ele>119.1</ele>
        <time>2023-02-22T14:54:07Z</time>
      </trkpt>
      <trkpt lat="49.82664" lon="2.13695">
        <ele>119.1</ele>
        <time>2023-02-22T14:54:08Z</time>
      </trkpt>
      <trkpt lat="49.82664" lon="2.13695">
        <ele>119.1</ele>
        <time>2023-02-22T14:54:09Z</time>
      </trkpt>
      <trkpt lat="49.82664" lon="2.13695">
        <ele>119.1</ele>
        <time>2023-02-22T14:54:10Z</time>
      </trkpt>
      <trkpt lat="49.82664" lon="2.13695">
        <ele>119.1</ele>
        <time>2023-02-22T14:54:11Z</time>
      </trkpt>
      <trkpt lat="49.82664" lon="2.13695">
        <ele>119.1</ele>
        <time>2023-02-22T14:54:12Z</time>
      </trkpt>
      <trkpt lat="49.82664" lon="2.13695">
        <ele>119.1</ele>
        <time>2023-02-22T14:54:13Z</time>
      </trkpt>
      <trkpt lat="49.82664" lon="2.13695">
        <ele>119.1</ele>
        <time>2023-02-22T14:54:14Z</time>
      </trkpt>
      <trkpt lat="49.82664" lon="2.13695">
        <ele>119.1</ele>
        <time>2023-02-22T14:54:15Z</time>
      </trkpt>
      <trkpt lat="49.82664" lon="2.13695">
        <ele>119.1</ele>
        <time>2023-02-22T14:54:16Z</time>
      </trkpt>
      <trkpt lat="49.82664" lon="2.13695">
        <ele>119.1</ele>
        <time>2023-02-22T14:54:17Z</time>
      </trkpt>
      <trkpt lat="49.82664" lon="2.13695">
        <ele>119.1</ele>
        <time>2023-02-22T14:54:18Z</time>
      </trkpt>
      <trkpt lat="49.82664" lon="2.13695">
        <ele>119.1</ele>
        <time>2023-02-22T14:54:19Z</time>
      </trkpt>
      <trkpt lat="49.82664" lon="2.13695">
        <ele>119.1</ele>
        <time>2023-02-22T14:54:20Z</time>
      </trkpt>
      <trkpt lat="49.82664" lon="2.13695">
        <ele>119.1</ele>
        <time>2023-02-22T14:54:21Z</time>
      </trkpt>
      <trkpt lat="49.82664" lon="2.13695">
        <ele>119.1</ele>
        <time>2023-02-22T14:54:22Z</time>
      </trkpt>
      <trkpt lat="49.82664" lon="2.13695">
        <ele>119.1</ele>
        <time>2023-02-22T14:54:23Z</time>
      </trkpt>
      <trkpt lat="49.82664" lon="2.13695">
        <ele>119.1</ele>
        <time>2023-02-22T14:54:24Z</time>
      </trkpt>
      <trkpt lat="49.82664" lon="2.13695">
        <ele>119.1</ele>
        <time>2023-02-22T14:54:25Z</time>
      </trkpt>
      <trkpt lat="49.82664" lon="2.13695">
        <ele>119.1</ele>
        <time>2023-02-22T14:54:26Z</time>
      </trkpt>
      <trkpt lat="49.82664" lon="2.13695">
        <ele>119.1</ele>
        <time>2023-02-22T14:54:27Z</time>
      </trkpt>
      <trkpt lat="49.82664" lon="2.13695">
        <ele>119.1</ele>
        <time>2023-02-22T14:54:28Z</time>
      </trkpt>
      <trkpt lat="49.82664" lon="2.13695">
        <ele>119.1</ele>
        <time>2023-02-22T14:54:29Z</time>
      </trkpt>
      <trkpt lat="49.82664" lon="2.13695">
        <ele>119.1</ele>
        <time>2023-02-22T14:54:30Z</time>
      </trkpt>
      <trkpt lat="49.82664" lon="2.13695">
        <ele>119.1</ele>
        <time>2023-02-22T14:54:31Z</time>
      </trkpt>
      <trkpt lat="49.82664" lon="2.13695">
        <ele>119.1</ele>
        <time>2023-02-22T14:54:32Z</time>
      </trkpt>
      <trkpt lat="49.82664" lon="2.13695">
        <ele>119.1</ele>
        <time>2023-02-22T14:54:33Z</time>
      </trkpt>
      <trkpt lat="49.82664" lon="2.13695">
        <ele>119.1</ele>
        <time>2023-02-22T14:54:34Z</time>
      </trkpt>
      <trkpt lat="49.82664" lon="2.13695">
        <ele>119.1</ele>
        <time>2023-02-22T14:54:35Z</time>
      </trkpt>
      <trkpt lat="49.82664" lon="2.13695">
        <ele>119.1</ele>
        <time>2023-02-22T14:54:36Z</time>
      </trkpt>
      <trkpt lat="49.82664" lon="2.13695">
        <ele>119.1</ele>
        <time>2023-02-22T14:54:37Z</time>
      </trkpt>
      <trkpt lat="49.82665" lon="2.13695">
        <ele>119.1</ele>
        <time>2023-02-22T14:54:38Z</time>
      </trkpt>
      <trkpt lat="49.82665" lon="2.13694">
        <ele>119.1</ele>
        <time>2023-02-22T14:54:39Z</time>
      </trkpt>
      <trkpt lat="49.82665" lon="2.13693">
        <ele>119.1</ele>
        <time>2023-02-22T14:54:40Z</time>
      </trkpt>
      <trkpt lat="49.82665" lon="2.13692">
        <ele>119.1</ele>
        <time>2023-02-22T14:54:41Z</time>
      </trkpt>
      <trkpt lat="49.82665" lon="2.13692">
        <ele>119.1</ele>
        <time>2023-02-22T14:54:42Z</time>
      </trkpt>
      <trkpt lat="49.82666" lon="2.13691">
        <ele>119.1</ele>
        <time>2023-02-22T14:54:43Z</time>
      </trkpt>
      <trkpt lat="49.82666" lon="2.1369">
        <ele>119.1</ele>
        <time>2023-02-22T14:54:44Z</time>
      </trkpt>
      <trkpt lat="49.82665" lon="2.1369">
        <ele>119.1</ele>
        <time>2023-02-22T14:54:45Z</time>
      </trkpt>
      <trkpt lat="49.82665" lon="2.13689">
        <ele>119.1</ele>
        <time>2023-02-22T14:54:46Z</time>
      </trkpt>
      <trkpt lat="49.82664" lon="2.13689">
        <ele>119.1</ele>
        <time>2023-02-22T14:54:47Z</time>
      </trkpt>
      <trkpt lat="49.82664" lon="2.13689">
        <ele>119.1</ele>
        <time>2023-02-22T14:54:48Z</time>
      </trkpt>
      <trkpt lat="49.82663" lon="2.13689">
        <ele>119.1</ele>
        <time>2023-02-22T14:54:49Z</time>
      </trkpt>
      <trkpt lat="49.82663" lon="2.13689">
        <ele>119.1</ele>
        <time>2023-02-22T14:54:50Z</time>
      </trkpt>
      <trkpt lat="49.82663" lon="2.13688">
        <ele>119</ele>
        <time>2023-02-22T14:54:51Z</time>
      </trkpt>
      <trkpt lat="49.82663" lon="2.13688">
        <ele>119</ele>
        <time>2023-02-22T14:54:52Z</time>
      </trkpt>
      <trkpt lat="49.82663" lon="2.13687">
        <ele>119</ele>
        <time>2023-02-22T14:54:53Z</time>
      </trkpt>
      <trkpt lat="49.82664" lon="2.13687">
        <ele>119</ele>
        <time>2023-02-22T14:54:54Z</time>
      </trkpt>
      <trkpt lat="49.82664" lon="2.13687">
        <ele>119</ele>
        <time>2023-02-22T14:54:55Z</time>
      </trkpt>
      <trkpt lat="49.82665" lon="2.13687">
        <ele>119</ele>
        <time>2023-02-22T14:54:56Z</time>
      </trkpt>
      <trkpt lat="49.82665" lon="2.13687">
        <ele>119</ele>
        <time>2023-02-22T14:54:57Z</time>
      </trkpt>
      <trkpt lat="49.82665" lon="2.13686">
        <ele>119</ele>
        <time>2023-02-22T14:54:58Z</time>
      </trkpt>
      <trkpt lat="49.82666" lon="2.13686">
        <ele>119</ele>
        <time>2023-02-22T14:54:59Z</time>
      </trkpt>
      <trkpt lat="49.82666" lon="2.13686">
        <ele>119</ele>
        <time>2023-02-22T14:55:00Z</time>
      </trkpt>
      <trkpt lat="49.82666" lon="2.13686">
        <ele>119</ele>
        <time>2023-02-22T14:55:01Z</time>
      </trkpt>
      <trkpt lat="49.82666" lon="2.13686">
        <ele>119</ele>
        <time>2023-02-22T14:55:02Z</time>
      </trkpt>
      <trkpt lat="49.82666" lon="2.13686">
        <ele>119</ele>
        <time>2023-02-22T14:55:03Z</time>
      </trkpt>
      <trkpt lat="49.82666" lon="2.13686">
        <ele>119</ele>
        <time>2023-02-22T14:55:04Z</time>
      </trkpt>
      <trkpt lat="49.82666" lon="2.13687">
        <ele>119</ele>
        <time>2023-02-22T14:55:05Z</time>
      </trkpt>
      <trkpt lat="49.82666" lon="2.13687">
        <ele>119</ele>
        <time>2023-02-22T14:55:06Z</time>
      </trkpt>
      <trkpt lat="49.82665" lon="2.13687">
        <ele>119</ele>
        <time>2023-02-22T14:55:07Z</time>
      </trkpt>
      <trkpt lat="49.82665" lon="2.13687">
        <ele>119</ele>
        <time>2023-02-22T14:55:08Z</time>
      </trkpt>
      <trkpt lat="49.82665" lon="2.13687">
        <ele>119</ele>
        <time>2023-02-22T14:55:09Z</time>
      </trkpt>
      <trkpt lat="49.82665" lon="2.13687">
        <ele>119</ele>
        <time>2023-02-22T14:55:10Z</time>
      </trkpt>
      <trkpt lat="49.82665" lon="2.13687">
        <ele>119</ele>
        <time>2023-02-22T14:55:11Z</time>
      </trkpt>
      <trkpt lat="49.82665" lon="2.13687">
        <ele>119</ele>
        <time>2023-02-22T14:55:12Z</time>
      </trkpt>
      <trkpt lat="49.82665" lon="2.13687">
        <ele>119</ele>
        <time>2023-02-22T14:55:13Z</time>
      </trkpt>
      <trkpt lat="49.82665" lon="2.13687">
        <ele>119</ele>
        <time>2023-02-22T14:55:14Z</time>
      </trkpt>
      <trkpt lat="49.82665" lon="2.13687">
        <ele>119</ele>
        <time>2023-02-22T14:55:15Z</time>
      </trkpt>
      <trkpt lat="49.82665" lon="2.13687">
        <ele>119</ele>
        <time>2023-02-22T14:55:16Z</time>
      </trkpt>
      <trkpt lat="49.82665" lon="2.13687">
        <ele>119</ele>
        <time>2023-02-22T14:55:17Z</time>
      </trkpt>
      <trkpt lat="49.82665" lon="2.13687">
        <ele>119</ele>
        <time>2023-02-22T14:55:18Z</time>
      </trkpt>
      <trkpt lat="49.82665" lon="2.13687">
        <ele>119</ele>
        <time>2023-02-22T14:55:19Z</time>
      </trkpt>
      <trkpt lat="49.82665" lon="2.13687">
        <ele>119</ele>
        <time>2023-02-22T14:55:20Z</time>
      </trkpt>
      <trkpt lat="49.82665" lon="2.13687">
        <ele>119</ele>
        <time>2023-02-22T14:55:21Z</time>
      </trkpt>
      <trkpt lat="49.82665" lon="2.13687">
        <ele>119</ele>
        <time>2023-02-22T14:55:22Z</time>
      </trkpt>
      <trkpt lat="49.82665" lon="2.13687">
        <ele>119</ele>
        <time>2023-02-22T14:55:23Z</time>
      </trkpt>
      <trkpt lat="49.82665" lon="2.13687">
        <ele>119</ele>
        <time>2023-02-22T14:55:24Z</time>
      </trkpt>
      <trkpt lat="49.82665" lon="2.13687">
        <ele>119</ele>
        <time>2023-02-22T14:55:25Z</time>
      </trkpt>
      <trkpt lat="49.82665" lon="2.13687">
        <ele>119</ele>
        <time>2023-02-22T14:55:26Z</time>
      </trkpt>
      <trkpt lat="49.82665" lon="2.13687">
        <ele>119</ele>
        <time>2023-02-22T14:55:27Z</time>
      </trkpt>
      <trkpt lat="49.82665" lon="2.13687">
        <ele>119</ele>
        <time>2023-02-22T14:55:28Z</time>
      </trkpt>
      <trkpt lat="49.82665" lon="2.13687">
        <ele>119</ele>
        <time>2023-02-22T14:55:29Z</time>
      </trkpt>
      <trkpt lat="49.82665" lon="2.13687">
        <ele>119</ele>
        <time>2023-02-22T14:55:30Z</time>
      </trkpt>
      <trkpt lat="49.82665" lon="2.13687">
        <ele>119</ele>
        <time>2023-02-22T14:55:31Z</time>
      </trkpt>
      <trkpt lat="49.82665" lon="2.13687">
        <ele>119</ele>
        <time>2023-02-22T14:55:32Z</time>
      </trkpt>
      <trkpt lat="49.82665" lon="2.13687">
        <ele>119</ele>
        <time>2023-02-22T14:55:33Z</time>
      </trkpt>
      <trkpt lat="49.82665" lon="2.13687">
        <ele>119</ele>
        <time>2023-02-22T14:55:34Z</time>
      </trkpt>
      <trkpt lat="49.82665" lon="2.13687">
        <ele>119</ele>
        <time>2023-02-22T14:55:35Z</time>
      </trkpt>
      <trkpt lat="49.82665" lon="2.13687">
        <ele>119</ele>
        <time>2023-02-22T14:55:36Z</time>
      </trkpt>
      <trkpt lat="49.82665" lon="2.13687">
        <ele>119</ele>
        <time>2023-02-22T14:55:37Z</time>
      </trkpt>
      <trkpt lat="49.82665" lon="2.13687">
        <ele>119</ele>
        <time>2023-02-22T14:55:38Z</time>
      </trkpt>
      <trkpt lat="49.82665" lon="2.13687">
        <ele>119</ele>
        <time>2023-02-22T14:55:39Z</time>
      </trkpt>
      <trkpt lat="49.82665" lon="2.13687">
        <ele>119</ele>
        <time>2023-02-22T14:55:40Z</time>
      </trkpt>
      <trkpt lat="49.82665" lon="2.13687">
        <ele>119</ele>
        <time>2023-02-22T14:55:41Z</time>
      </trkpt>
      <trkpt lat="49.82665" lon="2.13687">
        <ele>119</ele>
        <time>2023-02-22T14:55:42Z</time>
      </trkpt>
      <trkpt lat="49.82665" lon="2.13687">
        <ele>119</ele>
        <time>2023-02-22T14:55:43Z</time>
      </trkpt>
      <trkpt lat="49.82665" lon="2.13687">
        <ele>119</ele>
        <time>2023-02-22T14:55:44Z</time>
      </trkpt>
      <trkpt lat="49.82665" lon="2.13687">
        <ele>119</ele>
        <time>2023-02-22T14:55:45Z</time>
      </trkpt>
      <trkpt lat="49.82665" lon="2.13687">
        <ele>119</ele>
        <time>2023-02-22T14:55:46Z</time>
      </trkpt>
      <trkpt lat="49.82665" lon="2.13687">
        <ele>119</ele>
        <time>2023-02-22T14:55:47Z</time>
      </trkpt>
      <trkpt lat="49.82665" lon="2.13687">
        <ele>119</ele>
        <time>2023-02-22T14:55:48Z</time>
      </trkpt>
      <trkpt lat="49.82665" lon="2.13687">
        <ele>119</ele>
        <time>2023-02-22T14:55:49Z</time>
      </trkpt>
      <trkpt lat="49.82665" lon="2.13687">
        <ele>119</ele>
        <time>2023-02-22T14:55:50Z</time>
      </trkpt>
      <trkpt lat="49.82665" lon="2.13687">
        <ele>119</ele>
        <time>2023-02-22T14:55:51Z</time>
      </trkpt>
      <trkpt lat="49.82665" lon="2.13687">
        <ele>119</ele>
        <time>2023-02-22T14:55:52Z</time>
      </trkpt>
      <trkpt lat="49.82665" lon="2.13687">
        <ele>119</ele>
        <time>2023-02-22T14:55:53Z</time>
      </trkpt>
      <trkpt lat="49.82665" lon="2.13687">
        <ele>119</ele>
        <time>2023-02-22T14:55:54Z</time>
      </trkpt>
      <trkpt lat="49.82665" lon="2.13687">
        <ele>119</ele>
        <time>2023-02-22T14:55:55Z</time>
      </trkpt>
      <trkpt lat="49.82665" lon="2.13687">
        <ele>119</ele>
        <time>2023-02-22T14:55:56Z</time>
      </trkpt>
      <trkpt lat="49.82665" lon="2.13687">
        <ele>119</ele>
        <time>2023-02-22T14:55:57Z</time>
      </trkpt>
      <trkpt lat="49.82665" lon="2.13687">
        <ele>119</ele>
        <time>2023-02-22T14:55:58Z</time>
      </trkpt>
      <trkpt lat="49.82665" lon="2.13687">
        <ele>119</ele>
        <time>2023-02-22T14:55:59Z</time>
      </trkpt>
      <trkpt lat="49.82665" lon="2.13687">
        <ele>119</ele>
        <time>2023-02-22T14:56:00Z</time>
      </trkpt>
      <trkpt lat="49.82665" lon="2.13687">
        <ele>119</ele>
        <time>2023-02-22T14:56:01Z</time>
      </trkpt>
      <trkpt lat="49.82665" lon="2.13687">
        <ele>119</ele>
        <time>2023-02-22T14:56:02Z</time>
      </trkpt>
      <trkpt lat="49.82663" lon="2.13682">
        <ele>119</ele>
        <time>2023-02-22T14:56:03Z</time>
      </trkpt>
      <trkpt lat="49.82662" lon="2.13679">
        <ele>119</ele>
        <time>2023-02-22T14:56:04Z</time>
      </trkpt>
      <trkpt lat="49.82662" lon="2.13677">
        <ele>119</ele>
        <time>2023-02-22T14:56:05Z</time>
      </trkpt>
      <trkpt lat="49.82661" lon="2.13676">
        <ele>119</ele>
        <time>2023-02-22T14:56:07Z</time>
      </trkpt>
      <trkpt lat="49.82662" lon="2.13674">
        <ele>119</ele>
        <time>2023-02-22T14:56:09Z</time>
      </trkpt>
      <trkpt lat="49.82662" lon="2.13673">
        <ele>119</ele>
        <time>2023-02-22T14:56:10Z</time>
      </trkpt>
      <trkpt lat="49.82662" lon="2.13673">
        <ele>119</ele>
        <time>2023-02-22T14:56:11Z</time>
      </trkpt>
      <trkpt lat="49.82662" lon="2.13673">
        <ele>119</ele>
        <time>2023-02-22T14:56:13Z</time>
      </trkpt>
      <trkpt lat="49.82662" lon="2.13673">
        <ele>119</ele>
        <time>2023-02-22T14:56:14Z</time>
      </trkpt>
      <trkpt lat="49.82662" lon="2.13673">
        <ele>119</ele>
        <time>2023-02-22T14:56:16Z</time>
      </trkpt>
      <trkpt lat="49.82662" lon="2.13673">
        <ele>119</ele>
        <time>2023-02-22T14:56:17Z</time>
      </trkpt>
      <trkpt lat="49.82662" lon="2.13673">
        <ele>119</ele>
        <time>2023-02-22T14:56:19Z</time>
      </trkpt>
      <trkpt lat="49.82662" lon="2.13673">
        <ele>119</ele>
        <time>2023-02-22T14:56:20Z</time>
      </trkpt>
      <trkpt lat="49.82662" lon="2.13672">
        <ele>119</ele>
        <time>2023-02-22T14:56:22Z</time>
      </trkpt>
      <trkpt lat="49.82662" lon="2.13672">
        <ele>119</ele>
        <time>2023-02-22T14:56:23Z</time>
      </trkpt>
      <trkpt lat="49.82662" lon="2.13673">
        <ele>119</ele>
        <time>2023-02-22T14:56:24Z</time>
      </trkpt>
      <trkpt lat="49.82662" lon="2.13673">
        <ele>119</ele>
        <time>2023-02-22T14:56:25Z</time>
      </trkpt>
      <trkpt lat="49.82662" lon="2.13673">
        <ele>119</ele>
        <time>2023-02-22T14:56:26Z</time>
      </trkpt>
      <trkpt lat="49.82662" lon="2.13673">
        <ele>119</ele>
        <time>2023-02-22T14:56:27Z</time>
      </trkpt>
      <trkpt lat="49.82662" lon="2.13673">
        <ele>119</ele>
        <time>2023-02-22T14:56:28Z</time>
      </trkpt>
      <trkpt lat="49.82662" lon="2.13673">
        <ele>119</ele>
        <time>2023-02-22T14:56:29Z</time>
      </trkpt>
      <trkpt lat="49.82662" lon="2.13673">
        <ele>119</ele>
        <time>2023-02-22T14:56:30Z</time>
      </trkpt>
      <trkpt lat="49.82662" lon="2.13673">
        <ele>119</ele>
        <time>2023-02-22T14:56:31Z</time>
      </trkpt>
      <trkpt lat="49.82662" lon="2.13673">
        <ele>119</ele>
        <time>2023-02-22T14:56:32Z</time>
      </trkpt>
      <trkpt lat="49.82662" lon="2.13674">
        <ele>119</ele>
        <time>2023-02-22T14:56:33Z</time>
      </trkpt>
      <trkpt lat="49.82662" lon="2.13674">
        <ele>119</ele>
        <time>2023-02-22T14:56:34Z</time>
      </trkpt>
      <trkpt lat="49.82663" lon="2.13673">
        <ele>119</ele>
        <time>2023-02-22T14:56:36Z</time>
      </trkpt>
      <trkpt lat="49.82663" lon="2.13673">
        <ele>119</ele>
        <time>2023-02-22T14:56:37Z</time>
      </trkpt>
      <trkpt lat="49.82663" lon="2.13673">
        <ele>119</ele>
        <time>2023-02-22T14:56:39Z</time>
      </trkpt>
      <trkpt lat="49.82663" lon="2.13674">
        <ele>119</ele>
        <time>2023-02-22T14:56:40Z</time>
      </trkpt>
      <trkpt lat="49.82663" lon="2.13674">
        <ele>119.1</ele>
        <time>2023-02-22T14:56:41Z</time>
      </trkpt>
      <trkpt lat="49.82663" lon="2.13674">
        <ele>119.1</ele>
        <time>2023-02-22T14:56:43Z</time>
      </trkpt>
      <trkpt lat="49.82663" lon="2.13674">
        <ele>119.1</ele>
        <time>2023-02-22T14:56:44Z</time>
      </trkpt>
      <trkpt lat="49.82663" lon="2.13675">
        <ele>119.1</ele>
        <time>2023-02-22T14:56:46Z</time>
      </trkpt>
      <trkpt lat="49.82663" lon="2.13675">
        <ele>119.1</ele>
        <time>2023-02-22T14:56:47Z</time>
      </trkpt>
      <trkpt lat="49.82663" lon="2.13675">
        <ele>119.1</ele>
        <time>2023-02-22T14:56:49Z</time>
      </trkpt>
      <trkpt lat="49.82663" lon="2.13675">
        <ele>119.1</ele>
        <time>2023-02-22T14:56:50Z</time>
      </trkpt>
      <trkpt lat="49.82663" lon="2.13675">
        <ele>119.1</ele>
        <time>2023-02-22T14:56:52Z</time>
      </trkpt>
      <trkpt lat="49.82663" lon="2.13675">
        <ele>119.1</ele>
        <time>2023-02-22T14:56:53Z</time>
      </trkpt>
      <trkpt lat="49.82663" lon="2.13675">
        <ele>119.1</ele>
        <time>2023-02-22T14:56:54Z</time>
      </trkpt>
      <trkpt lat="49.82663" lon="2.13675">
        <ele>119.1</ele>
        <time>2023-02-22T14:56:55Z</time>
      </trkpt>
      <trkpt lat="49.82663" lon="2.13675">
        <ele>119.1</ele>
        <time>2023-02-22T14:56:56Z</time>
      </trkpt>
      <trkpt lat="49.82663" lon="2.13675">
        <ele>119.1</ele>
        <time>2023-02-22T14:56:57Z</time>
      </trkpt>
      <trkpt lat="49.82663" lon="2.13675">
        <ele>119.1</ele>
        <time>2023-02-22T14:56:58Z</time>
      </trkpt>
      <trkpt lat="49.82663" lon="2.13675">
        <ele>119.1</ele>
        <time>2023-02-22T14:56:59Z</time>
      </trkpt>
      <trkpt lat="49.82663" lon="2.13675">
        <ele>119.1</ele>
        <time>2023-02-22T14:57:00Z</time>
      </trkpt>
      <trkpt lat="49.82663" lon="2.13675">
        <ele>119.1</ele>
        <time>2023-02-22T14:57:01Z</time>
      </trkpt>
      <trkpt lat="49.82663" lon="2.13675">
        <ele>119.1</ele>
        <time>2023-02-22T14:57:02Z</time>
      </trkpt>
      <trkpt lat="49.82662" lon="2.13677">
        <ele>119.1</ele>
        <time>2023-02-22T14:57:03Z</time>
      </trkpt>
      <trkpt lat="49.82662" lon="2.13678">
        <ele>119.1</ele>
        <time>2023-02-22T14:57:04Z</time>
      </trkpt>
      <trkpt lat="49.82662" lon="2.13678">
        <ele>119.1</ele>
        <time>2023-02-22T14:57:05Z</time>
      </trkpt>
      <trkpt lat="49.82662" lon="2.13678">
        <ele>119.1</ele>
        <time>2023-02-22T14:57:07Z</time>
      </trkpt>
      <trkpt lat="49.82662" lon="2.13678">
        <ele>119.1</ele>
        <time>2023-02-22T14:57:09Z</time>
      </trkpt>
      <trkpt lat="49.82662" lon="2.13678">
        <ele>119.1</ele>
        <time>2023-02-22T14:57:10Z</time>
      </trkpt>
      <trkpt lat="49.82662" lon="2.13678">
        <ele>119.1</ele>
        <time>2023-02-22T14:57:12Z</time>
      </trkpt>
      <trkpt lat="49.82662" lon="2.13678">
        <ele>119.1</ele>
        <time>2023-02-22T14:57:13Z</time>
      </trkpt>
      <trkpt lat="49.82662" lon="2.13678">
        <ele>119.1</ele>
        <time>2023-02-22T14:57:15Z</time>
      </trkpt>
      <trkpt lat="49.82662" lon="2.13678">
        <ele>119.1</ele>
        <time>2023-02-22T14:57:16Z</time>
      </trkpt>
      <trkpt lat="49.82662" lon="2.13678">
        <ele>119.1</ele>
        <time>2023-02-22T14:57:18Z</time>
      </trkpt>
      <trkpt lat="49.82662" lon="2.13678">
        <ele>119.1</ele>
        <time>2023-02-22T14:57:19Z</time>
      </trkpt>
      <trkpt lat="49.82662" lon="2.13678">
        <ele>119.1</ele>
        <time>2023-02-22T14:57:20Z</time>
      </trkpt>
      <trkpt lat="49.82662" lon="2.13678">
        <ele>119.1</ele>
        <time>2023-02-22T14:57:21Z</time>
      </trkpt>
      <trkpt lat="49.82662" lon="2.13678">
        <ele>119.1</ele>
        <time>2023-02-22T14:57:23Z</time>
      </trkpt>
      <trkpt lat="49.82662" lon="2.13678">
        <ele>119.1</ele>
        <time>2023-02-22T14:57:24Z</time>
      </trkpt>
      <trkpt lat="49.82662" lon="2.13678">
        <ele>119.1</ele>
        <time>2023-02-22T14:57:25Z</time>
      </trkpt>
      <trkpt lat="49.82662" lon="2.13678">
        <ele>119.1</ele>
        <time>2023-02-22T14:57:26Z</time>
      </trkpt>
      <trkpt lat="49.82662" lon="2.13678">
        <ele>119.1</ele>
        <time>2023-02-22T14:57:27Z</time>
      </trkpt>
      <trkpt lat="49.82662" lon="2.13678">
        <ele>119.1</ele>
        <time>2023-02-22T14:57:28Z</time>
      </trkpt>
      <trkpt lat="49.82662" lon="2.13678">
        <ele>119.1</ele>
        <time>2023-02-22T14:57:29Z</time>
      </trkpt>
      <trkpt lat="49.82662" lon="2.13678">
        <ele>119.1</ele>
        <time>2023-02-22T14:57:30Z</time>
      </trkpt>
      <trkpt lat="49.82662" lon="2.13678">
        <ele>119.1</ele>
        <time>2023-02-22T14:57:31Z</time>
      </trkpt>
      <trkpt lat="49.82662" lon="2.13678">
        <ele>119.1</ele>
        <time>2023-02-22T14:57:32Z</time>
      </trkpt>
      <trkpt lat="49.82662" lon="2.13678">
        <ele>119.1</ele>
        <time>2023-02-22T14:57:33Z</time>
      </trkpt>
      <trkpt lat="49.82662" lon="2.13678">
        <ele>119.1</ele>
        <time>2023-02-22T14:57:34Z</time>
      </trkpt>
      <trkpt lat="49.82662" lon="2.13678">
        <ele>119.1</ele>
        <time>2023-02-22T14:57:35Z</time>
      </trkpt>
      <trkpt lat="49.82662" lon="2.13678">
        <ele>119.1</ele>
        <time>2023-02-22T14:57:36Z</time>
      </trkpt>
      <trkpt lat="49.82662" lon="2.13678">
        <ele>119.1</ele>
        <time>2023-02-22T14:57:37Z</time>
      </trkpt>
      <trkpt lat="49.82662" lon="2.13678">
        <ele>119.1</ele>
        <time>2023-02-22T14:57:38Z</time>
      </trkpt>
      <trkpt lat="49.82662" lon="2.13678">
        <ele>119.1</ele>
        <time>2023-02-22T14:57:39Z</time>
      </trkpt>
      <trkpt lat="49.82662" lon="2.13678">
        <ele>119.1</ele>
        <time>2023-02-22T14:57:40Z</time>
      </trkpt>
      <trkpt lat="49.82662" lon="2.13678">
        <ele>119.1</ele>
        <time>2023-02-22T14:57:41Z</time>
      </trkpt>
      <trkpt lat="49.82662" lon="2.13678">
        <ele>119.1</ele>
        <time>2023-02-22T14:57:42Z</time>
      </trkpt>
      <trkpt lat="49.82662" lon="2.13678">
        <ele>119.1</ele>
        <time>2023-02-22T14:57:43Z</time>
      </trkpt>
      <trkpt lat="49.82662" lon="2.13678">
        <ele>119.1</ele>
        <time>2023-02-22T14:57:44Z</time>
      </trkpt>
      <trkpt lat="49.82662" lon="2.13678">
        <ele>119.1</ele>
        <time>2023-02-22T14:57:45Z</time>
      </trkpt>
      <trkpt lat="49.82662" lon="2.13678">
        <ele>119.1</ele>
        <time>2023-02-22T14:57:46Z</time>
      </trkpt>
      <trkpt lat="49.82662" lon="2.13678">
        <ele>119.1</ele>
        <time>2023-02-22T14:57:47Z</time>
      </trkpt>
      <trkpt lat="49.82662" lon="2.13678">
        <ele>119.1</ele>
        <time>2023-02-22T14:57:48Z</time>
      </trkpt>
      <trkpt lat="49.82662" lon="2.13678">
        <ele>119.1</ele>
        <time>2023-02-22T14:57:49Z</time>
      </trkpt>
      <trkpt lat="49.82662" lon="2.13678">
        <ele>119.1</ele>
        <time>2023-02-22T14:57:50Z</time>
      </trkpt>
      <trkpt lat="49.82662" lon="2.13678">
        <ele>119.1</ele>
        <time>2023-02-22T14:57:51Z</time>
      </trkpt>
      <trkpt lat="49.82662" lon="2.13678">
        <ele>119.1</ele>
        <time>2023-02-22T14:57:52Z</time>
      </trkpt>
      <trkpt lat="49.82661" lon="2.13678">
        <ele>119.1</ele>
        <time>2023-02-22T14:57:53Z</time>
      </trkpt>
      <trkpt lat="49.82661" lon="2.13678">
        <ele>119.1</ele>
        <time>2023-02-22T14:57:54Z</time>
      </trkpt>
      <trkpt lat="49.82661" lon="2.13678">
        <ele>119.1</ele>
        <time>2023-02-22T14:57:55Z</time>
      </trkpt>
      <trkpt lat="49.82661" lon="2.13678">
        <ele>119.1</ele>
        <time>2023-02-22T14:57:56Z</time>
      </trkpt>
      <trkpt lat="49.82661" lon="2.13678">
        <ele>119.1</ele>
        <time>2023-02-22T14:57:57Z</time>
      </trkpt>
      <trkpt lat="49.82661" lon="2.13678">
        <ele>119.1</ele>
        <time>2023-02-22T14:57:58Z</time>
      </trkpt>
      <trkpt lat="49.82661" lon="2.13678">
        <ele>119.1</ele>
        <time>2023-02-22T14:57:59Z</time>
      </trkpt>
      <trkpt lat="49.82661" lon="2.13678">
        <ele>119.1</ele>
        <time>2023-02-22T14:58:00Z</time>
      </trkpt>
      <trkpt lat="49.82661" lon="2.13678">
        <ele>119.1</ele>
        <time>2023-02-22T14:58:01Z</time>
      </trkpt>
      <trkpt lat="49.82661" lon="2.13677">
        <ele>119.1</ele>
        <time>2023-02-22T14:58:02Z</time>
      </trkpt>
      <trkpt lat="49.82661" lon="2.13677">
        <ele>119.1</ele>
        <time>2023-02-22T14:58:03Z</time>
      </trkpt>
      <trkpt lat="49.82661" lon="2.13677">
        <ele>119.1</ele>
        <time>2023-02-22T14:58:04Z</time>
      </trkpt>
      <trkpt lat="49.82661" lon="2.13677">
        <ele>119.1</ele>
        <time>2023-02-22T14:58:05Z</time>
      </trkpt>
      <trkpt lat="49.82661" lon="2.13677">
        <ele>119.1</ele>
        <time>2023-02-22T14:58:06Z</time>
      </trkpt>
      <trkpt lat="49.82661" lon="2.13677">
        <ele>119.1</ele>
        <time>2023-02-22T14:58:07Z</time>
      </trkpt>
      <trkpt lat="49.82661" lon="2.13677">
        <ele>119.1</ele>
        <time>2023-02-22T14:58:08Z</time>
      </trkpt>
      <trkpt lat="49.82661" lon="2.13677">
        <ele>119.1</ele>
        <time>2023-02-22T14:58:09Z</time>
      </trkpt>
      <trkpt lat="49.82661" lon="2.13677">
        <ele>119.1</ele>
        <time>2023-02-22T14:58:10Z</time>
      </trkpt>
      <trkpt lat="49.82661" lon="2.13677">
        <ele>119.1</ele>
        <time>2023-02-22T14:58:11Z</time>
      </trkpt>
      <trkpt lat="49.82661" lon="2.13677">
        <ele>119.1</ele>
        <time>2023-02-22T14:58:12Z</time>
      </trkpt>
      <trkpt lat="49.82661" lon="2.13677">
        <ele>119.1</ele>
        <time>2023-02-22T14:58:13Z</time>
      </trkpt>
      <trkpt lat="49.82661" lon="2.13677">
        <ele>119.1</ele>
        <time>2023-02-22T14:58:14Z</time>
      </trkpt>
      <trkpt lat="49.82661" lon="2.13677">
        <ele>119.1</ele>
        <time>2023-02-22T14:58:15Z</time>
      </trkpt>
      <trkpt lat="49.82661" lon="2.13677">
        <ele>119.1</ele>
        <time>2023-02-22T14:58:16Z</time>
      </trkpt>
      <trkpt lat="49.82661" lon="2.13677">
        <ele>119.1</ele>
        <time>2023-02-22T14:58:17Z</time>
      </trkpt>
      <trkpt lat="49.82661" lon="2.13677">
        <ele>119.1</ele>
        <time>2023-02-22T14:58:18Z</time>
      </trkpt>
      <trkpt lat="49.82661" lon="2.13677">
        <ele>119.1</ele>
        <time>2023-02-22T14:58:19Z</time>
      </trkpt>
      <trkpt lat="49.82661" lon="2.13677">
        <ele>119.1</ele>
        <time>2023-02-22T14:58:20Z</time>
      </trkpt>
      <trkpt lat="49.82661" lon="2.13677">
        <ele>119.1</ele>
        <time>2023-02-22T14:58:21Z</time>
      </trkpt>
      <trkpt lat="49.82661" lon="2.13677">
        <ele>119.1</ele>
        <time>2023-02-22T14:58:22Z</time>
      </trkpt>
      <trkpt lat="49.82661" lon="2.13677">
        <ele>119.1</ele>
        <time>2023-02-22T14:58:23Z</time>
      </trkpt>
      <trkpt lat="49.82661" lon="2.13677">
        <ele>119.1</ele>
        <time>2023-02-22T14:58:24Z</time>
      </trkpt>
      <trkpt lat="49.82661" lon="2.13677">
        <ele>119.1</ele>
        <time>2023-02-22T14:58:25Z</time>
      </trkpt>
      <trkpt lat="49.82661" lon="2.13677">
        <ele>119.1</ele>
        <time>2023-02-22T14:58:26Z</time>
      </trkpt>
      <trkpt lat="49.82661" lon="2.13677">
        <ele>119.1</ele>
        <time>2023-02-22T14:58:27Z</time>
      </trkpt>
      <trkpt lat="49.82661" lon="2.13677">
        <ele>119.1</ele>
        <time>2023-02-22T14:58:28Z</time>
      </trkpt>
      <trkpt lat="49.82661" lon="2.13677">
        <ele>119.1</ele>
        <time>2023-02-22T14:58:29Z</time>
      </trkpt>
      <trkpt lat="49.82661" lon="2.13677">
        <ele>119.1</ele>
        <time>2023-02-22T14:58:30Z</time>
      </trkpt>
      <trkpt lat="49.82661" lon="2.13677">
        <ele>119.1</ele>
        <time>2023-02-22T14:58:31Z</time>
      </trkpt>
      <trkpt lat="49.82661" lon="2.13677">
        <ele>119.1</ele>
        <time>2023-02-22T14:58:32Z</time>
      </trkpt>
      <trkpt lat="49.82661" lon="2.13677">
        <ele>119.1</ele>
        <time>2023-02-22T14:58:33Z</time>
      </trkpt>
      <trkpt lat="49.82661" lon="2.13677">
        <ele>119.1</ele>
        <time>2023-02-22T14:58:34Z</time>
      </trkpt>
      <trkpt lat="49.82661" lon="2.13677">
        <ele>119.1</ele>
        <time>2023-02-22T14:58:35Z</time>
      </trkpt>
      <trkpt lat="49.82661" lon="2.13677">
        <ele>119.1</ele>
        <time>2023-02-22T14:58:36Z</time>
      </trkpt>
      <trkpt lat="49.82661" lon="2.13677">
        <ele>119.1</ele>
        <time>2023-02-22T14:58:37Z</time>
      </trkpt>
      <trkpt lat="49.82661" lon="2.13677">
        <ele>119.1</ele>
        <time>2023-02-22T14:58:38Z</time>
      </trkpt>
      <trkpt lat="49.82661" lon="2.13677">
        <ele>119.1</ele>
        <time>2023-02-22T14:58:39Z</time>
      </trkpt>
      <trkpt lat="49.82661" lon="2.13677">
        <ele>119.1</ele>
        <time>2023-02-22T14:58:40Z</time>
      </trkpt>
      <trkpt lat="49.82661" lon="2.13677">
        <ele>119.1</ele>
        <time>2023-02-22T14:58:41Z</time>
      </trkpt>
      <trkpt lat="49.82661" lon="2.13677">
        <ele>119.1</ele>
        <time>2023-02-22T14:58:42Z</time>
      </trkpt>
      <trkpt lat="49.82661" lon="2.13677">
        <ele>119.1</ele>
        <time>2023-02-22T14:58:43Z</time>
      </trkpt>
      <trkpt lat="49.82661" lon="2.13677">
        <ele>119.1</ele>
        <time>2023-02-22T14:58:44Z</time>
      </trkpt>
      <trkpt lat="49.82661" lon="2.13677">
        <ele>119.1</ele>
        <time>2023-02-22T14:58:45Z</time>
      </trkpt>
      <trkpt lat="49.82661" lon="2.13677">
        <ele>119.1</ele>
        <time>2023-02-22T14:58:46Z</time>
      </trkpt>
      <trkpt lat="49.82661" lon="2.13677">
        <ele>119.1</ele>
        <time>2023-02-22T14:58:47Z</time>
      </trkpt>
      <trkpt lat="49.82661" lon="2.13677">
        <ele>119.1</ele>
        <time>2023-02-22T14:58:48Z</time>
      </trkpt>
      <trkpt lat="49.82661" lon="2.13677">
        <ele>119.1</ele>
        <time>2023-02-22T14:58:49Z</time>
      </trkpt>
      <trkpt lat="49.82661" lon="2.13677">
        <ele>119.1</ele>
        <time>2023-02-22T14:58:50Z</time>
      </trkpt>
      <trkpt lat="49.82661" lon="2.13677">
        <ele>119.1</ele>
        <time>2023-02-22T14:58:51Z</time>
      </trkpt>
      <trkpt lat="49.82661" lon="2.13677">
        <ele>119.1</ele>
        <time>2023-02-22T14:58:52Z</time>
      </trkpt>
      <trkpt lat="49.82661" lon="2.13677">
        <ele>119.1</ele>
        <time>2023-02-22T14:58:53Z</time>
      </trkpt>
      <trkpt lat="49.82661" lon="2.13677">
        <ele>119.1</ele>
        <time>2023-02-22T14:58:54Z</time>
      </trkpt>
      <trkpt lat="49.82661" lon="2.13677">
        <ele>119.1</ele>
        <time>2023-02-22T14:58:55Z</time>
      </trkpt>
      <trkpt lat="49.82661" lon="2.13677">
        <ele>119.1</ele>
        <time>2023-02-22T14:58:56Z</time>
      </trkpt>
      <trkpt lat="49.82661" lon="2.13677">
        <ele>119.1</ele>
        <time>2023-02-22T14:58:57Z</time>
      </trkpt>
      <trkpt lat="49.82661" lon="2.13677">
        <ele>119.1</ele>
        <time>2023-02-22T14:58:58Z</time>
      </trkpt>
      <trkpt lat="49.82661" lon="2.13677">
        <ele>119.1</ele>
        <time>2023-02-22T14:58:59Z</time>
      </trkpt>
      <trkpt lat="49.82661" lon="2.13677">
        <ele>119.1</ele>
        <time>2023-02-22T14:59:00Z</time>
      </trkpt>
      <trkpt lat="49.82661" lon="2.13677">
        <ele>119.1</ele>
        <time>2023-02-22T14:59:01Z</time>
      </trkpt>
      <trkpt lat="49.82661" lon="2.13677">
        <ele>119.1</ele>
        <time>2023-02-22T14:59:02Z</time>
      </trkpt>
      <trkpt lat="49.82661" lon="2.13677">
        <ele>119.1</ele>
        <time>2023-02-22T14:59:03Z</time>
      </trkpt>
      <trkpt lat="49.82661" lon="2.13677">
        <ele>119.1</ele>
        <time>2023-02-22T14:59:04Z</time>
      </trkpt>
      <trkpt lat="49.82661" lon="2.13677">
        <ele>119.1</ele>
        <time>2023-02-22T14:59:05Z</time>
      </trkpt>
      <trkpt lat="49.82661" lon="2.13677">
        <ele>119.1</ele>
        <time>2023-02-22T14:59:06Z</time>
      </trkpt>
      <trkpt lat="49.82661" lon="2.13677">
        <ele>119.1</ele>
        <time>2023-02-22T14:59:07Z</time>
      </trkpt>
      <trkpt lat="49.82661" lon="2.13677">
        <ele>119.1</ele>
        <time>2023-02-22T14:59:08Z</time>
      </trkpt>
      <trkpt lat="49.82661" lon="2.13677">
        <ele>119.1</ele>
        <time>2023-02-22T14:59:09Z</time>
      </trkpt>
      <trkpt lat="49.82661" lon="2.13677">
        <ele>119.1</ele>
        <time>2023-02-22T14:59:10Z</time>
      </trkpt>
      <trkpt lat="49.82661" lon="2.13677">
        <ele>119.1</ele>
        <time>2023-02-22T14:59:11Z</time>
      </trkpt>
      <trkpt lat="49.82661" lon="2.13677">
        <ele>119.1</ele>
        <time>2023-02-22T14:59:12Z</time>
      </trkpt>
      <trkpt lat="49.82661" lon="2.13677">
        <ele>119.1</ele>
        <time>2023-02-22T14:59:13Z</time>
      </trkpt>
      <trkpt lat="49.82661" lon="2.13677">
        <ele>119.1</ele>
        <time>2023-02-22T14:59:14Z</time>
      </trkpt>
      <trkpt lat="49.82661" lon="2.13677">
        <ele>119.1</ele>
        <time>2023-02-22T14:59:15Z</time>
      </trkpt>
      <trkpt lat="49.82661" lon="2.13677">
        <ele>119.1</ele>
        <time>2023-02-22T14:59:16Z</time>
      </trkpt>
      <trkpt lat="49.82661" lon="2.13677">
        <ele>119.1</ele>
        <time>2023-02-22T14:59:17Z</time>
      </trkpt>
      <trkpt lat="49.82661" lon="2.13677">
        <ele>119.1</ele>
        <time>2023-02-22T14:59:18Z</time>
      </trkpt>
      <trkpt lat="49.82661" lon="2.13677">
        <ele>119.1</ele>
        <time>2023-02-22T14:59:19Z</time>
      </trkpt>
      <trkpt lat="49.82661" lon="2.13677">
        <ele>119.1</ele>
        <time>2023-02-22T14:59:20Z</time>
      </trkpt>
      <trkpt lat="49.82661" lon="2.13677">
        <ele>119.1</ele>
        <time>2023-02-22T14:59:21Z</time>
      </trkpt>
      <trkpt lat="49.82661" lon="2.13677">
        <ele>119.1</ele>
        <time>2023-02-22T14:59:22Z</time>
      </trkpt>
      <trkpt lat="49.82661" lon="2.13676">
        <ele>119.1</ele>
        <time>2023-02-22T14:59:23Z</time>
      </trkpt>
      <trkpt lat="49.82661" lon="2.13676">
        <ele>119.1</ele>
        <time>2023-02-22T14:59:24Z</time>
      </trkpt>
      <trkpt lat="49.8266" lon="2.13676">
        <ele>119.1</ele>
        <time>2023-02-22T14:59:25Z</time>
      </trkpt>
      <trkpt lat="49.8266" lon="2.13676">
        <ele>119.1</ele>
        <time>2023-02-22T14:59:26Z</time>
      </trkpt>
      <trkpt lat="49.8266" lon="2.13676">
        <ele>119.1</ele>
        <time>2023-02-22T14:59:27Z</time>
      </trkpt>
      <trkpt lat="49.8266" lon="2.13676">
        <ele>119.1</ele>
        <time>2023-02-22T14:59:28Z</time>
      </trkpt>
      <trkpt lat="49.8266" lon="2.13676">
        <ele>119.1</ele>
        <time>2023-02-22T14:59:29Z</time>
      </trkpt>
      <trkpt lat="49.8266" lon="2.13676">
        <ele>119.1</ele>
        <time>2023-02-22T14:59:30Z</time>
      </trkpt>
      <trkpt lat="49.8266" lon="2.13676">
        <ele>119.1</ele>
        <time>2023-02-22T14:59:31Z</time>
      </trkpt>
      <trkpt lat="49.8266" lon="2.13676">
        <ele>119.1</ele>
        <time>2023-02-22T14:59:32Z</time>
      </trkpt>
      <trkpt lat="49.8266" lon="2.13676">
        <ele>119.1</ele>
        <time>2023-02-22T14:59:33Z</time>
      </trkpt>
      <trkpt lat="49.8266" lon="2.13676">
        <ele>119.1</ele>
        <time>2023-02-22T14:59:34Z</time>
      </trkpt>
      <trkpt lat="49.8266" lon="2.13676">
        <ele>119.1</ele>
        <time>2023-02-22T14:59:35Z</time>
      </trkpt>
      <trkpt lat="49.8266" lon="2.13676">
        <ele>119.1</ele>
        <time>2023-02-22T14:59:36Z</time>
      </trkpt>
      <trkpt lat="49.8266" lon="2.13676">
        <ele>119.1</ele>
        <time>2023-02-22T14:59:37Z</time>
      </trkpt>
      <trkpt lat="49.8266" lon="2.13676">
        <ele>119.1</ele>
        <time>2023-02-22T14:59:38Z</time>
      </trkpt>
      <trkpt lat="49.8266" lon="2.13676">
        <ele>119.1</ele>
        <time>2023-02-22T14:59:39Z</time>
      </trkpt>
      <trkpt lat="49.8266" lon="2.13676">
        <ele>119.1</ele>
        <time>2023-02-22T14:59:40Z</time>
      </trkpt>
      <trkpt lat="49.8266" lon="2.13676">
        <ele>119.1</ele>
        <time>2023-02-22T14:59:41Z</time>
      </trkpt>
      <trkpt lat="49.8266" lon="2.13676">
        <ele>119.1</ele>
        <time>2023-02-22T14:59:42Z</time>
      </trkpt>
      <trkpt lat="49.8266" lon="2.13676">
        <ele>119.1</ele>
        <time>2023-02-22T14:59:43Z</time>
      </trkpt>
      <trkpt lat="49.8266" lon="2.13676">
        <ele>119.1</ele>
        <time>2023-02-22T14:59:44Z</time>
      </trkpt>
      <trkpt lat="49.8266" lon="2.13676">
        <ele>119.1</ele>
        <time>2023-02-22T14:59:45Z</time>
      </trkpt>
      <trkpt lat="49.8266" lon="2.13676">
        <ele>119.1</ele>
        <time>2023-02-22T14:59:46Z</time>
      </trkpt>
      <trkpt lat="49.8266" lon="2.13676">
        <ele>119.1</ele>
        <time>2023-02-22T14:59:47Z</time>
      </trkpt>
      <trkpt lat="49.8266" lon="2.13676">
        <ele>119.1</ele>
        <time>2023-02-22T14:59:48Z</time>
      </trkpt>
      <trkpt lat="49.8266" lon="2.13676">
        <ele>119.1</ele>
        <time>2023-02-22T14:59:49Z</time>
      </trkpt>
      <trkpt lat="49.8266" lon="2.13676">
        <ele>119.1</ele>
        <time>2023-02-22T14:59:50Z</time>
      </trkpt>
      <trkpt lat="49.8266" lon="2.13676">
        <ele>119.1</ele>
        <time>2023-02-22T14:59:51Z</time>
      </trkpt>
      <trkpt lat="49.8266" lon="2.13676">
        <ele>119.1</ele>
        <time>2023-02-22T14:59:52Z</time>
      </trkpt>
      <trkpt lat="49.8266" lon="2.13676">
        <ele>119.1</ele>
        <time>2023-02-22T14:59:53Z</time>
      </trkpt>
      <trkpt lat="49.8266" lon="2.13676">
        <ele>119.1</ele>
        <time>2023-02-22T14:59:54Z</time>
      </trkpt>
      <trkpt lat="49.8266" lon="2.13676">
        <ele>119.1</ele>
        <time>2023-02-22T14:59:55Z</time>
      </trkpt>
      <trkpt lat="49.8266" lon="2.13676">
        <ele>119.1</ele>
        <time>2023-02-22T14:59:56Z</time>
      </trkpt>
      <trkpt lat="49.8266" lon="2.13676">
        <ele>119.1</ele>
        <time>2023-02-22T14:59:57Z</time>
      </trkpt>
      <trkpt lat="49.8266" lon="2.13676">
        <ele>119.1</ele>
        <time>2023-02-22T14:59:58Z</time>
      </trkpt>
      <trkpt lat="49.8266" lon="2.13676">
        <ele>119.1</ele>
        <time>2023-02-22T14:59:59Z</time>
      </trkpt>
      <trkpt lat="49.8266" lon="2.13676">
        <ele>119.1</ele>
        <time>2023-02-22T15:00:00Z</time>
      </trkpt>
      <trkpt lat="49.8266" lon="2.13676">
        <ele>119.1</ele>
        <time>2023-02-22T15:00:01Z</time>
      </trkpt>
      <trkpt lat="49.8266" lon="2.13676">
        <ele>119.1</ele>
        <time>2023-02-22T15:00:02Z</time>
      </trkpt>
      <trkpt lat="49.8266" lon="2.13676">
        <ele>119.1</ele>
        <time>2023-02-22T15:00:03Z</time>
      </trkpt>
      <trkpt lat="49.8266" lon="2.13676">
        <ele>119.1</ele>
        <time>2023-02-22T15:00:04Z</time>
      </trkpt>
      <trkpt lat="49.8266" lon="2.13676">
        <ele>119.1</ele>
        <time>2023-02-22T15:00:05Z</time>
      </trkpt>
      <trkpt lat="49.8266" lon="2.13676">
        <ele>119.1</ele>
        <time>2023-02-22T15:00:06Z</time>
      </trkpt>
      <trkpt lat="49.8266" lon="2.13676">
        <ele>119.1</ele>
        <time>2023-02-22T15:00:07Z</time>
      </trkpt>
      <trkpt lat="49.8266" lon="2.13676">
        <ele>119.1</ele>
        <time>2023-02-22T15:00:08Z</time>
      </trkpt>
      <trkpt lat="49.8266" lon="2.13676">
        <ele>119.1</ele>
        <time>2023-02-22T15:00:09Z</time>
      </trkpt>
      <trkpt lat="49.8266" lon="2.13676">
        <ele>119.1</ele>
        <time>2023-02-22T15:00:10Z</time>
      </trkpt>
      <trkpt lat="49.8266" lon="2.13676">
        <ele>119.2</ele>
        <time>2023-02-22T15:00:11Z</time>
      </trkpt>
      <trkpt lat="49.8266" lon="2.13676">
        <ele>119.2</ele>
        <time>2023-02-22T15:00:12Z</time>
      </trkpt>
      <trkpt lat="49.8266" lon="2.13676">
        <ele>119.2</ele>
        <time>2023-02-22T15:00:13Z</time>
      </trkpt>
      <trkpt lat="49.8266" lon="2.13676">
        <ele>119.2</ele>
        <time>2023-02-22T15:00:14Z</time>
      </trkpt>
      <trkpt lat="49.8266" lon="2.13676">
        <ele>119.2</ele>
        <time>2023-02-22T15:00:15Z</time>
      </trkpt>
      <trkpt lat="49.8266" lon="2.13676">
        <ele>119.2</ele>
        <time>2023-02-22T15:00:16Z</time>
      </trkpt>
      <trkpt lat="49.8266" lon="2.13676">
        <ele>119.2</ele>
        <time>2023-02-22T15:00:17Z</time>
      </trkpt>
      <trkpt lat="49.8266" lon="2.13676">
        <ele>119.2</ele>
        <time>2023-02-22T15:00:18Z</time>
      </trkpt>
      <trkpt lat="49.8266" lon="2.13676">
        <ele>119.2</ele>
        <time>2023-02-22T15:00:19Z</time>
      </trkpt>
      <trkpt lat="49.8266" lon="2.13676">
        <ele>119.2</ele>
        <time>2023-02-22T15:00:20Z</time>
      </trkpt>
      <trkpt lat="49.8266" lon="2.13676">
        <ele>119.2</ele>
        <time>2023-02-22T15:00:21Z</time>
      </trkpt>
      <trkpt lat="49.8266" lon="2.13676">
        <ele>119.2</ele>
        <time>2023-02-22T15:00:22Z</time>
      </trkpt>
      <trkpt lat="49.8266" lon="2.13676">
        <ele>119.2</ele>
        <time>2023-02-22T15:00:23Z</time>
      </trkpt>
      <trkpt lat="49.8266" lon="2.13676">
        <ele>119.2</ele>
        <time>2023-02-22T15:00:24Z</time>
      </trkpt>
      <trkpt lat="49.8266" lon="2.13676">
        <ele>119.2</ele>
        <time>2023-02-22T15:00:25Z</time>
      </trkpt>
      <trkpt lat="49.8266" lon="2.13676">
        <ele>119.2</ele>
        <time>2023-02-22T15:00:26Z</time>
      </trkpt>
      <trkpt lat="49.82662" lon="2.13673">
        <ele>119.2</ele>
        <time>2023-02-22T15:00:27Z</time>
      </trkpt>
      <trkpt lat="49.82662" lon="2.13671">
        <ele>119.2</ele>
        <time>2023-02-22T15:00:28Z</time>
      </trkpt>
      <trkpt lat="49.82663" lon="2.13671">
        <ele>119.2</ele>
        <time>2023-02-22T15:00:29Z</time>
      </trkpt>
      <trkpt lat="49.82663" lon="2.1367">
        <ele>119.3</ele>
        <time>2023-02-22T15:00:30Z</time>
      </trkpt>
      <trkpt lat="49.82664" lon="2.1367">
        <ele>119.3</ele>
        <time>2023-02-22T15:00:31Z</time>
      </trkpt>
      <trkpt lat="49.82664" lon="2.1367">
        <ele>119.3</ele>
        <time>2023-02-22T15:00:32Z</time>
      </trkpt>
      <trkpt lat="49.82664" lon="2.13671">
        <ele>119.3</ele>
        <time>2023-02-22T15:00:33Z</time>
      </trkpt>
      <trkpt lat="49.82664" lon="2.13671">
        <ele>119.3</ele>
        <time>2023-02-22T15:00:34Z</time>
      </trkpt>
      <trkpt lat="49.82664" lon="2.13671">
        <ele>119.3</ele>
        <time>2023-02-22T15:00:35Z</time>
      </trkpt>
      <trkpt lat="49.82664" lon="2.13671">
        <ele>119.3</ele>
        <time>2023-02-22T15:00:36Z</time>
      </trkpt>
      <trkpt lat="49.82664" lon="2.13672">
        <ele>119.3</ele>
        <time>2023-02-22T15:00:37Z</time>
      </trkpt>
      <trkpt lat="49.82664" lon="2.13672">
        <ele>119.3</ele>
        <time>2023-02-22T15:00:38Z</time>
      </trkpt>
      <trkpt lat="49.82664" lon="2.13672">
        <ele>119.3</ele>
        <time>2023-02-22T15:00:39Z</time>
      </trkpt>
      <trkpt lat="49.82665" lon="2.13671">
        <ele>119.3</ele>
        <time>2023-02-22T15:00:40Z</time>
      </trkpt>
      <trkpt lat="49.82665" lon="2.1367">
        <ele>119.3</ele>
        <time>2023-02-22T15:00:41Z</time>
      </trkpt>
      <trkpt lat="49.82666" lon="2.13669">
        <ele>119.3</ele>
        <time>2023-02-22T15:00:42Z</time>
      </trkpt>
      <trkpt lat="49.82666" lon="2.13668">
        <ele>119.4</ele>
        <time>2023-02-22T15:00:43Z</time>
      </trkpt>
      <trkpt lat="49.82667" lon="2.13667">
        <ele>119.4</ele>
        <time>2023-02-22T15:00:44Z</time>
      </trkpt>
      <trkpt lat="49.82668" lon="2.13665">
        <ele>119.4</ele>
        <time>2023-02-22T15:00:45Z</time>
      </trkpt>
      <trkpt lat="49.82669" lon="2.13664">
        <ele>119.4</ele>
        <time>2023-02-22T15:00:46Z</time>
      </trkpt>
      <trkpt lat="49.82669" lon="2.13663">
        <ele>119.5</ele>
        <time>2023-02-22T15:00:47Z</time>
      </trkpt>
      <trkpt lat="49.8267" lon="2.13662">
        <ele>119.5</ele>
        <time>2023-02-22T15:00:48Z</time>
      </trkpt>
      <trkpt lat="49.8267" lon="2.13662">
        <ele>119.5</ele>
        <time>2023-02-22T15:00:49Z</time>
      </trkpt>
      <trkpt lat="49.8267" lon="2.13661">
        <ele>119.5</ele>
        <time>2023-02-22T15:00:50Z</time>
      </trkpt>
      <trkpt lat="49.82671" lon="2.13659">
        <ele>119.6</ele>
        <time>2023-02-22T15:00:51Z</time>
      </trkpt>
      <trkpt lat="49.82672" lon="2.13658">
        <ele>119.6</ele>
        <time>2023-02-22T15:00:52Z</time>
      </trkpt>
      <trkpt lat="49.82672" lon="2.13657">
        <ele>119.6</ele>
        <time>2023-02-22T15:00:53Z</time>
      </trkpt>
      <trkpt lat="49.82673" lon="2.13656">
        <ele>119.6</ele>
        <time>2023-02-22T15:00:54Z</time>
      </trkpt>
      <trkpt lat="49.82673" lon="2.13655">
        <ele>119.7</ele>
        <time>2023-02-22T15:00:55Z</time>
      </trkpt>
      <trkpt lat="49.82674" lon="2.13654">
        <ele>119.7</ele>
        <time>2023-02-22T15:00:56Z</time>
      </trkpt>
      <trkpt lat="49.82674" lon="2.13653">
        <ele>119.7</ele>
        <time>2023-02-22T15:00:57Z</time>
      </trkpt>
      <trkpt lat="49.82674" lon="2.13652">
        <ele>119.7</ele>
        <time>2023-02-22T15:00:58Z</time>
      </trkpt>
      <trkpt lat="49.82675" lon="2.13651">
        <ele>119.7</ele>
        <time>2023-02-22T15:00:59Z</time>
      </trkpt>
      <trkpt lat="49.82675" lon="2.1365">
        <ele>119.8</ele>
        <time>2023-02-22T15:01:00Z</time>
      </trkpt>
      <trkpt lat="49.82675" lon="2.13649">
        <ele>119.8</ele>
        <time>2023-02-22T15:01:01Z</time>
      </trkpt>
      <trkpt lat="49.82676" lon="2.13648">
        <ele>119.8</ele>
        <time>2023-02-22T15:01:02Z</time>
      </trkpt>
      <trkpt lat="49.82677" lon="2.13646">
        <ele>119.9</ele>
        <time>2023-02-22T15:01:03Z</time>
      </trkpt>
      <trkpt lat="49.82677" lon="2.13643">
        <ele>119.9</ele>
        <time>2023-02-22T15:01:04Z</time>
      </trkpt>
      <trkpt lat="49.82677" lon="2.13641">
        <ele>120</ele>
        <time>2023-02-22T15:01:05Z</time>
      </trkpt>
      <trkpt lat="49.82678" lon="2.13639">
        <ele>120</ele>
        <time>2023-02-22T15:01:06Z</time>
      </trkpt>
      <trkpt lat="49.82679" lon="2.13636">
        <ele>120.1</ele>
        <time>2023-02-22T15:01:07Z</time>
      </trkpt>
      <trkpt lat="49.8268" lon="2.13632">
        <ele>120.2</ele>
        <time>2023-02-22T15:01:08Z</time>
      </trkpt>
      <trkpt lat="49.82681" lon="2.1363">
        <ele>120.3</ele>
        <time>2023-02-22T15:01:09Z</time>
      </trkpt>
      <trkpt lat="49.82682" lon="2.13628">
        <ele>120.3</ele>
        <time>2023-02-22T15:01:10Z</time>
      </trkpt>
      <trkpt lat="49.82683" lon="2.13626">
        <ele>120.4</ele>
        <time>2023-02-22T15:01:11Z</time>
      </trkpt>
      <trkpt lat="49.82684" lon="2.13624">
        <ele>120.4</ele>
        <time>2023-02-22T15:01:13Z</time>
      </trkpt>
      <trkpt lat="49.82685" lon="2.13622">
        <ele>120.5</ele>
        <time>2023-02-22T15:01:14Z</time>
      </trkpt>
      <trkpt lat="49.82687" lon="2.13618">
        <ele>120.6</ele>
        <time>2023-02-22T15:01:15Z</time>
      </trkpt>
      <trkpt lat="49.82687" lon="2.13618">
        <ele>120.6</ele>
        <time>2023-02-22T15:01:16Z</time>
      </trkpt>
      <trkpt lat="49.82688" lon="2.13616">
        <ele>120.7</ele>
        <time>2023-02-22T15:01:17Z</time>
      </trkpt>
      <trkpt lat="49.82689" lon="2.13614">
        <ele>120.7</ele>
        <time>2023-02-22T15:01:18Z</time>
      </trkpt>
      <trkpt lat="49.8269" lon="2.13612">
        <ele>120.8</ele>
        <time>2023-02-22T15:01:19Z</time>
      </trkpt>
      <trkpt lat="49.82691" lon="2.13611">
        <ele>120.8</ele>
        <time>2023-02-22T15:01:20Z</time>
      </trkpt>
      <trkpt lat="49.82692" lon="2.1361">
        <ele>120.8</ele>
        <time>2023-02-22T15:01:22Z</time>
      </trkpt>
      <trkpt lat="49.82694" lon="2.13609">
        <ele>120.9</ele>
        <time>2023-02-22T15:01:23Z</time>
      </trkpt>
      <trkpt lat="49.82695" lon="2.13607">
        <ele>121</ele>
        <time>2023-02-22T15:01:24Z</time>
      </trkpt>
      <trkpt lat="49.82696" lon="2.13607">
        <ele>121</ele>
        <time>2023-02-22T15:01:25Z</time>
      </trkpt>
      <trkpt lat="49.82697" lon="2.13606">
        <ele>121</ele>
        <time>2023-02-22T15:01:26Z</time>
      </trkpt>
      <trkpt lat="49.82698" lon="2.13605">
        <ele>121.1</ele>
        <time>2023-02-22T15:01:27Z</time>
      </trkpt>
      <trkpt lat="49.82699" lon="2.13605">
        <ele>121.1</ele>
        <time>2023-02-22T15:01:28Z</time>
      </trkpt>
      <trkpt lat="49.82699" lon="2.13604">
        <ele>121.1</ele>
        <time>2023-02-22T15:01:30Z</time>
      </trkpt>
      <trkpt lat="49.827" lon="2.13604">
        <ele>121.2</ele>
        <time>2023-02-22T15:01:31Z</time>
      </trkpt>
      <trkpt lat="49.82701" lon="2.13603">
        <ele>121.2</ele>
        <time>2023-02-22T15:01:32Z</time>
      </trkpt>
      <trkpt lat="49.82703" lon="2.13603">
        <ele>121.3</ele>
        <time>2023-02-22T15:01:33Z</time>
      </trkpt>
      <trkpt lat="49.82704" lon="2.13602">
        <ele>121.3</ele>
        <time>2023-02-22T15:01:34Z</time>
      </trkpt>
      <trkpt lat="49.82706" lon="2.13601">
        <ele>121.4</ele>
        <time>2023-02-22T15:01:35Z</time>
      </trkpt>
      <trkpt lat="49.82707" lon="2.136">
        <ele>121.4</ele>
        <time>2023-02-22T15:01:36Z</time>
      </trkpt>
      <trkpt lat="49.82708" lon="2.136">
        <ele>121.5</ele>
        <time>2023-02-22T15:01:37Z</time>
      </trkpt>
      <trkpt lat="49.8271" lon="2.13599">
        <ele>121.5</ele>
        <time>2023-02-22T15:01:39Z</time>
      </trkpt>
      <trkpt lat="49.82711" lon="2.13598">
        <ele>121.6</ele>
        <time>2023-02-22T15:01:40Z</time>
      </trkpt>
      <trkpt lat="49.82712" lon="2.13597">
        <ele>121.6</ele>
        <time>2023-02-22T15:01:41Z</time>
      </trkpt>
      <trkpt lat="49.82714" lon="2.13596">
        <ele>121.6</ele>
        <time>2023-02-22T15:01:42Z</time>
      </trkpt>
      <trkpt lat="49.82716" lon="2.13594">
        <ele>121.7</ele>
        <time>2023-02-22T15:01:43Z</time>
      </trkpt>
      <trkpt lat="49.82717" lon="2.13593">
        <ele>121.8</ele>
        <time>2023-02-22T15:01:44Z</time>
      </trkpt>
      <trkpt lat="49.82718" lon="2.13592">
        <ele>121.8</ele>
        <time>2023-02-22T15:01:45Z</time>
      </trkpt>
      <trkpt lat="49.82719" lon="2.13591">
        <ele>121.8</ele>
        <time>2023-02-22T15:01:47Z</time>
      </trkpt>
      <trkpt lat="49.8272" lon="2.1359">
        <ele>121.9</ele>
        <time>2023-02-22T15:01:48Z</time>
      </trkpt>
      <trkpt lat="49.82722" lon="2.13589">
        <ele>121.9</ele>
        <time>2023-02-22T15:01:49Z</time>
      </trkpt>
      <trkpt lat="49.82723" lon="2.13588">
        <ele>121.9</ele>
        <time>2023-02-22T15:01:50Z</time>
      </trkpt>
      <trkpt lat="49.82724" lon="2.13587">
        <ele>122</ele>
        <time>2023-02-22T15:01:51Z</time>
      </trkpt>
      <trkpt lat="49.82725" lon="2.13586">
        <ele>122</ele>
        <time>2023-02-22T15:01:52Z</time>
      </trkpt>
      <trkpt lat="49.82726" lon="2.13585">
        <ele>122.1</ele>
        <time>2023-02-22T15:01:54Z</time>
      </trkpt>
      <trkpt lat="49.82728" lon="2.13584">
        <ele>122.1</ele>
        <time>2023-02-22T15:01:55Z</time>
      </trkpt>
      <trkpt lat="49.8273" lon="2.13582">
        <ele>122.1</ele>
        <time>2023-02-22T15:01:56Z</time>
      </trkpt>
      <trkpt lat="49.82731" lon="2.13582">
        <ele>122.2</ele>
        <time>2023-02-22T15:01:57Z</time>
      </trkpt>
      <trkpt lat="49.82731" lon="2.13581">
        <ele>122.2</ele>
        <time>2023-02-22T15:01:58Z</time>
      </trkpt>
      <trkpt lat="49.82733" lon="2.13581">
        <ele>122.2</ele>
        <time>2023-02-22T15:01:59Z</time>
      </trkpt>
      <trkpt lat="49.82734" lon="2.13579">
        <ele>122.3</ele>
        <time>2023-02-22T15:02:00Z</time>
      </trkpt>
      <trkpt lat="49.82736" lon="2.13578">
        <ele>122.3</ele>
        <time>2023-02-22T15:02:01Z</time>
      </trkpt>
      <trkpt lat="49.82737" lon="2.13577">
        <ele>122.3</ele>
        <time>2023-02-22T15:02:02Z</time>
      </trkpt>
      <trkpt lat="49.82738" lon="2.13576">
        <ele>122.3</ele>
        <time>2023-02-22T15:02:04Z</time>
      </trkpt>
      <trkpt lat="49.82738" lon="2.13575">
        <ele>122.4</ele>
        <time>2023-02-22T15:02:05Z</time>
      </trkpt>
      <trkpt lat="49.82739" lon="2.13574">
        <ele>122.4</ele>
        <time>2023-02-22T15:02:06Z</time>
      </trkpt>
      <trkpt lat="49.8274" lon="2.13573">
        <ele>122.4</ele>
        <time>2023-02-22T15:02:07Z</time>
      </trkpt>
      <trkpt lat="49.82742" lon="2.13572">
        <ele>122.4</ele>
        <time>2023-02-22T15:02:08Z</time>
      </trkpt>
      <trkpt lat="49.82743" lon="2.13571">
        <ele>122.5</ele>
        <time>2023-02-22T15:02:09Z</time>
      </trkpt>
      <trkpt lat="49.82744" lon="2.1357">
        <ele>122.5</ele>
        <time>2023-02-22T15:02:10Z</time>
      </trkpt>
      <trkpt lat="49.82746" lon="2.13569">
        <ele>122.5</ele>
        <time>2023-02-22T15:02:11Z</time>
      </trkpt>
      <trkpt lat="49.82747" lon="2.13569">
        <ele>122.5</ele>
        <time>2023-02-22T15:02:12Z</time>
      </trkpt>
      <trkpt lat="49.82748" lon="2.13568">
        <ele>122.5</ele>
        <time>2023-02-22T15:02:13Z</time>
      </trkpt>
      <trkpt lat="49.8275" lon="2.13566">
        <ele>122.6</ele>
        <time>2023-02-22T15:02:15Z</time>
      </trkpt>
      <trkpt lat="49.82751" lon="2.13566">
        <ele>122.6</ele>
        <time>2023-02-22T15:02:16Z</time>
      </trkpt>
      <trkpt lat="49.82753" lon="2.13565">
        <ele>122.6</ele>
        <time>2023-02-22T15:02:18Z</time>
      </trkpt>
      <trkpt lat="49.82754" lon="2.13564">
        <ele>122.6</ele>
        <time>2023-02-22T15:02:19Z</time>
      </trkpt>
      <trkpt lat="49.82755" lon="2.13564">
        <ele>122.7</ele>
        <time>2023-02-22T15:02:20Z</time>
      </trkpt>
      <trkpt lat="49.82756" lon="2.13564">
        <ele>122.7</ele>
        <time>2023-02-22T15:02:21Z</time>
      </trkpt>
      <trkpt lat="49.82757" lon="2.13564">
        <ele>122.7</ele>
        <time>2023-02-22T15:02:22Z</time>
      </trkpt>
      <trkpt lat="49.82758" lon="2.13564">
        <ele>122.7</ele>
        <time>2023-02-22T15:02:23Z</time>
      </trkpt>
      <trkpt lat="49.8276" lon="2.13565">
        <ele>122.7</ele>
        <time>2023-02-22T15:02:25Z</time>
      </trkpt>
      <trkpt lat="49.82761" lon="2.13565">
        <ele>122.7</ele>
        <time>2023-02-22T15:02:26Z</time>
      </trkpt>
      <trkpt lat="49.82763" lon="2.13566">
        <ele>122.7</ele>
        <time>2023-02-22T15:02:27Z</time>
      </trkpt>
      <trkpt lat="49.82764" lon="2.13566">
        <ele>122.7</ele>
        <time>2023-02-22T15:02:28Z</time>
      </trkpt>
      <trkpt lat="49.82767" lon="2.13567">
        <ele>122.8</ele>
        <time>2023-02-22T15:02:30Z</time>
      </trkpt>
      <trkpt lat="49.82767" lon="2.13568">
        <ele>122.8</ele>
        <time>2023-02-22T15:02:31Z</time>
      </trkpt>
      <trkpt lat="49.82769" lon="2.13569">
        <ele>122.8</ele>
        <time>2023-02-22T15:02:32Z</time>
      </trkpt>
      <trkpt lat="49.8277" lon="2.1357">
        <ele>122.8</ele>
        <time>2023-02-22T15:02:33Z</time>
      </trkpt>
      <trkpt lat="49.82771" lon="2.13571">
        <ele>122.8</ele>
        <time>2023-02-22T15:02:34Z</time>
      </trkpt>
      <trkpt lat="49.82773" lon="2.13572">
        <ele>122.8</ele>
        <time>2023-02-22T15:02:35Z</time>
      </trkpt>
      <trkpt lat="49.82775" lon="2.13573">
        <ele>122.8</ele>
        <time>2023-02-22T15:02:36Z</time>
      </trkpt>
      <trkpt lat="49.82776" lon="2.13573">
        <ele>122.8</ele>
        <time>2023-02-22T15:02:37Z</time>
      </trkpt>
      <trkpt lat="49.82777" lon="2.13574">
        <ele>122.8</ele>
        <time>2023-02-22T15:02:39Z</time>
      </trkpt>
      <trkpt lat="49.82778" lon="2.13575">
        <ele>122.9</ele>
        <time>2023-02-22T15:02:40Z</time>
      </trkpt>
      <trkpt lat="49.8278" lon="2.13576">
        <ele>122.9</ele>
        <time>2023-02-22T15:02:41Z</time>
      </trkpt>
      <trkpt lat="49.82781" lon="2.13576">
        <ele>122.9</ele>
        <time>2023-02-22T15:02:42Z</time>
      </trkpt>
      <trkpt lat="49.82782" lon="2.13576">
        <ele>122.9</ele>
        <time>2023-02-22T15:02:43Z</time>
      </trkpt>
      <trkpt lat="49.82784" lon="2.13577">
        <ele>122.9</ele>
        <time>2023-02-22T15:02:44Z</time>
      </trkpt>
      <trkpt lat="49.82785" lon="2.13577">
        <ele>122.9</ele>
        <time>2023-02-22T15:02:45Z</time>
      </trkpt>
      <trkpt lat="49.82787" lon="2.13578">
        <ele>122.9</ele>
        <time>2023-02-22T15:02:46Z</time>
      </trkpt>
      <trkpt lat="49.82788" lon="2.13578">
        <ele>122.9</ele>
        <time>2023-02-22T15:02:47Z</time>
      </trkpt>
      <trkpt lat="49.8279" lon="2.13579">
        <ele>122.9</ele>
        <time>2023-02-22T15:02:48Z</time>
      </trkpt>
      <trkpt lat="49.82792" lon="2.1358">
        <ele>122.9</ele>
        <time>2023-02-22T15:02:50Z</time>
      </trkpt>
      <trkpt lat="49.82793" lon="2.1358">
        <ele>122.9</ele>
        <time>2023-02-22T15:02:51Z</time>
      </trkpt>
      <trkpt lat="49.82794" lon="2.13581">
        <ele>122.9</ele>
        <time>2023-02-22T15:02:52Z</time>
      </trkpt>
      <trkpt lat="49.82795" lon="2.13582">
        <ele>122.9</ele>
        <time>2023-02-22T15:02:53Z</time>
      </trkpt>
      <trkpt lat="49.82799" lon="2.13584">
        <ele>123</ele>
        <time>2023-02-22T15:02:55Z</time>
      </trkpt>
      <trkpt lat="49.82799" lon="2.13584">
        <ele>123</ele>
        <time>2023-02-22T15:02:56Z</time>
      </trkpt>
      <trkpt lat="49.828" lon="2.13585">
        <ele>123</ele>
        <time>2023-02-22T15:02:57Z</time>
      </trkpt>
      <trkpt lat="49.82801" lon="2.13585">
        <ele>123</ele>
        <time>2023-02-22T15:02:58Z</time>
      </trkpt>
      <trkpt lat="49.82803" lon="2.13586">
        <ele>123</ele>
        <time>2023-02-22T15:02:59Z</time>
      </trkpt>
      <trkpt lat="49.82803" lon="2.13587">
        <ele>123</ele>
        <time>2023-02-22T15:03:01Z</time>
      </trkpt>
      <trkpt lat="49.82804" lon="2.13587">
        <ele>123</ele>
        <time>2023-02-22T15:03:02Z</time>
      </trkpt>
      <trkpt lat="49.82806" lon="2.13589">
        <ele>123</ele>
        <time>2023-02-22T15:03:03Z</time>
      </trkpt>
      <trkpt lat="49.82807" lon="2.13589">
        <ele>123</ele>
        <time>2023-02-22T15:03:04Z</time>
      </trkpt>
      <trkpt lat="49.82808" lon="2.13589">
        <ele>123</ele>
        <time>2023-02-22T15:03:05Z</time>
      </trkpt>
      <trkpt lat="49.8281" lon="2.13591">
        <ele>123.1</ele>
        <time>2023-02-22T15:03:06Z</time>
      </trkpt>
      <trkpt lat="49.82811" lon="2.13591">
        <ele>123.1</ele>
        <time>2023-02-22T15:03:07Z</time>
      </trkpt>
      <trkpt lat="49.82812" lon="2.13592">
        <ele>123.1</ele>
        <time>2023-02-22T15:03:08Z</time>
      </trkpt>
      <trkpt lat="49.82814" lon="2.13594">
        <ele>123.1</ele>
        <time>2023-02-22T15:03:10Z</time>
      </trkpt>
      <trkpt lat="49.82815" lon="2.13595">
        <ele>123.1</ele>
        <time>2023-02-22T15:03:12Z</time>
      </trkpt>
      <trkpt lat="49.82817" lon="2.13596">
        <ele>123.1</ele>
        <time>2023-02-22T15:03:13Z</time>
      </trkpt>
      <trkpt lat="49.82818" lon="2.13596">
        <ele>123.1</ele>
        <time>2023-02-22T15:03:14Z</time>
      </trkpt>
      <trkpt lat="49.82819" lon="2.13597">
        <ele>123.1</ele>
        <time>2023-02-22T15:03:15Z</time>
      </trkpt>
      <trkpt lat="49.8282" lon="2.13597">
        <ele>123.1</ele>
        <time>2023-02-22T15:03:16Z</time>
      </trkpt>
      <trkpt lat="49.82821" lon="2.13598">
        <ele>123.1</ele>
        <time>2023-02-22T15:03:17Z</time>
      </trkpt>
      <trkpt lat="49.82822" lon="2.13598">
        <ele>123.1</ele>
        <time>2023-02-22T15:03:18Z</time>
      </trkpt>
      <trkpt lat="49.82824" lon="2.13599">
        <ele>123.1</ele>
        <time>2023-02-22T15:03:19Z</time>
      </trkpt>
      <trkpt lat="49.82825" lon="2.136">
        <ele>123.2</ele>
        <time>2023-02-22T15:03:21Z</time>
      </trkpt>
      <trkpt lat="49.82825" lon="2.136">
        <ele>123.2</ele>
        <time>2023-02-22T15:03:22Z</time>
      </trkpt>
      <trkpt lat="49.82827" lon="2.13601">
        <ele>123.2</ele>
        <time>2023-02-22T15:03:23Z</time>
      </trkpt>
      <trkpt lat="49.82828" lon="2.13601">
        <ele>123.2</ele>
        <time>2023-02-22T15:03:24Z</time>
      </trkpt>
      <trkpt lat="49.8283" lon="2.13602">
        <ele>123.2</ele>
        <time>2023-02-22T15:03:25Z</time>
      </trkpt>
      <trkpt lat="49.82831" lon="2.13603">
        <ele>123.2</ele>
        <time>2023-02-22T15:03:26Z</time>
      </trkpt>
      <trkpt lat="49.82833" lon="2.13604">
        <ele>123.2</ele>
        <time>2023-02-22T15:03:28Z</time>
      </trkpt>
      <trkpt lat="49.82834" lon="2.13604">
        <ele>123.2</ele>
        <time>2023-02-22T15:03:29Z</time>
      </trkpt>
      <trkpt lat="49.82836" lon="2.13605">
        <ele>123.2</ele>
        <time>2023-02-22T15:03:30Z</time>
      </trkpt>
      <trkpt lat="49.82837" lon="2.13606">
        <ele>123.2</ele>
        <time>2023-02-22T15:03:31Z</time>
      </trkpt>
      <trkpt lat="49.82839" lon="2.13607">
        <ele>123.2</ele>
        <time>2023-02-22T15:03:32Z</time>
      </trkpt>
      <trkpt lat="49.8284" lon="2.13608">
        <ele>123.2</ele>
        <time>2023-02-22T15:03:33Z</time>
      </trkpt>
      <trkpt lat="49.82841" lon="2.13608">
        <ele>123.2</ele>
        <time>2023-02-22T15:03:34Z</time>
      </trkpt>
      <trkpt lat="49.82842" lon="2.13608">
        <ele>123.2</ele>
        <time>2023-02-22T15:03:36Z</time>
      </trkpt>
      <trkpt lat="49.82843" lon="2.13609">
        <ele>123.2</ele>
        <time>2023-02-22T15:03:37Z</time>
      </trkpt>
      <trkpt lat="49.82844" lon="2.13609">
        <ele>123.2</ele>
        <time>2023-02-22T15:03:38Z</time>
      </trkpt>
      <trkpt lat="49.82845" lon="2.1361">
        <ele>123.2</ele>
        <time>2023-02-22T15:03:39Z</time>
      </trkpt>
      <trkpt lat="49.82847" lon="2.13611">
        <ele>123.2</ele>
        <time>2023-02-22T15:03:40Z</time>
      </trkpt>
      <trkpt lat="49.82848" lon="2.13611">
        <ele>123.2</ele>
        <time>2023-02-22T15:03:41Z</time>
      </trkpt>
      <trkpt lat="49.82849" lon="2.13612">
        <ele>123.1</ele>
        <time>2023-02-22T15:03:42Z</time>
      </trkpt>
      <trkpt lat="49.82851" lon="2.13613">
        <ele>123.1</ele>
        <time>2023-02-22T15:03:44Z</time>
      </trkpt>
      <trkpt lat="49.82852" lon="2.13614">
        <ele>123.1</ele>
        <time>2023-02-22T15:03:45Z</time>
      </trkpt>
      <trkpt lat="49.82853" lon="2.13614">
        <ele>123.1</ele>
        <time>2023-02-22T15:03:46Z</time>
      </trkpt>
      <trkpt lat="49.82854" lon="2.13615">
        <ele>123.1</ele>
        <time>2023-02-22T15:03:47Z</time>
      </trkpt>
      <trkpt lat="49.82855" lon="2.13616">
        <ele>123.1</ele>
        <time>2023-02-22T15:03:48Z</time>
      </trkpt>
      <trkpt lat="49.82856" lon="2.13616">
        <ele>123.1</ele>
        <time>2023-02-22T15:03:49Z</time>
      </trkpt>
      <trkpt lat="49.82857" lon="2.13617">
        <ele>123.1</ele>
        <time>2023-02-22T15:03:50Z</time>
      </trkpt>
      <trkpt lat="49.82858" lon="2.13617">
        <ele>123.1</ele>
        <time>2023-02-22T15:03:51Z</time>
      </trkpt>
      <trkpt lat="49.82859" lon="2.13618">
        <ele>123.1</ele>
        <time>2023-02-22T15:03:52Z</time>
      </trkpt>
      <trkpt lat="49.82861" lon="2.13619">
        <ele>123.1</ele>
        <time>2023-02-22T15:03:53Z</time>
      </trkpt>
      <trkpt lat="49.82862" lon="2.13619">
        <ele>123.1</ele>
        <time>2023-02-22T15:03:55Z</time>
      </trkpt>
      <trkpt lat="49.82863" lon="2.1362">
        <ele>123.1</ele>
        <time>2023-02-22T15:03:56Z</time>
      </trkpt>
      <trkpt lat="49.82865" lon="2.13621">
        <ele>123.1</ele>
        <time>2023-02-22T15:03:57Z</time>
      </trkpt>
      <trkpt lat="49.82865" lon="2.13621">
        <ele>123.1</ele>
        <time>2023-02-22T15:03:58Z</time>
      </trkpt>
      <trkpt lat="49.82866" lon="2.13622">
        <ele>123.1</ele>
        <time>2023-02-22T15:03:59Z</time>
      </trkpt>
      <trkpt lat="49.82868" lon="2.13623">
        <ele>123.1</ele>
        <time>2023-02-22T15:04:00Z</time>
      </trkpt>
      <trkpt lat="49.82869" lon="2.13624">
        <ele>123.1</ele>
        <time>2023-02-22T15:04:01Z</time>
      </trkpt>
      <trkpt lat="49.8287" lon="2.13624">
        <ele>123.1</ele>
        <time>2023-02-22T15:04:03Z</time>
      </trkpt>
      <trkpt lat="49.82871" lon="2.13625">
        <ele>123.1</ele>
        <time>2023-02-22T15:04:04Z</time>
      </trkpt>
      <trkpt lat="49.82873" lon="2.13625">
        <ele>123</ele>
        <time>2023-02-22T15:04:05Z</time>
      </trkpt>
      <trkpt lat="49.82875" lon="2.13626">
        <ele>123</ele>
        <time>2023-02-22T15:04:06Z</time>
      </trkpt>
      <trkpt lat="49.82876" lon="2.13626">
        <ele>123</ele>
        <time>2023-02-22T15:04:07Z</time>
      </trkpt>
      <trkpt lat="49.82877" lon="2.13627">
        <ele>123</ele>
        <time>2023-02-22T15:04:08Z</time>
      </trkpt>
      <trkpt lat="49.82879" lon="2.13627">
        <ele>123</ele>
        <time>2023-02-22T15:04:09Z</time>
      </trkpt>
      <trkpt lat="49.82881" lon="2.13628">
        <ele>123</ele>
        <time>2023-02-22T15:04:10Z</time>
      </trkpt>
      <trkpt lat="49.82882" lon="2.13629">
        <ele>123</ele>
        <time>2023-02-22T15:04:12Z</time>
      </trkpt>
      <trkpt lat="49.82883" lon="2.13629">
        <ele>123</ele>
        <time>2023-02-22T15:04:13Z</time>
      </trkpt>
      <trkpt lat="49.82886" lon="2.1363">
        <ele>123</ele>
        <time>2023-02-22T15:04:14Z</time>
      </trkpt>
      <trkpt lat="49.82887" lon="2.13631">
        <ele>123</ele>
        <time>2023-02-22T15:04:15Z</time>
      </trkpt>
      <trkpt lat="49.82888" lon="2.13632">
        <ele>123</ele>
        <time>2023-02-22T15:04:16Z</time>
      </trkpt>
      <trkpt lat="49.8289" lon="2.13632">
        <ele>122.9</ele>
        <time>2023-02-22T15:04:17Z</time>
      </trkpt>
      <trkpt lat="49.82891" lon="2.13633">
        <ele>122.9</ele>
        <time>2023-02-22T15:04:18Z</time>
      </trkpt>
      <trkpt lat="49.82893" lon="2.13634">
        <ele>122.9</ele>
        <time>2023-02-22T15:04:19Z</time>
      </trkpt>
      <trkpt lat="49.82895" lon="2.13635">
        <ele>122.9</ele>
        <time>2023-02-22T15:04:21Z</time>
      </trkpt>
      <trkpt lat="49.82896" lon="2.13635">
        <ele>122.9</ele>
        <time>2023-02-22T15:04:22Z</time>
      </trkpt>
      <trkpt lat="49.82897" lon="2.13636">
        <ele>122.9</ele>
        <time>2023-02-22T15:04:23Z</time>
      </trkpt>
      <trkpt lat="49.82899" lon="2.13637">
        <ele>122.9</ele>
        <time>2023-02-22T15:04:24Z</time>
      </trkpt>
      <trkpt lat="49.82901" lon="2.13638">
        <ele>122.9</ele>
        <time>2023-02-22T15:04:25Z</time>
      </trkpt>
      <trkpt lat="49.82902" lon="2.13638">
        <ele>122.9</ele>
        <time>2023-02-22T15:04:26Z</time>
      </trkpt>
      <trkpt lat="49.82903" lon="2.13639">
        <ele>122.9</ele>
        <time>2023-02-22T15:04:27Z</time>
      </trkpt>
      <trkpt lat="49.82904" lon="2.1364">
        <ele>122.8</ele>
        <time>2023-02-22T15:04:28Z</time>
      </trkpt>
      <trkpt lat="49.82906" lon="2.13641">
        <ele>122.8</ele>
        <time>2023-02-22T15:04:30Z</time>
      </trkpt>
      <trkpt lat="49.82907" lon="2.13641">
        <ele>122.8</ele>
        <time>2023-02-22T15:04:31Z</time>
      </trkpt>
      <trkpt lat="49.82908" lon="2.13642">
        <ele>122.8</ele>
        <time>2023-02-22T15:04:32Z</time>
      </trkpt>
      <trkpt lat="49.82909" lon="2.13642">
        <ele>122.8</ele>
        <time>2023-02-22T15:04:33Z</time>
      </trkpt>
      <trkpt lat="49.82911" lon="2.13643">
        <ele>122.8</ele>
        <time>2023-02-22T15:04:34Z</time>
      </trkpt>
      <trkpt lat="49.82912" lon="2.13644">
        <ele>122.8</ele>
        <time>2023-02-22T15:04:36Z</time>
      </trkpt>
      <trkpt lat="49.82914" lon="2.13645">
        <ele>122.8</ele>
        <time>2023-02-22T15:04:37Z</time>
      </trkpt>
      <trkpt lat="49.82915" lon="2.13645">
        <ele>122.8</ele>
        <time>2023-02-22T15:04:38Z</time>
      </trkpt>
      <trkpt lat="49.82918" lon="2.13647">
        <ele>122.8</ele>
        <time>2023-02-22T15:04:39Z</time>
      </trkpt>
      <trkpt lat="49.82919" lon="2.13647">
        <ele>122.7</ele>
        <time>2023-02-22T15:04:40Z</time>
      </trkpt>
      <trkpt lat="49.8292" lon="2.13649">
        <ele>122.7</ele>
        <time>2023-02-22T15:04:42Z</time>
      </trkpt>
      <trkpt lat="49.82922" lon="2.1365">
        <ele>122.7</ele>
        <time>2023-02-22T15:04:43Z</time>
      </trkpt>
      <trkpt lat="49.82924" lon="2.13652">
        <ele>122.7</ele>
        <time>2023-02-22T15:04:44Z</time>
      </trkpt>
      <trkpt lat="49.82925" lon="2.13652">
        <ele>122.7</ele>
        <time>2023-02-22T15:04:45Z</time>
      </trkpt>
      <trkpt lat="49.82926" lon="2.13652">
        <ele>122.7</ele>
        <time>2023-02-22T15:04:46Z</time>
      </trkpt>
      <trkpt lat="49.82927" lon="2.13651">
        <ele>122.7</ele>
        <time>2023-02-22T15:04:47Z</time>
      </trkpt>
      <trkpt lat="49.82928" lon="2.13649">
        <ele>122.7</ele>
        <time>2023-02-22T15:04:48Z</time>
      </trkpt>
      <trkpt lat="49.82927" lon="2.13647">
        <ele>122.7</ele>
        <time>2023-02-22T15:04:50Z</time>
      </trkpt>
      <trkpt lat="49.82926" lon="2.13645">
        <ele>122.7</ele>
        <time>2023-02-22T15:04:52Z</time>
      </trkpt>
      <trkpt lat="49.82925" lon="2.13644">
        <ele>122.7</ele>
        <time>2023-02-22T15:04:53Z</time>
      </trkpt>
      <trkpt lat="49.82924" lon="2.13643">
        <ele>122.7</ele>
        <time>2023-02-22T15:04:55Z</time>
      </trkpt>
      <trkpt lat="49.82923" lon="2.13643">
        <ele>122.7</ele>
        <time>2023-02-22T15:04:56Z</time>
      </trkpt>
      <trkpt lat="49.82923" lon="2.13642">
        <ele>122.7</ele>
        <time>2023-02-22T15:04:57Z</time>
      </trkpt>
      <trkpt lat="49.82923" lon="2.13642">
        <ele>122.7</ele>
        <time>2023-02-22T15:04:59Z</time>
      </trkpt>
      <trkpt lat="49.82923" lon="2.13642">
        <ele>122.7</ele>
        <time>2023-02-22T15:05:00Z</time>
      </trkpt>
      <trkpt lat="49.82924" lon="2.13642">
        <ele>122.7</ele>
        <time>2023-02-22T15:05:02Z</time>
      </trkpt>
      <trkpt lat="49.82924" lon="2.13642">
        <ele>122.7</ele>
        <time>2023-02-22T15:05:03Z</time>
      </trkpt>
      <trkpt lat="49.82924" lon="2.13642">
        <ele>122.7</ele>
        <time>2023-02-22T15:05:05Z</time>
      </trkpt>
      <trkpt lat="49.82925" lon="2.13642">
        <ele>122.7</ele>
        <time>2023-02-22T15:05:06Z</time>
      </trkpt>
      <trkpt lat="49.82925" lon="2.13642">
        <ele>122.7</ele>
        <time>2023-02-22T15:05:07Z</time>
      </trkpt>
      <trkpt lat="49.82925" lon="2.13641">
        <ele>122.7</ele>
        <time>2023-02-22T15:05:08Z</time>
      </trkpt>
      <trkpt lat="49.82926" lon="2.13641">
        <ele>122.7</ele>
        <time>2023-02-22T15:05:09Z</time>
      </trkpt>
      <trkpt lat="49.82926" lon="2.13641">
        <ele>122.7</ele>
        <time>2023-02-22T15:05:11Z</time>
      </trkpt>
      <trkpt lat="49.82926" lon="2.13641">
        <ele>122.7</ele>
        <time>2023-02-22T15:05:12Z</time>
      </trkpt>
      <trkpt lat="49.82927" lon="2.13641">
        <ele>122.7</ele>
        <time>2023-02-22T15:05:13Z</time>
      </trkpt>
      <trkpt lat="49.82929" lon="2.1364">
        <ele>122.7</ele>
        <time>2023-02-22T15:05:14Z</time>
      </trkpt>
      <trkpt lat="49.82929" lon="2.13639">
        <ele>122.7</ele>
        <time>2023-02-22T15:05:15Z</time>
      </trkpt>
      <trkpt lat="49.8293" lon="2.13639">
        <ele>122.7</ele>
        <time>2023-02-22T15:05:16Z</time>
      </trkpt>
      <trkpt lat="49.82931" lon="2.13638">
        <ele>122.7</ele>
        <time>2023-02-22T15:05:17Z</time>
      </trkpt>
      <trkpt lat="49.82932" lon="2.13637">
        <ele>122.7</ele>
        <time>2023-02-22T15:05:18Z</time>
      </trkpt>
      <trkpt lat="49.82933" lon="2.13636">
        <ele>122.7</ele>
        <time>2023-02-22T15:05:19Z</time>
      </trkpt>
      <trkpt lat="49.82934" lon="2.13635">
        <ele>122.7</ele>
        <time>2023-02-22T15:05:20Z</time>
      </trkpt>
      <trkpt lat="49.82935" lon="2.13634">
        <ele>122.8</ele>
        <time>2023-02-22T15:05:21Z</time>
      </trkpt>
      <trkpt lat="49.82936" lon="2.13634">
        <ele>122.8</ele>
        <time>2023-02-22T15:05:23Z</time>
      </trkpt>
      <trkpt lat="49.82937" lon="2.13633">
        <ele>122.8</ele>
        <time>2023-02-22T15:05:24Z</time>
      </trkpt>
      <trkpt lat="49.82938" lon="2.13632">
        <ele>122.8</ele>
        <time>2023-02-22T15:05:25Z</time>
      </trkpt>
      <trkpt lat="49.82939" lon="2.13631">
        <ele>122.8</ele>
        <time>2023-02-22T15:05:26Z</time>
      </trkpt>
      <trkpt lat="49.8294" lon="2.1363">
        <ele>122.8</ele>
        <time>2023-02-22T15:05:27Z</time>
      </trkpt>
      <trkpt lat="49.8294" lon="2.13629">
        <ele>122.8</ele>
        <time>2023-02-22T15:05:29Z</time>
      </trkpt>
      <trkpt lat="49.82941" lon="2.13628">
        <ele>122.8</ele>
        <time>2023-02-22T15:05:30Z</time>
      </trkpt>
      <trkpt lat="49.82942" lon="2.13626">
        <ele>122.8</ele>
        <time>2023-02-22T15:05:31Z</time>
      </trkpt>
      <trkpt lat="49.82943" lon="2.13626">
        <ele>122.8</ele>
        <time>2023-02-22T15:05:32Z</time>
      </trkpt>
      <trkpt lat="49.82944" lon="2.13625">
        <ele>122.8</ele>
        <time>2023-02-22T15:05:33Z</time>
      </trkpt>
      <trkpt lat="49.82945" lon="2.13624">
        <ele>122.8</ele>
        <time>2023-02-22T15:05:34Z</time>
      </trkpt>
      <trkpt lat="49.82946" lon="2.13623">
        <ele>122.8</ele>
        <time>2023-02-22T15:05:35Z</time>
      </trkpt>
      <trkpt lat="49.82947" lon="2.13622">
        <ele>122.8</ele>
        <time>2023-02-22T15:05:37Z</time>
      </trkpt>
      <trkpt lat="49.82948" lon="2.13622">
        <ele>122.9</ele>
        <time>2023-02-22T15:05:38Z</time>
      </trkpt>
      <trkpt lat="49.82949" lon="2.13621">
        <ele>122.9</ele>
        <time>2023-02-22T15:05:39Z</time>
      </trkpt>
      <trkpt lat="49.8295" lon="2.1362">
        <ele>122.9</ele>
        <time>2023-02-22T15:05:40Z</time>
      </trkpt>
      <trkpt lat="49.82952" lon="2.13619">
        <ele>122.9</ele>
        <time>2023-02-22T15:05:41Z</time>
      </trkpt>
      <trkpt lat="49.82952" lon="2.13618">
        <ele>122.9</ele>
        <time>2023-02-22T15:05:42Z</time>
      </trkpt>
      <trkpt lat="49.82953" lon="2.13617">
        <ele>122.9</ele>
        <time>2023-02-22T15:05:44Z</time>
      </trkpt>
      <trkpt lat="49.82955" lon="2.13615">
        <ele>122.9</ele>
        <time>2023-02-22T15:05:45Z</time>
      </trkpt>
      <trkpt lat="49.82956" lon="2.13614">
        <ele>122.9</ele>
        <time>2023-02-22T15:05:46Z</time>
      </trkpt>
      <trkpt lat="49.82957" lon="2.13613">
        <ele>122.9</ele>
        <time>2023-02-22T15:05:47Z</time>
      </trkpt>
      <trkpt lat="49.82957" lon="2.13611">
        <ele>122.9</ele>
        <time>2023-02-22T15:05:48Z</time>
      </trkpt>
      <trkpt lat="49.82958" lon="2.1361">
        <ele>122.9</ele>
        <time>2023-02-22T15:05:49Z</time>
      </trkpt>
      <trkpt lat="49.82959" lon="2.13608">
        <ele>122.9</ele>
        <time>2023-02-22T15:05:51Z</time>
      </trkpt>
      <trkpt lat="49.8296" lon="2.13607">
        <ele>122.9</ele>
        <time>2023-02-22T15:05:52Z</time>
      </trkpt>
      <trkpt lat="49.8296" lon="2.13606">
        <ele>122.9</ele>
        <time>2023-02-22T15:05:53Z</time>
      </trkpt>
      <trkpt lat="49.82962" lon="2.13604">
        <ele>123</ele>
        <time>2023-02-22T15:05:54Z</time>
      </trkpt>
      <trkpt lat="49.82963" lon="2.13603">
        <ele>123</ele>
        <time>2023-02-22T15:05:55Z</time>
      </trkpt>
      <trkpt lat="49.82963" lon="2.13602">
        <ele>123</ele>
        <time>2023-02-22T15:05:56Z</time>
      </trkpt>
      <trkpt lat="49.82964" lon="2.13601">
        <ele>123</ele>
        <time>2023-02-22T15:05:57Z</time>
      </trkpt>
      <trkpt lat="49.82965" lon="2.136">
        <ele>123</ele>
        <time>2023-02-22T15:05:58Z</time>
      </trkpt>
      <trkpt lat="49.82966" lon="2.13599">
        <ele>123</ele>
        <time>2023-02-22T15:05:59Z</time>
      </trkpt>
      <trkpt lat="49.82968" lon="2.13597">
        <ele>123</ele>
        <time>2023-02-22T15:06:00Z</time>
      </trkpt>
      <trkpt lat="49.82969" lon="2.13596">
        <ele>123</ele>
        <time>2023-02-22T15:06:01Z</time>
      </trkpt>
      <trkpt lat="49.82969" lon="2.13595">
        <ele>123</ele>
        <time>2023-02-22T15:06:03Z</time>
      </trkpt>
      <trkpt lat="49.8297" lon="2.13594">
        <ele>123</ele>
        <time>2023-02-22T15:06:04Z</time>
      </trkpt>
      <trkpt lat="49.82971" lon="2.13593">
        <ele>123</ele>
        <time>2023-02-22T15:06:05Z</time>
      </trkpt>
      <trkpt lat="49.82971" lon="2.13592">
        <ele>123</ele>
        <time>2023-02-22T15:06:06Z</time>
      </trkpt>
      <trkpt lat="49.82972" lon="2.13592">
        <ele>123</ele>
        <time>2023-02-22T15:06:07Z</time>
      </trkpt>
      <trkpt lat="49.82973" lon="2.13591">
        <ele>123</ele>
        <time>2023-02-22T15:06:08Z</time>
      </trkpt>
      <trkpt lat="49.82974" lon="2.13589">
        <ele>123</ele>
        <time>2023-02-22T15:06:09Z</time>
      </trkpt>
      <trkpt lat="49.82974" lon="2.13589">
        <ele>123</ele>
        <time>2023-02-22T15:06:10Z</time>
      </trkpt>
      <trkpt lat="49.82976" lon="2.13587">
        <ele>123</ele>
        <time>2023-02-22T15:06:12Z</time>
      </trkpt>
      <trkpt lat="49.82976" lon="2.13586">
        <ele>123</ele>
        <time>2023-02-22T15:06:13Z</time>
      </trkpt>
      <trkpt lat="49.82977" lon="2.13585">
        <ele>123</ele>
        <time>2023-02-22T15:06:14Z</time>
      </trkpt>
      <trkpt lat="49.82978" lon="2.13584">
        <ele>123</ele>
        <time>2023-02-22T15:06:15Z</time>
      </trkpt>
      <trkpt lat="49.82978" lon="2.13582">
        <ele>123</ele>
        <time>2023-02-22T15:06:16Z</time>
      </trkpt>
      <trkpt lat="49.82979" lon="2.1358">
        <ele>123</ele>
        <time>2023-02-22T15:06:17Z</time>
      </trkpt>
      <trkpt lat="49.82979" lon="2.13578">
        <ele>123</ele>
        <time>2023-02-22T15:06:19Z</time>
      </trkpt>
      <trkpt lat="49.8298" lon="2.13576">
        <ele>123</ele>
        <time>2023-02-22T15:06:20Z</time>
      </trkpt>
      <trkpt lat="49.8298" lon="2.13573">
        <ele>123</ele>
        <time>2023-02-22T15:06:21Z</time>
      </trkpt>
      <trkpt lat="49.8298" lon="2.13571">
        <ele>123</ele>
        <time>2023-02-22T15:06:23Z</time>
      </trkpt>
      <trkpt lat="49.8298" lon="2.1357">
        <ele>123</ele>
        <time>2023-02-22T15:06:24Z</time>
      </trkpt>
      <trkpt lat="49.8298" lon="2.13568">
        <ele>123</ele>
        <time>2023-02-22T15:06:25Z</time>
      </trkpt>
      <trkpt lat="49.8298" lon="2.13566">
        <ele>123</ele>
        <time>2023-02-22T15:06:26Z</time>
      </trkpt>
      <trkpt lat="49.8298" lon="2.13564">
        <ele>123</ele>
        <time>2023-02-22T15:06:27Z</time>
      </trkpt>
      <trkpt lat="49.8298" lon="2.13562">
        <ele>123</ele>
        <time>2023-02-22T15:06:28Z</time>
      </trkpt>
      <trkpt lat="49.8298" lon="2.1356">
        <ele>123</ele>
        <time>2023-02-22T15:06:30Z</time>
      </trkpt>
      <trkpt lat="49.82979" lon="2.13557">
        <ele>123</ele>
        <time>2023-02-22T15:06:31Z</time>
      </trkpt>
      <trkpt lat="49.82979" lon="2.13555">
        <ele>123</ele>
        <time>2023-02-22T15:06:32Z</time>
      </trkpt>
      <trkpt lat="49.82978" lon="2.13554">
        <ele>123</ele>
        <time>2023-02-22T15:06:33Z</time>
      </trkpt>
      <trkpt lat="49.82978" lon="2.13552">
        <ele>123</ele>
        <time>2023-02-22T15:06:34Z</time>
      </trkpt>
      <trkpt lat="49.82977" lon="2.1355">
        <ele>123</ele>
        <time>2023-02-22T15:06:36Z</time>
      </trkpt>
      <trkpt lat="49.82976" lon="2.13547">
        <ele>123</ele>
        <time>2023-02-22T15:06:37Z</time>
      </trkpt>
      <trkpt lat="49.82976" lon="2.13546">
        <ele>123</ele>
        <time>2023-02-22T15:06:38Z</time>
      </trkpt>
      <trkpt lat="49.82975" lon="2.13545">
        <ele>123</ele>
        <time>2023-02-22T15:06:39Z</time>
      </trkpt>
      <trkpt lat="49.82975" lon="2.13543">
        <ele>123</ele>
        <time>2023-02-22T15:06:40Z</time>
      </trkpt>
      <trkpt lat="49.82974" lon="2.1354">
        <ele>123</ele>
        <time>2023-02-22T15:06:41Z</time>
      </trkpt>
      <trkpt lat="49.82974" lon="2.13538">
        <ele>123</ele>
        <time>2023-02-22T15:06:42Z</time>
      </trkpt>
      <trkpt lat="49.82973" lon="2.13537">
        <ele>123</ele>
        <time>2023-02-22T15:06:43Z</time>
      </trkpt>
      <trkpt lat="49.82973" lon="2.13535">
        <ele>123</ele>
        <time>2023-02-22T15:06:44Z</time>
      </trkpt>
      <trkpt lat="49.82972" lon="2.13533">
        <ele>123</ele>
        <time>2023-02-22T15:06:45Z</time>
      </trkpt>
      <trkpt lat="49.82971" lon="2.1353">
        <ele>123</ele>
        <time>2023-02-22T15:06:46Z</time>
      </trkpt>
      <trkpt lat="49.82971" lon="2.13529">
        <ele>123</ele>
        <time>2023-02-22T15:06:48Z</time>
      </trkpt>
      <trkpt lat="49.8297" lon="2.13527">
        <ele>123</ele>
        <time>2023-02-22T15:06:49Z</time>
      </trkpt>
      <trkpt lat="49.8297" lon="2.13525">
        <ele>123</ele>
        <time>2023-02-22T15:06:50Z</time>
      </trkpt>
      <trkpt lat="49.82969" lon="2.13522">
        <ele>123.1</ele>
        <time>2023-02-22T15:06:51Z</time>
      </trkpt>
      <trkpt lat="49.82969" lon="2.13521">
        <ele>123.1</ele>
        <time>2023-02-22T15:06:52Z</time>
      </trkpt>
      <trkpt lat="49.82968" lon="2.13518">
        <ele>123.1</ele>
        <time>2023-02-22T15:06:53Z</time>
      </trkpt>
      <trkpt lat="49.82968" lon="2.13517">
        <ele>123.1</ele>
        <time>2023-02-22T15:06:54Z</time>
      </trkpt>
      <trkpt lat="49.82968" lon="2.13515">
        <ele>123.1</ele>
        <time>2023-02-22T15:06:55Z</time>
      </trkpt>
      <trkpt lat="49.82967" lon="2.13513">
        <ele>123.1</ele>
        <time>2023-02-22T15:06:56Z</time>
      </trkpt>
      <trkpt lat="49.82967" lon="2.13511">
        <ele>123.1</ele>
        <time>2023-02-22T15:06:57Z</time>
      </trkpt>
      <trkpt lat="49.82967" lon="2.13509">
        <ele>123.1</ele>
        <time>2023-02-22T15:06:59Z</time>
      </trkpt>
      <trkpt lat="49.82966" lon="2.13507">
        <ele>123.1</ele>
        <time>2023-02-22T15:07:00Z</time>
      </trkpt>
      <trkpt lat="49.82966" lon="2.13506">
        <ele>123.1</ele>
        <time>2023-02-22T15:07:01Z</time>
      </trkpt>
      <trkpt lat="49.82966" lon="2.13505">
        <ele>123.1</ele>
        <time>2023-02-22T15:07:02Z</time>
      </trkpt>
      <trkpt lat="49.82965" lon="2.13504">
        <ele>123.1</ele>
        <time>2023-02-22T15:07:03Z</time>
      </trkpt>
      <trkpt lat="49.82965" lon="2.13502">
        <ele>123.1</ele>
        <time>2023-02-22T15:07:04Z</time>
      </trkpt>
      <trkpt lat="49.82964" lon="2.135">
        <ele>123.1</ele>
        <time>2023-02-22T15:07:05Z</time>
      </trkpt>
      <trkpt lat="49.82964" lon="2.13497">
        <ele>123.1</ele>
        <time>2023-02-22T15:07:06Z</time>
      </trkpt>
      <trkpt lat="49.82964" lon="2.13496">
        <ele>123.1</ele>
        <time>2023-02-22T15:07:07Z</time>
      </trkpt>
      <trkpt lat="49.82964" lon="2.13494">
        <ele>123.1</ele>
        <time>2023-02-22T15:07:08Z</time>
      </trkpt>
      <trkpt lat="49.82963" lon="2.13493">
        <ele>123.1</ele>
        <time>2023-02-22T15:07:10Z</time>
      </trkpt>
      <trkpt lat="49.82963" lon="2.13491">
        <ele>123.1</ele>
        <time>2023-02-22T15:07:11Z</time>
      </trkpt>
      <trkpt lat="49.82962" lon="2.13489">
        <ele>123.1</ele>
        <time>2023-02-22T15:07:12Z</time>
      </trkpt>
      <trkpt lat="49.82962" lon="2.13486">
        <ele>123.1</ele>
        <time>2023-02-22T15:07:13Z</time>
      </trkpt>
      <trkpt lat="49.82961" lon="2.13483">
        <ele>123.1</ele>
        <time>2023-02-22T15:07:14Z</time>
      </trkpt>
      <trkpt lat="49.82961" lon="2.13481">
        <ele>123.1</ele>
        <time>2023-02-22T15:07:16Z</time>
      </trkpt>
      <trkpt lat="49.8296" lon="2.1348">
        <ele>123.1</ele>
        <time>2023-02-22T15:07:17Z</time>
      </trkpt>
      <trkpt lat="49.8296" lon="2.13479">
        <ele>123.1</ele>
        <time>2023-02-22T15:07:18Z</time>
      </trkpt>
      <trkpt lat="49.82959" lon="2.13477">
        <ele>123.1</ele>
        <time>2023-02-22T15:07:19Z</time>
      </trkpt>
      <trkpt lat="49.82959" lon="2.13475">
        <ele>123.2</ele>
        <time>2023-02-22T15:07:21Z</time>
      </trkpt>
      <trkpt lat="49.82958" lon="2.13473">
        <ele>123.2</ele>
        <time>2023-02-22T15:07:22Z</time>
      </trkpt>
      <trkpt lat="49.82958" lon="2.13471">
        <ele>123.2</ele>
        <time>2023-02-22T15:07:23Z</time>
      </trkpt>
      <trkpt lat="49.82957" lon="2.13469">
        <ele>123.2</ele>
        <time>2023-02-22T15:07:24Z</time>
      </trkpt>
      <trkpt lat="49.82957" lon="2.13468">
        <ele>123.2</ele>
        <time>2023-02-22T15:07:25Z</time>
      </trkpt>
      <trkpt lat="49.82956" lon="2.13465">
        <ele>123.2</ele>
        <time>2023-02-22T15:07:26Z</time>
      </trkpt>
      <trkpt lat="49.82956" lon="2.13464">
        <ele>123.2</ele>
        <time>2023-02-22T15:07:27Z</time>
      </trkpt>
      <trkpt lat="49.82956" lon="2.13462">
        <ele>123.2</ele>
        <time>2023-02-22T15:07:29Z</time>
      </trkpt>
      <trkpt lat="49.82955" lon="2.13461">
        <ele>123.2</ele>
        <time>2023-02-22T15:07:30Z</time>
      </trkpt>
      <trkpt lat="49.82955" lon="2.13459">
        <ele>123.2</ele>
        <time>2023-02-22T15:07:31Z</time>
      </trkpt>
      <trkpt lat="49.82955" lon="2.13456">
        <ele>123.2</ele>
        <time>2023-02-22T15:07:32Z</time>
      </trkpt>
      <trkpt lat="49.82954" lon="2.13455">
        <ele>123.2</ele>
        <time>2023-02-22T15:07:33Z</time>
      </trkpt>
      <trkpt lat="49.82954" lon="2.13453">
        <ele>123.2</ele>
        <time>2023-02-22T15:07:34Z</time>
      </trkpt>
      <trkpt lat="49.82954" lon="2.13451">
        <ele>123.2</ele>
        <time>2023-02-22T15:07:35Z</time>
      </trkpt>
      <trkpt lat="49.82953" lon="2.13449">
        <ele>123.3</ele>
        <time>2023-02-22T15:07:36Z</time>
      </trkpt>
      <trkpt lat="49.82953" lon="2.13446">
        <ele>123.3</ele>
        <time>2023-02-22T15:07:38Z</time>
      </trkpt>
      <trkpt lat="49.82952" lon="2.13442">
        <ele>123.3</ele>
        <time>2023-02-22T15:07:39Z</time>
      </trkpt>
      <trkpt lat="49.82951" lon="2.1344">
        <ele>123.3</ele>
        <time>2023-02-22T15:07:41Z</time>
      </trkpt>
      <trkpt lat="49.82951" lon="2.13438">
        <ele>123.3</ele>
        <time>2023-02-22T15:07:42Z</time>
      </trkpt>
      <trkpt lat="49.82951" lon="2.13436">
        <ele>123.3</ele>
        <time>2023-02-22T15:07:44Z</time>
      </trkpt>
      <trkpt lat="49.8295" lon="2.13434">
        <ele>123.3</ele>
        <time>2023-02-22T15:07:45Z</time>
      </trkpt>
      <trkpt lat="49.8295" lon="2.13432">
        <ele>123.3</ele>
        <time>2023-02-22T15:07:46Z</time>
      </trkpt>
      <trkpt lat="49.8295" lon="2.1343">
        <ele>123.3</ele>
        <time>2023-02-22T15:07:47Z</time>
      </trkpt>
      <trkpt lat="49.82949" lon="2.13428">
        <ele>123.3</ele>
        <time>2023-02-22T15:07:48Z</time>
      </trkpt>
      <trkpt lat="49.82949" lon="2.13426">
        <ele>123.4</ele>
        <time>2023-02-22T15:07:49Z</time>
      </trkpt>
      <trkpt lat="49.82948" lon="2.13425">
        <ele>123.4</ele>
        <time>2023-02-22T15:07:50Z</time>
      </trkpt>
      <trkpt lat="49.82948" lon="2.13422">
        <ele>123.4</ele>
        <time>2023-02-22T15:07:51Z</time>
      </trkpt>
      <trkpt lat="49.82947" lon="2.13421">
        <ele>123.4</ele>
        <time>2023-02-22T15:07:52Z</time>
      </trkpt>
      <trkpt lat="49.82947" lon="2.13419">
        <ele>123.4</ele>
        <time>2023-02-22T15:07:54Z</time>
      </trkpt>
      <trkpt lat="49.82946" lon="2.13417">
        <ele>123.4</ele>
        <time>2023-02-22T15:07:55Z</time>
      </trkpt>
      <trkpt lat="49.82946" lon="2.13416">
        <ele>123.4</ele>
        <time>2023-02-22T15:07:56Z</time>
      </trkpt>
      <trkpt lat="49.82945" lon="2.13413">
        <ele>123.4</ele>
        <time>2023-02-22T15:07:57Z</time>
      </trkpt>
      <trkpt lat="49.82945" lon="2.13411">
        <ele>123.4</ele>
        <time>2023-02-22T15:07:58Z</time>
      </trkpt>
      <trkpt lat="49.82945" lon="2.1341">
        <ele>123.4</ele>
        <time>2023-02-22T15:08:00Z</time>
      </trkpt>
      <trkpt lat="49.82944" lon="2.13408">
        <ele>123.4</ele>
        <time>2023-02-22T15:08:01Z</time>
      </trkpt>
      <trkpt lat="49.82944" lon="2.13405">
        <ele>123.4</ele>
        <time>2023-02-22T15:08:02Z</time>
      </trkpt>
      <trkpt lat="49.82944" lon="2.13404">
        <ele>123.4</ele>
        <time>2023-02-22T15:08:03Z</time>
      </trkpt>
      <trkpt lat="49.82943" lon="2.13403">
        <ele>123.4</ele>
        <time>2023-02-22T15:08:04Z</time>
      </trkpt>
      <trkpt lat="49.82943" lon="2.134">
        <ele>123.4</ele>
        <time>2023-02-22T15:08:05Z</time>
      </trkpt>
      <trkpt lat="49.82943" lon="2.13398">
        <ele>123.4</ele>
        <time>2023-02-22T15:08:06Z</time>
      </trkpt>
      <trkpt lat="49.82943" lon="2.13397">
        <ele>123.4</ele>
        <time>2023-02-22T15:08:07Z</time>
      </trkpt>
      <trkpt lat="49.82942" lon="2.13394">
        <ele>123.4</ele>
        <time>2023-02-22T15:08:08Z</time>
      </trkpt>
      <trkpt lat="49.82942" lon="2.13393">
        <ele>123.4</ele>
        <time>2023-02-22T15:08:09Z</time>
      </trkpt>
      <trkpt lat="49.82941" lon="2.13392">
        <ele>123.4</ele>
        <time>2023-02-22T15:08:10Z</time>
      </trkpt>
      <trkpt lat="49.82941" lon="2.13388">
        <ele>123.4</ele>
        <time>2023-02-22T15:08:11Z</time>
      </trkpt>
      <trkpt lat="49.82941" lon="2.13387">
        <ele>123.4</ele>
        <time>2023-02-22T15:08:13Z</time>
      </trkpt>
      <trkpt lat="49.8294" lon="2.13386">
        <ele>123.4</ele>
        <time>2023-02-22T15:08:14Z</time>
      </trkpt>
      <trkpt lat="49.8294" lon="2.13384">
        <ele>123.4</ele>
        <time>2023-02-22T15:08:15Z</time>
      </trkpt>
      <trkpt lat="49.8294" lon="2.13382">
        <ele>123.4</ele>
        <time>2023-02-22T15:08:16Z</time>
      </trkpt>
      <trkpt lat="49.8294" lon="2.1338">
        <ele>123.4</ele>
        <time>2023-02-22T15:08:17Z</time>
      </trkpt>
      <trkpt lat="49.82939" lon="2.13378">
        <ele>123.4</ele>
        <time>2023-02-22T15:08:19Z</time>
      </trkpt>
      <trkpt lat="49.82939" lon="2.13376">
        <ele>123.4</ele>
        <time>2023-02-22T15:08:20Z</time>
      </trkpt>
      <trkpt lat="49.82938" lon="2.13374">
        <ele>123.4</ele>
        <time>2023-02-22T15:08:21Z</time>
      </trkpt>
      <trkpt lat="49.82938" lon="2.13371">
        <ele>123.4</ele>
        <time>2023-02-22T15:08:22Z</time>
      </trkpt>
      <trkpt lat="49.82937" lon="2.13369">
        <ele>123.4</ele>
        <time>2023-02-22T15:08:23Z</time>
      </trkpt>
      <trkpt lat="49.82937" lon="2.13368">
        <ele>123.4</ele>
        <time>2023-02-22T15:08:25Z</time>
      </trkpt>
      <trkpt lat="49.82936" lon="2.13367">
        <ele>123.4</ele>
        <time>2023-02-22T15:08:26Z</time>
      </trkpt>
      <trkpt lat="49.82935" lon="2.13364">
        <ele>123.5</ele>
        <time>2023-02-22T15:08:27Z</time>
      </trkpt>
      <trkpt lat="49.82934" lon="2.13363">
        <ele>123.5</ele>
        <time>2023-02-22T15:08:28Z</time>
      </trkpt>
      <trkpt lat="49.82934" lon="2.13362">
        <ele>123.5</ele>
        <time>2023-02-22T15:08:29Z</time>
      </trkpt>
      <trkpt lat="49.82933" lon="2.13359">
        <ele>123.5</ele>
        <time>2023-02-22T15:08:30Z</time>
      </trkpt>
      <trkpt lat="49.82933" lon="2.13357">
        <ele>123.5</ele>
        <time>2023-02-22T15:08:31Z</time>
      </trkpt>
      <trkpt lat="49.82932" lon="2.13356">
        <ele>123.5</ele>
        <time>2023-02-22T15:08:32Z</time>
      </trkpt>
      <trkpt lat="49.82932" lon="2.13353">
        <ele>123.5</ele>
        <time>2023-02-22T15:08:34Z</time>
      </trkpt>
      <trkpt lat="49.82931" lon="2.13352">
        <ele>123.5</ele>
        <time>2023-02-22T15:08:35Z</time>
      </trkpt>
      <trkpt lat="49.82931" lon="2.1335">
        <ele>123.5</ele>
        <time>2023-02-22T15:08:36Z</time>
      </trkpt>
      <trkpt lat="49.82931" lon="2.13348">
        <ele>123.5</ele>
        <time>2023-02-22T15:08:37Z</time>
      </trkpt>
      <trkpt lat="49.82931" lon="2.13345">
        <ele>123.5</ele>
        <time>2023-02-22T15:08:39Z</time>
      </trkpt>
      <trkpt lat="49.8293" lon="2.13343">
        <ele>123.5</ele>
        <time>2023-02-22T15:08:40Z</time>
      </trkpt>
      <trkpt lat="49.8293" lon="2.13341">
        <ele>123.5</ele>
        <time>2023-02-22T15:08:41Z</time>
      </trkpt>
      <trkpt lat="49.82929" lon="2.13338">
        <ele>123.5</ele>
        <time>2023-02-22T15:08:42Z</time>
      </trkpt>
      <trkpt lat="49.82929" lon="2.13337">
        <ele>123.5</ele>
        <time>2023-02-22T15:08:44Z</time>
      </trkpt>
      <trkpt lat="49.82929" lon="2.13336">
        <ele>123.5</ele>
        <time>2023-02-22T15:08:45Z</time>
      </trkpt>
      <trkpt lat="49.82928" lon="2.13334">
        <ele>123.5</ele>
        <time>2023-02-22T15:08:46Z</time>
      </trkpt>
      <trkpt lat="49.82928" lon="2.13331">
        <ele>123.5</ele>
        <time>2023-02-22T15:08:47Z</time>
      </trkpt>
      <trkpt lat="49.82927" lon="2.13328">
        <ele>123.6</ele>
        <time>2023-02-22T15:08:48Z</time>
      </trkpt>
      <trkpt lat="49.82927" lon="2.13326">
        <ele>123.6</ele>
        <time>2023-02-22T15:08:49Z</time>
      </trkpt>
      <trkpt lat="49.82926" lon="2.13325">
        <ele>123.6</ele>
        <time>2023-02-22T15:08:51Z</time>
      </trkpt>
      <trkpt lat="49.82926" lon="2.13323">
        <ele>123.6</ele>
        <time>2023-02-22T15:08:53Z</time>
      </trkpt>
      <trkpt lat="49.82925" lon="2.13321">
        <ele>123.6</ele>
        <time>2023-02-22T15:08:54Z</time>
      </trkpt>
      <trkpt lat="49.82925" lon="2.13318">
        <ele>123.6</ele>
        <time>2023-02-22T15:08:55Z</time>
      </trkpt>
      <trkpt lat="49.82924" lon="2.13317">
        <ele>123.6</ele>
        <time>2023-02-22T15:08:56Z</time>
      </trkpt>
      <trkpt lat="49.82924" lon="2.13315">
        <ele>123.6</ele>
        <time>2023-02-22T15:08:57Z</time>
      </trkpt>
      <trkpt lat="49.82923" lon="2.13312">
        <ele>123.6</ele>
        <time>2023-02-22T15:08:58Z</time>
      </trkpt>
      <trkpt lat="49.82923" lon="2.1331">
        <ele>123.6</ele>
        <time>2023-02-22T15:08:59Z</time>
      </trkpt>
      <trkpt lat="49.82922" lon="2.13309">
        <ele>123.6</ele>
        <time>2023-02-22T15:09:01Z</time>
      </trkpt>
      <trkpt lat="49.82922" lon="2.13307">
        <ele>123.6</ele>
        <time>2023-02-22T15:09:02Z</time>
      </trkpt>
      <trkpt lat="49.82922" lon="2.13306">
        <ele>123.6</ele>
        <time>2023-02-22T15:09:03Z</time>
      </trkpt>
      <trkpt lat="49.82921" lon="2.13304">
        <ele>123.6</ele>
        <time>2023-02-22T15:09:04Z</time>
      </trkpt>
      <trkpt lat="49.82921" lon="2.13302">
        <ele>123.6</ele>
        <time>2023-02-22T15:09:05Z</time>
      </trkpt>
      <trkpt lat="49.8292" lon="2.133">
        <ele>123.6</ele>
        <time>2023-02-22T15:09:06Z</time>
      </trkpt>
      <trkpt lat="49.8292" lon="2.13299">
        <ele>123.6</ele>
        <time>2023-02-22T15:09:07Z</time>
      </trkpt>
      <trkpt lat="49.8292" lon="2.13297">
        <ele>123.6</ele>
        <time>2023-02-22T15:09:08Z</time>
      </trkpt>
      <trkpt lat="49.82919" lon="2.13296">
        <ele>123.6</ele>
        <time>2023-02-22T15:09:09Z</time>
      </trkpt>
      <trkpt lat="49.82919" lon="2.13294">
        <ele>123.6</ele>
        <time>2023-02-22T15:09:10Z</time>
      </trkpt>
      <trkpt lat="49.82919" lon="2.13292">
        <ele>123.6</ele>
        <time>2023-02-22T15:09:12Z</time>
      </trkpt>
      <trkpt lat="49.82918" lon="2.1329">
        <ele>123.6</ele>
        <time>2023-02-22T15:09:13Z</time>
      </trkpt>
      <trkpt lat="49.82918" lon="2.13288">
        <ele>123.6</ele>
        <time>2023-02-22T15:09:14Z</time>
      </trkpt>
      <trkpt lat="49.82918" lon="2.13286">
        <ele>123.6</ele>
        <time>2023-02-22T15:09:15Z</time>
      </trkpt>
      <trkpt lat="49.82917" lon="2.13284">
        <ele>123.6</ele>
        <time>2023-02-22T15:09:16Z</time>
      </trkpt>
      <trkpt lat="49.82917" lon="2.13281">
        <ele>123.6</ele>
        <time>2023-02-22T15:09:17Z</time>
      </trkpt>
      <trkpt lat="49.82917" lon="2.1328">
        <ele>123.6</ele>
        <time>2023-02-22T15:09:18Z</time>
      </trkpt>
      <trkpt lat="49.82917" lon="2.13279">
        <ele>123.6</ele>
        <time>2023-02-22T15:09:19Z</time>
      </trkpt>
      <trkpt lat="49.82916" lon="2.13275">
        <ele>123.6</ele>
        <time>2023-02-22T15:09:20Z</time>
      </trkpt>
      <trkpt lat="49.82916" lon="2.13274">
        <ele>123.6</ele>
        <time>2023-02-22T15:09:21Z</time>
      </trkpt>
      <trkpt lat="49.82916" lon="2.13272">
        <ele>123.6</ele>
        <time>2023-02-22T15:09:22Z</time>
      </trkpt>
      <trkpt lat="49.82915" lon="2.13269">
        <ele>123.6</ele>
        <time>2023-02-22T15:09:23Z</time>
      </trkpt>
      <trkpt lat="49.82915" lon="2.13268">
        <ele>123.6</ele>
        <time>2023-02-22T15:09:25Z</time>
      </trkpt>
      <trkpt lat="49.82915" lon="2.13266">
        <ele>123.6</ele>
        <time>2023-02-22T15:09:26Z</time>
      </trkpt>
      <trkpt lat="49.82914" lon="2.13264">
        <ele>123.6</ele>
        <time>2023-02-22T15:09:27Z</time>
      </trkpt>
      <trkpt lat="49.82914" lon="2.13262">
        <ele>123.6</ele>
        <time>2023-02-22T15:09:28Z</time>
      </trkpt>
      <trkpt lat="49.82913" lon="2.13259">
        <ele>123.6</ele>
        <time>2023-02-22T15:09:29Z</time>
      </trkpt>
      <trkpt lat="49.82912" lon="2.13258">
        <ele>123.6</ele>
        <time>2023-02-22T15:09:30Z</time>
      </trkpt>
      <trkpt lat="49.82912" lon="2.13257">
        <ele>123.6</ele>
        <time>2023-02-22T15:09:31Z</time>
      </trkpt>
      <trkpt lat="49.82911" lon="2.13255">
        <ele>123.6</ele>
        <time>2023-02-22T15:09:33Z</time>
      </trkpt>
      <trkpt lat="49.82911" lon="2.13253">
        <ele>123.6</ele>
        <time>2023-02-22T15:09:34Z</time>
      </trkpt>
      <trkpt lat="49.8291" lon="2.13251">
        <ele>123.6</ele>
        <time>2023-02-22T15:09:35Z</time>
      </trkpt>
      <trkpt lat="49.8291" lon="2.13249">
        <ele>123.6</ele>
        <time>2023-02-22T15:09:36Z</time>
      </trkpt>
      <trkpt lat="49.82909" lon="2.13246">
        <ele>123.6</ele>
        <time>2023-02-22T15:09:37Z</time>
      </trkpt>
      <trkpt lat="49.82909" lon="2.13245">
        <ele>123.6</ele>
        <time>2023-02-22T15:09:39Z</time>
      </trkpt>
      <trkpt lat="49.82908" lon="2.13243">
        <ele>123.6</ele>
        <time>2023-02-22T15:09:40Z</time>
      </trkpt>
      <trkpt lat="49.82907" lon="2.13241">
        <ele>123.6</ele>
        <time>2023-02-22T15:09:41Z</time>
      </trkpt>
      <trkpt lat="49.82907" lon="2.13238">
        <ele>123.6</ele>
        <time>2023-02-22T15:09:42Z</time>
      </trkpt>
      <trkpt lat="49.82907" lon="2.13237">
        <ele>123.6</ele>
        <time>2023-02-22T15:09:43Z</time>
      </trkpt>
      <trkpt lat="49.82906" lon="2.13235">
        <ele>123.6</ele>
        <time>2023-02-22T15:09:44Z</time>
      </trkpt>
      <trkpt lat="49.82906" lon="2.13233">
        <ele>123.6</ele>
        <time>2023-02-22T15:09:45Z</time>
      </trkpt>
      <trkpt lat="49.82906" lon="2.13231">
        <ele>123.6</ele>
        <time>2023-02-22T15:09:46Z</time>
      </trkpt>
      <trkpt lat="49.82905" lon="2.13228">
        <ele>123.6</ele>
        <time>2023-02-22T15:09:48Z</time>
      </trkpt>
      <trkpt lat="49.82905" lon="2.13227">
        <ele>123.6</ele>
        <time>2023-02-22T15:09:49Z</time>
      </trkpt>
      <trkpt lat="49.82905" lon="2.13226">
        <ele>123.6</ele>
        <time>2023-02-22T15:09:50Z</time>
      </trkpt>
      <trkpt lat="49.82905" lon="2.13224">
        <ele>123.6</ele>
        <time>2023-02-22T15:09:51Z</time>
      </trkpt>
      <trkpt lat="49.82905" lon="2.13221">
        <ele>123.6</ele>
        <time>2023-02-22T15:09:53Z</time>
      </trkpt>
      <trkpt lat="49.82904" lon="2.1322">
        <ele>123.6</ele>
        <time>2023-02-22T15:09:54Z</time>
      </trkpt>
      <trkpt lat="49.82904" lon="2.13218">
        <ele>123.6</ele>
        <time>2023-02-22T15:09:55Z</time>
      </trkpt>
      <trkpt lat="49.82903" lon="2.13217">
        <ele>123.6</ele>
        <time>2023-02-22T15:09:56Z</time>
      </trkpt>
      <trkpt lat="49.82903" lon="2.13215">
        <ele>123.6</ele>
        <time>2023-02-22T15:09:57Z</time>
      </trkpt>
      <trkpt lat="49.82902" lon="2.13212">
        <ele>123.6</ele>
        <time>2023-02-22T15:09:58Z</time>
      </trkpt>
      <trkpt lat="49.82902" lon="2.1321">
        <ele>123.6</ele>
        <time>2023-02-22T15:10:00Z</time>
      </trkpt>
      <trkpt lat="49.82902" lon="2.13209">
        <ele>123.6</ele>
        <time>2023-02-22T15:10:01Z</time>
      </trkpt>
      <trkpt lat="49.82902" lon="2.13207">
        <ele>123.6</ele>
        <time>2023-02-22T15:10:02Z</time>
      </trkpt>
      <trkpt lat="49.82901" lon="2.13204">
        <ele>123.7</ele>
        <time>2023-02-22T15:10:03Z</time>
      </trkpt>
      <trkpt lat="49.829" lon="2.13203">
        <ele>123.7</ele>
        <time>2023-02-22T15:10:04Z</time>
      </trkpt>
      <trkpt lat="49.829" lon="2.13201">
        <ele>123.7</ele>
        <time>2023-02-22T15:10:05Z</time>
      </trkpt>
      <trkpt lat="49.82899" lon="2.13199">
        <ele>123.7</ele>
        <time>2023-02-22T15:10:06Z</time>
      </trkpt>
      <trkpt lat="49.82898" lon="2.13197">
        <ele>123.7</ele>
        <time>2023-02-22T15:10:07Z</time>
      </trkpt>
      <trkpt lat="49.82897" lon="2.13195">
        <ele>123.7</ele>
        <time>2023-02-22T15:10:08Z</time>
      </trkpt>
      <trkpt lat="49.82897" lon="2.13193">
        <ele>123.7</ele>
        <time>2023-02-22T15:10:09Z</time>
      </trkpt>
      <trkpt lat="49.82897" lon="2.13192">
        <ele>123.7</ele>
        <time>2023-02-22T15:10:10Z</time>
      </trkpt>
      <trkpt lat="49.82896" lon="2.1319">
        <ele>123.7</ele>
        <time>2023-02-22T15:10:11Z</time>
      </trkpt>
      <trkpt lat="49.82896" lon="2.13188">
        <ele>123.7</ele>
        <time>2023-02-22T15:10:12Z</time>
      </trkpt>
      <trkpt lat="49.82895" lon="2.13186">
        <ele>123.7</ele>
        <time>2023-02-22T15:10:14Z</time>
      </trkpt>
      <trkpt lat="49.82895" lon="2.13183">
        <ele>123.7</ele>
        <time>2023-02-22T15:10:15Z</time>
      </trkpt>
      <trkpt lat="49.82895" lon="2.13181">
        <ele>123.7</ele>
        <time>2023-02-22T15:10:17Z</time>
      </trkpt>
      <trkpt lat="49.82894" lon="2.13178">
        <ele>123.7</ele>
        <time>2023-02-22T15:10:18Z</time>
      </trkpt>
      <trkpt lat="49.82894" lon="2.13176">
        <ele>123.7</ele>
        <time>2023-02-22T15:10:19Z</time>
      </trkpt>
      <trkpt lat="49.82893" lon="2.13173">
        <ele>123.7</ele>
        <time>2023-02-22T15:10:20Z</time>
      </trkpt>
      <trkpt lat="49.82893" lon="2.13171">
        <ele>123.7</ele>
        <time>2023-02-22T15:10:21Z</time>
      </trkpt>
      <trkpt lat="49.82893" lon="2.1317">
        <ele>123.7</ele>
        <time>2023-02-22T15:10:22Z</time>
      </trkpt>
      <trkpt lat="49.82892" lon="2.13168">
        <ele>123.7</ele>
        <time>2023-02-22T15:10:23Z</time>
      </trkpt>
      <trkpt lat="49.82892" lon="2.13166">
        <ele>123.7</ele>
        <time>2023-02-22T15:10:24Z</time>
      </trkpt>
      <trkpt lat="49.82892" lon="2.13165">
        <ele>123.7</ele>
        <time>2023-02-22T15:10:26Z</time>
      </trkpt>
      <trkpt lat="49.82891" lon="2.13163">
        <ele>123.7</ele>
        <time>2023-02-22T15:10:27Z</time>
      </trkpt>
      <trkpt lat="49.82891" lon="2.13161">
        <ele>123.7</ele>
        <time>2023-02-22T15:10:28Z</time>
      </trkpt>
      <trkpt lat="49.8289" lon="2.13158">
        <ele>123.7</ele>
        <time>2023-02-22T15:10:29Z</time>
      </trkpt>
      <trkpt lat="49.8289" lon="2.13157">
        <ele>123.7</ele>
        <time>2023-02-22T15:10:30Z</time>
      </trkpt>
      <trkpt lat="49.82889" lon="2.13156">
        <ele>123.7</ele>
        <time>2023-02-22T15:10:31Z</time>
      </trkpt>
      <trkpt lat="49.82889" lon="2.13154">
        <ele>123.7</ele>
        <time>2023-02-22T15:10:32Z</time>
      </trkpt>
      <trkpt lat="49.82888" lon="2.13152">
        <ele>123.7</ele>
        <time>2023-02-22T15:10:33Z</time>
      </trkpt>
      <trkpt lat="49.82888" lon="2.13151">
        <ele>123.7</ele>
        <time>2023-02-22T15:10:34Z</time>
      </trkpt>
      <trkpt lat="49.82887" lon="2.13149">
        <ele>123.7</ele>
        <time>2023-02-22T15:10:35Z</time>
      </trkpt>
      <trkpt lat="49.82887" lon="2.13147">
        <ele>123.7</ele>
        <time>2023-02-22T15:10:36Z</time>
      </trkpt>
      <trkpt lat="49.82886" lon="2.13145">
        <ele>123.7</ele>
        <time>2023-02-22T15:10:37Z</time>
      </trkpt>
      <trkpt lat="49.82886" lon="2.13144">
        <ele>123.7</ele>
        <time>2023-02-22T15:10:38Z</time>
      </trkpt>
      <trkpt lat="49.82885" lon="2.13142">
        <ele>123.7</ele>
        <time>2023-02-22T15:10:40Z</time>
      </trkpt>
      <trkpt lat="49.82885" lon="2.1314">
        <ele>123.7</ele>
        <time>2023-02-22T15:10:41Z</time>
      </trkpt>
      <trkpt lat="49.82885" lon="2.13139">
        <ele>123.7</ele>
        <time>2023-02-22T15:10:42Z</time>
      </trkpt>
      <trkpt lat="49.82884" lon="2.13137">
        <ele>123.7</ele>
        <time>2023-02-22T15:10:43Z</time>
      </trkpt>
      <trkpt lat="49.82883" lon="2.13135">
        <ele>123.7</ele>
        <time>2023-02-22T15:10:44Z</time>
      </trkpt>
      <trkpt lat="49.82882" lon="2.13131">
        <ele>123.7</ele>
        <time>2023-02-22T15:10:45Z</time>
      </trkpt>
      <trkpt lat="49.82882" lon="2.13129">
        <ele>123.7</ele>
        <time>2023-02-22T15:10:47Z</time>
      </trkpt>
      <trkpt lat="49.82882" lon="2.13128">
        <ele>123.7</ele>
        <time>2023-02-22T15:10:48Z</time>
      </trkpt>
      <trkpt lat="49.82881" lon="2.13126">
        <ele>123.7</ele>
        <time>2023-02-22T15:10:49Z</time>
      </trkpt>
      <trkpt lat="49.82881" lon="2.13125">
        <ele>123.7</ele>
        <time>2023-02-22T15:10:50Z</time>
      </trkpt>
      <trkpt lat="49.8288" lon="2.13122">
        <ele>123.7</ele>
        <time>2023-02-22T15:10:51Z</time>
      </trkpt>
      <trkpt lat="49.8288" lon="2.13121">
        <ele>123.7</ele>
        <time>2023-02-22T15:10:52Z</time>
      </trkpt>
      <trkpt lat="49.8288" lon="2.13119">
        <ele>123.7</ele>
        <time>2023-02-22T15:10:53Z</time>
      </trkpt>
      <trkpt lat="49.8288" lon="2.13118">
        <ele>123.6</ele>
        <time>2023-02-22T15:10:55Z</time>
      </trkpt>
      <trkpt lat="49.82879" lon="2.13116">
        <ele>123.6</ele>
        <time>2023-02-22T15:10:56Z</time>
      </trkpt>
      <trkpt lat="49.82879" lon="2.13114">
        <ele>123.6</ele>
        <time>2023-02-22T15:10:57Z</time>
      </trkpt>
      <trkpt lat="49.82879" lon="2.13112">
        <ele>123.6</ele>
        <time>2023-02-22T15:10:58Z</time>
      </trkpt>
      <trkpt lat="49.82879" lon="2.1311">
        <ele>123.6</ele>
        <time>2023-02-22T15:10:59Z</time>
      </trkpt>
      <trkpt lat="49.82878" lon="2.13108">
        <ele>123.6</ele>
        <time>2023-02-22T15:11:00Z</time>
      </trkpt>
      <trkpt lat="49.82878" lon="2.13106">
        <ele>123.6</ele>
        <time>2023-02-22T15:11:01Z</time>
      </trkpt>
      <trkpt lat="49.82877" lon="2.13104">
        <ele>123.6</ele>
        <time>2023-02-22T15:11:02Z</time>
      </trkpt>
      <trkpt lat="49.82877" lon="2.13101">
        <ele>123.6</ele>
        <time>2023-02-22T15:11:04Z</time>
      </trkpt>
      <trkpt lat="49.82877" lon="2.13099">
        <ele>123.6</ele>
        <time>2023-02-22T15:11:05Z</time>
      </trkpt>
      <trkpt lat="49.82876" lon="2.13097">
        <ele>123.6</ele>
        <time>2023-02-22T15:11:06Z</time>
      </trkpt>
      <trkpt lat="49.82875" lon="2.13095">
        <ele>123.6</ele>
        <time>2023-02-22T15:11:07Z</time>
      </trkpt>
      <trkpt lat="49.82875" lon="2.13093">
        <ele>123.6</ele>
        <time>2023-02-22T15:11:08Z</time>
      </trkpt>
      <trkpt lat="49.82875" lon="2.13091">
        <ele>123.6</ele>
        <time>2023-02-22T15:11:09Z</time>
      </trkpt>
      <trkpt lat="49.82874" lon="2.13088">
        <ele>123.5</ele>
        <time>2023-02-22T15:11:11Z</time>
      </trkpt>
      <trkpt lat="49.82874" lon="2.13086">
        <ele>123.5</ele>
        <time>2023-02-22T15:11:13Z</time>
      </trkpt>
      <trkpt lat="49.82874" lon="2.13084">
        <ele>123.5</ele>
        <time>2023-02-22T15:11:14Z</time>
      </trkpt>
      <trkpt lat="49.82873" lon="2.13081">
        <ele>123.5</ele>
        <time>2023-02-22T15:11:15Z</time>
      </trkpt>
      <trkpt lat="49.82873" lon="2.13079">
        <ele>123.5</ele>
        <time>2023-02-22T15:11:16Z</time>
      </trkpt>
      <trkpt lat="49.82873" lon="2.13077">
        <ele>123.5</ele>
        <time>2023-02-22T15:11:17Z</time>
      </trkpt>
      <trkpt lat="49.82872" lon="2.13075">
        <ele>123.5</ele>
        <time>2023-02-22T15:11:18Z</time>
      </trkpt>
      <trkpt lat="49.82871" lon="2.13072">
        <ele>123.5</ele>
        <time>2023-02-22T15:11:20Z</time>
      </trkpt>
      <trkpt lat="49.82871" lon="2.1307">
        <ele>123.5</ele>
        <time>2023-02-22T15:11:21Z</time>
      </trkpt>
      <trkpt lat="49.82871" lon="2.13069">
        <ele>123.5</ele>
        <time>2023-02-22T15:11:22Z</time>
      </trkpt>
      <trkpt lat="49.8287" lon="2.13067">
        <ele>123.5</ele>
        <time>2023-02-22T15:11:23Z</time>
      </trkpt>
      <trkpt lat="49.8287" lon="2.13065">
        <ele>123.5</ele>
        <time>2023-02-22T15:11:24Z</time>
      </trkpt>
      <trkpt lat="49.82869" lon="2.13062">
        <ele>123.5</ele>
        <time>2023-02-22T15:11:25Z</time>
      </trkpt>
      <trkpt lat="49.82868" lon="2.1306">
        <ele>123.5</ele>
        <time>2023-02-22T15:11:26Z</time>
      </trkpt>
      <trkpt lat="49.82868" lon="2.13059">
        <ele>123.5</ele>
        <time>2023-02-22T15:11:27Z</time>
      </trkpt>
      <trkpt lat="49.82867" lon="2.13057">
        <ele>123.5</ele>
        <time>2023-02-22T15:11:28Z</time>
      </trkpt>
      <trkpt lat="49.82867" lon="2.13055">
        <ele>123.5</ele>
        <time>2023-02-22T15:11:30Z</time>
      </trkpt>
      <trkpt lat="49.82867" lon="2.13053">
        <ele>123.5</ele>
        <time>2023-02-22T15:11:31Z</time>
      </trkpt>
      <trkpt lat="49.82866" lon="2.13051">
        <ele>123.5</ele>
        <time>2023-02-22T15:11:32Z</time>
      </trkpt>
      <trkpt lat="49.82865" lon="2.13049">
        <ele>123.5</ele>
        <time>2023-02-22T15:11:33Z</time>
      </trkpt>
      <trkpt lat="49.82865" lon="2.13047">
        <ele>123.5</ele>
        <time>2023-02-22T15:11:34Z</time>
      </trkpt>
      <trkpt lat="49.82864" lon="2.13045">
        <ele>123.5</ele>
        <time>2023-02-22T15:11:35Z</time>
      </trkpt>
      <trkpt lat="49.82864" lon="2.13044">
        <ele>123.5</ele>
        <time>2023-02-22T15:11:36Z</time>
      </trkpt>
      <trkpt lat="49.82863" lon="2.13041">
        <ele>123.5</ele>
        <time>2023-02-22T15:11:38Z</time>
      </trkpt>
      <trkpt lat="49.82863" lon="2.13039">
        <ele>123.5</ele>
        <time>2023-02-22T15:11:39Z</time>
      </trkpt>
      <trkpt lat="49.82863" lon="2.13037">
        <ele>123.6</ele>
        <time>2023-02-22T15:11:40Z</time>
      </trkpt>
      <trkpt lat="49.82862" lon="2.13035">
        <ele>123.6</ele>
        <time>2023-02-22T15:11:41Z</time>
      </trkpt>
      <trkpt lat="49.82862" lon="2.13033">
        <ele>123.6</ele>
        <time>2023-02-22T15:11:42Z</time>
      </trkpt>
      <trkpt lat="49.82861" lon="2.13031">
        <ele>123.6</ele>
        <time>2023-02-22T15:11:43Z</time>
      </trkpt>
      <trkpt lat="49.82861" lon="2.1303">
        <ele>123.6</ele>
        <time>2023-02-22T15:11:44Z</time>
      </trkpt>
      <trkpt lat="49.82861" lon="2.13028">
        <ele>123.6</ele>
        <time>2023-02-22T15:11:45Z</time>
      </trkpt>
      <trkpt lat="49.8286" lon="2.13026">
        <ele>123.6</ele>
        <time>2023-02-22T15:11:46Z</time>
      </trkpt>
      <trkpt lat="49.8286" lon="2.13023">
        <ele>123.6</ele>
        <time>2023-02-22T15:11:48Z</time>
      </trkpt>
      <trkpt lat="49.8286" lon="2.13022">
        <ele>123.6</ele>
        <time>2023-02-22T15:11:49Z</time>
      </trkpt>
      <trkpt lat="49.8286" lon="2.13021">
        <ele>123.6</ele>
        <time>2023-02-22T15:11:50Z</time>
      </trkpt>
      <trkpt lat="49.8286" lon="2.13019">
        <ele>123.6</ele>
        <time>2023-02-22T15:11:51Z</time>
      </trkpt>
      <trkpt lat="49.82859" lon="2.13017">
        <ele>123.6</ele>
        <time>2023-02-22T15:11:52Z</time>
      </trkpt>
      <trkpt lat="49.82859" lon="2.13016">
        <ele>123.6</ele>
        <time>2023-02-22T15:11:53Z</time>
      </trkpt>
      <trkpt lat="49.82859" lon="2.13014">
        <ele>123.6</ele>
        <time>2023-02-22T15:11:54Z</time>
      </trkpt>
      <trkpt lat="49.82858" lon="2.13012">
        <ele>123.6</ele>
        <time>2023-02-22T15:11:55Z</time>
      </trkpt>
      <trkpt lat="49.82858" lon="2.1301">
        <ele>123.6</ele>
        <time>2023-02-22T15:11:56Z</time>
      </trkpt>
      <trkpt lat="49.82857" lon="2.13007">
        <ele>123.7</ele>
        <time>2023-02-22T15:11:58Z</time>
      </trkpt>
      <trkpt lat="49.82857" lon="2.13006">
        <ele>123.7</ele>
        <time>2023-02-22T15:11:59Z</time>
      </trkpt>
      <trkpt lat="49.82856" lon="2.13005">
        <ele>123.7</ele>
        <time>2023-02-22T15:12:00Z</time>
      </trkpt>
      <trkpt lat="49.82856" lon="2.13003">
        <ele>123.7</ele>
        <time>2023-02-22T15:12:01Z</time>
      </trkpt>
      <trkpt lat="49.82855" lon="2.13001">
        <ele>123.7</ele>
        <time>2023-02-22T15:12:02Z</time>
      </trkpt>
      <trkpt lat="49.82855" lon="2.12999">
        <ele>123.7</ele>
        <time>2023-02-22T15:12:03Z</time>
      </trkpt>
      <trkpt lat="49.82854" lon="2.12998">
        <ele>123.7</ele>
        <time>2023-02-22T15:12:05Z</time>
      </trkpt>
      <trkpt lat="49.82854" lon="2.12996">
        <ele>123.7</ele>
        <time>2023-02-22T15:12:06Z</time>
      </trkpt>
      <trkpt lat="49.82854" lon="2.12995">
        <ele>123.7</ele>
        <time>2023-02-22T15:12:07Z</time>
      </trkpt>
      <trkpt lat="49.82853" lon="2.12993">
        <ele>123.7</ele>
        <time>2023-02-22T15:12:08Z</time>
      </trkpt>
      <trkpt lat="49.82853" lon="2.12991">
        <ele>123.7</ele>
        <time>2023-02-22T15:12:09Z</time>
      </trkpt>
      <trkpt lat="49.82853" lon="2.12989">
        <ele>123.7</ele>
        <time>2023-02-22T15:12:10Z</time>
      </trkpt>
      <trkpt lat="49.82852" lon="2.12987">
        <ele>123.7</ele>
        <time>2023-02-22T15:12:11Z</time>
      </trkpt>
      <trkpt lat="49.82852" lon="2.12985">
        <ele>123.7</ele>
        <time>2023-02-22T15:12:13Z</time>
      </trkpt>
      <trkpt lat="49.82852" lon="2.12983">
        <ele>123.7</ele>
        <time>2023-02-22T15:12:14Z</time>
      </trkpt>
      <trkpt lat="49.82851" lon="2.12981">
        <ele>123.7</ele>
        <time>2023-02-22T15:12:15Z</time>
      </trkpt>
      <trkpt lat="49.82851" lon="2.12979">
        <ele>123.7</ele>
        <time>2023-02-22T15:12:16Z</time>
      </trkpt>
      <trkpt lat="49.82851" lon="2.12977">
        <ele>123.7</ele>
        <time>2023-02-22T15:12:17Z</time>
      </trkpt>
      <trkpt lat="49.8285" lon="2.12974">
        <ele>123.7</ele>
        <time>2023-02-22T15:12:18Z</time>
      </trkpt>
      <trkpt lat="49.8285" lon="2.12973">
        <ele>123.7</ele>
        <time>2023-02-22T15:12:20Z</time>
      </trkpt>
      <trkpt lat="49.8285" lon="2.12972">
        <ele>123.7</ele>
        <time>2023-02-22T15:12:21Z</time>
      </trkpt>
      <trkpt lat="49.82849" lon="2.12969">
        <ele>123.7</ele>
        <time>2023-02-22T15:12:22Z</time>
      </trkpt>
      <trkpt lat="49.82849" lon="2.12967">
        <ele>123.7</ele>
        <time>2023-02-22T15:12:23Z</time>
      </trkpt>
      <trkpt lat="49.82849" lon="2.12966">
        <ele>123.7</ele>
        <time>2023-02-22T15:12:24Z</time>
      </trkpt>
      <trkpt lat="49.82848" lon="2.12963">
        <ele>123.7</ele>
        <time>2023-02-22T15:12:25Z</time>
      </trkpt>
      <trkpt lat="49.82848" lon="2.12962">
        <ele>123.7</ele>
        <time>2023-02-22T15:12:26Z</time>
      </trkpt>
      <trkpt lat="49.82848" lon="2.1296">
        <ele>123.6</ele>
        <time>2023-02-22T15:12:27Z</time>
      </trkpt>
      <trkpt lat="49.82848" lon="2.12957">
        <ele>123.6</ele>
        <time>2023-02-22T15:12:29Z</time>
      </trkpt>
      <trkpt lat="49.82847" lon="2.12956">
        <ele>123.6</ele>
        <time>2023-02-22T15:12:30Z</time>
      </trkpt>
      <trkpt lat="49.82847" lon="2.12954">
        <ele>123.6</ele>
        <time>2023-02-22T15:12:31Z</time>
      </trkpt>
      <trkpt lat="49.82847" lon="2.12951">
        <ele>123.6</ele>
        <time>2023-02-22T15:12:32Z</time>
      </trkpt>
      <trkpt lat="49.82846" lon="2.12948">
        <ele>123.6</ele>
        <time>2023-02-22T15:12:33Z</time>
      </trkpt>
      <trkpt lat="49.82845" lon="2.12946">
        <ele>123.6</ele>
        <time>2023-02-22T15:12:34Z</time>
      </trkpt>
      <trkpt lat="49.82845" lon="2.12945">
        <ele>123.6</ele>
        <time>2023-02-22T15:12:36Z</time>
      </trkpt>
      <trkpt lat="49.82844" lon="2.12944">
        <ele>123.6</ele>
        <time>2023-02-22T15:12:37Z</time>
      </trkpt>
      <trkpt lat="49.82844" lon="2.12942">
        <ele>123.6</ele>
        <time>2023-02-22T15:12:38Z</time>
      </trkpt>
      <trkpt lat="49.82844" lon="2.12941">
        <ele>123.6</ele>
        <time>2023-02-22T15:12:39Z</time>
      </trkpt>
      <trkpt lat="49.82843" lon="2.12937">
        <ele>123.6</ele>
        <time>2023-02-22T15:12:40Z</time>
      </trkpt>
      <trkpt lat="49.82842" lon="2.12935">
        <ele>123.6</ele>
        <time>2023-02-22T15:12:42Z</time>
      </trkpt>
      <trkpt lat="49.82842" lon="2.12933">
        <ele>123.6</ele>
        <time>2023-02-22T15:12:44Z</time>
      </trkpt>
      <trkpt lat="49.82841" lon="2.12931">
        <ele>123.6</ele>
        <time>2023-02-22T15:12:45Z</time>
      </trkpt>
      <trkpt lat="49.82841" lon="2.12929">
        <ele>123.6</ele>
        <time>2023-02-22T15:12:46Z</time>
      </trkpt>
      <trkpt lat="49.8284" lon="2.12927">
        <ele>123.6</ele>
        <time>2023-02-22T15:12:47Z</time>
      </trkpt>
      <trkpt lat="49.8284" lon="2.12924">
        <ele>123.6</ele>
        <time>2023-02-22T15:12:48Z</time>
      </trkpt>
      <trkpt lat="49.8284" lon="2.12923">
        <ele>123.6</ele>
        <time>2023-02-22T15:12:50Z</time>
      </trkpt>
      <trkpt lat="49.82839" lon="2.12922">
        <ele>123.6</ele>
        <time>2023-02-22T15:12:51Z</time>
      </trkpt>
      <trkpt lat="49.82839" lon="2.12919">
        <ele>123.6</ele>
        <time>2023-02-22T15:12:52Z</time>
      </trkpt>
      <trkpt lat="49.82838" lon="2.12918">
        <ele>123.6</ele>
        <time>2023-02-22T15:12:53Z</time>
      </trkpt>
      <trkpt lat="49.82838" lon="2.12917">
        <ele>123.6</ele>
        <time>2023-02-22T15:12:54Z</time>
      </trkpt>
      <trkpt lat="49.82837" lon="2.12913">
        <ele>123.6</ele>
        <time>2023-02-22T15:12:55Z</time>
      </trkpt>
      <trkpt lat="49.82837" lon="2.12912">
        <ele>123.6</ele>
        <time>2023-02-22T15:12:56Z</time>
      </trkpt>
      <trkpt lat="49.82836" lon="2.12911">
        <ele>123.6</ele>
        <time>2023-02-22T15:12:57Z</time>
      </trkpt>
      <trkpt lat="49.82836" lon="2.12908">
        <ele>123.7</ele>
        <time>2023-02-22T15:12:58Z</time>
      </trkpt>
      <trkpt lat="49.82835" lon="2.12906">
        <ele>123.7</ele>
        <time>2023-02-22T15:12:59Z</time>
      </trkpt>
      <trkpt lat="49.82835" lon="2.12904">
        <ele>123.7</ele>
        <time>2023-02-22T15:13:00Z</time>
      </trkpt>
      <trkpt lat="49.82835" lon="2.12902">
        <ele>123.7</ele>
        <time>2023-02-22T15:13:02Z</time>
      </trkpt>
      <trkpt lat="49.82834" lon="2.129">
        <ele>123.7</ele>
        <time>2023-02-22T15:13:03Z</time>
      </trkpt>
      <trkpt lat="49.82834" lon="2.12898">
        <ele>123.7</ele>
        <time>2023-02-22T15:13:04Z</time>
      </trkpt>
      <trkpt lat="49.82833" lon="2.12895">
        <ele>123.7</ele>
        <time>2023-02-22T15:13:05Z</time>
      </trkpt>
      <trkpt lat="49.82833" lon="2.12893">
        <ele>123.7</ele>
        <time>2023-02-22T15:13:06Z</time>
      </trkpt>
      <trkpt lat="49.82832" lon="2.12892">
        <ele>123.7</ele>
        <time>2023-02-22T15:13:07Z</time>
      </trkpt>
      <trkpt lat="49.82831" lon="2.12887">
        <ele>123.7</ele>
        <time>2023-02-22T15:13:08Z</time>
      </trkpt>
      <trkpt lat="49.82831" lon="2.12886">
        <ele>123.7</ele>
        <time>2023-02-22T15:13:10Z</time>
      </trkpt>
      <trkpt lat="49.82831" lon="2.12884">
        <ele>123.7</ele>
        <time>2023-02-22T15:13:11Z</time>
      </trkpt>
      <trkpt lat="49.8283" lon="2.12883">
        <ele>123.7</ele>
        <time>2023-02-22T15:13:12Z</time>
      </trkpt>
      <trkpt lat="49.8283" lon="2.12882">
        <ele>123.7</ele>
        <time>2023-02-22T15:13:13Z</time>
      </trkpt>
      <trkpt lat="49.8283" lon="2.12879">
        <ele>123.7</ele>
        <time>2023-02-22T15:13:14Z</time>
      </trkpt>
      <trkpt lat="49.82829" lon="2.12878">
        <ele>123.7</ele>
        <time>2023-02-22T15:13:15Z</time>
      </trkpt>
      <trkpt lat="49.82828" lon="2.12874">
        <ele>123.7</ele>
        <time>2023-02-22T15:13:16Z</time>
      </trkpt>
      <trkpt lat="49.82828" lon="2.12873">
        <ele>123.7</ele>
        <time>2023-02-22T15:13:18Z</time>
      </trkpt>
      <trkpt lat="49.82828" lon="2.12871">
        <ele>123.7</ele>
        <time>2023-02-22T15:13:19Z</time>
      </trkpt>
      <trkpt lat="49.82827" lon="2.1287">
        <ele>123.7</ele>
        <time>2023-02-22T15:13:20Z</time>
      </trkpt>
      <trkpt lat="49.82827" lon="2.12869">
        <ele>123.7</ele>
        <time>2023-02-22T15:13:21Z</time>
      </trkpt>
      <trkpt lat="49.82827" lon="2.12867">
        <ele>123.7</ele>
        <time>2023-02-22T15:13:22Z</time>
      </trkpt>
      <trkpt lat="49.82826" lon="2.12865">
        <ele>123.7</ele>
        <time>2023-02-22T15:13:23Z</time>
      </trkpt>
      <trkpt lat="49.82826" lon="2.12862">
        <ele>123.7</ele>
        <time>2023-02-22T15:13:25Z</time>
      </trkpt>
      <trkpt lat="49.82826" lon="2.12861">
        <ele>123.7</ele>
        <time>2023-02-22T15:13:26Z</time>
      </trkpt>
      <trkpt lat="49.82825" lon="2.12859">
        <ele>123.7</ele>
        <time>2023-02-22T15:13:27Z</time>
      </trkpt>
      <trkpt lat="49.82825" lon="2.12858">
        <ele>123.7</ele>
        <time>2023-02-22T15:13:28Z</time>
      </trkpt>
      <trkpt lat="49.82825" lon="2.12856">
        <ele>123.7</ele>
        <time>2023-02-22T15:13:29Z</time>
      </trkpt>
      <trkpt lat="49.82824" lon="2.12854">
        <ele>123.7</ele>
        <time>2023-02-22T15:13:30Z</time>
      </trkpt>
      <trkpt lat="49.82823" lon="2.1285">
        <ele>123.8</ele>
        <time>2023-02-22T15:13:31Z</time>
      </trkpt>
      <trkpt lat="49.82823" lon="2.12849">
        <ele>123.8</ele>
        <time>2023-02-22T15:13:32Z</time>
      </trkpt>
      <trkpt lat="49.82823" lon="2.12847">
        <ele>123.8</ele>
        <time>2023-02-22T15:13:33Z</time>
      </trkpt>
      <trkpt lat="49.82823" lon="2.12846">
        <ele>123.8</ele>
        <time>2023-02-22T15:13:34Z</time>
      </trkpt>
      <trkpt lat="49.82823" lon="2.12844">
        <ele>123.8</ele>
        <time>2023-02-22T15:13:35Z</time>
      </trkpt>
      <trkpt lat="49.82822" lon="2.12842">
        <ele>123.8</ele>
        <time>2023-02-22T15:13:36Z</time>
      </trkpt>
      <trkpt lat="49.82822" lon="2.1284">
        <ele>123.8</ele>
        <time>2023-02-22T15:13:38Z</time>
      </trkpt>
      <trkpt lat="49.82822" lon="2.12838">
        <ele>123.8</ele>
        <time>2023-02-22T15:13:39Z</time>
      </trkpt>
      <trkpt lat="49.82822" lon="2.12837">
        <ele>123.8</ele>
        <time>2023-02-22T15:13:40Z</time>
      </trkpt>
      <trkpt lat="49.82821" lon="2.12833">
        <ele>123.8</ele>
        <time>2023-02-22T15:13:41Z</time>
      </trkpt>
      <trkpt lat="49.82821" lon="2.12832">
        <ele>123.8</ele>
        <time>2023-02-22T15:13:42Z</time>
      </trkpt>
      <trkpt lat="49.82821" lon="2.1283">
        <ele>123.8</ele>
        <time>2023-02-22T15:13:43Z</time>
      </trkpt>
      <trkpt lat="49.8282" lon="2.12829">
        <ele>123.8</ele>
        <time>2023-02-22T15:13:44Z</time>
      </trkpt>
      <trkpt lat="49.8282" lon="2.12827">
        <ele>123.8</ele>
        <time>2023-02-22T15:13:46Z</time>
      </trkpt>
      <trkpt lat="49.8282" lon="2.12825">
        <ele>123.8</ele>
        <time>2023-02-22T15:13:47Z</time>
      </trkpt>
      <trkpt lat="49.82819" lon="2.12823">
        <ele>123.8</ele>
        <time>2023-02-22T15:13:48Z</time>
      </trkpt>
      <trkpt lat="49.82819" lon="2.12821">
        <ele>123.8</ele>
        <time>2023-02-22T15:13:49Z</time>
      </trkpt>
      <trkpt lat="49.82818" lon="2.1282">
        <ele>123.8</ele>
        <time>2023-02-22T15:13:50Z</time>
      </trkpt>
      <trkpt lat="49.82818" lon="2.12818">
        <ele>123.8</ele>
        <time>2023-02-22T15:13:51Z</time>
      </trkpt>
      <trkpt lat="49.82817" lon="2.12816">
        <ele>123.8</ele>
        <time>2023-02-22T15:13:52Z</time>
      </trkpt>
      <trkpt lat="49.82816" lon="2.12812">
        <ele>123.8</ele>
        <time>2023-02-22T15:13:54Z</time>
      </trkpt>
      <trkpt lat="49.82816" lon="2.12811">
        <ele>123.8</ele>
        <time>2023-02-22T15:13:55Z</time>
      </trkpt>
      <trkpt lat="49.82816" lon="2.12809">
        <ele>123.8</ele>
        <time>2023-02-22T15:13:56Z</time>
      </trkpt>
      <trkpt lat="49.82815" lon="2.12807">
        <ele>123.8</ele>
        <time>2023-02-22T15:13:57Z</time>
      </trkpt>
      <trkpt lat="49.82815" lon="2.12805">
        <ele>123.8</ele>
        <time>2023-02-22T15:13:59Z</time>
      </trkpt>
      <trkpt lat="49.82814" lon="2.12804">
        <ele>123.8</ele>
        <time>2023-02-22T15:14:00Z</time>
      </trkpt>
      <trkpt lat="49.82814" lon="2.12802">
        <ele>123.8</ele>
        <time>2023-02-22T15:14:01Z</time>
      </trkpt>
      <trkpt lat="49.82814" lon="2.128">
        <ele>123.8</ele>
        <time>2023-02-22T15:14:02Z</time>
      </trkpt>
      <trkpt lat="49.82814" lon="2.12799">
        <ele>123.8</ele>
        <time>2023-02-22T15:14:03Z</time>
      </trkpt>
      <trkpt lat="49.82813" lon="2.12797">
        <ele>123.8</ele>
        <time>2023-02-22T15:14:04Z</time>
      </trkpt>
      <trkpt lat="49.82813" lon="2.12796">
        <ele>123.8</ele>
        <time>2023-02-22T15:14:05Z</time>
      </trkpt>
      <trkpt lat="49.82812" lon="2.12793">
        <ele>123.8</ele>
        <time>2023-02-22T15:14:06Z</time>
      </trkpt>
      <trkpt lat="49.82812" lon="2.12791">
        <ele>123.8</ele>
        <time>2023-02-22T15:14:07Z</time>
      </trkpt>
      <trkpt lat="49.82811" lon="2.1279">
        <ele>123.8</ele>
        <time>2023-02-22T15:14:08Z</time>
      </trkpt>
      <trkpt lat="49.82811" lon="2.12788">
        <ele>123.8</ele>
        <time>2023-02-22T15:14:09Z</time>
      </trkpt>
      <trkpt lat="49.8281" lon="2.12786">
        <ele>123.8</ele>
        <time>2023-02-22T15:14:10Z</time>
      </trkpt>
      <trkpt lat="49.82809" lon="2.12783">
        <ele>123.8</ele>
        <time>2023-02-22T15:14:12Z</time>
      </trkpt>
      <trkpt lat="49.82809" lon="2.12781">
        <ele>123.8</ele>
        <time>2023-02-22T15:14:13Z</time>
      </trkpt>
      <trkpt lat="49.82809" lon="2.1278">
        <ele>123.8</ele>
        <time>2023-02-22T15:14:14Z</time>
      </trkpt>
      <trkpt lat="49.82809" lon="2.12778">
        <ele>123.8</ele>
        <time>2023-02-22T15:14:15Z</time>
      </trkpt>
      <trkpt lat="49.82808" lon="2.12776">
        <ele>123.8</ele>
        <time>2023-02-22T15:14:16Z</time>
      </trkpt>
      <trkpt lat="49.82808" lon="2.12775">
        <ele>123.8</ele>
        <time>2023-02-22T15:14:17Z</time>
      </trkpt>
      <trkpt lat="49.82807" lon="2.12772">
        <ele>123.8</ele>
        <time>2023-02-22T15:14:18Z</time>
      </trkpt>
      <trkpt lat="49.82807" lon="2.12771">
        <ele>123.8</ele>
        <time>2023-02-22T15:14:19Z</time>
      </trkpt>
      <trkpt lat="49.82807" lon="2.12769">
        <ele>123.8</ele>
        <time>2023-02-22T15:14:20Z</time>
      </trkpt>
      <trkpt lat="49.82807" lon="2.12767">
        <ele>123.8</ele>
        <time>2023-02-22T15:14:22Z</time>
      </trkpt>
      <trkpt lat="49.82806" lon="2.12765">
        <ele>123.8</ele>
        <time>2023-02-22T15:14:23Z</time>
      </trkpt>
      <trkpt lat="49.82805" lon="2.12763">
        <ele>123.8</ele>
        <time>2023-02-22T15:14:24Z</time>
      </trkpt>
      <trkpt lat="49.82805" lon="2.12762">
        <ele>123.8</ele>
        <time>2023-02-22T15:14:25Z</time>
      </trkpt>
      <trkpt lat="49.82805" lon="2.1276">
        <ele>123.8</ele>
        <time>2023-02-22T15:14:27Z</time>
      </trkpt>
      <trkpt lat="49.82805" lon="2.12759">
        <ele>123.8</ele>
        <time>2023-02-22T15:14:28Z</time>
      </trkpt>
      <trkpt lat="49.82804" lon="2.12757">
        <ele>123.8</ele>
        <time>2023-02-22T15:14:29Z</time>
      </trkpt>
      <trkpt lat="49.82804" lon="2.12755">
        <ele>123.8</ele>
        <time>2023-02-22T15:14:30Z</time>
      </trkpt>
      <trkpt lat="49.82804" lon="2.12753">
        <ele>123.8</ele>
        <time>2023-02-22T15:14:31Z</time>
      </trkpt>
      <trkpt lat="49.82803" lon="2.12752">
        <ele>123.8</ele>
        <time>2023-02-22T15:14:32Z</time>
      </trkpt>
      <trkpt lat="49.82803" lon="2.1275">
        <ele>123.8</ele>
        <time>2023-02-22T15:14:33Z</time>
      </trkpt>
      <trkpt lat="49.82803" lon="2.12748">
        <ele>123.8</ele>
        <time>2023-02-22T15:14:35Z</time>
      </trkpt>
      <trkpt lat="49.82802" lon="2.12746">
        <ele>123.8</ele>
        <time>2023-02-22T15:14:36Z</time>
      </trkpt>
      <trkpt lat="49.82802" lon="2.12745">
        <ele>123.8</ele>
        <time>2023-02-22T15:14:37Z</time>
      </trkpt>
      <trkpt lat="49.82802" lon="2.12743">
        <ele>123.8</ele>
        <time>2023-02-22T15:14:39Z</time>
      </trkpt>
      <trkpt lat="49.82801" lon="2.12741">
        <ele>123.8</ele>
        <time>2023-02-22T15:14:40Z</time>
      </trkpt>
      <trkpt lat="49.82801" lon="2.1274">
        <ele>123.8</ele>
        <time>2023-02-22T15:14:41Z</time>
      </trkpt>
      <trkpt lat="49.82801" lon="2.12738">
        <ele>123.8</ele>
        <time>2023-02-22T15:14:42Z</time>
      </trkpt>
      <trkpt lat="49.828" lon="2.12736">
        <ele>123.8</ele>
        <time>2023-02-22T15:14:43Z</time>
      </trkpt>
      <trkpt lat="49.828" lon="2.12733">
        <ele>123.8</ele>
        <time>2023-02-22T15:14:44Z</time>
      </trkpt>
      <trkpt lat="49.82799" lon="2.12732">
        <ele>123.8</ele>
        <time>2023-02-22T15:14:45Z</time>
      </trkpt>
      <trkpt lat="49.82799" lon="2.1273">
        <ele>123.8</ele>
        <time>2023-02-22T15:14:46Z</time>
      </trkpt>
      <trkpt lat="49.82799" lon="2.12728">
        <ele>123.8</ele>
        <time>2023-02-22T15:14:47Z</time>
      </trkpt>
      <trkpt lat="49.82798" lon="2.12727">
        <ele>123.8</ele>
        <time>2023-02-22T15:14:48Z</time>
      </trkpt>
      <trkpt lat="49.82798" lon="2.12725">
        <ele>123.8</ele>
        <time>2023-02-22T15:14:50Z</time>
      </trkpt>
      <trkpt lat="49.82797" lon="2.12724">
        <ele>123.8</ele>
        <time>2023-02-22T15:14:51Z</time>
      </trkpt>
      <trkpt lat="49.82797" lon="2.12722">
        <ele>123.8</ele>
        <time>2023-02-22T15:14:52Z</time>
      </trkpt>
      <trkpt lat="49.82797" lon="2.12721">
        <ele>123.8</ele>
        <time>2023-02-22T15:14:53Z</time>
      </trkpt>
      <trkpt lat="49.82796" lon="2.12718">
        <ele>123.8</ele>
        <time>2023-02-22T15:14:54Z</time>
      </trkpt>
      <trkpt lat="49.82796" lon="2.12717">
        <ele>123.8</ele>
        <time>2023-02-22T15:14:55Z</time>
      </trkpt>
      <trkpt lat="49.82795" lon="2.12715">
        <ele>123.8</ele>
        <time>2023-02-22T15:14:56Z</time>
      </trkpt>
      <trkpt lat="49.82795" lon="2.12713">
        <ele>123.8</ele>
        <time>2023-02-22T15:14:57Z</time>
      </trkpt>
      <trkpt lat="49.82795" lon="2.12711">
        <ele>123.8</ele>
        <time>2023-02-22T15:14:58Z</time>
      </trkpt>
      <trkpt lat="49.82794" lon="2.12709">
        <ele>123.8</ele>
        <time>2023-02-22T15:15:00Z</time>
      </trkpt>
      <trkpt lat="49.82794" lon="2.12708">
        <ele>123.8</ele>
        <time>2023-02-22T15:15:01Z</time>
      </trkpt>
      <trkpt lat="49.82794" lon="2.12706">
        <ele>123.8</ele>
        <time>2023-02-22T15:15:02Z</time>
      </trkpt>
      <trkpt lat="49.82794" lon="2.12704">
        <ele>123.8</ele>
        <time>2023-02-22T15:15:03Z</time>
      </trkpt>
      <trkpt lat="49.82794" lon="2.12703">
        <ele>123.8</ele>
        <time>2023-02-22T15:15:04Z</time>
      </trkpt>
      <trkpt lat="49.82794" lon="2.12701">
        <ele>123.7</ele>
        <time>2023-02-22T15:15:05Z</time>
      </trkpt>
      <trkpt lat="49.82793" lon="2.127">
        <ele>123.7</ele>
        <time>2023-02-22T15:15:07Z</time>
      </trkpt>
      <trkpt lat="49.82793" lon="2.12698">
        <ele>123.7</ele>
        <time>2023-02-22T15:15:08Z</time>
      </trkpt>
      <trkpt lat="49.82793" lon="2.12697">
        <ele>123.7</ele>
        <time>2023-02-22T15:15:09Z</time>
      </trkpt>
      <trkpt lat="49.82793" lon="2.12695">
        <ele>123.7</ele>
        <time>2023-02-22T15:15:10Z</time>
      </trkpt>
      <trkpt lat="49.82792" lon="2.12693">
        <ele>123.7</ele>
        <time>2023-02-22T15:15:11Z</time>
      </trkpt>
      <trkpt lat="49.82792" lon="2.12692">
        <ele>123.7</ele>
        <time>2023-02-22T15:15:13Z</time>
      </trkpt>
      <trkpt lat="49.82792" lon="2.1269">
        <ele>123.7</ele>
        <time>2023-02-22T15:15:14Z</time>
      </trkpt>
      <trkpt lat="49.82792" lon="2.12688">
        <ele>123.7</ele>
        <time>2023-02-22T15:15:15Z</time>
      </trkpt>
      <trkpt lat="49.82791" lon="2.12687">
        <ele>123.7</ele>
        <time>2023-02-22T15:15:16Z</time>
      </trkpt>
      <trkpt lat="49.82791" lon="2.12686">
        <ele>123.7</ele>
        <time>2023-02-22T15:15:17Z</time>
      </trkpt>
      <trkpt lat="49.8279" lon="2.12684">
        <ele>123.7</ele>
        <time>2023-02-22T15:15:18Z</time>
      </trkpt>
      <trkpt lat="49.8279" lon="2.12682">
        <ele>123.7</ele>
        <time>2023-02-22T15:15:20Z</time>
      </trkpt>
      <trkpt lat="49.8279" lon="2.12681">
        <ele>123.7</ele>
        <time>2023-02-22T15:15:21Z</time>
      </trkpt>
      <trkpt lat="49.8279" lon="2.12679">
        <ele>123.7</ele>
        <time>2023-02-22T15:15:22Z</time>
      </trkpt>
      <trkpt lat="49.8279" lon="2.12677">
        <ele>123.7</ele>
        <time>2023-02-22T15:15:24Z</time>
      </trkpt>
      <trkpt lat="49.82789" lon="2.12675">
        <ele>123.7</ele>
        <time>2023-02-22T15:15:25Z</time>
      </trkpt>
      <trkpt lat="49.82788" lon="2.12674">
        <ele>123.7</ele>
        <time>2023-02-22T15:15:27Z</time>
      </trkpt>
      <trkpt lat="49.82787" lon="2.12674">
        <ele>123.7</ele>
        <time>2023-02-22T15:15:28Z</time>
      </trkpt>
      <trkpt lat="49.82787" lon="2.12674">
        <ele>123.7</ele>
        <time>2023-02-22T15:15:29Z</time>
      </trkpt>
      <trkpt lat="49.82787" lon="2.12675">
        <ele>123.7</ele>
        <time>2023-02-22T15:15:31Z</time>
      </trkpt>
      <trkpt lat="49.82786" lon="2.12675">
        <ele>123.7</ele>
        <time>2023-02-22T15:15:33Z</time>
      </trkpt>
      <trkpt lat="49.82786" lon="2.12675">
        <ele>123.7</ele>
        <time>2023-02-22T15:15:34Z</time>
      </trkpt>
      <trkpt lat="49.82786" lon="2.12676">
        <ele>123.7</ele>
        <time>2023-02-22T15:15:35Z</time>
      </trkpt>
      <trkpt lat="49.82786" lon="2.12676">
        <ele>123.7</ele>
        <time>2023-02-22T15:15:37Z</time>
      </trkpt>
      <trkpt lat="49.82786" lon="2.12676">
        <ele>123.7</ele>
        <time>2023-02-22T15:15:38Z</time>
      </trkpt>
      <trkpt lat="49.82786" lon="2.12676">
        <ele>123.7</ele>
        <time>2023-02-22T15:15:39Z</time>
      </trkpt>
      <trkpt lat="49.82786" lon="2.12676">
        <ele>123.7</ele>
        <time>2023-02-22T15:15:41Z</time>
      </trkpt>
      <trkpt lat="49.82786" lon="2.12676">
        <ele>123.7</ele>
        <time>2023-02-22T15:15:43Z</time>
      </trkpt>
      <trkpt lat="49.82786" lon="2.12677">
        <ele>123.7</ele>
        <time>2023-02-22T15:15:44Z</time>
      </trkpt>
      <trkpt lat="49.82787" lon="2.12677">
        <ele>123.7</ele>
        <time>2023-02-22T15:15:45Z</time>
      </trkpt>
      <trkpt lat="49.82787" lon="2.12677">
        <ele>123.7</ele>
        <time>2023-02-22T15:15:46Z</time>
      </trkpt>
      <trkpt lat="49.82787" lon="2.12677">
        <ele>123.7</ele>
        <time>2023-02-22T15:15:47Z</time>
      </trkpt>
      <trkpt lat="49.82787" lon="2.12677">
        <ele>123.7</ele>
        <time>2023-02-22T15:15:48Z</time>
      </trkpt>
      <trkpt lat="49.82787" lon="2.12677">
        <ele>123.7</ele>
        <time>2023-02-22T15:15:49Z</time>
      </trkpt>
      <trkpt lat="49.82787" lon="2.12677">
        <ele>123.7</ele>
        <time>2023-02-22T15:15:50Z</time>
      </trkpt>
      <trkpt lat="49.82787" lon="2.12677">
        <ele>123.7</ele>
        <time>2023-02-22T15:15:51Z</time>
      </trkpt>
      <trkpt lat="49.82787" lon="2.12677">
        <ele>123.7</ele>
        <time>2023-02-22T15:15:52Z</time>
      </trkpt>
      <trkpt lat="49.82787" lon="2.12677">
        <ele>123.7</ele>
        <time>2023-02-22T15:15:53Z</time>
      </trkpt>
      <trkpt lat="49.82787" lon="2.12677">
        <ele>123.7</ele>
        <time>2023-02-22T15:15:54Z</time>
      </trkpt>
      <trkpt lat="49.82787" lon="2.12677">
        <ele>123.7</ele>
        <time>2023-02-22T15:15:55Z</time>
      </trkpt>
      <trkpt lat="49.82787" lon="2.12677">
        <ele>123.7</ele>
        <time>2023-02-22T15:15:56Z</time>
      </trkpt>
      <trkpt lat="49.82787" lon="2.12677">
        <ele>123.7</ele>
        <time>2023-02-22T15:15:57Z</time>
      </trkpt>
      <trkpt lat="49.82787" lon="2.12677">
        <ele>123.7</ele>
        <time>2023-02-22T15:15:58Z</time>
      </trkpt>
      <trkpt lat="49.82787" lon="2.12677">
        <ele>123.7</ele>
        <time>2023-02-22T15:15:59Z</time>
      </trkpt>
      <trkpt lat="49.82787" lon="2.12677">
        <ele>123.7</ele>
        <time>2023-02-22T15:16:00Z</time>
      </trkpt>
      <trkpt lat="49.82787" lon="2.12677">
        <ele>123.7</ele>
        <time>2023-02-22T15:16:01Z</time>
      </trkpt>
      <trkpt lat="49.82787" lon="2.12677">
        <ele>123.7</ele>
        <time>2023-02-22T15:16:02Z</time>
      </trkpt>
      <trkpt lat="49.82787" lon="2.12677">
        <ele>123.7</ele>
        <time>2023-02-22T15:16:03Z</time>
      </trkpt>
      <trkpt lat="49.82787" lon="2.12677">
        <ele>123.7</ele>
        <time>2023-02-22T15:16:04Z</time>
      </trkpt>
      <trkpt lat="49.82787" lon="2.12677">
        <ele>123.7</ele>
        <time>2023-02-22T15:16:05Z</time>
      </trkpt>
      <trkpt lat="49.82787" lon="2.12677">
        <ele>123.7</ele>
        <time>2023-02-22T15:16:06Z</time>
      </trkpt>
      <trkpt lat="49.82787" lon="2.12677">
        <ele>123.7</ele>
        <time>2023-02-22T15:16:07Z</time>
      </trkpt>
      <trkpt lat="49.82787" lon="2.12677">
        <ele>123.7</ele>
        <time>2023-02-22T15:16:08Z</time>
      </trkpt>
      <trkpt lat="49.82787" lon="2.12677">
        <ele>123.7</ele>
        <time>2023-02-22T15:16:09Z</time>
      </trkpt>
      <trkpt lat="49.82787" lon="2.12677">
        <ele>123.7</ele>
        <time>2023-02-22T15:16:10Z</time>
      </trkpt>
      <trkpt lat="49.82787" lon="2.12677">
        <ele>123.7</ele>
        <time>2023-02-22T15:16:11Z</time>
      </trkpt>
      <trkpt lat="49.82787" lon="2.12677">
        <ele>123.7</ele>
        <time>2023-02-22T15:16:12Z</time>
      </trkpt>
      <trkpt lat="49.82787" lon="2.12677">
        <ele>123.7</ele>
        <time>2023-02-22T15:16:13Z</time>
      </trkpt>
      <trkpt lat="49.82787" lon="2.12677">
        <ele>123.7</ele>
        <time>2023-02-22T15:16:14Z</time>
      </trkpt>
      <trkpt lat="49.82787" lon="2.12677">
        <ele>123.7</ele>
        <time>2023-02-22T15:16:15Z</time>
      </trkpt>
      <trkpt lat="49.82787" lon="2.12677">
        <ele>123.7</ele>
        <time>2023-02-22T15:16:16Z</time>
      </trkpt>
      <trkpt lat="49.82787" lon="2.12677">
        <ele>123.7</ele>
        <time>2023-02-22T15:16:17Z</time>
      </trkpt>
      <trkpt lat="49.82787" lon="2.12677">
        <ele>123.7</ele>
        <time>2023-02-22T15:16:18Z</time>
      </trkpt>
      <trkpt lat="49.82787" lon="2.12677">
        <ele>123.7</ele>
        <time>2023-02-22T15:16:19Z</time>
      </trkpt>
      <trkpt lat="49.82787" lon="2.12677">
        <ele>123.7</ele>
        <time>2023-02-22T15:16:20Z</time>
      </trkpt>
      <trkpt lat="49.82787" lon="2.12677">
        <ele>123.7</ele>
        <time>2023-02-22T15:16:21Z</time>
      </trkpt>
      <trkpt lat="49.82787" lon="2.12677">
        <ele>123.7</ele>
        <time>2023-02-22T15:16:22Z</time>
      </trkpt>
      <trkpt lat="49.82787" lon="2.12677">
        <ele>123.7</ele>
        <time>2023-02-22T15:16:23Z</time>
      </trkpt>
      <trkpt lat="49.82787" lon="2.12677">
        <ele>123.7</ele>
        <time>2023-02-22T15:16:24Z</time>
      </trkpt>
      <trkpt lat="49.82787" lon="2.12677">
        <ele>123.7</ele>
        <time>2023-02-22T15:16:25Z</time>
      </trkpt>
      <trkpt lat="49.82787" lon="2.12677">
        <ele>123.7</ele>
        <time>2023-02-22T15:16:26Z</time>
      </trkpt>
      <trkpt lat="49.82787" lon="2.12677">
        <ele>123.7</ele>
        <time>2023-02-22T15:16:27Z</time>
      </trkpt>
      <trkpt lat="49.82787" lon="2.12677">
        <ele>123.7</ele>
        <time>2023-02-22T15:16:28Z</time>
      </trkpt>
      <trkpt lat="49.82787" lon="2.12677">
        <ele>123.7</ele>
        <time>2023-02-22T15:16:29Z</time>
      </trkpt>
      <trkpt lat="49.82787" lon="2.12677">
        <ele>123.7</ele>
        <time>2023-02-22T15:16:30Z</time>
      </trkpt>
      <trkpt lat="49.82787" lon="2.12677">
        <ele>123.7</ele>
        <time>2023-02-22T15:16:31Z</time>
      </trkpt>
      <trkpt lat="49.82787" lon="2.12677">
        <ele>123.7</ele>
        <time>2023-02-22T15:16:32Z</time>
      </trkpt>
      <trkpt lat="49.82787" lon="2.12677">
        <ele>123.7</ele>
        <time>2023-02-22T15:16:33Z</time>
      </trkpt>
      <trkpt lat="49.82787" lon="2.12677">
        <ele>123.7</ele>
        <time>2023-02-22T15:16:34Z</time>
      </trkpt>
      <trkpt lat="49.82787" lon="2.12677">
        <ele>123.7</ele>
        <time>2023-02-22T15:16:35Z</time>
      </trkpt>
      <trkpt lat="49.82787" lon="2.12677">
        <ele>123.7</ele>
        <time>2023-02-22T15:16:36Z</time>
      </trkpt>
      <trkpt lat="49.82787" lon="2.12677">
        <ele>123.7</ele>
        <time>2023-02-22T15:16:37Z</time>
      </trkpt>
      <trkpt lat="49.82787" lon="2.12677">
        <ele>123.7</ele>
        <time>2023-02-22T15:16:38Z</time>
      </trkpt>
      <trkpt lat="49.82787" lon="2.12677">
        <ele>123.7</ele>
        <time>2023-02-22T15:16:39Z</time>
      </trkpt>
      <trkpt lat="49.82787" lon="2.12677">
        <ele>123.7</ele>
        <time>2023-02-22T15:16:40Z</time>
      </trkpt>
      <trkpt lat="49.82787" lon="2.12677">
        <ele>123.7</ele>
        <time>2023-02-22T15:16:41Z</time>
      </trkpt>
      <trkpt lat="49.82787" lon="2.12677">
        <ele>123.7</ele>
        <time>2023-02-22T15:16:42Z</time>
      </trkpt>
      <trkpt lat="49.82787" lon="2.12677">
        <ele>123.7</ele>
        <time>2023-02-22T15:16:43Z</time>
      </trkpt>
      <trkpt lat="49.82787" lon="2.12677">
        <ele>123.7</ele>
        <time>2023-02-22T15:16:44Z</time>
      </trkpt>
      <trkpt lat="49.82787" lon="2.12677">
        <ele>123.7</ele>
        <time>2023-02-22T15:16:45Z</time>
      </trkpt>
      <trkpt lat="49.82787" lon="2.12677">
        <ele>123.7</ele>
        <time>2023-02-22T15:16:46Z</time>
      </trkpt>
      <trkpt lat="49.82787" lon="2.12677">
        <ele>123.7</ele>
        <time>2023-02-22T15:16:47Z</time>
      </trkpt>
      <trkpt lat="49.82787" lon="2.12677">
        <ele>123.7</ele>
        <time>2023-02-22T15:16:48Z</time>
      </trkpt>
      <trkpt lat="49.82787" lon="2.12677">
        <ele>123.7</ele>
        <time>2023-02-22T15:16:49Z</time>
      </trkpt>
      <trkpt lat="49.82787" lon="2.12677">
        <ele>123.7</ele>
        <time>2023-02-22T15:16:50Z</time>
      </trkpt>
      <trkpt lat="49.82787" lon="2.12677">
        <ele>123.7</ele>
        <time>2023-02-22T15:16:51Z</time>
      </trkpt>
      <trkpt lat="49.82787" lon="2.12677">
        <ele>123.7</ele>
        <time>2023-02-22T15:16:52Z</time>
      </trkpt>
      <trkpt lat="49.82787" lon="2.12677">
        <ele>123.7</ele>
        <time>2023-02-22T15:16:53Z</time>
      </trkpt>
      <trkpt lat="49.82787" lon="2.12677">
        <ele>123.7</ele>
        <time>2023-02-22T15:16:54Z</time>
      </trkpt>
      <trkpt lat="49.82787" lon="2.12677">
        <ele>123.7</ele>
        <time>2023-02-22T15:16:55Z</time>
      </trkpt>
      <trkpt lat="49.82787" lon="2.12677">
        <ele>123.7</ele>
        <time>2023-02-22T15:16:56Z</time>
      </trkpt>
      <trkpt lat="49.82788" lon="2.12679">
        <ele>123.7</ele>
        <time>2023-02-22T15:16:57Z</time>
      </trkpt>
      <trkpt lat="49.82788" lon="2.12679">
        <ele>123.7</ele>
        <time>2023-02-22T15:16:58Z</time>
      </trkpt>
      <trkpt lat="49.82788" lon="2.1268">
        <ele>123.7</ele>
        <time>2023-02-22T15:16:59Z</time>
      </trkpt>
      <trkpt lat="49.82789" lon="2.12681">
        <ele>123.7</ele>
        <time>2023-02-22T15:17:00Z</time>
      </trkpt>
      <trkpt lat="49.82789" lon="2.12682">
        <ele>123.7</ele>
        <time>2023-02-22T15:17:02Z</time>
      </trkpt>
      <trkpt lat="49.82788" lon="2.12682">
        <ele>123.7</ele>
        <time>2023-02-22T15:17:03Z</time>
      </trkpt>
      <trkpt lat="49.82786" lon="2.12681">
        <ele>123.7</ele>
        <time>2023-02-22T15:17:05Z</time>
      </trkpt>
      <trkpt lat="49.82784" lon="2.12679">
        <ele>123.9</ele>
        <time>2023-02-22T15:17:06Z</time>
      </trkpt>
      <trkpt lat="49.82783" lon="2.12679">
        <ele>123.9</ele>
        <time>2023-02-22T15:17:07Z</time>
      </trkpt>
      <trkpt lat="49.82782" lon="2.12678">
        <ele>123.9</ele>
        <time>2023-02-22T15:17:08Z</time>
      </trkpt>
      <trkpt lat="49.82781" lon="2.12678">
        <ele>123.9</ele>
        <time>2023-02-22T15:17:09Z</time>
      </trkpt>
      <trkpt lat="49.8278" lon="2.12677">
        <ele>123.9</ele>
        <time>2023-02-22T15:17:11Z</time>
      </trkpt>
      <trkpt lat="49.82779" lon="2.12677">
        <ele>123.9</ele>
        <time>2023-02-22T15:17:12Z</time>
      </trkpt>
      <trkpt lat="49.82778" lon="2.12678">
        <ele>123.9</ele>
        <time>2023-02-22T15:17:13Z</time>
      </trkpt>
      <trkpt lat="49.82777" lon="2.12678">
        <ele>123.9</ele>
        <time>2023-02-22T15:17:14Z</time>
      </trkpt>
      <trkpt lat="49.82776" lon="2.12679">
        <ele>123.9</ele>
        <time>2023-02-22T15:17:15Z</time>
      </trkpt>
      <trkpt lat="49.82775" lon="2.12679">
        <ele>123.9</ele>
        <time>2023-02-22T15:17:16Z</time>
      </trkpt>
      <trkpt lat="49.82774" lon="2.1268">
        <ele>123.9</ele>
        <time>2023-02-22T15:17:17Z</time>
      </trkpt>
      <trkpt lat="49.82773" lon="2.12681">
        <ele>123.9</ele>
        <time>2023-02-22T15:17:19Z</time>
      </trkpt>
      <trkpt lat="49.82772" lon="2.12682">
        <ele>123.9</ele>
        <time>2023-02-22T15:17:20Z</time>
      </trkpt>
      <trkpt lat="49.82771" lon="2.12683">
        <ele>123.9</ele>
        <time>2023-02-22T15:17:21Z</time>
      </trkpt>
      <trkpt lat="49.8277" lon="2.12684">
        <ele>123.9</ele>
        <time>2023-02-22T15:17:22Z</time>
      </trkpt>
      <trkpt lat="49.82769" lon="2.12685">
        <ele>123.9</ele>
        <time>2023-02-22T15:17:23Z</time>
      </trkpt>
      <trkpt lat="49.82768" lon="2.12686">
        <ele>123.9</ele>
        <time>2023-02-22T15:17:24Z</time>
      </trkpt>
      <trkpt lat="49.82767" lon="2.12687">
        <ele>123.9</ele>
        <time>2023-02-22T15:17:26Z</time>
      </trkpt>
      <trkpt lat="49.82767" lon="2.12688">
        <ele>123.9</ele>
        <time>2023-02-22T15:17:27Z</time>
      </trkpt>
      <trkpt lat="49.82765" lon="2.1269">
        <ele>124</ele>
        <time>2023-02-22T15:17:28Z</time>
      </trkpt>
      <trkpt lat="49.82764" lon="2.12691">
        <ele>124</ele>
        <time>2023-02-22T15:17:30Z</time>
      </trkpt>
      <trkpt lat="49.82764" lon="2.12692">
        <ele>124</ele>
        <time>2023-02-22T15:17:31Z</time>
      </trkpt>
      <trkpt lat="49.82762" lon="2.12693">
        <ele>124</ele>
        <time>2023-02-22T15:17:32Z</time>
      </trkpt>
      <trkpt lat="49.82761" lon="2.12694">
        <ele>124</ele>
        <time>2023-02-22T15:17:33Z</time>
      </trkpt>
      <trkpt lat="49.8276" lon="2.12695">
        <ele>124</ele>
        <time>2023-02-22T15:17:35Z</time>
      </trkpt>
      <trkpt lat="49.82759" lon="2.12695">
        <ele>124</ele>
        <time>2023-02-22T15:17:36Z</time>
      </trkpt>
      <trkpt lat="49.82758" lon="2.12696">
        <ele>124</ele>
        <time>2023-02-22T15:17:37Z</time>
      </trkpt>
      <trkpt lat="49.82757" lon="2.12698">
        <ele>124</ele>
        <time>2023-02-22T15:17:38Z</time>
      </trkpt>
      <trkpt lat="49.82756" lon="2.12699">
        <ele>124</ele>
        <time>2023-02-22T15:17:39Z</time>
      </trkpt>
      <trkpt lat="49.82756" lon="2.127">
        <ele>124</ele>
        <time>2023-02-22T15:17:40Z</time>
      </trkpt>
      <trkpt lat="49.82755" lon="2.12701">
        <ele>124</ele>
        <time>2023-02-22T15:17:41Z</time>
      </trkpt>
      <trkpt lat="49.82754" lon="2.12702">
        <ele>124</ele>
        <time>2023-02-22T15:17:43Z</time>
      </trkpt>
      <trkpt lat="49.82753" lon="2.12703">
        <ele>124</ele>
        <time>2023-02-22T15:17:44Z</time>
      </trkpt>
      <trkpt lat="49.82753" lon="2.12704">
        <ele>124.1</ele>
        <time>2023-02-22T15:17:45Z</time>
      </trkpt>
      <trkpt lat="49.82752" lon="2.12705">
        <ele>124.1</ele>
        <time>2023-02-22T15:17:46Z</time>
      </trkpt>
      <trkpt lat="49.82751" lon="2.12707">
        <ele>124.1</ele>
        <time>2023-02-22T15:17:47Z</time>
      </trkpt>
      <trkpt lat="49.8275" lon="2.12708">
        <ele>124.1</ele>
        <time>2023-02-22T15:17:48Z</time>
      </trkpt>
      <trkpt lat="49.82749" lon="2.12708">
        <ele>124.1</ele>
        <time>2023-02-22T15:17:49Z</time>
      </trkpt>
      <trkpt lat="49.82748" lon="2.1271">
        <ele>124.1</ele>
        <time>2023-02-22T15:17:50Z</time>
      </trkpt>
      <trkpt lat="49.82747" lon="2.12711">
        <ele>124.1</ele>
        <time>2023-02-22T15:17:51Z</time>
      </trkpt>
      <trkpt lat="49.82746" lon="2.12711">
        <ele>124.1</ele>
        <time>2023-02-22T15:17:53Z</time>
      </trkpt>
      <trkpt lat="49.82745" lon="2.12712">
        <ele>124.1</ele>
        <time>2023-02-22T15:17:54Z</time>
      </trkpt>
      <trkpt lat="49.82745" lon="2.12713">
        <ele>124.1</ele>
        <time>2023-02-22T15:17:55Z</time>
      </trkpt>
      <trkpt lat="49.82744" lon="2.12714">
        <ele>124.1</ele>
        <time>2023-02-22T15:17:56Z</time>
      </trkpt>
      <trkpt lat="49.82743" lon="2.12715">
        <ele>124.1</ele>
        <time>2023-02-22T15:17:57Z</time>
      </trkpt>
      <trkpt lat="49.82742" lon="2.12716">
        <ele>124.2</ele>
        <time>2023-02-22T15:17:58Z</time>
      </trkpt>
      <trkpt lat="49.82741" lon="2.12717">
        <ele>124.2</ele>
        <time>2023-02-22T15:17:59Z</time>
      </trkpt>
      <trkpt lat="49.8274" lon="2.12719">
        <ele>124.2</ele>
        <time>2023-02-22T15:18:00Z</time>
      </trkpt>
      <trkpt lat="49.82739" lon="2.1272">
        <ele>124.2</ele>
        <time>2023-02-22T15:18:01Z</time>
      </trkpt>
      <trkpt lat="49.82738" lon="2.12722">
        <ele>124.2</ele>
        <time>2023-02-22T15:18:03Z</time>
      </trkpt>
      <trkpt lat="49.82738" lon="2.12723">
        <ele>124.2</ele>
        <time>2023-02-22T15:18:04Z</time>
      </trkpt>
      <trkpt lat="49.82737" lon="2.12725">
        <ele>124.2</ele>
        <time>2023-02-22T15:18:05Z</time>
      </trkpt>
      <trkpt lat="49.82736" lon="2.12725">
        <ele>124.2</ele>
        <time>2023-02-22T15:18:06Z</time>
      </trkpt>
      <trkpt lat="49.82736" lon="2.12726">
        <ele>124.2</ele>
        <time>2023-02-22T15:18:07Z</time>
      </trkpt>
      <trkpt lat="49.82735" lon="2.12727">
        <ele>124.2</ele>
        <time>2023-02-22T15:18:08Z</time>
      </trkpt>
      <trkpt lat="49.82734" lon="2.12729">
        <ele>124.3</ele>
        <time>2023-02-22T15:18:10Z</time>
      </trkpt>
      <trkpt lat="49.82734" lon="2.1273">
        <ele>124.3</ele>
        <time>2023-02-22T15:18:11Z</time>
      </trkpt>
      <trkpt lat="49.82733" lon="2.12731">
        <ele>124.3</ele>
        <time>2023-02-22T15:18:12Z</time>
      </trkpt>
      <trkpt lat="49.82732" lon="2.12732">
        <ele>124.3</ele>
        <time>2023-02-22T15:18:13Z</time>
      </trkpt>
      <trkpt lat="49.82731" lon="2.12734">
        <ele>124.3</ele>
        <time>2023-02-22T15:18:14Z</time>
      </trkpt>
      <trkpt lat="49.8273" lon="2.12735">
        <ele>124.3</ele>
        <time>2023-02-22T15:18:15Z</time>
      </trkpt>
      <trkpt lat="49.8273" lon="2.12736">
        <ele>124.3</ele>
        <time>2023-02-22T15:18:16Z</time>
      </trkpt>
      <trkpt lat="49.82729" lon="2.12737">
        <ele>124.4</ele>
        <time>2023-02-22T15:18:17Z</time>
      </trkpt>
      <trkpt lat="49.82728" lon="2.12739">
        <ele>124.4</ele>
        <time>2023-02-22T15:18:18Z</time>
      </trkpt>
      <trkpt lat="49.82728" lon="2.12739">
        <ele>124.4</ele>
        <time>2023-02-22T15:18:20Z</time>
      </trkpt>
      <trkpt lat="49.82726" lon="2.12741">
        <ele>124.4</ele>
        <time>2023-02-22T15:18:21Z</time>
      </trkpt>
      <trkpt lat="49.82726" lon="2.12741">
        <ele>124.4</ele>
        <time>2023-02-22T15:18:22Z</time>
      </trkpt>
      <trkpt lat="49.82725" lon="2.12742">
        <ele>124.4</ele>
        <time>2023-02-22T15:18:23Z</time>
      </trkpt>
      <trkpt lat="49.82724" lon="2.12743">
        <ele>124.4</ele>
        <time>2023-02-22T15:18:24Z</time>
      </trkpt>
      <trkpt lat="49.82722" lon="2.12744">
        <ele>124.4</ele>
        <time>2023-02-22T15:18:25Z</time>
      </trkpt>
      <trkpt lat="49.82722" lon="2.12744">
        <ele>124.5</ele>
        <time>2023-02-22T15:18:27Z</time>
      </trkpt>
      <trkpt lat="49.8272" lon="2.12744">
        <ele>124.5</ele>
        <time>2023-02-22T15:18:28Z</time>
      </trkpt>
      <trkpt lat="49.82719" lon="2.12744">
        <ele>124.5</ele>
        <time>2023-02-22T15:18:29Z</time>
      </trkpt>
      <trkpt lat="49.82718" lon="2.12744">
        <ele>124.5</ele>
        <time>2023-02-22T15:18:30Z</time>
      </trkpt>
      <trkpt lat="49.82716" lon="2.12744">
        <ele>124.5</ele>
        <time>2023-02-22T15:18:31Z</time>
      </trkpt>
      <trkpt lat="49.82715" lon="2.12744">
        <ele>124.5</ele>
        <time>2023-02-22T15:18:32Z</time>
      </trkpt>
      <trkpt lat="49.82713" lon="2.12743">
        <ele>124.6</ele>
        <time>2023-02-22T15:18:33Z</time>
      </trkpt>
      <trkpt lat="49.82712" lon="2.12742">
        <ele>124.7</ele>
        <time>2023-02-22T15:18:34Z</time>
      </trkpt>
      <trkpt lat="49.82711" lon="2.12742">
        <ele>124.8</ele>
        <time>2023-02-22T15:18:35Z</time>
      </trkpt>
      <trkpt lat="49.8271" lon="2.12741">
        <ele>124.9</ele>
        <time>2023-02-22T15:18:36Z</time>
      </trkpt>
      <trkpt lat="49.82709" lon="2.1274">
        <ele>125</ele>
        <time>2023-02-22T15:18:38Z</time>
      </trkpt>
      <trkpt lat="49.82708" lon="2.12739">
        <ele>125.1</ele>
        <time>2023-02-22T15:18:39Z</time>
      </trkpt>
      <trkpt lat="49.82707" lon="2.12737">
        <ele>125.2</ele>
        <time>2023-02-22T15:18:40Z</time>
      </trkpt>
      <trkpt lat="49.82706" lon="2.12735">
        <ele>125.3</ele>
        <time>2023-02-22T15:18:41Z</time>
      </trkpt>
      <trkpt lat="49.82706" lon="2.12734">
        <ele>125.3</ele>
        <time>2023-02-22T15:18:42Z</time>
      </trkpt>
      <trkpt lat="49.82705" lon="2.12733">
        <ele>125.3</ele>
        <time>2023-02-22T15:18:43Z</time>
      </trkpt>
      <trkpt lat="49.82704" lon="2.12731">
        <ele>125.3</ele>
        <time>2023-02-22T15:18:44Z</time>
      </trkpt>
      <trkpt lat="49.82703" lon="2.12729">
        <ele>125.3</ele>
        <time>2023-02-22T15:18:45Z</time>
      </trkpt>
      <trkpt lat="49.82703" lon="2.12727">
        <ele>125.3</ele>
        <time>2023-02-22T15:18:46Z</time>
      </trkpt>
      <trkpt lat="49.82702" lon="2.12724">
        <ele>125.3</ele>
        <time>2023-02-22T15:18:48Z</time>
      </trkpt>
      <trkpt lat="49.82701" lon="2.12723">
        <ele>125.3</ele>
        <time>2023-02-22T15:18:49Z</time>
      </trkpt>
      <trkpt lat="49.82701" lon="2.12722">
        <ele>125.3</ele>
        <time>2023-02-22T15:18:50Z</time>
      </trkpt>
      <trkpt lat="49.827" lon="2.12719">
        <ele>125.3</ele>
        <time>2023-02-22T15:18:51Z</time>
      </trkpt>
      <trkpt lat="49.827" lon="2.12718">
        <ele>125.3</ele>
        <time>2023-02-22T15:18:52Z</time>
      </trkpt>
      <trkpt lat="49.82699" lon="2.12717">
        <ele>125.2</ele>
        <time>2023-02-22T15:18:53Z</time>
      </trkpt>
      <trkpt lat="49.82698" lon="2.12715">
        <ele>125.2</ele>
        <time>2023-02-22T15:18:55Z</time>
      </trkpt>
      <trkpt lat="49.82697" lon="2.12714">
        <ele>125.2</ele>
        <time>2023-02-22T15:18:56Z</time>
      </trkpt>
      <trkpt lat="49.82696" lon="2.12712">
        <ele>125.2</ele>
        <time>2023-02-22T15:18:57Z</time>
      </trkpt>
      <trkpt lat="49.82695" lon="2.1271">
        <ele>125.2</ele>
        <time>2023-02-22T15:18:58Z</time>
      </trkpt>
      <trkpt lat="49.82695" lon="2.12709">
        <ele>125.1</ele>
        <time>2023-02-22T15:18:59Z</time>
      </trkpt>
      <trkpt lat="49.82693" lon="2.12707">
        <ele>125.1</ele>
        <time>2023-02-22T15:19:00Z</time>
      </trkpt>
      <trkpt lat="49.82693" lon="2.12705">
        <ele>125.1</ele>
        <time>2023-02-22T15:19:01Z</time>
      </trkpt>
      <trkpt lat="49.82692" lon="2.12704">
        <ele>125.1</ele>
        <time>2023-02-22T15:19:02Z</time>
      </trkpt>
      <trkpt lat="49.82691" lon="2.12703">
        <ele>125.1</ele>
        <time>2023-02-22T15:19:03Z</time>
      </trkpt>
      <trkpt lat="49.82691" lon="2.12701">
        <ele>125.1</ele>
        <time>2023-02-22T15:19:05Z</time>
      </trkpt>
      <trkpt lat="49.8269" lon="2.127">
        <ele>125.1</ele>
        <time>2023-02-22T15:19:06Z</time>
      </trkpt>
      <trkpt lat="49.82689" lon="2.12698">
        <ele>125.1</ele>
        <time>2023-02-22T15:19:07Z</time>
      </trkpt>
      <trkpt lat="49.82689" lon="2.12696">
        <ele>125.1</ele>
        <time>2023-02-22T15:19:08Z</time>
      </trkpt>
      <trkpt lat="49.82688" lon="2.12695">
        <ele>125.1</ele>
        <time>2023-02-22T15:19:09Z</time>
      </trkpt>
      <trkpt lat="49.82687" lon="2.12694">
        <ele>125.1</ele>
        <time>2023-02-22T15:19:10Z</time>
      </trkpt>
      <trkpt lat="49.82686" lon="2.12691">
        <ele>125.1</ele>
        <time>2023-02-22T15:19:11Z</time>
      </trkpt>
      <trkpt lat="49.82685" lon="2.1269">
        <ele>125.1</ele>
        <time>2023-02-22T15:19:12Z</time>
      </trkpt>
      <trkpt lat="49.82685" lon="2.12688">
        <ele>125.1</ele>
        <time>2023-02-22T15:19:14Z</time>
      </trkpt>
      <trkpt lat="49.82684" lon="2.12687">
        <ele>125.1</ele>
        <time>2023-02-22T15:19:15Z</time>
      </trkpt>
      <trkpt lat="49.82683" lon="2.12685">
        <ele>125.1</ele>
        <time>2023-02-22T15:19:16Z</time>
      </trkpt>
      <trkpt lat="49.82683" lon="2.12684">
        <ele>125.1</ele>
        <time>2023-02-22T15:19:17Z</time>
      </trkpt>
      <trkpt lat="49.82682" lon="2.12682">
        <ele>125.1</ele>
        <time>2023-02-22T15:19:18Z</time>
      </trkpt>
      <trkpt lat="49.82682" lon="2.12681">
        <ele>125.1</ele>
        <time>2023-02-22T15:19:19Z</time>
      </trkpt>
      <trkpt lat="49.82681" lon="2.12679">
        <ele>125.1</ele>
        <time>2023-02-22T15:19:20Z</time>
      </trkpt>
      <trkpt lat="49.8268" lon="2.12677">
        <ele>125</ele>
        <time>2023-02-22T15:19:21Z</time>
      </trkpt>
      <trkpt lat="49.82679" lon="2.12675">
        <ele>125</ele>
        <time>2023-02-22T15:19:23Z</time>
      </trkpt>
      <trkpt lat="49.82679" lon="2.12673">
        <ele>125</ele>
        <time>2023-02-22T15:19:24Z</time>
      </trkpt>
      <trkpt lat="49.82678" lon="2.12671">
        <ele>125</ele>
        <time>2023-02-22T15:19:25Z</time>
      </trkpt>
      <trkpt lat="49.82677" lon="2.12669">
        <ele>125</ele>
        <time>2023-02-22T15:19:26Z</time>
      </trkpt>
      <trkpt lat="49.82677" lon="2.12668">
        <ele>124.9</ele>
        <time>2023-02-22T15:19:27Z</time>
      </trkpt>
      <trkpt lat="49.82676" lon="2.12666">
        <ele>124.9</ele>
        <time>2023-02-22T15:19:28Z</time>
      </trkpt>
      <trkpt lat="49.82676" lon="2.12664">
        <ele>124.9</ele>
        <time>2023-02-22T15:19:30Z</time>
      </trkpt>
      <trkpt lat="49.82675" lon="2.12663">
        <ele>124.9</ele>
        <time>2023-02-22T15:19:31Z</time>
      </trkpt>
      <trkpt lat="49.82675" lon="2.12661">
        <ele>124.9</ele>
        <time>2023-02-22T15:19:32Z</time>
      </trkpt>
      <trkpt lat="49.82674" lon="2.1266">
        <ele>124.9</ele>
        <time>2023-02-22T15:19:33Z</time>
      </trkpt>
      <trkpt lat="49.82673" lon="2.12657">
        <ele>124.9</ele>
        <time>2023-02-22T15:19:34Z</time>
      </trkpt>
      <trkpt lat="49.82673" lon="2.12656">
        <ele>124.9</ele>
        <time>2023-02-22T15:19:35Z</time>
      </trkpt>
      <trkpt lat="49.82673" lon="2.12654">
        <ele>124.9</ele>
        <time>2023-02-22T15:19:36Z</time>
      </trkpt>
      <trkpt lat="49.82672" lon="2.12653">
        <ele>124.9</ele>
        <time>2023-02-22T15:19:37Z</time>
      </trkpt>
      <trkpt lat="49.82672" lon="2.12651">
        <ele>124.9</ele>
        <time>2023-02-22T15:19:38Z</time>
      </trkpt>
      <trkpt lat="49.82671" lon="2.12649">
        <ele>124.9</ele>
        <time>2023-02-22T15:19:39Z</time>
      </trkpt>
      <trkpt lat="49.82671" lon="2.12647">
        <ele>124.9</ele>
        <time>2023-02-22T15:19:40Z</time>
      </trkpt>
      <trkpt lat="49.82671" lon="2.12646">
        <ele>125</ele>
        <time>2023-02-22T15:19:42Z</time>
      </trkpt>
      <trkpt lat="49.8267" lon="2.12645">
        <ele>125</ele>
        <time>2023-02-22T15:19:43Z</time>
      </trkpt>
      <trkpt lat="49.82669" lon="2.12642">
        <ele>125</ele>
        <time>2023-02-22T15:19:44Z</time>
      </trkpt>
      <trkpt lat="49.82669" lon="2.12641">
        <ele>125</ele>
        <time>2023-02-22T15:19:45Z</time>
      </trkpt>
      <trkpt lat="49.82668" lon="2.12639">
        <ele>125</ele>
        <time>2023-02-22T15:19:46Z</time>
      </trkpt>
      <trkpt lat="49.82668" lon="2.12638">
        <ele>125</ele>
        <time>2023-02-22T15:19:47Z</time>
      </trkpt>
      <trkpt lat="49.82667" lon="2.12637">
        <ele>125</ele>
        <time>2023-02-22T15:19:49Z</time>
      </trkpt>
      <trkpt lat="49.82666" lon="2.12635">
        <ele>125</ele>
        <time>2023-02-22T15:19:50Z</time>
      </trkpt>
      <trkpt lat="49.82666" lon="2.12632">
        <ele>125</ele>
        <time>2023-02-22T15:19:51Z</time>
      </trkpt>
      <trkpt lat="49.82665" lon="2.12631">
        <ele>125.1</ele>
        <time>2023-02-22T15:19:52Z</time>
      </trkpt>
      <trkpt lat="49.82664" lon="2.12629">
        <ele>125.1</ele>
        <time>2023-02-22T15:19:53Z</time>
      </trkpt>
      <trkpt lat="49.82663" lon="2.12627">
        <ele>125.1</ele>
        <time>2023-02-22T15:19:55Z</time>
      </trkpt>
      <trkpt lat="49.82663" lon="2.12626">
        <ele>125.1</ele>
        <time>2023-02-22T15:19:56Z</time>
      </trkpt>
      <trkpt lat="49.82662" lon="2.12625">
        <ele>125.2</ele>
        <time>2023-02-22T15:19:57Z</time>
      </trkpt>
      <trkpt lat="49.82662" lon="2.12623">
        <ele>125.2</ele>
        <time>2023-02-22T15:19:58Z</time>
      </trkpt>
      <trkpt lat="49.82661" lon="2.12621">
        <ele>125.2</ele>
        <time>2023-02-22T15:19:59Z</time>
      </trkpt>
      <trkpt lat="49.82661" lon="2.1262">
        <ele>125.3</ele>
        <time>2023-02-22T15:20:00Z</time>
      </trkpt>
      <trkpt lat="49.8266" lon="2.12618">
        <ele>125.3</ele>
        <time>2023-02-22T15:20:01Z</time>
      </trkpt>
      <trkpt lat="49.82659" lon="2.12616">
        <ele>125.3</ele>
        <time>2023-02-22T15:20:02Z</time>
      </trkpt>
      <trkpt lat="49.82659" lon="2.12614">
        <ele>125.4</ele>
        <time>2023-02-22T15:20:04Z</time>
      </trkpt>
      <trkpt lat="49.82658" lon="2.12612">
        <ele>125.4</ele>
        <time>2023-02-22T15:20:05Z</time>
      </trkpt>
      <trkpt lat="49.82657" lon="2.1261">
        <ele>125.5</ele>
        <time>2023-02-22T15:20:06Z</time>
      </trkpt>
      <trkpt lat="49.82657" lon="2.12609">
        <ele>125.5</ele>
        <time>2023-02-22T15:20:07Z</time>
      </trkpt>
      <trkpt lat="49.82656" lon="2.12607">
        <ele>125.5</ele>
        <time>2023-02-22T15:20:08Z</time>
      </trkpt>
      <trkpt lat="49.82656" lon="2.12606">
        <ele>125.5</ele>
        <time>2023-02-22T15:20:10Z</time>
      </trkpt>
      <trkpt lat="49.82655" lon="2.12605">
        <ele>125.5</ele>
        <time>2023-02-22T15:20:11Z</time>
      </trkpt>
      <trkpt lat="49.82655" lon="2.12604">
        <ele>125.5</ele>
        <time>2023-02-22T15:20:12Z</time>
      </trkpt>
      <trkpt lat="49.82654" lon="2.12602">
        <ele>125.5</ele>
        <time>2023-02-22T15:20:13Z</time>
      </trkpt>
      <trkpt lat="49.82653" lon="2.126">
        <ele>125.5</ele>
        <time>2023-02-22T15:20:14Z</time>
      </trkpt>
      <trkpt lat="49.82652" lon="2.12598">
        <ele>125.5</ele>
        <time>2023-02-22T15:20:15Z</time>
      </trkpt>
      <trkpt lat="49.82652" lon="2.12597">
        <ele>125.5</ele>
        <time>2023-02-22T15:20:16Z</time>
      </trkpt>
      <trkpt lat="49.82651" lon="2.12596">
        <ele>125.4</ele>
        <time>2023-02-22T15:20:18Z</time>
      </trkpt>
      <trkpt lat="49.82651" lon="2.12594">
        <ele>125.4</ele>
        <time>2023-02-22T15:20:19Z</time>
      </trkpt>
      <trkpt lat="49.8265" lon="2.12593">
        <ele>125.4</ele>
        <time>2023-02-22T15:20:20Z</time>
      </trkpt>
      <trkpt lat="49.82649" lon="2.1259">
        <ele>125.3</ele>
        <time>2023-02-22T15:20:21Z</time>
      </trkpt>
      <trkpt lat="49.82648" lon="2.12589">
        <ele>125.3</ele>
        <time>2023-02-22T15:20:22Z</time>
      </trkpt>
      <trkpt lat="49.82647" lon="2.12587">
        <ele>125.3</ele>
        <time>2023-02-22T15:20:23Z</time>
      </trkpt>
      <trkpt lat="49.82647" lon="2.12586">
        <ele>125.2</ele>
        <time>2023-02-22T15:20:24Z</time>
      </trkpt>
      <trkpt lat="49.82646" lon="2.12584">
        <ele>125.2</ele>
        <time>2023-02-22T15:20:26Z</time>
      </trkpt>
      <trkpt lat="49.82645" lon="2.12582">
        <ele>125.1</ele>
        <time>2023-02-22T15:20:27Z</time>
      </trkpt>
      <trkpt lat="49.82644" lon="2.1258">
        <ele>125.1</ele>
        <time>2023-02-22T15:20:28Z</time>
      </trkpt>
      <trkpt lat="49.82644" lon="2.12578">
        <ele>125.1</ele>
        <time>2023-02-22T15:20:29Z</time>
      </trkpt>
      <trkpt lat="49.82643" lon="2.12576">
        <ele>125</ele>
        <time>2023-02-22T15:20:30Z</time>
      </trkpt>
      <trkpt lat="49.82642" lon="2.12572">
        <ele>125</ele>
        <time>2023-02-22T15:20:31Z</time>
      </trkpt>
      <trkpt lat="49.82642" lon="2.12571">
        <ele>125</ele>
        <time>2023-02-22T15:20:32Z</time>
      </trkpt>
      <trkpt lat="49.82641" lon="2.12568">
        <ele>124.9</ele>
        <time>2023-02-22T15:20:33Z</time>
      </trkpt>
      <trkpt lat="49.82641" lon="2.12567">
        <ele>124.9</ele>
        <time>2023-02-22T15:20:34Z</time>
      </trkpt>
      <trkpt lat="49.82641" lon="2.12565">
        <ele>124.9</ele>
        <time>2023-02-22T15:20:35Z</time>
      </trkpt>
      <trkpt lat="49.8264" lon="2.12563">
        <ele>124.9</ele>
        <time>2023-02-22T15:20:37Z</time>
      </trkpt>
      <trkpt lat="49.8264" lon="2.12561">
        <ele>124.8</ele>
        <time>2023-02-22T15:20:38Z</time>
      </trkpt>
      <trkpt lat="49.82639" lon="2.1256">
        <ele>124.8</ele>
        <time>2023-02-22T15:20:39Z</time>
      </trkpt>
      <trkpt lat="49.82638" lon="2.12558">
        <ele>124.8</ele>
        <time>2023-02-22T15:20:40Z</time>
      </trkpt>
      <trkpt lat="49.82638" lon="2.12555">
        <ele>124.8</ele>
        <time>2023-02-22T15:20:41Z</time>
      </trkpt>
      <trkpt lat="49.82637" lon="2.12554">
        <ele>124.7</ele>
        <time>2023-02-22T15:20:42Z</time>
      </trkpt>
      <trkpt lat="49.82636" lon="2.12552">
        <ele>124.7</ele>
        <time>2023-02-22T15:20:44Z</time>
      </trkpt>
      <trkpt lat="49.82635" lon="2.1255">
        <ele>124.7</ele>
        <time>2023-02-22T15:20:45Z</time>
      </trkpt>
      <trkpt lat="49.82634" lon="2.12548">
        <ele>124.7</ele>
        <time>2023-02-22T15:20:46Z</time>
      </trkpt>
      <trkpt lat="49.82634" lon="2.12546">
        <ele>124.6</ele>
        <time>2023-02-22T15:20:47Z</time>
      </trkpt>
      <trkpt lat="49.82633" lon="2.12545">
        <ele>124.6</ele>
        <time>2023-02-22T15:20:48Z</time>
      </trkpt>
      <trkpt lat="49.82633" lon="2.12544">
        <ele>124.6</ele>
        <time>2023-02-22T15:20:50Z</time>
      </trkpt>
      <trkpt lat="49.82632" lon="2.12542">
        <ele>124.6</ele>
        <time>2023-02-22T15:20:51Z</time>
      </trkpt>
      <trkpt lat="49.82631" lon="2.12539">
        <ele>124.6</ele>
        <time>2023-02-22T15:20:52Z</time>
      </trkpt>
      <trkpt lat="49.82631" lon="2.12538">
        <ele>124.6</ele>
        <time>2023-02-22T15:20:53Z</time>
      </trkpt>
      <trkpt lat="49.8263" lon="2.12537">
        <ele>124.6</ele>
        <time>2023-02-22T15:20:54Z</time>
      </trkpt>
      <trkpt lat="49.82629" lon="2.12536">
        <ele>124.5</ele>
        <time>2023-02-22T15:20:55Z</time>
      </trkpt>
      <trkpt lat="49.82629" lon="2.12533">
        <ele>124.5</ele>
        <time>2023-02-22T15:20:56Z</time>
      </trkpt>
      <trkpt lat="49.82628" lon="2.12532">
        <ele>124.5</ele>
        <time>2023-02-22T15:20:57Z</time>
      </trkpt>
      <trkpt lat="49.82627" lon="2.12531">
        <ele>124.5</ele>
        <time>2023-02-22T15:20:58Z</time>
      </trkpt>
      <trkpt lat="49.82627" lon="2.12529">
        <ele>124.5</ele>
        <time>2023-02-22T15:20:59Z</time>
      </trkpt>
      <trkpt lat="49.82626" lon="2.12527">
        <ele>124.5</ele>
        <time>2023-02-22T15:21:00Z</time>
      </trkpt>
      <trkpt lat="49.82625" lon="2.12524">
        <ele>124.6</ele>
        <time>2023-02-22T15:21:01Z</time>
      </trkpt>
      <trkpt lat="49.82624" lon="2.12523">
        <ele>124.6</ele>
        <time>2023-02-22T15:21:03Z</time>
      </trkpt>
      <trkpt lat="49.82624" lon="2.12522">
        <ele>124.6</ele>
        <time>2023-02-22T15:21:04Z</time>
      </trkpt>
      <trkpt lat="49.82624" lon="2.1252">
        <ele>124.6</ele>
        <time>2023-02-22T15:21:05Z</time>
      </trkpt>
      <trkpt lat="49.82623" lon="2.12519">
        <ele>124.6</ele>
        <time>2023-02-22T15:21:06Z</time>
      </trkpt>
      <trkpt lat="49.82622" lon="2.12516">
        <ele>124.6</ele>
        <time>2023-02-22T15:21:07Z</time>
      </trkpt>
      <trkpt lat="49.82622" lon="2.12515">
        <ele>124.6</ele>
        <time>2023-02-22T15:21:08Z</time>
      </trkpt>
      <trkpt lat="49.82621" lon="2.12514">
        <ele>124.6</ele>
        <time>2023-02-22T15:21:09Z</time>
      </trkpt>
      <trkpt lat="49.82621" lon="2.12512">
        <ele>124.7</ele>
        <time>2023-02-22T15:21:10Z</time>
      </trkpt>
      <trkpt lat="49.8262" lon="2.1251">
        <ele>124.7</ele>
        <time>2023-02-22T15:21:11Z</time>
      </trkpt>
      <trkpt lat="49.82619" lon="2.12505">
        <ele>124.7</ele>
        <time>2023-02-22T15:21:13Z</time>
      </trkpt>
      <trkpt lat="49.82619" lon="2.12504">
        <ele>124.7</ele>
        <time>2023-02-22T15:21:15Z</time>
      </trkpt>
      <trkpt lat="49.82618" lon="2.12503">
        <ele>124.7</ele>
        <time>2023-02-22T15:21:16Z</time>
      </trkpt>
      <trkpt lat="49.82618" lon="2.12502">
        <ele>124.7</ele>
        <time>2023-02-22T15:21:17Z</time>
      </trkpt>
      <trkpt lat="49.82617" lon="2.125">
        <ele>124.7</ele>
        <time>2023-02-22T15:21:18Z</time>
      </trkpt>
      <trkpt lat="49.82617" lon="2.12499">
        <ele>124.7</ele>
        <time>2023-02-22T15:21:19Z</time>
      </trkpt>
      <trkpt lat="49.82616" lon="2.12497">
        <ele>124.7</ele>
        <time>2023-02-22T15:21:20Z</time>
      </trkpt>
      <trkpt lat="49.82615" lon="2.12495">
        <ele>124.7</ele>
        <time>2023-02-22T15:21:22Z</time>
      </trkpt>
      <trkpt lat="49.82614" lon="2.12492">
        <ele>124.7</ele>
        <time>2023-02-22T15:21:23Z</time>
      </trkpt>
      <trkpt lat="49.82614" lon="2.12491">
        <ele>124.8</ele>
        <time>2023-02-22T15:21:24Z</time>
      </trkpt>
      <trkpt lat="49.82613" lon="2.1249">
        <ele>124.8</ele>
        <time>2023-02-22T15:21:25Z</time>
      </trkpt>
      <trkpt lat="49.82613" lon="2.12487">
        <ele>124.8</ele>
        <time>2023-02-22T15:21:27Z</time>
      </trkpt>
      <trkpt lat="49.82612" lon="2.12487">
        <ele>124.8</ele>
        <time>2023-02-22T15:21:28Z</time>
      </trkpt>
      <trkpt lat="49.82612" lon="2.12485">
        <ele>124.8</ele>
        <time>2023-02-22T15:21:29Z</time>
      </trkpt>
      <trkpt lat="49.8261" lon="2.12483">
        <ele>124.8</ele>
        <time>2023-02-22T15:21:30Z</time>
      </trkpt>
      <trkpt lat="49.8261" lon="2.12482">
        <ele>124.8</ele>
        <time>2023-02-22T15:21:31Z</time>
      </trkpt>
      <trkpt lat="49.82609" lon="2.12481">
        <ele>124.8</ele>
        <time>2023-02-22T15:21:32Z</time>
      </trkpt>
      <trkpt lat="49.82608" lon="2.12479">
        <ele>124.8</ele>
        <time>2023-02-22T15:21:33Z</time>
      </trkpt>
      <trkpt lat="49.82607" lon="2.12478">
        <ele>124.8</ele>
        <time>2023-02-22T15:21:35Z</time>
      </trkpt>
      <trkpt lat="49.82607" lon="2.12477">
        <ele>124.9</ele>
        <time>2023-02-22T15:21:36Z</time>
      </trkpt>
      <trkpt lat="49.82606" lon="2.12474">
        <ele>124.9</ele>
        <time>2023-02-22T15:21:37Z</time>
      </trkpt>
      <trkpt lat="49.82605" lon="2.12472">
        <ele>124.9</ele>
        <time>2023-02-22T15:21:38Z</time>
      </trkpt>
      <trkpt lat="49.82605" lon="2.12471">
        <ele>124.9</ele>
        <time>2023-02-22T15:21:39Z</time>
      </trkpt>
      <trkpt lat="49.82604" lon="2.1247">
        <ele>124.9</ele>
        <time>2023-02-22T15:21:40Z</time>
      </trkpt>
      <trkpt lat="49.82604" lon="2.12468">
        <ele>124.9</ele>
        <time>2023-02-22T15:21:41Z</time>
      </trkpt>
      <trkpt lat="49.82603" lon="2.12466">
        <ele>125</ele>
        <time>2023-02-22T15:21:42Z</time>
      </trkpt>
      <trkpt lat="49.82603" lon="2.12465">
        <ele>125</ele>
        <time>2023-02-22T15:21:43Z</time>
      </trkpt>
      <trkpt lat="49.82602" lon="2.12463">
        <ele>125</ele>
        <time>2023-02-22T15:21:45Z</time>
      </trkpt>
      <trkpt lat="49.82602" lon="2.12461">
        <ele>125</ele>
        <time>2023-02-22T15:21:46Z</time>
      </trkpt>
      <trkpt lat="49.82601" lon="2.12459">
        <ele>125</ele>
        <time>2023-02-22T15:21:47Z</time>
      </trkpt>
      <trkpt lat="49.82601" lon="2.12458">
        <ele>125</ele>
        <time>2023-02-22T15:21:48Z</time>
      </trkpt>
      <trkpt lat="49.826" lon="2.12456">
        <ele>125</ele>
        <time>2023-02-22T15:21:49Z</time>
      </trkpt>
      <trkpt lat="49.826" lon="2.12455">
        <ele>125</ele>
        <time>2023-02-22T15:21:50Z</time>
      </trkpt>
      <trkpt lat="49.82599" lon="2.12453">
        <ele>125</ele>
        <time>2023-02-22T15:21:51Z</time>
      </trkpt>
      <trkpt lat="49.82598" lon="2.12451">
        <ele>124.9</ele>
        <time>2023-02-22T15:21:53Z</time>
      </trkpt>
      <trkpt lat="49.82598" lon="2.1245">
        <ele>124.9</ele>
        <time>2023-02-22T15:21:54Z</time>
      </trkpt>
      <trkpt lat="49.82597" lon="2.12448">
        <ele>124.9</ele>
        <time>2023-02-22T15:21:55Z</time>
      </trkpt>
      <trkpt lat="49.82596" lon="2.12446">
        <ele>124.9</ele>
        <time>2023-02-22T15:21:56Z</time>
      </trkpt>
      <trkpt lat="49.82595" lon="2.12443">
        <ele>124.9</ele>
        <time>2023-02-22T15:21:57Z</time>
      </trkpt>
      <trkpt lat="49.82594" lon="2.12442">
        <ele>124.9</ele>
        <time>2023-02-22T15:21:58Z</time>
      </trkpt>
      <trkpt lat="49.82594" lon="2.12441">
        <ele>124.8</ele>
        <time>2023-02-22T15:21:59Z</time>
      </trkpt>
      <trkpt lat="49.82593" lon="2.1244">
        <ele>124.8</ele>
        <time>2023-02-22T15:22:01Z</time>
      </trkpt>
      <trkpt lat="49.82593" lon="2.12438">
        <ele>124.8</ele>
        <time>2023-02-22T15:22:02Z</time>
      </trkpt>
      <trkpt lat="49.82593" lon="2.12437">
        <ele>124.8</ele>
        <time>2023-02-22T15:22:03Z</time>
      </trkpt>
      <trkpt lat="49.82592" lon="2.12436">
        <ele>124.8</ele>
        <time>2023-02-22T15:22:04Z</time>
      </trkpt>
      <trkpt lat="49.82591" lon="2.12434">
        <ele>124.8</ele>
        <time>2023-02-22T15:22:05Z</time>
      </trkpt>
      <trkpt lat="49.82591" lon="2.12433">
        <ele>124.8</ele>
        <time>2023-02-22T15:22:06Z</time>
      </trkpt>
      <trkpt lat="49.82589" lon="2.1243">
        <ele>124.7</ele>
        <time>2023-02-22T15:22:07Z</time>
      </trkpt>
      <trkpt lat="49.82589" lon="2.12429">
        <ele>124.7</ele>
        <time>2023-02-22T15:22:08Z</time>
      </trkpt>
      <trkpt lat="49.82589" lon="2.12428">
        <ele>124.7</ele>
        <time>2023-02-22T15:22:09Z</time>
      </trkpt>
      <trkpt lat="49.82588" lon="2.12426">
        <ele>124.7</ele>
        <time>2023-02-22T15:22:10Z</time>
      </trkpt>
      <trkpt lat="49.82587" lon="2.12424">
        <ele>124.7</ele>
        <time>2023-02-22T15:22:11Z</time>
      </trkpt>
      <trkpt lat="49.82586" lon="2.12422">
        <ele>124.6</ele>
        <time>2023-02-22T15:22:13Z</time>
      </trkpt>
      <trkpt lat="49.82586" lon="2.12421">
        <ele>124.6</ele>
        <time>2023-02-22T15:22:14Z</time>
      </trkpt>
      <trkpt lat="49.82586" lon="2.1242">
        <ele>124.6</ele>
        <time>2023-02-22T15:22:15Z</time>
      </trkpt>
      <trkpt lat="49.82585" lon="2.12419">
        <ele>124.6</ele>
        <time>2023-02-22T15:22:16Z</time>
      </trkpt>
      <trkpt lat="49.82585" lon="2.12417">
        <ele>124.6</ele>
        <time>2023-02-22T15:22:17Z</time>
      </trkpt>
      <trkpt lat="49.82584" lon="2.12415">
        <ele>124.6</ele>
        <time>2023-02-22T15:22:18Z</time>
      </trkpt>
      <trkpt lat="49.82584" lon="2.12414">
        <ele>124.6</ele>
        <time>2023-02-22T15:22:19Z</time>
      </trkpt>
      <trkpt lat="49.82583" lon="2.12412">
        <ele>124.6</ele>
        <time>2023-02-22T15:22:20Z</time>
      </trkpt>
      <trkpt lat="49.82582" lon="2.12411">
        <ele>124.6</ele>
        <time>2023-02-22T15:22:21Z</time>
      </trkpt>
      <trkpt lat="49.82582" lon="2.12409">
        <ele>124.6</ele>
        <time>2023-02-22T15:22:22Z</time>
      </trkpt>
      <trkpt lat="49.82582" lon="2.12408">
        <ele>124.6</ele>
        <time>2023-02-22T15:22:24Z</time>
      </trkpt>
      <trkpt lat="49.82581" lon="2.12407">
        <ele>124.6</ele>
        <time>2023-02-22T15:22:25Z</time>
      </trkpt>
      <trkpt lat="49.8258" lon="2.12405">
        <ele>124.6</ele>
        <time>2023-02-22T15:22:26Z</time>
      </trkpt>
      <trkpt lat="49.82579" lon="2.12403">
        <ele>124.6</ele>
        <time>2023-02-22T15:22:27Z</time>
      </trkpt>
      <trkpt lat="49.82579" lon="2.12402">
        <ele>124.6</ele>
        <time>2023-02-22T15:22:28Z</time>
      </trkpt>
      <trkpt lat="49.82578" lon="2.124">
        <ele>124.6</ele>
        <time>2023-02-22T15:22:30Z</time>
      </trkpt>
      <trkpt lat="49.82578" lon="2.12398">
        <ele>124.6</ele>
        <time>2023-02-22T15:22:31Z</time>
      </trkpt>
      <trkpt lat="49.82577" lon="2.12396">
        <ele>124.6</ele>
        <time>2023-02-22T15:22:33Z</time>
      </trkpt>
      <trkpt lat="49.82577" lon="2.12394">
        <ele>124.5</ele>
        <time>2023-02-22T15:22:34Z</time>
      </trkpt>
      <trkpt lat="49.82575" lon="2.12391">
        <ele>124.5</ele>
        <time>2023-02-22T15:22:35Z</time>
      </trkpt>
      <trkpt lat="49.82575" lon="2.1239">
        <ele>124.5</ele>
        <time>2023-02-22T15:22:36Z</time>
      </trkpt>
      <trkpt lat="49.82574" lon="2.12389">
        <ele>124.5</ele>
        <time>2023-02-22T15:22:37Z</time>
      </trkpt>
      <trkpt lat="49.82574" lon="2.12387">
        <ele>124.5</ele>
        <time>2023-02-22T15:22:38Z</time>
      </trkpt>
      <trkpt lat="49.82573" lon="2.12386">
        <ele>124.5</ele>
        <time>2023-02-22T15:22:39Z</time>
      </trkpt>
      <trkpt lat="49.82573" lon="2.12384">
        <ele>124.5</ele>
        <time>2023-02-22T15:22:41Z</time>
      </trkpt>
      <trkpt lat="49.82572" lon="2.12382">
        <ele>124.5</ele>
        <time>2023-02-22T15:22:42Z</time>
      </trkpt>
      <trkpt lat="49.82571" lon="2.1238">
        <ele>124.5</ele>
        <time>2023-02-22T15:22:43Z</time>
      </trkpt>
      <trkpt lat="49.8257" lon="2.12377">
        <ele>124.5</ele>
        <time>2023-02-22T15:22:44Z</time>
      </trkpt>
      <trkpt lat="49.82569" lon="2.12376">
        <ele>124.5</ele>
        <time>2023-02-22T15:22:45Z</time>
      </trkpt>
      <trkpt lat="49.82569" lon="2.12375">
        <ele>124.5</ele>
        <time>2023-02-22T15:22:46Z</time>
      </trkpt>
      <trkpt lat="49.82568" lon="2.12372">
        <ele>124.5</ele>
        <time>2023-02-22T15:22:47Z</time>
      </trkpt>
      <trkpt lat="49.82567" lon="2.12371">
        <ele>124.5</ele>
        <time>2023-02-22T15:22:49Z</time>
      </trkpt>
      <trkpt lat="49.82567" lon="2.1237">
        <ele>124.5</ele>
        <time>2023-02-22T15:22:50Z</time>
      </trkpt>
      <trkpt lat="49.82566" lon="2.12369">
        <ele>124.5</ele>
        <time>2023-02-22T15:22:51Z</time>
      </trkpt>
      <trkpt lat="49.82565" lon="2.12366">
        <ele>124.5</ele>
        <time>2023-02-22T15:22:52Z</time>
      </trkpt>
      <trkpt lat="49.82564" lon="2.12362">
        <ele>124.5</ele>
        <time>2023-02-22T15:22:54Z</time>
      </trkpt>
      <trkpt lat="49.82563" lon="2.12361">
        <ele>124.5</ele>
        <time>2023-02-22T15:22:56Z</time>
      </trkpt>
      <trkpt lat="49.82563" lon="2.12359">
        <ele>124.5</ele>
        <time>2023-02-22T15:22:57Z</time>
      </trkpt>
      <trkpt lat="49.82562" lon="2.12358">
        <ele>124.5</ele>
        <time>2023-02-22T15:22:58Z</time>
      </trkpt>
      <trkpt lat="49.82562" lon="2.12357">
        <ele>124.5</ele>
        <time>2023-02-22T15:22:59Z</time>
      </trkpt>
      <trkpt lat="49.82561" lon="2.12353">
        <ele>124.5</ele>
        <time>2023-02-22T15:23:01Z</time>
      </trkpt>
      <trkpt lat="49.8256" lon="2.12351">
        <ele>124.5</ele>
        <time>2023-02-22T15:23:03Z</time>
      </trkpt>
      <trkpt lat="49.82559" lon="2.12349">
        <ele>124.5</ele>
        <time>2023-02-22T15:23:04Z</time>
      </trkpt>
      <trkpt lat="49.82558" lon="2.12348">
        <ele>124.5</ele>
        <time>2023-02-22T15:23:05Z</time>
      </trkpt>
      <trkpt lat="49.82558" lon="2.12346">
        <ele>124.5</ele>
        <time>2023-02-22T15:23:06Z</time>
      </trkpt>
      <trkpt lat="49.82557" lon="2.12344">
        <ele>124.5</ele>
        <time>2023-02-22T15:23:07Z</time>
      </trkpt>
      <trkpt lat="49.82556" lon="2.12343">
        <ele>124.5</ele>
        <time>2023-02-22T15:23:08Z</time>
      </trkpt>
      <trkpt lat="49.82555" lon="2.1234">
        <ele>124.5</ele>
        <time>2023-02-22T15:23:09Z</time>
      </trkpt>
      <trkpt lat="49.82555" lon="2.12339">
        <ele>124.5</ele>
        <time>2023-02-22T15:23:10Z</time>
      </trkpt>
      <trkpt lat="49.82554" lon="2.12338">
        <ele>124.5</ele>
        <time>2023-02-22T15:23:11Z</time>
      </trkpt>
      <trkpt lat="49.82554" lon="2.12336">
        <ele>124.5</ele>
        <time>2023-02-22T15:23:13Z</time>
      </trkpt>
      <trkpt lat="49.82553" lon="2.12335">
        <ele>124.5</ele>
        <time>2023-02-22T15:23:14Z</time>
      </trkpt>
      <trkpt lat="49.82553" lon="2.12333">
        <ele>124.5</ele>
        <time>2023-02-22T15:23:15Z</time>
      </trkpt>
      <trkpt lat="49.82552" lon="2.12332">
        <ele>124.5</ele>
        <time>2023-02-22T15:23:16Z</time>
      </trkpt>
      <trkpt lat="49.82551" lon="2.12329">
        <ele>124.5</ele>
        <time>2023-02-22T15:23:17Z</time>
      </trkpt>
      <trkpt lat="49.82551" lon="2.12328">
        <ele>124.5</ele>
        <time>2023-02-22T15:23:18Z</time>
      </trkpt>
      <trkpt lat="49.8255" lon="2.12326">
        <ele>124.5</ele>
        <time>2023-02-22T15:23:19Z</time>
      </trkpt>
      <trkpt lat="49.82549" lon="2.12325">
        <ele>124.4</ele>
        <time>2023-02-22T15:23:20Z</time>
      </trkpt>
      <trkpt lat="49.82549" lon="2.12323">
        <ele>124.4</ele>
        <time>2023-02-22T15:23:21Z</time>
      </trkpt>
      <trkpt lat="49.82548" lon="2.12321">
        <ele>124.4</ele>
        <time>2023-02-22T15:23:22Z</time>
      </trkpt>
      <trkpt lat="49.82547" lon="2.1232">
        <ele>124.4</ele>
        <time>2023-02-22T15:23:23Z</time>
      </trkpt>
      <trkpt lat="49.82547" lon="2.12318">
        <ele>124.4</ele>
        <time>2023-02-22T15:23:24Z</time>
      </trkpt>
      <trkpt lat="49.82546" lon="2.12317">
        <ele>124.4</ele>
        <time>2023-02-22T15:23:25Z</time>
      </trkpt>
      <trkpt lat="49.82546" lon="2.12315">
        <ele>124.3</ele>
        <time>2023-02-22T15:23:27Z</time>
      </trkpt>
      <trkpt lat="49.82545" lon="2.12314">
        <ele>124.3</ele>
        <time>2023-02-22T15:23:28Z</time>
      </trkpt>
      <trkpt lat="49.82545" lon="2.12312">
        <ele>124.3</ele>
        <time>2023-02-22T15:23:29Z</time>
      </trkpt>
      <trkpt lat="49.82544" lon="2.12311">
        <ele>124.3</ele>
        <time>2023-02-22T15:23:30Z</time>
      </trkpt>
      <trkpt lat="49.82543" lon="2.12309">
        <ele>124.3</ele>
        <time>2023-02-22T15:23:31Z</time>
      </trkpt>
      <trkpt lat="49.82542" lon="2.12306">
        <ele>124.3</ele>
        <time>2023-02-22T15:23:32Z</time>
      </trkpt>
      <trkpt lat="49.82542" lon="2.12304">
        <ele>124.3</ele>
        <time>2023-02-22T15:23:34Z</time>
      </trkpt>
      <trkpt lat="49.82541" lon="2.12303">
        <ele>124.3</ele>
        <time>2023-02-22T15:23:35Z</time>
      </trkpt>
      <trkpt lat="49.82541" lon="2.12301">
        <ele>124.3</ele>
        <time>2023-02-22T15:23:36Z</time>
      </trkpt>
      <trkpt lat="49.8254" lon="2.12298">
        <ele>124.3</ele>
        <time>2023-02-22T15:23:37Z</time>
      </trkpt>
      <trkpt lat="49.82539" lon="2.12296">
        <ele>124.3</ele>
        <time>2023-02-22T15:23:39Z</time>
      </trkpt>
      <trkpt lat="49.82538" lon="2.12294">
        <ele>124.3</ele>
        <time>2023-02-22T15:23:40Z</time>
      </trkpt>
      <trkpt lat="49.82537" lon="2.12292">
        <ele>124.3</ele>
        <time>2023-02-22T15:23:41Z</time>
      </trkpt>
      <trkpt lat="49.82536" lon="2.1229">
        <ele>124.4</ele>
        <time>2023-02-22T15:23:42Z</time>
      </trkpt>
      <trkpt lat="49.82535" lon="2.12289">
        <ele>124.4</ele>
        <time>2023-02-22T15:23:43Z</time>
      </trkpt>
      <trkpt lat="49.82534" lon="2.12286">
        <ele>124.5</ele>
        <time>2023-02-22T15:23:45Z</time>
      </trkpt>
      <trkpt lat="49.82534" lon="2.12285">
        <ele>124.5</ele>
        <time>2023-02-22T15:23:46Z</time>
      </trkpt>
      <trkpt lat="49.82533" lon="2.12284">
        <ele>124.5</ele>
        <time>2023-02-22T15:23:47Z</time>
      </trkpt>
      <trkpt lat="49.82533" lon="2.12282">
        <ele>124.6</ele>
        <time>2023-02-22T15:23:48Z</time>
      </trkpt>
      <trkpt lat="49.82532" lon="2.1228">
        <ele>124.6</ele>
        <time>2023-02-22T15:23:49Z</time>
      </trkpt>
      <trkpt lat="49.82531" lon="2.12276">
        <ele>124.7</ele>
        <time>2023-02-22T15:23:51Z</time>
      </trkpt>
      <trkpt lat="49.8253" lon="2.12275">
        <ele>124.7</ele>
        <time>2023-02-22T15:23:52Z</time>
      </trkpt>
      <trkpt lat="49.8253" lon="2.12274">
        <ele>124.8</ele>
        <time>2023-02-22T15:23:53Z</time>
      </trkpt>
      <trkpt lat="49.82529" lon="2.12272">
        <ele>124.8</ele>
        <time>2023-02-22T15:23:54Z</time>
      </trkpt>
      <trkpt lat="49.82529" lon="2.12271">
        <ele>124.8</ele>
        <time>2023-02-22T15:23:55Z</time>
      </trkpt>
      <trkpt lat="49.82528" lon="2.12269">
        <ele>124.8</ele>
        <time>2023-02-22T15:23:56Z</time>
      </trkpt>
      <trkpt lat="49.82527" lon="2.12267">
        <ele>124.8</ele>
        <time>2023-02-22T15:23:58Z</time>
      </trkpt>
      <trkpt lat="49.82527" lon="2.12266">
        <ele>124.9</ele>
        <time>2023-02-22T15:23:59Z</time>
      </trkpt>
      <trkpt lat="49.82526" lon="2.12264">
        <ele>124.9</ele>
        <time>2023-02-22T15:24:00Z</time>
      </trkpt>
      <trkpt lat="49.82525" lon="2.12263">
        <ele>124.9</ele>
        <time>2023-02-22T15:24:01Z</time>
      </trkpt>
      <trkpt lat="49.82525" lon="2.12261">
        <ele>124.9</ele>
        <time>2023-02-22T15:24:02Z</time>
      </trkpt>
      <trkpt lat="49.82524" lon="2.1226">
        <ele>124.9</ele>
        <time>2023-02-22T15:24:03Z</time>
      </trkpt>
      <trkpt lat="49.82523" lon="2.12258">
        <ele>124.9</ele>
        <time>2023-02-22T15:24:04Z</time>
      </trkpt>
      <trkpt lat="49.82523" lon="2.12257">
        <ele>124.9</ele>
        <time>2023-02-22T15:24:05Z</time>
      </trkpt>
      <trkpt lat="49.82522" lon="2.12255">
        <ele>124.8</ele>
        <time>2023-02-22T15:24:06Z</time>
      </trkpt>
      <trkpt lat="49.82521" lon="2.12253">
        <ele>124.8</ele>
        <time>2023-02-22T15:24:08Z</time>
      </trkpt>
      <trkpt lat="49.8252" lon="2.12251">
        <ele>124.8</ele>
        <time>2023-02-22T15:24:09Z</time>
      </trkpt>
      <trkpt lat="49.82519" lon="2.1225">
        <ele>124.8</ele>
        <time>2023-02-22T15:24:10Z</time>
      </trkpt>
      <trkpt lat="49.82519" lon="2.12249">
        <ele>124.8</ele>
        <time>2023-02-22T15:24:11Z</time>
      </trkpt>
      <trkpt lat="49.82518" lon="2.12247">
        <ele>124.8</ele>
        <time>2023-02-22T15:24:13Z</time>
      </trkpt>
      <trkpt lat="49.82517" lon="2.12246">
        <ele>124.8</ele>
        <time>2023-02-22T15:24:14Z</time>
      </trkpt>
      <trkpt lat="49.82517" lon="2.12245">
        <ele>124.8</ele>
        <time>2023-02-22T15:24:15Z</time>
      </trkpt>
      <trkpt lat="49.82515" lon="2.12242">
        <ele>124.8</ele>
        <time>2023-02-22T15:24:16Z</time>
      </trkpt>
      <trkpt lat="49.82515" lon="2.12241">
        <ele>124.8</ele>
        <time>2023-02-22T15:24:17Z</time>
      </trkpt>
      <trkpt lat="49.82514" lon="2.1224">
        <ele>124.8</ele>
        <time>2023-02-22T15:24:18Z</time>
      </trkpt>
      <trkpt lat="49.82514" lon="2.12238">
        <ele>124.8</ele>
        <time>2023-02-22T15:24:19Z</time>
      </trkpt>
      <trkpt lat="49.82513" lon="2.12237">
        <ele>124.8</ele>
        <time>2023-02-22T15:24:20Z</time>
      </trkpt>
      <trkpt lat="49.82513" lon="2.12235">
        <ele>124.8</ele>
        <time>2023-02-22T15:24:21Z</time>
      </trkpt>
      <trkpt lat="49.82512" lon="2.12232">
        <ele>124.8</ele>
        <time>2023-02-22T15:24:22Z</time>
      </trkpt>
      <trkpt lat="49.82511" lon="2.12231">
        <ele>124.9</ele>
        <time>2023-02-22T15:24:24Z</time>
      </trkpt>
      <trkpt lat="49.82511" lon="2.1223">
        <ele>124.9</ele>
        <time>2023-02-22T15:24:25Z</time>
      </trkpt>
      <trkpt lat="49.8251" lon="2.12227">
        <ele>124.9</ele>
        <time>2023-02-22T15:24:26Z</time>
      </trkpt>
      <trkpt lat="49.8251" lon="2.12226">
        <ele>124.9</ele>
        <time>2023-02-22T15:24:27Z</time>
      </trkpt>
      <trkpt lat="49.82509" lon="2.12225">
        <ele>124.9</ele>
        <time>2023-02-22T15:24:28Z</time>
      </trkpt>
      <trkpt lat="49.82509" lon="2.12223">
        <ele>124.9</ele>
        <time>2023-02-22T15:24:29Z</time>
      </trkpt>
      <trkpt lat="49.82508" lon="2.12222">
        <ele>124.9</ele>
        <time>2023-02-22T15:24:30Z</time>
      </trkpt>
      <trkpt lat="49.82508" lon="2.12221">
        <ele>124.9</ele>
        <time>2023-02-22T15:24:31Z</time>
      </trkpt>
      <trkpt lat="49.82507" lon="2.12219">
        <ele>124.9</ele>
        <time>2023-02-22T15:24:32Z</time>
      </trkpt>
      <trkpt lat="49.82506" lon="2.12218">
        <ele>124.9</ele>
        <time>2023-02-22T15:24:33Z</time>
      </trkpt>
      <trkpt lat="49.82506" lon="2.12217">
        <ele>124.9</ele>
        <time>2023-02-22T15:24:35Z</time>
      </trkpt>
      <trkpt lat="49.82505" lon="2.12216">
        <ele>124.9</ele>
        <time>2023-02-22T15:24:36Z</time>
      </trkpt>
      <trkpt lat="49.82505" lon="2.12215">
        <ele>124.9</ele>
        <time>2023-02-22T15:24:37Z</time>
      </trkpt>
      <trkpt lat="49.82504" lon="2.12213">
        <ele>124.9</ele>
        <time>2023-02-22T15:24:38Z</time>
      </trkpt>
      <trkpt lat="49.82504" lon="2.12211">
        <ele>124.8</ele>
        <time>2023-02-22T15:24:39Z</time>
      </trkpt>
      <trkpt lat="49.82503" lon="2.1221">
        <ele>124.8</ele>
        <time>2023-02-22T15:24:40Z</time>
      </trkpt>
      <trkpt lat="49.82503" lon="2.12208">
        <ele>124.8</ele>
        <time>2023-02-22T15:24:41Z</time>
      </trkpt>
      <trkpt lat="49.82502" lon="2.12206">
        <ele>124.8</ele>
        <time>2023-02-22T15:24:42Z</time>
      </trkpt>
      <trkpt lat="49.82501" lon="2.12204">
        <ele>124.8</ele>
        <time>2023-02-22T15:24:43Z</time>
      </trkpt>
      <trkpt lat="49.82501" lon="2.12202">
        <ele>124.7</ele>
        <time>2023-02-22T15:24:45Z</time>
      </trkpt>
      <trkpt lat="49.825" lon="2.12201">
        <ele>124.7</ele>
        <time>2023-02-22T15:24:46Z</time>
      </trkpt>
      <trkpt lat="49.82499" lon="2.122">
        <ele>124.7</ele>
        <time>2023-02-22T15:24:47Z</time>
      </trkpt>
      <trkpt lat="49.82499" lon="2.12197">
        <ele>124.7</ele>
        <time>2023-02-22T15:24:48Z</time>
      </trkpt>
      <trkpt lat="49.82498" lon="2.12196">
        <ele>124.7</ele>
        <time>2023-02-22T15:24:49Z</time>
      </trkpt>
      <trkpt lat="49.82497" lon="2.12193">
        <ele>124.7</ele>
        <time>2023-02-22T15:24:50Z</time>
      </trkpt>
      <trkpt lat="49.82497" lon="2.12191">
        <ele>124.6</ele>
        <time>2023-02-22T15:24:51Z</time>
      </trkpt>
      <trkpt lat="49.82497" lon="2.1219">
        <ele>124.6</ele>
        <time>2023-02-22T15:24:52Z</time>
      </trkpt>
      <trkpt lat="49.82496" lon="2.12188">
        <ele>124.6</ele>
        <time>2023-02-22T15:24:54Z</time>
      </trkpt>
      <trkpt lat="49.82496" lon="2.12187">
        <ele>124.6</ele>
        <time>2023-02-22T15:24:55Z</time>
      </trkpt>
      <trkpt lat="49.82496" lon="2.12185">
        <ele>124.6</ele>
        <time>2023-02-22T15:24:56Z</time>
      </trkpt>
      <trkpt lat="49.82495" lon="2.12183">
        <ele>124.6</ele>
        <time>2023-02-22T15:24:57Z</time>
      </trkpt>
      <trkpt lat="49.82494" lon="2.12181">
        <ele>124.6</ele>
        <time>2023-02-22T15:24:58Z</time>
      </trkpt>
      <trkpt lat="49.82494" lon="2.12178">
        <ele>124.6</ele>
        <time>2023-02-22T15:24:59Z</time>
      </trkpt>
      <trkpt lat="49.82493" lon="2.12177">
        <ele>124.6</ele>
        <time>2023-02-22T15:25:00Z</time>
      </trkpt>
      <trkpt lat="49.82493" lon="2.12175">
        <ele>124.6</ele>
        <time>2023-02-22T15:25:01Z</time>
      </trkpt>
      <trkpt lat="49.82492" lon="2.12172">
        <ele>124.6</ele>
        <time>2023-02-22T15:25:02Z</time>
      </trkpt>
      <trkpt lat="49.82491" lon="2.12171">
        <ele>124.6</ele>
        <time>2023-02-22T15:25:04Z</time>
      </trkpt>
      <trkpt lat="49.82491" lon="2.1217">
        <ele>124.6</ele>
        <time>2023-02-22T15:25:05Z</time>
      </trkpt>
      <trkpt lat="49.8249" lon="2.12167">
        <ele>124.6</ele>
        <time>2023-02-22T15:25:06Z</time>
      </trkpt>
      <trkpt lat="49.82489" lon="2.12166">
        <ele>124.6</ele>
        <time>2023-02-22T15:25:07Z</time>
      </trkpt>
      <trkpt lat="49.82489" lon="2.12164">
        <ele>124.6</ele>
        <time>2023-02-22T15:25:08Z</time>
      </trkpt>
      <trkpt lat="49.82488" lon="2.12163">
        <ele>124.5</ele>
        <time>2023-02-22T15:25:09Z</time>
      </trkpt>
      <trkpt lat="49.82488" lon="2.12162">
        <ele>124.5</ele>
        <time>2023-02-22T15:25:10Z</time>
      </trkpt>
      <trkpt lat="49.82487" lon="2.1216">
        <ele>124.5</ele>
        <time>2023-02-22T15:25:11Z</time>
      </trkpt>
      <trkpt lat="49.82487" lon="2.12157">
        <ele>124.5</ele>
        <time>2023-02-22T15:25:13Z</time>
      </trkpt>
      <trkpt lat="49.82486" lon="2.12156">
        <ele>124.5</ele>
        <time>2023-02-22T15:25:14Z</time>
      </trkpt>
      <trkpt lat="49.82486" lon="2.12154">
        <ele>124.5</ele>
        <time>2023-02-22T15:25:15Z</time>
      </trkpt>
      <trkpt lat="49.82485" lon="2.12153">
        <ele>124.5</ele>
        <time>2023-02-22T15:25:16Z</time>
      </trkpt>
      <trkpt lat="49.82485" lon="2.12151">
        <ele>124.5</ele>
        <time>2023-02-22T15:25:17Z</time>
      </trkpt>
      <trkpt lat="49.82484" lon="2.12148">
        <ele>124.5</ele>
        <time>2023-02-22T15:25:18Z</time>
      </trkpt>
      <trkpt lat="49.82483" lon="2.12147">
        <ele>124.5</ele>
        <time>2023-02-22T15:25:20Z</time>
      </trkpt>
      <trkpt lat="49.82483" lon="2.12146">
        <ele>124.5</ele>
        <time>2023-02-22T15:25:21Z</time>
      </trkpt>
      <trkpt lat="49.82483" lon="2.12144">
        <ele>124.5</ele>
        <time>2023-02-22T15:25:22Z</time>
      </trkpt>
      <trkpt lat="49.82482" lon="2.12142">
        <ele>124.5</ele>
        <time>2023-02-22T15:25:23Z</time>
      </trkpt>
      <trkpt lat="49.82482" lon="2.12141">
        <ele>124.5</ele>
        <time>2023-02-22T15:25:24Z</time>
      </trkpt>
      <trkpt lat="49.82482" lon="2.12139">
        <ele>124.5</ele>
        <time>2023-02-22T15:25:25Z</time>
      </trkpt>
      <trkpt lat="49.82481" lon="2.12138">
        <ele>124.5</ele>
        <time>2023-02-22T15:25:26Z</time>
      </trkpt>
      <trkpt lat="49.82481" lon="2.12137">
        <ele>124.5</ele>
        <time>2023-02-22T15:25:27Z</time>
      </trkpt>
      <trkpt lat="49.8248" lon="2.12135">
        <ele>124.5</ele>
        <time>2023-02-22T15:25:28Z</time>
      </trkpt>
      <trkpt lat="49.8248" lon="2.12133">
        <ele>124.6</ele>
        <time>2023-02-22T15:25:30Z</time>
      </trkpt>
      <trkpt lat="49.8248" lon="2.12132">
        <ele>124.6</ele>
        <time>2023-02-22T15:25:31Z</time>
      </trkpt>
      <trkpt lat="49.82479" lon="2.1213">
        <ele>124.6</ele>
        <time>2023-02-22T15:25:32Z</time>
      </trkpt>
      <trkpt lat="49.82479" lon="2.12128">
        <ele>124.6</ele>
        <time>2023-02-22T15:25:33Z</time>
      </trkpt>
      <trkpt lat="49.82478" lon="2.12127">
        <ele>124.6</ele>
        <time>2023-02-22T15:25:34Z</time>
      </trkpt>
      <trkpt lat="49.82478" lon="2.12126">
        <ele>124.6</ele>
        <time>2023-02-22T15:25:35Z</time>
      </trkpt>
      <trkpt lat="49.82477" lon="2.12124">
        <ele>124.6</ele>
        <time>2023-02-22T15:25:36Z</time>
      </trkpt>
      <trkpt lat="49.82477" lon="2.12123">
        <ele>124.6</ele>
        <time>2023-02-22T15:25:37Z</time>
      </trkpt>
      <trkpt lat="49.82477" lon="2.12121">
        <ele>124.6</ele>
        <time>2023-02-22T15:25:39Z</time>
      </trkpt>
      <trkpt lat="49.82476" lon="2.12119">
        <ele>124.6</ele>
        <time>2023-02-22T15:25:40Z</time>
      </trkpt>
      <trkpt lat="49.82476" lon="2.12117">
        <ele>124.6</ele>
        <time>2023-02-22T15:25:41Z</time>
      </trkpt>
      <trkpt lat="49.82475" lon="2.12116">
        <ele>124.6</ele>
        <time>2023-02-22T15:25:42Z</time>
      </trkpt>
      <trkpt lat="49.82475" lon="2.12114">
        <ele>124.6</ele>
        <time>2023-02-22T15:25:43Z</time>
      </trkpt>
      <trkpt lat="49.82475" lon="2.12113">
        <ele>124.6</ele>
        <time>2023-02-22T15:25:44Z</time>
      </trkpt>
      <trkpt lat="49.82474" lon="2.12112">
        <ele>124.6</ele>
        <time>2023-02-22T15:25:45Z</time>
      </trkpt>
      <trkpt lat="49.82474" lon="2.1211">
        <ele>124.6</ele>
        <time>2023-02-22T15:25:46Z</time>
      </trkpt>
      <trkpt lat="49.82473" lon="2.12108">
        <ele>124.6</ele>
        <time>2023-02-22T15:25:48Z</time>
      </trkpt>
      <trkpt lat="49.82473" lon="2.12106">
        <ele>124.6</ele>
        <time>2023-02-22T15:25:49Z</time>
      </trkpt>
      <trkpt lat="49.82472" lon="2.12104">
        <ele>124.7</ele>
        <time>2023-02-22T15:25:50Z</time>
      </trkpt>
      <trkpt lat="49.82471" lon="2.12102">
        <ele>124.7</ele>
        <time>2023-02-22T15:25:51Z</time>
      </trkpt>
      <trkpt lat="49.82471" lon="2.12101">
        <ele>124.7</ele>
        <time>2023-02-22T15:25:53Z</time>
      </trkpt>
      <trkpt lat="49.8247" lon="2.12099">
        <ele>124.7</ele>
        <time>2023-02-22T15:25:54Z</time>
      </trkpt>
      <trkpt lat="49.8247" lon="2.12098">
        <ele>124.7</ele>
        <time>2023-02-22T15:25:55Z</time>
      </trkpt>
      <trkpt lat="49.82469" lon="2.12097">
        <ele>124.7</ele>
        <time>2023-02-22T15:25:56Z</time>
      </trkpt>
      <trkpt lat="49.82469" lon="2.12095">
        <ele>124.7</ele>
        <time>2023-02-22T15:25:57Z</time>
      </trkpt>
      <trkpt lat="49.82468" lon="2.12093">
        <ele>124.7</ele>
        <time>2023-02-22T15:25:58Z</time>
      </trkpt>
      <trkpt lat="49.82467" lon="2.12092">
        <ele>124.7</ele>
        <time>2023-02-22T15:25:59Z</time>
      </trkpt>
      <trkpt lat="49.82467" lon="2.1209">
        <ele>124.8</ele>
        <time>2023-02-22T15:26:00Z</time>
      </trkpt>
      <trkpt lat="49.82466" lon="2.12089">
        <ele>124.8</ele>
        <time>2023-02-22T15:26:01Z</time>
      </trkpt>
      <trkpt lat="49.82465" lon="2.12087">
        <ele>124.8</ele>
        <time>2023-02-22T15:26:03Z</time>
      </trkpt>
      <trkpt lat="49.82465" lon="2.12086">
        <ele>124.8</ele>
        <time>2023-02-22T15:26:04Z</time>
      </trkpt>
      <trkpt lat="49.82464" lon="2.12085">
        <ele>124.8</ele>
        <time>2023-02-22T15:26:05Z</time>
      </trkpt>
      <trkpt lat="49.82463" lon="2.12082">
        <ele>124.8</ele>
        <time>2023-02-22T15:26:06Z</time>
      </trkpt>
      <trkpt lat="49.82462" lon="2.12081">
        <ele>124.8</ele>
        <time>2023-02-22T15:26:07Z</time>
      </trkpt>
      <trkpt lat="49.82461" lon="2.1208">
        <ele>124.8</ele>
        <time>2023-02-22T15:26:08Z</time>
      </trkpt>
      <trkpt lat="49.82461" lon="2.12078">
        <ele>124.8</ele>
        <time>2023-02-22T15:26:09Z</time>
      </trkpt>
      <trkpt lat="49.8246" lon="2.12077">
        <ele>124.8</ele>
        <time>2023-02-22T15:26:10Z</time>
      </trkpt>
      <trkpt lat="49.82459" lon="2.12076">
        <ele>124.8</ele>
        <time>2023-02-22T15:26:12Z</time>
      </trkpt>
      <trkpt lat="49.82459" lon="2.12074">
        <ele>124.8</ele>
        <time>2023-02-22T15:26:13Z</time>
      </trkpt>
      <trkpt lat="49.82458" lon="2.12073">
        <ele>124.8</ele>
        <time>2023-02-22T15:26:14Z</time>
      </trkpt>
      <trkpt lat="49.82458" lon="2.12071">
        <ele>124.8</ele>
        <time>2023-02-22T15:26:15Z</time>
      </trkpt>
      <trkpt lat="49.82456" lon="2.12068">
        <ele>124.8</ele>
        <time>2023-02-22T15:26:16Z</time>
      </trkpt>
      <trkpt lat="49.82456" lon="2.12066">
        <ele>124.8</ele>
        <time>2023-02-22T15:26:17Z</time>
      </trkpt>
      <trkpt lat="49.82455" lon="2.12065">
        <ele>124.8</ele>
        <time>2023-02-22T15:26:18Z</time>
      </trkpt>
      <trkpt lat="49.82455" lon="2.12064">
        <ele>124.7</ele>
        <time>2023-02-22T15:26:19Z</time>
      </trkpt>
      <trkpt lat="49.82455" lon="2.12062">
        <ele>124.7</ele>
        <time>2023-02-22T15:26:20Z</time>
      </trkpt>
      <trkpt lat="49.82454" lon="2.1206">
        <ele>124.7</ele>
        <time>2023-02-22T15:26:22Z</time>
      </trkpt>
      <trkpt lat="49.82454" lon="2.12059">
        <ele>124.7</ele>
        <time>2023-02-22T15:26:23Z</time>
      </trkpt>
      <trkpt lat="49.82453" lon="2.12057">
        <ele>124.7</ele>
        <time>2023-02-22T15:26:24Z</time>
      </trkpt>
      <trkpt lat="49.82453" lon="2.12056">
        <ele>124.7</ele>
        <time>2023-02-22T15:26:25Z</time>
      </trkpt>
      <trkpt lat="49.82452" lon="2.12053">
        <ele>124.7</ele>
        <time>2023-02-22T15:26:26Z</time>
      </trkpt>
      <trkpt lat="49.82451" lon="2.12052">
        <ele>124.7</ele>
        <time>2023-02-22T15:26:27Z</time>
      </trkpt>
      <trkpt lat="49.82451" lon="2.12051">
        <ele>124.7</ele>
        <time>2023-02-22T15:26:28Z</time>
      </trkpt>
      <trkpt lat="49.8245" lon="2.12048">
        <ele>124.7</ele>
        <time>2023-02-22T15:26:29Z</time>
      </trkpt>
      <trkpt lat="49.8245" lon="2.12046">
        <ele>124.7</ele>
        <time>2023-02-22T15:26:30Z</time>
      </trkpt>
      <trkpt lat="49.82449" lon="2.12045">
        <ele>124.8</ele>
        <time>2023-02-22T15:26:32Z</time>
      </trkpt>
      <trkpt lat="49.82449" lon="2.12044">
        <ele>124.8</ele>
        <time>2023-02-22T15:26:33Z</time>
      </trkpt>
      <trkpt lat="49.82448" lon="2.12042">
        <ele>124.8</ele>
        <time>2023-02-22T15:26:34Z</time>
      </trkpt>
      <trkpt lat="49.82448" lon="2.12041">
        <ele>124.8</ele>
        <time>2023-02-22T15:26:35Z</time>
      </trkpt>
      <trkpt lat="49.82447" lon="2.12038">
        <ele>124.8</ele>
        <time>2023-02-22T15:26:36Z</time>
      </trkpt>
      <trkpt lat="49.82446" lon="2.12036">
        <ele>124.8</ele>
        <time>2023-02-22T15:26:37Z</time>
      </trkpt>
      <trkpt lat="49.82446" lon="2.12035">
        <ele>124.8</ele>
        <time>2023-02-22T15:26:38Z</time>
      </trkpt>
      <trkpt lat="49.82446" lon="2.12034">
        <ele>124.8</ele>
        <time>2023-02-22T15:26:39Z</time>
      </trkpt>
      <trkpt lat="49.82445" lon="2.12032">
        <ele>124.9</ele>
        <time>2023-02-22T15:26:41Z</time>
      </trkpt>
      <trkpt lat="49.82445" lon="2.1203">
        <ele>124.9</ele>
        <time>2023-02-22T15:26:42Z</time>
      </trkpt>
      <trkpt lat="49.82444" lon="2.12028">
        <ele>124.9</ele>
        <time>2023-02-22T15:26:43Z</time>
      </trkpt>
      <trkpt lat="49.82443" lon="2.12026">
        <ele>124.9</ele>
        <time>2023-02-22T15:26:44Z</time>
      </trkpt>
      <trkpt lat="49.82443" lon="2.12025">
        <ele>124.9</ele>
        <time>2023-02-22T15:26:45Z</time>
      </trkpt>
      <trkpt lat="49.82443" lon="2.12023">
        <ele>124.9</ele>
        <time>2023-02-22T15:26:46Z</time>
      </trkpt>
      <trkpt lat="49.82442" lon="2.12021">
        <ele>124.9</ele>
        <time>2023-02-22T15:26:47Z</time>
      </trkpt>
      <trkpt lat="49.82441" lon="2.1202">
        <ele>124.9</ele>
        <time>2023-02-22T15:26:49Z</time>
      </trkpt>
      <trkpt lat="49.82441" lon="2.12018">
        <ele>124.9</ele>
        <time>2023-02-22T15:26:50Z</time>
      </trkpt>
      <trkpt lat="49.8244" lon="2.12017">
        <ele>124.9</ele>
        <time>2023-02-22T15:26:51Z</time>
      </trkpt>
      <trkpt lat="49.82439" lon="2.12015">
        <ele>124.9</ele>
        <time>2023-02-22T15:26:52Z</time>
      </trkpt>
      <trkpt lat="49.82439" lon="2.12013">
        <ele>124.9</ele>
        <time>2023-02-22T15:26:53Z</time>
      </trkpt>
      <trkpt lat="49.82438" lon="2.12012">
        <ele>124.9</ele>
        <time>2023-02-22T15:26:54Z</time>
      </trkpt>
      <trkpt lat="49.82438" lon="2.12011">
        <ele>124.9</ele>
        <time>2023-02-22T15:26:55Z</time>
      </trkpt>
      <trkpt lat="49.82437" lon="2.12008">
        <ele>124.9</ele>
        <time>2023-02-22T15:26:56Z</time>
      </trkpt>
      <trkpt lat="49.82436" lon="2.12006">
        <ele>124.9</ele>
        <time>2023-02-22T15:26:57Z</time>
      </trkpt>
      <trkpt lat="49.82436" lon="2.12004">
        <ele>124.9</ele>
        <time>2023-02-22T15:26:58Z</time>
      </trkpt>
      <trkpt lat="49.82436" lon="2.12003">
        <ele>124.9</ele>
        <time>2023-02-22T15:27:00Z</time>
      </trkpt>
      <trkpt lat="49.82435" lon="2.12002">
        <ele>124.9</ele>
        <time>2023-02-22T15:27:01Z</time>
      </trkpt>
      <trkpt lat="49.82434" lon="2.12001">
        <ele>124.9</ele>
        <time>2023-02-22T15:27:02Z</time>
      </trkpt>
      <trkpt lat="49.82433" lon="2.11999">
        <ele>124.9</ele>
        <time>2023-02-22T15:27:03Z</time>
      </trkpt>
      <trkpt lat="49.82432" lon="2.11997">
        <ele>124.9</ele>
        <time>2023-02-22T15:27:04Z</time>
      </trkpt>
      <trkpt lat="49.82431" lon="2.11995">
        <ele>124.9</ele>
        <time>2023-02-22T15:27:05Z</time>
      </trkpt>
      <trkpt lat="49.82431" lon="2.11994">
        <ele>124.9</ele>
        <time>2023-02-22T15:27:06Z</time>
      </trkpt>
      <trkpt lat="49.82431" lon="2.11992">
        <ele>124.9</ele>
        <time>2023-02-22T15:27:07Z</time>
      </trkpt>
      <trkpt lat="49.8243" lon="2.11991">
        <ele>124.9</ele>
        <time>2023-02-22T15:27:08Z</time>
      </trkpt>
      <trkpt lat="49.82429" lon="2.11989">
        <ele>124.9</ele>
        <time>2023-02-22T15:27:10Z</time>
      </trkpt>
      <trkpt lat="49.82429" lon="2.11987">
        <ele>124.9</ele>
        <time>2023-02-22T15:27:11Z</time>
      </trkpt>
      <trkpt lat="49.82429" lon="2.11986">
        <ele>124.9</ele>
        <time>2023-02-22T15:27:12Z</time>
      </trkpt>
      <trkpt lat="49.82428" lon="2.11985">
        <ele>124.9</ele>
        <time>2023-02-22T15:27:13Z</time>
      </trkpt>
      <trkpt lat="49.82427" lon="2.11982">
        <ele>125</ele>
        <time>2023-02-22T15:27:14Z</time>
      </trkpt>
      <trkpt lat="49.82427" lon="2.11981">
        <ele>125</ele>
        <time>2023-02-22T15:27:15Z</time>
      </trkpt>
      <trkpt lat="49.82426" lon="2.11979">
        <ele>125</ele>
        <time>2023-02-22T15:27:17Z</time>
      </trkpt>
      <trkpt lat="49.82426" lon="2.11978">
        <ele>125</ele>
        <time>2023-02-22T15:27:18Z</time>
      </trkpt>
      <trkpt lat="49.82425" lon="2.11975">
        <ele>125</ele>
        <time>2023-02-22T15:27:19Z</time>
      </trkpt>
      <trkpt lat="49.82425" lon="2.11974">
        <ele>125.1</ele>
        <time>2023-02-22T15:27:20Z</time>
      </trkpt>
      <trkpt lat="49.82425" lon="2.11973">
        <ele>125.1</ele>
        <time>2023-02-22T15:27:21Z</time>
      </trkpt>
      <trkpt lat="49.82424" lon="2.1197">
        <ele>125.1</ele>
        <time>2023-02-22T15:27:22Z</time>
      </trkpt>
      <trkpt lat="49.82424" lon="2.11969">
        <ele>125.1</ele>
        <time>2023-02-22T15:27:24Z</time>
      </trkpt>
      <trkpt lat="49.82423" lon="2.11967">
        <ele>125.1</ele>
        <time>2023-02-22T15:27:25Z</time>
      </trkpt>
      <trkpt lat="49.82423" lon="2.11966">
        <ele>125.1</ele>
        <time>2023-02-22T15:27:26Z</time>
      </trkpt>
      <trkpt lat="49.82422" lon="2.11964">
        <ele>125.2</ele>
        <time>2023-02-22T15:27:27Z</time>
      </trkpt>
      <trkpt lat="49.82422" lon="2.11962">
        <ele>125.2</ele>
        <time>2023-02-22T15:27:28Z</time>
      </trkpt>
      <trkpt lat="49.82422" lon="2.1196">
        <ele>125.2</ele>
        <time>2023-02-22T15:27:29Z</time>
      </trkpt>
      <trkpt lat="49.82422" lon="2.11959">
        <ele>125.2</ele>
        <time>2023-02-22T15:27:30Z</time>
      </trkpt>
      <trkpt lat="49.82421" lon="2.11957">
        <ele>125.2</ele>
        <time>2023-02-22T15:27:31Z</time>
      </trkpt>
      <trkpt lat="49.8242" lon="2.11956">
        <ele>125.2</ele>
        <time>2023-02-22T15:27:32Z</time>
      </trkpt>
      <trkpt lat="49.8242" lon="2.11953">
        <ele>125.2</ele>
        <time>2023-02-22T15:27:34Z</time>
      </trkpt>
      <trkpt lat="49.82419" lon="2.11952">
        <ele>125.2</ele>
        <time>2023-02-22T15:27:35Z</time>
      </trkpt>
      <trkpt lat="49.82419" lon="2.1195">
        <ele>125.2</ele>
        <time>2023-02-22T15:27:36Z</time>
      </trkpt>
      <trkpt lat="49.82418" lon="2.11948">
        <ele>125.2</ele>
        <time>2023-02-22T15:27:37Z</time>
      </trkpt>
      <trkpt lat="49.82418" lon="2.11947">
        <ele>125.2</ele>
        <time>2023-02-22T15:27:38Z</time>
      </trkpt>
      <trkpt lat="49.82417" lon="2.11945">
        <ele>125.2</ele>
        <time>2023-02-22T15:27:39Z</time>
      </trkpt>
      <trkpt lat="49.82417" lon="2.11944">
        <ele>125.2</ele>
        <time>2023-02-22T15:27:40Z</time>
      </trkpt>
      <trkpt lat="49.82415" lon="2.11941">
        <ele>125.2</ele>
        <time>2023-02-22T15:27:41Z</time>
      </trkpt>
      <trkpt lat="49.82415" lon="2.1194">
        <ele>125.2</ele>
        <time>2023-02-22T15:27:42Z</time>
      </trkpt>
      <trkpt lat="49.82414" lon="2.11939">
        <ele>125.2</ele>
        <time>2023-02-22T15:27:43Z</time>
      </trkpt>
      <trkpt lat="49.82413" lon="2.11938">
        <ele>125.2</ele>
        <time>2023-02-22T15:27:44Z</time>
      </trkpt>
      <trkpt lat="49.82413" lon="2.11936">
        <ele>125.2</ele>
        <time>2023-02-22T15:27:46Z</time>
      </trkpt>
      <trkpt lat="49.82412" lon="2.11934">
        <ele>125.2</ele>
        <time>2023-02-22T15:27:47Z</time>
      </trkpt>
      <trkpt lat="49.82412" lon="2.11933">
        <ele>125.1</ele>
        <time>2023-02-22T15:27:48Z</time>
      </trkpt>
      <trkpt lat="49.82411" lon="2.11931">
        <ele>125.1</ele>
        <time>2023-02-22T15:27:49Z</time>
      </trkpt>
      <trkpt lat="49.8241" lon="2.11928">
        <ele>125.1</ele>
        <time>2023-02-22T15:27:51Z</time>
      </trkpt>
      <trkpt lat="49.82409" lon="2.11926">
        <ele>125</ele>
        <time>2023-02-22T15:27:52Z</time>
      </trkpt>
      <trkpt lat="49.82408" lon="2.11923">
        <ele>125.1</ele>
        <time>2023-02-22T15:27:54Z</time>
      </trkpt>
      <trkpt lat="49.82407" lon="2.11922">
        <ele>125.1</ele>
        <time>2023-02-22T15:27:55Z</time>
      </trkpt>
      <trkpt lat="49.82407" lon="2.11922">
        <ele>125.1</ele>
        <time>2023-02-22T15:27:56Z</time>
      </trkpt>
      <trkpt lat="49.82405" lon="2.11919">
        <ele>125.1</ele>
        <time>2023-02-22T15:27:57Z</time>
      </trkpt>
      <trkpt lat="49.82404" lon="2.11918">
        <ele>125.1</ele>
        <time>2023-02-22T15:27:58Z</time>
      </trkpt>
      <trkpt lat="49.82404" lon="2.11917">
        <ele>125.1</ele>
        <time>2023-02-22T15:27:59Z</time>
      </trkpt>
      <trkpt lat="49.82403" lon="2.11916">
        <ele>125.1</ele>
        <time>2023-02-22T15:28:01Z</time>
      </trkpt>
      <trkpt lat="49.82402" lon="2.11916">
        <ele>125.1</ele>
        <time>2023-02-22T15:28:02Z</time>
      </trkpt>
      <trkpt lat="49.82401" lon="2.11915">
        <ele>125.1</ele>
        <time>2023-02-22T15:28:03Z</time>
      </trkpt>
      <trkpt lat="49.82399" lon="2.11913">
        <ele>125.1</ele>
        <time>2023-02-22T15:28:04Z</time>
      </trkpt>
      <trkpt lat="49.82399" lon="2.11912">
        <ele>125.1</ele>
        <time>2023-02-22T15:28:05Z</time>
      </trkpt>
      <trkpt lat="49.82398" lon="2.11912">
        <ele>125.1</ele>
        <time>2023-02-22T15:28:06Z</time>
      </trkpt>
      <trkpt lat="49.82396" lon="2.1191">
        <ele>125.1</ele>
        <time>2023-02-22T15:28:07Z</time>
      </trkpt>
      <trkpt lat="49.82395" lon="2.11909">
        <ele>125.1</ele>
        <time>2023-02-22T15:28:08Z</time>
      </trkpt>
      <trkpt lat="49.82395" lon="2.11908">
        <ele>125.1</ele>
        <time>2023-02-22T15:28:09Z</time>
      </trkpt>
      <trkpt lat="49.82394" lon="2.11907">
        <ele>125.1</ele>
        <time>2023-02-22T15:28:10Z</time>
      </trkpt>
      <trkpt lat="49.82393" lon="2.11907">
        <ele>125.1</ele>
        <time>2023-02-22T15:28:12Z</time>
      </trkpt>
      <trkpt lat="49.82392" lon="2.11906">
        <ele>125.1</ele>
        <time>2023-02-22T15:28:13Z</time>
      </trkpt>
      <trkpt lat="49.8239" lon="2.11904">
        <ele>125.1</ele>
        <time>2023-02-22T15:28:14Z</time>
      </trkpt>
      <trkpt lat="49.82389" lon="2.11904">
        <ele>125.1</ele>
        <time>2023-02-22T15:28:15Z</time>
      </trkpt>
      <trkpt lat="49.82388" lon="2.11903">
        <ele>125.1</ele>
        <time>2023-02-22T15:28:16Z</time>
      </trkpt>
      <trkpt lat="49.82387" lon="2.11902">
        <ele>125.1</ele>
        <time>2023-02-22T15:28:17Z</time>
      </trkpt>
      <trkpt lat="49.82386" lon="2.11902">
        <ele>125.1</ele>
        <time>2023-02-22T15:28:18Z</time>
      </trkpt>
      <trkpt lat="49.82385" lon="2.11901">
        <ele>125.1</ele>
        <time>2023-02-22T15:28:19Z</time>
      </trkpt>
      <trkpt lat="49.82383" lon="2.119">
        <ele>125.1</ele>
        <time>2023-02-22T15:28:20Z</time>
      </trkpt>
      <trkpt lat="49.82383" lon="2.119">
        <ele>125.1</ele>
        <time>2023-02-22T15:28:22Z</time>
      </trkpt>
      <trkpt lat="49.82382" lon="2.11899">
        <ele>125.1</ele>
        <time>2023-02-22T15:28:23Z</time>
      </trkpt>
      <trkpt lat="49.82381" lon="2.11899">
        <ele>125.1</ele>
        <time>2023-02-22T15:28:24Z</time>
      </trkpt>
      <trkpt lat="49.8238" lon="2.11899">
        <ele>125.1</ele>
        <time>2023-02-22T15:28:25Z</time>
      </trkpt>
      <trkpt lat="49.82379" lon="2.11898">
        <ele>125.1</ele>
        <time>2023-02-22T15:28:26Z</time>
      </trkpt>
      <trkpt lat="49.82378" lon="2.11898">
        <ele>125.1</ele>
        <time>2023-02-22T15:28:27Z</time>
      </trkpt>
      <trkpt lat="49.82377" lon="2.11897">
        <ele>125.1</ele>
        <time>2023-02-22T15:28:28Z</time>
      </trkpt>
      <trkpt lat="49.82375" lon="2.11896">
        <ele>125.1</ele>
        <time>2023-02-22T15:28:29Z</time>
      </trkpt>
      <trkpt lat="49.82375" lon="2.11895">
        <ele>125.1</ele>
        <time>2023-02-22T15:28:31Z</time>
      </trkpt>
      <trkpt lat="49.82374" lon="2.11894">
        <ele>125.1</ele>
        <time>2023-02-22T15:28:32Z</time>
      </trkpt>
      <trkpt lat="49.82373" lon="2.11893">
        <ele>125.1</ele>
        <time>2023-02-22T15:28:33Z</time>
      </trkpt>
      <trkpt lat="49.82372" lon="2.11891">
        <ele>125.1</ele>
        <time>2023-02-22T15:28:34Z</time>
      </trkpt>
      <trkpt lat="49.82371" lon="2.11891">
        <ele>125.1</ele>
        <time>2023-02-22T15:28:35Z</time>
      </trkpt>
      <trkpt lat="49.8237" lon="2.1189">
        <ele>125.1</ele>
        <time>2023-02-22T15:28:36Z</time>
      </trkpt>
      <trkpt lat="49.82368" lon="2.1189">
        <ele>125.1</ele>
        <time>2023-02-22T15:28:37Z</time>
      </trkpt>
      <trkpt lat="49.82367" lon="2.11889">
        <ele>125.1</ele>
        <time>2023-02-22T15:28:39Z</time>
      </trkpt>
      <trkpt lat="49.82366" lon="2.11889">
        <ele>125.1</ele>
        <time>2023-02-22T15:28:40Z</time>
      </trkpt>
      <trkpt lat="49.82364" lon="2.11889">
        <ele>125.1</ele>
        <time>2023-02-22T15:28:41Z</time>
      </trkpt>
      <trkpt lat="49.82363" lon="2.11889">
        <ele>125.1</ele>
        <time>2023-02-22T15:28:42Z</time>
      </trkpt>
      <trkpt lat="49.82362" lon="2.11888">
        <ele>125.1</ele>
        <time>2023-02-22T15:28:43Z</time>
      </trkpt>
      <trkpt lat="49.8236" lon="2.11887">
        <ele>125.1</ele>
        <time>2023-02-22T15:28:45Z</time>
      </trkpt>
      <trkpt lat="49.8236" lon="2.11887">
        <ele>125.1</ele>
        <time>2023-02-22T15:28:46Z</time>
      </trkpt>
      <trkpt lat="49.82358" lon="2.11887">
        <ele>125.1</ele>
        <time>2023-02-22T15:28:47Z</time>
      </trkpt>
      <trkpt lat="49.82357" lon="2.11886">
        <ele>125.1</ele>
        <time>2023-02-22T15:28:48Z</time>
      </trkpt>
      <trkpt lat="49.82355" lon="2.11886">
        <ele>125.1</ele>
        <time>2023-02-22T15:28:49Z</time>
      </trkpt>
      <trkpt lat="49.82354" lon="2.11885">
        <ele>125.1</ele>
        <time>2023-02-22T15:28:50Z</time>
      </trkpt>
      <trkpt lat="49.82352" lon="2.11884">
        <ele>125.1</ele>
        <time>2023-02-22T15:28:51Z</time>
      </trkpt>
      <trkpt lat="49.82352" lon="2.11884">
        <ele>125.1</ele>
        <time>2023-02-22T15:28:52Z</time>
      </trkpt>
      <trkpt lat="49.82351" lon="2.11884">
        <ele>125.1</ele>
        <time>2023-02-22T15:28:53Z</time>
      </trkpt>
      <trkpt lat="49.82349" lon="2.11883">
        <ele>125.1</ele>
        <time>2023-02-22T15:28:54Z</time>
      </trkpt>
      <trkpt lat="49.82348" lon="2.11882">
        <ele>125.1</ele>
        <time>2023-02-22T15:28:56Z</time>
      </trkpt>
      <trkpt lat="49.82348" lon="2.11882">
        <ele>125.1</ele>
        <time>2023-02-22T15:28:57Z</time>
      </trkpt>
      <trkpt lat="49.82347" lon="2.11881">
        <ele>125.1</ele>
        <time>2023-02-22T15:28:58Z</time>
      </trkpt>
      <trkpt lat="49.82346" lon="2.11881">
        <ele>125.1</ele>
        <time>2023-02-22T15:28:59Z</time>
      </trkpt>
      <trkpt lat="49.82344" lon="2.1188">
        <ele>125.2</ele>
        <time>2023-02-22T15:29:00Z</time>
      </trkpt>
      <trkpt lat="49.82343" lon="2.11879">
        <ele>125.2</ele>
        <time>2023-02-22T15:29:01Z</time>
      </trkpt>
      <trkpt lat="49.82342" lon="2.11878">
        <ele>125.2</ele>
        <time>2023-02-22T15:29:02Z</time>
      </trkpt>
      <trkpt lat="49.82341" lon="2.11878">
        <ele>125.2</ele>
        <time>2023-02-22T15:29:03Z</time>
      </trkpt>
      <trkpt lat="49.82339" lon="2.11877">
        <ele>125.2</ele>
        <time>2023-02-22T15:29:04Z</time>
      </trkpt>
      <trkpt lat="49.82338" lon="2.11876">
        <ele>125.2</ele>
        <time>2023-02-22T15:29:06Z</time>
      </trkpt>
      <trkpt lat="49.82337" lon="2.11876">
        <ele>125.2</ele>
        <time>2023-02-22T15:29:07Z</time>
      </trkpt>
      <trkpt lat="49.82336" lon="2.11875">
        <ele>125.2</ele>
        <time>2023-02-22T15:29:08Z</time>
      </trkpt>
      <trkpt lat="49.82335" lon="2.11874">
        <ele>125.2</ele>
        <time>2023-02-22T15:29:09Z</time>
      </trkpt>
      <trkpt lat="49.82334" lon="2.11873">
        <ele>125.2</ele>
        <time>2023-02-22T15:29:10Z</time>
      </trkpt>
      <trkpt lat="49.82333" lon="2.11873">
        <ele>125.2</ele>
        <time>2023-02-22T15:29:11Z</time>
      </trkpt>
      <trkpt lat="49.82332" lon="2.11872">
        <ele>125.2</ele>
        <time>2023-02-22T15:29:12Z</time>
      </trkpt>
      <trkpt lat="49.82331" lon="2.11871">
        <ele>125.2</ele>
        <time>2023-02-22T15:29:14Z</time>
      </trkpt>
      <trkpt lat="49.82329" lon="2.1187">
        <ele>125.2</ele>
        <time>2023-02-22T15:29:15Z</time>
      </trkpt>
      <trkpt lat="49.82328" lon="2.11869">
        <ele>125.2</ele>
        <time>2023-02-22T15:29:16Z</time>
      </trkpt>
      <trkpt lat="49.82327" lon="2.11868">
        <ele>125.2</ele>
        <time>2023-02-22T15:29:17Z</time>
      </trkpt>
      <trkpt lat="49.82326" lon="2.11868">
        <ele>125.2</ele>
        <time>2023-02-22T15:29:18Z</time>
      </trkpt>
      <trkpt lat="49.82325" lon="2.11867">
        <ele>125.2</ele>
        <time>2023-02-22T15:29:19Z</time>
      </trkpt>
      <trkpt lat="49.82324" lon="2.11866">
        <ele>125.2</ele>
        <time>2023-02-22T15:29:21Z</time>
      </trkpt>
      <trkpt lat="49.82323" lon="2.11866">
        <ele>125.2</ele>
        <time>2023-02-22T15:29:22Z</time>
      </trkpt>
      <trkpt lat="49.82321" lon="2.11865">
        <ele>125.2</ele>
        <time>2023-02-22T15:29:23Z</time>
      </trkpt>
      <trkpt lat="49.82321" lon="2.11864">
        <ele>125.2</ele>
        <time>2023-02-22T15:29:24Z</time>
      </trkpt>
      <trkpt lat="49.8232" lon="2.11864">
        <ele>125.2</ele>
        <time>2023-02-22T15:29:25Z</time>
      </trkpt>
      <trkpt lat="49.82319" lon="2.11863">
        <ele>125.2</ele>
        <time>2023-02-22T15:29:26Z</time>
      </trkpt>
      <trkpt lat="49.82317" lon="2.11863">
        <ele>125.2</ele>
        <time>2023-02-22T15:29:27Z</time>
      </trkpt>
      <trkpt lat="49.82316" lon="2.11862">
        <ele>125.1</ele>
        <time>2023-02-22T15:29:29Z</time>
      </trkpt>
      <trkpt lat="49.82315" lon="2.11861">
        <ele>125.1</ele>
        <time>2023-02-22T15:29:30Z</time>
      </trkpt>
      <trkpt lat="49.82314" lon="2.11861">
        <ele>125.1</ele>
        <time>2023-02-22T15:29:31Z</time>
      </trkpt>
      <trkpt lat="49.82313" lon="2.1186">
        <ele>125.1</ele>
        <time>2023-02-22T15:29:32Z</time>
      </trkpt>
      <trkpt lat="49.82312" lon="2.11859">
        <ele>125.1</ele>
        <time>2023-02-22T15:29:33Z</time>
      </trkpt>
      <trkpt lat="49.8231" lon="2.11858">
        <ele>125.1</ele>
        <time>2023-02-22T15:29:34Z</time>
      </trkpt>
      <trkpt lat="49.8231" lon="2.11857">
        <ele>125.1</ele>
        <time>2023-02-22T15:29:35Z</time>
      </trkpt>
      <trkpt lat="49.82309" lon="2.11857">
        <ele>125.1</ele>
        <time>2023-02-22T15:29:36Z</time>
      </trkpt>
      <trkpt lat="49.82307" lon="2.11856">
        <ele>125.1</ele>
        <time>2023-02-22T15:29:37Z</time>
      </trkpt>
      <trkpt lat="49.82306" lon="2.11856">
        <ele>125.1</ele>
        <time>2023-02-22T15:29:38Z</time>
      </trkpt>
      <trkpt lat="49.82305" lon="2.11855">
        <ele>125</ele>
        <time>2023-02-22T15:29:40Z</time>
      </trkpt>
      <trkpt lat="49.82304" lon="2.11856">
        <ele>125</ele>
        <time>2023-02-22T15:29:41Z</time>
      </trkpt>
      <trkpt lat="49.82303" lon="2.11855">
        <ele>125</ele>
        <time>2023-02-22T15:29:42Z</time>
      </trkpt>
      <trkpt lat="49.82302" lon="2.11855">
        <ele>125</ele>
        <time>2023-02-22T15:29:43Z</time>
      </trkpt>
      <trkpt lat="49.823" lon="2.11854">
        <ele>125</ele>
        <time>2023-02-22T15:29:44Z</time>
      </trkpt>
      <trkpt lat="49.823" lon="2.11853">
        <ele>125</ele>
        <time>2023-02-22T15:29:45Z</time>
      </trkpt>
      <trkpt lat="49.82299" lon="2.11853">
        <ele>125</ele>
        <time>2023-02-22T15:29:47Z</time>
      </trkpt>
      <trkpt lat="49.82297" lon="2.11851">
        <ele>125</ele>
        <time>2023-02-22T15:29:48Z</time>
      </trkpt>
      <trkpt lat="49.82296" lon="2.1185">
        <ele>125</ele>
        <time>2023-02-22T15:29:49Z</time>
      </trkpt>
      <trkpt lat="49.82295" lon="2.1185">
        <ele>125</ele>
        <time>2023-02-22T15:29:50Z</time>
      </trkpt>
      <trkpt lat="49.82294" lon="2.11849">
        <ele>125.1</ele>
        <time>2023-02-22T15:29:51Z</time>
      </trkpt>
      <trkpt lat="49.82293" lon="2.11848">
        <ele>125.1</ele>
        <time>2023-02-22T15:29:52Z</time>
      </trkpt>
      <trkpt lat="49.82292" lon="2.11848">
        <ele>125.1</ele>
        <time>2023-02-22T15:29:53Z</time>
      </trkpt>
      <trkpt lat="49.8229" lon="2.11847">
        <ele>125.1</ele>
        <time>2023-02-22T15:29:54Z</time>
      </trkpt>
      <trkpt lat="49.8229" lon="2.11847">
        <ele>125.1</ele>
        <time>2023-02-22T15:29:56Z</time>
      </trkpt>
      <trkpt lat="49.82289" lon="2.11846">
        <ele>125.1</ele>
        <time>2023-02-22T15:29:57Z</time>
      </trkpt>
      <trkpt lat="49.82287" lon="2.11845">
        <ele>125.1</ele>
        <time>2023-02-22T15:29:58Z</time>
      </trkpt>
      <trkpt lat="49.82286" lon="2.11844">
        <ele>125.1</ele>
        <time>2023-02-22T15:29:59Z</time>
      </trkpt>
      <trkpt lat="49.82285" lon="2.11844">
        <ele>125.1</ele>
        <time>2023-02-22T15:30:00Z</time>
      </trkpt>
      <trkpt lat="49.82284" lon="2.11843">
        <ele>125.1</ele>
        <time>2023-02-22T15:30:02Z</time>
      </trkpt>
      <trkpt lat="49.82283" lon="2.11843">
        <ele>125.2</ele>
        <time>2023-02-22T15:30:03Z</time>
      </trkpt>
      <trkpt lat="49.82282" lon="2.11842">
        <ele>125.2</ele>
        <time>2023-02-22T15:30:04Z</time>
      </trkpt>
      <trkpt lat="49.82281" lon="2.11842">
        <ele>125.2</ele>
        <time>2023-02-22T15:30:05Z</time>
      </trkpt>
      <trkpt lat="49.8228" lon="2.11841">
        <ele>125.2</ele>
        <time>2023-02-22T15:30:06Z</time>
      </trkpt>
      <trkpt lat="49.82278" lon="2.11839">
        <ele>125.2</ele>
        <time>2023-02-22T15:30:07Z</time>
      </trkpt>
      <trkpt lat="49.82277" lon="2.11838">
        <ele>125.3</ele>
        <time>2023-02-22T15:30:08Z</time>
      </trkpt>
      <trkpt lat="49.82276" lon="2.11838">
        <ele>125.3</ele>
        <time>2023-02-22T15:30:09Z</time>
      </trkpt>
      <trkpt lat="49.82275" lon="2.11837">
        <ele>125.3</ele>
        <time>2023-02-22T15:30:11Z</time>
      </trkpt>
      <trkpt lat="49.82274" lon="2.11836">
        <ele>125.3</ele>
        <time>2023-02-22T15:30:12Z</time>
      </trkpt>
      <trkpt lat="49.82273" lon="2.11835">
        <ele>125.3</ele>
        <time>2023-02-22T15:30:13Z</time>
      </trkpt>
      <trkpt lat="49.82272" lon="2.11835">
        <ele>125.4</ele>
        <time>2023-02-22T15:30:14Z</time>
      </trkpt>
      <trkpt lat="49.82272" lon="2.11833">
        <ele>125.4</ele>
        <time>2023-02-22T15:30:15Z</time>
      </trkpt>
      <trkpt lat="49.82271" lon="2.11832">
        <ele>125.4</ele>
        <time>2023-02-22T15:30:16Z</time>
      </trkpt>
      <trkpt lat="49.8227" lon="2.11831">
        <ele>125.4</ele>
        <time>2023-02-22T15:30:17Z</time>
      </trkpt>
      <trkpt lat="49.82269" lon="2.1183">
        <ele>125.5</ele>
        <time>2023-02-22T15:30:18Z</time>
      </trkpt>
      <trkpt lat="49.82268" lon="2.11829">
        <ele>125.5</ele>
        <time>2023-02-22T15:30:19Z</time>
      </trkpt>
      <trkpt lat="49.82268" lon="2.11829">
        <ele>125.5</ele>
        <time>2023-02-22T15:30:21Z</time>
      </trkpt>
      <trkpt lat="49.82267" lon="2.11829">
        <ele>125.6</ele>
        <time>2023-02-22T15:30:22Z</time>
      </trkpt>
      <trkpt lat="49.82265" lon="2.11828">
        <ele>125.6</ele>
        <time>2023-02-22T15:30:23Z</time>
      </trkpt>
      <trkpt lat="49.82263" lon="2.11828">
        <ele>125.6</ele>
        <time>2023-02-22T15:30:24Z</time>
      </trkpt>
      <trkpt lat="49.82263" lon="2.11827">
        <ele>125.7</ele>
        <time>2023-02-22T15:30:25Z</time>
      </trkpt>
      <trkpt lat="49.82262" lon="2.11827">
        <ele>125.7</ele>
        <time>2023-02-22T15:30:26Z</time>
      </trkpt>
      <trkpt lat="49.82261" lon="2.11826">
        <ele>125.7</ele>
        <time>2023-02-22T15:30:27Z</time>
      </trkpt>
      <trkpt lat="49.82259" lon="2.11826">
        <ele>125.8</ele>
        <time>2023-02-22T15:30:28Z</time>
      </trkpt>
      <trkpt lat="49.82258" lon="2.11825">
        <ele>125.8</ele>
        <time>2023-02-22T15:30:30Z</time>
      </trkpt>
      <trkpt lat="49.82257" lon="2.11825">
        <ele>125.8</ele>
        <time>2023-02-22T15:30:31Z</time>
      </trkpt>
      <trkpt lat="49.82256" lon="2.11825">
        <ele>125.8</ele>
        <time>2023-02-22T15:30:32Z</time>
      </trkpt>
      <trkpt lat="49.82255" lon="2.11824">
        <ele>125.9</ele>
        <time>2023-02-22T15:30:33Z</time>
      </trkpt>
      <trkpt lat="49.82254" lon="2.11824">
        <ele>125.9</ele>
        <time>2023-02-22T15:30:34Z</time>
      </trkpt>
      <trkpt lat="49.82252" lon="2.11824">
        <ele>125.9</ele>
        <time>2023-02-22T15:30:35Z</time>
      </trkpt>
      <trkpt lat="49.82251" lon="2.11823">
        <ele>125.9</ele>
        <time>2023-02-22T15:30:36Z</time>
      </trkpt>
      <trkpt lat="49.8225" lon="2.11823">
        <ele>126</ele>
        <time>2023-02-22T15:30:37Z</time>
      </trkpt>
      <trkpt lat="49.82249" lon="2.11822">
        <ele>126</ele>
        <time>2023-02-22T15:30:39Z</time>
      </trkpt>
      <trkpt lat="49.82248" lon="2.11822">
        <ele>126</ele>
        <time>2023-02-22T15:30:40Z</time>
      </trkpt>
      <trkpt lat="49.82247" lon="2.11822">
        <ele>126</ele>
        <time>2023-02-22T15:30:41Z</time>
      </trkpt>
      <trkpt lat="49.82246" lon="2.11822">
        <ele>126</ele>
        <time>2023-02-22T15:30:42Z</time>
      </trkpt>
      <trkpt lat="49.82245" lon="2.1182">
        <ele>126</ele>
        <time>2023-02-22T15:30:43Z</time>
      </trkpt>
      <trkpt lat="49.82245" lon="2.11819">
        <ele>126.1</ele>
        <time>2023-02-22T15:30:44Z</time>
      </trkpt>
      <trkpt lat="49.82244" lon="2.11817">
        <ele>126.1</ele>
        <time>2023-02-22T15:30:46Z</time>
      </trkpt>
      <trkpt lat="49.82244" lon="2.11816">
        <ele>126.1</ele>
        <time>2023-02-22T15:30:47Z</time>
      </trkpt>
      <trkpt lat="49.82243" lon="2.11815">
        <ele>126.1</ele>
        <time>2023-02-22T15:30:48Z</time>
      </trkpt>
      <trkpt lat="49.82242" lon="2.11814">
        <ele>126.2</ele>
        <time>2023-02-22T15:30:49Z</time>
      </trkpt>
      <trkpt lat="49.82241" lon="2.11814">
        <ele>126.2</ele>
        <time>2023-02-22T15:30:51Z</time>
      </trkpt>
      <trkpt lat="49.8224" lon="2.11814">
        <ele>126.2</ele>
        <time>2023-02-22T15:30:52Z</time>
      </trkpt>
      <trkpt lat="49.82239" lon="2.11814">
        <ele>126.2</ele>
        <time>2023-02-22T15:30:53Z</time>
      </trkpt>
      <trkpt lat="49.82238" lon="2.11814">
        <ele>126.2</ele>
        <time>2023-02-22T15:30:54Z</time>
      </trkpt>
      <trkpt lat="49.82237" lon="2.11814">
        <ele>126.3</ele>
        <time>2023-02-22T15:30:55Z</time>
      </trkpt>
      <trkpt lat="49.82236" lon="2.11814">
        <ele>126.3</ele>
        <time>2023-02-22T15:30:56Z</time>
      </trkpt>
      <trkpt lat="49.82234" lon="2.11814">
        <ele>126.3</ele>
        <time>2023-02-22T15:30:57Z</time>
      </trkpt>
      <trkpt lat="49.82233" lon="2.11814">
        <ele>126.3</ele>
        <time>2023-02-22T15:30:58Z</time>
      </trkpt>
      <trkpt lat="49.82232" lon="2.11814">
        <ele>126.4</ele>
        <time>2023-02-22T15:31:00Z</time>
      </trkpt>
      <trkpt lat="49.82231" lon="2.11814">
        <ele>126.4</ele>
        <time>2023-02-22T15:31:01Z</time>
      </trkpt>
      <trkpt lat="49.8223" lon="2.11814">
        <ele>126.4</ele>
        <time>2023-02-22T15:31:02Z</time>
      </trkpt>
      <trkpt lat="49.82228" lon="2.11813">
        <ele>126.4</ele>
        <time>2023-02-22T15:31:03Z</time>
      </trkpt>
      <trkpt lat="49.82227" lon="2.11812">
        <ele>126.5</ele>
        <time>2023-02-22T15:31:04Z</time>
      </trkpt>
      <trkpt lat="49.82226" lon="2.11812">
        <ele>126.5</ele>
        <time>2023-02-22T15:31:05Z</time>
      </trkpt>
      <trkpt lat="49.82225" lon="2.11811">
        <ele>126.5</ele>
        <time>2023-02-22T15:31:06Z</time>
      </trkpt>
      <trkpt lat="49.82224" lon="2.11811">
        <ele>126.5</ele>
        <time>2023-02-22T15:31:07Z</time>
      </trkpt>
      <trkpt lat="49.82223" lon="2.1181">
        <ele>126.5</ele>
        <time>2023-02-22T15:31:08Z</time>
      </trkpt>
      <trkpt lat="49.82222" lon="2.1181">
        <ele>126.5</ele>
        <time>2023-02-22T15:31:10Z</time>
      </trkpt>
      <trkpt lat="49.82221" lon="2.1181">
        <ele>126.5</ele>
        <time>2023-02-22T15:31:11Z</time>
      </trkpt>
      <trkpt lat="49.8222" lon="2.11809">
        <ele>126.5</ele>
        <time>2023-02-22T15:31:12Z</time>
      </trkpt>
      <trkpt lat="49.82218" lon="2.11808">
        <ele>126.5</ele>
        <time>2023-02-22T15:31:13Z</time>
      </trkpt>
      <trkpt lat="49.82217" lon="2.11807">
        <ele>126.5</ele>
        <time>2023-02-22T15:31:14Z</time>
      </trkpt>
      <trkpt lat="49.82216" lon="2.11807">
        <ele>126.5</ele>
        <time>2023-02-22T15:31:15Z</time>
      </trkpt>
      <trkpt lat="49.82216" lon="2.11807">
        <ele>126.5</ele>
        <time>2023-02-22T15:31:16Z</time>
      </trkpt>
      <trkpt lat="49.82215" lon="2.11806">
        <ele>126.5</ele>
        <time>2023-02-22T15:31:17Z</time>
      </trkpt>
      <trkpt lat="49.82214" lon="2.11805">
        <ele>126.5</ele>
        <time>2023-02-22T15:31:18Z</time>
      </trkpt>
      <trkpt lat="49.82213" lon="2.11805">
        <ele>126.5</ele>
        <time>2023-02-22T15:31:19Z</time>
      </trkpt>
      <trkpt lat="49.82211" lon="2.11804">
        <ele>126.5</ele>
        <time>2023-02-22T15:31:21Z</time>
      </trkpt>
      <trkpt lat="49.82211" lon="2.11803">
        <ele>126.5</ele>
        <time>2023-02-22T15:31:22Z</time>
      </trkpt>
      <trkpt lat="49.82209" lon="2.11802">
        <ele>126.5</ele>
        <time>2023-02-22T15:31:23Z</time>
      </trkpt>
      <trkpt lat="49.82208" lon="2.11801">
        <ele>126.5</ele>
        <time>2023-02-22T15:31:24Z</time>
      </trkpt>
      <trkpt lat="49.82207" lon="2.118">
        <ele>126.5</ele>
        <time>2023-02-22T15:31:25Z</time>
      </trkpt>
      <trkpt lat="49.82207" lon="2.118">
        <ele>126.5</ele>
        <time>2023-02-22T15:31:26Z</time>
      </trkpt>
      <trkpt lat="49.82206" lon="2.11799">
        <ele>126.5</ele>
        <time>2023-02-22T15:31:27Z</time>
      </trkpt>
      <trkpt lat="49.82205" lon="2.11798">
        <ele>126.5</ele>
        <time>2023-02-22T15:31:28Z</time>
      </trkpt>
      <trkpt lat="49.82204" lon="2.11798">
        <ele>126.6</ele>
        <time>2023-02-22T15:31:29Z</time>
      </trkpt>
      <trkpt lat="49.82203" lon="2.11797">
        <ele>126.6</ele>
        <time>2023-02-22T15:31:30Z</time>
      </trkpt>
      <trkpt lat="49.82202" lon="2.11796">
        <ele>126.6</ele>
        <time>2023-02-22T15:31:32Z</time>
      </trkpt>
      <trkpt lat="49.82201" lon="2.11795">
        <ele>126.6</ele>
        <time>2023-02-22T15:31:33Z</time>
      </trkpt>
      <trkpt lat="49.82201" lon="2.11795">
        <ele>126.6</ele>
        <time>2023-02-22T15:31:34Z</time>
      </trkpt>
      <trkpt lat="49.82199" lon="2.11793">
        <ele>126.6</ele>
        <time>2023-02-22T15:31:35Z</time>
      </trkpt>
      <trkpt lat="49.82199" lon="2.11792">
        <ele>126.6</ele>
        <time>2023-02-22T15:31:36Z</time>
      </trkpt>
      <trkpt lat="49.82198" lon="2.11792">
        <ele>126.6</ele>
        <time>2023-02-22T15:31:37Z</time>
      </trkpt>
      <trkpt lat="49.82196" lon="2.11791">
        <ele>126.7</ele>
        <time>2023-02-22T15:31:38Z</time>
      </trkpt>
      <trkpt lat="49.82195" lon="2.11791">
        <ele>126.7</ele>
        <time>2023-02-22T15:31:39Z</time>
      </trkpt>
      <trkpt lat="49.82193" lon="2.1179">
        <ele>126.7</ele>
        <time>2023-02-22T15:31:40Z</time>
      </trkpt>
      <trkpt lat="49.82191" lon="2.11789">
        <ele>126.7</ele>
        <time>2023-02-22T15:31:41Z</time>
      </trkpt>
      <trkpt lat="49.8219" lon="2.11789">
        <ele>126.7</ele>
        <time>2023-02-22T15:31:42Z</time>
      </trkpt>
      <trkpt lat="49.82189" lon="2.11789">
        <ele>126.7</ele>
        <time>2023-02-22T15:31:44Z</time>
      </trkpt>
      <trkpt lat="49.82188" lon="2.11788">
        <ele>126.8</ele>
        <time>2023-02-22T15:31:45Z</time>
      </trkpt>
      <trkpt lat="49.82187" lon="2.11788">
        <ele>126.8</ele>
        <time>2023-02-22T15:31:46Z</time>
      </trkpt>
      <trkpt lat="49.82186" lon="2.11787">
        <ele>126.8</ele>
        <time>2023-02-22T15:31:47Z</time>
      </trkpt>
      <trkpt lat="49.82185" lon="2.11787">
        <ele>126.8</ele>
        <time>2023-02-22T15:31:48Z</time>
      </trkpt>
      <trkpt lat="49.82184" lon="2.11786">
        <ele>126.8</ele>
        <time>2023-02-22T15:31:49Z</time>
      </trkpt>
      <trkpt lat="49.82182" lon="2.11786">
        <ele>126.8</ele>
        <time>2023-02-22T15:31:51Z</time>
      </trkpt>
      <trkpt lat="49.82181" lon="2.11785">
        <ele>126.8</ele>
        <time>2023-02-22T15:31:52Z</time>
      </trkpt>
      <trkpt lat="49.82179" lon="2.11784">
        <ele>126.8</ele>
        <time>2023-02-22T15:31:53Z</time>
      </trkpt>
      <trkpt lat="49.82178" lon="2.11783">
        <ele>126.8</ele>
        <time>2023-02-22T15:31:54Z</time>
      </trkpt>
      <trkpt lat="49.82177" lon="2.11782">
        <ele>126.8</ele>
        <time>2023-02-22T15:31:55Z</time>
      </trkpt>
      <trkpt lat="49.82176" lon="2.11781">
        <ele>126.8</ele>
        <time>2023-02-22T15:31:56Z</time>
      </trkpt>
      <trkpt lat="49.82176" lon="2.11781">
        <ele>126.8</ele>
        <time>2023-02-22T15:31:57Z</time>
      </trkpt>
      <trkpt lat="49.82174" lon="2.1178">
        <ele>126.8</ele>
        <time>2023-02-22T15:31:58Z</time>
      </trkpt>
      <trkpt lat="49.82173" lon="2.11778">
        <ele>126.8</ele>
        <time>2023-02-22T15:31:59Z</time>
      </trkpt>
      <trkpt lat="49.82172" lon="2.11778">
        <ele>126.8</ele>
        <time>2023-02-22T15:32:01Z</time>
      </trkpt>
      <trkpt lat="49.82171" lon="2.11777">
        <ele>126.8</ele>
        <time>2023-02-22T15:32:02Z</time>
      </trkpt>
      <trkpt lat="49.82169" lon="2.11776">
        <ele>126.8</ele>
        <time>2023-02-22T15:32:03Z</time>
      </trkpt>
      <trkpt lat="49.82168" lon="2.11776">
        <ele>126.8</ele>
        <time>2023-02-22T15:32:04Z</time>
      </trkpt>
      <trkpt lat="49.82168" lon="2.11775">
        <ele>126.8</ele>
        <time>2023-02-22T15:32:05Z</time>
      </trkpt>
      <trkpt lat="49.82167" lon="2.11775">
        <ele>126.7</ele>
        <time>2023-02-22T15:32:06Z</time>
      </trkpt>
      <trkpt lat="49.82166" lon="2.11775">
        <ele>126.7</ele>
        <time>2023-02-22T15:32:07Z</time>
      </trkpt>
      <trkpt lat="49.82165" lon="2.11774">
        <ele>126.7</ele>
        <time>2023-02-22T15:32:09Z</time>
      </trkpt>
      <trkpt lat="49.82164" lon="2.11774">
        <ele>126.7</ele>
        <time>2023-02-22T15:32:10Z</time>
      </trkpt>
      <trkpt lat="49.82162" lon="2.11774">
        <ele>126.7</ele>
        <time>2023-02-22T15:32:11Z</time>
      </trkpt>
      <trkpt lat="49.82161" lon="2.11773">
        <ele>126.7</ele>
        <time>2023-02-22T15:32:12Z</time>
      </trkpt>
      <trkpt lat="49.8216" lon="2.11772">
        <ele>126.7</ele>
        <time>2023-02-22T15:32:13Z</time>
      </trkpt>
      <trkpt lat="49.82159" lon="2.11772">
        <ele>126.7</ele>
        <time>2023-02-22T15:32:14Z</time>
      </trkpt>
      <trkpt lat="49.82158" lon="2.11771">
        <ele>126.6</ele>
        <time>2023-02-22T15:32:15Z</time>
      </trkpt>
      <trkpt lat="49.82157" lon="2.1177">
        <ele>126.6</ele>
        <time>2023-02-22T15:32:16Z</time>
      </trkpt>
      <trkpt lat="49.82156" lon="2.1177">
        <ele>126.6</ele>
        <time>2023-02-22T15:32:17Z</time>
      </trkpt>
      <trkpt lat="49.82155" lon="2.11769">
        <ele>126.6</ele>
        <time>2023-02-22T15:32:19Z</time>
      </trkpt>
      <trkpt lat="49.82154" lon="2.11769">
        <ele>126.6</ele>
        <time>2023-02-22T15:32:20Z</time>
      </trkpt>
      <trkpt lat="49.82153" lon="2.11768">
        <ele>126.5</ele>
        <time>2023-02-22T15:32:21Z</time>
      </trkpt>
      <trkpt lat="49.82152" lon="2.11768">
        <ele>126.5</ele>
        <time>2023-02-22T15:32:22Z</time>
      </trkpt>
      <trkpt lat="49.82149" lon="2.11767">
        <ele>126.5</ele>
        <time>2023-02-22T15:32:24Z</time>
      </trkpt>
      <trkpt lat="49.82149" lon="2.11767">
        <ele>126.5</ele>
        <time>2023-02-22T15:32:25Z</time>
      </trkpt>
      <trkpt lat="49.82148" lon="2.11766">
        <ele>126.5</ele>
        <time>2023-02-22T15:32:26Z</time>
      </trkpt>
      <trkpt lat="49.82147" lon="2.11765">
        <ele>126.4</ele>
        <time>2023-02-22T15:32:28Z</time>
      </trkpt>
      <trkpt lat="49.82146" lon="2.11764">
        <ele>126.4</ele>
        <time>2023-02-22T15:32:29Z</time>
      </trkpt>
      <trkpt lat="49.82144" lon="2.11762">
        <ele>126.4</ele>
        <time>2023-02-22T15:32:30Z</time>
      </trkpt>
      <trkpt lat="49.82144" lon="2.11761">
        <ele>126.4</ele>
        <time>2023-02-22T15:32:31Z</time>
      </trkpt>
      <trkpt lat="49.82143" lon="2.11761">
        <ele>126.4</ele>
        <time>2023-02-22T15:32:32Z</time>
      </trkpt>
      <trkpt lat="49.82142" lon="2.1176">
        <ele>126.3</ele>
        <time>2023-02-22T15:32:33Z</time>
      </trkpt>
      <trkpt lat="49.82141" lon="2.11759">
        <ele>126.3</ele>
        <time>2023-02-22T15:32:34Z</time>
      </trkpt>
      <trkpt lat="49.8214" lon="2.11759">
        <ele>126.3</ele>
        <time>2023-02-22T15:32:35Z</time>
      </trkpt>
      <trkpt lat="49.82138" lon="2.11758">
        <ele>126.3</ele>
        <time>2023-02-22T15:32:36Z</time>
      </trkpt>
      <trkpt lat="49.82137" lon="2.11758">
        <ele>126.3</ele>
        <time>2023-02-22T15:32:37Z</time>
      </trkpt>
      <trkpt lat="49.82137" lon="2.11758">
        <ele>126.3</ele>
        <time>2023-02-22T15:32:38Z</time>
      </trkpt>
      <trkpt lat="49.82135" lon="2.11757">
        <ele>126.3</ele>
        <time>2023-02-22T15:32:40Z</time>
      </trkpt>
      <trkpt lat="49.82133" lon="2.11757">
        <ele>126.3</ele>
        <time>2023-02-22T15:32:41Z</time>
      </trkpt>
      <trkpt lat="49.82132" lon="2.11757">
        <ele>126.3</ele>
        <time>2023-02-22T15:32:42Z</time>
      </trkpt>
      <trkpt lat="49.82131" lon="2.11757">
        <ele>126.2</ele>
        <time>2023-02-22T15:32:44Z</time>
      </trkpt>
      <trkpt lat="49.8213" lon="2.11756">
        <ele>126.2</ele>
        <time>2023-02-22T15:32:45Z</time>
      </trkpt>
      <trkpt lat="49.82129" lon="2.11755">
        <ele>126.2</ele>
        <time>2023-02-22T15:32:46Z</time>
      </trkpt>
      <trkpt lat="49.82128" lon="2.11755">
        <ele>126.2</ele>
        <time>2023-02-22T15:32:47Z</time>
      </trkpt>
      <trkpt lat="49.82127" lon="2.11754">
        <ele>126.2</ele>
        <time>2023-02-22T15:32:48Z</time>
      </trkpt>
      <trkpt lat="49.82126" lon="2.11753">
        <ele>126.2</ele>
        <time>2023-02-22T15:32:49Z</time>
      </trkpt>
      <trkpt lat="49.82126" lon="2.11753">
        <ele>126.2</ele>
        <time>2023-02-22T15:32:50Z</time>
      </trkpt>
      <trkpt lat="49.82124" lon="2.11752">
        <ele>126.2</ele>
        <time>2023-02-22T15:32:51Z</time>
      </trkpt>
      <trkpt lat="49.82123" lon="2.11752">
        <ele>126.2</ele>
        <time>2023-02-22T15:32:52Z</time>
      </trkpt>
      <trkpt lat="49.82122" lon="2.11752">
        <ele>126.2</ele>
        <time>2023-02-22T15:32:54Z</time>
      </trkpt>
      <trkpt lat="49.82121" lon="2.11752">
        <ele>126.2</ele>
        <time>2023-02-22T15:32:55Z</time>
      </trkpt>
      <trkpt lat="49.8212" lon="2.11751">
        <ele>126.2</ele>
        <time>2023-02-22T15:32:56Z</time>
      </trkpt>
      <trkpt lat="49.82119" lon="2.11751">
        <ele>126.2</ele>
        <time>2023-02-22T15:32:57Z</time>
      </trkpt>
      <trkpt lat="49.82117" lon="2.1175">
        <ele>126.1</ele>
        <time>2023-02-22T15:32:58Z</time>
      </trkpt>
      <trkpt lat="49.82116" lon="2.1175">
        <ele>126.1</ele>
        <time>2023-02-22T15:32:59Z</time>
      </trkpt>
      <trkpt lat="49.82115" lon="2.11748">
        <ele>126.1</ele>
        <time>2023-02-22T15:33:01Z</time>
      </trkpt>
      <trkpt lat="49.82115" lon="2.11747">
        <ele>126.1</ele>
        <time>2023-02-22T15:33:02Z</time>
      </trkpt>
      <trkpt lat="49.82115" lon="2.11745">
        <ele>126.1</ele>
        <time>2023-02-22T15:33:04Z</time>
      </trkpt>
      <trkpt lat="49.82115" lon="2.11744">
        <ele>126.1</ele>
        <time>2023-02-22T15:33:05Z</time>
      </trkpt>
      <trkpt lat="49.82115" lon="2.11743">
        <ele>126.1</ele>
        <time>2023-02-22T15:33:07Z</time>
      </trkpt>
      <trkpt lat="49.82116" lon="2.11743">
        <ele>126.1</ele>
        <time>2023-02-22T15:33:08Z</time>
      </trkpt>
      <trkpt lat="49.82116" lon="2.11743">
        <ele>126.1</ele>
        <time>2023-02-22T15:33:09Z</time>
      </trkpt>
      <trkpt lat="49.82116" lon="2.11743">
        <ele>126.1</ele>
        <time>2023-02-22T15:33:10Z</time>
      </trkpt>
      <trkpt lat="49.82116" lon="2.11743">
        <ele>126.1</ele>
        <time>2023-02-22T15:33:12Z</time>
      </trkpt>
      <trkpt lat="49.82116" lon="2.11743">
        <ele>126.1</ele>
        <time>2023-02-22T15:33:14Z</time>
      </trkpt>
      <trkpt lat="49.82116" lon="2.11743">
        <ele>126.1</ele>
        <time>2023-02-22T15:33:15Z</time>
      </trkpt>
      <trkpt lat="49.82117" lon="2.11743">
        <ele>126.1</ele>
        <time>2023-02-22T15:33:17Z</time>
      </trkpt>
      <trkpt lat="49.82117" lon="2.11743">
        <ele>126.1</ele>
        <time>2023-02-22T15:33:18Z</time>
      </trkpt>
      <trkpt lat="49.82117" lon="2.11743">
        <ele>126.1</ele>
        <time>2023-02-22T15:33:19Z</time>
      </trkpt>
      <trkpt lat="49.82117" lon="2.11743">
        <ele>126.1</ele>
        <time>2023-02-22T15:33:20Z</time>
      </trkpt>
      <trkpt lat="49.82116" lon="2.11743">
        <ele>126.1</ele>
        <time>2023-02-22T15:33:21Z</time>
      </trkpt>
      <trkpt lat="49.82116" lon="2.11743">
        <ele>126.1</ele>
        <time>2023-02-22T15:33:22Z</time>
      </trkpt>
      <trkpt lat="49.82115" lon="2.11743">
        <ele>126.1</ele>
        <time>2023-02-22T15:33:24Z</time>
      </trkpt>
      <trkpt lat="49.82115" lon="2.11743">
        <ele>126.1</ele>
        <time>2023-02-22T15:33:25Z</time>
      </trkpt>
      <trkpt lat="49.82114" lon="2.11743">
        <ele>126.1</ele>
        <time>2023-02-22T15:33:26Z</time>
      </trkpt>
      <trkpt lat="49.82113" lon="2.11742">
        <ele>126.1</ele>
        <time>2023-02-22T15:33:27Z</time>
      </trkpt>
      <trkpt lat="49.82112" lon="2.11741">
        <ele>126.1</ele>
        <time>2023-02-22T15:33:28Z</time>
      </trkpt>
      <trkpt lat="49.82111" lon="2.11741">
        <ele>126.1</ele>
        <time>2023-02-22T15:33:29Z</time>
      </trkpt>
      <trkpt lat="49.8211" lon="2.11741">
        <ele>126.1</ele>
        <time>2023-02-22T15:33:30Z</time>
      </trkpt>
      <trkpt lat="49.82109" lon="2.11741">
        <ele>126.1</ele>
        <time>2023-02-22T15:33:31Z</time>
      </trkpt>
      <trkpt lat="49.82108" lon="2.1174">
        <ele>126.1</ele>
        <time>2023-02-22T15:33:33Z</time>
      </trkpt>
      <trkpt lat="49.82108" lon="2.1174">
        <ele>126.1</ele>
        <time>2023-02-22T15:33:34Z</time>
      </trkpt>
      <trkpt lat="49.82107" lon="2.1174">
        <ele>126.1</ele>
        <time>2023-02-22T15:33:35Z</time>
      </trkpt>
      <trkpt lat="49.82106" lon="2.11739">
        <ele>126.1</ele>
        <time>2023-02-22T15:33:36Z</time>
      </trkpt>
      <trkpt lat="49.82105" lon="2.11739">
        <ele>126.1</ele>
        <time>2023-02-22T15:33:37Z</time>
      </trkpt>
      <trkpt lat="49.82104" lon="2.11739">
        <ele>126.1</ele>
        <time>2023-02-22T15:33:38Z</time>
      </trkpt>
      <trkpt lat="49.82104" lon="2.11739">
        <ele>126.1</ele>
        <time>2023-02-22T15:33:39Z</time>
      </trkpt>
      <trkpt lat="49.82103" lon="2.11739">
        <ele>126.1</ele>
        <time>2023-02-22T15:33:41Z</time>
      </trkpt>
      <trkpt lat="49.82101" lon="2.11739">
        <ele>126.1</ele>
        <time>2023-02-22T15:33:42Z</time>
      </trkpt>
      <trkpt lat="49.82099" lon="2.11738">
        <ele>126.1</ele>
        <time>2023-02-22T15:33:43Z</time>
      </trkpt>
      <trkpt lat="49.82098" lon="2.11738">
        <ele>126.1</ele>
        <time>2023-02-22T15:33:44Z</time>
      </trkpt>
      <trkpt lat="49.82097" lon="2.11738">
        <ele>126.1</ele>
        <time>2023-02-22T15:33:45Z</time>
      </trkpt>
      <trkpt lat="49.82095" lon="2.11737">
        <ele>126.1</ele>
        <time>2023-02-22T15:33:46Z</time>
      </trkpt>
      <trkpt lat="49.82094" lon="2.11737">
        <ele>126.1</ele>
        <time>2023-02-22T15:33:47Z</time>
      </trkpt>
      <trkpt lat="49.82092" lon="2.11736">
        <ele>126.1</ele>
        <time>2023-02-22T15:33:48Z</time>
      </trkpt>
      <trkpt lat="49.82091" lon="2.11736">
        <ele>126.1</ele>
        <time>2023-02-22T15:33:50Z</time>
      </trkpt>
      <trkpt lat="49.82089" lon="2.11735">
        <ele>126.1</ele>
        <time>2023-02-22T15:33:51Z</time>
      </trkpt>
      <trkpt lat="49.82087" lon="2.11733">
        <ele>126.1</ele>
        <time>2023-02-22T15:33:52Z</time>
      </trkpt>
      <trkpt lat="49.82086" lon="2.11733">
        <ele>126.1</ele>
        <time>2023-02-22T15:33:53Z</time>
      </trkpt>
      <trkpt lat="49.82085" lon="2.11732">
        <ele>126.1</ele>
        <time>2023-02-22T15:33:54Z</time>
      </trkpt>
      <trkpt lat="49.82083" lon="2.11731">
        <ele>126.1</ele>
        <time>2023-02-22T15:33:55Z</time>
      </trkpt>
      <trkpt lat="49.82082" lon="2.11731">
        <ele>126.1</ele>
        <time>2023-02-22T15:33:56Z</time>
      </trkpt>
      <trkpt lat="49.82081" lon="2.1173">
        <ele>126.1</ele>
        <time>2023-02-22T15:33:57Z</time>
      </trkpt>
      <trkpt lat="49.8208" lon="2.11729">
        <ele>126.1</ele>
        <time>2023-02-22T15:33:59Z</time>
      </trkpt>
      <trkpt lat="49.82079" lon="2.11729">
        <ele>126.1</ele>
        <time>2023-02-22T15:34:00Z</time>
      </trkpt>
      <trkpt lat="49.82078" lon="2.11728">
        <ele>126.1</ele>
        <time>2023-02-22T15:34:01Z</time>
      </trkpt>
      <trkpt lat="49.82077" lon="2.11727">
        <ele>126.1</ele>
        <time>2023-02-22T15:34:02Z</time>
      </trkpt>
      <trkpt lat="49.82075" lon="2.11726">
        <ele>126.1</ele>
        <time>2023-02-22T15:34:04Z</time>
      </trkpt>
      <trkpt lat="49.82075" lon="2.11726">
        <ele>126.1</ele>
        <time>2023-02-22T15:34:05Z</time>
      </trkpt>
      <trkpt lat="49.82073" lon="2.11725">
        <ele>126.1</ele>
        <time>2023-02-22T15:34:06Z</time>
      </trkpt>
      <trkpt lat="49.82072" lon="2.11724">
        <ele>126.1</ele>
        <time>2023-02-22T15:34:07Z</time>
      </trkpt>
      <trkpt lat="49.8207" lon="2.11723">
        <ele>126.1</ele>
        <time>2023-02-22T15:34:08Z</time>
      </trkpt>
      <trkpt lat="49.82069" lon="2.11723">
        <ele>126.1</ele>
        <time>2023-02-22T15:34:09Z</time>
      </trkpt>
      <trkpt lat="49.82068" lon="2.11722">
        <ele>126.1</ele>
        <time>2023-02-22T15:34:10Z</time>
      </trkpt>
      <trkpt lat="49.82067" lon="2.11722">
        <ele>126.1</ele>
        <time>2023-02-22T15:34:11Z</time>
      </trkpt>
      <trkpt lat="49.82067" lon="2.11721">
        <ele>126.1</ele>
        <time>2023-02-22T15:34:12Z</time>
      </trkpt>
      <trkpt lat="49.82066" lon="2.1172">
        <ele>126.1</ele>
        <time>2023-02-22T15:34:13Z</time>
      </trkpt>
      <trkpt lat="49.82064" lon="2.11719">
        <ele>126.1</ele>
        <time>2023-02-22T15:34:14Z</time>
      </trkpt>
      <trkpt lat="49.82063" lon="2.11718">
        <ele>126.1</ele>
        <time>2023-02-22T15:34:15Z</time>
      </trkpt>
      <trkpt lat="49.82062" lon="2.11718">
        <ele>126.1</ele>
        <time>2023-02-22T15:34:16Z</time>
      </trkpt>
      <trkpt lat="49.82061" lon="2.11717">
        <ele>126.1</ele>
        <time>2023-02-22T15:34:17Z</time>
      </trkpt>
      <trkpt lat="49.8206" lon="2.11717">
        <ele>126.1</ele>
        <time>2023-02-22T15:34:19Z</time>
      </trkpt>
      <trkpt lat="49.82059" lon="2.11716">
        <ele>126.1</ele>
        <time>2023-02-22T15:34:20Z</time>
      </trkpt>
      <trkpt lat="49.82057" lon="2.11715">
        <ele>126</ele>
        <time>2023-02-22T15:34:21Z</time>
      </trkpt>
      <trkpt lat="49.82055" lon="2.11714">
        <ele>126</ele>
        <time>2023-02-22T15:34:22Z</time>
      </trkpt>
      <trkpt lat="49.82054" lon="2.11714">
        <ele>126</ele>
        <time>2023-02-22T15:34:23Z</time>
      </trkpt>
      <trkpt lat="49.82053" lon="2.11713">
        <ele>126</ele>
        <time>2023-02-22T15:34:24Z</time>
      </trkpt>
      <trkpt lat="49.82052" lon="2.11712">
        <ele>126</ele>
        <time>2023-02-22T15:34:25Z</time>
      </trkpt>
      <trkpt lat="49.82051" lon="2.11712">
        <ele>126</ele>
        <time>2023-02-22T15:34:26Z</time>
      </trkpt>
      <trkpt lat="49.8205" lon="2.11711">
        <ele>126</ele>
        <time>2023-02-22T15:34:28Z</time>
      </trkpt>
      <trkpt lat="49.82049" lon="2.1171">
        <ele>126</ele>
        <time>2023-02-22T15:34:29Z</time>
      </trkpt>
      <trkpt lat="49.82048" lon="2.1171">
        <ele>126</ele>
        <time>2023-02-22T15:34:30Z</time>
      </trkpt>
      <trkpt lat="49.82047" lon="2.11709">
        <ele>126</ele>
        <time>2023-02-22T15:34:31Z</time>
      </trkpt>
      <trkpt lat="49.82046" lon="2.11709">
        <ele>126</ele>
        <time>2023-02-22T15:34:32Z</time>
      </trkpt>
      <trkpt lat="49.82044" lon="2.11708">
        <ele>126</ele>
        <time>2023-02-22T15:34:33Z</time>
      </trkpt>
      <trkpt lat="49.82043" lon="2.11707">
        <ele>126</ele>
        <time>2023-02-22T15:34:35Z</time>
      </trkpt>
      <trkpt lat="49.82041" lon="2.11707">
        <ele>126</ele>
        <time>2023-02-22T15:34:36Z</time>
      </trkpt>
      <trkpt lat="49.82039" lon="2.11706">
        <ele>126.1</ele>
        <time>2023-02-22T15:34:37Z</time>
      </trkpt>
      <trkpt lat="49.82038" lon="2.11705">
        <ele>126.1</ele>
        <time>2023-02-22T15:34:38Z</time>
      </trkpt>
      <trkpt lat="49.82038" lon="2.11705">
        <ele>126.1</ele>
        <time>2023-02-22T15:34:39Z</time>
      </trkpt>
      <trkpt lat="49.82036" lon="2.11704">
        <ele>126.1</ele>
        <time>2023-02-22T15:34:40Z</time>
      </trkpt>
      <trkpt lat="49.82035" lon="2.11703">
        <ele>126.1</ele>
        <time>2023-02-22T15:34:41Z</time>
      </trkpt>
      <trkpt lat="49.82034" lon="2.11703">
        <ele>126.1</ele>
        <time>2023-02-22T15:34:43Z</time>
      </trkpt>
      <trkpt lat="49.82033" lon="2.11703">
        <ele>126.2</ele>
        <time>2023-02-22T15:34:44Z</time>
      </trkpt>
      <trkpt lat="49.82032" lon="2.11702">
        <ele>126.2</ele>
        <time>2023-02-22T15:34:45Z</time>
      </trkpt>
      <trkpt lat="49.8203" lon="2.11701">
        <ele>126.2</ele>
        <time>2023-02-22T15:34:46Z</time>
      </trkpt>
      <trkpt lat="49.82029" lon="2.117">
        <ele>126.3</ele>
        <time>2023-02-22T15:34:47Z</time>
      </trkpt>
      <trkpt lat="49.82028" lon="2.11699">
        <ele>126.3</ele>
        <time>2023-02-22T15:34:49Z</time>
      </trkpt>
      <trkpt lat="49.82027" lon="2.11698">
        <ele>126.3</ele>
        <time>2023-02-22T15:34:50Z</time>
      </trkpt>
      <trkpt lat="49.82026" lon="2.11698">
        <ele>126.4</ele>
        <time>2023-02-22T15:34:51Z</time>
      </trkpt>
      <trkpt lat="49.82024" lon="2.11697">
        <ele>126.4</ele>
        <time>2023-02-22T15:34:52Z</time>
      </trkpt>
      <trkpt lat="49.82023" lon="2.11696">
        <ele>126.5</ele>
        <time>2023-02-22T15:34:53Z</time>
      </trkpt>
      <trkpt lat="49.82022" lon="2.11696">
        <ele>126.5</ele>
        <time>2023-02-22T15:34:54Z</time>
      </trkpt>
      <trkpt lat="49.82022" lon="2.11696">
        <ele>126.5</ele>
        <time>2023-02-22T15:34:55Z</time>
      </trkpt>
      <trkpt lat="49.8202" lon="2.11695">
        <ele>126.6</ele>
        <time>2023-02-22T15:34:56Z</time>
      </trkpt>
      <trkpt lat="49.82019" lon="2.11694">
        <ele>126.6</ele>
        <time>2023-02-22T15:34:58Z</time>
      </trkpt>
      <trkpt lat="49.82018" lon="2.11693">
        <ele>126.6</ele>
        <time>2023-02-22T15:34:59Z</time>
      </trkpt>
      <trkpt lat="49.82017" lon="2.11693">
        <ele>126.7</ele>
        <time>2023-02-22T15:35:00Z</time>
      </trkpt>
      <trkpt lat="49.82016" lon="2.11692">
        <ele>126.7</ele>
        <time>2023-02-22T15:35:01Z</time>
      </trkpt>
      <trkpt lat="49.82014" lon="2.1169">
        <ele>126.8</ele>
        <time>2023-02-22T15:35:02Z</time>
      </trkpt>
      <trkpt lat="49.82013" lon="2.1169">
        <ele>126.8</ele>
        <time>2023-02-22T15:35:03Z</time>
      </trkpt>
      <trkpt lat="49.82012" lon="2.11689">
        <ele>126.8</ele>
        <time>2023-02-22T15:35:04Z</time>
      </trkpt>
      <trkpt lat="49.8201" lon="2.11688">
        <ele>126.9</ele>
        <time>2023-02-22T15:35:05Z</time>
      </trkpt>
      <trkpt lat="49.82009" lon="2.11688">
        <ele>126.9</ele>
        <time>2023-02-22T15:35:06Z</time>
      </trkpt>
      <trkpt lat="49.82008" lon="2.11687">
        <ele>127</ele>
        <time>2023-02-22T15:35:07Z</time>
      </trkpt>
      <trkpt lat="49.82008" lon="2.11687">
        <ele>127</ele>
        <time>2023-02-22T15:35:09Z</time>
      </trkpt>
      <trkpt lat="49.82006" lon="2.11686">
        <ele>127</ele>
        <time>2023-02-22T15:35:10Z</time>
      </trkpt>
      <trkpt lat="49.82006" lon="2.11686">
        <ele>127</ele>
        <time>2023-02-22T15:35:11Z</time>
      </trkpt>
      <trkpt lat="49.82004" lon="2.11685">
        <ele>127.1</ele>
        <time>2023-02-22T15:35:12Z</time>
      </trkpt>
      <trkpt lat="49.82003" lon="2.11685">
        <ele>127.1</ele>
        <time>2023-02-22T15:35:13Z</time>
      </trkpt>
      <trkpt lat="49.82002" lon="2.11685">
        <ele>127.1</ele>
        <time>2023-02-22T15:35:14Z</time>
      </trkpt>
      <trkpt lat="49.82001" lon="2.11685">
        <ele>127.2</ele>
        <time>2023-02-22T15:35:15Z</time>
      </trkpt>
      <trkpt lat="49.82" lon="2.11685">
        <ele>127.2</ele>
        <time>2023-02-22T15:35:17Z</time>
      </trkpt>
      <trkpt lat="49.81999" lon="2.11684">
        <ele>127.2</ele>
        <time>2023-02-22T15:35:18Z</time>
      </trkpt>
      <trkpt lat="49.81997" lon="2.11683">
        <ele>127.2</ele>
        <time>2023-02-22T15:35:19Z</time>
      </trkpt>
      <trkpt lat="49.81996" lon="2.11682">
        <ele>127.3</ele>
        <time>2023-02-22T15:35:20Z</time>
      </trkpt>
      <trkpt lat="49.81996" lon="2.11682">
        <ele>127.3</ele>
        <time>2023-02-22T15:35:21Z</time>
      </trkpt>
      <trkpt lat="49.81994" lon="2.11681">
        <ele>127.3</ele>
        <time>2023-02-22T15:35:22Z</time>
      </trkpt>
      <trkpt lat="49.81993" lon="2.11681">
        <ele>127.3</ele>
        <time>2023-02-22T15:35:23Z</time>
      </trkpt>
      <trkpt lat="49.81992" lon="2.1168">
        <ele>127.3</ele>
        <time>2023-02-22T15:35:24Z</time>
      </trkpt>
      <trkpt lat="49.8199" lon="2.11679">
        <ele>127.3</ele>
        <time>2023-02-22T15:35:25Z</time>
      </trkpt>
      <trkpt lat="49.81989" lon="2.11679">
        <ele>127.3</ele>
        <time>2023-02-22T15:35:26Z</time>
      </trkpt>
      <trkpt lat="49.81988" lon="2.11678">
        <ele>127.3</ele>
        <time>2023-02-22T15:35:27Z</time>
      </trkpt>
      <trkpt lat="49.81988" lon="2.11677">
        <ele>127.3</ele>
        <time>2023-02-22T15:35:29Z</time>
      </trkpt>
      <trkpt lat="49.81986" lon="2.11676">
        <ele>127.3</ele>
        <time>2023-02-22T15:35:30Z</time>
      </trkpt>
      <trkpt lat="49.81985" lon="2.11675">
        <ele>127.4</ele>
        <time>2023-02-22T15:35:31Z</time>
      </trkpt>
      <trkpt lat="49.81985" lon="2.11675">
        <ele>127.4</ele>
        <time>2023-02-22T15:35:32Z</time>
      </trkpt>
      <trkpt lat="49.81983" lon="2.11673">
        <ele>127.4</ele>
        <time>2023-02-22T15:35:33Z</time>
      </trkpt>
      <trkpt lat="49.81981" lon="2.11673">
        <ele>127.4</ele>
        <time>2023-02-22T15:35:35Z</time>
      </trkpt>
      <trkpt lat="49.8198" lon="2.11672">
        <ele>127.4</ele>
        <time>2023-02-22T15:35:36Z</time>
      </trkpt>
      <trkpt lat="49.81979" lon="2.11671">
        <ele>127.4</ele>
        <time>2023-02-22T15:35:37Z</time>
      </trkpt>
      <trkpt lat="49.81978" lon="2.11671">
        <ele>127.4</ele>
        <time>2023-02-22T15:35:38Z</time>
      </trkpt>
      <trkpt lat="49.81977" lon="2.1167">
        <ele>127.4</ele>
        <time>2023-02-22T15:35:40Z</time>
      </trkpt>
      <trkpt lat="49.81976" lon="2.1167">
        <ele>127.4</ele>
        <time>2023-02-22T15:35:41Z</time>
      </trkpt>
      <trkpt lat="49.81975" lon="2.11669">
        <ele>127.4</ele>
        <time>2023-02-22T15:35:42Z</time>
      </trkpt>
      <trkpt lat="49.81973" lon="2.11669">
        <ele>127.4</ele>
        <time>2023-02-22T15:35:43Z</time>
      </trkpt>
      <trkpt lat="49.81972" lon="2.11668">
        <ele>127.4</ele>
        <time>2023-02-22T15:35:44Z</time>
      </trkpt>
      <trkpt lat="49.81971" lon="2.11668">
        <ele>127.4</ele>
        <time>2023-02-22T15:35:45Z</time>
      </trkpt>
      <trkpt lat="49.8197" lon="2.11667">
        <ele>127.4</ele>
        <time>2023-02-22T15:35:47Z</time>
      </trkpt>
      <trkpt lat="49.81969" lon="2.11667">
        <ele>127.4</ele>
        <time>2023-02-22T15:35:48Z</time>
      </trkpt>
      <trkpt lat="49.81968" lon="2.11666">
        <ele>127.4</ele>
        <time>2023-02-22T15:35:49Z</time>
      </trkpt>
      <trkpt lat="49.81967" lon="2.11666">
        <ele>127.4</ele>
        <time>2023-02-22T15:35:50Z</time>
      </trkpt>
      <trkpt lat="49.81966" lon="2.11665">
        <ele>127.4</ele>
        <time>2023-02-22T15:35:51Z</time>
      </trkpt>
      <trkpt lat="49.81964" lon="2.11663">
        <ele>127.4</ele>
        <time>2023-02-22T15:35:52Z</time>
      </trkpt>
      <trkpt lat="49.81963" lon="2.11663">
        <ele>127.4</ele>
        <time>2023-02-22T15:35:53Z</time>
      </trkpt>
      <trkpt lat="49.81963" lon="2.11662">
        <ele>127.4</ele>
        <time>2023-02-22T15:35:54Z</time>
      </trkpt>
      <trkpt lat="49.81961" lon="2.1166">
        <ele>127.4</ele>
        <time>2023-02-22T15:35:55Z</time>
      </trkpt>
      <trkpt lat="49.8196" lon="2.1166">
        <ele>127.4</ele>
        <time>2023-02-22T15:35:56Z</time>
      </trkpt>
      <trkpt lat="49.81959" lon="2.11659">
        <ele>127.4</ele>
        <time>2023-02-22T15:35:57Z</time>
      </trkpt>
      <trkpt lat="49.81958" lon="2.11659">
        <ele>127.4</ele>
        <time>2023-02-22T15:35:59Z</time>
      </trkpt>
      <trkpt lat="49.81957" lon="2.11658">
        <ele>127.4</ele>
        <time>2023-02-22T15:36:00Z</time>
      </trkpt>
      <trkpt lat="49.81956" lon="2.11658">
        <ele>127.4</ele>
        <time>2023-02-22T15:36:01Z</time>
      </trkpt>
      <trkpt lat="49.81954" lon="2.11657">
        <ele>127.4</ele>
        <time>2023-02-22T15:36:03Z</time>
      </trkpt>
      <trkpt lat="49.81953" lon="2.11656">
        <ele>127.4</ele>
        <time>2023-02-22T15:36:04Z</time>
      </trkpt>
      <trkpt lat="49.81951" lon="2.11655">
        <ele>127.4</ele>
        <time>2023-02-22T15:36:05Z</time>
      </trkpt>
      <trkpt lat="49.8195" lon="2.11654">
        <ele>127.4</ele>
        <time>2023-02-22T15:36:06Z</time>
      </trkpt>
      <trkpt lat="49.81949" lon="2.11654">
        <ele>127.4</ele>
        <time>2023-02-22T15:36:07Z</time>
      </trkpt>
      <trkpt lat="49.81948" lon="2.11653">
        <ele>127.4</ele>
        <time>2023-02-22T15:36:08Z</time>
      </trkpt>
      <trkpt lat="49.81947" lon="2.11653">
        <ele>127.4</ele>
        <time>2023-02-22T15:36:10Z</time>
      </trkpt>
      <trkpt lat="49.81946" lon="2.11652">
        <ele>127.4</ele>
        <time>2023-02-22T15:36:11Z</time>
      </trkpt>
      <trkpt lat="49.81944" lon="2.11651">
        <ele>127.4</ele>
        <time>2023-02-22T15:36:12Z</time>
      </trkpt>
      <trkpt lat="49.81943" lon="2.1165">
        <ele>127.4</ele>
        <time>2023-02-22T15:36:13Z</time>
      </trkpt>
      <trkpt lat="49.81942" lon="2.1165">
        <ele>127.4</ele>
        <time>2023-02-22T15:36:15Z</time>
      </trkpt>
      <trkpt lat="49.81941" lon="2.11649">
        <ele>127.4</ele>
        <time>2023-02-22T15:36:16Z</time>
      </trkpt>
      <trkpt lat="49.8194" lon="2.11649">
        <ele>127.4</ele>
        <time>2023-02-22T15:36:17Z</time>
      </trkpt>
      <trkpt lat="49.81939" lon="2.11648">
        <ele>127.4</ele>
        <time>2023-02-22T15:36:18Z</time>
      </trkpt>
      <trkpt lat="49.81938" lon="2.11647">
        <ele>127.4</ele>
        <time>2023-02-22T15:36:19Z</time>
      </trkpt>
      <trkpt lat="49.81937" lon="2.11647">
        <ele>127.4</ele>
        <time>2023-02-22T15:36:20Z</time>
      </trkpt>
      <trkpt lat="49.81936" lon="2.11646">
        <ele>127.4</ele>
        <time>2023-02-22T15:36:21Z</time>
      </trkpt>
      <trkpt lat="49.81935" lon="2.11646">
        <ele>127.4</ele>
        <time>2023-02-22T15:36:22Z</time>
      </trkpt>
      <trkpt lat="49.81934" lon="2.11645">
        <ele>127.4</ele>
        <time>2023-02-22T15:36:23Z</time>
      </trkpt>
      <trkpt lat="49.81933" lon="2.11645">
        <ele>127.4</ele>
        <time>2023-02-22T15:36:24Z</time>
      </trkpt>
      <trkpt lat="49.81931" lon="2.11643">
        <ele>127.4</ele>
        <time>2023-02-22T15:36:26Z</time>
      </trkpt>
      <trkpt lat="49.8193" lon="2.11643">
        <ele>127.4</ele>
        <time>2023-02-22T15:36:27Z</time>
      </trkpt>
      <trkpt lat="49.81929" lon="2.11642">
        <ele>127.4</ele>
        <time>2023-02-22T15:36:28Z</time>
      </trkpt>
      <trkpt lat="49.81929" lon="2.11642">
        <ele>127.4</ele>
        <time>2023-02-22T15:36:29Z</time>
      </trkpt>
      <trkpt lat="49.81928" lon="2.11641">
        <ele>127.4</ele>
        <time>2023-02-22T15:36:30Z</time>
      </trkpt>
      <trkpt lat="49.81927" lon="2.1164">
        <ele>127.4</ele>
        <time>2023-02-22T15:36:32Z</time>
      </trkpt>
      <trkpt lat="49.81926" lon="2.11639">
        <ele>127.4</ele>
        <time>2023-02-22T15:36:33Z</time>
      </trkpt>
      <trkpt lat="49.81925" lon="2.11638">
        <ele>127.4</ele>
        <time>2023-02-22T15:36:34Z</time>
      </trkpt>
      <trkpt lat="49.81924" lon="2.11637">
        <ele>127.4</ele>
        <time>2023-02-22T15:36:35Z</time>
      </trkpt>
      <trkpt lat="49.81922" lon="2.11636">
        <ele>127.4</ele>
        <time>2023-02-22T15:36:36Z</time>
      </trkpt>
      <trkpt lat="49.81921" lon="2.11636">
        <ele>127.4</ele>
        <time>2023-02-22T15:36:37Z</time>
      </trkpt>
      <trkpt lat="49.81921" lon="2.11635">
        <ele>127.4</ele>
        <time>2023-02-22T15:36:38Z</time>
      </trkpt>
      <trkpt lat="49.8192" lon="2.11635">
        <ele>127.4</ele>
        <time>2023-02-22T15:36:39Z</time>
      </trkpt>
      <trkpt lat="49.81918" lon="2.11635">
        <ele>127.4</ele>
        <time>2023-02-22T15:36:40Z</time>
      </trkpt>
      <trkpt lat="49.81917" lon="2.11634">
        <ele>127.5</ele>
        <time>2023-02-22T15:36:41Z</time>
      </trkpt>
      <trkpt lat="49.81916" lon="2.11633">
        <ele>127.5</ele>
        <time>2023-02-22T15:36:43Z</time>
      </trkpt>
      <trkpt lat="49.81915" lon="2.11633">
        <ele>127.5</ele>
        <time>2023-02-22T15:36:44Z</time>
      </trkpt>
      <trkpt lat="49.81914" lon="2.11633">
        <ele>127.5</ele>
        <time>2023-02-22T15:36:45Z</time>
      </trkpt>
      <trkpt lat="49.81913" lon="2.11632">
        <ele>127.5</ele>
        <time>2023-02-22T15:36:46Z</time>
      </trkpt>
      <trkpt lat="49.81912" lon="2.11631">
        <ele>127.5</ele>
        <time>2023-02-22T15:36:47Z</time>
      </trkpt>
      <trkpt lat="49.81911" lon="2.11631">
        <ele>127.5</ele>
        <time>2023-02-22T15:36:49Z</time>
      </trkpt>
      <trkpt lat="49.8191" lon="2.1163">
        <ele>127.5</ele>
        <time>2023-02-22T15:36:50Z</time>
      </trkpt>
      <trkpt lat="49.81909" lon="2.11629">
        <ele>127.6</ele>
        <time>2023-02-22T15:36:51Z</time>
      </trkpt>
      <trkpt lat="49.81908" lon="2.11629">
        <ele>127.6</ele>
        <time>2023-02-22T15:36:52Z</time>
      </trkpt>
      <trkpt lat="49.81906" lon="2.11628">
        <ele>127.6</ele>
        <time>2023-02-22T15:36:53Z</time>
      </trkpt>
      <trkpt lat="49.81906" lon="2.11628">
        <ele>127.6</ele>
        <time>2023-02-22T15:36:54Z</time>
      </trkpt>
      <trkpt lat="49.81904" lon="2.11627">
        <ele>127.6</ele>
        <time>2023-02-22T15:36:55Z</time>
      </trkpt>
      <trkpt lat="49.81903" lon="2.11627">
        <ele>127.7</ele>
        <time>2023-02-22T15:36:56Z</time>
      </trkpt>
      <trkpt lat="49.81902" lon="2.11626">
        <ele>127.7</ele>
        <time>2023-02-22T15:36:57Z</time>
      </trkpt>
      <trkpt lat="49.81901" lon="2.11626">
        <ele>127.7</ele>
        <time>2023-02-22T15:36:58Z</time>
      </trkpt>
      <trkpt lat="49.81899" lon="2.11626">
        <ele>127.7</ele>
        <time>2023-02-22T15:37:00Z</time>
      </trkpt>
      <trkpt lat="49.81898" lon="2.11626">
        <ele>127.7</ele>
        <time>2023-02-22T15:37:01Z</time>
      </trkpt>
      <trkpt lat="49.81897" lon="2.11625">
        <ele>127.8</ele>
        <time>2023-02-22T15:37:02Z</time>
      </trkpt>
      <trkpt lat="49.81895" lon="2.11625">
        <ele>127.8</ele>
        <time>2023-02-22T15:37:03Z</time>
      </trkpt>
      <trkpt lat="49.81894" lon="2.11625">
        <ele>127.8</ele>
        <time>2023-02-22T15:37:04Z</time>
      </trkpt>
      <trkpt lat="49.81893" lon="2.11625">
        <ele>127.8</ele>
        <time>2023-02-22T15:37:05Z</time>
      </trkpt>
      <trkpt lat="49.81892" lon="2.11624">
        <ele>127.8</ele>
        <time>2023-02-22T15:37:06Z</time>
      </trkpt>
      <trkpt lat="49.81891" lon="2.11624">
        <ele>127.8</ele>
        <time>2023-02-22T15:37:08Z</time>
      </trkpt>
      <trkpt lat="49.81889" lon="2.11624">
        <ele>127.8</ele>
        <time>2023-02-22T15:37:09Z</time>
      </trkpt>
      <trkpt lat="49.81889" lon="2.11624">
        <ele>127.8</ele>
        <time>2023-02-22T15:37:10Z</time>
      </trkpt>
      <trkpt lat="49.81888" lon="2.11624">
        <ele>127.9</ele>
        <time>2023-02-22T15:37:11Z</time>
      </trkpt>
      <trkpt lat="49.81887" lon="2.11624">
        <ele>127.9</ele>
        <time>2023-02-22T15:37:12Z</time>
      </trkpt>
      <trkpt lat="49.81884" lon="2.11624">
        <ele>127.9</ele>
        <time>2023-02-22T15:37:14Z</time>
      </trkpt>
      <trkpt lat="49.81884" lon="2.11623">
        <ele>127.9</ele>
        <time>2023-02-22T15:37:15Z</time>
      </trkpt>
      <trkpt lat="49.81882" lon="2.11622">
        <ele>127.9</ele>
        <time>2023-02-22T15:37:16Z</time>
      </trkpt>
      <trkpt lat="49.81881" lon="2.11622">
        <ele>127.9</ele>
        <time>2023-02-22T15:37:17Z</time>
      </trkpt>
      <trkpt lat="49.81879" lon="2.11621">
        <ele>128</ele>
        <time>2023-02-22T15:37:18Z</time>
      </trkpt>
      <trkpt lat="49.81878" lon="2.1162">
        <ele>128</ele>
        <time>2023-02-22T15:37:19Z</time>
      </trkpt>
      <trkpt lat="49.81877" lon="2.1162">
        <ele>128</ele>
        <time>2023-02-22T15:37:20Z</time>
      </trkpt>
      <trkpt lat="49.81877" lon="2.1162">
        <ele>128</ele>
        <time>2023-02-22T15:37:21Z</time>
      </trkpt>
      <trkpt lat="49.81875" lon="2.11619">
        <ele>128</ele>
        <time>2023-02-22T15:37:22Z</time>
      </trkpt>
      <trkpt lat="49.81874" lon="2.11618">
        <ele>128.1</ele>
        <time>2023-02-22T15:37:23Z</time>
      </trkpt>
      <trkpt lat="49.81873" lon="2.11618">
        <ele>128.1</ele>
        <time>2023-02-22T15:37:24Z</time>
      </trkpt>
      <trkpt lat="49.81872" lon="2.11618">
        <ele>128.1</ele>
        <time>2023-02-22T15:37:26Z</time>
      </trkpt>
      <trkpt lat="49.81871" lon="2.11617">
        <ele>128.1</ele>
        <time>2023-02-22T15:37:27Z</time>
      </trkpt>
      <trkpt lat="49.81869" lon="2.11617">
        <ele>128.1</ele>
        <time>2023-02-22T15:37:28Z</time>
      </trkpt>
      <trkpt lat="49.81868" lon="2.11616">
        <ele>128.1</ele>
        <time>2023-02-22T15:37:29Z</time>
      </trkpt>
      <trkpt lat="49.81867" lon="2.11615">
        <ele>128.2</ele>
        <time>2023-02-22T15:37:30Z</time>
      </trkpt>
      <trkpt lat="49.81866" lon="2.11615">
        <ele>128.2</ele>
        <time>2023-02-22T15:37:31Z</time>
      </trkpt>
      <trkpt lat="49.81865" lon="2.11614">
        <ele>128.2</ele>
        <time>2023-02-22T15:37:33Z</time>
      </trkpt>
      <trkpt lat="49.81864" lon="2.11613">
        <ele>128.2</ele>
        <time>2023-02-22T15:37:34Z</time>
      </trkpt>
      <trkpt lat="49.81863" lon="2.11612">
        <ele>128.2</ele>
        <time>2023-02-22T15:37:35Z</time>
      </trkpt>
      <trkpt lat="49.8186" lon="2.11611">
        <ele>128.2</ele>
        <time>2023-02-22T15:37:36Z</time>
      </trkpt>
      <trkpt lat="49.81859" lon="2.1161">
        <ele>128.3</ele>
        <time>2023-02-22T15:37:38Z</time>
      </trkpt>
      <trkpt lat="49.81858" lon="2.11609">
        <ele>128.3</ele>
        <time>2023-02-22T15:37:39Z</time>
      </trkpt>
      <trkpt lat="49.81857" lon="2.11608">
        <ele>128.3</ele>
        <time>2023-02-22T15:37:40Z</time>
      </trkpt>
      <trkpt lat="49.81857" lon="2.11608">
        <ele>128.3</ele>
        <time>2023-02-22T15:37:41Z</time>
      </trkpt>
      <trkpt lat="49.81855" lon="2.11606">
        <ele>128.3</ele>
        <time>2023-02-22T15:37:42Z</time>
      </trkpt>
      <trkpt lat="49.81854" lon="2.11605">
        <ele>128.3</ele>
        <time>2023-02-22T15:37:43Z</time>
      </trkpt>
      <trkpt lat="49.81853" lon="2.11605">
        <ele>128.3</ele>
        <time>2023-02-22T15:37:44Z</time>
      </trkpt>
      <trkpt lat="49.81851" lon="2.11603">
        <ele>128.3</ele>
        <time>2023-02-22T15:37:46Z</time>
      </trkpt>
      <trkpt lat="49.8185" lon="2.11602">
        <ele>128.3</ele>
        <time>2023-02-22T15:37:47Z</time>
      </trkpt>
      <trkpt lat="49.81849" lon="2.11601">
        <ele>128.3</ele>
        <time>2023-02-22T15:37:49Z</time>
      </trkpt>
      <trkpt lat="49.81848" lon="2.116">
        <ele>128.3</ele>
        <time>2023-02-22T15:37:50Z</time>
      </trkpt>
      <trkpt lat="49.81847" lon="2.11599">
        <ele>128.3</ele>
        <time>2023-02-22T15:37:51Z</time>
      </trkpt>
      <trkpt lat="49.81846" lon="2.11598">
        <ele>128.3</ele>
        <time>2023-02-22T15:37:52Z</time>
      </trkpt>
      <trkpt lat="49.81844" lon="2.11597">
        <ele>128.3</ele>
        <time>2023-02-22T15:37:53Z</time>
      </trkpt>
      <trkpt lat="49.81844" lon="2.11597">
        <ele>128.3</ele>
        <time>2023-02-22T15:37:54Z</time>
      </trkpt>
      <trkpt lat="49.81843" lon="2.11596">
        <ele>128.3</ele>
        <time>2023-02-22T15:37:55Z</time>
      </trkpt>
      <trkpt lat="49.81842" lon="2.11595">
        <ele>128.3</ele>
        <time>2023-02-22T15:37:56Z</time>
      </trkpt>
      <trkpt lat="49.81841" lon="2.11595">
        <ele>128.3</ele>
        <time>2023-02-22T15:37:57Z</time>
      </trkpt>
      <trkpt lat="49.8184" lon="2.11593">
        <ele>128.3</ele>
        <time>2023-02-22T15:37:58Z</time>
      </trkpt>
      <trkpt lat="49.81839" lon="2.11593">
        <ele>128.3</ele>
        <time>2023-02-22T15:38:00Z</time>
      </trkpt>
      <trkpt lat="49.81839" lon="2.11592">
        <ele>128.3</ele>
        <time>2023-02-22T15:38:01Z</time>
      </trkpt>
      <trkpt lat="49.81838" lon="2.11591">
        <ele>128.3</ele>
        <time>2023-02-22T15:38:02Z</time>
      </trkpt>
      <trkpt lat="49.81836" lon="2.1159">
        <ele>128.3</ele>
        <time>2023-02-22T15:38:03Z</time>
      </trkpt>
      <trkpt lat="49.81835" lon="2.1159">
        <ele>128.3</ele>
        <time>2023-02-22T15:38:04Z</time>
      </trkpt>
      <trkpt lat="49.81834" lon="2.11589">
        <ele>128.4</ele>
        <time>2023-02-22T15:38:05Z</time>
      </trkpt>
      <trkpt lat="49.81833" lon="2.11589">
        <ele>128.4</ele>
        <time>2023-02-22T15:38:06Z</time>
      </trkpt>
      <trkpt lat="49.81832" lon="2.11588">
        <ele>128.4</ele>
        <time>2023-02-22T15:38:07Z</time>
      </trkpt>
      <trkpt lat="49.81831" lon="2.11587">
        <ele>128.4</ele>
        <time>2023-02-22T15:38:08Z</time>
      </trkpt>
      <trkpt lat="49.8183" lon="2.11586">
        <ele>128.4</ele>
        <time>2023-02-22T15:38:09Z</time>
      </trkpt>
      <trkpt lat="49.81829" lon="2.11586">
        <ele>128.4</ele>
        <time>2023-02-22T15:38:10Z</time>
      </trkpt>
      <trkpt lat="49.81827" lon="2.11585">
        <ele>128.5</ele>
        <time>2023-02-22T15:38:11Z</time>
      </trkpt>
      <trkpt lat="49.81826" lon="2.11584">
        <ele>128.5</ele>
        <time>2023-02-22T15:38:13Z</time>
      </trkpt>
      <trkpt lat="49.81825" lon="2.11583">
        <ele>128.5</ele>
        <time>2023-02-22T15:38:14Z</time>
      </trkpt>
      <trkpt lat="49.81824" lon="2.11583">
        <ele>128.5</ele>
        <time>2023-02-22T15:38:15Z</time>
      </trkpt>
      <trkpt lat="49.81823" lon="2.11582">
        <ele>128.5</ele>
        <time>2023-02-22T15:38:16Z</time>
      </trkpt>
      <trkpt lat="49.81822" lon="2.11581">
        <ele>128.5</ele>
        <time>2023-02-22T15:38:17Z</time>
      </trkpt>
      <trkpt lat="49.8182" lon="2.1158">
        <ele>128.6</ele>
        <time>2023-02-22T15:38:18Z</time>
      </trkpt>
      <trkpt lat="49.81819" lon="2.11579">
        <ele>128.6</ele>
        <time>2023-02-22T15:38:19Z</time>
      </trkpt>
      <trkpt lat="49.81818" lon="2.11578">
        <ele>128.6</ele>
        <time>2023-02-22T15:38:20Z</time>
      </trkpt>
      <trkpt lat="49.81817" lon="2.11577">
        <ele>128.6</ele>
        <time>2023-02-22T15:38:21Z</time>
      </trkpt>
      <trkpt lat="49.81816" lon="2.11576">
        <ele>128.6</ele>
        <time>2023-02-22T15:38:22Z</time>
      </trkpt>
      <trkpt lat="49.81815" lon="2.11575">
        <ele>128.6</ele>
        <time>2023-02-22T15:38:23Z</time>
      </trkpt>
      <trkpt lat="49.81814" lon="2.11574">
        <ele>128.6</ele>
        <time>2023-02-22T15:38:25Z</time>
      </trkpt>
      <trkpt lat="49.81813" lon="2.11573">
        <ele>128.6</ele>
        <time>2023-02-22T15:38:26Z</time>
      </trkpt>
      <trkpt lat="49.81812" lon="2.11572">
        <ele>128.7</ele>
        <time>2023-02-22T15:38:27Z</time>
      </trkpt>
      <trkpt lat="49.8181" lon="2.11571">
        <ele>128.7</ele>
        <time>2023-02-22T15:38:28Z</time>
      </trkpt>
      <trkpt lat="49.8181" lon="2.1157">
        <ele>128.7</ele>
        <time>2023-02-22T15:38:29Z</time>
      </trkpt>
      <trkpt lat="49.81809" lon="2.11569">
        <ele>128.7</ele>
        <time>2023-02-22T15:38:30Z</time>
      </trkpt>
      <trkpt lat="49.81808" lon="2.11568">
        <ele>128.7</ele>
        <time>2023-02-22T15:38:31Z</time>
      </trkpt>
      <trkpt lat="49.81808" lon="2.11567">
        <ele>128.7</ele>
        <time>2023-02-22T15:38:32Z</time>
      </trkpt>
      <trkpt lat="49.81806" lon="2.11566">
        <ele>128.7</ele>
        <time>2023-02-22T15:38:33Z</time>
      </trkpt>
      <trkpt lat="49.81806" lon="2.11565">
        <ele>128.6</ele>
        <time>2023-02-22T15:38:34Z</time>
      </trkpt>
      <trkpt lat="49.81805" lon="2.11564">
        <ele>128.6</ele>
        <time>2023-02-22T15:38:35Z</time>
      </trkpt>
      <trkpt lat="49.81804" lon="2.11563">
        <ele>128.6</ele>
        <time>2023-02-22T15:38:37Z</time>
      </trkpt>
      <trkpt lat="49.81803" lon="2.11562">
        <ele>128.6</ele>
        <time>2023-02-22T15:38:38Z</time>
      </trkpt>
      <trkpt lat="49.81802" lon="2.1156">
        <ele>128.6</ele>
        <time>2023-02-22T15:38:39Z</time>
      </trkpt>
      <trkpt lat="49.81801" lon="2.11559">
        <ele>128.5</ele>
        <time>2023-02-22T15:38:40Z</time>
      </trkpt>
      <trkpt lat="49.818" lon="2.11558">
        <ele>128.5</ele>
        <time>2023-02-22T15:38:41Z</time>
      </trkpt>
      <trkpt lat="49.81799" lon="2.11557">
        <ele>128.5</ele>
        <time>2023-02-22T15:38:42Z</time>
      </trkpt>
      <trkpt lat="49.81797" lon="2.11555">
        <ele>128.4</ele>
        <time>2023-02-22T15:38:44Z</time>
      </trkpt>
      <trkpt lat="49.81796" lon="2.11555">
        <ele>128.4</ele>
        <time>2023-02-22T15:38:45Z</time>
      </trkpt>
      <trkpt lat="49.81796" lon="2.11554">
        <ele>128.4</ele>
        <time>2023-02-22T15:38:46Z</time>
      </trkpt>
      <trkpt lat="49.81794" lon="2.11552">
        <ele>128.3</ele>
        <time>2023-02-22T15:38:47Z</time>
      </trkpt>
      <trkpt lat="49.81793" lon="2.11552">
        <ele>128.3</ele>
        <time>2023-02-22T15:38:48Z</time>
      </trkpt>
      <trkpt lat="49.81792" lon="2.11551">
        <ele>128.3</ele>
        <time>2023-02-22T15:38:49Z</time>
      </trkpt>
      <trkpt lat="49.81791" lon="2.1155">
        <ele>128.3</ele>
        <time>2023-02-22T15:38:50Z</time>
      </trkpt>
      <trkpt lat="49.8179" lon="2.11549">
        <ele>128.3</ele>
        <time>2023-02-22T15:38:51Z</time>
      </trkpt>
      <trkpt lat="49.81789" lon="2.11548">
        <ele>128.3</ele>
        <time>2023-02-22T15:38:52Z</time>
      </trkpt>
      <trkpt lat="49.81788" lon="2.11547">
        <ele>128.3</ele>
        <time>2023-02-22T15:38:54Z</time>
      </trkpt>
      <trkpt lat="49.81787" lon="2.11546">
        <ele>128.3</ele>
        <time>2023-02-22T15:38:55Z</time>
      </trkpt>
      <trkpt lat="49.81786" lon="2.11546">
        <ele>128.3</ele>
        <time>2023-02-22T15:38:56Z</time>
      </trkpt>
      <trkpt lat="49.81785" lon="2.11544">
        <ele>128.3</ele>
        <time>2023-02-22T15:38:57Z</time>
      </trkpt>
      <trkpt lat="49.81784" lon="2.11543">
        <ele>128.3</ele>
        <time>2023-02-22T15:38:58Z</time>
      </trkpt>
      <trkpt lat="49.81783" lon="2.11542">
        <ele>128.3</ele>
        <time>2023-02-22T15:38:59Z</time>
      </trkpt>
      <trkpt lat="49.81782" lon="2.1154">
        <ele>128.3</ele>
        <time>2023-02-22T15:39:01Z</time>
      </trkpt>
      <trkpt lat="49.81781" lon="2.11539">
        <ele>128.3</ele>
        <time>2023-02-22T15:39:02Z</time>
      </trkpt>
      <trkpt lat="49.81779" lon="2.11538">
        <ele>128.4</ele>
        <time>2023-02-22T15:39:03Z</time>
      </trkpt>
      <trkpt lat="49.81778" lon="2.11537">
        <ele>128.4</ele>
        <time>2023-02-22T15:39:04Z</time>
      </trkpt>
      <trkpt lat="49.81777" lon="2.11537">
        <ele>128.4</ele>
        <time>2023-02-22T15:39:05Z</time>
      </trkpt>
      <trkpt lat="49.81776" lon="2.11536">
        <ele>128.4</ele>
        <time>2023-02-22T15:39:07Z</time>
      </trkpt>
      <trkpt lat="49.81775" lon="2.11535">
        <ele>128.4</ele>
        <time>2023-02-22T15:39:08Z</time>
      </trkpt>
      <trkpt lat="49.81773" lon="2.11534">
        <ele>128.5</ele>
        <time>2023-02-22T15:39:09Z</time>
      </trkpt>
      <trkpt lat="49.81773" lon="2.11534">
        <ele>128.5</ele>
        <time>2023-02-22T15:39:10Z</time>
      </trkpt>
      <trkpt lat="49.81772" lon="2.11533">
        <ele>128.5</ele>
        <time>2023-02-22T15:39:11Z</time>
      </trkpt>
      <trkpt lat="49.81771" lon="2.11532">
        <ele>128.5</ele>
        <time>2023-02-22T15:39:12Z</time>
      </trkpt>
      <trkpt lat="49.8177" lon="2.11532">
        <ele>128.5</ele>
        <time>2023-02-22T15:39:13Z</time>
      </trkpt>
      <trkpt lat="49.81769" lon="2.11531">
        <ele>128.5</ele>
        <time>2023-02-22T15:39:14Z</time>
      </trkpt>
      <trkpt lat="49.81768" lon="2.1153">
        <ele>128.5</ele>
        <time>2023-02-22T15:39:15Z</time>
      </trkpt>
      <trkpt lat="49.81767" lon="2.11529">
        <ele>128.6</ele>
        <time>2023-02-22T15:39:17Z</time>
      </trkpt>
      <trkpt lat="49.81766" lon="2.11528">
        <ele>128.6</ele>
        <time>2023-02-22T15:39:18Z</time>
      </trkpt>
      <trkpt lat="49.81765" lon="2.11527">
        <ele>128.6</ele>
        <time>2023-02-22T15:39:19Z</time>
      </trkpt>
      <trkpt lat="49.81764" lon="2.11525">
        <ele>128.6</ele>
        <time>2023-02-22T15:39:20Z</time>
      </trkpt>
      <trkpt lat="49.81762" lon="2.11523">
        <ele>128.6</ele>
        <time>2023-02-22T15:39:22Z</time>
      </trkpt>
      <trkpt lat="49.81762" lon="2.11522">
        <ele>128.6</ele>
        <time>2023-02-22T15:39:23Z</time>
      </trkpt>
      <trkpt lat="49.81761" lon="2.11522">
        <ele>128.6</ele>
        <time>2023-02-22T15:39:24Z</time>
      </trkpt>
      <trkpt lat="49.8176" lon="2.11521">
        <ele>128.7</ele>
        <time>2023-02-22T15:39:25Z</time>
      </trkpt>
      <trkpt lat="49.81759" lon="2.1152">
        <ele>128.7</ele>
        <time>2023-02-22T15:39:26Z</time>
      </trkpt>
      <trkpt lat="49.81758" lon="2.11519">
        <ele>128.7</ele>
        <time>2023-02-22T15:39:27Z</time>
      </trkpt>
      <trkpt lat="49.81757" lon="2.11517">
        <ele>128.7</ele>
        <time>2023-02-22T15:39:28Z</time>
      </trkpt>
      <trkpt lat="49.81756" lon="2.11517">
        <ele>128.7</ele>
        <time>2023-02-22T15:39:29Z</time>
      </trkpt>
      <trkpt lat="49.81756" lon="2.11516">
        <ele>128.7</ele>
        <time>2023-02-22T15:39:30Z</time>
      </trkpt>
      <trkpt lat="49.81754" lon="2.11514">
        <ele>128.7</ele>
        <time>2023-02-22T15:39:31Z</time>
      </trkpt>
      <trkpt lat="49.81753" lon="2.11514">
        <ele>128.7</ele>
        <time>2023-02-22T15:39:33Z</time>
      </trkpt>
      <trkpt lat="49.81752" lon="2.11513">
        <ele>128.7</ele>
        <time>2023-02-22T15:39:34Z</time>
      </trkpt>
      <trkpt lat="49.81751" lon="2.11512">
        <ele>128.8</ele>
        <time>2023-02-22T15:39:35Z</time>
      </trkpt>
      <trkpt lat="49.8175" lon="2.11511">
        <ele>128.8</ele>
        <time>2023-02-22T15:39:36Z</time>
      </trkpt>
      <trkpt lat="49.8175" lon="2.1151">
        <ele>128.8</ele>
        <time>2023-02-22T15:39:37Z</time>
      </trkpt>
      <trkpt lat="49.81749" lon="2.1151">
        <ele>128.8</ele>
        <time>2023-02-22T15:39:39Z</time>
      </trkpt>
      <trkpt lat="49.81748" lon="2.11509">
        <ele>128.8</ele>
        <time>2023-02-22T15:39:40Z</time>
      </trkpt>
      <trkpt lat="49.81747" lon="2.11509">
        <ele>128.8</ele>
        <time>2023-02-22T15:39:41Z</time>
      </trkpt>
      <trkpt lat="49.81745" lon="2.11507">
        <ele>128.9</ele>
        <time>2023-02-22T15:39:42Z</time>
      </trkpt>
      <trkpt lat="49.81744" lon="2.11507">
        <ele>128.9</ele>
        <time>2023-02-22T15:39:43Z</time>
      </trkpt>
      <trkpt lat="49.81743" lon="2.11506">
        <ele>128.9</ele>
        <time>2023-02-22T15:39:44Z</time>
      </trkpt>
      <trkpt lat="49.81742" lon="2.11506">
        <ele>128.9</ele>
        <time>2023-02-22T15:39:45Z</time>
      </trkpt>
      <trkpt lat="49.81741" lon="2.11505">
        <ele>128.9</ele>
        <time>2023-02-22T15:39:46Z</time>
      </trkpt>
      <trkpt lat="49.8174" lon="2.11504">
        <ele>129</ele>
        <time>2023-02-22T15:39:47Z</time>
      </trkpt>
      <trkpt lat="49.81739" lon="2.11503">
        <ele>129</ele>
        <time>2023-02-22T15:39:48Z</time>
      </trkpt>
      <trkpt lat="49.81737" lon="2.11502">
        <ele>129</ele>
        <time>2023-02-22T15:39:49Z</time>
      </trkpt>
      <trkpt lat="49.81737" lon="2.11502">
        <ele>129.1</ele>
        <time>2023-02-22T15:39:51Z</time>
      </trkpt>
      <trkpt lat="49.81736" lon="2.11501">
        <ele>129.1</ele>
        <time>2023-02-22T15:39:52Z</time>
      </trkpt>
      <trkpt lat="49.81735" lon="2.115">
        <ele>129.1</ele>
        <time>2023-02-22T15:39:53Z</time>
      </trkpt>
      <trkpt lat="49.81734" lon="2.11499">
        <ele>129.2</ele>
        <time>2023-02-22T15:39:54Z</time>
      </trkpt>
      <trkpt lat="49.81733" lon="2.11497">
        <ele>129.2</ele>
        <time>2023-02-22T15:39:55Z</time>
      </trkpt>
      <trkpt lat="49.81731" lon="2.11496">
        <ele>129.2</ele>
        <time>2023-02-22T15:39:56Z</time>
      </trkpt>
      <trkpt lat="49.81731" lon="2.11495">
        <ele>129.3</ele>
        <time>2023-02-22T15:39:58Z</time>
      </trkpt>
      <trkpt lat="49.8173" lon="2.11495">
        <ele>129.3</ele>
        <time>2023-02-22T15:39:59Z</time>
      </trkpt>
      <trkpt lat="49.81728" lon="2.11493">
        <ele>129.4</ele>
        <time>2023-02-22T15:40:00Z</time>
      </trkpt>
      <trkpt lat="49.81727" lon="2.11492">
        <ele>129.4</ele>
        <time>2023-02-22T15:40:01Z</time>
      </trkpt>
      <trkpt lat="49.81727" lon="2.11492">
        <ele>129.4</ele>
        <time>2023-02-22T15:40:02Z</time>
      </trkpt>
      <trkpt lat="49.81726" lon="2.11491">
        <ele>129.4</ele>
        <time>2023-02-22T15:40:03Z</time>
      </trkpt>
      <trkpt lat="49.81724" lon="2.1149">
        <ele>129.5</ele>
        <time>2023-02-22T15:40:05Z</time>
      </trkpt>
      <trkpt lat="49.81724" lon="2.11489">
        <ele>129.5</ele>
        <time>2023-02-22T15:40:06Z</time>
      </trkpt>
      <trkpt lat="49.81723" lon="2.11489">
        <ele>129.5</ele>
        <time>2023-02-22T15:40:07Z</time>
      </trkpt>
      <trkpt lat="49.81721" lon="2.11488">
        <ele>129.6</ele>
        <time>2023-02-22T15:40:08Z</time>
      </trkpt>
      <trkpt lat="49.8172" lon="2.11488">
        <ele>129.6</ele>
        <time>2023-02-22T15:40:09Z</time>
      </trkpt>
      <trkpt lat="49.81718" lon="2.11487">
        <ele>129.7</ele>
        <time>2023-02-22T15:40:10Z</time>
      </trkpt>
      <trkpt lat="49.81718" lon="2.11487">
        <ele>129.7</ele>
        <time>2023-02-22T15:40:11Z</time>
      </trkpt>
      <trkpt lat="49.81717" lon="2.11487">
        <ele>129.8</ele>
        <time>2023-02-22T15:40:12Z</time>
      </trkpt>
      <trkpt lat="49.81716" lon="2.11486">
        <ele>129.8</ele>
        <time>2023-02-22T15:40:13Z</time>
      </trkpt>
      <trkpt lat="49.81714" lon="2.11485">
        <ele>129.9</ele>
        <time>2023-02-22T15:40:14Z</time>
      </trkpt>
      <trkpt lat="49.81713" lon="2.11485">
        <ele>129.9</ele>
        <time>2023-02-22T15:40:15Z</time>
      </trkpt>
      <trkpt lat="49.81712" lon="2.11484">
        <ele>129.9</ele>
        <time>2023-02-22T15:40:17Z</time>
      </trkpt>
      <trkpt lat="49.81711" lon="2.11483">
        <ele>130</ele>
        <time>2023-02-22T15:40:18Z</time>
      </trkpt>
      <trkpt lat="49.8171" lon="2.11482">
        <ele>130</ele>
        <time>2023-02-22T15:40:19Z</time>
      </trkpt>
      <trkpt lat="49.81709" lon="2.11481">
        <ele>130.1</ele>
        <time>2023-02-22T15:40:20Z</time>
      </trkpt>
      <trkpt lat="49.81708" lon="2.1148">
        <ele>130.1</ele>
        <time>2023-02-22T15:40:21Z</time>
      </trkpt>
      <trkpt lat="49.81707" lon="2.11479">
        <ele>130.2</ele>
        <time>2023-02-22T15:40:22Z</time>
      </trkpt>
      <trkpt lat="49.81706" lon="2.11479">
        <ele>130.2</ele>
        <time>2023-02-22T15:40:23Z</time>
      </trkpt>
      <trkpt lat="49.81703" lon="2.11477">
        <ele>130.2</ele>
        <time>2023-02-22T15:40:24Z</time>
      </trkpt>
      <trkpt lat="49.81703" lon="2.11477">
        <ele>130.3</ele>
        <time>2023-02-22T15:40:25Z</time>
      </trkpt>
      <trkpt lat="49.81702" lon="2.11476">
        <ele>130.3</ele>
        <time>2023-02-22T15:40:27Z</time>
      </trkpt>
      <trkpt lat="49.81701" lon="2.11476">
        <ele>130.3</ele>
        <time>2023-02-22T15:40:28Z</time>
      </trkpt>
      <trkpt lat="49.817" lon="2.11475">
        <ele>130.3</ele>
        <time>2023-02-22T15:40:29Z</time>
      </trkpt>
      <trkpt lat="49.81699" lon="2.11474">
        <ele>130.3</ele>
        <time>2023-02-22T15:40:30Z</time>
      </trkpt>
      <trkpt lat="49.81698" lon="2.11474">
        <ele>130.3</ele>
        <time>2023-02-22T15:40:31Z</time>
      </trkpt>
      <trkpt lat="49.81697" lon="2.11473">
        <ele>130.3</ele>
        <time>2023-02-22T15:40:32Z</time>
      </trkpt>
      <trkpt lat="49.81696" lon="2.11473">
        <ele>130.4</ele>
        <time>2023-02-22T15:40:33Z</time>
      </trkpt>
      <trkpt lat="49.81695" lon="2.11472">
        <ele>130.4</ele>
        <time>2023-02-22T15:40:34Z</time>
      </trkpt>
      <trkpt lat="49.81694" lon="2.11471">
        <ele>130.4</ele>
        <time>2023-02-22T15:40:35Z</time>
      </trkpt>
      <trkpt lat="49.81693" lon="2.11471">
        <ele>130.4</ele>
        <time>2023-02-22T15:40:37Z</time>
      </trkpt>
      <trkpt lat="49.81691" lon="2.11469">
        <ele>130.4</ele>
        <time>2023-02-22T15:40:38Z</time>
      </trkpt>
      <trkpt lat="49.8169" lon="2.11468">
        <ele>130.4</ele>
        <time>2023-02-22T15:40:39Z</time>
      </trkpt>
      <trkpt lat="49.81689" lon="2.11468">
        <ele>130.4</ele>
        <time>2023-02-22T15:40:40Z</time>
      </trkpt>
      <trkpt lat="49.81688" lon="2.11467">
        <ele>130.4</ele>
        <time>2023-02-22T15:40:41Z</time>
      </trkpt>
      <trkpt lat="49.81687" lon="2.11466">
        <ele>130.4</ele>
        <time>2023-02-22T15:40:42Z</time>
      </trkpt>
      <trkpt lat="49.81686" lon="2.11465">
        <ele>130.4</ele>
        <time>2023-02-22T15:40:43Z</time>
      </trkpt>
      <trkpt lat="49.81684" lon="2.11464">
        <ele>130.4</ele>
        <time>2023-02-22T15:40:44Z</time>
      </trkpt>
      <trkpt lat="49.81683" lon="2.11463">
        <ele>130.5</ele>
        <time>2023-02-22T15:40:45Z</time>
      </trkpt>
      <trkpt lat="49.81682" lon="2.11463">
        <ele>130.5</ele>
        <time>2023-02-22T15:40:47Z</time>
      </trkpt>
      <trkpt lat="49.81681" lon="2.11462">
        <ele>130.5</ele>
        <time>2023-02-22T15:40:48Z</time>
      </trkpt>
      <trkpt lat="49.81681" lon="2.11462">
        <ele>130.5</ele>
        <time>2023-02-22T15:40:49Z</time>
      </trkpt>
      <trkpt lat="49.8168" lon="2.11461">
        <ele>130.5</ele>
        <time>2023-02-22T15:40:50Z</time>
      </trkpt>
      <trkpt lat="49.81679" lon="2.1146">
        <ele>130.5</ele>
        <time>2023-02-22T15:40:51Z</time>
      </trkpt>
      <trkpt lat="49.81678" lon="2.1146">
        <ele>130.5</ele>
        <time>2023-02-22T15:40:52Z</time>
      </trkpt>
      <trkpt lat="49.81677" lon="2.11459">
        <ele>130.5</ele>
        <time>2023-02-22T15:40:53Z</time>
      </trkpt>
      <trkpt lat="49.81676" lon="2.11458">
        <ele>130.5</ele>
        <time>2023-02-22T15:40:54Z</time>
      </trkpt>
      <trkpt lat="49.81675" lon="2.11458">
        <ele>130.6</ele>
        <time>2023-02-22T15:40:55Z</time>
      </trkpt>
      <trkpt lat="49.81674" lon="2.11457">
        <ele>130.6</ele>
        <time>2023-02-22T15:40:56Z</time>
      </trkpt>
      <trkpt lat="49.81672" lon="2.11457">
        <ele>130.6</ele>
        <time>2023-02-22T15:40:57Z</time>
      </trkpt>
      <trkpt lat="49.81671" lon="2.11456">
        <ele>130.6</ele>
        <time>2023-02-22T15:40:59Z</time>
      </trkpt>
      <trkpt lat="49.8167" lon="2.11456">
        <ele>130.6</ele>
        <time>2023-02-22T15:41:00Z</time>
      </trkpt>
      <trkpt lat="49.81669" lon="2.11455">
        <ele>130.7</ele>
        <time>2023-02-22T15:41:01Z</time>
      </trkpt>
      <trkpt lat="49.81668" lon="2.11454">
        <ele>130.7</ele>
        <time>2023-02-22T15:41:02Z</time>
      </trkpt>
      <trkpt lat="49.81667" lon="2.11454">
        <ele>130.7</ele>
        <time>2023-02-22T15:41:03Z</time>
      </trkpt>
      <trkpt lat="49.81665" lon="2.11452">
        <ele>130.8</ele>
        <time>2023-02-22T15:41:04Z</time>
      </trkpt>
      <trkpt lat="49.81664" lon="2.11452">
        <ele>130.8</ele>
        <time>2023-02-22T15:41:05Z</time>
      </trkpt>
      <trkpt lat="49.81664" lon="2.11451">
        <ele>130.8</ele>
        <time>2023-02-22T15:41:06Z</time>
      </trkpt>
      <trkpt lat="49.81663" lon="2.11451">
        <ele>130.8</ele>
        <time>2023-02-22T15:41:07Z</time>
      </trkpt>
      <trkpt lat="49.81662" lon="2.1145">
        <ele>130.9</ele>
        <time>2023-02-22T15:41:08Z</time>
      </trkpt>
      <trkpt lat="49.8166" lon="2.11449">
        <ele>130.9</ele>
        <time>2023-02-22T15:41:10Z</time>
      </trkpt>
      <trkpt lat="49.81659" lon="2.11449">
        <ele>131</ele>
        <time>2023-02-22T15:41:11Z</time>
      </trkpt>
      <trkpt lat="49.81658" lon="2.11448">
        <ele>131</ele>
        <time>2023-02-22T15:41:12Z</time>
      </trkpt>
      <trkpt lat="49.81657" lon="2.11447">
        <ele>131.1</ele>
        <time>2023-02-22T15:41:13Z</time>
      </trkpt>
      <trkpt lat="49.81656" lon="2.11446">
        <ele>131.1</ele>
        <time>2023-02-22T15:41:14Z</time>
      </trkpt>
      <trkpt lat="49.81655" lon="2.11445">
        <ele>131.2</ele>
        <time>2023-02-22T15:41:15Z</time>
      </trkpt>
      <trkpt lat="49.81655" lon="2.11444">
        <ele>131.2</ele>
        <time>2023-02-22T15:41:16Z</time>
      </trkpt>
      <trkpt lat="49.81654" lon="2.11443">
        <ele>131.3</ele>
        <time>2023-02-22T15:41:17Z</time>
      </trkpt>
      <trkpt lat="49.81653" lon="2.11443">
        <ele>131.3</ele>
        <time>2023-02-22T15:41:18Z</time>
      </trkpt>
      <trkpt lat="49.81651" lon="2.11443">
        <ele>131.4</ele>
        <time>2023-02-22T15:41:20Z</time>
      </trkpt>
      <trkpt lat="49.8165" lon="2.11443">
        <ele>131.4</ele>
        <time>2023-02-22T15:41:21Z</time>
      </trkpt>
      <trkpt lat="49.81649" lon="2.11442">
        <ele>131.5</ele>
        <time>2023-02-22T15:41:22Z</time>
      </trkpt>
      <trkpt lat="49.81648" lon="2.11441">
        <ele>131.6</ele>
        <time>2023-02-22T15:41:23Z</time>
      </trkpt>
      <trkpt lat="49.81646" lon="2.11441">
        <ele>131.6</ele>
        <time>2023-02-22T15:41:24Z</time>
      </trkpt>
      <trkpt lat="49.81645" lon="2.1144">
        <ele>131.7</ele>
        <time>2023-02-22T15:41:25Z</time>
      </trkpt>
      <trkpt lat="49.81644" lon="2.1144">
        <ele>131.7</ele>
        <time>2023-02-22T15:41:26Z</time>
      </trkpt>
      <trkpt lat="49.81642" lon="2.11439">
        <ele>131.8</ele>
        <time>2023-02-22T15:41:27Z</time>
      </trkpt>
      <trkpt lat="49.81641" lon="2.11439">
        <ele>131.8</ele>
        <time>2023-02-22T15:41:29Z</time>
      </trkpt>
      <trkpt lat="49.8164" lon="2.11439">
        <ele>131.8</ele>
        <time>2023-02-22T15:41:30Z</time>
      </trkpt>
      <trkpt lat="49.8164" lon="2.11438">
        <ele>131.8</ele>
        <time>2023-02-22T15:41:31Z</time>
      </trkpt>
      <trkpt lat="49.81639" lon="2.11438">
        <ele>131.9</ele>
        <time>2023-02-22T15:41:32Z</time>
      </trkpt>
      <trkpt lat="49.81637" lon="2.11437">
        <ele>131.9</ele>
        <time>2023-02-22T15:41:33Z</time>
      </trkpt>
      <trkpt lat="49.81636" lon="2.11437">
        <ele>131.9</ele>
        <time>2023-02-22T15:41:34Z</time>
      </trkpt>
      <trkpt lat="49.81635" lon="2.11436">
        <ele>131.9</ele>
        <time>2023-02-22T15:41:35Z</time>
      </trkpt>
      <trkpt lat="49.81635" lon="2.11436">
        <ele>131.9</ele>
        <time>2023-02-22T15:41:36Z</time>
      </trkpt>
      <trkpt lat="49.81634" lon="2.11435">
        <ele>131.9</ele>
        <time>2023-02-22T15:41:37Z</time>
      </trkpt>
      <trkpt lat="49.81633" lon="2.11434">
        <ele>131.9</ele>
        <time>2023-02-22T15:41:38Z</time>
      </trkpt>
      <trkpt lat="49.81631" lon="2.11433">
        <ele>131.9</ele>
        <time>2023-02-22T15:41:40Z</time>
      </trkpt>
      <trkpt lat="49.8163" lon="2.11432">
        <ele>131.9</ele>
        <time>2023-02-22T15:41:41Z</time>
      </trkpt>
      <trkpt lat="49.81629" lon="2.11432">
        <ele>131.9</ele>
        <time>2023-02-22T15:41:42Z</time>
      </trkpt>
      <trkpt lat="49.81628" lon="2.11431">
        <ele>131.9</ele>
        <time>2023-02-22T15:41:43Z</time>
      </trkpt>
      <trkpt lat="49.81627" lon="2.1143">
        <ele>131.9</ele>
        <time>2023-02-22T15:41:44Z</time>
      </trkpt>
      <trkpt lat="49.81626" lon="2.11429">
        <ele>131.8</ele>
        <time>2023-02-22T15:41:45Z</time>
      </trkpt>
      <trkpt lat="49.81625" lon="2.11428">
        <ele>131.8</ele>
        <time>2023-02-22T15:41:46Z</time>
      </trkpt>
      <trkpt lat="49.81624" lon="2.11427">
        <ele>131.8</ele>
        <time>2023-02-22T15:41:47Z</time>
      </trkpt>
      <trkpt lat="49.81623" lon="2.11427">
        <ele>131.8</ele>
        <time>2023-02-22T15:41:48Z</time>
      </trkpt>
      <trkpt lat="49.81621" lon="2.11426">
        <ele>131.8</ele>
        <time>2023-02-22T15:41:49Z</time>
      </trkpt>
      <trkpt lat="49.8162" lon="2.11426">
        <ele>131.9</ele>
        <time>2023-02-22T15:41:50Z</time>
      </trkpt>
      <trkpt lat="49.81619" lon="2.11425">
        <ele>131.9</ele>
        <time>2023-02-22T15:41:52Z</time>
      </trkpt>
      <trkpt lat="49.81617" lon="2.11424">
        <ele>131.9</ele>
        <time>2023-02-22T15:41:53Z</time>
      </trkpt>
      <trkpt lat="49.81616" lon="2.11423">
        <ele>131.9</ele>
        <time>2023-02-22T15:41:54Z</time>
      </trkpt>
      <trkpt lat="49.81615" lon="2.11423">
        <ele>131.9</ele>
        <time>2023-02-22T15:41:55Z</time>
      </trkpt>
      <trkpt lat="49.81615" lon="2.11422">
        <ele>131.9</ele>
        <time>2023-02-22T15:41:56Z</time>
      </trkpt>
      <trkpt lat="49.81614" lon="2.11421">
        <ele>132</ele>
        <time>2023-02-22T15:41:58Z</time>
      </trkpt>
      <trkpt lat="49.81613" lon="2.11421">
        <ele>132</ele>
        <time>2023-02-22T15:41:59Z</time>
      </trkpt>
      <trkpt lat="49.81611" lon="2.1142">
        <ele>132</ele>
        <time>2023-02-22T15:42:00Z</time>
      </trkpt>
      <trkpt lat="49.8161" lon="2.11419">
        <ele>132</ele>
        <time>2023-02-22T15:42:01Z</time>
      </trkpt>
      <trkpt lat="49.81608" lon="2.11419">
        <ele>132.1</ele>
        <time>2023-02-22T15:42:02Z</time>
      </trkpt>
      <trkpt lat="49.81607" lon="2.11419">
        <ele>132.1</ele>
        <time>2023-02-22T15:42:03Z</time>
      </trkpt>
      <trkpt lat="49.81606" lon="2.11419">
        <ele>132.1</ele>
        <time>2023-02-22T15:42:04Z</time>
      </trkpt>
      <trkpt lat="49.81604" lon="2.11418">
        <ele>132.1</ele>
        <time>2023-02-22T15:42:05Z</time>
      </trkpt>
      <trkpt lat="49.81603" lon="2.11418">
        <ele>132.1</ele>
        <time>2023-02-22T15:42:06Z</time>
      </trkpt>
      <trkpt lat="49.81603" lon="2.11418">
        <ele>132.1</ele>
        <time>2023-02-22T15:42:07Z</time>
      </trkpt>
      <trkpt lat="49.81601" lon="2.11418">
        <ele>132.1</ele>
        <time>2023-02-22T15:42:09Z</time>
      </trkpt>
      <trkpt lat="49.816" lon="2.11418">
        <ele>132.1</ele>
        <time>2023-02-22T15:42:10Z</time>
      </trkpt>
      <trkpt lat="49.81599" lon="2.11418">
        <ele>132.1</ele>
        <time>2023-02-22T15:42:11Z</time>
      </trkpt>
      <trkpt lat="49.81598" lon="2.11418">
        <ele>132.1</ele>
        <time>2023-02-22T15:42:12Z</time>
      </trkpt>
      <trkpt lat="49.81596" lon="2.11417">
        <ele>132.1</ele>
        <time>2023-02-22T15:42:14Z</time>
      </trkpt>
      <trkpt lat="49.81595" lon="2.11417">
        <ele>132.1</ele>
        <time>2023-02-22T15:42:15Z</time>
      </trkpt>
      <trkpt lat="49.81593" lon="2.11417">
        <ele>132.1</ele>
        <time>2023-02-22T15:42:16Z</time>
      </trkpt>
      <trkpt lat="49.81592" lon="2.11417">
        <ele>132.1</ele>
        <time>2023-02-22T15:42:17Z</time>
      </trkpt>
      <trkpt lat="49.81591" lon="2.11417">
        <ele>132.1</ele>
        <time>2023-02-22T15:42:18Z</time>
      </trkpt>
      <trkpt lat="49.8159" lon="2.11417">
        <ele>132.1</ele>
        <time>2023-02-22T15:42:19Z</time>
      </trkpt>
      <trkpt lat="49.81589" lon="2.11416">
        <ele>132.1</ele>
        <time>2023-02-22T15:42:21Z</time>
      </trkpt>
      <trkpt lat="49.81588" lon="2.11416">
        <ele>132.1</ele>
        <time>2023-02-22T15:42:22Z</time>
      </trkpt>
      <trkpt lat="49.81586" lon="2.11415">
        <ele>132.1</ele>
        <time>2023-02-22T15:42:23Z</time>
      </trkpt>
      <trkpt lat="49.81585" lon="2.11414">
        <ele>132.1</ele>
        <time>2023-02-22T15:42:24Z</time>
      </trkpt>
      <trkpt lat="49.81584" lon="2.11414">
        <ele>132.1</ele>
        <time>2023-02-22T15:42:25Z</time>
      </trkpt>
      <trkpt lat="49.81583" lon="2.11414">
        <ele>132</ele>
        <time>2023-02-22T15:42:27Z</time>
      </trkpt>
      <trkpt lat="49.81582" lon="2.11415">
        <ele>132</ele>
        <time>2023-02-22T15:42:28Z</time>
      </trkpt>
      <trkpt lat="49.81581" lon="2.11415">
        <ele>132</ele>
        <time>2023-02-22T15:42:29Z</time>
      </trkpt>
      <trkpt lat="49.81579" lon="2.11415">
        <ele>132</ele>
        <time>2023-02-22T15:42:30Z</time>
      </trkpt>
      <trkpt lat="49.81578" lon="2.11415">
        <ele>132</ele>
        <time>2023-02-22T15:42:31Z</time>
      </trkpt>
      <trkpt lat="49.81577" lon="2.11415">
        <ele>132</ele>
        <time>2023-02-22T15:42:32Z</time>
      </trkpt>
      <trkpt lat="49.81576" lon="2.11415">
        <ele>132</ele>
        <time>2023-02-22T15:42:33Z</time>
      </trkpt>
      <trkpt lat="49.81575" lon="2.11416">
        <ele>132</ele>
        <time>2023-02-22T15:42:34Z</time>
      </trkpt>
      <trkpt lat="49.81574" lon="2.11416">
        <ele>132</ele>
        <time>2023-02-22T15:42:35Z</time>
      </trkpt>
      <trkpt lat="49.81573" lon="2.11416">
        <ele>132</ele>
        <time>2023-02-22T15:42:36Z</time>
      </trkpt>
      <trkpt lat="49.81572" lon="2.11416">
        <ele>132</ele>
        <time>2023-02-22T15:42:37Z</time>
      </trkpt>
      <trkpt lat="49.81571" lon="2.11416">
        <ele>132</ele>
        <time>2023-02-22T15:42:39Z</time>
      </trkpt>
      <trkpt lat="49.8157" lon="2.11417">
        <ele>132</ele>
        <time>2023-02-22T15:42:40Z</time>
      </trkpt>
      <trkpt lat="49.81568" lon="2.11417">
        <ele>132</ele>
        <time>2023-02-22T15:42:41Z</time>
      </trkpt>
      <trkpt lat="49.81567" lon="2.11417">
        <ele>132</ele>
        <time>2023-02-22T15:42:42Z</time>
      </trkpt>
      <trkpt lat="49.81566" lon="2.11417">
        <ele>132</ele>
        <time>2023-02-22T15:42:43Z</time>
      </trkpt>
      <trkpt lat="49.81565" lon="2.11418">
        <ele>132</ele>
        <time>2023-02-22T15:42:44Z</time>
      </trkpt>
      <trkpt lat="49.81564" lon="2.11418">
        <ele>132</ele>
        <time>2023-02-22T15:42:45Z</time>
      </trkpt>
      <trkpt lat="49.81563" lon="2.11418">
        <ele>132</ele>
        <time>2023-02-22T15:42:46Z</time>
      </trkpt>
      <trkpt lat="49.81562" lon="2.11418">
        <ele>132</ele>
        <time>2023-02-22T15:42:47Z</time>
      </trkpt>
      <trkpt lat="49.81561" lon="2.11418">
        <ele>132</ele>
        <time>2023-02-22T15:42:48Z</time>
      </trkpt>
      <trkpt lat="49.8156" lon="2.11418">
        <ele>132</ele>
        <time>2023-02-22T15:42:49Z</time>
      </trkpt>
      <trkpt lat="49.81559" lon="2.11418">
        <ele>132</ele>
        <time>2023-02-22T15:42:51Z</time>
      </trkpt>
      <trkpt lat="49.81558" lon="2.11419">
        <ele>132</ele>
        <time>2023-02-22T15:42:52Z</time>
      </trkpt>
      <trkpt lat="49.81557" lon="2.11419">
        <ele>132</ele>
        <time>2023-02-22T15:42:53Z</time>
      </trkpt>
      <trkpt lat="49.81556" lon="2.1142">
        <ele>132</ele>
        <time>2023-02-22T15:42:54Z</time>
      </trkpt>
      <trkpt lat="49.81554" lon="2.1142">
        <ele>132</ele>
        <time>2023-02-22T15:42:55Z</time>
      </trkpt>
      <trkpt lat="49.81554" lon="2.1142">
        <ele>132</ele>
        <time>2023-02-22T15:42:56Z</time>
      </trkpt>
      <trkpt lat="49.81553" lon="2.1142">
        <ele>132</ele>
        <time>2023-02-22T15:42:58Z</time>
      </trkpt>
      <trkpt lat="49.81552" lon="2.1142">
        <ele>132</ele>
        <time>2023-02-22T15:42:59Z</time>
      </trkpt>
      <trkpt lat="49.8155" lon="2.11421">
        <ele>132</ele>
        <time>2023-02-22T15:43:00Z</time>
      </trkpt>
      <trkpt lat="49.81549" lon="2.11422">
        <ele>132</ele>
        <time>2023-02-22T15:43:01Z</time>
      </trkpt>
      <trkpt lat="49.81547" lon="2.11422">
        <ele>132</ele>
        <time>2023-02-22T15:43:02Z</time>
      </trkpt>
      <trkpt lat="49.81546" lon="2.11422">
        <ele>132</ele>
        <time>2023-02-22T15:43:03Z</time>
      </trkpt>
      <trkpt lat="49.81545" lon="2.11423">
        <ele>132</ele>
        <time>2023-02-22T15:43:04Z</time>
      </trkpt>
      <trkpt lat="49.81543" lon="2.11423">
        <ele>132</ele>
        <time>2023-02-22T15:43:05Z</time>
      </trkpt>
      <trkpt lat="49.81542" lon="2.11423">
        <ele>132</ele>
        <time>2023-02-22T15:43:06Z</time>
      </trkpt>
      <trkpt lat="49.81541" lon="2.11424">
        <ele>132</ele>
        <time>2023-02-22T15:43:07Z</time>
      </trkpt>
      <trkpt lat="49.81539" lon="2.11424">
        <ele>132</ele>
        <time>2023-02-22T15:43:08Z</time>
      </trkpt>
      <trkpt lat="49.81538" lon="2.11424">
        <ele>131.9</ele>
        <time>2023-02-22T15:43:10Z</time>
      </trkpt>
      <trkpt lat="49.81537" lon="2.11424">
        <ele>131.9</ele>
        <time>2023-02-22T15:43:11Z</time>
      </trkpt>
      <trkpt lat="49.81536" lon="2.11424">
        <ele>131.9</ele>
        <time>2023-02-22T15:43:12Z</time>
      </trkpt>
      <trkpt lat="49.81535" lon="2.11424">
        <ele>131.9</ele>
        <time>2023-02-22T15:43:13Z</time>
      </trkpt>
      <trkpt lat="49.81534" lon="2.11424">
        <ele>131.9</ele>
        <time>2023-02-22T15:43:14Z</time>
      </trkpt>
      <trkpt lat="49.81532" lon="2.11424">
        <ele>131.9</ele>
        <time>2023-02-22T15:43:16Z</time>
      </trkpt>
      <trkpt lat="49.81531" lon="2.11424">
        <ele>131.9</ele>
        <time>2023-02-22T15:43:17Z</time>
      </trkpt>
      <trkpt lat="49.8153" lon="2.11424">
        <ele>131.9</ele>
        <time>2023-02-22T15:43:18Z</time>
      </trkpt>
      <trkpt lat="49.81529" lon="2.11424">
        <ele>131.9</ele>
        <time>2023-02-22T15:43:19Z</time>
      </trkpt>
      <trkpt lat="49.81526" lon="2.11424">
        <ele>131.9</ele>
        <time>2023-02-22T15:43:20Z</time>
      </trkpt>
      <trkpt lat="49.81526" lon="2.11424">
        <ele>131.9</ele>
        <time>2023-02-22T15:43:21Z</time>
      </trkpt>
      <trkpt lat="49.81525" lon="2.11424">
        <ele>131.9</ele>
        <time>2023-02-22T15:43:22Z</time>
      </trkpt>
      <trkpt lat="49.81523" lon="2.11424">
        <ele>131.9</ele>
        <time>2023-02-22T15:43:23Z</time>
      </trkpt>
      <trkpt lat="49.81522" lon="2.11424">
        <ele>131.9</ele>
        <time>2023-02-22T15:43:24Z</time>
      </trkpt>
      <trkpt lat="49.81521" lon="2.11424">
        <ele>131.9</ele>
        <time>2023-02-22T15:43:25Z</time>
      </trkpt>
      <trkpt lat="49.81519" lon="2.11424">
        <ele>131.8</ele>
        <time>2023-02-22T15:43:26Z</time>
      </trkpt>
      <trkpt lat="49.81518" lon="2.11424">
        <ele>131.8</ele>
        <time>2023-02-22T15:43:27Z</time>
      </trkpt>
      <trkpt lat="49.81517" lon="2.11425">
        <ele>131.8</ele>
        <time>2023-02-22T15:43:28Z</time>
      </trkpt>
      <trkpt lat="49.81515" lon="2.11426">
        <ele>131.8</ele>
        <time>2023-02-22T15:43:30Z</time>
      </trkpt>
      <trkpt lat="49.81513" lon="2.11426">
        <ele>131.8</ele>
        <time>2023-02-22T15:43:31Z</time>
      </trkpt>
      <trkpt lat="49.81512" lon="2.11426">
        <ele>131.8</ele>
        <time>2023-02-22T15:43:32Z</time>
      </trkpt>
      <trkpt lat="49.8151" lon="2.11427">
        <ele>131.8</ele>
        <time>2023-02-22T15:43:33Z</time>
      </trkpt>
      <trkpt lat="49.81509" lon="2.11428">
        <ele>131.8</ele>
        <time>2023-02-22T15:43:34Z</time>
      </trkpt>
      <trkpt lat="49.81507" lon="2.11429">
        <ele>131.8</ele>
        <time>2023-02-22T15:43:35Z</time>
      </trkpt>
      <trkpt lat="49.81506" lon="2.11429">
        <ele>131.8</ele>
        <time>2023-02-22T15:43:37Z</time>
      </trkpt>
      <trkpt lat="49.81505" lon="2.1143">
        <ele>131.8</ele>
        <time>2023-02-22T15:43:38Z</time>
      </trkpt>
      <trkpt lat="49.81504" lon="2.11431">
        <ele>131.8</ele>
        <time>2023-02-22T15:43:39Z</time>
      </trkpt>
      <trkpt lat="49.81503" lon="2.11431">
        <ele>131.8</ele>
        <time>2023-02-22T15:43:40Z</time>
      </trkpt>
      <trkpt lat="49.81501" lon="2.11432">
        <ele>131.8</ele>
        <time>2023-02-22T15:43:41Z</time>
      </trkpt>
      <trkpt lat="49.815" lon="2.11432">
        <ele>131.8</ele>
        <time>2023-02-22T15:43:43Z</time>
      </trkpt>
      <trkpt lat="49.81499" lon="2.11432">
        <ele>131.8</ele>
        <time>2023-02-22T15:43:44Z</time>
      </trkpt>
      <trkpt lat="49.81498" lon="2.11432">
        <ele>131.7</ele>
        <time>2023-02-22T15:43:45Z</time>
      </trkpt>
      <trkpt lat="49.81495" lon="2.11432">
        <ele>131.7</ele>
        <time>2023-02-22T15:43:46Z</time>
      </trkpt>
      <trkpt lat="49.81494" lon="2.11432">
        <ele>131.7</ele>
        <time>2023-02-22T15:43:47Z</time>
      </trkpt>
      <trkpt lat="49.81494" lon="2.11432">
        <ele>131.7</ele>
        <time>2023-02-22T15:43:48Z</time>
      </trkpt>
      <trkpt lat="49.81492" lon="2.11431">
        <ele>131.7</ele>
        <time>2023-02-22T15:43:50Z</time>
      </trkpt>
      <trkpt lat="49.81491" lon="2.1143">
        <ele>131.7</ele>
        <time>2023-02-22T15:43:51Z</time>
      </trkpt>
      <trkpt lat="49.8149" lon="2.1143">
        <ele>131.7</ele>
        <time>2023-02-22T15:43:52Z</time>
      </trkpt>
      <trkpt lat="49.81489" lon="2.1143">
        <ele>131.7</ele>
        <time>2023-02-22T15:43:53Z</time>
      </trkpt>
      <trkpt lat="49.81488" lon="2.1143">
        <ele>131.7</ele>
        <time>2023-02-22T15:43:54Z</time>
      </trkpt>
      <trkpt lat="49.81486" lon="2.1143">
        <ele>131.7</ele>
        <time>2023-02-22T15:43:55Z</time>
      </trkpt>
      <trkpt lat="49.81485" lon="2.1143">
        <ele>131.7</ele>
        <time>2023-02-22T15:43:56Z</time>
      </trkpt>
      <trkpt lat="49.81484" lon="2.11431">
        <ele>131.7</ele>
        <time>2023-02-22T15:43:58Z</time>
      </trkpt>
      <trkpt lat="49.81482" lon="2.11432">
        <ele>131.7</ele>
        <time>2023-02-22T15:43:59Z</time>
      </trkpt>
      <trkpt lat="49.81481" lon="2.11432">
        <ele>131.7</ele>
        <time>2023-02-22T15:44:00Z</time>
      </trkpt>
      <trkpt lat="49.8148" lon="2.11432">
        <ele>131.7</ele>
        <time>2023-02-22T15:44:01Z</time>
      </trkpt>
      <trkpt lat="49.81479" lon="2.11432">
        <ele>131.7</ele>
        <time>2023-02-22T15:44:02Z</time>
      </trkpt>
      <trkpt lat="49.81477" lon="2.11433">
        <ele>131.7</ele>
        <time>2023-02-22T15:44:03Z</time>
      </trkpt>
      <trkpt lat="49.81476" lon="2.11434">
        <ele>131.7</ele>
        <time>2023-02-22T15:44:04Z</time>
      </trkpt>
      <trkpt lat="49.81475" lon="2.11434">
        <ele>131.7</ele>
        <time>2023-02-22T15:44:05Z</time>
      </trkpt>
      <trkpt lat="49.81473" lon="2.11435">
        <ele>131.7</ele>
        <time>2023-02-22T15:44:07Z</time>
      </trkpt>
      <trkpt lat="49.81471" lon="2.11435">
        <ele>131.7</ele>
        <time>2023-02-22T15:44:08Z</time>
      </trkpt>
      <trkpt lat="49.8147" lon="2.11435">
        <ele>131.7</ele>
        <time>2023-02-22T15:44:09Z</time>
      </trkpt>
      <trkpt lat="49.81469" lon="2.11435">
        <ele>131.7</ele>
        <time>2023-02-22T15:44:10Z</time>
      </trkpt>
      <trkpt lat="49.81468" lon="2.11435">
        <ele>131.7</ele>
        <time>2023-02-22T15:44:11Z</time>
      </trkpt>
      <trkpt lat="49.81466" lon="2.11436">
        <ele>131.7</ele>
        <time>2023-02-22T15:44:12Z</time>
      </trkpt>
      <trkpt lat="49.81465" lon="2.11436">
        <ele>131.7</ele>
        <time>2023-02-22T15:44:13Z</time>
      </trkpt>
      <trkpt lat="49.81463" lon="2.11436">
        <ele>131.7</ele>
        <time>2023-02-22T15:44:14Z</time>
      </trkpt>
      <trkpt lat="49.81461" lon="2.11436">
        <ele>131.7</ele>
        <time>2023-02-22T15:44:15Z</time>
      </trkpt>
      <trkpt lat="49.8146" lon="2.11436">
        <ele>131.7</ele>
        <time>2023-02-22T15:44:16Z</time>
      </trkpt>
      <trkpt lat="49.81459" lon="2.11435">
        <ele>131.7</ele>
        <time>2023-02-22T15:44:18Z</time>
      </trkpt>
      <trkpt lat="49.81458" lon="2.11435">
        <ele>131.7</ele>
        <time>2023-02-22T15:44:19Z</time>
      </trkpt>
      <trkpt lat="49.81457" lon="2.11434">
        <ele>131.7</ele>
        <time>2023-02-22T15:44:20Z</time>
      </trkpt>
      <trkpt lat="49.81456" lon="2.11433">
        <ele>131.7</ele>
        <time>2023-02-22T15:44:21Z</time>
      </trkpt>
      <trkpt lat="49.81455" lon="2.11432">
        <ele>131.7</ele>
        <time>2023-02-22T15:44:22Z</time>
      </trkpt>
      <trkpt lat="49.81453" lon="2.11431">
        <ele>131.7</ele>
        <time>2023-02-22T15:44:24Z</time>
      </trkpt>
      <trkpt lat="49.81452" lon="2.1143">
        <ele>131.7</ele>
        <time>2023-02-22T15:44:25Z</time>
      </trkpt>
      <trkpt lat="49.81451" lon="2.11428">
        <ele>131.7</ele>
        <time>2023-02-22T15:44:26Z</time>
      </trkpt>
      <trkpt lat="49.8145" lon="2.11427">
        <ele>131.7</ele>
        <time>2023-02-22T15:44:27Z</time>
      </trkpt>
      <trkpt lat="49.8145" lon="2.11426">
        <ele>131.7</ele>
        <time>2023-02-22T15:44:28Z</time>
      </trkpt>
      <trkpt lat="49.81449" lon="2.11423">
        <ele>131.7</ele>
        <time>2023-02-22T15:44:29Z</time>
      </trkpt>
      <trkpt lat="49.81448" lon="2.11421">
        <ele>131.7</ele>
        <time>2023-02-22T15:44:30Z</time>
      </trkpt>
      <trkpt lat="49.81448" lon="2.1142">
        <ele>131.7</ele>
        <time>2023-02-22T15:44:32Z</time>
      </trkpt>
      <trkpt lat="49.81448" lon="2.11418">
        <ele>131.7</ele>
        <time>2023-02-22T15:44:33Z</time>
      </trkpt>
      <trkpt lat="49.81447" lon="2.11417">
        <ele>131.7</ele>
        <time>2023-02-22T15:44:34Z</time>
      </trkpt>
      <trkpt lat="49.81447" lon="2.11415">
        <ele>131.7</ele>
        <time>2023-02-22T15:44:35Z</time>
      </trkpt>
      <trkpt lat="49.81446" lon="2.11412">
        <ele>131.7</ele>
        <time>2023-02-22T15:44:36Z</time>
      </trkpt>
      <trkpt lat="49.81446" lon="2.11411">
        <ele>131.7</ele>
        <time>2023-02-22T15:44:37Z</time>
      </trkpt>
      <trkpt lat="49.81446" lon="2.11409">
        <ele>131.7</ele>
        <time>2023-02-22T15:44:39Z</time>
      </trkpt>
      <trkpt lat="49.81446" lon="2.11408">
        <ele>131.7</ele>
        <time>2023-02-22T15:44:40Z</time>
      </trkpt>
      <trkpt lat="49.81446" lon="2.11407">
        <ele>131.7</ele>
        <time>2023-02-22T15:44:41Z</time>
      </trkpt>
      <trkpt lat="49.81446" lon="2.11405">
        <ele>131.7</ele>
        <time>2023-02-22T15:44:42Z</time>
      </trkpt>
      <trkpt lat="49.81447" lon="2.11403">
        <ele>131.7</ele>
        <time>2023-02-22T15:44:44Z</time>
      </trkpt>
      <trkpt lat="49.81449" lon="2.11404">
        <ele>131.7</ele>
        <time>2023-02-22T15:44:46Z</time>
      </trkpt>
      <trkpt lat="49.8145" lon="2.11406">
        <ele>131.7</ele>
        <time>2023-02-22T15:44:47Z</time>
      </trkpt>
      <trkpt lat="49.81451" lon="2.11408">
        <ele>131.7</ele>
        <time>2023-02-22T15:44:49Z</time>
      </trkpt>
      <trkpt lat="49.81452" lon="2.11408">
        <ele>131.7</ele>
        <time>2023-02-22T15:44:50Z</time>
      </trkpt>
      <trkpt lat="49.81454" lon="2.11407">
        <ele>131.7</ele>
        <time>2023-02-22T15:44:51Z</time>
      </trkpt>
      <trkpt lat="49.81456" lon="2.11406">
        <ele>131.7</ele>
        <time>2023-02-22T15:44:52Z</time>
      </trkpt>
      <trkpt lat="49.81456" lon="2.11404">
        <ele>131.7</ele>
        <time>2023-02-22T15:44:53Z</time>
      </trkpt>
      <trkpt lat="49.81457" lon="2.11402">
        <ele>131.7</ele>
        <time>2023-02-22T15:44:55Z</time>
      </trkpt>
      <trkpt lat="49.81456" lon="2.11399">
        <ele>131.7</ele>
        <time>2023-02-22T15:44:56Z</time>
      </trkpt>
      <trkpt lat="49.81455" lon="2.11395">
        <ele>131.7</ele>
        <time>2023-02-22T15:44:57Z</time>
      </trkpt>
      <trkpt lat="49.81455" lon="2.11394">
        <ele>131.7</ele>
        <time>2023-02-22T15:44:58Z</time>
      </trkpt>
      <trkpt lat="49.81454" lon="2.1139">
        <ele>131.7</ele>
        <time>2023-02-22T15:45:00Z</time>
      </trkpt>
      <trkpt lat="49.81454" lon="2.11388">
        <ele>131.7</ele>
        <time>2023-02-22T15:45:01Z</time>
      </trkpt>
      <trkpt lat="49.81454" lon="2.11387">
        <ele>131.7</ele>
        <time>2023-02-22T15:45:02Z</time>
      </trkpt>
      <trkpt lat="49.81454" lon="2.11385">
        <ele>131.7</ele>
        <time>2023-02-22T15:45:04Z</time>
      </trkpt>
      <trkpt lat="49.81453" lon="2.11383">
        <ele>131.7</ele>
        <time>2023-02-22T15:45:05Z</time>
      </trkpt>
      <trkpt lat="49.81453" lon="2.11382">
        <ele>131.7</ele>
        <time>2023-02-22T15:45:06Z</time>
      </trkpt>
      <trkpt lat="49.81453" lon="2.1138">
        <ele>131.7</ele>
        <time>2023-02-22T15:45:07Z</time>
      </trkpt>
      <trkpt lat="49.81453" lon="2.11379">
        <ele>131.7</ele>
        <time>2023-02-22T15:45:09Z</time>
      </trkpt>
      <trkpt lat="49.81452" lon="2.11379">
        <ele>131.7</ele>
        <time>2023-02-22T15:45:10Z</time>
      </trkpt>
      <trkpt lat="49.81452" lon="2.11378">
        <ele>131.7</ele>
        <time>2023-02-22T15:45:11Z</time>
      </trkpt>
      <trkpt lat="49.81452" lon="2.11378">
        <ele>131.7</ele>
        <time>2023-02-22T15:45:13Z</time>
      </trkpt>
      <trkpt lat="49.81452" lon="2.11378">
        <ele>131.7</ele>
        <time>2023-02-22T15:45:14Z</time>
      </trkpt>
      <trkpt lat="49.81452" lon="2.11378">
        <ele>131.7</ele>
        <time>2023-02-22T15:45:16Z</time>
      </trkpt>
      <trkpt lat="49.81452" lon="2.11379">
        <ele>131.7</ele>
        <time>2023-02-22T15:45:17Z</time>
      </trkpt>
      <trkpt lat="49.81452" lon="2.11379">
        <ele>131.7</ele>
        <time>2023-02-22T15:45:18Z</time>
      </trkpt>
      <trkpt lat="49.81452" lon="2.11378">
        <ele>131.7</ele>
        <time>2023-02-22T15:45:20Z</time>
      </trkpt>
      <trkpt lat="49.81452" lon="2.11378">
        <ele>131.7</ele>
        <time>2023-02-22T15:45:21Z</time>
      </trkpt>
      <trkpt lat="49.81452" lon="2.11378">
        <ele>131.7</ele>
        <time>2023-02-22T15:45:22Z</time>
      </trkpt>
      <trkpt lat="49.81452" lon="2.11378">
        <ele>131.7</ele>
        <time>2023-02-22T15:45:24Z</time>
      </trkpt>
      <trkpt lat="49.81452" lon="2.11378">
        <ele>131.7</ele>
        <time>2023-02-22T15:45:25Z</time>
      </trkpt>
      <trkpt lat="49.81452" lon="2.11378">
        <ele>131.7</ele>
        <time>2023-02-22T15:45:26Z</time>
      </trkpt>
      <trkpt lat="49.81452" lon="2.11379">
        <ele>131.7</ele>
        <time>2023-02-22T15:45:28Z</time>
      </trkpt>
      <trkpt lat="49.81452" lon="2.11379">
        <ele>131.7</ele>
        <time>2023-02-22T15:45:29Z</time>
      </trkpt>
      <trkpt lat="49.81452" lon="2.1138">
        <ele>131.7</ele>
        <time>2023-02-22T15:45:30Z</time>
      </trkpt>
      <trkpt lat="49.81452" lon="2.1138">
        <ele>131.7</ele>
        <time>2023-02-22T15:45:31Z</time>
      </trkpt>
      <trkpt lat="49.81452" lon="2.1138">
        <ele>131.7</ele>
        <time>2023-02-22T15:45:32Z</time>
      </trkpt>
      <trkpt lat="49.81452" lon="2.1138">
        <ele>131.7</ele>
        <time>2023-02-22T15:45:33Z</time>
      </trkpt>
      <trkpt lat="49.81453" lon="2.11381">
        <ele>131.7</ele>
        <time>2023-02-22T15:45:34Z</time>
      </trkpt>
      <trkpt lat="49.81454" lon="2.11382">
        <ele>131.7</ele>
        <time>2023-02-22T15:45:35Z</time>
      </trkpt>
      <trkpt lat="49.81454" lon="2.11383">
        <ele>131.7</ele>
        <time>2023-02-22T15:45:36Z</time>
      </trkpt>
      <trkpt lat="49.81454" lon="2.11383">
        <ele>131.7</ele>
        <time>2023-02-22T15:45:37Z</time>
      </trkpt>
      <trkpt lat="49.81454" lon="2.11383">
        <ele>131.7</ele>
        <time>2023-02-22T15:45:38Z</time>
      </trkpt>
      <trkpt lat="49.81454" lon="2.11383">
        <ele>131.7</ele>
        <time>2023-02-22T15:45:39Z</time>
      </trkpt>
      <trkpt lat="49.81454" lon="2.11383">
        <ele>131.7</ele>
        <time>2023-02-22T15:45:40Z</time>
      </trkpt>
      <trkpt lat="49.81454" lon="2.11383">
        <ele>131.7</ele>
        <time>2023-02-22T15:45:41Z</time>
      </trkpt>
      <trkpt lat="49.81454" lon="2.11383">
        <ele>131.7</ele>
        <time>2023-02-22T15:45:42Z</time>
      </trkpt>
      <trkpt lat="49.81454" lon="2.11383">
        <ele>131.7</ele>
        <time>2023-02-22T15:45:43Z</time>
      </trkpt>
      <trkpt lat="49.81454" lon="2.11383">
        <ele>131.7</ele>
        <time>2023-02-22T15:45:44Z</time>
      </trkpt>
      <trkpt lat="49.81454" lon="2.11383">
        <ele>131.7</ele>
        <time>2023-02-22T15:45:45Z</time>
      </trkpt>
      <trkpt lat="49.81454" lon="2.11383">
        <ele>131.7</ele>
        <time>2023-02-22T15:45:46Z</time>
      </trkpt>
      <trkpt lat="49.81454" lon="2.11383">
        <ele>131.7</ele>
        <time>2023-02-22T15:45:47Z</time>
      </trkpt>
      <trkpt lat="49.81454" lon="2.11383">
        <ele>131.7</ele>
        <time>2023-02-22T15:45:48Z</time>
      </trkpt>
      <trkpt lat="49.81454" lon="2.11383">
        <ele>131.7</ele>
        <time>2023-02-22T15:45:49Z</time>
      </trkpt>
      <trkpt lat="49.81454" lon="2.11383">
        <ele>131.7</ele>
        <time>2023-02-22T15:45:50Z</time>
      </trkpt>
      <trkpt lat="49.81454" lon="2.11383">
        <ele>131.7</ele>
        <time>2023-02-22T15:45:51Z</time>
      </trkpt>
      <trkpt lat="49.81454" lon="2.11383">
        <ele>131.7</ele>
        <time>2023-02-22T15:45:52Z</time>
      </trkpt>
      <trkpt lat="49.81454" lon="2.11383">
        <ele>131.7</ele>
        <time>2023-02-22T15:45:53Z</time>
      </trkpt>
      <trkpt lat="49.81454" lon="2.11383">
        <ele>131.7</ele>
        <time>2023-02-22T15:45:54Z</time>
      </trkpt>
      <trkpt lat="49.81454" lon="2.11383">
        <ele>131.7</ele>
        <time>2023-02-22T15:45:55Z</time>
      </trkpt>
      <trkpt lat="49.81454" lon="2.11383">
        <ele>131.7</ele>
        <time>2023-02-22T15:45:56Z</time>
      </trkpt>
      <trkpt lat="49.81454" lon="2.11383">
        <ele>131.7</ele>
        <time>2023-02-22T15:45:57Z</time>
      </trkpt>
      <trkpt lat="49.81454" lon="2.11383">
        <ele>131.7</ele>
        <time>2023-02-22T15:45:58Z</time>
      </trkpt>
      <trkpt lat="49.81454" lon="2.11383">
        <ele>131.7</ele>
        <time>2023-02-22T15:45:59Z</time>
      </trkpt>
      <trkpt lat="49.81454" lon="2.11383">
        <ele>131.7</ele>
        <time>2023-02-22T15:46:00Z</time>
      </trkpt>
      <trkpt lat="49.81454" lon="2.11383">
        <ele>131.7</ele>
        <time>2023-02-22T15:46:01Z</time>
      </trkpt>
      <trkpt lat="49.81454" lon="2.11383">
        <ele>131.7</ele>
        <time>2023-02-22T15:46:02Z</time>
      </trkpt>
      <trkpt lat="49.81454" lon="2.11383">
        <ele>131.7</ele>
        <time>2023-02-22T15:46:03Z</time>
      </trkpt>
      <trkpt lat="49.81454" lon="2.11383">
        <ele>131.7</ele>
        <time>2023-02-22T15:46:04Z</time>
      </trkpt>
      <trkpt lat="49.81454" lon="2.11383">
        <ele>131.7</ele>
        <time>2023-02-22T15:46:05Z</time>
      </trkpt>
      <trkpt lat="49.81454" lon="2.11383">
        <ele>131.7</ele>
        <time>2023-02-22T15:46:06Z</time>
      </trkpt>
      <trkpt lat="49.81454" lon="2.11383">
        <ele>131.7</ele>
        <time>2023-02-22T15:46:07Z</time>
      </trkpt>
      <trkpt lat="49.81454" lon="2.11383">
        <ele>131.7</ele>
        <time>2023-02-22T15:46:08Z</time>
      </trkpt>
      <trkpt lat="49.81454" lon="2.11383">
        <ele>131.7</ele>
        <time>2023-02-22T15:46:09Z</time>
      </trkpt>
      <trkpt lat="49.81454" lon="2.11383">
        <ele>131.7</ele>
        <time>2023-02-22T15:46:10Z</time>
      </trkpt>
      <trkpt lat="49.81454" lon="2.11383">
        <ele>131.7</ele>
        <time>2023-02-22T15:46:11Z</time>
      </trkpt>
      <trkpt lat="49.81454" lon="2.11383">
        <ele>131.7</ele>
        <time>2023-02-22T15:46:12Z</time>
      </trkpt>
      <trkpt lat="49.81454" lon="2.11383">
        <ele>131.7</ele>
        <time>2023-02-22T15:46:13Z</time>
      </trkpt>
      <trkpt lat="49.81454" lon="2.11383">
        <ele>131.7</ele>
        <time>2023-02-22T15:46:14Z</time>
      </trkpt>
      <trkpt lat="49.81454" lon="2.11383">
        <ele>131.7</ele>
        <time>2023-02-22T15:46:15Z</time>
      </trkpt>
      <trkpt lat="49.81454" lon="2.11383">
        <ele>131.7</ele>
        <time>2023-02-22T15:46:16Z</time>
      </trkpt>
      <trkpt lat="49.81454" lon="2.11383">
        <ele>131.7</ele>
        <time>2023-02-22T15:46:17Z</time>
      </trkpt>
      <trkpt lat="49.81454" lon="2.11383">
        <ele>131.7</ele>
        <time>2023-02-22T15:46:18Z</time>
      </trkpt>
      <trkpt lat="49.81454" lon="2.11383">
        <ele>131.7</ele>
        <time>2023-02-22T15:46:19Z</time>
      </trkpt>
      <trkpt lat="49.81454" lon="2.11383">
        <ele>131.7</ele>
        <time>2023-02-22T15:46:20Z</time>
      </trkpt>
      <trkpt lat="49.81454" lon="2.11383">
        <ele>131.7</ele>
        <time>2023-02-22T15:46:21Z</time>
      </trkpt>
      <trkpt lat="49.81454" lon="2.11383">
        <ele>131.7</ele>
        <time>2023-02-22T15:46:22Z</time>
      </trkpt>
      <trkpt lat="49.81454" lon="2.11383">
        <ele>131.7</ele>
        <time>2023-02-22T15:46:23Z</time>
      </trkpt>
      <trkpt lat="49.81454" lon="2.11383">
        <ele>131.7</ele>
        <time>2023-02-22T15:46:24Z</time>
      </trkpt>
      <trkpt lat="49.81454" lon="2.11383">
        <ele>131.7</ele>
        <time>2023-02-22T15:46:25Z</time>
      </trkpt>
      <trkpt lat="49.81454" lon="2.11383">
        <ele>131.7</ele>
        <time>2023-02-22T15:46:26Z</time>
      </trkpt>
      <trkpt lat="49.81454" lon="2.11383">
        <ele>131.7</ele>
        <time>2023-02-22T15:46:27Z</time>
      </trkpt>
      <trkpt lat="49.81454" lon="2.11383">
        <ele>131.7</ele>
        <time>2023-02-22T15:46:28Z</time>
      </trkpt>
      <trkpt lat="49.81454" lon="2.11383">
        <ele>131.7</ele>
        <time>2023-02-22T15:46:29Z</time>
      </trkpt>
      <trkpt lat="49.81454" lon="2.11384">
        <ele>131.7</ele>
        <time>2023-02-22T15:46:30Z</time>
      </trkpt>
      <trkpt lat="49.81455" lon="2.11384">
        <ele>131.7</ele>
        <time>2023-02-22T15:46:31Z</time>
      </trkpt>
      <trkpt lat="49.81455" lon="2.11384">
        <ele>131.7</ele>
        <time>2023-02-22T15:46:32Z</time>
      </trkpt>
      <trkpt lat="49.81455" lon="2.11384">
        <ele>131.7</ele>
        <time>2023-02-22T15:46:33Z</time>
      </trkpt>
      <trkpt lat="49.81455" lon="2.11383">
        <ele>131.7</ele>
        <time>2023-02-22T15:46:34Z</time>
      </trkpt>
      <trkpt lat="49.81455" lon="2.11381">
        <ele>131.7</ele>
        <time>2023-02-22T15:46:36Z</time>
      </trkpt>
      <trkpt lat="49.81454" lon="2.11381">
        <ele>131.7</ele>
        <time>2023-02-22T15:46:37Z</time>
      </trkpt>
      <trkpt lat="49.81454" lon="2.11382">
        <ele>131.7</ele>
        <time>2023-02-22T15:46:38Z</time>
      </trkpt>
      <trkpt lat="49.81454" lon="2.11382">
        <ele>131.7</ele>
        <time>2023-02-22T15:46:40Z</time>
      </trkpt>
      <trkpt lat="49.81454" lon="2.11382">
        <ele>131.7</ele>
        <time>2023-02-22T15:46:41Z</time>
      </trkpt>
      <trkpt lat="49.81454" lon="2.11383">
        <ele>131.7</ele>
        <time>2023-02-22T15:46:43Z</time>
      </trkpt>
      <trkpt lat="49.81454" lon="2.11383">
        <ele>131.7</ele>
        <time>2023-02-22T15:46:44Z</time>
      </trkpt>
      <trkpt lat="49.81454" lon="2.11383">
        <ele>131.7</ele>
        <time>2023-02-22T15:46:45Z</time>
      </trkpt>
      <trkpt lat="49.81454" lon="2.11383">
        <ele>131.7</ele>
        <time>2023-02-22T15:46:46Z</time>
      </trkpt>
      <trkpt lat="49.81455" lon="2.11383">
        <ele>131.7</ele>
        <time>2023-02-22T15:46:47Z</time>
      </trkpt>
      <trkpt lat="49.81455" lon="2.11383">
        <ele>131.7</ele>
        <time>2023-02-22T15:46:48Z</time>
      </trkpt>
      <trkpt lat="49.81455" lon="2.11382">
        <ele>131.7</ele>
        <time>2023-02-22T15:46:49Z</time>
      </trkpt>
      <trkpt lat="49.81455" lon="2.11382">
        <ele>131.7</ele>
        <time>2023-02-22T15:46:51Z</time>
      </trkpt>
      <trkpt lat="49.81454" lon="2.11382">
        <ele>131.7</ele>
        <time>2023-02-22T15:46:52Z</time>
      </trkpt>
      <trkpt lat="49.81453" lon="2.11381">
        <ele>131.7</ele>
        <time>2023-02-22T15:46:54Z</time>
      </trkpt>
      <trkpt lat="49.81453" lon="2.11382">
        <ele>131.7</ele>
        <time>2023-02-22T15:46:55Z</time>
      </trkpt>
      <trkpt lat="49.81453" lon="2.11382">
        <ele>131.7</ele>
        <time>2023-02-22T15:46:56Z</time>
      </trkpt>
      <trkpt lat="49.81453" lon="2.11383">
        <ele>131.7</ele>
        <time>2023-02-22T15:46:58Z</time>
      </trkpt>
      <trkpt lat="49.81453" lon="2.11383">
        <ele>131.7</ele>
        <time>2023-02-22T15:46:59Z</time>
      </trkpt>
      <trkpt lat="49.81454" lon="2.11383">
        <ele>131.7</ele>
        <time>2023-02-22T15:47:01Z</time>
      </trkpt>
      <trkpt lat="49.81454" lon="2.11383">
        <ele>131.7</ele>
        <time>2023-02-22T15:47:02Z</time>
      </trkpt>
      <trkpt lat="49.81454" lon="2.11383">
        <ele>131.7</ele>
        <time>2023-02-22T15:47:03Z</time>
      </trkpt>
      <trkpt lat="49.81454" lon="2.11383">
        <ele>131.7</ele>
        <time>2023-02-22T15:47:05Z</time>
      </trkpt>
      <trkpt lat="49.81454" lon="2.11382">
        <ele>131.7</ele>
        <time>2023-02-22T15:47:06Z</time>
      </trkpt>
      <trkpt lat="49.81454" lon="2.11382">
        <ele>131.7</ele>
        <time>2023-02-22T15:47:07Z</time>
      </trkpt>
      <trkpt lat="49.81453" lon="2.11382">
        <ele>131.7</ele>
        <time>2023-02-22T15:47:08Z</time>
      </trkpt>
      <trkpt lat="49.81453" lon="2.11382">
        <ele>131.7</ele>
        <time>2023-02-22T15:47:10Z</time>
      </trkpt>
      <trkpt lat="49.81453" lon="2.11381">
        <ele>131.7</ele>
        <time>2023-02-22T15:47:11Z</time>
      </trkpt>
      <trkpt lat="49.81453" lon="2.11381">
        <ele>131.7</ele>
        <time>2023-02-22T15:47:12Z</time>
      </trkpt>
      <trkpt lat="49.81453" lon="2.1138">
        <ele>131.7</ele>
        <time>2023-02-22T15:47:13Z</time>
      </trkpt>
      <trkpt lat="49.81452" lon="2.1138">
        <ele>131.7</ele>
        <time>2023-02-22T15:47:15Z</time>
      </trkpt>
      <trkpt lat="49.81452" lon="2.1138">
        <ele>131.7</ele>
        <time>2023-02-22T15:47:16Z</time>
      </trkpt>
      <trkpt lat="49.81452" lon="2.1138">
        <ele>131.7</ele>
        <time>2023-02-22T15:47:17Z</time>
      </trkpt>
      <trkpt lat="49.81452" lon="2.11381">
        <ele>131.7</ele>
        <time>2023-02-22T15:47:19Z</time>
      </trkpt>
      <trkpt lat="49.81452" lon="2.11381">
        <ele>131.7</ele>
        <time>2023-02-22T15:47:21Z</time>
      </trkpt>
      <trkpt lat="49.81452" lon="2.11381">
        <ele>131.7</ele>
        <time>2023-02-22T15:47:22Z</time>
      </trkpt>
      <trkpt lat="49.81452" lon="2.11381">
        <ele>131.7</ele>
        <time>2023-02-22T15:47:24Z</time>
      </trkpt>
      <trkpt lat="49.81453" lon="2.11381">
        <ele>131.7</ele>
        <time>2023-02-22T15:47:25Z</time>
      </trkpt>
      <trkpt lat="49.81453" lon="2.11381">
        <ele>131.7</ele>
        <time>2023-02-22T15:47:27Z</time>
      </trkpt>
      <trkpt lat="49.81453" lon="2.11381">
        <ele>131.7</ele>
        <time>2023-02-22T15:47:28Z</time>
      </trkpt>
      <trkpt lat="49.81453" lon="2.11381">
        <ele>131.7</ele>
        <time>2023-02-22T15:47:29Z</time>
      </trkpt>
      <trkpt lat="49.81453" lon="2.11381">
        <ele>131.7</ele>
        <time>2023-02-22T15:47:31Z</time>
      </trkpt>
      <trkpt lat="49.81453" lon="2.11381">
        <ele>131.7</ele>
        <time>2023-02-22T15:47:32Z</time>
      </trkpt>
      <trkpt lat="49.81453" lon="2.11381">
        <ele>131.7</ele>
        <time>2023-02-22T15:47:33Z</time>
      </trkpt>
      <trkpt lat="49.81453" lon="2.11382">
        <ele>131.7</ele>
        <time>2023-02-22T15:47:34Z</time>
      </trkpt>
      <trkpt lat="49.81453" lon="2.11382">
        <ele>131.7</ele>
        <time>2023-02-22T15:47:35Z</time>
      </trkpt>
      <trkpt lat="49.81453" lon="2.11383">
        <ele>131.7</ele>
        <time>2023-02-22T15:47:36Z</time>
      </trkpt>
      <trkpt lat="49.81454" lon="2.11384">
        <ele>131.7</ele>
        <time>2023-02-22T15:47:38Z</time>
      </trkpt>
      <trkpt lat="49.81454" lon="2.11384">
        <ele>131.7</ele>
        <time>2023-02-22T15:47:39Z</time>
      </trkpt>
      <trkpt lat="49.81455" lon="2.11385">
        <ele>131.7</ele>
        <time>2023-02-22T15:47:40Z</time>
      </trkpt>
      <trkpt lat="49.81456" lon="2.11385">
        <ele>131.7</ele>
        <time>2023-02-22T15:47:41Z</time>
      </trkpt>
      <trkpt lat="49.81457" lon="2.11385">
        <ele>131.7</ele>
        <time>2023-02-22T15:47:42Z</time>
      </trkpt>
      <trkpt lat="49.81457" lon="2.11386">
        <ele>131.7</ele>
        <time>2023-02-22T15:47:43Z</time>
      </trkpt>
      <trkpt lat="49.81457" lon="2.11387">
        <ele>131.7</ele>
        <time>2023-02-22T15:47:44Z</time>
      </trkpt>
      <trkpt lat="49.81455" lon="2.11388">
        <ele>131.7</ele>
        <time>2023-02-22T15:47:46Z</time>
      </trkpt>
      <trkpt lat="49.81455" lon="2.11387">
        <ele>131.7</ele>
        <time>2023-02-22T15:47:47Z</time>
      </trkpt>
      <trkpt lat="49.81455" lon="2.11384">
        <ele>131.7</ele>
        <time>2023-02-22T15:47:49Z</time>
      </trkpt>
      <trkpt lat="49.81455" lon="2.11383">
        <ele>131.7</ele>
        <time>2023-02-22T15:47:50Z</time>
      </trkpt>
      <trkpt lat="49.81456" lon="2.11382">
        <ele>131.7</ele>
        <time>2023-02-22T15:47:51Z</time>
      </trkpt>
      <trkpt lat="49.81456" lon="2.11381">
        <ele>131.7</ele>
        <time>2023-02-22T15:47:53Z</time>
      </trkpt>
      <trkpt lat="49.81457" lon="2.11381">
        <ele>131.7</ele>
        <time>2023-02-22T15:47:54Z</time>
      </trkpt>
      <trkpt lat="49.81457" lon="2.11382">
        <ele>131.7</ele>
        <time>2023-02-22T15:47:56Z</time>
      </trkpt>
      <trkpt lat="49.81456" lon="2.11382">
        <ele>131.7</ele>
        <time>2023-02-22T15:47:57Z</time>
      </trkpt>
      <trkpt lat="49.81456" lon="2.11384">
        <ele>131.7</ele>
        <time>2023-02-22T15:47:59Z</time>
      </trkpt>
      <trkpt lat="49.81456" lon="2.11384">
        <ele>131.7</ele>
        <time>2023-02-22T15:48:00Z</time>
      </trkpt>
      <trkpt lat="49.81455" lon="2.11385">
        <ele>131.7</ele>
        <time>2023-02-22T15:48:01Z</time>
      </trkpt>
      <trkpt lat="49.81454" lon="2.11386">
        <ele>131.7</ele>
        <time>2023-02-22T15:48:03Z</time>
      </trkpt>
      <trkpt lat="49.81454" lon="2.11386">
        <ele>131.7</ele>
        <time>2023-02-22T15:48:05Z</time>
      </trkpt>
      <trkpt lat="49.81454" lon="2.11386">
        <ele>131.7</ele>
        <time>2023-02-22T15:48:06Z</time>
      </trkpt>
      <trkpt lat="49.81454" lon="2.11386">
        <ele>131.7</ele>
        <time>2023-02-22T15:48:07Z</time>
      </trkpt>
      <trkpt lat="49.81454" lon="2.11386">
        <ele>131.7</ele>
        <time>2023-02-22T15:48:08Z</time>
      </trkpt>
      <trkpt lat="49.81454" lon="2.11386">
        <ele>131.7</ele>
        <time>2023-02-22T15:48:09Z</time>
      </trkpt>
      <trkpt lat="49.81454" lon="2.11386">
        <ele>131.7</ele>
        <time>2023-02-22T15:48:10Z</time>
      </trkpt>
    </trkseg>
  </trk>
</gpx>